<?xml version="1.0" encoding="UTF-8" standalone="no" ?>
<gpx xmlns="http://www.topografix.com/GPX/1/1" xmlns:xsi="http://www.w3.org/2001/XMLSchema-instance" xsi:schemaLocation="http://www.topografix.com/GPX/1/1 http://www.topografix.com/GPX/1/1/gpx.xsd" version="1.1" creator="VisuGPX - https://www.visugpx.com">
  <metadata>
    <name>Boucle vallée de l'Arve autour de Sallanches</name>
    <desc><![CDATA[Balade sympa depuis Champlong par les petites routes et la nouvelle vélo-route de la vallée de l'Arve autour de Sallanches.]]></desc>
  </metadata>
  <trk>
    <name><![CDATA[Boucle vallée de l'Arve autour de Sallanches_1]]></name>
    <trkseg>
      <trkpt lat="45.89364" lon="6.69812">
        <ele>892.1</ele>
        <time>2020-08-16T13:11:04Z</time>
      </trkpt>
      <trkpt lat="45.89364" lon="6.69812">
        <ele>892.1</ele>
        <time>2020-08-16T13:11:05Z</time>
      </trkpt>
      <trkpt lat="45.89369" lon="6.69818">
        <ele>890.6</ele>
        <time>2020-08-16T13:11:06Z</time>
      </trkpt>
      <trkpt lat="45.89374" lon="6.69827">
        <ele>889.2</ele>
        <time>2020-08-16T13:11:07Z</time>
      </trkpt>
      <trkpt lat="45.89378" lon="6.69837">
        <ele>888.1</ele>
        <time>2020-08-16T13:11:08Z</time>
      </trkpt>
      <trkpt lat="45.89382" lon="6.69848">
        <ele>886.9</ele>
        <time>2020-08-16T13:11:09Z</time>
      </trkpt>
      <trkpt lat="45.89384" lon="6.69861">
        <ele>886.2</ele>
        <time>2020-08-16T13:11:10Z</time>
      </trkpt>
      <trkpt lat="45.89384" lon="6.69874">
        <ele>885.8</ele>
        <time>2020-08-16T13:11:11Z</time>
      </trkpt>
      <trkpt lat="45.89382" lon="6.69885">
        <ele>885.9</ele>
        <time>2020-08-16T13:11:12Z</time>
      </trkpt>
      <trkpt lat="45.89378" lon="6.69896">
        <ele>886.2</ele>
        <time>2020-08-16T13:11:13Z</time>
      </trkpt>
      <trkpt lat="45.89374" lon="6.69907">
        <ele>886.4</ele>
        <time>2020-08-16T13:11:14Z</time>
      </trkpt>
      <trkpt lat="45.8937" lon="6.69917">
        <ele>886.7</ele>
        <time>2020-08-16T13:11:15Z</time>
      </trkpt>
      <trkpt lat="45.89367" lon="6.69925">
        <ele>886.9</ele>
        <time>2020-08-16T13:11:16Z</time>
      </trkpt>
      <trkpt lat="45.89366" lon="6.69931">
        <ele>886.6</ele>
        <time>2020-08-16T13:11:17Z</time>
      </trkpt>
      <trkpt lat="45.89366" lon="6.69938">
        <ele>886.1</ele>
        <time>2020-08-16T13:11:18Z</time>
      </trkpt>
      <trkpt lat="45.89366" lon="6.69944">
        <ele>885.6</ele>
        <time>2020-08-16T13:11:19Z</time>
      </trkpt>
      <trkpt lat="45.89369" lon="6.6995">
        <ele>884.3</ele>
        <time>2020-08-16T13:11:20Z</time>
      </trkpt>
      <trkpt lat="45.89371" lon="6.69953">
        <ele>883.4</ele>
        <time>2020-08-16T13:11:21Z</time>
      </trkpt>
      <trkpt lat="45.89374" lon="6.69955">
        <ele>882.4</ele>
        <time>2020-08-16T13:11:22Z</time>
      </trkpt>
      <trkpt lat="45.89376" lon="6.69955">
        <ele>881.7</ele>
        <time>2020-08-16T13:11:23Z</time>
      </trkpt>
      <trkpt lat="45.8938" lon="6.69954">
        <ele>880.6</ele>
        <time>2020-08-16T13:11:24Z</time>
      </trkpt>
      <trkpt lat="45.89383" lon="6.69951">
        <ele>880</ele>
        <time>2020-08-16T13:11:25Z</time>
      </trkpt>
      <trkpt lat="45.89386" lon="6.69946">
        <ele>879.7</ele>
        <time>2020-08-16T13:11:26Z</time>
      </trkpt>
      <trkpt lat="45.89389" lon="6.6994">
        <ele>879.4</ele>
        <time>2020-08-16T13:11:27Z</time>
      </trkpt>
      <trkpt lat="45.89392" lon="6.69935">
        <ele>878.7</ele>
        <time>2020-08-16T13:11:28Z</time>
      </trkpt>
      <trkpt lat="45.89395" lon="6.6993">
        <ele>878</ele>
        <time>2020-08-16T13:11:29Z</time>
      </trkpt>
      <trkpt lat="45.89398" lon="6.69926">
        <ele>877.3</ele>
        <time>2020-08-16T13:11:30Z</time>
      </trkpt>
      <trkpt lat="45.89398" lon="6.69922">
        <ele>877.8</ele>
        <time>2020-08-16T13:11:31Z</time>
      </trkpt>
      <trkpt lat="45.89399" lon="6.69918">
        <ele>877.8</ele>
        <time>2020-08-16T13:11:32Z</time>
      </trkpt>
      <trkpt lat="45.89399" lon="6.69916">
        <ele>878.1</ele>
        <time>2020-08-16T13:11:33Z</time>
      </trkpt>
      <trkpt lat="45.89399" lon="6.69916">
        <ele>878.1</ele>
        <time>2020-08-16T13:11:34Z</time>
      </trkpt>
      <trkpt lat="45.89398" lon="6.69915">
        <ele>878.5</ele>
        <time>2020-08-16T13:11:35Z</time>
      </trkpt>
      <trkpt lat="45.89398" lon="6.69914">
        <ele>878.6</ele>
        <time>2020-08-16T13:11:36Z</time>
      </trkpt>
      <trkpt lat="45.89399" lon="6.69911">
        <ele>878.5</ele>
        <time>2020-08-16T13:11:37Z</time>
      </trkpt>
      <trkpt lat="45.894" lon="6.69908">
        <ele>869.2</ele>
        <time>2020-08-16T13:11:38Z</time>
      </trkpt>
      <trkpt lat="45.89403" lon="6.69905">
        <ele>869</ele>
        <time>2020-08-16T13:11:39Z</time>
      </trkpt>
      <trkpt lat="45.89405" lon="6.69902">
        <ele>868.8</ele>
        <time>2020-08-16T13:11:40Z</time>
      </trkpt>
      <trkpt lat="45.89407" lon="6.69899">
        <ele>868.6</ele>
        <time>2020-08-16T13:11:41Z</time>
      </trkpt>
      <trkpt lat="45.89409" lon="6.69896">
        <ele>868.4</ele>
        <time>2020-08-16T13:11:42Z</time>
      </trkpt>
      <trkpt lat="45.89411" lon="6.69894">
        <ele>868.2</ele>
        <time>2020-08-16T13:11:43Z</time>
      </trkpt>
      <trkpt lat="45.89412" lon="6.69892">
        <ele>868.2</ele>
        <time>2020-08-16T13:11:44Z</time>
      </trkpt>
      <trkpt lat="45.89414" lon="6.69889">
        <ele>867.8</ele>
        <time>2020-08-16T13:11:45Z</time>
      </trkpt>
      <trkpt lat="45.89415" lon="6.69887">
        <ele>867.8</ele>
        <time>2020-08-16T13:11:46Z</time>
      </trkpt>
      <trkpt lat="45.89415" lon="6.69884">
        <ele>867.6</ele>
        <time>2020-08-16T13:11:47Z</time>
      </trkpt>
      <trkpt lat="45.89414" lon="6.69883">
        <ele>867.6</ele>
        <time>2020-08-16T13:11:48Z</time>
      </trkpt>
      <trkpt lat="45.89412" lon="6.69883">
        <ele>867.6</ele>
        <time>2020-08-16T13:11:49Z</time>
      </trkpt>
      <trkpt lat="45.89411" lon="6.69884">
        <ele>867.8</ele>
        <time>2020-08-16T13:11:50Z</time>
      </trkpt>
      <trkpt lat="45.8941" lon="6.69886">
        <ele>868</ele>
        <time>2020-08-16T13:11:51Z</time>
      </trkpt>
      <trkpt lat="45.89409" lon="6.69888">
        <ele>868</ele>
        <time>2020-08-16T13:11:52Z</time>
      </trkpt>
      <trkpt lat="45.89408" lon="6.69889">
        <ele>868.2</ele>
        <time>2020-08-16T13:11:53Z</time>
      </trkpt>
      <trkpt lat="45.89407" lon="6.69892">
        <ele>868.4</ele>
        <time>2020-08-16T13:11:54Z</time>
      </trkpt>
      <trkpt lat="45.89406" lon="6.69895">
        <ele>868.4</ele>
        <time>2020-08-16T13:11:55Z</time>
      </trkpt>
      <trkpt lat="45.89405" lon="6.69898">
        <ele>868.6</ele>
        <time>2020-08-16T13:11:56Z</time>
      </trkpt>
      <trkpt lat="45.89403" lon="6.69901">
        <ele>868.8</ele>
        <time>2020-08-16T13:11:57Z</time>
      </trkpt>
      <trkpt lat="45.89402" lon="6.69904">
        <ele>869</ele>
        <time>2020-08-16T13:11:58Z</time>
      </trkpt>
      <trkpt lat="45.89401" lon="6.69907">
        <ele>869.2</ele>
        <time>2020-08-16T13:11:59Z</time>
      </trkpt>
      <trkpt lat="45.894" lon="6.69909">
        <ele>869.2</ele>
        <time>2020-08-16T13:12:00Z</time>
      </trkpt>
      <trkpt lat="45.894" lon="6.69911">
        <ele>869.2</ele>
        <time>2020-08-16T13:12:01Z</time>
      </trkpt>
      <trkpt lat="45.89401" lon="6.69913">
        <ele>869.2</ele>
        <time>2020-08-16T13:12:02Z</time>
      </trkpt>
      <trkpt lat="45.89402" lon="6.69914">
        <ele>869.2</ele>
        <time>2020-08-16T13:12:03Z</time>
      </trkpt>
      <trkpt lat="45.89402" lon="6.69915">
        <ele>869.2</ele>
        <time>2020-08-16T13:12:04Z</time>
      </trkpt>
      <trkpt lat="45.89401" lon="6.69914">
        <ele>869.2</ele>
        <time>2020-08-16T13:12:05Z</time>
      </trkpt>
      <trkpt lat="45.89401" lon="6.69914">
        <ele>869.2</ele>
        <time>2020-08-16T13:12:06Z</time>
      </trkpt>
      <trkpt lat="45.89402" lon="6.69915">
        <ele>869</ele>
        <time>2020-08-16T13:12:07Z</time>
      </trkpt>
      <trkpt lat="45.89402" lon="6.69915">
        <ele>869</ele>
        <time>2020-08-16T13:12:08Z</time>
      </trkpt>
      <trkpt lat="45.89402" lon="6.69915">
        <ele>869</ele>
        <time>2020-08-16T13:12:09Z</time>
      </trkpt>
      <trkpt lat="45.89402" lon="6.69916">
        <ele>869</ele>
        <time>2020-08-16T13:12:10Z</time>
      </trkpt>
      <trkpt lat="45.8943" lon="6.69877">
        <ele>859.6</ele>
        <time>2020-08-16T13:12:45Z</time>
      </trkpt>
      <trkpt lat="45.89431" lon="6.69877">
        <ele>859.2</ele>
        <time>2020-08-16T13:12:46Z</time>
      </trkpt>
      <trkpt lat="45.89432" lon="6.69875">
        <ele>859</ele>
        <time>2020-08-16T13:12:47Z</time>
      </trkpt>
      <trkpt lat="45.89433" lon="6.69872">
        <ele>858.6</ele>
        <time>2020-08-16T13:12:48Z</time>
      </trkpt>
      <trkpt lat="45.89434" lon="6.69869">
        <ele>858.4</ele>
        <time>2020-08-16T13:12:49Z</time>
      </trkpt>
      <trkpt lat="45.89434" lon="6.69867">
        <ele>858</ele>
        <time>2020-08-16T13:12:50Z</time>
      </trkpt>
      <trkpt lat="45.89436" lon="6.69864">
        <ele>857.6</ele>
        <time>2020-08-16T13:12:51Z</time>
      </trkpt>
      <trkpt lat="45.89438" lon="6.69858">
        <ele>857.2</ele>
        <time>2020-08-16T13:12:52Z</time>
      </trkpt>
      <trkpt lat="45.89439" lon="6.69854">
        <ele>857</ele>
        <time>2020-08-16T13:12:53Z</time>
      </trkpt>
      <trkpt lat="45.8944" lon="6.69854">
        <ele>856.6</ele>
        <time>2020-08-16T13:12:54Z</time>
      </trkpt>
      <trkpt lat="45.89441" lon="6.69854">
        <ele>856.2</ele>
        <time>2020-08-16T13:12:55Z</time>
      </trkpt>
      <trkpt lat="45.89441" lon="6.69852">
        <ele>856</ele>
        <time>2020-08-16T13:12:56Z</time>
      </trkpt>
      <trkpt lat="45.89442" lon="6.69849">
        <ele>855.6</ele>
        <time>2020-08-16T13:12:57Z</time>
      </trkpt>
      <trkpt lat="45.89444" lon="6.69845">
        <ele>855.2</ele>
        <time>2020-08-16T13:12:58Z</time>
      </trkpt>
      <trkpt lat="45.89446" lon="6.69842">
        <ele>855</ele>
        <time>2020-08-16T13:12:59Z</time>
      </trkpt>
      <trkpt lat="45.89447" lon="6.69839">
        <ele>854.8</ele>
        <time>2020-08-16T13:13:00Z</time>
      </trkpt>
      <trkpt lat="45.89448" lon="6.69835">
        <ele>854.4</ele>
        <time>2020-08-16T13:13:01Z</time>
      </trkpt>
      <trkpt lat="45.89449" lon="6.69833">
        <ele>854.2</ele>
        <time>2020-08-16T13:13:02Z</time>
      </trkpt>
      <trkpt lat="45.89448" lon="6.69829">
        <ele>854</ele>
        <time>2020-08-16T13:13:03Z</time>
      </trkpt>
      <trkpt lat="45.89448" lon="6.69825">
        <ele>853.8</ele>
        <time>2020-08-16T13:13:04Z</time>
      </trkpt>
      <trkpt lat="45.89449" lon="6.6982">
        <ele>853.4</ele>
        <time>2020-08-16T13:13:05Z</time>
      </trkpt>
      <trkpt lat="45.8945" lon="6.69815">
        <ele>853.2</ele>
        <time>2020-08-16T13:13:06Z</time>
      </trkpt>
      <trkpt lat="45.89451" lon="6.69811">
        <ele>852.8</ele>
        <time>2020-08-16T13:13:07Z</time>
      </trkpt>
      <trkpt lat="45.89451" lon="6.69807">
        <ele>852.4</ele>
        <time>2020-08-16T13:13:08Z</time>
      </trkpt>
      <trkpt lat="45.89452" lon="6.69802">
        <ele>852.2</ele>
        <time>2020-08-16T13:13:09Z</time>
      </trkpt>
      <trkpt lat="45.89453" lon="6.69799">
        <ele>851.8</ele>
        <time>2020-08-16T13:13:10Z</time>
      </trkpt>
      <trkpt lat="45.89454" lon="6.69796">
        <ele>851.4</ele>
        <time>2020-08-16T13:13:11Z</time>
      </trkpt>
      <trkpt lat="45.89455" lon="6.69792">
        <ele>851.2</ele>
        <time>2020-08-16T13:13:12Z</time>
      </trkpt>
      <trkpt lat="45.89456" lon="6.69788">
        <ele>851</ele>
        <time>2020-08-16T13:13:13Z</time>
      </trkpt>
      <trkpt lat="45.89457" lon="6.69785">
        <ele>850.6</ele>
        <time>2020-08-16T13:13:14Z</time>
      </trkpt>
      <trkpt lat="45.89458" lon="6.69782">
        <ele>850.2</ele>
        <time>2020-08-16T13:13:15Z</time>
      </trkpt>
      <trkpt lat="45.89459" lon="6.6978">
        <ele>850</ele>
        <time>2020-08-16T13:13:16Z</time>
      </trkpt>
      <trkpt lat="45.89459" lon="6.69777">
        <ele>849.6</ele>
        <time>2020-08-16T13:13:17Z</time>
      </trkpt>
      <trkpt lat="45.8946" lon="6.69774">
        <ele>849.2</ele>
        <time>2020-08-16T13:13:18Z</time>
      </trkpt>
      <trkpt lat="45.89461" lon="6.69772">
        <ele>849</ele>
        <time>2020-08-16T13:13:19Z</time>
      </trkpt>
      <trkpt lat="45.89461" lon="6.6977">
        <ele>848.6</ele>
        <time>2020-08-16T13:13:20Z</time>
      </trkpt>
      <trkpt lat="45.89462" lon="6.69768">
        <ele>848.4</ele>
        <time>2020-08-16T13:13:21Z</time>
      </trkpt>
      <trkpt lat="45.89463" lon="6.69767">
        <ele>848.2</ele>
        <time>2020-08-16T13:13:22Z</time>
      </trkpt>
      <trkpt lat="45.89463" lon="6.69766">
        <ele>848</ele>
        <time>2020-08-16T13:13:23Z</time>
      </trkpt>
      <trkpt lat="45.89463" lon="6.69765">
        <ele>847.8</ele>
        <time>2020-08-16T13:13:24Z</time>
      </trkpt>
      <trkpt lat="45.89464" lon="6.69764">
        <ele>847.8</ele>
        <time>2020-08-16T13:13:25Z</time>
      </trkpt>
      <trkpt lat="45.89464" lon="6.69763">
        <ele>847.8</ele>
        <time>2020-08-16T13:13:26Z</time>
      </trkpt>
      <trkpt lat="45.89464" lon="6.69762">
        <ele>847.8</ele>
        <time>2020-08-16T13:13:27Z</time>
      </trkpt>
      <trkpt lat="45.89465" lon="6.69761">
        <ele>847.6</ele>
        <time>2020-08-16T13:13:28Z</time>
      </trkpt>
      <trkpt lat="45.89466" lon="6.6976">
        <ele>847.4</ele>
        <time>2020-08-16T13:13:29Z</time>
      </trkpt>
      <trkpt lat="45.89474" lon="6.69746">
        <ele>847.2</ele>
        <time>2020-08-16T13:13:37Z</time>
      </trkpt>
      <trkpt lat="45.89476" lon="6.69743">
        <ele>846.6</ele>
        <time>2020-08-16T13:13:38Z</time>
      </trkpt>
      <trkpt lat="45.89476" lon="6.69742">
        <ele>845.8</ele>
        <time>2020-08-16T13:13:39Z</time>
      </trkpt>
      <trkpt lat="45.89477" lon="6.69739">
        <ele>845.2</ele>
        <time>2020-08-16T13:13:40Z</time>
      </trkpt>
      <trkpt lat="45.89476" lon="6.69736">
        <ele>844.6</ele>
        <time>2020-08-16T13:13:41Z</time>
      </trkpt>
      <trkpt lat="45.89476" lon="6.69733">
        <ele>844.4</ele>
        <time>2020-08-16T13:13:42Z</time>
      </trkpt>
      <trkpt lat="45.89476" lon="6.69731">
        <ele>844</ele>
        <time>2020-08-16T13:13:43Z</time>
      </trkpt>
      <trkpt lat="45.89477" lon="6.69729">
        <ele>843.8</ele>
        <time>2020-08-16T13:13:44Z</time>
      </trkpt>
      <trkpt lat="45.89478" lon="6.69726">
        <ele>843.4</ele>
        <time>2020-08-16T13:13:45Z</time>
      </trkpt>
      <trkpt lat="45.89478" lon="6.69723">
        <ele>843</ele>
        <time>2020-08-16T13:13:46Z</time>
      </trkpt>
      <trkpt lat="45.89478" lon="6.69719">
        <ele>842.8</ele>
        <time>2020-08-16T13:13:47Z</time>
      </trkpt>
      <trkpt lat="45.89479" lon="6.69716">
        <ele>842.4</ele>
        <time>2020-08-16T13:13:48Z</time>
      </trkpt>
      <trkpt lat="45.89481" lon="6.69713">
        <ele>842.2</ele>
        <time>2020-08-16T13:13:49Z</time>
      </trkpt>
      <trkpt lat="45.89482" lon="6.69711">
        <ele>841.8</ele>
        <time>2020-08-16T13:13:50Z</time>
      </trkpt>
      <trkpt lat="45.89484" lon="6.69711">
        <ele>841.6</ele>
        <time>2020-08-16T13:13:51Z</time>
      </trkpt>
      <trkpt lat="45.89485" lon="6.69711">
        <ele>841.2</ele>
        <time>2020-08-16T13:13:52Z</time>
      </trkpt>
      <trkpt lat="45.89487" lon="6.69711">
        <ele>840.8</ele>
        <time>2020-08-16T13:13:53Z</time>
      </trkpt>
      <trkpt lat="45.89489" lon="6.69713">
        <ele>840.2</ele>
        <time>2020-08-16T13:13:54Z</time>
      </trkpt>
      <trkpt lat="45.89489" lon="6.69714">
        <ele>839.6</ele>
        <time>2020-08-16T13:13:55Z</time>
      </trkpt>
      <trkpt lat="45.8949" lon="6.69717">
        <ele>839</ele>
        <time>2020-08-16T13:13:56Z</time>
      </trkpt>
      <trkpt lat="45.89492" lon="6.69718">
        <ele>838.6</ele>
        <time>2020-08-16T13:13:57Z</time>
      </trkpt>
      <trkpt lat="45.89492" lon="6.69719">
        <ele>838</ele>
        <time>2020-08-16T13:13:58Z</time>
      </trkpt>
      <trkpt lat="45.89492" lon="6.6972">
        <ele>837.6</ele>
        <time>2020-08-16T13:13:59Z</time>
      </trkpt>
      <trkpt lat="45.89493" lon="6.69721">
        <ele>837.2</ele>
        <time>2020-08-16T13:14:00Z</time>
      </trkpt>
      <trkpt lat="45.89494" lon="6.69722">
        <ele>836.8</ele>
        <time>2020-08-16T13:14:01Z</time>
      </trkpt>
      <trkpt lat="45.89494" lon="6.69723">
        <ele>836.6</ele>
        <time>2020-08-16T13:14:02Z</time>
      </trkpt>
      <trkpt lat="45.89494" lon="6.69724">
        <ele>836.2</ele>
        <time>2020-08-16T13:14:03Z</time>
      </trkpt>
      <trkpt lat="45.89494" lon="6.69726">
        <ele>835.8</ele>
        <time>2020-08-16T13:14:04Z</time>
      </trkpt>
      <trkpt lat="45.89494" lon="6.69729">
        <ele>835.4</ele>
        <time>2020-08-16T13:14:05Z</time>
      </trkpt>
      <trkpt lat="45.89494" lon="6.69731">
        <ele>835</ele>
        <time>2020-08-16T13:14:06Z</time>
      </trkpt>
      <trkpt lat="45.89494" lon="6.69734">
        <ele>834.6</ele>
        <time>2020-08-16T13:14:07Z</time>
      </trkpt>
      <trkpt lat="45.89494" lon="6.69737">
        <ele>834.2</ele>
        <time>2020-08-16T13:14:08Z</time>
      </trkpt>
      <trkpt lat="45.89494" lon="6.69738">
        <ele>833.8</ele>
        <time>2020-08-16T13:14:09Z</time>
      </trkpt>
      <trkpt lat="45.89494" lon="6.6974">
        <ele>833.6</ele>
        <time>2020-08-16T13:14:10Z</time>
      </trkpt>
      <trkpt lat="45.89496" lon="6.69742">
        <ele>833.2</ele>
        <time>2020-08-16T13:14:11Z</time>
      </trkpt>
      <trkpt lat="45.89496" lon="6.69745">
        <ele>832.8</ele>
        <time>2020-08-16T13:14:12Z</time>
      </trkpt>
      <trkpt lat="45.89499" lon="6.69747">
        <ele>832.6</ele>
        <time>2020-08-16T13:14:13Z</time>
      </trkpt>
      <trkpt lat="45.89501" lon="6.69748">
        <ele>832.4</ele>
        <time>2020-08-16T13:14:14Z</time>
      </trkpt>
      <trkpt lat="45.89503" lon="6.69746">
        <ele>832.2</ele>
        <time>2020-08-16T13:14:15Z</time>
      </trkpt>
      <trkpt lat="45.89504" lon="6.69744">
        <ele>832.2</ele>
        <time>2020-08-16T13:14:16Z</time>
      </trkpt>
      <trkpt lat="45.89505" lon="6.69743">
        <ele>832</ele>
        <time>2020-08-16T13:14:17Z</time>
      </trkpt>
      <trkpt lat="45.89506" lon="6.69741">
        <ele>832</ele>
        <time>2020-08-16T13:14:18Z</time>
      </trkpt>
      <trkpt lat="45.89506" lon="6.6974">
        <ele>832</ele>
        <time>2020-08-16T13:14:19Z</time>
      </trkpt>
      <trkpt lat="45.89507" lon="6.69739">
        <ele>831.8</ele>
        <time>2020-08-16T13:14:20Z</time>
      </trkpt>
      <trkpt lat="45.89508" lon="6.69738">
        <ele>831.8</ele>
        <time>2020-08-16T13:14:21Z</time>
      </trkpt>
      <trkpt lat="45.89509" lon="6.69737">
        <ele>831.6</ele>
        <time>2020-08-16T13:14:22Z</time>
      </trkpt>
      <trkpt lat="45.89509" lon="6.69737">
        <ele>831.6</ele>
        <time>2020-08-16T13:14:23Z</time>
      </trkpt>
      <trkpt lat="45.89509" lon="6.69737">
        <ele>831.6</ele>
        <time>2020-08-16T13:14:24Z</time>
      </trkpt>
      <trkpt lat="45.8951" lon="6.69737">
        <ele>831.6</ele>
        <time>2020-08-16T13:14:25Z</time>
      </trkpt>
      <trkpt lat="45.89511" lon="6.69738">
        <ele>831.6</ele>
        <time>2020-08-16T13:14:26Z</time>
      </trkpt>
      <trkpt lat="45.89512" lon="6.69737">
        <ele>831.6</ele>
        <time>2020-08-16T13:14:27Z</time>
      </trkpt>
      <trkpt lat="45.89512" lon="6.69737">
        <ele>831.6</ele>
        <time>2020-08-16T13:14:28Z</time>
      </trkpt>
      <trkpt lat="45.89513" lon="6.69736">
        <ele>831.4</ele>
        <time>2020-08-16T13:14:29Z</time>
      </trkpt>
      <trkpt lat="45.89522" lon="6.69692">
        <ele>828.8</ele>
        <time>2020-08-16T13:14:38Z</time>
      </trkpt>
      <trkpt lat="45.89524" lon="6.69685">
        <ele>828.4</ele>
        <time>2020-08-16T13:14:39Z</time>
      </trkpt>
      <trkpt lat="45.89526" lon="6.69675">
        <ele>827.8</ele>
        <time>2020-08-16T13:14:40Z</time>
      </trkpt>
      <trkpt lat="45.89528" lon="6.69667">
        <ele>827.4</ele>
        <time>2020-08-16T13:14:41Z</time>
      </trkpt>
      <trkpt lat="45.89531" lon="6.69659">
        <ele>826.8</ele>
        <time>2020-08-16T13:14:42Z</time>
      </trkpt>
      <trkpt lat="45.89533" lon="6.69653">
        <ele>826.2</ele>
        <time>2020-08-16T13:14:43Z</time>
      </trkpt>
      <trkpt lat="45.89533" lon="6.69645">
        <ele>825.4</ele>
        <time>2020-08-16T13:14:44Z</time>
      </trkpt>
      <trkpt lat="45.89534" lon="6.69634">
        <ele>824.8</ele>
        <time>2020-08-16T13:14:45Z</time>
      </trkpt>
      <trkpt lat="45.89536" lon="6.69621">
        <ele>824.2</ele>
        <time>2020-08-16T13:14:46Z</time>
      </trkpt>
      <trkpt lat="45.89537" lon="6.69611">
        <ele>823.6</ele>
        <time>2020-08-16T13:14:47Z</time>
      </trkpt>
      <trkpt lat="45.89539" lon="6.69602">
        <ele>822.8</ele>
        <time>2020-08-16T13:14:48Z</time>
      </trkpt>
      <trkpt lat="45.8954" lon="6.69594">
        <ele>822.2</ele>
        <time>2020-08-16T13:14:49Z</time>
      </trkpt>
      <trkpt lat="45.89541" lon="6.69584">
        <ele>821.6</ele>
        <time>2020-08-16T13:14:50Z</time>
      </trkpt>
      <trkpt lat="45.89543" lon="6.69574">
        <ele>821.2</ele>
        <time>2020-08-16T13:14:51Z</time>
      </trkpt>
      <trkpt lat="45.89544" lon="6.69563">
        <ele>820.6</ele>
        <time>2020-08-16T13:14:52Z</time>
      </trkpt>
      <trkpt lat="45.89543" lon="6.69552">
        <ele>819.8</ele>
        <time>2020-08-16T13:14:53Z</time>
      </trkpt>
      <trkpt lat="45.89544" lon="6.69541">
        <ele>819.4</ele>
        <time>2020-08-16T13:14:54Z</time>
      </trkpt>
      <trkpt lat="45.89544" lon="6.69531">
        <ele>818.8</ele>
        <time>2020-08-16T13:14:55Z</time>
      </trkpt>
      <trkpt lat="45.89546" lon="6.69517">
        <ele>818.2</ele>
        <time>2020-08-16T13:14:56Z</time>
      </trkpt>
      <trkpt lat="45.89547" lon="6.69507">
        <ele>817.6</ele>
        <time>2020-08-16T13:14:57Z</time>
      </trkpt>
      <trkpt lat="45.89548" lon="6.69497">
        <ele>817</ele>
        <time>2020-08-16T13:14:58Z</time>
      </trkpt>
      <trkpt lat="45.89551" lon="6.69488">
        <ele>816.4</ele>
        <time>2020-08-16T13:14:59Z</time>
      </trkpt>
      <trkpt lat="45.89552" lon="6.69479">
        <ele>815.4</ele>
        <time>2020-08-16T13:15:00Z</time>
      </trkpt>
      <trkpt lat="45.89553" lon="6.69465">
        <ele>815</ele>
        <time>2020-08-16T13:15:01Z</time>
      </trkpt>
      <trkpt lat="45.89553" lon="6.69451">
        <ele>814.4</ele>
        <time>2020-08-16T13:15:02Z</time>
      </trkpt>
      <trkpt lat="45.89551" lon="6.69437">
        <ele>813.6</ele>
        <time>2020-08-16T13:15:03Z</time>
      </trkpt>
      <trkpt lat="45.8955" lon="6.69419">
        <ele>812.8</ele>
        <time>2020-08-16T13:15:04Z</time>
      </trkpt>
      <trkpt lat="45.89551" lon="6.69401">
        <ele>812.4</ele>
        <time>2020-08-16T13:15:05Z</time>
      </trkpt>
      <trkpt lat="45.89554" lon="6.69388">
        <ele>812</ele>
        <time>2020-08-16T13:15:06Z</time>
      </trkpt>
      <trkpt lat="45.89556" lon="6.69375">
        <ele>811.2</ele>
        <time>2020-08-16T13:15:07Z</time>
      </trkpt>
      <trkpt lat="45.89556" lon="6.69363">
        <ele>810.6</ele>
        <time>2020-08-16T13:15:08Z</time>
      </trkpt>
      <trkpt lat="45.89557" lon="6.69351">
        <ele>809.8</ele>
        <time>2020-08-16T13:15:09Z</time>
      </trkpt>
      <trkpt lat="45.89558" lon="6.69337">
        <ele>809.2</ele>
        <time>2020-08-16T13:15:10Z</time>
      </trkpt>
      <trkpt lat="45.8956" lon="6.69325">
        <ele>808.2</ele>
        <time>2020-08-16T13:15:11Z</time>
      </trkpt>
      <trkpt lat="45.89559" lon="6.69314">
        <ele>807.4</ele>
        <time>2020-08-16T13:15:12Z</time>
      </trkpt>
      <trkpt lat="45.89556" lon="6.69302">
        <ele>806.6</ele>
        <time>2020-08-16T13:15:13Z</time>
      </trkpt>
      <trkpt lat="45.89555" lon="6.69288">
        <ele>805.8</ele>
        <time>2020-08-16T13:15:14Z</time>
      </trkpt>
      <trkpt lat="45.89557" lon="6.69273">
        <ele>805.2</ele>
        <time>2020-08-16T13:15:15Z</time>
      </trkpt>
      <trkpt lat="45.89556" lon="6.6926">
        <ele>804.2</ele>
        <time>2020-08-16T13:15:16Z</time>
      </trkpt>
      <trkpt lat="45.89557" lon="6.69244">
        <ele>803.4</ele>
        <time>2020-08-16T13:15:17Z</time>
      </trkpt>
      <trkpt lat="45.89557" lon="6.69229">
        <ele>802.8</ele>
        <time>2020-08-16T13:15:18Z</time>
      </trkpt>
      <trkpt lat="45.89555" lon="6.69215">
        <ele>801.8</ele>
        <time>2020-08-16T13:15:19Z</time>
      </trkpt>
      <trkpt lat="45.89556" lon="6.692">
        <ele>800.8</ele>
        <time>2020-08-16T13:15:20Z</time>
      </trkpt>
      <trkpt lat="45.89557" lon="6.6919">
        <ele>800.2</ele>
        <time>2020-08-16T13:15:21Z</time>
      </trkpt>
      <trkpt lat="45.89558" lon="6.69175">
        <ele>799.4</ele>
        <time>2020-08-16T13:15:22Z</time>
      </trkpt>
      <trkpt lat="45.8956" lon="6.69162">
        <ele>798.6</ele>
        <time>2020-08-16T13:15:23Z</time>
      </trkpt>
      <trkpt lat="45.89561" lon="6.69148">
        <ele>797.8</ele>
        <time>2020-08-16T13:15:24Z</time>
      </trkpt>
      <trkpt lat="45.89562" lon="6.69133">
        <ele>797.4</ele>
        <time>2020-08-16T13:15:25Z</time>
      </trkpt>
      <trkpt lat="45.8956" lon="6.69119">
        <ele>796.8</ele>
        <time>2020-08-16T13:15:26Z</time>
      </trkpt>
      <trkpt lat="45.89556" lon="6.69105">
        <ele>796.4</ele>
        <time>2020-08-16T13:15:27Z</time>
      </trkpt>
      <trkpt lat="45.89551" lon="6.69094">
        <ele>796</ele>
        <time>2020-08-16T13:15:28Z</time>
      </trkpt>
      <trkpt lat="45.89546" lon="6.69086">
        <ele>795.4</ele>
        <time>2020-08-16T13:15:29Z</time>
      </trkpt>
      <trkpt lat="45.89542" lon="6.69077">
        <ele>794.8</ele>
        <time>2020-08-16T13:15:30Z</time>
      </trkpt>
      <trkpt lat="45.89538" lon="6.69067">
        <ele>794.4</ele>
        <time>2020-08-16T13:15:31Z</time>
      </trkpt>
      <trkpt lat="45.89537" lon="6.69057">
        <ele>793.8</ele>
        <time>2020-08-16T13:15:32Z</time>
      </trkpt>
      <trkpt lat="45.89541" lon="6.69047">
        <ele>793.2</ele>
        <time>2020-08-16T13:15:33Z</time>
      </trkpt>
      <trkpt lat="45.89545" lon="6.69039">
        <ele>792.6</ele>
        <time>2020-08-16T13:15:34Z</time>
      </trkpt>
      <trkpt lat="45.8955" lon="6.69028">
        <ele>792.2</ele>
        <time>2020-08-16T13:15:35Z</time>
      </trkpt>
      <trkpt lat="45.89557" lon="6.69025">
        <ele>791.8</ele>
        <time>2020-08-16T13:15:36Z</time>
      </trkpt>
      <trkpt lat="45.89563" lon="6.69027">
        <ele>791.4</ele>
        <time>2020-08-16T13:15:37Z</time>
      </trkpt>
      <trkpt lat="45.89567" lon="6.69032">
        <ele>791</ele>
        <time>2020-08-16T13:15:38Z</time>
      </trkpt>
      <trkpt lat="45.89572" lon="6.69038">
        <ele>790.4</ele>
        <time>2020-08-16T13:15:39Z</time>
      </trkpt>
      <trkpt lat="45.89575" lon="6.69045">
        <ele>790</ele>
        <time>2020-08-16T13:15:40Z</time>
      </trkpt>
      <trkpt lat="45.89579" lon="6.69054">
        <ele>789.6</ele>
        <time>2020-08-16T13:15:41Z</time>
      </trkpt>
      <trkpt lat="45.89585" lon="6.69061">
        <ele>789.2</ele>
        <time>2020-08-16T13:15:42Z</time>
      </trkpt>
      <trkpt lat="45.89591" lon="6.69068">
        <ele>788.4</ele>
        <time>2020-08-16T13:15:43Z</time>
      </trkpt>
      <trkpt lat="45.89597" lon="6.69075">
        <ele>787.8</ele>
        <time>2020-08-16T13:15:44Z</time>
      </trkpt>
      <trkpt lat="45.89605" lon="6.69083">
        <ele>787</ele>
        <time>2020-08-16T13:15:45Z</time>
      </trkpt>
      <trkpt lat="45.89612" lon="6.69092">
        <ele>786.2</ele>
        <time>2020-08-16T13:15:46Z</time>
      </trkpt>
      <trkpt lat="45.89619" lon="6.69101">
        <ele>785.4</ele>
        <time>2020-08-16T13:15:47Z</time>
      </trkpt>
      <trkpt lat="45.89627" lon="6.6911">
        <ele>784.6</ele>
        <time>2020-08-16T13:15:48Z</time>
      </trkpt>
      <trkpt lat="45.89635" lon="6.69119">
        <ele>783.6</ele>
        <time>2020-08-16T13:15:49Z</time>
      </trkpt>
      <trkpt lat="45.89642" lon="6.69127">
        <ele>783</ele>
        <time>2020-08-16T13:15:50Z</time>
      </trkpt>
      <trkpt lat="45.89648" lon="6.69134">
        <ele>782.2</ele>
        <time>2020-08-16T13:15:51Z</time>
      </trkpt>
      <trkpt lat="45.89653" lon="6.6914">
        <ele>781.6</ele>
        <time>2020-08-16T13:15:52Z</time>
      </trkpt>
      <trkpt lat="45.89657" lon="6.69145">
        <ele>781.2</ele>
        <time>2020-08-16T13:15:53Z</time>
      </trkpt>
      <trkpt lat="45.89661" lon="6.69147">
        <ele>780.8</ele>
        <time>2020-08-16T13:15:54Z</time>
      </trkpt>
      <trkpt lat="45.89665" lon="6.69148">
        <ele>780.6</ele>
        <time>2020-08-16T13:15:55Z</time>
      </trkpt>
      <trkpt lat="45.89669" lon="6.69146">
        <ele>780</ele>
        <time>2020-08-16T13:15:56Z</time>
      </trkpt>
      <trkpt lat="45.89673" lon="6.69141">
        <ele>779.2</ele>
        <time>2020-08-16T13:15:57Z</time>
      </trkpt>
      <trkpt lat="45.89675" lon="6.69134">
        <ele>778.6</ele>
        <time>2020-08-16T13:15:58Z</time>
      </trkpt>
      <trkpt lat="45.89678" lon="6.69126">
        <ele>777.8</ele>
        <time>2020-08-16T13:15:59Z</time>
      </trkpt>
      <trkpt lat="45.8968" lon="6.69118">
        <ele>777.2</ele>
        <time>2020-08-16T13:16:00Z</time>
      </trkpt>
      <trkpt lat="45.89683" lon="6.69108">
        <ele>776.4</ele>
        <time>2020-08-16T13:16:01Z</time>
      </trkpt>
      <trkpt lat="45.89685" lon="6.69098">
        <ele>775.6</ele>
        <time>2020-08-16T13:16:02Z</time>
      </trkpt>
      <trkpt lat="45.89686" lon="6.69088">
        <ele>774.6</ele>
        <time>2020-08-16T13:16:03Z</time>
      </trkpt>
      <trkpt lat="45.89686" lon="6.69078">
        <ele>773.8</ele>
        <time>2020-08-16T13:16:04Z</time>
      </trkpt>
      <trkpt lat="45.89685" lon="6.69068">
        <ele>773</ele>
        <time>2020-08-16T13:16:05Z</time>
      </trkpt>
      <trkpt lat="45.89683" lon="6.69059">
        <ele>772</ele>
        <time>2020-08-16T13:16:06Z</time>
      </trkpt>
      <trkpt lat="45.8968" lon="6.69048">
        <ele>770.2</ele>
        <time>2020-08-16T13:16:07Z</time>
      </trkpt>
      <trkpt lat="45.89679" lon="6.69037">
        <ele>769.2</ele>
        <time>2020-08-16T13:16:08Z</time>
      </trkpt>
      <trkpt lat="45.89679" lon="6.69024">
        <ele>768</ele>
        <time>2020-08-16T13:16:09Z</time>
      </trkpt>
      <trkpt lat="45.89681" lon="6.69014">
        <ele>767.2</ele>
        <time>2020-08-16T13:16:10Z</time>
      </trkpt>
      <trkpt lat="45.89684" lon="6.69006">
        <ele>766.8</ele>
        <time>2020-08-16T13:16:11Z</time>
      </trkpt>
      <trkpt lat="45.89687" lon="6.68998">
        <ele>766.2</ele>
        <time>2020-08-16T13:16:12Z</time>
      </trkpt>
      <trkpt lat="45.89691" lon="6.6899">
        <ele>765.2</ele>
        <time>2020-08-16T13:16:13Z</time>
      </trkpt>
      <trkpt lat="45.89695" lon="6.6898">
        <ele>764.4</ele>
        <time>2020-08-16T13:16:14Z</time>
      </trkpt>
      <trkpt lat="45.89698" lon="6.68969">
        <ele>763</ele>
        <time>2020-08-16T13:16:15Z</time>
      </trkpt>
      <trkpt lat="45.89701" lon="6.68957">
        <ele>762.4</ele>
        <time>2020-08-16T13:16:16Z</time>
      </trkpt>
      <trkpt lat="45.89703" lon="6.68945">
        <ele>761</ele>
        <time>2020-08-16T13:16:17Z</time>
      </trkpt>
      <trkpt lat="45.89705" lon="6.68932">
        <ele>760.2</ele>
        <time>2020-08-16T13:16:18Z</time>
      </trkpt>
      <trkpt lat="45.89706" lon="6.68918">
        <ele>759</ele>
        <time>2020-08-16T13:16:19Z</time>
      </trkpt>
      <trkpt lat="45.89706" lon="6.68903">
        <ele>757.6</ele>
        <time>2020-08-16T13:16:20Z</time>
      </trkpt>
      <trkpt lat="45.89706" lon="6.68888">
        <ele>756.6</ele>
        <time>2020-08-16T13:16:21Z</time>
      </trkpt>
      <trkpt lat="45.89708" lon="6.68872">
        <ele>755</ele>
        <time>2020-08-16T13:16:22Z</time>
      </trkpt>
      <trkpt lat="45.89711" lon="6.68856">
        <ele>754</ele>
        <time>2020-08-16T13:16:23Z</time>
      </trkpt>
      <trkpt lat="45.89714" lon="6.68842">
        <ele>753.2</ele>
        <time>2020-08-16T13:16:24Z</time>
      </trkpt>
      <trkpt lat="45.89716" lon="6.68829">
        <ele>752.2</ele>
        <time>2020-08-16T13:16:25Z</time>
      </trkpt>
      <trkpt lat="45.89716" lon="6.68817">
        <ele>751.4</ele>
        <time>2020-08-16T13:16:26Z</time>
      </trkpt>
      <trkpt lat="45.89716" lon="6.68806">
        <ele>750.4</ele>
        <time>2020-08-16T13:16:27Z</time>
      </trkpt>
      <trkpt lat="45.89715" lon="6.68795">
        <ele>749.4</ele>
        <time>2020-08-16T13:16:28Z</time>
      </trkpt>
      <trkpt lat="45.89714" lon="6.68783">
        <ele>748.8</ele>
        <time>2020-08-16T13:16:29Z</time>
      </trkpt>
      <trkpt lat="45.89712" lon="6.68771">
        <ele>748.2</ele>
        <time>2020-08-16T13:16:30Z</time>
      </trkpt>
      <trkpt lat="45.8971" lon="6.6876">
        <ele>747.4</ele>
        <time>2020-08-16T13:16:31Z</time>
      </trkpt>
      <trkpt lat="45.89708" lon="6.68748">
        <ele>746.4</ele>
        <time>2020-08-16T13:16:32Z</time>
      </trkpt>
      <trkpt lat="45.89707" lon="6.68737">
        <ele>746</ele>
        <time>2020-08-16T13:16:33Z</time>
      </trkpt>
      <trkpt lat="45.89704" lon="6.68726">
        <ele>745.6</ele>
        <time>2020-08-16T13:16:34Z</time>
      </trkpt>
      <trkpt lat="45.89702" lon="6.68716">
        <ele>745</ele>
        <time>2020-08-16T13:16:35Z</time>
      </trkpt>
      <trkpt lat="45.897" lon="6.68707">
        <ele>744</ele>
        <time>2020-08-16T13:16:36Z</time>
      </trkpt>
      <trkpt lat="45.89699" lon="6.68698">
        <ele>743.2</ele>
        <time>2020-08-16T13:16:37Z</time>
      </trkpt>
      <trkpt lat="45.89698" lon="6.68687">
        <ele>742.4</ele>
        <time>2020-08-16T13:16:38Z</time>
      </trkpt>
      <trkpt lat="45.89698" lon="6.68675">
        <ele>741</ele>
        <time>2020-08-16T13:16:39Z</time>
      </trkpt>
      <trkpt lat="45.89698" lon="6.68662">
        <ele>739.6</ele>
        <time>2020-08-16T13:16:40Z</time>
      </trkpt>
      <trkpt lat="45.89698" lon="6.68647">
        <ele>737.8</ele>
        <time>2020-08-16T13:16:41Z</time>
      </trkpt>
      <trkpt lat="45.89698" lon="6.68632">
        <ele>736.2</ele>
        <time>2020-08-16T13:16:42Z</time>
      </trkpt>
      <trkpt lat="45.89699" lon="6.68614">
        <ele>736.2</ele>
        <time>2020-08-16T13:16:43Z</time>
      </trkpt>
      <trkpt lat="45.89701" lon="6.68596">
        <ele>736.2</ele>
        <time>2020-08-16T13:16:44Z</time>
      </trkpt>
      <trkpt lat="45.89704" lon="6.68578">
        <ele>736.2</ele>
        <time>2020-08-16T13:16:45Z</time>
      </trkpt>
      <trkpt lat="45.89707" lon="6.68559">
        <ele>736.2</ele>
        <time>2020-08-16T13:16:46Z</time>
      </trkpt>
      <trkpt lat="45.8971" lon="6.68539">
        <ele>736.2</ele>
        <time>2020-08-16T13:16:47Z</time>
      </trkpt>
      <trkpt lat="45.89714" lon="6.68519">
        <ele>723.2</ele>
        <time>2020-08-16T13:16:48Z</time>
      </trkpt>
      <trkpt lat="45.89717" lon="6.68498">
        <ele>723.2</ele>
        <time>2020-08-16T13:16:49Z</time>
      </trkpt>
      <trkpt lat="45.8972" lon="6.68476">
        <ele>723.2</ele>
        <time>2020-08-16T13:16:50Z</time>
      </trkpt>
      <trkpt lat="45.89723" lon="6.68454">
        <ele>723.2</ele>
        <time>2020-08-16T13:16:51Z</time>
      </trkpt>
      <trkpt lat="45.89725" lon="6.68431">
        <ele>723.2</ele>
        <time>2020-08-16T13:16:52Z</time>
      </trkpt>
      <trkpt lat="45.89727" lon="6.68408">
        <ele>723.2</ele>
        <time>2020-08-16T13:16:53Z</time>
      </trkpt>
      <trkpt lat="45.89727" lon="6.68386">
        <ele>710</ele>
        <time>2020-08-16T13:16:54Z</time>
      </trkpt>
      <trkpt lat="45.89727" lon="6.68364">
        <ele>708.4</ele>
        <time>2020-08-16T13:16:55Z</time>
      </trkpt>
      <trkpt lat="45.89725" lon="6.68343">
        <ele>707.4</ele>
        <time>2020-08-16T13:16:56Z</time>
      </trkpt>
      <trkpt lat="45.89724" lon="6.68325">
        <ele>706.6</ele>
        <time>2020-08-16T13:16:57Z</time>
      </trkpt>
      <trkpt lat="45.89723" lon="6.68308">
        <ele>705.8</ele>
        <time>2020-08-16T13:16:58Z</time>
      </trkpt>
      <trkpt lat="45.89722" lon="6.68293">
        <ele>705.2</ele>
        <time>2020-08-16T13:16:59Z</time>
      </trkpt>
      <trkpt lat="45.89721" lon="6.6828">
        <ele>704.4</ele>
        <time>2020-08-16T13:17:00Z</time>
      </trkpt>
      <trkpt lat="45.89721" lon="6.68268">
        <ele>703.8</ele>
        <time>2020-08-16T13:17:01Z</time>
      </trkpt>
      <trkpt lat="45.8972" lon="6.68258">
        <ele>703.2</ele>
        <time>2020-08-16T13:17:02Z</time>
      </trkpt>
      <trkpt lat="45.89718" lon="6.68249">
        <ele>702.4</ele>
        <time>2020-08-16T13:17:03Z</time>
      </trkpt>
      <trkpt lat="45.89715" lon="6.68242">
        <ele>701.6</ele>
        <time>2020-08-16T13:17:04Z</time>
      </trkpt>
      <trkpt lat="45.89713" lon="6.68235">
        <ele>700.8</ele>
        <time>2020-08-16T13:17:05Z</time>
      </trkpt>
      <trkpt lat="45.89712" lon="6.68227">
        <ele>700.2</ele>
        <time>2020-08-16T13:17:06Z</time>
      </trkpt>
      <trkpt lat="45.89712" lon="6.6822">
        <ele>699.2</ele>
        <time>2020-08-16T13:17:07Z</time>
      </trkpt>
      <trkpt lat="45.89715" lon="6.68212">
        <ele>698.6</ele>
        <time>2020-08-16T13:17:08Z</time>
      </trkpt>
      <trkpt lat="45.8972" lon="6.68206">
        <ele>698.2</ele>
        <time>2020-08-16T13:17:09Z</time>
      </trkpt>
      <trkpt lat="45.89726" lon="6.682">
        <ele>697.6</ele>
        <time>2020-08-16T13:17:10Z</time>
      </trkpt>
      <trkpt lat="45.89731" lon="6.68194">
        <ele>697.2</ele>
        <time>2020-08-16T13:17:11Z</time>
      </trkpt>
      <trkpt lat="45.89736" lon="6.68185">
        <ele>696.8</ele>
        <time>2020-08-16T13:17:12Z</time>
      </trkpt>
      <trkpt lat="45.8974" lon="6.68175">
        <ele>696.2</ele>
        <time>2020-08-16T13:17:13Z</time>
      </trkpt>
      <trkpt lat="45.89745" lon="6.68165">
        <ele>695.8</ele>
        <time>2020-08-16T13:17:14Z</time>
      </trkpt>
      <trkpt lat="45.89749" lon="6.68156">
        <ele>695</ele>
        <time>2020-08-16T13:17:15Z</time>
      </trkpt>
      <trkpt lat="45.89753" lon="6.68146">
        <ele>694.6</ele>
        <time>2020-08-16T13:17:16Z</time>
      </trkpt>
      <trkpt lat="45.89758" lon="6.68137">
        <ele>694</ele>
        <time>2020-08-16T13:17:17Z</time>
      </trkpt>
      <trkpt lat="45.89763" lon="6.68128">
        <ele>694</ele>
        <time>2020-08-16T13:17:18Z</time>
      </trkpt>
      <trkpt lat="45.89767" lon="6.68118">
        <ele>693.6</ele>
        <time>2020-08-16T13:17:19Z</time>
      </trkpt>
      <trkpt lat="45.89771" lon="6.6811">
        <ele>693.2</ele>
        <time>2020-08-16T13:17:20Z</time>
      </trkpt>
      <trkpt lat="45.89775" lon="6.68102">
        <ele>693</ele>
        <time>2020-08-16T13:17:21Z</time>
      </trkpt>
      <trkpt lat="45.89778" lon="6.68093">
        <ele>692.4</ele>
        <time>2020-08-16T13:17:22Z</time>
      </trkpt>
      <trkpt lat="45.89782" lon="6.68083">
        <ele>691.6</ele>
        <time>2020-08-16T13:17:23Z</time>
      </trkpt>
      <trkpt lat="45.89785" lon="6.68074">
        <ele>691</ele>
        <time>2020-08-16T13:17:24Z</time>
      </trkpt>
      <trkpt lat="45.89787" lon="6.68066">
        <ele>690.4</ele>
        <time>2020-08-16T13:17:25Z</time>
      </trkpt>
      <trkpt lat="45.89789" lon="6.68061">
        <ele>689.8</ele>
        <time>2020-08-16T13:17:26Z</time>
      </trkpt>
      <trkpt lat="45.89791" lon="6.68058">
        <ele>689.6</ele>
        <time>2020-08-16T13:17:27Z</time>
      </trkpt>
      <trkpt lat="45.89791" lon="6.68056">
        <ele>689.4</ele>
        <time>2020-08-16T13:17:28Z</time>
      </trkpt>
      <trkpt lat="45.89791" lon="6.68056">
        <ele>689.4</ele>
        <time>2020-08-16T13:17:29Z</time>
      </trkpt>
      <trkpt lat="45.89791" lon="6.68056">
        <ele>689.4</ele>
        <time>2020-08-16T13:17:30Z</time>
      </trkpt>
      <trkpt lat="45.89791" lon="6.68056">
        <ele>689.2</ele>
        <time>2020-08-16T13:17:31Z</time>
      </trkpt>
      <trkpt lat="45.89791" lon="6.68056">
        <ele>689.4</ele>
        <time>2020-08-16T13:17:32Z</time>
      </trkpt>
      <trkpt lat="45.89791" lon="6.68055">
        <ele>689.4</ele>
        <time>2020-08-16T13:17:33Z</time>
      </trkpt>
      <trkpt lat="45.89791" lon="6.68055">
        <ele>689.4</ele>
        <time>2020-08-16T13:17:34Z</time>
      </trkpt>
      <trkpt lat="45.89791" lon="6.68054">
        <ele>689.2</ele>
        <time>2020-08-16T13:17:35Z</time>
      </trkpt>
      <trkpt lat="45.89802" lon="6.6802">
        <ele>685.4</ele>
        <time>2020-08-16T13:17:43Z</time>
      </trkpt>
      <trkpt lat="45.89805" lon="6.68011">
        <ele>684.4</ele>
        <time>2020-08-16T13:17:44Z</time>
      </trkpt>
      <trkpt lat="45.89808" lon="6.68002">
        <ele>683.4</ele>
        <time>2020-08-16T13:17:45Z</time>
      </trkpt>
      <trkpt lat="45.89819" lon="6.6798">
        <ele>682.2</ele>
        <time>2020-08-16T13:17:46Z</time>
      </trkpt>
      <trkpt lat="45.89827" lon="6.67969">
        <ele>680.8</ele>
        <time>2020-08-16T13:17:47Z</time>
      </trkpt>
      <trkpt lat="45.89827" lon="6.67969">
        <ele>679</ele>
        <time>2020-08-16T13:17:48Z</time>
      </trkpt>
      <trkpt lat="45.89835" lon="6.67959">
        <ele>679</ele>
        <time>2020-08-16T13:17:49Z</time>
      </trkpt>
      <trkpt lat="45.89843" lon="6.67949">
        <ele>679</ele>
        <time>2020-08-16T13:17:50Z</time>
      </trkpt>
      <trkpt lat="45.89851" lon="6.67939">
        <ele>679</ele>
        <time>2020-08-16T13:17:51Z</time>
      </trkpt>
      <trkpt lat="45.89858" lon="6.67929">
        <ele>679</ele>
        <time>2020-08-16T13:17:52Z</time>
      </trkpt>
      <trkpt lat="45.89865" lon="6.67917">
        <ele>679</ele>
        <time>2020-08-16T13:17:53Z</time>
      </trkpt>
      <trkpt lat="45.89872" lon="6.67905">
        <ele>669</ele>
        <time>2020-08-16T13:17:54Z</time>
      </trkpt>
      <trkpt lat="45.89878" lon="6.67892">
        <ele>667.6</ele>
        <time>2020-08-16T13:17:55Z</time>
      </trkpt>
      <trkpt lat="45.89884" lon="6.67881">
        <ele>666</ele>
        <time>2020-08-16T13:17:56Z</time>
      </trkpt>
      <trkpt lat="45.8989" lon="6.67872">
        <ele>664.2</ele>
        <time>2020-08-16T13:17:57Z</time>
      </trkpt>
      <trkpt lat="45.89897" lon="6.67864">
        <ele>662.6</ele>
        <time>2020-08-16T13:17:58Z</time>
      </trkpt>
      <trkpt lat="45.89905" lon="6.67858">
        <ele>661</ele>
        <time>2020-08-16T13:17:59Z</time>
      </trkpt>
      <trkpt lat="45.89913" lon="6.67851">
        <ele>660</ele>
        <time>2020-08-16T13:18:00Z</time>
      </trkpt>
      <trkpt lat="45.8992" lon="6.67844">
        <ele>658.4</ele>
        <time>2020-08-16T13:18:01Z</time>
      </trkpt>
      <trkpt lat="45.89925" lon="6.67835">
        <ele>657.4</ele>
        <time>2020-08-16T13:18:02Z</time>
      </trkpt>
      <trkpt lat="45.89929" lon="6.67826">
        <ele>656.6</ele>
        <time>2020-08-16T13:18:03Z</time>
      </trkpt>
      <trkpt lat="45.89931" lon="6.67816">
        <ele>655.2</ele>
        <time>2020-08-16T13:18:04Z</time>
      </trkpt>
      <trkpt lat="45.89932" lon="6.67805">
        <ele>654.2</ele>
        <time>2020-08-16T13:18:05Z</time>
      </trkpt>
      <trkpt lat="45.89931" lon="6.67793">
        <ele>653.2</ele>
        <time>2020-08-16T13:18:06Z</time>
      </trkpt>
      <trkpt lat="45.89931" lon="6.67779">
        <ele>651.6</ele>
        <time>2020-08-16T13:18:07Z</time>
      </trkpt>
      <trkpt lat="45.89929" lon="6.67766">
        <ele>650.2</ele>
        <time>2020-08-16T13:18:08Z</time>
      </trkpt>
      <trkpt lat="45.89927" lon="6.67753">
        <ele>649.2</ele>
        <time>2020-08-16T13:18:09Z</time>
      </trkpt>
      <trkpt lat="45.89925" lon="6.67743">
        <ele>648.4</ele>
        <time>2020-08-16T13:18:10Z</time>
      </trkpt>
      <trkpt lat="45.89921" lon="6.67734">
        <ele>647.6</ele>
        <time>2020-08-16T13:18:11Z</time>
      </trkpt>
      <trkpt lat="45.89916" lon="6.67727">
        <ele>646.4</ele>
        <time>2020-08-16T13:18:12Z</time>
      </trkpt>
      <trkpt lat="45.8991" lon="6.67721">
        <ele>645.2</ele>
        <time>2020-08-16T13:18:13Z</time>
      </trkpt>
      <trkpt lat="45.89903" lon="6.67713">
        <ele>644</ele>
        <time>2020-08-16T13:18:14Z</time>
      </trkpt>
      <trkpt lat="45.89897" lon="6.67705">
        <ele>642.6</ele>
        <time>2020-08-16T13:18:15Z</time>
      </trkpt>
      <trkpt lat="45.89892" lon="6.67696">
        <ele>641.2</ele>
        <time>2020-08-16T13:18:16Z</time>
      </trkpt>
      <trkpt lat="45.89886" lon="6.67686">
        <ele>640.2</ele>
        <time>2020-08-16T13:18:17Z</time>
      </trkpt>
      <trkpt lat="45.89883" lon="6.67675">
        <ele>639.6</ele>
        <time>2020-08-16T13:18:18Z</time>
      </trkpt>
      <trkpt lat="45.89878" lon="6.67665">
        <ele>638.8</ele>
        <time>2020-08-16T13:18:19Z</time>
      </trkpt>
      <trkpt lat="45.89871" lon="6.67658">
        <ele>637.6</ele>
        <time>2020-08-16T13:18:20Z</time>
      </trkpt>
      <trkpt lat="45.89863" lon="6.67653">
        <ele>636.4</ele>
        <time>2020-08-16T13:18:21Z</time>
      </trkpt>
      <trkpt lat="45.89856" lon="6.67649">
        <ele>634.8</ele>
        <time>2020-08-16T13:18:22Z</time>
      </trkpt>
      <trkpt lat="45.8985" lon="6.67645">
        <ele>633.8</ele>
        <time>2020-08-16T13:18:23Z</time>
      </trkpt>
      <trkpt lat="45.89845" lon="6.67639">
        <ele>632.8</ele>
        <time>2020-08-16T13:18:24Z</time>
      </trkpt>
      <trkpt lat="45.89843" lon="6.67631">
        <ele>632.2</ele>
        <time>2020-08-16T13:18:25Z</time>
      </trkpt>
      <trkpt lat="45.89844" lon="6.67624">
        <ele>631.4</ele>
        <time>2020-08-16T13:18:26Z</time>
      </trkpt>
      <trkpt lat="45.89849" lon="6.67618">
        <ele>630.6</ele>
        <time>2020-08-16T13:18:27Z</time>
      </trkpt>
      <trkpt lat="45.89855" lon="6.67617">
        <ele>629.4</ele>
        <time>2020-08-16T13:18:28Z</time>
      </trkpt>
      <trkpt lat="45.89862" lon="6.67619">
        <ele>628.4</ele>
        <time>2020-08-16T13:18:29Z</time>
      </trkpt>
      <trkpt lat="45.89869" lon="6.67621">
        <ele>627.2</ele>
        <time>2020-08-16T13:18:30Z</time>
      </trkpt>
      <trkpt lat="45.89877" lon="6.6762">
        <ele>626.4</ele>
        <time>2020-08-16T13:18:31Z</time>
      </trkpt>
      <trkpt lat="45.89884" lon="6.67616">
        <ele>625</ele>
        <time>2020-08-16T13:18:32Z</time>
      </trkpt>
      <trkpt lat="45.89892" lon="6.67609">
        <ele>623.6</ele>
        <time>2020-08-16T13:18:33Z</time>
      </trkpt>
      <trkpt lat="45.899" lon="6.67602">
        <ele>622.8</ele>
        <time>2020-08-16T13:18:34Z</time>
      </trkpt>
      <trkpt lat="45.89906" lon="6.67596">
        <ele>621.2</ele>
        <time>2020-08-16T13:18:35Z</time>
      </trkpt>
      <trkpt lat="45.89912" lon="6.67591">
        <ele>620</ele>
        <time>2020-08-16T13:18:36Z</time>
      </trkpt>
      <trkpt lat="45.89917" lon="6.67586">
        <ele>618.8</ele>
        <time>2020-08-16T13:18:37Z</time>
      </trkpt>
      <trkpt lat="45.89924" lon="6.67583">
        <ele>617.6</ele>
        <time>2020-08-16T13:18:38Z</time>
      </trkpt>
      <trkpt lat="45.89932" lon="6.67582">
        <ele>616.4</ele>
        <time>2020-08-16T13:18:39Z</time>
      </trkpt>
      <trkpt lat="45.89939" lon="6.67584">
        <ele>614.8</ele>
        <time>2020-08-16T13:18:40Z</time>
      </trkpt>
      <trkpt lat="45.89948" lon="6.67585">
        <ele>613.4</ele>
        <time>2020-08-16T13:18:41Z</time>
      </trkpt>
      <trkpt lat="45.89957" lon="6.67589">
        <ele>612</ele>
        <time>2020-08-16T13:18:42Z</time>
      </trkpt>
      <trkpt lat="45.89965" lon="6.67594">
        <ele>610.6</ele>
        <time>2020-08-16T13:18:43Z</time>
      </trkpt>
      <trkpt lat="45.89972" lon="6.67599">
        <ele>609.2</ele>
        <time>2020-08-16T13:18:44Z</time>
      </trkpt>
      <trkpt lat="45.8998" lon="6.67605">
        <ele>608</ele>
        <time>2020-08-16T13:18:45Z</time>
      </trkpt>
      <trkpt lat="45.89987" lon="6.67611">
        <ele>606.8</ele>
        <time>2020-08-16T13:18:46Z</time>
      </trkpt>
      <trkpt lat="45.89995" lon="6.67616">
        <ele>605.2</ele>
        <time>2020-08-16T13:18:47Z</time>
      </trkpt>
      <trkpt lat="45.90004" lon="6.67622">
        <ele>604</ele>
        <time>2020-08-16T13:18:48Z</time>
      </trkpt>
      <trkpt lat="45.90012" lon="6.67628">
        <ele>602.8</ele>
        <time>2020-08-16T13:18:49Z</time>
      </trkpt>
      <trkpt lat="45.90021" lon="6.67634">
        <ele>601.8</ele>
        <time>2020-08-16T13:18:50Z</time>
      </trkpt>
      <trkpt lat="45.90031" lon="6.6764">
        <ele>600.2</ele>
        <time>2020-08-16T13:18:51Z</time>
      </trkpt>
      <trkpt lat="45.90039" lon="6.67646">
        <ele>599.4</ele>
        <time>2020-08-16T13:18:52Z</time>
      </trkpt>
      <trkpt lat="45.90047" lon="6.67653">
        <ele>598.4</ele>
        <time>2020-08-16T13:18:53Z</time>
      </trkpt>
      <trkpt lat="45.90057" lon="6.67659">
        <ele>598</ele>
        <time>2020-08-16T13:18:54Z</time>
      </trkpt>
      <trkpt lat="45.90066" lon="6.67663">
        <ele>597.4</ele>
        <time>2020-08-16T13:18:55Z</time>
      </trkpt>
      <trkpt lat="45.90075" lon="6.67668">
        <ele>597.2</ele>
        <time>2020-08-16T13:18:56Z</time>
      </trkpt>
      <trkpt lat="45.90085" lon="6.67673">
        <ele>596.4</ele>
        <time>2020-08-16T13:18:57Z</time>
      </trkpt>
      <trkpt lat="45.90093" lon="6.67677">
        <ele>596</ele>
        <time>2020-08-16T13:18:58Z</time>
      </trkpt>
      <trkpt lat="45.90103" lon="6.6768">
        <ele>595.2</ele>
        <time>2020-08-16T13:18:59Z</time>
      </trkpt>
      <trkpt lat="45.90112" lon="6.67683">
        <ele>594.6</ele>
        <time>2020-08-16T13:19:00Z</time>
      </trkpt>
      <trkpt lat="45.90119" lon="6.67686">
        <ele>593.6</ele>
        <time>2020-08-16T13:19:01Z</time>
      </trkpt>
      <trkpt lat="45.90127" lon="6.67689">
        <ele>592.6</ele>
        <time>2020-08-16T13:19:02Z</time>
      </trkpt>
      <trkpt lat="45.90135" lon="6.67691">
        <ele>592</ele>
        <time>2020-08-16T13:19:03Z</time>
      </trkpt>
      <trkpt lat="45.90143" lon="6.67693">
        <ele>591.4</ele>
        <time>2020-08-16T13:19:04Z</time>
      </trkpt>
      <trkpt lat="45.90151" lon="6.67695">
        <ele>590.8</ele>
        <time>2020-08-16T13:19:05Z</time>
      </trkpt>
      <trkpt lat="45.90159" lon="6.67698">
        <ele>590.2</ele>
        <time>2020-08-16T13:19:06Z</time>
      </trkpt>
      <trkpt lat="45.90166" lon="6.67701">
        <ele>589.4</ele>
        <time>2020-08-16T13:19:07Z</time>
      </trkpt>
      <trkpt lat="45.90174" lon="6.67705">
        <ele>588.8</ele>
        <time>2020-08-16T13:19:08Z</time>
      </trkpt>
      <trkpt lat="45.90181" lon="6.67709">
        <ele>588.2</ele>
        <time>2020-08-16T13:19:09Z</time>
      </trkpt>
      <trkpt lat="45.90193" lon="6.6772">
        <ele>587.8</ele>
        <time>2020-08-16T13:19:10Z</time>
      </trkpt>
      <trkpt lat="45.90193" lon="6.6772">
        <ele>587.4</ele>
        <time>2020-08-16T13:19:11Z</time>
      </trkpt>
      <trkpt lat="45.90198" lon="6.67724">
        <ele>586.8</ele>
        <time>2020-08-16T13:19:12Z</time>
      </trkpt>
      <trkpt lat="45.90205" lon="6.67727">
        <ele>586.4</ele>
        <time>2020-08-16T13:19:13Z</time>
      </trkpt>
      <trkpt lat="45.90211" lon="6.67728">
        <ele>586</ele>
        <time>2020-08-16T13:19:14Z</time>
      </trkpt>
      <trkpt lat="45.90218" lon="6.67728">
        <ele>585.6</ele>
        <time>2020-08-16T13:19:15Z</time>
      </trkpt>
      <trkpt lat="45.90232" lon="6.67723">
        <ele>585.2</ele>
        <time>2020-08-16T13:19:16Z</time>
      </trkpt>
      <trkpt lat="45.90232" lon="6.67723">
        <ele>584.8</ele>
        <time>2020-08-16T13:19:17Z</time>
      </trkpt>
      <trkpt lat="45.90239" lon="6.67719">
        <ele>584</ele>
        <time>2020-08-16T13:19:18Z</time>
      </trkpt>
      <trkpt lat="45.90252" lon="6.6771">
        <ele>583.6</ele>
        <time>2020-08-16T13:19:19Z</time>
      </trkpt>
      <trkpt lat="45.90252" lon="6.6771">
        <ele>583.2</ele>
        <time>2020-08-16T13:19:20Z</time>
      </trkpt>
      <trkpt lat="45.90258" lon="6.67706">
        <ele>582.8</ele>
        <time>2020-08-16T13:19:21Z</time>
      </trkpt>
      <trkpt lat="45.90264" lon="6.67703">
        <ele>582.6</ele>
        <time>2020-08-16T13:19:22Z</time>
      </trkpt>
      <trkpt lat="45.9027" lon="6.67699">
        <ele>582.2</ele>
        <time>2020-08-16T13:19:23Z</time>
      </trkpt>
      <trkpt lat="45.90274" lon="6.67697">
        <ele>582</ele>
        <time>2020-08-16T13:19:24Z</time>
      </trkpt>
      <trkpt lat="45.90278" lon="6.67694">
        <ele>581.8</ele>
        <time>2020-08-16T13:19:25Z</time>
      </trkpt>
      <trkpt lat="45.90282" lon="6.67691">
        <ele>581.6</ele>
        <time>2020-08-16T13:19:26Z</time>
      </trkpt>
      <trkpt lat="45.90284" lon="6.67686">
        <ele>581.4</ele>
        <time>2020-08-16T13:19:27Z</time>
      </trkpt>
      <trkpt lat="45.90284" lon="6.6768">
        <ele>581.4</ele>
        <time>2020-08-16T13:19:28Z</time>
      </trkpt>
      <trkpt lat="45.90283" lon="6.67675">
        <ele>581.4</ele>
        <time>2020-08-16T13:19:29Z</time>
      </trkpt>
      <trkpt lat="45.90282" lon="6.67669">
        <ele>581.6</ele>
        <time>2020-08-16T13:19:30Z</time>
      </trkpt>
      <trkpt lat="45.9028" lon="6.67663">
        <ele>581.8</ele>
        <time>2020-08-16T13:19:31Z</time>
      </trkpt>
      <trkpt lat="45.90277" lon="6.67657">
        <ele>581.8</ele>
        <time>2020-08-16T13:19:32Z</time>
      </trkpt>
      <trkpt lat="45.90275" lon="6.67651">
        <ele>582</ele>
        <time>2020-08-16T13:19:33Z</time>
      </trkpt>
      <trkpt lat="45.90274" lon="6.67646">
        <ele>582</ele>
        <time>2020-08-16T13:19:34Z</time>
      </trkpt>
      <trkpt lat="45.90272" lon="6.67639">
        <ele>582.2</ele>
        <time>2020-08-16T13:19:35Z</time>
      </trkpt>
      <trkpt lat="45.90271" lon="6.67633">
        <ele>582.2</ele>
        <time>2020-08-16T13:19:36Z</time>
      </trkpt>
      <trkpt lat="45.90269" lon="6.67627">
        <ele>582.2</ele>
        <time>2020-08-16T13:19:37Z</time>
      </trkpt>
      <trkpt lat="45.90266" lon="6.67614">
        <ele>582.2</ele>
        <time>2020-08-16T13:19:38Z</time>
      </trkpt>
      <trkpt lat="45.90266" lon="6.67614">
        <ele>582.2</ele>
        <time>2020-08-16T13:19:39Z</time>
      </trkpt>
      <trkpt lat="45.90264" lon="6.67608">
        <ele>582.2</ele>
        <time>2020-08-16T13:19:40Z</time>
      </trkpt>
      <trkpt lat="45.90262" lon="6.67601">
        <ele>582</ele>
        <time>2020-08-16T13:19:41Z</time>
      </trkpt>
      <trkpt lat="45.90258" lon="6.67588">
        <ele>581.8</ele>
        <time>2020-08-16T13:19:42Z</time>
      </trkpt>
      <trkpt lat="45.90258" lon="6.67588">
        <ele>581.8</ele>
        <time>2020-08-16T13:19:43Z</time>
      </trkpt>
      <trkpt lat="45.90256" lon="6.67581">
        <ele>581.8</ele>
        <time>2020-08-16T13:19:44Z</time>
      </trkpt>
      <trkpt lat="45.90254" lon="6.67568">
        <ele>581.8</ele>
        <time>2020-08-16T13:19:45Z</time>
      </trkpt>
      <trkpt lat="45.90254" lon="6.67568">
        <ele>581.8</ele>
        <time>2020-08-16T13:19:46Z</time>
      </trkpt>
      <trkpt lat="45.90253" lon="6.67561">
        <ele>581.8</ele>
        <time>2020-08-16T13:19:47Z</time>
      </trkpt>
      <trkpt lat="45.90252" lon="6.67555">
        <ele>582</ele>
        <time>2020-08-16T13:19:48Z</time>
      </trkpt>
      <trkpt lat="45.9025" lon="6.67549">
        <ele>582</ele>
        <time>2020-08-16T13:19:49Z</time>
      </trkpt>
      <trkpt lat="45.90248" lon="6.67544">
        <ele>582.2</ele>
        <time>2020-08-16T13:19:50Z</time>
      </trkpt>
      <trkpt lat="45.90245" lon="6.6754">
        <ele>582.2</ele>
        <time>2020-08-16T13:19:51Z</time>
      </trkpt>
      <trkpt lat="45.90237" lon="6.67536">
        <ele>582.4</ele>
        <time>2020-08-16T13:19:52Z</time>
      </trkpt>
      <trkpt lat="45.90237" lon="6.67536">
        <ele>582.6</ele>
        <time>2020-08-16T13:19:53Z</time>
      </trkpt>
      <trkpt lat="45.90234" lon="6.67535">
        <ele>582.6</ele>
        <time>2020-08-16T13:19:54Z</time>
      </trkpt>
      <trkpt lat="45.90226" lon="6.67533">
        <ele>582.8</ele>
        <time>2020-08-16T13:19:55Z</time>
      </trkpt>
      <trkpt lat="45.90226" lon="6.67533">
        <ele>582.8</ele>
        <time>2020-08-16T13:19:56Z</time>
      </trkpt>
      <trkpt lat="45.9022" lon="6.6753">
        <ele>583</ele>
        <time>2020-08-16T13:19:57Z</time>
      </trkpt>
      <trkpt lat="45.90217" lon="6.67528">
        <ele>583.2</ele>
        <time>2020-08-16T13:19:58Z</time>
      </trkpt>
      <trkpt lat="45.90217" lon="6.67528">
        <ele>583.4</ele>
        <time>2020-08-16T13:19:59Z</time>
      </trkpt>
      <trkpt lat="45.90212" lon="6.67522">
        <ele>583.6</ele>
        <time>2020-08-16T13:20:00Z</time>
      </trkpt>
      <trkpt lat="45.90212" lon="6.67522">
        <ele>583.8</ele>
        <time>2020-08-16T13:20:01Z</time>
      </trkpt>
      <trkpt lat="45.9021" lon="6.67519">
        <ele>584.2</ele>
        <time>2020-08-16T13:20:02Z</time>
      </trkpt>
      <trkpt lat="45.90208" lon="6.67516">
        <ele>584.4</ele>
        <time>2020-08-16T13:20:03Z</time>
      </trkpt>
      <trkpt lat="45.90207" lon="6.67512">
        <ele>584.4</ele>
        <time>2020-08-16T13:20:04Z</time>
      </trkpt>
      <trkpt lat="45.90206" lon="6.67504">
        <ele>584.4</ele>
        <time>2020-08-16T13:20:05Z</time>
      </trkpt>
      <trkpt lat="45.90205" lon="6.67499">
        <ele>584.6</ele>
        <time>2020-08-16T13:20:06Z</time>
      </trkpt>
      <trkpt lat="45.90205" lon="6.67499">
        <ele>584.6</ele>
        <time>2020-08-16T13:20:07Z</time>
      </trkpt>
      <trkpt lat="45.90204" lon="6.67494">
        <ele>584.4</ele>
        <time>2020-08-16T13:20:08Z</time>
      </trkpt>
      <trkpt lat="45.90203" lon="6.67488">
        <ele>584.2</ele>
        <time>2020-08-16T13:20:09Z</time>
      </trkpt>
      <trkpt lat="45.90201" lon="6.67475">
        <ele>584.2</ele>
        <time>2020-08-16T13:20:10Z</time>
      </trkpt>
      <trkpt lat="45.90199" lon="6.67469">
        <ele>584</ele>
        <time>2020-08-16T13:20:11Z</time>
      </trkpt>
      <trkpt lat="45.90198" lon="6.67463">
        <ele>583.8</ele>
        <time>2020-08-16T13:20:12Z</time>
      </trkpt>
      <trkpt lat="45.90198" lon="6.67463">
        <ele>584</ele>
        <time>2020-08-16T13:20:13Z</time>
      </trkpt>
      <trkpt lat="45.90197" lon="6.6745">
        <ele>584</ele>
        <time>2020-08-16T13:20:14Z</time>
      </trkpt>
      <trkpt lat="45.90197" lon="6.6745">
        <ele>584</ele>
        <time>2020-08-16T13:20:15Z</time>
      </trkpt>
      <trkpt lat="45.90196" lon="6.67445">
        <ele>584</ele>
        <time>2020-08-16T13:20:16Z</time>
      </trkpt>
      <trkpt lat="45.90196" lon="6.67438">
        <ele>584</ele>
        <time>2020-08-16T13:20:17Z</time>
      </trkpt>
      <trkpt lat="45.90198" lon="6.67425">
        <ele>584</ele>
        <time>2020-08-16T13:20:18Z</time>
      </trkpt>
      <trkpt lat="45.90198" lon="6.67425">
        <ele>584</ele>
        <time>2020-08-16T13:20:19Z</time>
      </trkpt>
      <trkpt lat="45.90199" lon="6.67414">
        <ele>584.2</ele>
        <time>2020-08-16T13:20:20Z</time>
      </trkpt>
      <trkpt lat="45.90199" lon="6.67414">
        <ele>584.6</ele>
        <time>2020-08-16T13:20:21Z</time>
      </trkpt>
      <trkpt lat="45.90201" lon="6.67409">
        <ele>584.8</ele>
        <time>2020-08-16T13:20:22Z</time>
      </trkpt>
      <trkpt lat="45.90206" lon="6.67401">
        <ele>584.8</ele>
        <time>2020-08-16T13:20:23Z</time>
      </trkpt>
      <trkpt lat="45.90209" lon="6.67397">
        <ele>585</ele>
        <time>2020-08-16T13:20:24Z</time>
      </trkpt>
      <trkpt lat="45.90209" lon="6.67397">
        <ele>585.2</ele>
        <time>2020-08-16T13:20:25Z</time>
      </trkpt>
      <trkpt lat="45.90211" lon="6.67394">
        <ele>585.2</ele>
        <time>2020-08-16T13:20:26Z</time>
      </trkpt>
      <trkpt lat="45.90214" lon="6.6739">
        <ele>585.4</ele>
        <time>2020-08-16T13:20:27Z</time>
      </trkpt>
      <trkpt lat="45.90219" lon="6.67383">
        <ele>585.4</ele>
        <time>2020-08-16T13:20:28Z</time>
      </trkpt>
      <trkpt lat="45.90219" lon="6.67383">
        <ele>585.6</ele>
        <time>2020-08-16T13:20:29Z</time>
      </trkpt>
      <trkpt lat="45.90221" lon="6.67379">
        <ele>585.8</ele>
        <time>2020-08-16T13:20:30Z</time>
      </trkpt>
      <trkpt lat="45.90226" lon="6.67372">
        <ele>586</ele>
        <time>2020-08-16T13:20:31Z</time>
      </trkpt>
      <trkpt lat="45.90227" lon="6.67369">
        <ele>586.2</ele>
        <time>2020-08-16T13:20:32Z</time>
      </trkpt>
      <trkpt lat="45.90227" lon="6.67369">
        <ele>586.4</ele>
        <time>2020-08-16T13:20:33Z</time>
      </trkpt>
      <trkpt lat="45.90231" lon="6.67362">
        <ele>586.6</ele>
        <time>2020-08-16T13:20:34Z</time>
      </trkpt>
      <trkpt lat="45.90231" lon="6.67362">
        <ele>586.8</ele>
        <time>2020-08-16T13:20:35Z</time>
      </trkpt>
      <trkpt lat="45.90233" lon="6.67356">
        <ele>587</ele>
        <time>2020-08-16T13:20:36Z</time>
      </trkpt>
      <trkpt lat="45.90234" lon="6.67353">
        <ele>587.2</ele>
        <time>2020-08-16T13:20:37Z</time>
      </trkpt>
      <trkpt lat="45.90234" lon="6.67353">
        <ele>587.4</ele>
        <time>2020-08-16T13:20:38Z</time>
      </trkpt>
      <trkpt lat="45.90237" lon="6.67348">
        <ele>587.6</ele>
        <time>2020-08-16T13:20:39Z</time>
      </trkpt>
      <trkpt lat="45.90238" lon="6.67344">
        <ele>587.8</ele>
        <time>2020-08-16T13:20:40Z</time>
      </trkpt>
      <trkpt lat="45.90238" lon="6.67344">
        <ele>588</ele>
        <time>2020-08-16T13:20:41Z</time>
      </trkpt>
      <trkpt lat="45.90239" lon="6.67341">
        <ele>588.2</ele>
        <time>2020-08-16T13:20:42Z</time>
      </trkpt>
      <trkpt lat="45.9024" lon="6.67338">
        <ele>588.4</ele>
        <time>2020-08-16T13:20:43Z</time>
      </trkpt>
      <trkpt lat="45.90242" lon="6.67333">
        <ele>588.4</ele>
        <time>2020-08-16T13:20:44Z</time>
      </trkpt>
      <trkpt lat="45.90242" lon="6.67333">
        <ele>588.6</ele>
        <time>2020-08-16T13:20:45Z</time>
      </trkpt>
      <trkpt lat="45.90244" lon="6.6733">
        <ele>588.8</ele>
        <time>2020-08-16T13:20:46Z</time>
      </trkpt>
      <trkpt lat="45.90248" lon="6.67324">
        <ele>588.8</ele>
        <time>2020-08-16T13:20:47Z</time>
      </trkpt>
      <trkpt lat="45.90248" lon="6.67324">
        <ele>589</ele>
        <time>2020-08-16T13:20:48Z</time>
      </trkpt>
      <trkpt lat="45.90249" lon="6.67321">
        <ele>589.2</ele>
        <time>2020-08-16T13:20:49Z</time>
      </trkpt>
      <trkpt lat="45.9025" lon="6.67315">
        <ele>589.4</ele>
        <time>2020-08-16T13:20:50Z</time>
      </trkpt>
      <trkpt lat="45.9025" lon="6.67315">
        <ele>589.4</ele>
        <time>2020-08-16T13:20:51Z</time>
      </trkpt>
      <trkpt lat="45.90252" lon="6.67313">
        <ele>589.6</ele>
        <time>2020-08-16T13:20:52Z</time>
      </trkpt>
      <trkpt lat="45.90255" lon="6.67308">
        <ele>589.6</ele>
        <time>2020-08-16T13:20:53Z</time>
      </trkpt>
      <trkpt lat="45.90255" lon="6.67308">
        <ele>589.8</ele>
        <time>2020-08-16T13:20:54Z</time>
      </trkpt>
      <trkpt lat="45.90256" lon="6.67305">
        <ele>590</ele>
        <time>2020-08-16T13:20:55Z</time>
      </trkpt>
      <trkpt lat="45.90259" lon="6.67299">
        <ele>590</ele>
        <time>2020-08-16T13:20:56Z</time>
      </trkpt>
      <trkpt lat="45.9026" lon="6.67296">
        <ele>590.2</ele>
        <time>2020-08-16T13:20:57Z</time>
      </trkpt>
      <trkpt lat="45.9026" lon="6.67296">
        <ele>590.2</ele>
        <time>2020-08-16T13:20:58Z</time>
      </trkpt>
      <trkpt lat="45.9026" lon="6.6729">
        <ele>590.4</ele>
        <time>2020-08-16T13:20:59Z</time>
      </trkpt>
      <trkpt lat="45.90261" lon="6.67286">
        <ele>590.4</ele>
        <time>2020-08-16T13:21:00Z</time>
      </trkpt>
      <trkpt lat="45.90261" lon="6.67286">
        <ele>590.6</ele>
        <time>2020-08-16T13:21:01Z</time>
      </trkpt>
      <trkpt lat="45.90264" lon="6.67277">
        <ele>590.6</ele>
        <time>2020-08-16T13:21:02Z</time>
      </trkpt>
      <trkpt lat="45.90266" lon="6.67273">
        <ele>590.8</ele>
        <time>2020-08-16T13:21:03Z</time>
      </trkpt>
      <trkpt lat="45.90267" lon="6.67268">
        <ele>590.6</ele>
        <time>2020-08-16T13:21:04Z</time>
      </trkpt>
      <trkpt lat="45.90268" lon="6.67264">
        <ele>590.6</ele>
        <time>2020-08-16T13:21:05Z</time>
      </trkpt>
      <trkpt lat="45.90269" lon="6.6726">
        <ele>590.8</ele>
        <time>2020-08-16T13:21:06Z</time>
      </trkpt>
      <trkpt lat="45.9027" lon="6.67255">
        <ele>590.8</ele>
        <time>2020-08-16T13:21:07Z</time>
      </trkpt>
      <trkpt lat="45.9027" lon="6.67249">
        <ele>590.6</ele>
        <time>2020-08-16T13:21:08Z</time>
      </trkpt>
      <trkpt lat="45.9027" lon="6.67249">
        <ele>590.6</ele>
        <time>2020-08-16T13:21:09Z</time>
      </trkpt>
      <trkpt lat="45.90271" lon="6.67239">
        <ele>590.8</ele>
        <time>2020-08-16T13:21:10Z</time>
      </trkpt>
      <trkpt lat="45.90273" lon="6.67235">
        <ele>590.6</ele>
        <time>2020-08-16T13:21:11Z</time>
      </trkpt>
      <trkpt lat="45.90274" lon="6.6723">
        <ele>590.8</ele>
        <time>2020-08-16T13:21:12Z</time>
      </trkpt>
      <trkpt lat="45.90276" lon="6.67225">
        <ele>590.8</ele>
        <time>2020-08-16T13:21:13Z</time>
      </trkpt>
      <trkpt lat="45.90277" lon="6.67221">
        <ele>591</ele>
        <time>2020-08-16T13:21:14Z</time>
      </trkpt>
      <trkpt lat="45.90279" lon="6.67216">
        <ele>591</ele>
        <time>2020-08-16T13:21:15Z</time>
      </trkpt>
      <trkpt lat="45.9028" lon="6.67212">
        <ele>591.2</ele>
        <time>2020-08-16T13:21:16Z</time>
      </trkpt>
      <trkpt lat="45.90282" lon="6.67207">
        <ele>591.6</ele>
        <time>2020-08-16T13:21:17Z</time>
      </trkpt>
      <trkpt lat="45.90284" lon="6.67203">
        <ele>591.8</ele>
        <time>2020-08-16T13:21:18Z</time>
      </trkpt>
      <trkpt lat="45.90286" lon="6.67198">
        <ele>591.8</ele>
        <time>2020-08-16T13:21:19Z</time>
      </trkpt>
      <trkpt lat="45.90288" lon="6.67194">
        <ele>592</ele>
        <time>2020-08-16T13:21:20Z</time>
      </trkpt>
      <trkpt lat="45.90289" lon="6.6719">
        <ele>592.2</ele>
        <time>2020-08-16T13:21:21Z</time>
      </trkpt>
      <trkpt lat="45.90291" lon="6.67185">
        <ele>592.2</ele>
        <time>2020-08-16T13:21:22Z</time>
      </trkpt>
      <trkpt lat="45.90292" lon="6.6718">
        <ele>592</ele>
        <time>2020-08-16T13:21:23Z</time>
      </trkpt>
      <trkpt lat="45.90292" lon="6.6718">
        <ele>592</ele>
        <time>2020-08-16T13:21:24Z</time>
      </trkpt>
      <trkpt lat="45.90296" lon="6.67171">
        <ele>592</ele>
        <time>2020-08-16T13:21:25Z</time>
      </trkpt>
      <trkpt lat="45.90298" lon="6.67166">
        <ele>592</ele>
        <time>2020-08-16T13:21:26Z</time>
      </trkpt>
      <trkpt lat="45.90298" lon="6.67166">
        <ele>592.2</ele>
        <time>2020-08-16T13:21:27Z</time>
      </trkpt>
      <trkpt lat="45.90301" lon="6.67155">
        <ele>592.2</ele>
        <time>2020-08-16T13:21:28Z</time>
      </trkpt>
      <trkpt lat="45.90302" lon="6.6715">
        <ele>592.2</ele>
        <time>2020-08-16T13:21:29Z</time>
      </trkpt>
      <trkpt lat="45.90304" lon="6.67144">
        <ele>592</ele>
        <time>2020-08-16T13:21:30Z</time>
      </trkpt>
      <trkpt lat="45.90305" lon="6.67139">
        <ele>592</ele>
        <time>2020-08-16T13:21:31Z</time>
      </trkpt>
      <trkpt lat="45.90307" lon="6.67133">
        <ele>592</ele>
        <time>2020-08-16T13:21:32Z</time>
      </trkpt>
      <trkpt lat="45.90309" lon="6.67127">
        <ele>591.8</ele>
        <time>2020-08-16T13:21:33Z</time>
      </trkpt>
      <trkpt lat="45.90309" lon="6.67127">
        <ele>591.8</ele>
        <time>2020-08-16T13:21:34Z</time>
      </trkpt>
      <trkpt lat="45.90312" lon="6.67114">
        <ele>591.6</ele>
        <time>2020-08-16T13:21:35Z</time>
      </trkpt>
      <trkpt lat="45.90314" lon="6.67107">
        <ele>591.4</ele>
        <time>2020-08-16T13:21:36Z</time>
      </trkpt>
      <trkpt lat="45.90316" lon="6.67101">
        <ele>591.2</ele>
        <time>2020-08-16T13:21:37Z</time>
      </trkpt>
      <trkpt lat="45.90317" lon="6.67094">
        <ele>591.2</ele>
        <time>2020-08-16T13:21:38Z</time>
      </trkpt>
      <trkpt lat="45.90319" lon="6.67086">
        <ele>591.2</ele>
        <time>2020-08-16T13:21:39Z</time>
      </trkpt>
      <trkpt lat="45.9032" lon="6.67079">
        <ele>591</ele>
        <time>2020-08-16T13:21:40Z</time>
      </trkpt>
      <trkpt lat="45.90321" lon="6.67071">
        <ele>591</ele>
        <time>2020-08-16T13:21:41Z</time>
      </trkpt>
      <trkpt lat="45.90322" lon="6.67063">
        <ele>590.8</ele>
        <time>2020-08-16T13:21:42Z</time>
      </trkpt>
      <trkpt lat="45.90323" lon="6.67054">
        <ele>590.6</ele>
        <time>2020-08-16T13:21:43Z</time>
      </trkpt>
      <trkpt lat="45.90323" lon="6.67046">
        <ele>590.4</ele>
        <time>2020-08-16T13:21:44Z</time>
      </trkpt>
      <trkpt lat="45.90323" lon="6.67037">
        <ele>590.4</ele>
        <time>2020-08-16T13:21:45Z</time>
      </trkpt>
      <trkpt lat="45.90323" lon="6.67029">
        <ele>590.4</ele>
        <time>2020-08-16T13:21:46Z</time>
      </trkpt>
      <trkpt lat="45.90323" lon="6.67021">
        <ele>590.4</ele>
        <time>2020-08-16T13:21:47Z</time>
      </trkpt>
      <trkpt lat="45.90323" lon="6.67013">
        <ele>590.4</ele>
        <time>2020-08-16T13:21:48Z</time>
      </trkpt>
      <trkpt lat="45.90324" lon="6.67006">
        <ele>590.4</ele>
        <time>2020-08-16T13:21:49Z</time>
      </trkpt>
      <trkpt lat="45.90324" lon="6.66999">
        <ele>590.2</ele>
        <time>2020-08-16T13:21:50Z</time>
      </trkpt>
      <trkpt lat="45.90325" lon="6.66992">
        <ele>590</ele>
        <time>2020-08-16T13:21:51Z</time>
      </trkpt>
      <trkpt lat="45.90326" lon="6.66985">
        <ele>590</ele>
        <time>2020-08-16T13:21:52Z</time>
      </trkpt>
      <trkpt lat="45.90327" lon="6.66977">
        <ele>590.2</ele>
        <time>2020-08-16T13:21:53Z</time>
      </trkpt>
      <trkpt lat="45.90328" lon="6.6697">
        <ele>590.4</ele>
        <time>2020-08-16T13:21:54Z</time>
      </trkpt>
      <trkpt lat="45.90329" lon="6.66963">
        <ele>590.6</ele>
        <time>2020-08-16T13:21:55Z</time>
      </trkpt>
      <trkpt lat="45.90331" lon="6.66956">
        <ele>590.6</ele>
        <time>2020-08-16T13:21:56Z</time>
      </trkpt>
      <trkpt lat="45.90332" lon="6.6695">
        <ele>590.8</ele>
        <time>2020-08-16T13:21:57Z</time>
      </trkpt>
      <trkpt lat="45.90334" lon="6.66943">
        <ele>591</ele>
        <time>2020-08-16T13:21:58Z</time>
      </trkpt>
      <trkpt lat="45.90336" lon="6.66937">
        <ele>591</ele>
        <time>2020-08-16T13:21:59Z</time>
      </trkpt>
      <trkpt lat="45.90339" lon="6.66931">
        <ele>590.8</ele>
        <time>2020-08-16T13:22:00Z</time>
      </trkpt>
      <trkpt lat="45.90342" lon="6.66925">
        <ele>590.8</ele>
        <time>2020-08-16T13:22:01Z</time>
      </trkpt>
      <trkpt lat="45.90344" lon="6.66919">
        <ele>591</ele>
        <time>2020-08-16T13:22:02Z</time>
      </trkpt>
      <trkpt lat="45.90348" lon="6.66914">
        <ele>590.8</ele>
        <time>2020-08-16T13:22:03Z</time>
      </trkpt>
      <trkpt lat="45.90351" lon="6.66909">
        <ele>591</ele>
        <time>2020-08-16T13:22:04Z</time>
      </trkpt>
      <trkpt lat="45.90354" lon="6.66904">
        <ele>591.2</ele>
        <time>2020-08-16T13:22:05Z</time>
      </trkpt>
      <trkpt lat="45.90358" lon="6.66899">
        <ele>591.2</ele>
        <time>2020-08-16T13:22:06Z</time>
      </trkpt>
      <trkpt lat="45.90361" lon="6.66895">
        <ele>591.4</ele>
        <time>2020-08-16T13:22:07Z</time>
      </trkpt>
      <trkpt lat="45.90365" lon="6.66891">
        <ele>591.4</ele>
        <time>2020-08-16T13:22:08Z</time>
      </trkpt>
      <trkpt lat="45.90368" lon="6.66887">
        <ele>591.8</ele>
        <time>2020-08-16T13:22:09Z</time>
      </trkpt>
      <trkpt lat="45.9037" lon="6.66883">
        <ele>592</ele>
        <time>2020-08-16T13:22:10Z</time>
      </trkpt>
      <trkpt lat="45.90373" lon="6.6688">
        <ele>592.2</ele>
        <time>2020-08-16T13:22:11Z</time>
      </trkpt>
      <trkpt lat="45.90376" lon="6.66877">
        <ele>592.4</ele>
        <time>2020-08-16T13:22:12Z</time>
      </trkpt>
      <trkpt lat="45.90378" lon="6.66874">
        <ele>592.6</ele>
        <time>2020-08-16T13:22:13Z</time>
      </trkpt>
      <trkpt lat="45.9038" lon="6.66871">
        <ele>592.8</ele>
        <time>2020-08-16T13:22:14Z</time>
      </trkpt>
      <trkpt lat="45.90382" lon="6.66868">
        <ele>593</ele>
        <time>2020-08-16T13:22:15Z</time>
      </trkpt>
      <trkpt lat="45.90384" lon="6.66864">
        <ele>593.2</ele>
        <time>2020-08-16T13:22:16Z</time>
      </trkpt>
      <trkpt lat="45.90385" lon="6.6686">
        <ele>593.4</ele>
        <time>2020-08-16T13:22:17Z</time>
      </trkpt>
      <trkpt lat="45.90386" lon="6.66857">
        <ele>593.6</ele>
        <time>2020-08-16T13:22:18Z</time>
      </trkpt>
      <trkpt lat="45.90387" lon="6.66854">
        <ele>593.8</ele>
        <time>2020-08-16T13:22:19Z</time>
      </trkpt>
      <trkpt lat="45.90388" lon="6.6685">
        <ele>594</ele>
        <time>2020-08-16T13:22:20Z</time>
      </trkpt>
      <trkpt lat="45.90388" lon="6.66846">
        <ele>594.2</ele>
        <time>2020-08-16T13:22:21Z</time>
      </trkpt>
      <trkpt lat="45.90388" lon="6.66843">
        <ele>594.4</ele>
        <time>2020-08-16T13:22:22Z</time>
      </trkpt>
      <trkpt lat="45.90388" lon="6.66839">
        <ele>594.6</ele>
        <time>2020-08-16T13:22:23Z</time>
      </trkpt>
      <trkpt lat="45.90389" lon="6.66836">
        <ele>594.8</ele>
        <time>2020-08-16T13:22:24Z</time>
      </trkpt>
      <trkpt lat="45.90389" lon="6.66832">
        <ele>595</ele>
        <time>2020-08-16T13:22:25Z</time>
      </trkpt>
      <trkpt lat="45.90389" lon="6.66828">
        <ele>595.2</ele>
        <time>2020-08-16T13:22:26Z</time>
      </trkpt>
      <trkpt lat="45.90389" lon="6.66825">
        <ele>595.4</ele>
        <time>2020-08-16T13:22:27Z</time>
      </trkpt>
      <trkpt lat="45.90389" lon="6.66821">
        <ele>595.6</ele>
        <time>2020-08-16T13:22:28Z</time>
      </trkpt>
      <trkpt lat="45.9039" lon="6.66818">
        <ele>595.8</ele>
        <time>2020-08-16T13:22:29Z</time>
      </trkpt>
      <trkpt lat="45.9039" lon="6.66814">
        <ele>596</ele>
        <time>2020-08-16T13:22:30Z</time>
      </trkpt>
      <trkpt lat="45.9039" lon="6.6681">
        <ele>596.2</ele>
        <time>2020-08-16T13:22:31Z</time>
      </trkpt>
      <trkpt lat="45.9039" lon="6.66807">
        <ele>596.4</ele>
        <time>2020-08-16T13:22:32Z</time>
      </trkpt>
      <trkpt lat="45.90391" lon="6.66804">
        <ele>596.6</ele>
        <time>2020-08-16T13:22:33Z</time>
      </trkpt>
      <trkpt lat="45.90391" lon="6.668">
        <ele>596.6</ele>
        <time>2020-08-16T13:22:34Z</time>
      </trkpt>
      <trkpt lat="45.90392" lon="6.66797">
        <ele>597</ele>
        <time>2020-08-16T13:22:35Z</time>
      </trkpt>
      <trkpt lat="45.90392" lon="6.66793">
        <ele>597.2</ele>
        <time>2020-08-16T13:22:36Z</time>
      </trkpt>
      <trkpt lat="45.90392" lon="6.6679">
        <ele>597.4</ele>
        <time>2020-08-16T13:22:37Z</time>
      </trkpt>
      <trkpt lat="45.90392" lon="6.66787">
        <ele>597.6</ele>
        <time>2020-08-16T13:22:38Z</time>
      </trkpt>
      <trkpt lat="45.90393" lon="6.66783">
        <ele>598</ele>
        <time>2020-08-16T13:22:39Z</time>
      </trkpt>
      <trkpt lat="45.90393" lon="6.6678">
        <ele>598</ele>
        <time>2020-08-16T13:22:40Z</time>
      </trkpt>
      <trkpt lat="45.90393" lon="6.66777">
        <ele>598.2</ele>
        <time>2020-08-16T13:22:41Z</time>
      </trkpt>
      <trkpt lat="45.90394" lon="6.66774">
        <ele>598.6</ele>
        <time>2020-08-16T13:22:42Z</time>
      </trkpt>
      <trkpt lat="45.90395" lon="6.66771">
        <ele>598.8</ele>
        <time>2020-08-16T13:22:43Z</time>
      </trkpt>
      <trkpt lat="45.90395" lon="6.66768">
        <ele>599</ele>
        <time>2020-08-16T13:22:44Z</time>
      </trkpt>
      <trkpt lat="45.90395" lon="6.66764">
        <ele>599.2</ele>
        <time>2020-08-16T13:22:45Z</time>
      </trkpt>
      <trkpt lat="45.90396" lon="6.66761">
        <ele>599.2</ele>
        <time>2020-08-16T13:22:46Z</time>
      </trkpt>
      <trkpt lat="45.90396" lon="6.66758">
        <ele>599.4</ele>
        <time>2020-08-16T13:22:47Z</time>
      </trkpt>
      <trkpt lat="45.90396" lon="6.66754">
        <ele>599.6</ele>
        <time>2020-08-16T13:22:48Z</time>
      </trkpt>
      <trkpt lat="45.90397" lon="6.66751">
        <ele>599.8</ele>
        <time>2020-08-16T13:22:49Z</time>
      </trkpt>
      <trkpt lat="45.90397" lon="6.66748">
        <ele>600</ele>
        <time>2020-08-16T13:22:50Z</time>
      </trkpt>
      <trkpt lat="45.90398" lon="6.66744">
        <ele>600.2</ele>
        <time>2020-08-16T13:22:51Z</time>
      </trkpt>
      <trkpt lat="45.90399" lon="6.66741">
        <ele>600.4</ele>
        <time>2020-08-16T13:22:52Z</time>
      </trkpt>
      <trkpt lat="45.904" lon="6.66738">
        <ele>600.4</ele>
        <time>2020-08-16T13:22:53Z</time>
      </trkpt>
      <trkpt lat="45.90401" lon="6.66735">
        <ele>600.6</ele>
        <time>2020-08-16T13:22:54Z</time>
      </trkpt>
      <trkpt lat="45.90401" lon="6.66732">
        <ele>600.8</ele>
        <time>2020-08-16T13:22:55Z</time>
      </trkpt>
      <trkpt lat="45.90402" lon="6.66728">
        <ele>601</ele>
        <time>2020-08-16T13:22:56Z</time>
      </trkpt>
      <trkpt lat="45.90403" lon="6.66725">
        <ele>601.2</ele>
        <time>2020-08-16T13:22:57Z</time>
      </trkpt>
      <trkpt lat="45.90404" lon="6.66722">
        <ele>601.4</ele>
        <time>2020-08-16T13:22:58Z</time>
      </trkpt>
      <trkpt lat="45.90405" lon="6.66719">
        <ele>601.4</ele>
        <time>2020-08-16T13:22:59Z</time>
      </trkpt>
      <trkpt lat="45.90406" lon="6.66716">
        <ele>601.6</ele>
        <time>2020-08-16T13:23:00Z</time>
      </trkpt>
      <trkpt lat="45.90407" lon="6.66712">
        <ele>601.8</ele>
        <time>2020-08-16T13:23:01Z</time>
      </trkpt>
      <trkpt lat="45.90408" lon="6.66709">
        <ele>602</ele>
        <time>2020-08-16T13:23:02Z</time>
      </trkpt>
      <trkpt lat="45.90408" lon="6.66706">
        <ele>602.2</ele>
        <time>2020-08-16T13:23:03Z</time>
      </trkpt>
      <trkpt lat="45.90409" lon="6.66703">
        <ele>602.2</ele>
        <time>2020-08-16T13:23:04Z</time>
      </trkpt>
      <trkpt lat="45.9041" lon="6.66699">
        <ele>602.2</ele>
        <time>2020-08-16T13:23:05Z</time>
      </trkpt>
      <trkpt lat="45.90411" lon="6.66696">
        <ele>602.4</ele>
        <time>2020-08-16T13:23:06Z</time>
      </trkpt>
      <trkpt lat="45.90412" lon="6.66693">
        <ele>602.6</ele>
        <time>2020-08-16T13:23:07Z</time>
      </trkpt>
      <trkpt lat="45.90413" lon="6.6669">
        <ele>603</ele>
        <time>2020-08-16T13:23:08Z</time>
      </trkpt>
      <trkpt lat="45.90413" lon="6.66687">
        <ele>603</ele>
        <time>2020-08-16T13:23:09Z</time>
      </trkpt>
      <trkpt lat="45.90414" lon="6.66684">
        <ele>603.2</ele>
        <time>2020-08-16T13:23:10Z</time>
      </trkpt>
      <trkpt lat="45.90414" lon="6.6668">
        <ele>603.2</ele>
        <time>2020-08-16T13:23:11Z</time>
      </trkpt>
      <trkpt lat="45.90415" lon="6.66677">
        <ele>603.2</ele>
        <time>2020-08-16T13:23:12Z</time>
      </trkpt>
      <trkpt lat="45.90415" lon="6.66674">
        <ele>603.2</ele>
        <time>2020-08-16T13:23:13Z</time>
      </trkpt>
      <trkpt lat="45.90416" lon="6.66671">
        <ele>603.2</ele>
        <time>2020-08-16T13:23:14Z</time>
      </trkpt>
      <trkpt lat="45.90416" lon="6.66668">
        <ele>603.4</ele>
        <time>2020-08-16T13:23:15Z</time>
      </trkpt>
      <trkpt lat="45.90417" lon="6.66664">
        <ele>603.6</ele>
        <time>2020-08-16T13:23:16Z</time>
      </trkpt>
      <trkpt lat="45.90418" lon="6.66661">
        <ele>604</ele>
        <time>2020-08-16T13:23:17Z</time>
      </trkpt>
      <trkpt lat="45.90418" lon="6.66658">
        <ele>604.2</ele>
        <time>2020-08-16T13:23:18Z</time>
      </trkpt>
      <trkpt lat="45.90419" lon="6.66654">
        <ele>604.4</ele>
        <time>2020-08-16T13:23:19Z</time>
      </trkpt>
      <trkpt lat="45.9042" lon="6.66651">
        <ele>604.8</ele>
        <time>2020-08-16T13:23:20Z</time>
      </trkpt>
      <trkpt lat="45.9042" lon="6.66647">
        <ele>604.8</ele>
        <time>2020-08-16T13:23:21Z</time>
      </trkpt>
      <trkpt lat="45.90421" lon="6.66643">
        <ele>605</ele>
        <time>2020-08-16T13:23:22Z</time>
      </trkpt>
      <trkpt lat="45.90421" lon="6.6664">
        <ele>605</ele>
        <time>2020-08-16T13:23:23Z</time>
      </trkpt>
      <trkpt lat="45.90422" lon="6.66636">
        <ele>605</ele>
        <time>2020-08-16T13:23:24Z</time>
      </trkpt>
      <trkpt lat="45.90422" lon="6.66631">
        <ele>605</ele>
        <time>2020-08-16T13:23:25Z</time>
      </trkpt>
      <trkpt lat="45.90422" lon="6.66628">
        <ele>605</ele>
        <time>2020-08-16T13:23:26Z</time>
      </trkpt>
      <trkpt lat="45.90423" lon="6.66624">
        <ele>605.2</ele>
        <time>2020-08-16T13:23:27Z</time>
      </trkpt>
      <trkpt lat="45.90423" lon="6.6662">
        <ele>605.4</ele>
        <time>2020-08-16T13:23:28Z</time>
      </trkpt>
      <trkpt lat="45.90424" lon="6.66616">
        <ele>605.4</ele>
        <time>2020-08-16T13:23:29Z</time>
      </trkpt>
      <trkpt lat="45.90424" lon="6.66613">
        <ele>605.6</ele>
        <time>2020-08-16T13:23:30Z</time>
      </trkpt>
      <trkpt lat="45.90425" lon="6.6661">
        <ele>605.8</ele>
        <time>2020-08-16T13:23:31Z</time>
      </trkpt>
      <trkpt lat="45.90425" lon="6.66607">
        <ele>606</ele>
        <time>2020-08-16T13:23:32Z</time>
      </trkpt>
      <trkpt lat="45.90425" lon="6.66603">
        <ele>606.2</ele>
        <time>2020-08-16T13:23:33Z</time>
      </trkpt>
      <trkpt lat="45.90425" lon="6.66599">
        <ele>606.4</ele>
        <time>2020-08-16T13:23:34Z</time>
      </trkpt>
      <trkpt lat="45.90425" lon="6.66596">
        <ele>606.6</ele>
        <time>2020-08-16T13:23:35Z</time>
      </trkpt>
      <trkpt lat="45.90425" lon="6.66592">
        <ele>606.8</ele>
        <time>2020-08-16T13:23:36Z</time>
      </trkpt>
      <trkpt lat="45.90425" lon="6.66589">
        <ele>607.2</ele>
        <time>2020-08-16T13:23:37Z</time>
      </trkpt>
      <trkpt lat="45.90425" lon="6.66587">
        <ele>607.4</ele>
        <time>2020-08-16T13:23:38Z</time>
      </trkpt>
      <trkpt lat="45.90424" lon="6.66584">
        <ele>607.6</ele>
        <time>2020-08-16T13:23:39Z</time>
      </trkpt>
      <trkpt lat="45.90425" lon="6.66582">
        <ele>608</ele>
        <time>2020-08-16T13:23:40Z</time>
      </trkpt>
      <trkpt lat="45.90426" lon="6.6658">
        <ele>608</ele>
        <time>2020-08-16T13:23:41Z</time>
      </trkpt>
      <trkpt lat="45.90426" lon="6.66578">
        <ele>608.2</ele>
        <time>2020-08-16T13:23:42Z</time>
      </trkpt>
      <trkpt lat="45.90427" lon="6.66576">
        <ele>608.6</ele>
        <time>2020-08-16T13:23:43Z</time>
      </trkpt>
      <trkpt lat="45.90428" lon="6.66573">
        <ele>608.6</ele>
        <time>2020-08-16T13:23:44Z</time>
      </trkpt>
      <trkpt lat="45.90429" lon="6.66572">
        <ele>608.8</ele>
        <time>2020-08-16T13:23:45Z</time>
      </trkpt>
      <trkpt lat="45.9043" lon="6.6657">
        <ele>609</ele>
        <time>2020-08-16T13:23:46Z</time>
      </trkpt>
      <trkpt lat="45.90432" lon="6.66569">
        <ele>609</ele>
        <time>2020-08-16T13:23:47Z</time>
      </trkpt>
      <trkpt lat="45.90433" lon="6.66568">
        <ele>609.2</ele>
        <time>2020-08-16T13:23:48Z</time>
      </trkpt>
      <trkpt lat="45.90434" lon="6.66566">
        <ele>609.2</ele>
        <time>2020-08-16T13:23:49Z</time>
      </trkpt>
      <trkpt lat="45.90436" lon="6.66565">
        <ele>609</ele>
        <time>2020-08-16T13:23:50Z</time>
      </trkpt>
      <trkpt lat="45.90438" lon="6.66563">
        <ele>609</ele>
        <time>2020-08-16T13:23:51Z</time>
      </trkpt>
      <trkpt lat="45.90441" lon="6.66562">
        <ele>608.8</ele>
        <time>2020-08-16T13:23:52Z</time>
      </trkpt>
      <trkpt lat="45.90444" lon="6.6656">
        <ele>608.6</ele>
        <time>2020-08-16T13:23:53Z</time>
      </trkpt>
      <trkpt lat="45.90447" lon="6.66558">
        <ele>608.4</ele>
        <time>2020-08-16T13:23:54Z</time>
      </trkpt>
      <trkpt lat="45.90449" lon="6.66557">
        <ele>608.2</ele>
        <time>2020-08-16T13:23:55Z</time>
      </trkpt>
      <trkpt lat="45.90452" lon="6.66554">
        <ele>608</ele>
        <time>2020-08-16T13:23:56Z</time>
      </trkpt>
      <trkpt lat="45.90454" lon="6.66552">
        <ele>607.8</ele>
        <time>2020-08-16T13:23:57Z</time>
      </trkpt>
      <trkpt lat="45.90457" lon="6.66549">
        <ele>607.4</ele>
        <time>2020-08-16T13:23:58Z</time>
      </trkpt>
      <trkpt lat="45.90459" lon="6.66546">
        <ele>607.2</ele>
        <time>2020-08-16T13:23:59Z</time>
      </trkpt>
      <trkpt lat="45.90462" lon="6.66543">
        <ele>607</ele>
        <time>2020-08-16T13:24:00Z</time>
      </trkpt>
      <trkpt lat="45.90465" lon="6.66538">
        <ele>606.6</ele>
        <time>2020-08-16T13:24:01Z</time>
      </trkpt>
      <trkpt lat="45.90468" lon="6.66534">
        <ele>606.2</ele>
        <time>2020-08-16T13:24:02Z</time>
      </trkpt>
      <trkpt lat="45.90471" lon="6.66529">
        <ele>606</ele>
        <time>2020-08-16T13:24:03Z</time>
      </trkpt>
      <trkpt lat="45.90473" lon="6.66525">
        <ele>605.4</ele>
        <time>2020-08-16T13:24:04Z</time>
      </trkpt>
      <trkpt lat="45.90474" lon="6.66524">
        <ele>605.2</ele>
        <time>2020-08-16T13:24:05Z</time>
      </trkpt>
      <trkpt lat="45.90475" lon="6.66523">
        <ele>605.2</ele>
        <time>2020-08-16T13:24:06Z</time>
      </trkpt>
      <trkpt lat="45.90475" lon="6.66522">
        <ele>605</ele>
        <time>2020-08-16T13:24:07Z</time>
      </trkpt>
      <trkpt lat="45.90475" lon="6.66522">
        <ele>605</ele>
        <time>2020-08-16T13:24:08Z</time>
      </trkpt>
      <trkpt lat="45.90475" lon="6.66522">
        <ele>605</ele>
        <time>2020-08-16T13:24:09Z</time>
      </trkpt>
      <trkpt lat="45.90475" lon="6.66522">
        <ele>604.8</ele>
        <time>2020-08-16T13:24:10Z</time>
      </trkpt>
      <trkpt lat="45.90476" lon="6.66521">
        <ele>604.8</ele>
        <time>2020-08-16T13:24:11Z</time>
      </trkpt>
      <trkpt lat="45.90476" lon="6.66521">
        <ele>605</ele>
        <time>2020-08-16T13:24:12Z</time>
      </trkpt>
      <trkpt lat="45.90476" lon="6.66521">
        <ele>604.8</ele>
        <time>2020-08-16T13:24:13Z</time>
      </trkpt>
      <trkpt lat="45.90476" lon="6.6652">
        <ele>604.8</ele>
        <time>2020-08-16T13:24:14Z</time>
      </trkpt>
      <trkpt lat="45.90499" lon="6.66519">
        <ele>600.8</ele>
        <time>2020-08-16T13:24:24Z</time>
      </trkpt>
      <trkpt lat="45.90502" lon="6.66519">
        <ele>600.2</ele>
        <time>2020-08-16T13:24:25Z</time>
      </trkpt>
      <trkpt lat="45.90505" lon="6.6652">
        <ele>599.6</ele>
        <time>2020-08-16T13:24:26Z</time>
      </trkpt>
      <trkpt lat="45.90509" lon="6.66519">
        <ele>599</ele>
        <time>2020-08-16T13:24:27Z</time>
      </trkpt>
      <trkpt lat="45.90512" lon="6.66518">
        <ele>598.6</ele>
        <time>2020-08-16T13:24:28Z</time>
      </trkpt>
      <trkpt lat="45.90514" lon="6.66514">
        <ele>598.2</ele>
        <time>2020-08-16T13:24:29Z</time>
      </trkpt>
      <trkpt lat="45.90517" lon="6.6651">
        <ele>597.8</ele>
        <time>2020-08-16T13:24:30Z</time>
      </trkpt>
      <trkpt lat="45.90519" lon="6.66505">
        <ele>597.6</ele>
        <time>2020-08-16T13:24:31Z</time>
      </trkpt>
      <trkpt lat="45.90522" lon="6.665">
        <ele>597.4</ele>
        <time>2020-08-16T13:24:32Z</time>
      </trkpt>
      <trkpt lat="45.90524" lon="6.66496">
        <ele>597</ele>
        <time>2020-08-16T13:24:33Z</time>
      </trkpt>
      <trkpt lat="45.90527" lon="6.66491">
        <ele>596.8</ele>
        <time>2020-08-16T13:24:34Z</time>
      </trkpt>
      <trkpt lat="45.90529" lon="6.66488">
        <ele>596.2</ele>
        <time>2020-08-16T13:24:35Z</time>
      </trkpt>
      <trkpt lat="45.90532" lon="6.66484">
        <ele>595.8</ele>
        <time>2020-08-16T13:24:36Z</time>
      </trkpt>
      <trkpt lat="45.90535" lon="6.6648">
        <ele>595.2</ele>
        <time>2020-08-16T13:24:37Z</time>
      </trkpt>
      <trkpt lat="45.90539" lon="6.66477">
        <ele>594.8</ele>
        <time>2020-08-16T13:24:38Z</time>
      </trkpt>
      <trkpt lat="45.90542" lon="6.66474">
        <ele>594</ele>
        <time>2020-08-16T13:24:39Z</time>
      </trkpt>
      <trkpt lat="45.90545" lon="6.66471">
        <ele>593.4</ele>
        <time>2020-08-16T13:24:40Z</time>
      </trkpt>
      <trkpt lat="45.90549" lon="6.66468">
        <ele>593</ele>
        <time>2020-08-16T13:24:41Z</time>
      </trkpt>
      <trkpt lat="45.90552" lon="6.66465">
        <ele>592</ele>
        <time>2020-08-16T13:24:42Z</time>
      </trkpt>
      <trkpt lat="45.90555" lon="6.66461">
        <ele>591.4</ele>
        <time>2020-08-16T13:24:43Z</time>
      </trkpt>
      <trkpt lat="45.90558" lon="6.66458">
        <ele>590.4</ele>
        <time>2020-08-16T13:24:44Z</time>
      </trkpt>
      <trkpt lat="45.90562" lon="6.66455">
        <ele>589.8</ele>
        <time>2020-08-16T13:24:45Z</time>
      </trkpt>
      <trkpt lat="45.90565" lon="6.66452">
        <ele>589</ele>
        <time>2020-08-16T13:24:46Z</time>
      </trkpt>
      <trkpt lat="45.90567" lon="6.66449">
        <ele>588.2</ele>
        <time>2020-08-16T13:24:47Z</time>
      </trkpt>
      <trkpt lat="45.9057" lon="6.66446">
        <ele>587.6</ele>
        <time>2020-08-16T13:24:48Z</time>
      </trkpt>
      <trkpt lat="45.90573" lon="6.66444">
        <ele>587.2</ele>
        <time>2020-08-16T13:24:49Z</time>
      </trkpt>
      <trkpt lat="45.90576" lon="6.66441">
        <ele>586.4</ele>
        <time>2020-08-16T13:24:50Z</time>
      </trkpt>
      <trkpt lat="45.90577" lon="6.66439">
        <ele>586</ele>
        <time>2020-08-16T13:24:51Z</time>
      </trkpt>
      <trkpt lat="45.90579" lon="6.66436">
        <ele>585.4</ele>
        <time>2020-08-16T13:24:52Z</time>
      </trkpt>
      <trkpt lat="45.90579" lon="6.66432">
        <ele>584.8</ele>
        <time>2020-08-16T13:24:53Z</time>
      </trkpt>
      <trkpt lat="45.90579" lon="6.66428">
        <ele>584</ele>
        <time>2020-08-16T13:24:54Z</time>
      </trkpt>
      <trkpt lat="45.90579" lon="6.66426">
        <ele>583.6</ele>
        <time>2020-08-16T13:24:55Z</time>
      </trkpt>
      <trkpt lat="45.90579" lon="6.66423">
        <ele>583</ele>
        <time>2020-08-16T13:24:56Z</time>
      </trkpt>
      <trkpt lat="45.90578" lon="6.66418">
        <ele>582.6</ele>
        <time>2020-08-16T13:24:57Z</time>
      </trkpt>
      <trkpt lat="45.90578" lon="6.66414">
        <ele>581.6</ele>
        <time>2020-08-16T13:24:58Z</time>
      </trkpt>
      <trkpt lat="45.90579" lon="6.66411">
        <ele>581</ele>
        <time>2020-08-16T13:24:59Z</time>
      </trkpt>
      <trkpt lat="45.90579" lon="6.66407">
        <ele>580.4</ele>
        <time>2020-08-16T13:25:00Z</time>
      </trkpt>
      <trkpt lat="45.90579" lon="6.66403">
        <ele>579.8</ele>
        <time>2020-08-16T13:25:01Z</time>
      </trkpt>
      <trkpt lat="45.9058" lon="6.66397">
        <ele>579.2</ele>
        <time>2020-08-16T13:25:02Z</time>
      </trkpt>
      <trkpt lat="45.90581" lon="6.66392">
        <ele>578.6</ele>
        <time>2020-08-16T13:25:03Z</time>
      </trkpt>
      <trkpt lat="45.90582" lon="6.66387">
        <ele>578</ele>
        <time>2020-08-16T13:25:04Z</time>
      </trkpt>
      <trkpt lat="45.90584" lon="6.66382">
        <ele>577.4</ele>
        <time>2020-08-16T13:25:05Z</time>
      </trkpt>
      <trkpt lat="45.90585" lon="6.66377">
        <ele>577</ele>
        <time>2020-08-16T13:25:06Z</time>
      </trkpt>
      <trkpt lat="45.90587" lon="6.66371">
        <ele>576.6</ele>
        <time>2020-08-16T13:25:07Z</time>
      </trkpt>
      <trkpt lat="45.90588" lon="6.66364">
        <ele>576.2</ele>
        <time>2020-08-16T13:25:08Z</time>
      </trkpt>
      <trkpt lat="45.90589" lon="6.66358">
        <ele>575.8</ele>
        <time>2020-08-16T13:25:09Z</time>
      </trkpt>
      <trkpt lat="45.9059" lon="6.66353">
        <ele>575.4</ele>
        <time>2020-08-16T13:25:10Z</time>
      </trkpt>
      <trkpt lat="45.90591" lon="6.66348">
        <ele>575</ele>
        <time>2020-08-16T13:25:11Z</time>
      </trkpt>
      <trkpt lat="45.90592" lon="6.66343">
        <ele>574.4</ele>
        <time>2020-08-16T13:25:12Z</time>
      </trkpt>
      <trkpt lat="45.90593" lon="6.66338">
        <ele>574</ele>
        <time>2020-08-16T13:25:13Z</time>
      </trkpt>
      <trkpt lat="45.90594" lon="6.66334">
        <ele>573.8</ele>
        <time>2020-08-16T13:25:14Z</time>
      </trkpt>
      <trkpt lat="45.90595" lon="6.6633">
        <ele>573.4</ele>
        <time>2020-08-16T13:25:15Z</time>
      </trkpt>
      <trkpt lat="45.90596" lon="6.66325">
        <ele>573.2</ele>
        <time>2020-08-16T13:25:16Z</time>
      </trkpt>
      <trkpt lat="45.90597" lon="6.66321">
        <ele>572.6</ele>
        <time>2020-08-16T13:25:17Z</time>
      </trkpt>
      <trkpt lat="45.90598" lon="6.66317">
        <ele>572.2</ele>
        <time>2020-08-16T13:25:18Z</time>
      </trkpt>
      <trkpt lat="45.90599" lon="6.66313">
        <ele>571.8</ele>
        <time>2020-08-16T13:25:19Z</time>
      </trkpt>
      <trkpt lat="45.90599" lon="6.66309">
        <ele>571.6</ele>
        <time>2020-08-16T13:25:20Z</time>
      </trkpt>
      <trkpt lat="45.906" lon="6.66305">
        <ele>571.2</ele>
        <time>2020-08-16T13:25:21Z</time>
      </trkpt>
      <trkpt lat="45.90602" lon="6.66301">
        <ele>570.8</ele>
        <time>2020-08-16T13:25:22Z</time>
      </trkpt>
      <trkpt lat="45.90605" lon="6.66299">
        <ele>570.4</ele>
        <time>2020-08-16T13:25:23Z</time>
      </trkpt>
      <trkpt lat="45.90607" lon="6.66298">
        <ele>569.8</ele>
        <time>2020-08-16T13:25:24Z</time>
      </trkpt>
      <trkpt lat="45.9061" lon="6.66298">
        <ele>569.4</ele>
        <time>2020-08-16T13:25:25Z</time>
      </trkpt>
      <trkpt lat="45.90613" lon="6.66299">
        <ele>569</ele>
        <time>2020-08-16T13:25:26Z</time>
      </trkpt>
      <trkpt lat="45.90615" lon="6.66301">
        <ele>568.4</ele>
        <time>2020-08-16T13:25:27Z</time>
      </trkpt>
      <trkpt lat="45.90618" lon="6.66302">
        <ele>567.8</ele>
        <time>2020-08-16T13:25:28Z</time>
      </trkpt>
      <trkpt lat="45.90621" lon="6.66304">
        <ele>567.2</ele>
        <time>2020-08-16T13:25:29Z</time>
      </trkpt>
      <trkpt lat="45.90624" lon="6.66305">
        <ele>566.6</ele>
        <time>2020-08-16T13:25:30Z</time>
      </trkpt>
      <trkpt lat="45.90626" lon="6.66306">
        <ele>566</ele>
        <time>2020-08-16T13:25:31Z</time>
      </trkpt>
      <trkpt lat="45.90629" lon="6.66307">
        <ele>565.6</ele>
        <time>2020-08-16T13:25:32Z</time>
      </trkpt>
      <trkpt lat="45.90631" lon="6.66308">
        <ele>565.2</ele>
        <time>2020-08-16T13:25:33Z</time>
      </trkpt>
      <trkpt lat="45.90634" lon="6.66308">
        <ele>564.8</ele>
        <time>2020-08-16T13:25:34Z</time>
      </trkpt>
      <trkpt lat="45.90637" lon="6.66309">
        <ele>564.2</ele>
        <time>2020-08-16T13:25:35Z</time>
      </trkpt>
      <trkpt lat="45.90639" lon="6.66309">
        <ele>563.8</ele>
        <time>2020-08-16T13:25:36Z</time>
      </trkpt>
      <trkpt lat="45.90642" lon="6.66309">
        <ele>563.4</ele>
        <time>2020-08-16T13:25:37Z</time>
      </trkpt>
      <trkpt lat="45.90644" lon="6.66308">
        <ele>563</ele>
        <time>2020-08-16T13:25:38Z</time>
      </trkpt>
      <trkpt lat="45.90647" lon="6.66306">
        <ele>563</ele>
        <time>2020-08-16T13:25:39Z</time>
      </trkpt>
      <trkpt lat="45.90649" lon="6.66303">
        <ele>562.8</ele>
        <time>2020-08-16T13:25:40Z</time>
      </trkpt>
      <trkpt lat="45.9065" lon="6.663">
        <ele>562.6</ele>
        <time>2020-08-16T13:25:41Z</time>
      </trkpt>
      <trkpt lat="45.90651" lon="6.66297">
        <ele>562.4</ele>
        <time>2020-08-16T13:25:42Z</time>
      </trkpt>
      <trkpt lat="45.90652" lon="6.66293">
        <ele>562.4</ele>
        <time>2020-08-16T13:25:43Z</time>
      </trkpt>
      <trkpt lat="45.90652" lon="6.6629">
        <ele>562.2</ele>
        <time>2020-08-16T13:25:44Z</time>
      </trkpt>
      <trkpt lat="45.90652" lon="6.66287">
        <ele>562</ele>
        <time>2020-08-16T13:25:45Z</time>
      </trkpt>
      <trkpt lat="45.90653" lon="6.66284">
        <ele>562</ele>
        <time>2020-08-16T13:25:46Z</time>
      </trkpt>
      <trkpt lat="45.90653" lon="6.6628">
        <ele>562</ele>
        <time>2020-08-16T13:25:47Z</time>
      </trkpt>
      <trkpt lat="45.90654" lon="6.66277">
        <ele>562</ele>
        <time>2020-08-16T13:25:48Z</time>
      </trkpt>
      <trkpt lat="45.90654" lon="6.66274">
        <ele>562.2</ele>
        <time>2020-08-16T13:25:49Z</time>
      </trkpt>
      <trkpt lat="45.90654" lon="6.66271">
        <ele>562.2</ele>
        <time>2020-08-16T13:25:50Z</time>
      </trkpt>
      <trkpt lat="45.90655" lon="6.66268">
        <ele>562.2</ele>
        <time>2020-08-16T13:25:51Z</time>
      </trkpt>
      <trkpt lat="45.90655" lon="6.66265">
        <ele>562</ele>
        <time>2020-08-16T13:25:52Z</time>
      </trkpt>
      <trkpt lat="45.90656" lon="6.66262">
        <ele>562.2</ele>
        <time>2020-08-16T13:25:53Z</time>
      </trkpt>
      <trkpt lat="45.90656" lon="6.66259">
        <ele>562</ele>
        <time>2020-08-16T13:25:54Z</time>
      </trkpt>
      <trkpt lat="45.90656" lon="6.66255">
        <ele>562</ele>
        <time>2020-08-16T13:25:55Z</time>
      </trkpt>
      <trkpt lat="45.90656" lon="6.66252">
        <ele>562.2</ele>
        <time>2020-08-16T13:25:56Z</time>
      </trkpt>
      <trkpt lat="45.90656" lon="6.66248">
        <ele>562.2</ele>
        <time>2020-08-16T13:25:57Z</time>
      </trkpt>
      <trkpt lat="45.90657" lon="6.66245">
        <ele>562.2</ele>
        <time>2020-08-16T13:25:58Z</time>
      </trkpt>
      <trkpt lat="45.90657" lon="6.66242">
        <ele>562.2</ele>
        <time>2020-08-16T13:25:59Z</time>
      </trkpt>
      <trkpt lat="45.90657" lon="6.66239">
        <ele>562.2</ele>
        <time>2020-08-16T13:26:00Z</time>
      </trkpt>
      <trkpt lat="45.90657" lon="6.66236">
        <ele>562.2</ele>
        <time>2020-08-16T13:26:01Z</time>
      </trkpt>
      <trkpt lat="45.90657" lon="6.66233">
        <ele>562.2</ele>
        <time>2020-08-16T13:26:02Z</time>
      </trkpt>
      <trkpt lat="45.90657" lon="6.66231">
        <ele>562.2</ele>
        <time>2020-08-16T13:26:03Z</time>
      </trkpt>
      <trkpt lat="45.90657" lon="6.66228">
        <ele>562.2</ele>
        <time>2020-08-16T13:26:04Z</time>
      </trkpt>
      <trkpt lat="45.90658" lon="6.66225">
        <ele>562.2</ele>
        <time>2020-08-16T13:26:05Z</time>
      </trkpt>
      <trkpt lat="45.90658" lon="6.66223">
        <ele>562.2</ele>
        <time>2020-08-16T13:26:06Z</time>
      </trkpt>
      <trkpt lat="45.90658" lon="6.66219">
        <ele>562.2</ele>
        <time>2020-08-16T13:26:07Z</time>
      </trkpt>
      <trkpt lat="45.90658" lon="6.66216">
        <ele>562.4</ele>
        <time>2020-08-16T13:26:08Z</time>
      </trkpt>
      <trkpt lat="45.90659" lon="6.66213">
        <ele>562.4</ele>
        <time>2020-08-16T13:26:09Z</time>
      </trkpt>
      <trkpt lat="45.90659" lon="6.6621">
        <ele>562.4</ele>
        <time>2020-08-16T13:26:10Z</time>
      </trkpt>
      <trkpt lat="45.9066" lon="6.66207">
        <ele>562.6</ele>
        <time>2020-08-16T13:26:11Z</time>
      </trkpt>
      <trkpt lat="45.9066" lon="6.66203">
        <ele>562.6</ele>
        <time>2020-08-16T13:26:12Z</time>
      </trkpt>
      <trkpt lat="45.9066" lon="6.662">
        <ele>562.6</ele>
        <time>2020-08-16T13:26:13Z</time>
      </trkpt>
      <trkpt lat="45.9066" lon="6.66195">
        <ele>563</ele>
        <time>2020-08-16T13:26:14Z</time>
      </trkpt>
      <trkpt lat="45.90661" lon="6.66192">
        <ele>563.2</ele>
        <time>2020-08-16T13:26:15Z</time>
      </trkpt>
      <trkpt lat="45.90661" lon="6.66188">
        <ele>563.4</ele>
        <time>2020-08-16T13:26:16Z</time>
      </trkpt>
      <trkpt lat="45.90662" lon="6.66184">
        <ele>563.6</ele>
        <time>2020-08-16T13:26:17Z</time>
      </trkpt>
      <trkpt lat="45.90663" lon="6.6618">
        <ele>563.6</ele>
        <time>2020-08-16T13:26:18Z</time>
      </trkpt>
      <trkpt lat="45.90664" lon="6.66176">
        <ele>563.8</ele>
        <time>2020-08-16T13:26:19Z</time>
      </trkpt>
      <trkpt lat="45.90665" lon="6.66172">
        <ele>564</ele>
        <time>2020-08-16T13:26:20Z</time>
      </trkpt>
      <trkpt lat="45.90667" lon="6.66169">
        <ele>564</ele>
        <time>2020-08-16T13:26:21Z</time>
      </trkpt>
      <trkpt lat="45.9067" lon="6.66166">
        <ele>564.2</ele>
        <time>2020-08-16T13:26:22Z</time>
      </trkpt>
      <trkpt lat="45.90672" lon="6.66163">
        <ele>564.2</ele>
        <time>2020-08-16T13:26:23Z</time>
      </trkpt>
      <trkpt lat="45.90675" lon="6.6616">
        <ele>564.4</ele>
        <time>2020-08-16T13:26:24Z</time>
      </trkpt>
      <trkpt lat="45.90677" lon="6.66157">
        <ele>564.4</ele>
        <time>2020-08-16T13:26:25Z</time>
      </trkpt>
      <trkpt lat="45.9068" lon="6.66154">
        <ele>564.4</ele>
        <time>2020-08-16T13:26:26Z</time>
      </trkpt>
      <trkpt lat="45.90682" lon="6.6615">
        <ele>564.4</ele>
        <time>2020-08-16T13:26:27Z</time>
      </trkpt>
      <trkpt lat="45.90685" lon="6.66146">
        <ele>564.4</ele>
        <time>2020-08-16T13:26:28Z</time>
      </trkpt>
      <trkpt lat="45.90687" lon="6.66143">
        <ele>564.6</ele>
        <time>2020-08-16T13:26:29Z</time>
      </trkpt>
      <trkpt lat="45.90689" lon="6.66139">
        <ele>564.8</ele>
        <time>2020-08-16T13:26:30Z</time>
      </trkpt>
      <trkpt lat="45.90692" lon="6.66135">
        <ele>564.8</ele>
        <time>2020-08-16T13:26:31Z</time>
      </trkpt>
      <trkpt lat="45.90694" lon="6.6613">
        <ele>564.8</ele>
        <time>2020-08-16T13:26:32Z</time>
      </trkpt>
      <trkpt lat="45.90697" lon="6.66125">
        <ele>564.8</ele>
        <time>2020-08-16T13:26:33Z</time>
      </trkpt>
      <trkpt lat="45.90699" lon="6.6612">
        <ele>564.6</ele>
        <time>2020-08-16T13:26:34Z</time>
      </trkpt>
      <trkpt lat="45.90703" lon="6.66115">
        <ele>564.6</ele>
        <time>2020-08-16T13:26:35Z</time>
      </trkpt>
      <trkpt lat="45.90706" lon="6.6611">
        <ele>564.6</ele>
        <time>2020-08-16T13:26:36Z</time>
      </trkpt>
      <trkpt lat="45.90708" lon="6.66104">
        <ele>564.6</ele>
        <time>2020-08-16T13:26:37Z</time>
      </trkpt>
      <trkpt lat="45.90711" lon="6.66099">
        <ele>564.6</ele>
        <time>2020-08-16T13:26:38Z</time>
      </trkpt>
      <trkpt lat="45.90714" lon="6.66094">
        <ele>564.6</ele>
        <time>2020-08-16T13:26:39Z</time>
      </trkpt>
      <trkpt lat="45.90717" lon="6.66089">
        <ele>564.8</ele>
        <time>2020-08-16T13:26:40Z</time>
      </trkpt>
      <trkpt lat="45.90719" lon="6.66084">
        <ele>564.8</ele>
        <time>2020-08-16T13:26:41Z</time>
      </trkpt>
      <trkpt lat="45.90722" lon="6.66078">
        <ele>565</ele>
        <time>2020-08-16T13:26:42Z</time>
      </trkpt>
      <trkpt lat="45.90724" lon="6.66073">
        <ele>565</ele>
        <time>2020-08-16T13:26:43Z</time>
      </trkpt>
      <trkpt lat="45.90727" lon="6.66067">
        <ele>565</ele>
        <time>2020-08-16T13:26:44Z</time>
      </trkpt>
      <trkpt lat="45.90729" lon="6.66062">
        <ele>565</ele>
        <time>2020-08-16T13:26:45Z</time>
      </trkpt>
      <trkpt lat="45.90731" lon="6.66057">
        <ele>565</ele>
        <time>2020-08-16T13:26:46Z</time>
      </trkpt>
      <trkpt lat="45.90734" lon="6.66052">
        <ele>565</ele>
        <time>2020-08-16T13:26:47Z</time>
      </trkpt>
      <trkpt lat="45.90737" lon="6.66047">
        <ele>565.4</ele>
        <time>2020-08-16T13:26:48Z</time>
      </trkpt>
      <trkpt lat="45.90739" lon="6.66043">
        <ele>565.6</ele>
        <time>2020-08-16T13:26:49Z</time>
      </trkpt>
      <trkpt lat="45.90742" lon="6.66038">
        <ele>565.6</ele>
        <time>2020-08-16T13:26:50Z</time>
      </trkpt>
      <trkpt lat="45.90744" lon="6.66034">
        <ele>565.6</ele>
        <time>2020-08-16T13:26:51Z</time>
      </trkpt>
      <trkpt lat="45.90747" lon="6.6603">
        <ele>565.8</ele>
        <time>2020-08-16T13:26:52Z</time>
      </trkpt>
      <trkpt lat="45.90749" lon="6.66027">
        <ele>566</ele>
        <time>2020-08-16T13:26:53Z</time>
      </trkpt>
      <trkpt lat="45.90751" lon="6.66024">
        <ele>566.2</ele>
        <time>2020-08-16T13:26:54Z</time>
      </trkpt>
      <trkpt lat="45.90754" lon="6.66022">
        <ele>566.6</ele>
        <time>2020-08-16T13:26:55Z</time>
      </trkpt>
      <trkpt lat="45.90755" lon="6.66021">
        <ele>566.6</ele>
        <time>2020-08-16T13:26:56Z</time>
      </trkpt>
      <trkpt lat="45.90757" lon="6.6602">
        <ele>567</ele>
        <time>2020-08-16T13:26:57Z</time>
      </trkpt>
      <trkpt lat="45.90758" lon="6.66019">
        <ele>567.2</ele>
        <time>2020-08-16T13:26:58Z</time>
      </trkpt>
      <trkpt lat="45.9076" lon="6.66018">
        <ele>567.2</ele>
        <time>2020-08-16T13:26:59Z</time>
      </trkpt>
      <trkpt lat="45.90761" lon="6.66017">
        <ele>567.4</ele>
        <time>2020-08-16T13:27:00Z</time>
      </trkpt>
      <trkpt lat="45.90762" lon="6.66015">
        <ele>567.6</ele>
        <time>2020-08-16T13:27:01Z</time>
      </trkpt>
      <trkpt lat="45.90764" lon="6.66014">
        <ele>567.8</ele>
        <time>2020-08-16T13:27:02Z</time>
      </trkpt>
      <trkpt lat="45.90765" lon="6.66012">
        <ele>568</ele>
        <time>2020-08-16T13:27:03Z</time>
      </trkpt>
      <trkpt lat="45.90767" lon="6.66011">
        <ele>568.2</ele>
        <time>2020-08-16T13:27:04Z</time>
      </trkpt>
      <trkpt lat="45.90768" lon="6.66009">
        <ele>568.4</ele>
        <time>2020-08-16T13:27:05Z</time>
      </trkpt>
      <trkpt lat="45.9077" lon="6.66007">
        <ele>568.8</ele>
        <time>2020-08-16T13:27:06Z</time>
      </trkpt>
      <trkpt lat="45.90772" lon="6.66005">
        <ele>569</ele>
        <time>2020-08-16T13:27:07Z</time>
      </trkpt>
      <trkpt lat="45.90774" lon="6.66003">
        <ele>569</ele>
        <time>2020-08-16T13:27:08Z</time>
      </trkpt>
      <trkpt lat="45.90776" lon="6.66001">
        <ele>569.2</ele>
        <time>2020-08-16T13:27:09Z</time>
      </trkpt>
      <trkpt lat="45.90778" lon="6.66">
        <ele>569.4</ele>
        <time>2020-08-16T13:27:10Z</time>
      </trkpt>
      <trkpt lat="45.90781" lon="6.65998">
        <ele>569.4</ele>
        <time>2020-08-16T13:27:11Z</time>
      </trkpt>
      <trkpt lat="45.90783" lon="6.65996">
        <ele>569.6</ele>
        <time>2020-08-16T13:27:12Z</time>
      </trkpt>
      <trkpt lat="45.90786" lon="6.65995">
        <ele>569.6</ele>
        <time>2020-08-16T13:27:13Z</time>
      </trkpt>
      <trkpt lat="45.90788" lon="6.65993">
        <ele>569.8</ele>
        <time>2020-08-16T13:27:14Z</time>
      </trkpt>
      <trkpt lat="45.90791" lon="6.65992">
        <ele>570</ele>
        <time>2020-08-16T13:27:15Z</time>
      </trkpt>
      <trkpt lat="45.90793" lon="6.6599">
        <ele>570.2</ele>
        <time>2020-08-16T13:27:16Z</time>
      </trkpt>
      <trkpt lat="45.90795" lon="6.65988">
        <ele>570.4</ele>
        <time>2020-08-16T13:27:17Z</time>
      </trkpt>
      <trkpt lat="45.90797" lon="6.65987">
        <ele>570.6</ele>
        <time>2020-08-16T13:27:18Z</time>
      </trkpt>
      <trkpt lat="45.90799" lon="6.65986">
        <ele>570.8</ele>
        <time>2020-08-16T13:27:19Z</time>
      </trkpt>
      <trkpt lat="45.90801" lon="6.65984">
        <ele>571</ele>
        <time>2020-08-16T13:27:20Z</time>
      </trkpt>
      <trkpt lat="45.90803" lon="6.65983">
        <ele>571.2</ele>
        <time>2020-08-16T13:27:21Z</time>
      </trkpt>
      <trkpt lat="45.90805" lon="6.65981">
        <ele>571.6</ele>
        <time>2020-08-16T13:27:22Z</time>
      </trkpt>
      <trkpt lat="45.90807" lon="6.65979">
        <ele>571.8</ele>
        <time>2020-08-16T13:27:23Z</time>
      </trkpt>
      <trkpt lat="45.90808" lon="6.65978">
        <ele>572</ele>
        <time>2020-08-16T13:27:24Z</time>
      </trkpt>
      <trkpt lat="45.9081" lon="6.65976">
        <ele>572.2</ele>
        <time>2020-08-16T13:27:25Z</time>
      </trkpt>
      <trkpt lat="45.90812" lon="6.65974">
        <ele>572.2</ele>
        <time>2020-08-16T13:27:26Z</time>
      </trkpt>
      <trkpt lat="45.90814" lon="6.65973">
        <ele>572.4</ele>
        <time>2020-08-16T13:27:27Z</time>
      </trkpt>
      <trkpt lat="45.90816" lon="6.65971">
        <ele>572.4</ele>
        <time>2020-08-16T13:27:28Z</time>
      </trkpt>
      <trkpt lat="45.90818" lon="6.65969">
        <ele>572.6</ele>
        <time>2020-08-16T13:27:29Z</time>
      </trkpt>
      <trkpt lat="45.9082" lon="6.65967">
        <ele>572.8</ele>
        <time>2020-08-16T13:27:30Z</time>
      </trkpt>
      <trkpt lat="45.90822" lon="6.65965">
        <ele>572.8</ele>
        <time>2020-08-16T13:27:31Z</time>
      </trkpt>
      <trkpt lat="45.90824" lon="6.65962">
        <ele>573</ele>
        <time>2020-08-16T13:27:32Z</time>
      </trkpt>
      <trkpt lat="45.90826" lon="6.6596">
        <ele>573.2</ele>
        <time>2020-08-16T13:27:33Z</time>
      </trkpt>
      <trkpt lat="45.90828" lon="6.65957">
        <ele>573.2</ele>
        <time>2020-08-16T13:27:34Z</time>
      </trkpt>
      <trkpt lat="45.90829" lon="6.65954">
        <ele>573.2</ele>
        <time>2020-08-16T13:27:35Z</time>
      </trkpt>
      <trkpt lat="45.90831" lon="6.65951">
        <ele>573.4</ele>
        <time>2020-08-16T13:27:36Z</time>
      </trkpt>
      <trkpt lat="45.90833" lon="6.65948">
        <ele>573.4</ele>
        <time>2020-08-16T13:27:37Z</time>
      </trkpt>
      <trkpt lat="45.90835" lon="6.65944">
        <ele>573.4</ele>
        <time>2020-08-16T13:27:38Z</time>
      </trkpt>
      <trkpt lat="45.90837" lon="6.65941">
        <ele>573.6</ele>
        <time>2020-08-16T13:27:39Z</time>
      </trkpt>
      <trkpt lat="45.90839" lon="6.65938">
        <ele>573.6</ele>
        <time>2020-08-16T13:27:40Z</time>
      </trkpt>
      <trkpt lat="45.90841" lon="6.65934">
        <ele>573.6</ele>
        <time>2020-08-16T13:27:41Z</time>
      </trkpt>
      <trkpt lat="45.90843" lon="6.65931">
        <ele>573.6</ele>
        <time>2020-08-16T13:27:42Z</time>
      </trkpt>
      <trkpt lat="45.90845" lon="6.65928">
        <ele>573.8</ele>
        <time>2020-08-16T13:27:43Z</time>
      </trkpt>
      <trkpt lat="45.90846" lon="6.65924">
        <ele>573.8</ele>
        <time>2020-08-16T13:27:44Z</time>
      </trkpt>
      <trkpt lat="45.90848" lon="6.65921">
        <ele>573.8</ele>
        <time>2020-08-16T13:27:45Z</time>
      </trkpt>
      <trkpt lat="45.9085" lon="6.65917">
        <ele>573.8</ele>
        <time>2020-08-16T13:27:46Z</time>
      </trkpt>
      <trkpt lat="45.90851" lon="6.65913">
        <ele>573.8</ele>
        <time>2020-08-16T13:27:47Z</time>
      </trkpt>
      <trkpt lat="45.90852" lon="6.65909">
        <ele>574</ele>
        <time>2020-08-16T13:27:48Z</time>
      </trkpt>
      <trkpt lat="45.90853" lon="6.65906">
        <ele>574</ele>
        <time>2020-08-16T13:27:49Z</time>
      </trkpt>
      <trkpt lat="45.90853" lon="6.65902">
        <ele>574.4</ele>
        <time>2020-08-16T13:27:50Z</time>
      </trkpt>
      <trkpt lat="45.90854" lon="6.65898">
        <ele>574.6</ele>
        <time>2020-08-16T13:27:51Z</time>
      </trkpt>
      <trkpt lat="45.90856" lon="6.65895">
        <ele>574.8</ele>
        <time>2020-08-16T13:27:52Z</time>
      </trkpt>
      <trkpt lat="45.90857" lon="6.65891">
        <ele>575</ele>
        <time>2020-08-16T13:27:53Z</time>
      </trkpt>
      <trkpt lat="45.90858" lon="6.65888">
        <ele>575.2</ele>
        <time>2020-08-16T13:27:54Z</time>
      </trkpt>
      <trkpt lat="45.9086" lon="6.65885">
        <ele>575.4</ele>
        <time>2020-08-16T13:27:55Z</time>
      </trkpt>
      <trkpt lat="45.9086" lon="6.65882">
        <ele>575.6</ele>
        <time>2020-08-16T13:27:56Z</time>
      </trkpt>
      <trkpt lat="45.90861" lon="6.65878">
        <ele>575.8</ele>
        <time>2020-08-16T13:27:57Z</time>
      </trkpt>
      <trkpt lat="45.90862" lon="6.65875">
        <ele>576</ele>
        <time>2020-08-16T13:27:58Z</time>
      </trkpt>
      <trkpt lat="45.90863" lon="6.65873">
        <ele>576.4</ele>
        <time>2020-08-16T13:27:59Z</time>
      </trkpt>
      <trkpt lat="45.90864" lon="6.6587">
        <ele>576.4</ele>
        <time>2020-08-16T13:28:00Z</time>
      </trkpt>
      <trkpt lat="45.90865" lon="6.65867">
        <ele>576.6</ele>
        <time>2020-08-16T13:28:01Z</time>
      </trkpt>
      <trkpt lat="45.90866" lon="6.65865">
        <ele>576.8</ele>
        <time>2020-08-16T13:28:02Z</time>
      </trkpt>
      <trkpt lat="45.90866" lon="6.65862">
        <ele>577</ele>
        <time>2020-08-16T13:28:03Z</time>
      </trkpt>
      <trkpt lat="45.90867" lon="6.6586">
        <ele>577.4</ele>
        <time>2020-08-16T13:28:04Z</time>
      </trkpt>
      <trkpt lat="45.90867" lon="6.65857">
        <ele>577.6</ele>
        <time>2020-08-16T13:28:05Z</time>
      </trkpt>
      <trkpt lat="45.90868" lon="6.65854">
        <ele>577.8</ele>
        <time>2020-08-16T13:28:06Z</time>
      </trkpt>
      <trkpt lat="45.90868" lon="6.65852">
        <ele>577.8</ele>
        <time>2020-08-16T13:28:07Z</time>
      </trkpt>
      <trkpt lat="45.90869" lon="6.65849">
        <ele>578</ele>
        <time>2020-08-16T13:28:08Z</time>
      </trkpt>
      <trkpt lat="45.90869" lon="6.65846">
        <ele>578.2</ele>
        <time>2020-08-16T13:28:09Z</time>
      </trkpt>
      <trkpt lat="45.90869" lon="6.65844">
        <ele>578.4</ele>
        <time>2020-08-16T13:28:10Z</time>
      </trkpt>
      <trkpt lat="45.90869" lon="6.65841">
        <ele>578.6</ele>
        <time>2020-08-16T13:28:11Z</time>
      </trkpt>
      <trkpt lat="45.9087" lon="6.65839">
        <ele>578.8</ele>
        <time>2020-08-16T13:28:12Z</time>
      </trkpt>
      <trkpt lat="45.9087" lon="6.65836">
        <ele>579</ele>
        <time>2020-08-16T13:28:13Z</time>
      </trkpt>
      <trkpt lat="45.9087" lon="6.65834">
        <ele>579</ele>
        <time>2020-08-16T13:28:14Z</time>
      </trkpt>
      <trkpt lat="45.90869" lon="6.65831">
        <ele>579.2</ele>
        <time>2020-08-16T13:28:15Z</time>
      </trkpt>
      <trkpt lat="45.90869" lon="6.65829">
        <ele>579.4</ele>
        <time>2020-08-16T13:28:16Z</time>
      </trkpt>
      <trkpt lat="45.9087" lon="6.65826">
        <ele>579.6</ele>
        <time>2020-08-16T13:28:17Z</time>
      </trkpt>
      <trkpt lat="45.90871" lon="6.65824">
        <ele>579.8</ele>
        <time>2020-08-16T13:28:18Z</time>
      </trkpt>
      <trkpt lat="45.90871" lon="6.65821">
        <ele>579.8</ele>
        <time>2020-08-16T13:28:19Z</time>
      </trkpt>
      <trkpt lat="45.90872" lon="6.65818">
        <ele>579.8</ele>
        <time>2020-08-16T13:28:20Z</time>
      </trkpt>
      <trkpt lat="45.90873" lon="6.65816">
        <ele>579.8</ele>
        <time>2020-08-16T13:28:21Z</time>
      </trkpt>
      <trkpt lat="45.90875" lon="6.65812">
        <ele>579.6</ele>
        <time>2020-08-16T13:28:22Z</time>
      </trkpt>
      <trkpt lat="45.90877" lon="6.65809">
        <ele>579.2</ele>
        <time>2020-08-16T13:28:23Z</time>
      </trkpt>
      <trkpt lat="45.9088" lon="6.65805">
        <ele>579</ele>
        <time>2020-08-16T13:28:24Z</time>
      </trkpt>
      <trkpt lat="45.90882" lon="6.658">
        <ele>578.6</ele>
        <time>2020-08-16T13:28:25Z</time>
      </trkpt>
      <trkpt lat="45.90885" lon="6.65795">
        <ele>578.4</ele>
        <time>2020-08-16T13:28:26Z</time>
      </trkpt>
      <trkpt lat="45.90887" lon="6.65791">
        <ele>578</ele>
        <time>2020-08-16T13:28:27Z</time>
      </trkpt>
      <trkpt lat="45.9089" lon="6.65787">
        <ele>577.8</ele>
        <time>2020-08-16T13:28:28Z</time>
      </trkpt>
      <trkpt lat="45.90894" lon="6.65782">
        <ele>577.4</ele>
        <time>2020-08-16T13:28:29Z</time>
      </trkpt>
      <trkpt lat="45.90897" lon="6.65777">
        <ele>576.6</ele>
        <time>2020-08-16T13:28:30Z</time>
      </trkpt>
      <trkpt lat="45.90901" lon="6.65772">
        <ele>576.2</ele>
        <time>2020-08-16T13:28:31Z</time>
      </trkpt>
      <trkpt lat="45.90904" lon="6.65767">
        <ele>575.6</ele>
        <time>2020-08-16T13:28:32Z</time>
      </trkpt>
      <trkpt lat="45.90908" lon="6.65762">
        <ele>575.4</ele>
        <time>2020-08-16T13:28:33Z</time>
      </trkpt>
      <trkpt lat="45.90912" lon="6.65758">
        <ele>574.8</ele>
        <time>2020-08-16T13:28:34Z</time>
      </trkpt>
      <trkpt lat="45.90916" lon="6.65753">
        <ele>574.4</ele>
        <time>2020-08-16T13:28:35Z</time>
      </trkpt>
      <trkpt lat="45.90921" lon="6.65748">
        <ele>574</ele>
        <time>2020-08-16T13:28:36Z</time>
      </trkpt>
      <trkpt lat="45.90926" lon="6.65743">
        <ele>573.6</ele>
        <time>2020-08-16T13:28:37Z</time>
      </trkpt>
      <trkpt lat="45.90931" lon="6.65738">
        <ele>573</ele>
        <time>2020-08-16T13:28:38Z</time>
      </trkpt>
      <trkpt lat="45.90935" lon="6.65732">
        <ele>572.6</ele>
        <time>2020-08-16T13:28:39Z</time>
      </trkpt>
      <trkpt lat="45.90939" lon="6.65725">
        <ele>571.8</ele>
        <time>2020-08-16T13:28:40Z</time>
      </trkpt>
      <trkpt lat="45.90943" lon="6.65717">
        <ele>571.6</ele>
        <time>2020-08-16T13:28:41Z</time>
      </trkpt>
      <trkpt lat="45.90947" lon="6.65709">
        <ele>570.8</ele>
        <time>2020-08-16T13:28:42Z</time>
      </trkpt>
      <trkpt lat="45.9095" lon="6.65699">
        <ele>570</ele>
        <time>2020-08-16T13:28:43Z</time>
      </trkpt>
      <trkpt lat="45.90954" lon="6.6569">
        <ele>569.6</ele>
        <time>2020-08-16T13:28:44Z</time>
      </trkpt>
      <trkpt lat="45.90958" lon="6.65679">
        <ele>569.2</ele>
        <time>2020-08-16T13:28:45Z</time>
      </trkpt>
      <trkpt lat="45.9096" lon="6.65669">
        <ele>568.8</ele>
        <time>2020-08-16T13:28:46Z</time>
      </trkpt>
      <trkpt lat="45.90961" lon="6.6566">
        <ele>568.4</ele>
        <time>2020-08-16T13:28:47Z</time>
      </trkpt>
      <trkpt lat="45.90962" lon="6.6565">
        <ele>568.4</ele>
        <time>2020-08-16T13:28:48Z</time>
      </trkpt>
      <trkpt lat="45.90963" lon="6.6564">
        <ele>568</ele>
        <time>2020-08-16T13:28:49Z</time>
      </trkpt>
      <trkpt lat="45.90964" lon="6.6563">
        <ele>568</ele>
        <time>2020-08-16T13:28:50Z</time>
      </trkpt>
      <trkpt lat="45.90964" lon="6.6562">
        <ele>567.6</ele>
        <time>2020-08-16T13:28:51Z</time>
      </trkpt>
      <trkpt lat="45.90966" lon="6.65611">
        <ele>567.4</ele>
        <time>2020-08-16T13:28:52Z</time>
      </trkpt>
      <trkpt lat="45.90967" lon="6.65602">
        <ele>567.2</ele>
        <time>2020-08-16T13:28:53Z</time>
      </trkpt>
      <trkpt lat="45.9097" lon="6.65594">
        <ele>567.2</ele>
        <time>2020-08-16T13:28:54Z</time>
      </trkpt>
      <trkpt lat="45.90973" lon="6.65586">
        <ele>567.2</ele>
        <time>2020-08-16T13:28:55Z</time>
      </trkpt>
      <trkpt lat="45.90977" lon="6.6558">
        <ele>567.4</ele>
        <time>2020-08-16T13:28:56Z</time>
      </trkpt>
      <trkpt lat="45.9098" lon="6.65574">
        <ele>567.4</ele>
        <time>2020-08-16T13:28:57Z</time>
      </trkpt>
      <trkpt lat="45.90983" lon="6.65568">
        <ele>567.4</ele>
        <time>2020-08-16T13:28:58Z</time>
      </trkpt>
      <trkpt lat="45.90986" lon="6.65561">
        <ele>567.2</ele>
        <time>2020-08-16T13:28:59Z</time>
      </trkpt>
      <trkpt lat="45.9099" lon="6.65555">
        <ele>567</ele>
        <time>2020-08-16T13:29:00Z</time>
      </trkpt>
      <trkpt lat="45.90994" lon="6.65549">
        <ele>566.6</ele>
        <time>2020-08-16T13:29:01Z</time>
      </trkpt>
      <trkpt lat="45.90998" lon="6.65542">
        <ele>566.2</ele>
        <time>2020-08-16T13:29:02Z</time>
      </trkpt>
      <trkpt lat="45.91002" lon="6.65535">
        <ele>565.8</ele>
        <time>2020-08-16T13:29:03Z</time>
      </trkpt>
      <trkpt lat="45.91006" lon="6.65527">
        <ele>565.6</ele>
        <time>2020-08-16T13:29:04Z</time>
      </trkpt>
      <trkpt lat="45.9101" lon="6.65519">
        <ele>565.2</ele>
        <time>2020-08-16T13:29:05Z</time>
      </trkpt>
      <trkpt lat="45.91014" lon="6.65511">
        <ele>564.8</ele>
        <time>2020-08-16T13:29:06Z</time>
      </trkpt>
      <trkpt lat="45.91018" lon="6.65503">
        <ele>564.6</ele>
        <time>2020-08-16T13:29:07Z</time>
      </trkpt>
      <trkpt lat="45.91022" lon="6.65494">
        <ele>564.4</ele>
        <time>2020-08-16T13:29:08Z</time>
      </trkpt>
      <trkpt lat="45.91026" lon="6.65487">
        <ele>564.4</ele>
        <time>2020-08-16T13:29:09Z</time>
      </trkpt>
      <trkpt lat="45.91029" lon="6.6548">
        <ele>564.2</ele>
        <time>2020-08-16T13:29:10Z</time>
      </trkpt>
      <trkpt lat="45.91032" lon="6.65473">
        <ele>564.2</ele>
        <time>2020-08-16T13:29:11Z</time>
      </trkpt>
      <trkpt lat="45.91035" lon="6.65466">
        <ele>564</ele>
        <time>2020-08-16T13:29:12Z</time>
      </trkpt>
      <trkpt lat="45.91038" lon="6.6546">
        <ele>564</ele>
        <time>2020-08-16T13:29:13Z</time>
      </trkpt>
      <trkpt lat="45.91042" lon="6.65455">
        <ele>564</ele>
        <time>2020-08-16T13:29:14Z</time>
      </trkpt>
      <trkpt lat="45.91045" lon="6.65451">
        <ele>563.8</ele>
        <time>2020-08-16T13:29:15Z</time>
      </trkpt>
      <trkpt lat="45.91048" lon="6.65448">
        <ele>563.8</ele>
        <time>2020-08-16T13:29:16Z</time>
      </trkpt>
      <trkpt lat="45.9105" lon="6.65447">
        <ele>563.8</ele>
        <time>2020-08-16T13:29:17Z</time>
      </trkpt>
      <trkpt lat="45.91052" lon="6.65447">
        <ele>563.6</ele>
        <time>2020-08-16T13:29:18Z</time>
      </trkpt>
      <trkpt lat="45.91053" lon="6.65447">
        <ele>563.6</ele>
        <time>2020-08-16T13:29:19Z</time>
      </trkpt>
      <trkpt lat="45.91054" lon="6.65447">
        <ele>563.8</ele>
        <time>2020-08-16T13:29:20Z</time>
      </trkpt>
      <trkpt lat="45.91054" lon="6.65447">
        <ele>563.8</ele>
        <time>2020-08-16T13:29:21Z</time>
      </trkpt>
      <trkpt lat="45.91055" lon="6.65447">
        <ele>563.8</ele>
        <time>2020-08-16T13:29:22Z</time>
      </trkpt>
      <trkpt lat="45.91055" lon="6.65448">
        <ele>563.8</ele>
        <time>2020-08-16T13:29:23Z</time>
      </trkpt>
      <trkpt lat="45.91054" lon="6.6545">
        <ele>563.8</ele>
        <time>2020-08-16T13:29:24Z</time>
      </trkpt>
      <trkpt lat="45.91054" lon="6.65452">
        <ele>563.8</ele>
        <time>2020-08-16T13:29:25Z</time>
      </trkpt>
      <trkpt lat="45.91054" lon="6.65453">
        <ele>563.6</ele>
        <time>2020-08-16T13:29:26Z</time>
      </trkpt>
      <trkpt lat="45.91054" lon="6.65455">
        <ele>563.6</ele>
        <time>2020-08-16T13:29:27Z</time>
      </trkpt>
      <trkpt lat="45.91054" lon="6.65457">
        <ele>563.4</ele>
        <time>2020-08-16T13:29:28Z</time>
      </trkpt>
      <trkpt lat="45.91054" lon="6.65459">
        <ele>563.2</ele>
        <time>2020-08-16T13:29:29Z</time>
      </trkpt>
      <trkpt lat="45.91055" lon="6.6546">
        <ele>563.2</ele>
        <time>2020-08-16T13:29:30Z</time>
      </trkpt>
      <trkpt lat="45.91057" lon="6.65461">
        <ele>563.4</ele>
        <time>2020-08-16T13:29:31Z</time>
      </trkpt>
      <trkpt lat="45.91058" lon="6.65461">
        <ele>563.4</ele>
        <time>2020-08-16T13:29:32Z</time>
      </trkpt>
      <trkpt lat="45.91059" lon="6.65461">
        <ele>563.4</ele>
        <time>2020-08-16T13:29:33Z</time>
      </trkpt>
      <trkpt lat="45.9106" lon="6.6546">
        <ele>563.4</ele>
        <time>2020-08-16T13:29:34Z</time>
      </trkpt>
      <trkpt lat="45.91061" lon="6.65459">
        <ele>563.4</ele>
        <time>2020-08-16T13:29:35Z</time>
      </trkpt>
      <trkpt lat="45.91061" lon="6.65458">
        <ele>563.6</ele>
        <time>2020-08-16T13:29:36Z</time>
      </trkpt>
      <trkpt lat="45.91061" lon="6.65457">
        <ele>563.6</ele>
        <time>2020-08-16T13:29:37Z</time>
      </trkpt>
      <trkpt lat="45.91062" lon="6.65455">
        <ele>563.6</ele>
        <time>2020-08-16T13:29:38Z</time>
      </trkpt>
      <trkpt lat="45.91062" lon="6.65454">
        <ele>563.6</ele>
        <time>2020-08-16T13:29:39Z</time>
      </trkpt>
      <trkpt lat="45.91063" lon="6.65453">
        <ele>563.8</ele>
        <time>2020-08-16T13:29:40Z</time>
      </trkpt>
      <trkpt lat="45.91064" lon="6.65451">
        <ele>563.8</ele>
        <time>2020-08-16T13:29:41Z</time>
      </trkpt>
      <trkpt lat="45.91065" lon="6.65449">
        <ele>564</ele>
        <time>2020-08-16T13:29:42Z</time>
      </trkpt>
      <trkpt lat="45.91066" lon="6.65448">
        <ele>564</ele>
        <time>2020-08-16T13:29:43Z</time>
      </trkpt>
      <trkpt lat="45.91068" lon="6.65447">
        <ele>564</ele>
        <time>2020-08-16T13:29:44Z</time>
      </trkpt>
      <trkpt lat="45.91069" lon="6.65446">
        <ele>564</ele>
        <time>2020-08-16T13:29:45Z</time>
      </trkpt>
      <trkpt lat="45.91071" lon="6.65445">
        <ele>564</ele>
        <time>2020-08-16T13:29:46Z</time>
      </trkpt>
      <trkpt lat="45.91073" lon="6.65443">
        <ele>564</ele>
        <time>2020-08-16T13:29:47Z</time>
      </trkpt>
      <trkpt lat="45.91075" lon="6.65441">
        <ele>564</ele>
        <time>2020-08-16T13:29:48Z</time>
      </trkpt>
      <trkpt lat="45.91077" lon="6.65439">
        <ele>564</ele>
        <time>2020-08-16T13:29:49Z</time>
      </trkpt>
      <trkpt lat="45.91078" lon="6.65437">
        <ele>564</ele>
        <time>2020-08-16T13:29:50Z</time>
      </trkpt>
      <trkpt lat="45.9108" lon="6.65434">
        <ele>564.2</ele>
        <time>2020-08-16T13:29:51Z</time>
      </trkpt>
      <trkpt lat="45.9108" lon="6.65432">
        <ele>564.2</ele>
        <time>2020-08-16T13:29:52Z</time>
      </trkpt>
      <trkpt lat="45.9108" lon="6.6543">
        <ele>564.2</ele>
        <time>2020-08-16T13:29:53Z</time>
      </trkpt>
      <trkpt lat="45.91078" lon="6.65428">
        <ele>564.4</ele>
        <time>2020-08-16T13:29:54Z</time>
      </trkpt>
      <trkpt lat="45.91077" lon="6.65426">
        <ele>564.4</ele>
        <time>2020-08-16T13:29:55Z</time>
      </trkpt>
      <trkpt lat="45.91075" lon="6.65424">
        <ele>564.6</ele>
        <time>2020-08-16T13:29:56Z</time>
      </trkpt>
      <trkpt lat="45.91074" lon="6.65422">
        <ele>564.8</ele>
        <time>2020-08-16T13:29:57Z</time>
      </trkpt>
      <trkpt lat="45.91073" lon="6.6542">
        <ele>564.8</ele>
        <time>2020-08-16T13:29:58Z</time>
      </trkpt>
      <trkpt lat="45.91073" lon="6.65418">
        <ele>565</ele>
        <time>2020-08-16T13:29:59Z</time>
      </trkpt>
      <trkpt lat="45.91074" lon="6.65416">
        <ele>565</ele>
        <time>2020-08-16T13:30:00Z</time>
      </trkpt>
      <trkpt lat="45.91074" lon="6.65415">
        <ele>565</ele>
        <time>2020-08-16T13:30:01Z</time>
      </trkpt>
      <trkpt lat="45.91074" lon="6.65413">
        <ele>565.2</ele>
        <time>2020-08-16T13:30:02Z</time>
      </trkpt>
      <trkpt lat="45.91075" lon="6.65411">
        <ele>565.2</ele>
        <time>2020-08-16T13:30:03Z</time>
      </trkpt>
      <trkpt lat="45.91075" lon="6.65409">
        <ele>565.2</ele>
        <time>2020-08-16T13:30:04Z</time>
      </trkpt>
      <trkpt lat="45.91075" lon="6.65407">
        <ele>565.2</ele>
        <time>2020-08-16T13:30:05Z</time>
      </trkpt>
      <trkpt lat="45.91075" lon="6.65405">
        <ele>565.2</ele>
        <time>2020-08-16T13:30:06Z</time>
      </trkpt>
      <trkpt lat="45.91076" lon="6.65404">
        <ele>565.2</ele>
        <time>2020-08-16T13:30:07Z</time>
      </trkpt>
      <trkpt lat="45.91077" lon="6.65402">
        <ele>565.2</ele>
        <time>2020-08-16T13:30:08Z</time>
      </trkpt>
      <trkpt lat="45.91078" lon="6.654">
        <ele>565.2</ele>
        <time>2020-08-16T13:30:09Z</time>
      </trkpt>
      <trkpt lat="45.91079" lon="6.65397">
        <ele>565.2</ele>
        <time>2020-08-16T13:30:10Z</time>
      </trkpt>
      <trkpt lat="45.9108" lon="6.65394">
        <ele>565.2</ele>
        <time>2020-08-16T13:30:11Z</time>
      </trkpt>
      <trkpt lat="45.91081" lon="6.65392">
        <ele>565</ele>
        <time>2020-08-16T13:30:12Z</time>
      </trkpt>
      <trkpt lat="45.91083" lon="6.65389">
        <ele>565</ele>
        <time>2020-08-16T13:30:13Z</time>
      </trkpt>
      <trkpt lat="45.91084" lon="6.65387">
        <ele>564.8</ele>
        <time>2020-08-16T13:30:14Z</time>
      </trkpt>
      <trkpt lat="45.91086" lon="6.65384">
        <ele>564.8</ele>
        <time>2020-08-16T13:30:15Z</time>
      </trkpt>
      <trkpt lat="45.91087" lon="6.65382">
        <ele>564.6</ele>
        <time>2020-08-16T13:30:16Z</time>
      </trkpt>
      <trkpt lat="45.91089" lon="6.65379">
        <ele>564.6</ele>
        <time>2020-08-16T13:30:17Z</time>
      </trkpt>
      <trkpt lat="45.9109" lon="6.65377">
        <ele>564.6</ele>
        <time>2020-08-16T13:30:18Z</time>
      </trkpt>
      <trkpt lat="45.91091" lon="6.65375">
        <ele>564.6</ele>
        <time>2020-08-16T13:30:19Z</time>
      </trkpt>
      <trkpt lat="45.91092" lon="6.65374">
        <ele>564.4</ele>
        <time>2020-08-16T13:30:20Z</time>
      </trkpt>
      <trkpt lat="45.91092" lon="6.65372">
        <ele>564.4</ele>
        <time>2020-08-16T13:30:21Z</time>
      </trkpt>
      <trkpt lat="45.91093" lon="6.65371">
        <ele>564.2</ele>
        <time>2020-08-16T13:30:22Z</time>
      </trkpt>
      <trkpt lat="45.91094" lon="6.6537">
        <ele>564.2</ele>
        <time>2020-08-16T13:30:23Z</time>
      </trkpt>
      <trkpt lat="45.91095" lon="6.65367">
        <ele>564</ele>
        <time>2020-08-16T13:30:24Z</time>
      </trkpt>
      <trkpt lat="45.91097" lon="6.65365">
        <ele>563.8</ele>
        <time>2020-08-16T13:30:25Z</time>
      </trkpt>
      <trkpt lat="45.911" lon="6.65362">
        <ele>563.8</ele>
        <time>2020-08-16T13:30:26Z</time>
      </trkpt>
      <trkpt lat="45.91103" lon="6.6536">
        <ele>563.6</ele>
        <time>2020-08-16T13:30:27Z</time>
      </trkpt>
      <trkpt lat="45.91107" lon="6.65357">
        <ele>563.6</ele>
        <time>2020-08-16T13:30:28Z</time>
      </trkpt>
      <trkpt lat="45.91111" lon="6.65354">
        <ele>563.6</ele>
        <time>2020-08-16T13:30:29Z</time>
      </trkpt>
      <trkpt lat="45.91114" lon="6.65351">
        <ele>563.4</ele>
        <time>2020-08-16T13:30:30Z</time>
      </trkpt>
      <trkpt lat="45.91118" lon="6.65348">
        <ele>563.4</ele>
        <time>2020-08-16T13:30:31Z</time>
      </trkpt>
      <trkpt lat="45.91122" lon="6.65345">
        <ele>563.4</ele>
        <time>2020-08-16T13:30:32Z</time>
      </trkpt>
      <trkpt lat="45.91126" lon="6.65342">
        <ele>563.2</ele>
        <time>2020-08-16T13:30:33Z</time>
      </trkpt>
      <trkpt lat="45.9113" lon="6.6534">
        <ele>563</ele>
        <time>2020-08-16T13:30:34Z</time>
      </trkpt>
      <trkpt lat="45.91134" lon="6.65337">
        <ele>563</ele>
        <time>2020-08-16T13:30:35Z</time>
      </trkpt>
      <trkpt lat="45.91138" lon="6.65334">
        <ele>562.8</ele>
        <time>2020-08-16T13:30:36Z</time>
      </trkpt>
      <trkpt lat="45.91142" lon="6.65331">
        <ele>562.8</ele>
        <time>2020-08-16T13:30:37Z</time>
      </trkpt>
      <trkpt lat="45.91146" lon="6.65328">
        <ele>562.4</ele>
        <time>2020-08-16T13:30:38Z</time>
      </trkpt>
      <trkpt lat="45.9115" lon="6.65326">
        <ele>562.2</ele>
        <time>2020-08-16T13:30:39Z</time>
      </trkpt>
      <trkpt lat="45.91154" lon="6.65323">
        <ele>562.2</ele>
        <time>2020-08-16T13:30:40Z</time>
      </trkpt>
      <trkpt lat="45.91158" lon="6.65319">
        <ele>562</ele>
        <time>2020-08-16T13:30:41Z</time>
      </trkpt>
      <trkpt lat="45.91162" lon="6.65316">
        <ele>562</ele>
        <time>2020-08-16T13:30:42Z</time>
      </trkpt>
      <trkpt lat="45.91167" lon="6.65311">
        <ele>561.8</ele>
        <time>2020-08-16T13:30:43Z</time>
      </trkpt>
      <trkpt lat="45.91171" lon="6.65306">
        <ele>561.8</ele>
        <time>2020-08-16T13:30:44Z</time>
      </trkpt>
      <trkpt lat="45.91175" lon="6.65301">
        <ele>561.6</ele>
        <time>2020-08-16T13:30:45Z</time>
      </trkpt>
      <trkpt lat="45.9118" lon="6.65296">
        <ele>561.4</ele>
        <time>2020-08-16T13:30:46Z</time>
      </trkpt>
      <trkpt lat="45.91186" lon="6.65292">
        <ele>561.2</ele>
        <time>2020-08-16T13:30:47Z</time>
      </trkpt>
      <trkpt lat="45.91191" lon="6.65287">
        <ele>561</ele>
        <time>2020-08-16T13:30:48Z</time>
      </trkpt>
      <trkpt lat="45.91197" lon="6.65283">
        <ele>561</ele>
        <time>2020-08-16T13:30:49Z</time>
      </trkpt>
      <trkpt lat="45.91202" lon="6.65279">
        <ele>560.8</ele>
        <time>2020-08-16T13:30:50Z</time>
      </trkpt>
      <trkpt lat="45.91208" lon="6.65275">
        <ele>560.6</ele>
        <time>2020-08-16T13:30:51Z</time>
      </trkpt>
      <trkpt lat="45.91214" lon="6.6527">
        <ele>560.6</ele>
        <time>2020-08-16T13:30:52Z</time>
      </trkpt>
      <trkpt lat="45.91219" lon="6.65266">
        <ele>560.4</ele>
        <time>2020-08-16T13:30:53Z</time>
      </trkpt>
      <trkpt lat="45.91225" lon="6.65262">
        <ele>560.2</ele>
        <time>2020-08-16T13:30:54Z</time>
      </trkpt>
      <trkpt lat="45.91231" lon="6.65258">
        <ele>560</ele>
        <time>2020-08-16T13:30:55Z</time>
      </trkpt>
      <trkpt lat="45.91236" lon="6.65254">
        <ele>559.8</ele>
        <time>2020-08-16T13:30:56Z</time>
      </trkpt>
      <trkpt lat="45.91242" lon="6.65251">
        <ele>559.8</ele>
        <time>2020-08-16T13:30:57Z</time>
      </trkpt>
      <trkpt lat="45.91248" lon="6.65248">
        <ele>559.8</ele>
        <time>2020-08-16T13:30:58Z</time>
      </trkpt>
      <trkpt lat="45.91253" lon="6.65244">
        <ele>559.6</ele>
        <time>2020-08-16T13:30:59Z</time>
      </trkpt>
      <trkpt lat="45.91259" lon="6.65239">
        <ele>559.6</ele>
        <time>2020-08-16T13:31:00Z</time>
      </trkpt>
      <trkpt lat="45.91264" lon="6.65235">
        <ele>559.4</ele>
        <time>2020-08-16T13:31:01Z</time>
      </trkpt>
      <trkpt lat="45.9127" lon="6.65232">
        <ele>559.4</ele>
        <time>2020-08-16T13:31:02Z</time>
      </trkpt>
      <trkpt lat="45.91276" lon="6.65227">
        <ele>559.2</ele>
        <time>2020-08-16T13:31:03Z</time>
      </trkpt>
      <trkpt lat="45.91282" lon="6.65224">
        <ele>559.2</ele>
        <time>2020-08-16T13:31:04Z</time>
      </trkpt>
      <trkpt lat="45.91288" lon="6.65219">
        <ele>559</ele>
        <time>2020-08-16T13:31:05Z</time>
      </trkpt>
      <trkpt lat="45.91293" lon="6.65215">
        <ele>558.8</ele>
        <time>2020-08-16T13:31:06Z</time>
      </trkpt>
      <trkpt lat="45.91299" lon="6.6521">
        <ele>558.6</ele>
        <time>2020-08-16T13:31:07Z</time>
      </trkpt>
      <trkpt lat="45.91305" lon="6.65206">
        <ele>558.6</ele>
        <time>2020-08-16T13:31:08Z</time>
      </trkpt>
      <trkpt lat="45.91311" lon="6.65201">
        <ele>558.4</ele>
        <time>2020-08-16T13:31:09Z</time>
      </trkpt>
      <trkpt lat="45.91317" lon="6.65196">
        <ele>558.4</ele>
        <time>2020-08-16T13:31:10Z</time>
      </trkpt>
      <trkpt lat="45.91323" lon="6.65192">
        <ele>558.2</ele>
        <time>2020-08-16T13:31:11Z</time>
      </trkpt>
      <trkpt lat="45.91329" lon="6.65187">
        <ele>558</ele>
        <time>2020-08-16T13:31:12Z</time>
      </trkpt>
      <trkpt lat="45.91335" lon="6.65182">
        <ele>558</ele>
        <time>2020-08-16T13:31:13Z</time>
      </trkpt>
      <trkpt lat="45.91341" lon="6.65178">
        <ele>557.8</ele>
        <time>2020-08-16T13:31:14Z</time>
      </trkpt>
      <trkpt lat="45.91347" lon="6.65174">
        <ele>557.8</ele>
        <time>2020-08-16T13:31:15Z</time>
      </trkpt>
      <trkpt lat="45.91353" lon="6.65169">
        <ele>558</ele>
        <time>2020-08-16T13:31:16Z</time>
      </trkpt>
      <trkpt lat="45.91358" lon="6.65165">
        <ele>557.8</ele>
        <time>2020-08-16T13:31:17Z</time>
      </trkpt>
      <trkpt lat="45.91363" lon="6.65161">
        <ele>557.8</ele>
        <time>2020-08-16T13:31:18Z</time>
      </trkpt>
      <trkpt lat="45.91369" lon="6.65157">
        <ele>557.8</ele>
        <time>2020-08-16T13:31:19Z</time>
      </trkpt>
      <trkpt lat="45.91374" lon="6.65153">
        <ele>557.8</ele>
        <time>2020-08-16T13:31:20Z</time>
      </trkpt>
      <trkpt lat="45.91379" lon="6.6515">
        <ele>557.8</ele>
        <time>2020-08-16T13:31:21Z</time>
      </trkpt>
      <trkpt lat="45.91384" lon="6.65146">
        <ele>557.6</ele>
        <time>2020-08-16T13:31:22Z</time>
      </trkpt>
      <trkpt lat="45.9139" lon="6.65142">
        <ele>557.6</ele>
        <time>2020-08-16T13:31:23Z</time>
      </trkpt>
      <trkpt lat="45.91395" lon="6.65138">
        <ele>557.6</ele>
        <time>2020-08-16T13:31:24Z</time>
      </trkpt>
      <trkpt lat="45.914" lon="6.65133">
        <ele>557.4</ele>
        <time>2020-08-16T13:31:25Z</time>
      </trkpt>
      <trkpt lat="45.91405" lon="6.65129">
        <ele>557.4</ele>
        <time>2020-08-16T13:31:26Z</time>
      </trkpt>
      <trkpt lat="45.9141" lon="6.65126">
        <ele>557.4</ele>
        <time>2020-08-16T13:31:27Z</time>
      </trkpt>
      <trkpt lat="45.91415" lon="6.65123">
        <ele>557.4</ele>
        <time>2020-08-16T13:31:28Z</time>
      </trkpt>
      <trkpt lat="45.9142" lon="6.6512">
        <ele>557.4</ele>
        <time>2020-08-16T13:31:29Z</time>
      </trkpt>
      <trkpt lat="45.91424" lon="6.65119">
        <ele>557.2</ele>
        <time>2020-08-16T13:31:30Z</time>
      </trkpt>
      <trkpt lat="45.91428" lon="6.65118">
        <ele>557.2</ele>
        <time>2020-08-16T13:31:31Z</time>
      </trkpt>
      <trkpt lat="45.91431" lon="6.65119">
        <ele>557.2</ele>
        <time>2020-08-16T13:31:32Z</time>
      </trkpt>
      <trkpt lat="45.91433" lon="6.65118">
        <ele>557.2</ele>
        <time>2020-08-16T13:31:33Z</time>
      </trkpt>
      <trkpt lat="45.91436" lon="6.65117">
        <ele>557.2</ele>
        <time>2020-08-16T13:31:34Z</time>
      </trkpt>
      <trkpt lat="45.91439" lon="6.65116">
        <ele>557.2</ele>
        <time>2020-08-16T13:31:35Z</time>
      </trkpt>
      <trkpt lat="45.91443" lon="6.65115">
        <ele>557.2</ele>
        <time>2020-08-16T13:31:36Z</time>
      </trkpt>
      <trkpt lat="45.91446" lon="6.65111">
        <ele>557.2</ele>
        <time>2020-08-16T13:31:37Z</time>
      </trkpt>
      <trkpt lat="45.91449" lon="6.65107">
        <ele>557</ele>
        <time>2020-08-16T13:31:38Z</time>
      </trkpt>
      <trkpt lat="45.91453" lon="6.65103">
        <ele>557</ele>
        <time>2020-08-16T13:31:39Z</time>
      </trkpt>
      <trkpt lat="45.91456" lon="6.65099">
        <ele>557.2</ele>
        <time>2020-08-16T13:31:40Z</time>
      </trkpt>
      <trkpt lat="45.91459" lon="6.65094">
        <ele>557.2</ele>
        <time>2020-08-16T13:31:41Z</time>
      </trkpt>
      <trkpt lat="45.91462" lon="6.6509">
        <ele>557.2</ele>
        <time>2020-08-16T13:31:42Z</time>
      </trkpt>
      <trkpt lat="45.91466" lon="6.65085">
        <ele>557.2</ele>
        <time>2020-08-16T13:31:43Z</time>
      </trkpt>
      <trkpt lat="45.91469" lon="6.65081">
        <ele>557.2</ele>
        <time>2020-08-16T13:31:44Z</time>
      </trkpt>
      <trkpt lat="45.91473" lon="6.65076">
        <ele>557.2</ele>
        <time>2020-08-16T13:31:45Z</time>
      </trkpt>
      <trkpt lat="45.91477" lon="6.65072">
        <ele>557.4</ele>
        <time>2020-08-16T13:31:46Z</time>
      </trkpt>
      <trkpt lat="45.91481" lon="6.65067">
        <ele>557.4</ele>
        <time>2020-08-16T13:31:47Z</time>
      </trkpt>
      <trkpt lat="45.91484" lon="6.65063">
        <ele>557.6</ele>
        <time>2020-08-16T13:31:48Z</time>
      </trkpt>
      <trkpt lat="45.91488" lon="6.65058">
        <ele>557.4</ele>
        <time>2020-08-16T13:31:49Z</time>
      </trkpt>
      <trkpt lat="45.91491" lon="6.65053">
        <ele>557.4</ele>
        <time>2020-08-16T13:31:50Z</time>
      </trkpt>
      <trkpt lat="45.91495" lon="6.65049">
        <ele>557.2</ele>
        <time>2020-08-16T13:31:51Z</time>
      </trkpt>
      <trkpt lat="45.91499" lon="6.65044">
        <ele>557.2</ele>
        <time>2020-08-16T13:31:52Z</time>
      </trkpt>
      <trkpt lat="45.91503" lon="6.65039">
        <ele>557.2</ele>
        <time>2020-08-16T13:31:53Z</time>
      </trkpt>
      <trkpt lat="45.91507" lon="6.65034">
        <ele>557.2</ele>
        <time>2020-08-16T13:31:54Z</time>
      </trkpt>
      <trkpt lat="45.91511" lon="6.65029">
        <ele>557.4</ele>
        <time>2020-08-16T13:31:55Z</time>
      </trkpt>
      <trkpt lat="45.91514" lon="6.65024">
        <ele>557.6</ele>
        <time>2020-08-16T13:31:56Z</time>
      </trkpt>
      <trkpt lat="45.91518" lon="6.65019">
        <ele>557.6</ele>
        <time>2020-08-16T13:31:57Z</time>
      </trkpt>
      <trkpt lat="45.91522" lon="6.65014">
        <ele>557.6</ele>
        <time>2020-08-16T13:31:58Z</time>
      </trkpt>
      <trkpt lat="45.91525" lon="6.65009">
        <ele>557.6</ele>
        <time>2020-08-16T13:31:59Z</time>
      </trkpt>
      <trkpt lat="45.91529" lon="6.65005">
        <ele>557.8</ele>
        <time>2020-08-16T13:32:00Z</time>
      </trkpt>
      <trkpt lat="45.91533" lon="6.65">
        <ele>557.8</ele>
        <time>2020-08-16T13:32:01Z</time>
      </trkpt>
      <trkpt lat="45.91537" lon="6.64996">
        <ele>557.8</ele>
        <time>2020-08-16T13:32:02Z</time>
      </trkpt>
      <trkpt lat="45.9154" lon="6.64991">
        <ele>558</ele>
        <time>2020-08-16T13:32:03Z</time>
      </trkpt>
      <trkpt lat="45.91544" lon="6.64986">
        <ele>558</ele>
        <time>2020-08-16T13:32:04Z</time>
      </trkpt>
      <trkpt lat="45.91548" lon="6.64982">
        <ele>558</ele>
        <time>2020-08-16T13:32:05Z</time>
      </trkpt>
      <trkpt lat="45.91551" lon="6.64977">
        <ele>558.2</ele>
        <time>2020-08-16T13:32:06Z</time>
      </trkpt>
      <trkpt lat="45.91554" lon="6.64973">
        <ele>558</ele>
        <time>2020-08-16T13:32:07Z</time>
      </trkpt>
      <trkpt lat="45.91558" lon="6.64969">
        <ele>558</ele>
        <time>2020-08-16T13:32:08Z</time>
      </trkpt>
      <trkpt lat="45.91562" lon="6.64964">
        <ele>558.4</ele>
        <time>2020-08-16T13:32:09Z</time>
      </trkpt>
      <trkpt lat="45.91566" lon="6.6496">
        <ele>558.4</ele>
        <time>2020-08-16T13:32:10Z</time>
      </trkpt>
      <trkpt lat="45.91569" lon="6.64956">
        <ele>558.8</ele>
        <time>2020-08-16T13:32:11Z</time>
      </trkpt>
      <trkpt lat="45.91572" lon="6.64951">
        <ele>559</ele>
        <time>2020-08-16T13:32:12Z</time>
      </trkpt>
      <trkpt lat="45.91576" lon="6.64946">
        <ele>559.2</ele>
        <time>2020-08-16T13:32:13Z</time>
      </trkpt>
      <trkpt lat="45.91579" lon="6.64941">
        <ele>559.2</ele>
        <time>2020-08-16T13:32:14Z</time>
      </trkpt>
      <trkpt lat="45.91583" lon="6.64937">
        <ele>559.6</ele>
        <time>2020-08-16T13:32:15Z</time>
      </trkpt>
      <trkpt lat="45.91586" lon="6.64932">
        <ele>559.6</ele>
        <time>2020-08-16T13:32:16Z</time>
      </trkpt>
      <trkpt lat="45.9159" lon="6.64928">
        <ele>559.8</ele>
        <time>2020-08-16T13:32:17Z</time>
      </trkpt>
      <trkpt lat="45.91594" lon="6.64924">
        <ele>560</ele>
        <time>2020-08-16T13:32:18Z</time>
      </trkpt>
      <trkpt lat="45.91597" lon="6.64919">
        <ele>560</ele>
        <time>2020-08-16T13:32:19Z</time>
      </trkpt>
      <trkpt lat="45.91601" lon="6.64915">
        <ele>560.2</ele>
        <time>2020-08-16T13:32:20Z</time>
      </trkpt>
      <trkpt lat="45.91605" lon="6.6491">
        <ele>560.4</ele>
        <time>2020-08-16T13:32:21Z</time>
      </trkpt>
      <trkpt lat="45.91609" lon="6.64906">
        <ele>560.2</ele>
        <time>2020-08-16T13:32:22Z</time>
      </trkpt>
      <trkpt lat="45.91612" lon="6.64902">
        <ele>560.4</ele>
        <time>2020-08-16T13:32:23Z</time>
      </trkpt>
      <trkpt lat="45.91616" lon="6.64897">
        <ele>560.4</ele>
        <time>2020-08-16T13:32:24Z</time>
      </trkpt>
      <trkpt lat="45.9162" lon="6.64893">
        <ele>560.4</ele>
        <time>2020-08-16T13:32:25Z</time>
      </trkpt>
      <trkpt lat="45.91624" lon="6.64889">
        <ele>560.6</ele>
        <time>2020-08-16T13:32:26Z</time>
      </trkpt>
      <trkpt lat="45.91628" lon="6.64885">
        <ele>560.6</ele>
        <time>2020-08-16T13:32:27Z</time>
      </trkpt>
      <trkpt lat="45.91631" lon="6.6488">
        <ele>560.6</ele>
        <time>2020-08-16T13:32:28Z</time>
      </trkpt>
      <trkpt lat="45.91635" lon="6.64876">
        <ele>560.6</ele>
        <time>2020-08-16T13:32:29Z</time>
      </trkpt>
      <trkpt lat="45.91639" lon="6.64872">
        <ele>560.6</ele>
        <time>2020-08-16T13:32:30Z</time>
      </trkpt>
      <trkpt lat="45.91644" lon="6.64868">
        <ele>560.6</ele>
        <time>2020-08-16T13:32:31Z</time>
      </trkpt>
      <trkpt lat="45.91648" lon="6.64863">
        <ele>560.4</ele>
        <time>2020-08-16T13:32:32Z</time>
      </trkpt>
      <trkpt lat="45.91652" lon="6.64858">
        <ele>560.6</ele>
        <time>2020-08-16T13:32:33Z</time>
      </trkpt>
      <trkpt lat="45.91657" lon="6.64854">
        <ele>560.4</ele>
        <time>2020-08-16T13:32:34Z</time>
      </trkpt>
      <trkpt lat="45.91661" lon="6.64849">
        <ele>560.4</ele>
        <time>2020-08-16T13:32:35Z</time>
      </trkpt>
      <trkpt lat="45.91666" lon="6.64845">
        <ele>560.2</ele>
        <time>2020-08-16T13:32:36Z</time>
      </trkpt>
      <trkpt lat="45.9167" lon="6.64841">
        <ele>560.2</ele>
        <time>2020-08-16T13:32:37Z</time>
      </trkpt>
      <trkpt lat="45.91675" lon="6.64836">
        <ele>560</ele>
        <time>2020-08-16T13:32:38Z</time>
      </trkpt>
      <trkpt lat="45.9168" lon="6.64832">
        <ele>559.8</ele>
        <time>2020-08-16T13:32:39Z</time>
      </trkpt>
      <trkpt lat="45.91685" lon="6.64827">
        <ele>559.6</ele>
        <time>2020-08-16T13:32:40Z</time>
      </trkpt>
      <trkpt lat="45.9169" lon="6.64822">
        <ele>559.6</ele>
        <time>2020-08-16T13:32:41Z</time>
      </trkpt>
      <trkpt lat="45.91695" lon="6.64817">
        <ele>559.6</ele>
        <time>2020-08-16T13:32:42Z</time>
      </trkpt>
      <trkpt lat="45.91701" lon="6.64812">
        <ele>559.4</ele>
        <time>2020-08-16T13:32:43Z</time>
      </trkpt>
      <trkpt lat="45.91706" lon="6.64807">
        <ele>559.2</ele>
        <time>2020-08-16T13:32:44Z</time>
      </trkpt>
      <trkpt lat="45.91711" lon="6.64802">
        <ele>559</ele>
        <time>2020-08-16T13:32:45Z</time>
      </trkpt>
      <trkpt lat="45.91717" lon="6.64797">
        <ele>558.8</ele>
        <time>2020-08-16T13:32:46Z</time>
      </trkpt>
      <trkpt lat="45.91723" lon="6.64792">
        <ele>558.4</ele>
        <time>2020-08-16T13:32:47Z</time>
      </trkpt>
      <trkpt lat="45.91729" lon="6.64786">
        <ele>558.2</ele>
        <time>2020-08-16T13:32:48Z</time>
      </trkpt>
      <trkpt lat="45.91736" lon="6.64781">
        <ele>558</ele>
        <time>2020-08-16T13:32:49Z</time>
      </trkpt>
      <trkpt lat="45.91742" lon="6.64776">
        <ele>557.4</ele>
        <time>2020-08-16T13:32:50Z</time>
      </trkpt>
      <trkpt lat="45.91749" lon="6.6477">
        <ele>557.2</ele>
        <time>2020-08-16T13:32:51Z</time>
      </trkpt>
      <trkpt lat="45.91756" lon="6.64765">
        <ele>557</ele>
        <time>2020-08-16T13:32:52Z</time>
      </trkpt>
      <trkpt lat="45.91762" lon="6.6476">
        <ele>556.8</ele>
        <time>2020-08-16T13:32:53Z</time>
      </trkpt>
      <trkpt lat="45.91769" lon="6.64755">
        <ele>556.4</ele>
        <time>2020-08-16T13:32:54Z</time>
      </trkpt>
      <trkpt lat="45.91776" lon="6.64749">
        <ele>556.2</ele>
        <time>2020-08-16T13:32:55Z</time>
      </trkpt>
      <trkpt lat="45.91783" lon="6.64744">
        <ele>555.8</ele>
        <time>2020-08-16T13:32:56Z</time>
      </trkpt>
      <trkpt lat="45.91789" lon="6.64738">
        <ele>555.2</ele>
        <time>2020-08-16T13:32:57Z</time>
      </trkpt>
      <trkpt lat="45.91796" lon="6.64733">
        <ele>554.8</ele>
        <time>2020-08-16T13:32:58Z</time>
      </trkpt>
      <trkpt lat="45.91802" lon="6.64727">
        <ele>555</ele>
        <time>2020-08-16T13:32:59Z</time>
      </trkpt>
      <trkpt lat="45.91809" lon="6.64722">
        <ele>555</ele>
        <time>2020-08-16T13:33:00Z</time>
      </trkpt>
      <trkpt lat="45.91815" lon="6.64717">
        <ele>554.6</ele>
        <time>2020-08-16T13:33:01Z</time>
      </trkpt>
      <trkpt lat="45.91822" lon="6.64711">
        <ele>554.4</ele>
        <time>2020-08-16T13:33:02Z</time>
      </trkpt>
      <trkpt lat="45.91828" lon="6.64706">
        <ele>554.4</ele>
        <time>2020-08-16T13:33:03Z</time>
      </trkpt>
      <trkpt lat="45.91835" lon="6.647">
        <ele>554.2</ele>
        <time>2020-08-16T13:33:04Z</time>
      </trkpt>
      <trkpt lat="45.91841" lon="6.64694">
        <ele>553.8</ele>
        <time>2020-08-16T13:33:05Z</time>
      </trkpt>
      <trkpt lat="45.91848" lon="6.64689">
        <ele>553.8</ele>
        <time>2020-08-16T13:33:06Z</time>
      </trkpt>
      <trkpt lat="45.91855" lon="6.64683">
        <ele>553.2</ele>
        <time>2020-08-16T13:33:07Z</time>
      </trkpt>
      <trkpt lat="45.91861" lon="6.64678">
        <ele>553.2</ele>
        <time>2020-08-16T13:33:08Z</time>
      </trkpt>
      <trkpt lat="45.91868" lon="6.64672">
        <ele>553.2</ele>
        <time>2020-08-16T13:33:09Z</time>
      </trkpt>
      <trkpt lat="45.91875" lon="6.64666">
        <ele>553</ele>
        <time>2020-08-16T13:33:10Z</time>
      </trkpt>
      <trkpt lat="45.91882" lon="6.64661">
        <ele>552.6</ele>
        <time>2020-08-16T13:33:11Z</time>
      </trkpt>
      <trkpt lat="45.91889" lon="6.64655">
        <ele>552.4</ele>
        <time>2020-08-16T13:33:12Z</time>
      </trkpt>
      <trkpt lat="45.91895" lon="6.64649">
        <ele>552.2</ele>
        <time>2020-08-16T13:33:13Z</time>
      </trkpt>
      <trkpt lat="45.91902" lon="6.64644">
        <ele>552.2</ele>
        <time>2020-08-16T13:33:14Z</time>
      </trkpt>
      <trkpt lat="45.91909" lon="6.64639">
        <ele>552</ele>
        <time>2020-08-16T13:33:15Z</time>
      </trkpt>
      <trkpt lat="45.91915" lon="6.64633">
        <ele>552</ele>
        <time>2020-08-16T13:33:16Z</time>
      </trkpt>
      <trkpt lat="45.91921" lon="6.64628">
        <ele>552</ele>
        <time>2020-08-16T13:33:17Z</time>
      </trkpt>
      <trkpt lat="45.91927" lon="6.64623">
        <ele>552</ele>
        <time>2020-08-16T13:33:18Z</time>
      </trkpt>
      <trkpt lat="45.91933" lon="6.64618">
        <ele>552</ele>
        <time>2020-08-16T13:33:19Z</time>
      </trkpt>
      <trkpt lat="45.91939" lon="6.64613">
        <ele>551.8</ele>
        <time>2020-08-16T13:33:20Z</time>
      </trkpt>
      <trkpt lat="45.91945" lon="6.64608">
        <ele>551.8</ele>
        <time>2020-08-16T13:33:21Z</time>
      </trkpt>
      <trkpt lat="45.91951" lon="6.64603">
        <ele>551.6</ele>
        <time>2020-08-16T13:33:22Z</time>
      </trkpt>
      <trkpt lat="45.91957" lon="6.64598">
        <ele>551.4</ele>
        <time>2020-08-16T13:33:23Z</time>
      </trkpt>
      <trkpt lat="45.91963" lon="6.64593">
        <ele>551.4</ele>
        <time>2020-08-16T13:33:24Z</time>
      </trkpt>
      <trkpt lat="45.91968" lon="6.64588">
        <ele>551</ele>
        <time>2020-08-16T13:33:25Z</time>
      </trkpt>
      <trkpt lat="45.91974" lon="6.64583">
        <ele>551</ele>
        <time>2020-08-16T13:33:26Z</time>
      </trkpt>
      <trkpt lat="45.9198" lon="6.64578">
        <ele>550.8</ele>
        <time>2020-08-16T13:33:27Z</time>
      </trkpt>
      <trkpt lat="45.91986" lon="6.64573">
        <ele>550.8</ele>
        <time>2020-08-16T13:33:28Z</time>
      </trkpt>
      <trkpt lat="45.91992" lon="6.64569">
        <ele>550.8</ele>
        <time>2020-08-16T13:33:29Z</time>
      </trkpt>
      <trkpt lat="45.91998" lon="6.64564">
        <ele>550.8</ele>
        <time>2020-08-16T13:33:30Z</time>
      </trkpt>
      <trkpt lat="45.92004" lon="6.64559">
        <ele>550.8</ele>
        <time>2020-08-16T13:33:31Z</time>
      </trkpt>
      <trkpt lat="45.92009" lon="6.64554">
        <ele>550.8</ele>
        <time>2020-08-16T13:33:32Z</time>
      </trkpt>
      <trkpt lat="45.92015" lon="6.64549">
        <ele>550.8</ele>
        <time>2020-08-16T13:33:33Z</time>
      </trkpt>
      <trkpt lat="45.92021" lon="6.64544">
        <ele>551</ele>
        <time>2020-08-16T13:33:34Z</time>
      </trkpt>
      <trkpt lat="45.92027" lon="6.6454">
        <ele>551</ele>
        <time>2020-08-16T13:33:35Z</time>
      </trkpt>
      <trkpt lat="45.92032" lon="6.64535">
        <ele>551</ele>
        <time>2020-08-16T13:33:36Z</time>
      </trkpt>
      <trkpt lat="45.92038" lon="6.6453">
        <ele>551.2</ele>
        <time>2020-08-16T13:33:37Z</time>
      </trkpt>
      <trkpt lat="45.92043" lon="6.64526">
        <ele>551</ele>
        <time>2020-08-16T13:33:38Z</time>
      </trkpt>
      <trkpt lat="45.92049" lon="6.64521">
        <ele>550.8</ele>
        <time>2020-08-16T13:33:39Z</time>
      </trkpt>
      <trkpt lat="45.92054" lon="6.64517">
        <ele>550.2</ele>
        <time>2020-08-16T13:33:40Z</time>
      </trkpt>
      <trkpt lat="45.9206" lon="6.64513">
        <ele>550.2</ele>
        <time>2020-08-16T13:33:41Z</time>
      </trkpt>
      <trkpt lat="45.92065" lon="6.64508">
        <ele>550</ele>
        <time>2020-08-16T13:33:42Z</time>
      </trkpt>
      <trkpt lat="45.92071" lon="6.64504">
        <ele>550.2</ele>
        <time>2020-08-16T13:33:43Z</time>
      </trkpt>
      <trkpt lat="45.92076" lon="6.64499">
        <ele>550.2</ele>
        <time>2020-08-16T13:33:44Z</time>
      </trkpt>
      <trkpt lat="45.92082" lon="6.64495">
        <ele>550.2</ele>
        <time>2020-08-16T13:33:45Z</time>
      </trkpt>
      <trkpt lat="45.92087" lon="6.64491">
        <ele>550</ele>
        <time>2020-08-16T13:33:46Z</time>
      </trkpt>
      <trkpt lat="45.92092" lon="6.64486">
        <ele>550.2</ele>
        <time>2020-08-16T13:33:47Z</time>
      </trkpt>
      <trkpt lat="45.92097" lon="6.64481">
        <ele>550.4</ele>
        <time>2020-08-16T13:33:48Z</time>
      </trkpt>
      <trkpt lat="45.92102" lon="6.64477">
        <ele>550.6</ele>
        <time>2020-08-16T13:33:49Z</time>
      </trkpt>
      <trkpt lat="45.92107" lon="6.64473">
        <ele>550.4</ele>
        <time>2020-08-16T13:33:50Z</time>
      </trkpt>
      <trkpt lat="45.92113" lon="6.64469">
        <ele>550.4</ele>
        <time>2020-08-16T13:33:51Z</time>
      </trkpt>
      <trkpt lat="45.92118" lon="6.64465">
        <ele>550.4</ele>
        <time>2020-08-16T13:33:52Z</time>
      </trkpt>
      <trkpt lat="45.92123" lon="6.64461">
        <ele>550.4</ele>
        <time>2020-08-16T13:33:53Z</time>
      </trkpt>
      <trkpt lat="45.92128" lon="6.64457">
        <ele>550.2</ele>
        <time>2020-08-16T13:33:54Z</time>
      </trkpt>
      <trkpt lat="45.92133" lon="6.64453">
        <ele>550.2</ele>
        <time>2020-08-16T13:33:55Z</time>
      </trkpt>
      <trkpt lat="45.92138" lon="6.64449">
        <ele>550</ele>
        <time>2020-08-16T13:33:56Z</time>
      </trkpt>
      <trkpt lat="45.92143" lon="6.64445">
        <ele>550</ele>
        <time>2020-08-16T13:33:57Z</time>
      </trkpt>
      <trkpt lat="45.92148" lon="6.6444">
        <ele>549.8</ele>
        <time>2020-08-16T13:33:58Z</time>
      </trkpt>
      <trkpt lat="45.92153" lon="6.64436">
        <ele>549.8</ele>
        <time>2020-08-16T13:33:59Z</time>
      </trkpt>
      <trkpt lat="45.92158" lon="6.64432">
        <ele>549.6</ele>
        <time>2020-08-16T13:34:00Z</time>
      </trkpt>
      <trkpt lat="45.92163" lon="6.64428">
        <ele>549.6</ele>
        <time>2020-08-16T13:34:01Z</time>
      </trkpt>
      <trkpt lat="45.92168" lon="6.64424">
        <ele>549.8</ele>
        <time>2020-08-16T13:34:02Z</time>
      </trkpt>
      <trkpt lat="45.92173" lon="6.6442">
        <ele>549.8</ele>
        <time>2020-08-16T13:34:03Z</time>
      </trkpt>
      <trkpt lat="45.92178" lon="6.64416">
        <ele>549.6</ele>
        <time>2020-08-16T13:34:04Z</time>
      </trkpt>
      <trkpt lat="45.92183" lon="6.64413">
        <ele>549.6</ele>
        <time>2020-08-16T13:34:05Z</time>
      </trkpt>
      <trkpt lat="45.92188" lon="6.6441">
        <ele>549.6</ele>
        <time>2020-08-16T13:34:06Z</time>
      </trkpt>
      <trkpt lat="45.92193" lon="6.64407">
        <ele>549.6</ele>
        <time>2020-08-16T13:34:07Z</time>
      </trkpt>
      <trkpt lat="45.92198" lon="6.64404">
        <ele>550</ele>
        <time>2020-08-16T13:34:08Z</time>
      </trkpt>
      <trkpt lat="45.92203" lon="6.644">
        <ele>549.6</ele>
        <time>2020-08-16T13:34:09Z</time>
      </trkpt>
      <trkpt lat="45.92207" lon="6.64397">
        <ele>549.4</ele>
        <time>2020-08-16T13:34:10Z</time>
      </trkpt>
      <trkpt lat="45.92212" lon="6.64394">
        <ele>549.6</ele>
        <time>2020-08-16T13:34:11Z</time>
      </trkpt>
      <trkpt lat="45.92216" lon="6.6439">
        <ele>549.6</ele>
        <time>2020-08-16T13:34:12Z</time>
      </trkpt>
      <trkpt lat="45.92221" lon="6.64387">
        <ele>549.8</ele>
        <time>2020-08-16T13:34:13Z</time>
      </trkpt>
      <trkpt lat="45.92225" lon="6.64383">
        <ele>550</ele>
        <time>2020-08-16T13:34:14Z</time>
      </trkpt>
      <trkpt lat="45.92229" lon="6.64379">
        <ele>550.4</ele>
        <time>2020-08-16T13:34:15Z</time>
      </trkpt>
      <trkpt lat="45.92233" lon="6.64375">
        <ele>550</ele>
        <time>2020-08-16T13:34:16Z</time>
      </trkpt>
      <trkpt lat="45.92238" lon="6.64372">
        <ele>550.2</ele>
        <time>2020-08-16T13:34:17Z</time>
      </trkpt>
      <trkpt lat="45.92242" lon="6.64368">
        <ele>550.2</ele>
        <time>2020-08-16T13:34:18Z</time>
      </trkpt>
      <trkpt lat="45.92246" lon="6.64364">
        <ele>550.2</ele>
        <time>2020-08-16T13:34:19Z</time>
      </trkpt>
      <trkpt lat="45.9225" lon="6.6436">
        <ele>550.4</ele>
        <time>2020-08-16T13:34:20Z</time>
      </trkpt>
      <trkpt lat="45.92254" lon="6.64356">
        <ele>550.4</ele>
        <time>2020-08-16T13:34:21Z</time>
      </trkpt>
      <trkpt lat="45.92258" lon="6.64352">
        <ele>550.6</ele>
        <time>2020-08-16T13:34:22Z</time>
      </trkpt>
      <trkpt lat="45.92262" lon="6.64348">
        <ele>550.6</ele>
        <time>2020-08-16T13:34:23Z</time>
      </trkpt>
      <trkpt lat="45.92267" lon="6.64343">
        <ele>550.4</ele>
        <time>2020-08-16T13:34:24Z</time>
      </trkpt>
      <trkpt lat="45.92272" lon="6.64339">
        <ele>550.4</ele>
        <time>2020-08-16T13:34:25Z</time>
      </trkpt>
      <trkpt lat="45.92276" lon="6.64335">
        <ele>550.4</ele>
        <time>2020-08-16T13:34:26Z</time>
      </trkpt>
      <trkpt lat="45.92281" lon="6.64331">
        <ele>550.4</ele>
        <time>2020-08-16T13:34:27Z</time>
      </trkpt>
      <trkpt lat="45.92286" lon="6.64328">
        <ele>550.4</ele>
        <time>2020-08-16T13:34:28Z</time>
      </trkpt>
      <trkpt lat="45.92291" lon="6.64324">
        <ele>550.4</ele>
        <time>2020-08-16T13:34:29Z</time>
      </trkpt>
      <trkpt lat="45.92297" lon="6.6432">
        <ele>550.2</ele>
        <time>2020-08-16T13:34:30Z</time>
      </trkpt>
      <trkpt lat="45.92302" lon="6.64315">
        <ele>550</ele>
        <time>2020-08-16T13:34:31Z</time>
      </trkpt>
      <trkpt lat="45.92307" lon="6.64311">
        <ele>550</ele>
        <time>2020-08-16T13:34:32Z</time>
      </trkpt>
      <trkpt lat="45.92312" lon="6.64306">
        <ele>550</ele>
        <time>2020-08-16T13:34:33Z</time>
      </trkpt>
      <trkpt lat="45.92318" lon="6.64302">
        <ele>550.2</ele>
        <time>2020-08-16T13:34:34Z</time>
      </trkpt>
      <trkpt lat="45.92323" lon="6.64298">
        <ele>550.2</ele>
        <time>2020-08-16T13:34:35Z</time>
      </trkpt>
      <trkpt lat="45.92328" lon="6.64294">
        <ele>550</ele>
        <time>2020-08-16T13:34:36Z</time>
      </trkpt>
      <trkpt lat="45.92333" lon="6.64289">
        <ele>549.6</ele>
        <time>2020-08-16T13:34:37Z</time>
      </trkpt>
      <trkpt lat="45.92338" lon="6.64285">
        <ele>549.6</ele>
        <time>2020-08-16T13:34:38Z</time>
      </trkpt>
      <trkpt lat="45.92343" lon="6.6428">
        <ele>549.8</ele>
        <time>2020-08-16T13:34:39Z</time>
      </trkpt>
      <trkpt lat="45.92348" lon="6.64276">
        <ele>549.8</ele>
        <time>2020-08-16T13:34:40Z</time>
      </trkpt>
      <trkpt lat="45.92354" lon="6.64272">
        <ele>549.8</ele>
        <time>2020-08-16T13:34:41Z</time>
      </trkpt>
      <trkpt lat="45.92359" lon="6.64268">
        <ele>549.6</ele>
        <time>2020-08-16T13:34:42Z</time>
      </trkpt>
      <trkpt lat="45.92364" lon="6.64264">
        <ele>549.4</ele>
        <time>2020-08-16T13:34:43Z</time>
      </trkpt>
      <trkpt lat="45.92369" lon="6.6426">
        <ele>549.4</ele>
        <time>2020-08-16T13:34:44Z</time>
      </trkpt>
      <trkpt lat="45.92374" lon="6.64256">
        <ele>549.2</ele>
        <time>2020-08-16T13:34:45Z</time>
      </trkpt>
      <trkpt lat="45.92379" lon="6.64252">
        <ele>549.2</ele>
        <time>2020-08-16T13:34:46Z</time>
      </trkpt>
      <trkpt lat="45.92385" lon="6.64247">
        <ele>549.2</ele>
        <time>2020-08-16T13:34:47Z</time>
      </trkpt>
      <trkpt lat="45.9239" lon="6.64243">
        <ele>549.2</ele>
        <time>2020-08-16T13:34:48Z</time>
      </trkpt>
      <trkpt lat="45.92395" lon="6.64239">
        <ele>549.2</ele>
        <time>2020-08-16T13:34:49Z</time>
      </trkpt>
      <trkpt lat="45.924" lon="6.64235">
        <ele>549</ele>
        <time>2020-08-16T13:34:50Z</time>
      </trkpt>
      <trkpt lat="45.92405" lon="6.64231">
        <ele>548.8</ele>
        <time>2020-08-16T13:34:51Z</time>
      </trkpt>
      <trkpt lat="45.9241" lon="6.64226">
        <ele>548.8</ele>
        <time>2020-08-16T13:34:52Z</time>
      </trkpt>
      <trkpt lat="45.92415" lon="6.64222">
        <ele>549</ele>
        <time>2020-08-16T13:34:53Z</time>
      </trkpt>
      <trkpt lat="45.9242" lon="6.64218">
        <ele>549.4</ele>
        <time>2020-08-16T13:34:54Z</time>
      </trkpt>
      <trkpt lat="45.92425" lon="6.64214">
        <ele>549.4</ele>
        <time>2020-08-16T13:34:55Z</time>
      </trkpt>
      <trkpt lat="45.9243" lon="6.6421">
        <ele>549.2</ele>
        <time>2020-08-16T13:34:56Z</time>
      </trkpt>
      <trkpt lat="45.92434" lon="6.64206">
        <ele>549</ele>
        <time>2020-08-16T13:34:57Z</time>
      </trkpt>
      <trkpt lat="45.92439" lon="6.64202">
        <ele>548.8</ele>
        <time>2020-08-16T13:34:58Z</time>
      </trkpt>
      <trkpt lat="45.92444" lon="6.64198">
        <ele>548.8</ele>
        <time>2020-08-16T13:34:59Z</time>
      </trkpt>
      <trkpt lat="45.92449" lon="6.64194">
        <ele>548.8</ele>
        <time>2020-08-16T13:35:00Z</time>
      </trkpt>
      <trkpt lat="45.92454" lon="6.64191">
        <ele>549</ele>
        <time>2020-08-16T13:35:01Z</time>
      </trkpt>
      <trkpt lat="45.92459" lon="6.64187">
        <ele>548.8</ele>
        <time>2020-08-16T13:35:02Z</time>
      </trkpt>
      <trkpt lat="45.92464" lon="6.64183">
        <ele>548.6</ele>
        <time>2020-08-16T13:35:03Z</time>
      </trkpt>
      <trkpt lat="45.92468" lon="6.64179">
        <ele>548.6</ele>
        <time>2020-08-16T13:35:04Z</time>
      </trkpt>
      <trkpt lat="45.92473" lon="6.64175">
        <ele>548.6</ele>
        <time>2020-08-16T13:35:05Z</time>
      </trkpt>
      <trkpt lat="45.92478" lon="6.64172">
        <ele>548.6</ele>
        <time>2020-08-16T13:35:06Z</time>
      </trkpt>
      <trkpt lat="45.92483" lon="6.64168">
        <ele>548.6</ele>
        <time>2020-08-16T13:35:07Z</time>
      </trkpt>
      <trkpt lat="45.92487" lon="6.64164">
        <ele>548.4</ele>
        <time>2020-08-16T13:35:08Z</time>
      </trkpt>
      <trkpt lat="45.92492" lon="6.6416">
        <ele>548.4</ele>
        <time>2020-08-16T13:35:09Z</time>
      </trkpt>
      <trkpt lat="45.92497" lon="6.64156">
        <ele>548.2</ele>
        <time>2020-08-16T13:35:10Z</time>
      </trkpt>
      <trkpt lat="45.92502" lon="6.64152">
        <ele>548.2</ele>
        <time>2020-08-16T13:35:11Z</time>
      </trkpt>
      <trkpt lat="45.92507" lon="6.64148">
        <ele>548.2</ele>
        <time>2020-08-16T13:35:12Z</time>
      </trkpt>
      <trkpt lat="45.92512" lon="6.64144">
        <ele>548.2</ele>
        <time>2020-08-16T13:35:13Z</time>
      </trkpt>
      <trkpt lat="45.92517" lon="6.6414">
        <ele>548.2</ele>
        <time>2020-08-16T13:35:14Z</time>
      </trkpt>
      <trkpt lat="45.92521" lon="6.64137">
        <ele>548.2</ele>
        <time>2020-08-16T13:35:15Z</time>
      </trkpt>
      <trkpt lat="45.92526" lon="6.64133">
        <ele>548</ele>
        <time>2020-08-16T13:35:16Z</time>
      </trkpt>
      <trkpt lat="45.92531" lon="6.64129">
        <ele>548.2</ele>
        <time>2020-08-16T13:35:17Z</time>
      </trkpt>
      <trkpt lat="45.92536" lon="6.64125">
        <ele>548.2</ele>
        <time>2020-08-16T13:35:18Z</time>
      </trkpt>
      <trkpt lat="45.9254" lon="6.64121">
        <ele>548</ele>
        <time>2020-08-16T13:35:19Z</time>
      </trkpt>
      <trkpt lat="45.92545" lon="6.64117">
        <ele>547.8</ele>
        <time>2020-08-16T13:35:20Z</time>
      </trkpt>
      <trkpt lat="45.9255" lon="6.64114">
        <ele>547.8</ele>
        <time>2020-08-16T13:35:21Z</time>
      </trkpt>
      <trkpt lat="45.92554" lon="6.6411">
        <ele>547.6</ele>
        <time>2020-08-16T13:35:22Z</time>
      </trkpt>
      <trkpt lat="45.92559" lon="6.64106">
        <ele>547.6</ele>
        <time>2020-08-16T13:35:23Z</time>
      </trkpt>
      <trkpt lat="45.92564" lon="6.64102">
        <ele>547.2</ele>
        <time>2020-08-16T13:35:24Z</time>
      </trkpt>
      <trkpt lat="45.92569" lon="6.64098">
        <ele>547.2</ele>
        <time>2020-08-16T13:35:25Z</time>
      </trkpt>
      <trkpt lat="45.92573" lon="6.64094">
        <ele>547.2</ele>
        <time>2020-08-16T13:35:26Z</time>
      </trkpt>
      <trkpt lat="45.92578" lon="6.6409">
        <ele>547.2</ele>
        <time>2020-08-16T13:35:27Z</time>
      </trkpt>
      <trkpt lat="45.92583" lon="6.64086">
        <ele>547.2</ele>
        <time>2020-08-16T13:35:28Z</time>
      </trkpt>
      <trkpt lat="45.92588" lon="6.64082">
        <ele>547.2</ele>
        <time>2020-08-16T13:35:29Z</time>
      </trkpt>
      <trkpt lat="45.92592" lon="6.64078">
        <ele>547.4</ele>
        <time>2020-08-16T13:35:30Z</time>
      </trkpt>
      <trkpt lat="45.92597" lon="6.64074">
        <ele>547.4</ele>
        <time>2020-08-16T13:35:31Z</time>
      </trkpt>
      <trkpt lat="45.92602" lon="6.64071">
        <ele>547.4</ele>
        <time>2020-08-16T13:35:32Z</time>
      </trkpt>
      <trkpt lat="45.92607" lon="6.64067">
        <ele>547.2</ele>
        <time>2020-08-16T13:35:33Z</time>
      </trkpt>
      <trkpt lat="45.92611" lon="6.64064">
        <ele>547.4</ele>
        <time>2020-08-16T13:35:34Z</time>
      </trkpt>
      <trkpt lat="45.92616" lon="6.64061">
        <ele>547.4</ele>
        <time>2020-08-16T13:35:35Z</time>
      </trkpt>
      <trkpt lat="45.92621" lon="6.64057">
        <ele>547.2</ele>
        <time>2020-08-16T13:35:36Z</time>
      </trkpt>
      <trkpt lat="45.92625" lon="6.64053">
        <ele>547.4</ele>
        <time>2020-08-16T13:35:37Z</time>
      </trkpt>
      <trkpt lat="45.9263" lon="6.64049">
        <ele>547.4</ele>
        <time>2020-08-16T13:35:38Z</time>
      </trkpt>
      <trkpt lat="45.92634" lon="6.64045">
        <ele>547.4</ele>
        <time>2020-08-16T13:35:39Z</time>
      </trkpt>
      <trkpt lat="45.92638" lon="6.64042">
        <ele>547.4</ele>
        <time>2020-08-16T13:35:40Z</time>
      </trkpt>
      <trkpt lat="45.92643" lon="6.64038">
        <ele>547.6</ele>
        <time>2020-08-16T13:35:41Z</time>
      </trkpt>
      <trkpt lat="45.92647" lon="6.64034">
        <ele>547.6</ele>
        <time>2020-08-16T13:35:42Z</time>
      </trkpt>
      <trkpt lat="45.92652" lon="6.64031">
        <ele>547.4</ele>
        <time>2020-08-16T13:35:43Z</time>
      </trkpt>
      <trkpt lat="45.92656" lon="6.64027">
        <ele>547.4</ele>
        <time>2020-08-16T13:35:44Z</time>
      </trkpt>
      <trkpt lat="45.92661" lon="6.64024">
        <ele>547.6</ele>
        <time>2020-08-16T13:35:45Z</time>
      </trkpt>
      <trkpt lat="45.92665" lon="6.6402">
        <ele>547.4</ele>
        <time>2020-08-16T13:35:46Z</time>
      </trkpt>
      <trkpt lat="45.9267" lon="6.64017">
        <ele>547.2</ele>
        <time>2020-08-16T13:35:47Z</time>
      </trkpt>
      <trkpt lat="45.92675" lon="6.64013">
        <ele>547.2</ele>
        <time>2020-08-16T13:35:48Z</time>
      </trkpt>
      <trkpt lat="45.92679" lon="6.64009">
        <ele>547</ele>
        <time>2020-08-16T13:35:49Z</time>
      </trkpt>
      <trkpt lat="45.92684" lon="6.64006">
        <ele>546.8</ele>
        <time>2020-08-16T13:35:50Z</time>
      </trkpt>
      <trkpt lat="45.92689" lon="6.64002">
        <ele>546.8</ele>
        <time>2020-08-16T13:35:51Z</time>
      </trkpt>
      <trkpt lat="45.92693" lon="6.63998">
        <ele>546.6</ele>
        <time>2020-08-16T13:35:52Z</time>
      </trkpt>
      <trkpt lat="45.92698" lon="6.63994">
        <ele>546.6</ele>
        <time>2020-08-16T13:35:53Z</time>
      </trkpt>
      <trkpt lat="45.92703" lon="6.63991">
        <ele>546.4</ele>
        <time>2020-08-16T13:35:54Z</time>
      </trkpt>
      <trkpt lat="45.92708" lon="6.63987">
        <ele>546.6</ele>
        <time>2020-08-16T13:35:55Z</time>
      </trkpt>
      <trkpt lat="45.92712" lon="6.63983">
        <ele>546.4</ele>
        <time>2020-08-16T13:35:56Z</time>
      </trkpt>
      <trkpt lat="45.92717" lon="6.63979">
        <ele>546.4</ele>
        <time>2020-08-16T13:35:57Z</time>
      </trkpt>
      <trkpt lat="45.92722" lon="6.63976">
        <ele>546.2</ele>
        <time>2020-08-16T13:35:58Z</time>
      </trkpt>
      <trkpt lat="45.92726" lon="6.63972">
        <ele>546.2</ele>
        <time>2020-08-16T13:35:59Z</time>
      </trkpt>
      <trkpt lat="45.92731" lon="6.63968">
        <ele>546.2</ele>
        <time>2020-08-16T13:36:00Z</time>
      </trkpt>
      <trkpt lat="45.92735" lon="6.63964">
        <ele>546.2</ele>
        <time>2020-08-16T13:36:01Z</time>
      </trkpt>
      <trkpt lat="45.9274" lon="6.63961">
        <ele>546.2</ele>
        <time>2020-08-16T13:36:02Z</time>
      </trkpt>
      <trkpt lat="45.92745" lon="6.63957">
        <ele>546.2</ele>
        <time>2020-08-16T13:36:03Z</time>
      </trkpt>
      <trkpt lat="45.92749" lon="6.63953">
        <ele>546.2</ele>
        <time>2020-08-16T13:36:04Z</time>
      </trkpt>
      <trkpt lat="45.92754" lon="6.63948">
        <ele>546.2</ele>
        <time>2020-08-16T13:36:05Z</time>
      </trkpt>
      <trkpt lat="45.92758" lon="6.63944">
        <ele>546.2</ele>
        <time>2020-08-16T13:36:06Z</time>
      </trkpt>
      <trkpt lat="45.92762" lon="6.6394">
        <ele>546</ele>
        <time>2020-08-16T13:36:07Z</time>
      </trkpt>
      <trkpt lat="45.92765" lon="6.63935">
        <ele>546</ele>
        <time>2020-08-16T13:36:08Z</time>
      </trkpt>
      <trkpt lat="45.9277" lon="6.6393">
        <ele>546</ele>
        <time>2020-08-16T13:36:09Z</time>
      </trkpt>
      <trkpt lat="45.92773" lon="6.63925">
        <ele>546</ele>
        <time>2020-08-16T13:36:10Z</time>
      </trkpt>
      <trkpt lat="45.92777" lon="6.6392">
        <ele>546</ele>
        <time>2020-08-16T13:36:11Z</time>
      </trkpt>
      <trkpt lat="45.92781" lon="6.63916">
        <ele>546</ele>
        <time>2020-08-16T13:36:12Z</time>
      </trkpt>
      <trkpt lat="45.92785" lon="6.63911">
        <ele>546</ele>
        <time>2020-08-16T13:36:13Z</time>
      </trkpt>
      <trkpt lat="45.92789" lon="6.63906">
        <ele>546</ele>
        <time>2020-08-16T13:36:14Z</time>
      </trkpt>
      <trkpt lat="45.92793" lon="6.63901">
        <ele>546</ele>
        <time>2020-08-16T13:36:15Z</time>
      </trkpt>
      <trkpt lat="45.92797" lon="6.63896">
        <ele>545.8</ele>
        <time>2020-08-16T13:36:16Z</time>
      </trkpt>
      <trkpt lat="45.92801" lon="6.63891">
        <ele>545.6</ele>
        <time>2020-08-16T13:36:17Z</time>
      </trkpt>
      <trkpt lat="45.92805" lon="6.63887">
        <ele>545.4</ele>
        <time>2020-08-16T13:36:18Z</time>
      </trkpt>
      <trkpt lat="45.92809" lon="6.63882">
        <ele>545.4</ele>
        <time>2020-08-16T13:36:19Z</time>
      </trkpt>
      <trkpt lat="45.92813" lon="6.63877">
        <ele>545.4</ele>
        <time>2020-08-16T13:36:20Z</time>
      </trkpt>
      <trkpt lat="45.92817" lon="6.63872">
        <ele>545.2</ele>
        <time>2020-08-16T13:36:21Z</time>
      </trkpt>
      <trkpt lat="45.92821" lon="6.63867">
        <ele>545.4</ele>
        <time>2020-08-16T13:36:22Z</time>
      </trkpt>
      <trkpt lat="45.92825" lon="6.63862">
        <ele>545.6</ele>
        <time>2020-08-16T13:36:23Z</time>
      </trkpt>
      <trkpt lat="45.9283" lon="6.63857">
        <ele>545.6</ele>
        <time>2020-08-16T13:36:24Z</time>
      </trkpt>
      <trkpt lat="45.92833" lon="6.63852">
        <ele>545.6</ele>
        <time>2020-08-16T13:36:25Z</time>
      </trkpt>
      <trkpt lat="45.92837" lon="6.63848">
        <ele>545.6</ele>
        <time>2020-08-16T13:36:26Z</time>
      </trkpt>
      <trkpt lat="45.92841" lon="6.63843">
        <ele>545.6</ele>
        <time>2020-08-16T13:36:27Z</time>
      </trkpt>
      <trkpt lat="45.92845" lon="6.63838">
        <ele>545.6</ele>
        <time>2020-08-16T13:36:28Z</time>
      </trkpt>
      <trkpt lat="45.92849" lon="6.63834">
        <ele>545.6</ele>
        <time>2020-08-16T13:36:29Z</time>
      </trkpt>
      <trkpt lat="45.92853" lon="6.6383">
        <ele>545.8</ele>
        <time>2020-08-16T13:36:30Z</time>
      </trkpt>
      <trkpt lat="45.92857" lon="6.63825">
        <ele>545.8</ele>
        <time>2020-08-16T13:36:31Z</time>
      </trkpt>
      <trkpt lat="45.92861" lon="6.6382">
        <ele>545.8</ele>
        <time>2020-08-16T13:36:32Z</time>
      </trkpt>
      <trkpt lat="45.92865" lon="6.63816">
        <ele>545.8</ele>
        <time>2020-08-16T13:36:33Z</time>
      </trkpt>
      <trkpt lat="45.92868" lon="6.63812">
        <ele>545.6</ele>
        <time>2020-08-16T13:36:34Z</time>
      </trkpt>
      <trkpt lat="45.92872" lon="6.63807">
        <ele>545.6</ele>
        <time>2020-08-16T13:36:35Z</time>
      </trkpt>
      <trkpt lat="45.92876" lon="6.63803">
        <ele>545.8</ele>
        <time>2020-08-16T13:36:36Z</time>
      </trkpt>
      <trkpt lat="45.9288" lon="6.63799">
        <ele>545.8</ele>
        <time>2020-08-16T13:36:37Z</time>
      </trkpt>
      <trkpt lat="45.92884" lon="6.63794">
        <ele>545.6</ele>
        <time>2020-08-16T13:36:38Z</time>
      </trkpt>
      <trkpt lat="45.92887" lon="6.6379">
        <ele>545.8</ele>
        <time>2020-08-16T13:36:39Z</time>
      </trkpt>
      <trkpt lat="45.92891" lon="6.63785">
        <ele>545.8</ele>
        <time>2020-08-16T13:36:40Z</time>
      </trkpt>
      <trkpt lat="45.92895" lon="6.63781">
        <ele>545.8</ele>
        <time>2020-08-16T13:36:41Z</time>
      </trkpt>
      <trkpt lat="45.92899" lon="6.63776">
        <ele>545.6</ele>
        <time>2020-08-16T13:36:42Z</time>
      </trkpt>
      <trkpt lat="45.92903" lon="6.63772">
        <ele>545.6</ele>
        <time>2020-08-16T13:36:43Z</time>
      </trkpt>
      <trkpt lat="45.92907" lon="6.63768">
        <ele>545.4</ele>
        <time>2020-08-16T13:36:44Z</time>
      </trkpt>
      <trkpt lat="45.9291" lon="6.63764">
        <ele>545.4</ele>
        <time>2020-08-16T13:36:45Z</time>
      </trkpt>
      <trkpt lat="45.92914" lon="6.63759">
        <ele>545.2</ele>
        <time>2020-08-16T13:36:46Z</time>
      </trkpt>
      <trkpt lat="45.92918" lon="6.63755">
        <ele>545.2</ele>
        <time>2020-08-16T13:36:47Z</time>
      </trkpt>
      <trkpt lat="45.92921" lon="6.6375">
        <ele>545.2</ele>
        <time>2020-08-16T13:36:48Z</time>
      </trkpt>
      <trkpt lat="45.92925" lon="6.63746">
        <ele>545.4</ele>
        <time>2020-08-16T13:36:49Z</time>
      </trkpt>
      <trkpt lat="45.92929" lon="6.63742">
        <ele>545.6</ele>
        <time>2020-08-16T13:36:50Z</time>
      </trkpt>
      <trkpt lat="45.92933" lon="6.63738">
        <ele>545.4</ele>
        <time>2020-08-16T13:36:51Z</time>
      </trkpt>
      <trkpt lat="45.92936" lon="6.63733">
        <ele>545.4</ele>
        <time>2020-08-16T13:36:52Z</time>
      </trkpt>
      <trkpt lat="45.9294" lon="6.63729">
        <ele>545.6</ele>
        <time>2020-08-16T13:36:53Z</time>
      </trkpt>
      <trkpt lat="45.92944" lon="6.63724">
        <ele>545.6</ele>
        <time>2020-08-16T13:36:54Z</time>
      </trkpt>
      <trkpt lat="45.92948" lon="6.6372">
        <ele>545.6</ele>
        <time>2020-08-16T13:36:55Z</time>
      </trkpt>
      <trkpt lat="45.92951" lon="6.63715">
        <ele>545.4</ele>
        <time>2020-08-16T13:36:56Z</time>
      </trkpt>
      <trkpt lat="45.92955" lon="6.6371">
        <ele>545.2</ele>
        <time>2020-08-16T13:36:57Z</time>
      </trkpt>
      <trkpt lat="45.92959" lon="6.63706">
        <ele>545.2</ele>
        <time>2020-08-16T13:36:58Z</time>
      </trkpt>
      <trkpt lat="45.92963" lon="6.63701">
        <ele>545.2</ele>
        <time>2020-08-16T13:36:59Z</time>
      </trkpt>
      <trkpt lat="45.92967" lon="6.63696">
        <ele>545.2</ele>
        <time>2020-08-16T13:37:00Z</time>
      </trkpt>
      <trkpt lat="45.92971" lon="6.63691">
        <ele>545.2</ele>
        <time>2020-08-16T13:37:01Z</time>
      </trkpt>
      <trkpt lat="45.92975" lon="6.63687">
        <ele>545.4</ele>
        <time>2020-08-16T13:37:02Z</time>
      </trkpt>
      <trkpt lat="45.92978" lon="6.63682">
        <ele>545.4</ele>
        <time>2020-08-16T13:37:03Z</time>
      </trkpt>
      <trkpt lat="45.92982" lon="6.63677">
        <ele>545.4</ele>
        <time>2020-08-16T13:37:04Z</time>
      </trkpt>
      <trkpt lat="45.92986" lon="6.63673">
        <ele>545.6</ele>
        <time>2020-08-16T13:37:05Z</time>
      </trkpt>
      <trkpt lat="45.9299" lon="6.63669">
        <ele>545.6</ele>
        <time>2020-08-16T13:37:06Z</time>
      </trkpt>
      <trkpt lat="45.92994" lon="6.63664">
        <ele>545.4</ele>
        <time>2020-08-16T13:37:07Z</time>
      </trkpt>
      <trkpt lat="45.92998" lon="6.6366">
        <ele>545.2</ele>
        <time>2020-08-16T13:37:08Z</time>
      </trkpt>
      <trkpt lat="45.93001" lon="6.63655">
        <ele>545</ele>
        <time>2020-08-16T13:37:09Z</time>
      </trkpt>
      <trkpt lat="45.93005" lon="6.63651">
        <ele>545.2</ele>
        <time>2020-08-16T13:37:10Z</time>
      </trkpt>
      <trkpt lat="45.93009" lon="6.63646">
        <ele>545.2</ele>
        <time>2020-08-16T13:37:11Z</time>
      </trkpt>
      <trkpt lat="45.93013" lon="6.63642">
        <ele>545.2</ele>
        <time>2020-08-16T13:37:12Z</time>
      </trkpt>
      <trkpt lat="45.93016" lon="6.63637">
        <ele>545.4</ele>
        <time>2020-08-16T13:37:13Z</time>
      </trkpt>
      <trkpt lat="45.9302" lon="6.63633">
        <ele>545.6</ele>
        <time>2020-08-16T13:37:14Z</time>
      </trkpt>
      <trkpt lat="45.93024" lon="6.63629">
        <ele>545.8</ele>
        <time>2020-08-16T13:37:15Z</time>
      </trkpt>
      <trkpt lat="45.93027" lon="6.63624">
        <ele>545.8</ele>
        <time>2020-08-16T13:37:16Z</time>
      </trkpt>
      <trkpt lat="45.93031" lon="6.6362">
        <ele>545.8</ele>
        <time>2020-08-16T13:37:17Z</time>
      </trkpt>
      <trkpt lat="45.93034" lon="6.63616">
        <ele>545.8</ele>
        <time>2020-08-16T13:37:18Z</time>
      </trkpt>
      <trkpt lat="45.93038" lon="6.63611">
        <ele>546</ele>
        <time>2020-08-16T13:37:19Z</time>
      </trkpt>
      <trkpt lat="45.93041" lon="6.63607">
        <ele>546</ele>
        <time>2020-08-16T13:37:20Z</time>
      </trkpt>
      <trkpt lat="45.93045" lon="6.63603">
        <ele>546.2</ele>
        <time>2020-08-16T13:37:21Z</time>
      </trkpt>
      <trkpt lat="45.93048" lon="6.63599">
        <ele>546.2</ele>
        <time>2020-08-16T13:37:22Z</time>
      </trkpt>
      <trkpt lat="45.93051" lon="6.63595">
        <ele>546.4</ele>
        <time>2020-08-16T13:37:23Z</time>
      </trkpt>
      <trkpt lat="45.93055" lon="6.63591">
        <ele>546.4</ele>
        <time>2020-08-16T13:37:24Z</time>
      </trkpt>
      <trkpt lat="45.93058" lon="6.63587">
        <ele>546.4</ele>
        <time>2020-08-16T13:37:25Z</time>
      </trkpt>
      <trkpt lat="45.93062" lon="6.63582">
        <ele>546.4</ele>
        <time>2020-08-16T13:37:26Z</time>
      </trkpt>
      <trkpt lat="45.93065" lon="6.63578">
        <ele>546.6</ele>
        <time>2020-08-16T13:37:27Z</time>
      </trkpt>
      <trkpt lat="45.93069" lon="6.63574">
        <ele>546.6</ele>
        <time>2020-08-16T13:37:28Z</time>
      </trkpt>
      <trkpt lat="45.93072" lon="6.6357">
        <ele>546.8</ele>
        <time>2020-08-16T13:37:29Z</time>
      </trkpt>
      <trkpt lat="45.93075" lon="6.63566">
        <ele>546.8</ele>
        <time>2020-08-16T13:37:30Z</time>
      </trkpt>
      <trkpt lat="45.93079" lon="6.63562">
        <ele>547</ele>
        <time>2020-08-16T13:37:31Z</time>
      </trkpt>
      <trkpt lat="45.93082" lon="6.63558">
        <ele>547</ele>
        <time>2020-08-16T13:37:32Z</time>
      </trkpt>
      <trkpt lat="45.93086" lon="6.63554">
        <ele>547</ele>
        <time>2020-08-16T13:37:33Z</time>
      </trkpt>
      <trkpt lat="45.93089" lon="6.6355">
        <ele>547</ele>
        <time>2020-08-16T13:37:34Z</time>
      </trkpt>
      <trkpt lat="45.93092" lon="6.63546">
        <ele>547</ele>
        <time>2020-08-16T13:37:35Z</time>
      </trkpt>
      <trkpt lat="45.93095" lon="6.63542">
        <ele>547.2</ele>
        <time>2020-08-16T13:37:36Z</time>
      </trkpt>
      <trkpt lat="45.93098" lon="6.63538">
        <ele>547.4</ele>
        <time>2020-08-16T13:37:37Z</time>
      </trkpt>
      <trkpt lat="45.93101" lon="6.63534">
        <ele>547.4</ele>
        <time>2020-08-16T13:37:38Z</time>
      </trkpt>
      <trkpt lat="45.93104" lon="6.6353">
        <ele>547.6</ele>
        <time>2020-08-16T13:37:39Z</time>
      </trkpt>
      <trkpt lat="45.93107" lon="6.63525">
        <ele>547.6</ele>
        <time>2020-08-16T13:37:40Z</time>
      </trkpt>
      <trkpt lat="45.9311" lon="6.63521">
        <ele>547.8</ele>
        <time>2020-08-16T13:37:41Z</time>
      </trkpt>
      <trkpt lat="45.93113" lon="6.63516">
        <ele>547.8</ele>
        <time>2020-08-16T13:37:42Z</time>
      </trkpt>
      <trkpt lat="45.93116" lon="6.63511">
        <ele>547.8</ele>
        <time>2020-08-16T13:37:43Z</time>
      </trkpt>
      <trkpt lat="45.93119" lon="6.63507">
        <ele>547.8</ele>
        <time>2020-08-16T13:37:44Z</time>
      </trkpt>
      <trkpt lat="45.93122" lon="6.63502">
        <ele>547.8</ele>
        <time>2020-08-16T13:37:45Z</time>
      </trkpt>
      <trkpt lat="45.93126" lon="6.63498">
        <ele>548</ele>
        <time>2020-08-16T13:37:46Z</time>
      </trkpt>
      <trkpt lat="45.93129" lon="6.63494">
        <ele>548</ele>
        <time>2020-08-16T13:37:47Z</time>
      </trkpt>
      <trkpt lat="45.93132" lon="6.63489">
        <ele>548</ele>
        <time>2020-08-16T13:37:48Z</time>
      </trkpt>
      <trkpt lat="45.93135" lon="6.63485">
        <ele>548</ele>
        <time>2020-08-16T13:37:49Z</time>
      </trkpt>
      <trkpt lat="45.93138" lon="6.6348">
        <ele>548</ele>
        <time>2020-08-16T13:37:50Z</time>
      </trkpt>
      <trkpt lat="45.93141" lon="6.63476">
        <ele>548</ele>
        <time>2020-08-16T13:37:51Z</time>
      </trkpt>
      <trkpt lat="45.93144" lon="6.63472">
        <ele>548.2</ele>
        <time>2020-08-16T13:37:52Z</time>
      </trkpt>
      <trkpt lat="45.93147" lon="6.63468">
        <ele>548.4</ele>
        <time>2020-08-16T13:37:53Z</time>
      </trkpt>
      <trkpt lat="45.9315" lon="6.63464">
        <ele>548.4</ele>
        <time>2020-08-16T13:37:54Z</time>
      </trkpt>
      <trkpt lat="45.93153" lon="6.6346">
        <ele>548.4</ele>
        <time>2020-08-16T13:37:55Z</time>
      </trkpt>
      <trkpt lat="45.93156" lon="6.63456">
        <ele>548.6</ele>
        <time>2020-08-16T13:37:56Z</time>
      </trkpt>
      <trkpt lat="45.93159" lon="6.63452">
        <ele>548.6</ele>
        <time>2020-08-16T13:37:57Z</time>
      </trkpt>
      <trkpt lat="45.93162" lon="6.63448">
        <ele>548.6</ele>
        <time>2020-08-16T13:37:58Z</time>
      </trkpt>
      <trkpt lat="45.93165" lon="6.63444">
        <ele>548.8</ele>
        <time>2020-08-16T13:37:59Z</time>
      </trkpt>
      <trkpt lat="45.93168" lon="6.6344">
        <ele>549</ele>
        <time>2020-08-16T13:38:00Z</time>
      </trkpt>
      <trkpt lat="45.93171" lon="6.63437">
        <ele>549</ele>
        <time>2020-08-16T13:38:01Z</time>
      </trkpt>
      <trkpt lat="45.93174" lon="6.63433">
        <ele>549</ele>
        <time>2020-08-16T13:38:02Z</time>
      </trkpt>
      <trkpt lat="45.93177" lon="6.63429">
        <ele>549.2</ele>
        <time>2020-08-16T13:38:03Z</time>
      </trkpt>
      <trkpt lat="45.9318" lon="6.63426">
        <ele>549.2</ele>
        <time>2020-08-16T13:38:04Z</time>
      </trkpt>
      <trkpt lat="45.93183" lon="6.63423">
        <ele>549.4</ele>
        <time>2020-08-16T13:38:05Z</time>
      </trkpt>
      <trkpt lat="45.93186" lon="6.63419">
        <ele>549.4</ele>
        <time>2020-08-16T13:38:06Z</time>
      </trkpt>
      <trkpt lat="45.93189" lon="6.63416">
        <ele>549.4</ele>
        <time>2020-08-16T13:38:07Z</time>
      </trkpt>
      <trkpt lat="45.93192" lon="6.63412">
        <ele>549.4</ele>
        <time>2020-08-16T13:38:08Z</time>
      </trkpt>
      <trkpt lat="45.93195" lon="6.63409">
        <ele>549.6</ele>
        <time>2020-08-16T13:38:09Z</time>
      </trkpt>
      <trkpt lat="45.93198" lon="6.63405">
        <ele>549.6</ele>
        <time>2020-08-16T13:38:10Z</time>
      </trkpt>
      <trkpt lat="45.93201" lon="6.63401">
        <ele>549.6</ele>
        <time>2020-08-16T13:38:11Z</time>
      </trkpt>
      <trkpt lat="45.93204" lon="6.63397">
        <ele>549.6</ele>
        <time>2020-08-16T13:38:12Z</time>
      </trkpt>
      <trkpt lat="45.93207" lon="6.63394">
        <ele>549.6</ele>
        <time>2020-08-16T13:38:13Z</time>
      </trkpt>
      <trkpt lat="45.9321" lon="6.6339">
        <ele>549.6</ele>
        <time>2020-08-16T13:38:14Z</time>
      </trkpt>
      <trkpt lat="45.93213" lon="6.63386">
        <ele>549.6</ele>
        <time>2020-08-16T13:38:15Z</time>
      </trkpt>
      <trkpt lat="45.93216" lon="6.63383">
        <ele>549.8</ele>
        <time>2020-08-16T13:38:16Z</time>
      </trkpt>
      <trkpt lat="45.93219" lon="6.63379">
        <ele>549.8</ele>
        <time>2020-08-16T13:38:17Z</time>
      </trkpt>
      <trkpt lat="45.93222" lon="6.63376">
        <ele>550</ele>
        <time>2020-08-16T13:38:18Z</time>
      </trkpt>
      <trkpt lat="45.93225" lon="6.63372">
        <ele>550.2</ele>
        <time>2020-08-16T13:38:19Z</time>
      </trkpt>
      <trkpt lat="45.93228" lon="6.63368">
        <ele>550.4</ele>
        <time>2020-08-16T13:38:20Z</time>
      </trkpt>
      <trkpt lat="45.93231" lon="6.63365">
        <ele>550.4</ele>
        <time>2020-08-16T13:38:21Z</time>
      </trkpt>
      <trkpt lat="45.93234" lon="6.63361">
        <ele>550.4</ele>
        <time>2020-08-16T13:38:22Z</time>
      </trkpt>
      <trkpt lat="45.93237" lon="6.63357">
        <ele>550.4</ele>
        <time>2020-08-16T13:38:23Z</time>
      </trkpt>
      <trkpt lat="45.9324" lon="6.63354">
        <ele>550.6</ele>
        <time>2020-08-16T13:38:24Z</time>
      </trkpt>
      <trkpt lat="45.93243" lon="6.6335">
        <ele>550.8</ele>
        <time>2020-08-16T13:38:25Z</time>
      </trkpt>
      <trkpt lat="45.93246" lon="6.63347">
        <ele>550.8</ele>
        <time>2020-08-16T13:38:26Z</time>
      </trkpt>
      <trkpt lat="45.93249" lon="6.63343">
        <ele>550.8</ele>
        <time>2020-08-16T13:38:27Z</time>
      </trkpt>
      <trkpt lat="45.93252" lon="6.6334">
        <ele>550.6</ele>
        <time>2020-08-16T13:38:28Z</time>
      </trkpt>
      <trkpt lat="45.93254" lon="6.63337">
        <ele>550.8</ele>
        <time>2020-08-16T13:38:29Z</time>
      </trkpt>
      <trkpt lat="45.93257" lon="6.63333">
        <ele>551.4</ele>
        <time>2020-08-16T13:38:30Z</time>
      </trkpt>
      <trkpt lat="45.9326" lon="6.6333">
        <ele>551</ele>
        <time>2020-08-16T13:38:31Z</time>
      </trkpt>
      <trkpt lat="45.93263" lon="6.63326">
        <ele>551.4</ele>
        <time>2020-08-16T13:38:32Z</time>
      </trkpt>
      <trkpt lat="45.93266" lon="6.63323">
        <ele>551.4</ele>
        <time>2020-08-16T13:38:33Z</time>
      </trkpt>
      <trkpt lat="45.93269" lon="6.63319">
        <ele>551.4</ele>
        <time>2020-08-16T13:38:34Z</time>
      </trkpt>
      <trkpt lat="45.93272" lon="6.63316">
        <ele>551</ele>
        <time>2020-08-16T13:38:35Z</time>
      </trkpt>
      <trkpt lat="45.93275" lon="6.63312">
        <ele>551.4</ele>
        <time>2020-08-16T13:38:36Z</time>
      </trkpt>
      <trkpt lat="45.93278" lon="6.63309">
        <ele>551.2</ele>
        <time>2020-08-16T13:38:37Z</time>
      </trkpt>
      <trkpt lat="45.93281" lon="6.63305">
        <ele>552</ele>
        <time>2020-08-16T13:38:38Z</time>
      </trkpt>
      <trkpt lat="45.93284" lon="6.63301">
        <ele>551.8</ele>
        <time>2020-08-16T13:38:39Z</time>
      </trkpt>
      <trkpt lat="45.93287" lon="6.63298">
        <ele>551.6</ele>
        <time>2020-08-16T13:38:40Z</time>
      </trkpt>
      <trkpt lat="45.9329" lon="6.63294">
        <ele>551.6</ele>
        <time>2020-08-16T13:38:41Z</time>
      </trkpt>
      <trkpt lat="45.93293" lon="6.63291">
        <ele>552.2</ele>
        <time>2020-08-16T13:38:42Z</time>
      </trkpt>
      <trkpt lat="45.93295" lon="6.63287">
        <ele>552</ele>
        <time>2020-08-16T13:38:43Z</time>
      </trkpt>
      <trkpt lat="45.93299" lon="6.63284">
        <ele>552</ele>
        <time>2020-08-16T13:38:44Z</time>
      </trkpt>
      <trkpt lat="45.93302" lon="6.6328">
        <ele>552</ele>
        <time>2020-08-16T13:38:45Z</time>
      </trkpt>
      <trkpt lat="45.93305" lon="6.63276">
        <ele>552</ele>
        <time>2020-08-16T13:38:46Z</time>
      </trkpt>
      <trkpt lat="45.93308" lon="6.63272">
        <ele>552.2</ele>
        <time>2020-08-16T13:38:47Z</time>
      </trkpt>
      <trkpt lat="45.93311" lon="6.63267">
        <ele>552.2</ele>
        <time>2020-08-16T13:38:48Z</time>
      </trkpt>
      <trkpt lat="45.93314" lon="6.63264">
        <ele>552.4</ele>
        <time>2020-08-16T13:38:49Z</time>
      </trkpt>
      <trkpt lat="45.93317" lon="6.6326">
        <ele>552.4</ele>
        <time>2020-08-16T13:38:50Z</time>
      </trkpt>
      <trkpt lat="45.9332" lon="6.63255">
        <ele>552.4</ele>
        <time>2020-08-16T13:38:51Z</time>
      </trkpt>
      <trkpt lat="45.93322" lon="6.63251">
        <ele>552.6</ele>
        <time>2020-08-16T13:38:52Z</time>
      </trkpt>
      <trkpt lat="45.93325" lon="6.63247">
        <ele>552.6</ele>
        <time>2020-08-16T13:38:53Z</time>
      </trkpt>
      <trkpt lat="45.93328" lon="6.63243">
        <ele>552.6</ele>
        <time>2020-08-16T13:38:54Z</time>
      </trkpt>
      <trkpt lat="45.93332" lon="6.6324">
        <ele>552.8</ele>
        <time>2020-08-16T13:38:55Z</time>
      </trkpt>
      <trkpt lat="45.93336" lon="6.63239">
        <ele>553</ele>
        <time>2020-08-16T13:38:56Z</time>
      </trkpt>
      <trkpt lat="45.9334" lon="6.63238">
        <ele>553</ele>
        <time>2020-08-16T13:38:57Z</time>
      </trkpt>
      <trkpt lat="45.93344" lon="6.63237">
        <ele>553</ele>
        <time>2020-08-16T13:38:58Z</time>
      </trkpt>
      <trkpt lat="45.93347" lon="6.63235">
        <ele>553</ele>
        <time>2020-08-16T13:38:59Z</time>
      </trkpt>
      <trkpt lat="45.93351" lon="6.63234">
        <ele>553.2</ele>
        <time>2020-08-16T13:39:00Z</time>
      </trkpt>
      <trkpt lat="45.93355" lon="6.63233">
        <ele>553.2</ele>
        <time>2020-08-16T13:39:01Z</time>
      </trkpt>
      <trkpt lat="45.93359" lon="6.63231">
        <ele>553.2</ele>
        <time>2020-08-16T13:39:02Z</time>
      </trkpt>
      <trkpt lat="45.93362" lon="6.6323">
        <ele>553.2</ele>
        <time>2020-08-16T13:39:03Z</time>
      </trkpt>
      <trkpt lat="45.93366" lon="6.63229">
        <ele>553.2</ele>
        <time>2020-08-16T13:39:04Z</time>
      </trkpt>
      <trkpt lat="45.9337" lon="6.63227">
        <ele>553.4</ele>
        <time>2020-08-16T13:39:05Z</time>
      </trkpt>
      <trkpt lat="45.93374" lon="6.63226">
        <ele>553.4</ele>
        <time>2020-08-16T13:39:06Z</time>
      </trkpt>
      <trkpt lat="45.93378" lon="6.63225">
        <ele>553.6</ele>
        <time>2020-08-16T13:39:07Z</time>
      </trkpt>
      <trkpt lat="45.93381" lon="6.63224">
        <ele>553.6</ele>
        <time>2020-08-16T13:39:08Z</time>
      </trkpt>
      <trkpt lat="45.93385" lon="6.63222">
        <ele>553.8</ele>
        <time>2020-08-16T13:39:09Z</time>
      </trkpt>
      <trkpt lat="45.93389" lon="6.63221">
        <ele>553.6</ele>
        <time>2020-08-16T13:39:10Z</time>
      </trkpt>
      <trkpt lat="45.93392" lon="6.6322">
        <ele>553.8</ele>
        <time>2020-08-16T13:39:11Z</time>
      </trkpt>
      <trkpt lat="45.93396" lon="6.63219">
        <ele>553.8</ele>
        <time>2020-08-16T13:39:12Z</time>
      </trkpt>
      <trkpt lat="45.934" lon="6.63218">
        <ele>554.2</ele>
        <time>2020-08-16T13:39:13Z</time>
      </trkpt>
      <trkpt lat="45.93404" lon="6.63217">
        <ele>554.2</ele>
        <time>2020-08-16T13:39:14Z</time>
      </trkpt>
      <trkpt lat="45.93408" lon="6.63216">
        <ele>554.2</ele>
        <time>2020-08-16T13:39:15Z</time>
      </trkpt>
      <trkpt lat="45.93412" lon="6.63215">
        <ele>554.4</ele>
        <time>2020-08-16T13:39:16Z</time>
      </trkpt>
      <trkpt lat="45.93415" lon="6.63214">
        <ele>554.4</ele>
        <time>2020-08-16T13:39:17Z</time>
      </trkpt>
      <trkpt lat="45.93419" lon="6.63213">
        <ele>554.2</ele>
        <time>2020-08-16T13:39:18Z</time>
      </trkpt>
      <trkpt lat="45.93423" lon="6.63211">
        <ele>554.2</ele>
        <time>2020-08-16T13:39:19Z</time>
      </trkpt>
      <trkpt lat="45.93426" lon="6.6321">
        <ele>554.2</ele>
        <time>2020-08-16T13:39:20Z</time>
      </trkpt>
      <trkpt lat="45.9343" lon="6.63209">
        <ele>554.2</ele>
        <time>2020-08-16T13:39:21Z</time>
      </trkpt>
      <trkpt lat="45.93434" lon="6.63207">
        <ele>554.4</ele>
        <time>2020-08-16T13:39:22Z</time>
      </trkpt>
      <trkpt lat="45.93438" lon="6.63206">
        <ele>554.4</ele>
        <time>2020-08-16T13:39:23Z</time>
      </trkpt>
      <trkpt lat="45.93442" lon="6.63205">
        <ele>554.6</ele>
        <time>2020-08-16T13:39:24Z</time>
      </trkpt>
      <trkpt lat="45.93446" lon="6.63203">
        <ele>555</ele>
        <time>2020-08-16T13:39:25Z</time>
      </trkpt>
      <trkpt lat="45.9345" lon="6.63202">
        <ele>555</ele>
        <time>2020-08-16T13:39:26Z</time>
      </trkpt>
      <trkpt lat="45.93454" lon="6.63201">
        <ele>555</ele>
        <time>2020-08-16T13:39:27Z</time>
      </trkpt>
      <trkpt lat="45.93458" lon="6.632">
        <ele>555</ele>
        <time>2020-08-16T13:39:28Z</time>
      </trkpt>
      <trkpt lat="45.93462" lon="6.63198">
        <ele>555</ele>
        <time>2020-08-16T13:39:29Z</time>
      </trkpt>
      <trkpt lat="45.93466" lon="6.63197">
        <ele>555.2</ele>
        <time>2020-08-16T13:39:30Z</time>
      </trkpt>
      <trkpt lat="45.93469" lon="6.63196">
        <ele>555.2</ele>
        <time>2020-08-16T13:39:31Z</time>
      </trkpt>
      <trkpt lat="45.93473" lon="6.63195">
        <ele>555</ele>
        <time>2020-08-16T13:39:32Z</time>
      </trkpt>
      <trkpt lat="45.93477" lon="6.63194">
        <ele>555</ele>
        <time>2020-08-16T13:39:33Z</time>
      </trkpt>
      <trkpt lat="45.93481" lon="6.63192">
        <ele>555</ele>
        <time>2020-08-16T13:39:34Z</time>
      </trkpt>
      <trkpt lat="45.93485" lon="6.63191">
        <ele>555</ele>
        <time>2020-08-16T13:39:35Z</time>
      </trkpt>
      <trkpt lat="45.93489" lon="6.6319">
        <ele>555.2</ele>
        <time>2020-08-16T13:39:36Z</time>
      </trkpt>
      <trkpt lat="45.93492" lon="6.63189">
        <ele>555.4</ele>
        <time>2020-08-16T13:39:37Z</time>
      </trkpt>
      <trkpt lat="45.93496" lon="6.63187">
        <ele>555.4</ele>
        <time>2020-08-16T13:39:38Z</time>
      </trkpt>
      <trkpt lat="45.935" lon="6.63187">
        <ele>555.8</ele>
        <time>2020-08-16T13:39:39Z</time>
      </trkpt>
      <trkpt lat="45.93504" lon="6.63186">
        <ele>555.6</ele>
        <time>2020-08-16T13:39:40Z</time>
      </trkpt>
      <trkpt lat="45.93508" lon="6.63184">
        <ele>555.4</ele>
        <time>2020-08-16T13:39:41Z</time>
      </trkpt>
      <trkpt lat="45.93513" lon="6.63182">
        <ele>555.4</ele>
        <time>2020-08-16T13:39:42Z</time>
      </trkpt>
      <trkpt lat="45.93517" lon="6.63181">
        <ele>555.6</ele>
        <time>2020-08-16T13:39:43Z</time>
      </trkpt>
      <trkpt lat="45.93522" lon="6.63179">
        <ele>555.4</ele>
        <time>2020-08-16T13:39:44Z</time>
      </trkpt>
      <trkpt lat="45.93526" lon="6.63177">
        <ele>555.6</ele>
        <time>2020-08-16T13:39:45Z</time>
      </trkpt>
      <trkpt lat="45.93531" lon="6.63176">
        <ele>555.8</ele>
        <time>2020-08-16T13:39:46Z</time>
      </trkpt>
      <trkpt lat="45.93535" lon="6.63174">
        <ele>555.6</ele>
        <time>2020-08-16T13:39:47Z</time>
      </trkpt>
      <trkpt lat="45.93539" lon="6.63172">
        <ele>555.8</ele>
        <time>2020-08-16T13:39:48Z</time>
      </trkpt>
      <trkpt lat="45.93543" lon="6.6317">
        <ele>555.8</ele>
        <time>2020-08-16T13:39:49Z</time>
      </trkpt>
      <trkpt lat="45.93548" lon="6.63168">
        <ele>555.8</ele>
        <time>2020-08-16T13:39:50Z</time>
      </trkpt>
      <trkpt lat="45.93552" lon="6.63166">
        <ele>556</ele>
        <time>2020-08-16T13:39:51Z</time>
      </trkpt>
      <trkpt lat="45.93556" lon="6.63165">
        <ele>556</ele>
        <time>2020-08-16T13:39:52Z</time>
      </trkpt>
      <trkpt lat="45.93561" lon="6.63163">
        <ele>556</ele>
        <time>2020-08-16T13:39:53Z</time>
      </trkpt>
      <trkpt lat="45.93565" lon="6.63161">
        <ele>556</ele>
        <time>2020-08-16T13:39:54Z</time>
      </trkpt>
      <trkpt lat="45.93569" lon="6.6316">
        <ele>556</ele>
        <time>2020-08-16T13:39:55Z</time>
      </trkpt>
      <trkpt lat="45.93573" lon="6.63158">
        <ele>556</ele>
        <time>2020-08-16T13:39:56Z</time>
      </trkpt>
      <trkpt lat="45.93577" lon="6.63156">
        <ele>556.2</ele>
        <time>2020-08-16T13:39:57Z</time>
      </trkpt>
      <trkpt lat="45.93582" lon="6.63155">
        <ele>556.2</ele>
        <time>2020-08-16T13:39:58Z</time>
      </trkpt>
      <trkpt lat="45.93586" lon="6.63153">
        <ele>556</ele>
        <time>2020-08-16T13:39:59Z</time>
      </trkpt>
      <trkpt lat="45.9359" lon="6.63151">
        <ele>556.2</ele>
        <time>2020-08-16T13:40:00Z</time>
      </trkpt>
      <trkpt lat="45.93594" lon="6.63149">
        <ele>556</ele>
        <time>2020-08-16T13:40:01Z</time>
      </trkpt>
      <trkpt lat="45.93598" lon="6.63147">
        <ele>556</ele>
        <time>2020-08-16T13:40:02Z</time>
      </trkpt>
      <trkpt lat="45.93602" lon="6.63145">
        <ele>556.4</ele>
        <time>2020-08-16T13:40:03Z</time>
      </trkpt>
      <trkpt lat="45.93606" lon="6.63144">
        <ele>556.4</ele>
        <time>2020-08-16T13:40:04Z</time>
      </trkpt>
      <trkpt lat="45.9361" lon="6.63142">
        <ele>556.2</ele>
        <time>2020-08-16T13:40:05Z</time>
      </trkpt>
      <trkpt lat="45.93615" lon="6.6314">
        <ele>556.2</ele>
        <time>2020-08-16T13:40:06Z</time>
      </trkpt>
      <trkpt lat="45.93619" lon="6.63137">
        <ele>556.2</ele>
        <time>2020-08-16T13:40:07Z</time>
      </trkpt>
      <trkpt lat="45.93622" lon="6.63135">
        <ele>556.4</ele>
        <time>2020-08-16T13:40:08Z</time>
      </trkpt>
      <trkpt lat="45.93626" lon="6.63133">
        <ele>556.8</ele>
        <time>2020-08-16T13:40:09Z</time>
      </trkpt>
      <trkpt lat="45.93629" lon="6.63131">
        <ele>556.8</ele>
        <time>2020-08-16T13:40:10Z</time>
      </trkpt>
      <trkpt lat="45.93632" lon="6.6313">
        <ele>557.2</ele>
        <time>2020-08-16T13:40:11Z</time>
      </trkpt>
      <trkpt lat="45.93636" lon="6.63129">
        <ele>557.2</ele>
        <time>2020-08-16T13:40:12Z</time>
      </trkpt>
      <trkpt lat="45.93639" lon="6.63129">
        <ele>557</ele>
        <time>2020-08-16T13:40:13Z</time>
      </trkpt>
      <trkpt lat="45.93642" lon="6.63128">
        <ele>556.8</ele>
        <time>2020-08-16T13:40:14Z</time>
      </trkpt>
      <trkpt lat="45.93645" lon="6.63127">
        <ele>556.8</ele>
        <time>2020-08-16T13:40:15Z</time>
      </trkpt>
      <trkpt lat="45.93649" lon="6.63126">
        <ele>556.8</ele>
        <time>2020-08-16T13:40:16Z</time>
      </trkpt>
      <trkpt lat="45.93653" lon="6.63124">
        <ele>556.8</ele>
        <time>2020-08-16T13:40:17Z</time>
      </trkpt>
      <trkpt lat="45.93656" lon="6.63123">
        <ele>556.8</ele>
        <time>2020-08-16T13:40:18Z</time>
      </trkpt>
      <trkpt lat="45.9366" lon="6.63122">
        <ele>556.8</ele>
        <time>2020-08-16T13:40:19Z</time>
      </trkpt>
      <trkpt lat="45.93663" lon="6.63119">
        <ele>556.6</ele>
        <time>2020-08-16T13:40:20Z</time>
      </trkpt>
      <trkpt lat="45.93664" lon="6.63114">
        <ele>556.6</ele>
        <time>2020-08-16T13:40:21Z</time>
      </trkpt>
      <trkpt lat="45.93664" lon="6.6311">
        <ele>556.8</ele>
        <time>2020-08-16T13:40:22Z</time>
      </trkpt>
      <trkpt lat="45.93663" lon="6.63105">
        <ele>557</ele>
        <time>2020-08-16T13:40:23Z</time>
      </trkpt>
      <trkpt lat="45.93663" lon="6.63099">
        <ele>557</ele>
        <time>2020-08-16T13:40:24Z</time>
      </trkpt>
      <trkpt lat="45.93662" lon="6.63094">
        <ele>557</ele>
        <time>2020-08-16T13:40:25Z</time>
      </trkpt>
      <trkpt lat="45.93661" lon="6.63089">
        <ele>557</ele>
        <time>2020-08-16T13:40:26Z</time>
      </trkpt>
      <trkpt lat="45.9366" lon="6.63083">
        <ele>557</ele>
        <time>2020-08-16T13:40:27Z</time>
      </trkpt>
      <trkpt lat="45.93658" lon="6.63078">
        <ele>557.2</ele>
        <time>2020-08-16T13:40:28Z</time>
      </trkpt>
      <trkpt lat="45.93657" lon="6.63072">
        <ele>557.2</ele>
        <time>2020-08-16T13:40:29Z</time>
      </trkpt>
      <trkpt lat="45.93655" lon="6.63067">
        <ele>557.2</ele>
        <time>2020-08-16T13:40:30Z</time>
      </trkpt>
      <trkpt lat="45.93654" lon="6.63061">
        <ele>557.2</ele>
        <time>2020-08-16T13:40:31Z</time>
      </trkpt>
      <trkpt lat="45.93653" lon="6.63055">
        <ele>557.4</ele>
        <time>2020-08-16T13:40:32Z</time>
      </trkpt>
      <trkpt lat="45.93653" lon="6.63049">
        <ele>557.6</ele>
        <time>2020-08-16T13:40:33Z</time>
      </trkpt>
      <trkpt lat="45.93653" lon="6.63043">
        <ele>557.8</ele>
        <time>2020-08-16T13:40:34Z</time>
      </trkpt>
      <trkpt lat="45.93653" lon="6.63037">
        <ele>558</ele>
        <time>2020-08-16T13:40:35Z</time>
      </trkpt>
      <trkpt lat="45.93652" lon="6.63031">
        <ele>558.2</ele>
        <time>2020-08-16T13:40:36Z</time>
      </trkpt>
      <trkpt lat="45.93651" lon="6.63025">
        <ele>558.2</ele>
        <time>2020-08-16T13:40:37Z</time>
      </trkpt>
      <trkpt lat="45.93651" lon="6.63019">
        <ele>558.2</ele>
        <time>2020-08-16T13:40:38Z</time>
      </trkpt>
      <trkpt lat="45.9365" lon="6.63014">
        <ele>558.2</ele>
        <time>2020-08-16T13:40:39Z</time>
      </trkpt>
      <trkpt lat="45.9365" lon="6.63008">
        <ele>558.2</ele>
        <time>2020-08-16T13:40:40Z</time>
      </trkpt>
      <trkpt lat="45.93649" lon="6.63002">
        <ele>558</ele>
        <time>2020-08-16T13:40:41Z</time>
      </trkpt>
      <trkpt lat="45.93649" lon="6.62996">
        <ele>558</ele>
        <time>2020-08-16T13:40:42Z</time>
      </trkpt>
      <trkpt lat="45.93649" lon="6.6299">
        <ele>558</ele>
        <time>2020-08-16T13:40:43Z</time>
      </trkpt>
      <trkpt lat="45.93648" lon="6.62985">
        <ele>558.2</ele>
        <time>2020-08-16T13:40:44Z</time>
      </trkpt>
      <trkpt lat="45.93647" lon="6.62979">
        <ele>558.4</ele>
        <time>2020-08-16T13:40:45Z</time>
      </trkpt>
      <trkpt lat="45.93646" lon="6.62973">
        <ele>558.6</ele>
        <time>2020-08-16T13:40:46Z</time>
      </trkpt>
      <trkpt lat="45.93645" lon="6.62967">
        <ele>558.6</ele>
        <time>2020-08-16T13:40:47Z</time>
      </trkpt>
      <trkpt lat="45.93644" lon="6.62962">
        <ele>558.8</ele>
        <time>2020-08-16T13:40:48Z</time>
      </trkpt>
      <trkpt lat="45.93644" lon="6.62957">
        <ele>559</ele>
        <time>2020-08-16T13:40:49Z</time>
      </trkpt>
      <trkpt lat="45.93643" lon="6.62952">
        <ele>559.2</ele>
        <time>2020-08-16T13:40:50Z</time>
      </trkpt>
      <trkpt lat="45.93641" lon="6.62946">
        <ele>559.2</ele>
        <time>2020-08-16T13:40:51Z</time>
      </trkpt>
      <trkpt lat="45.9364" lon="6.62942">
        <ele>559.2</ele>
        <time>2020-08-16T13:40:52Z</time>
      </trkpt>
      <trkpt lat="45.93641" lon="6.62939">
        <ele>559.4</ele>
        <time>2020-08-16T13:40:53Z</time>
      </trkpt>
      <trkpt lat="45.93642" lon="6.62939">
        <ele>559.4</ele>
        <time>2020-08-16T13:40:54Z</time>
      </trkpt>
      <trkpt lat="45.93644" lon="6.62939">
        <ele>559.4</ele>
        <time>2020-08-16T13:40:55Z</time>
      </trkpt>
      <trkpt lat="45.93646" lon="6.62938">
        <ele>559.2</ele>
        <time>2020-08-16T13:40:56Z</time>
      </trkpt>
      <trkpt lat="45.93649" lon="6.62936">
        <ele>559.2</ele>
        <time>2020-08-16T13:40:57Z</time>
      </trkpt>
      <trkpt lat="45.93651" lon="6.62935">
        <ele>559.2</ele>
        <time>2020-08-16T13:40:58Z</time>
      </trkpt>
      <trkpt lat="45.93655" lon="6.62933">
        <ele>559.2</ele>
        <time>2020-08-16T13:40:59Z</time>
      </trkpt>
      <trkpt lat="45.93658" lon="6.62932">
        <ele>559.2</ele>
        <time>2020-08-16T13:41:00Z</time>
      </trkpt>
      <trkpt lat="45.93661" lon="6.62931">
        <ele>559</ele>
        <time>2020-08-16T13:41:01Z</time>
      </trkpt>
      <trkpt lat="45.93665" lon="6.6293">
        <ele>559</ele>
        <time>2020-08-16T13:41:02Z</time>
      </trkpt>
      <trkpt lat="45.93669" lon="6.62929">
        <ele>559.2</ele>
        <time>2020-08-16T13:41:03Z</time>
      </trkpt>
      <trkpt lat="45.93673" lon="6.62928">
        <ele>559</ele>
        <time>2020-08-16T13:41:04Z</time>
      </trkpt>
      <trkpt lat="45.93677" lon="6.62926">
        <ele>559</ele>
        <time>2020-08-16T13:41:05Z</time>
      </trkpt>
      <trkpt lat="45.93681" lon="6.62925">
        <ele>559</ele>
        <time>2020-08-16T13:41:06Z</time>
      </trkpt>
      <trkpt lat="45.93685" lon="6.62924">
        <ele>559</ele>
        <time>2020-08-16T13:41:07Z</time>
      </trkpt>
      <trkpt lat="45.93688" lon="6.62923">
        <ele>558.8</ele>
        <time>2020-08-16T13:41:08Z</time>
      </trkpt>
      <trkpt lat="45.93692" lon="6.62923">
        <ele>558.8</ele>
        <time>2020-08-16T13:41:09Z</time>
      </trkpt>
      <trkpt lat="45.93695" lon="6.62922">
        <ele>558.8</ele>
        <time>2020-08-16T13:41:10Z</time>
      </trkpt>
      <trkpt lat="45.93698" lon="6.6292">
        <ele>558.8</ele>
        <time>2020-08-16T13:41:11Z</time>
      </trkpt>
      <trkpt lat="45.93701" lon="6.62919">
        <ele>559</ele>
        <time>2020-08-16T13:41:12Z</time>
      </trkpt>
      <trkpt lat="45.93705" lon="6.62917">
        <ele>559.2</ele>
        <time>2020-08-16T13:41:13Z</time>
      </trkpt>
      <trkpt lat="45.93708" lon="6.62916">
        <ele>559</ele>
        <time>2020-08-16T13:41:14Z</time>
      </trkpt>
      <trkpt lat="45.93713" lon="6.62914">
        <ele>559</ele>
        <time>2020-08-16T13:41:15Z</time>
      </trkpt>
      <trkpt lat="45.93717" lon="6.62913">
        <ele>559</ele>
        <time>2020-08-16T13:41:16Z</time>
      </trkpt>
      <trkpt lat="45.93721" lon="6.62912">
        <ele>559</ele>
        <time>2020-08-16T13:41:17Z</time>
      </trkpt>
      <trkpt lat="45.93725" lon="6.6291">
        <ele>559</ele>
        <time>2020-08-16T13:41:18Z</time>
      </trkpt>
      <trkpt lat="45.9373" lon="6.62909">
        <ele>559</ele>
        <time>2020-08-16T13:41:19Z</time>
      </trkpt>
      <trkpt lat="45.93734" lon="6.62907">
        <ele>559</ele>
        <time>2020-08-16T13:41:20Z</time>
      </trkpt>
      <trkpt lat="45.93738" lon="6.62905">
        <ele>558.8</ele>
        <time>2020-08-16T13:41:21Z</time>
      </trkpt>
      <trkpt lat="45.93743" lon="6.62904">
        <ele>558.8</ele>
        <time>2020-08-16T13:41:22Z</time>
      </trkpt>
      <trkpt lat="45.93747" lon="6.62902">
        <ele>559</ele>
        <time>2020-08-16T13:41:23Z</time>
      </trkpt>
      <trkpt lat="45.93751" lon="6.62901">
        <ele>559</ele>
        <time>2020-08-16T13:41:24Z</time>
      </trkpt>
      <trkpt lat="45.93755" lon="6.629">
        <ele>559.2</ele>
        <time>2020-08-16T13:41:25Z</time>
      </trkpt>
      <trkpt lat="45.93759" lon="6.62898">
        <ele>559.2</ele>
        <time>2020-08-16T13:41:26Z</time>
      </trkpt>
      <trkpt lat="45.9376" lon="6.62898">
        <ele>559.2</ele>
        <time>2020-08-16T13:41:27Z</time>
      </trkpt>
      <trkpt lat="45.93761" lon="6.62898">
        <ele>559.2</ele>
        <time>2020-08-16T13:41:28Z</time>
      </trkpt>
      <trkpt lat="45.93762" lon="6.62898">
        <ele>559.2</ele>
        <time>2020-08-16T13:41:29Z</time>
      </trkpt>
      <trkpt lat="45.93762" lon="6.62897">
        <ele>559.2</ele>
        <time>2020-08-16T13:41:30Z</time>
      </trkpt>
      <trkpt lat="45.93763" lon="6.62897">
        <ele>558.8</ele>
        <time>2020-08-16T13:41:31Z</time>
      </trkpt>
      <trkpt lat="45.93763" lon="6.62897">
        <ele>558.6</ele>
        <time>2020-08-16T13:41:32Z</time>
      </trkpt>
      <trkpt lat="45.93763" lon="6.62897">
        <ele>558.6</ele>
        <time>2020-08-16T13:41:33Z</time>
      </trkpt>
      <trkpt lat="45.93763" lon="6.62897">
        <ele>558.6</ele>
        <time>2020-08-16T13:41:34Z</time>
      </trkpt>
      <trkpt lat="45.93764" lon="6.62896">
        <ele>558.6</ele>
        <time>2020-08-16T13:41:35Z</time>
      </trkpt>
      <trkpt lat="45.93765" lon="6.62896">
        <ele>558.8</ele>
        <time>2020-08-16T13:41:36Z</time>
      </trkpt>
      <trkpt lat="45.93766" lon="6.62895">
        <ele>559</ele>
        <time>2020-08-16T13:41:37Z</time>
      </trkpt>
      <trkpt lat="45.93777" lon="6.62889">
        <ele>559</ele>
        <time>2020-08-16T13:41:44Z</time>
      </trkpt>
      <trkpt lat="45.93779" lon="6.6289">
        <ele>559</ele>
        <time>2020-08-16T13:41:45Z</time>
      </trkpt>
      <trkpt lat="45.9378" lon="6.62889">
        <ele>558.8</ele>
        <time>2020-08-16T13:41:46Z</time>
      </trkpt>
      <trkpt lat="45.9378" lon="6.62888">
        <ele>558.6</ele>
        <time>2020-08-16T13:41:47Z</time>
      </trkpt>
      <trkpt lat="45.9378" lon="6.62886">
        <ele>558.6</ele>
        <time>2020-08-16T13:41:48Z</time>
      </trkpt>
      <trkpt lat="45.93778" lon="6.62885">
        <ele>558.6</ele>
        <time>2020-08-16T13:41:49Z</time>
      </trkpt>
      <trkpt lat="45.93776" lon="6.62885">
        <ele>558.8</ele>
        <time>2020-08-16T13:41:50Z</time>
      </trkpt>
      <trkpt lat="45.93774" lon="6.62886">
        <ele>558.8</ele>
        <time>2020-08-16T13:41:51Z</time>
      </trkpt>
      <trkpt lat="45.93772" lon="6.62887">
        <ele>558.8</ele>
        <time>2020-08-16T13:41:52Z</time>
      </trkpt>
      <trkpt lat="45.93769" lon="6.62887">
        <ele>558.8</ele>
        <time>2020-08-16T13:41:53Z</time>
      </trkpt>
      <trkpt lat="45.93767" lon="6.62885">
        <ele>559</ele>
        <time>2020-08-16T13:41:54Z</time>
      </trkpt>
      <trkpt lat="45.93766" lon="6.62881">
        <ele>559.2</ele>
        <time>2020-08-16T13:41:55Z</time>
      </trkpt>
      <trkpt lat="45.93765" lon="6.62876">
        <ele>559</ele>
        <time>2020-08-16T13:41:56Z</time>
      </trkpt>
      <trkpt lat="45.93764" lon="6.62872">
        <ele>559.2</ele>
        <time>2020-08-16T13:41:57Z</time>
      </trkpt>
      <trkpt lat="45.93763" lon="6.62867">
        <ele>559.6</ele>
        <time>2020-08-16T13:41:58Z</time>
      </trkpt>
      <trkpt lat="45.93763" lon="6.62863">
        <ele>559.6</ele>
        <time>2020-08-16T13:41:59Z</time>
      </trkpt>
      <trkpt lat="45.93762" lon="6.62859">
        <ele>560</ele>
        <time>2020-08-16T13:42:00Z</time>
      </trkpt>
      <trkpt lat="45.93761" lon="6.62854">
        <ele>560.2</ele>
        <time>2020-08-16T13:42:01Z</time>
      </trkpt>
      <trkpt lat="45.9376" lon="6.6285">
        <ele>560</ele>
        <time>2020-08-16T13:42:02Z</time>
      </trkpt>
      <trkpt lat="45.93759" lon="6.62845">
        <ele>560</ele>
        <time>2020-08-16T13:42:03Z</time>
      </trkpt>
      <trkpt lat="45.93758" lon="6.6284">
        <ele>560.2</ele>
        <time>2020-08-16T13:42:04Z</time>
      </trkpt>
      <trkpt lat="45.93757" lon="6.62834">
        <ele>560.6</ele>
        <time>2020-08-16T13:42:05Z</time>
      </trkpt>
      <trkpt lat="45.93756" lon="6.62829">
        <ele>560.8</ele>
        <time>2020-08-16T13:42:06Z</time>
      </trkpt>
      <trkpt lat="45.93755" lon="6.62823">
        <ele>561.2</ele>
        <time>2020-08-16T13:42:07Z</time>
      </trkpt>
      <trkpt lat="45.93754" lon="6.62818">
        <ele>561.2</ele>
        <time>2020-08-16T13:42:08Z</time>
      </trkpt>
      <trkpt lat="45.93754" lon="6.62812">
        <ele>561.4</ele>
        <time>2020-08-16T13:42:09Z</time>
      </trkpt>
      <trkpt lat="45.93753" lon="6.62807">
        <ele>561.4</ele>
        <time>2020-08-16T13:42:10Z</time>
      </trkpt>
      <trkpt lat="45.93752" lon="6.62802">
        <ele>561.4</ele>
        <time>2020-08-16T13:42:11Z</time>
      </trkpt>
      <trkpt lat="45.93751" lon="6.62796">
        <ele>561.4</ele>
        <time>2020-08-16T13:42:12Z</time>
      </trkpt>
      <trkpt lat="45.9375" lon="6.62791">
        <ele>561.6</ele>
        <time>2020-08-16T13:42:13Z</time>
      </trkpt>
      <trkpt lat="45.93749" lon="6.62785">
        <ele>561.8</ele>
        <time>2020-08-16T13:42:14Z</time>
      </trkpt>
      <trkpt lat="45.93748" lon="6.62779">
        <ele>562</ele>
        <time>2020-08-16T13:42:15Z</time>
      </trkpt>
      <trkpt lat="45.93748" lon="6.62774">
        <ele>562.2</ele>
        <time>2020-08-16T13:42:16Z</time>
      </trkpt>
      <trkpt lat="45.93747" lon="6.62768">
        <ele>562.4</ele>
        <time>2020-08-16T13:42:17Z</time>
      </trkpt>
      <trkpt lat="45.93746" lon="6.62763">
        <ele>562.6</ele>
        <time>2020-08-16T13:42:18Z</time>
      </trkpt>
      <trkpt lat="45.93745" lon="6.62758">
        <ele>562.8</ele>
        <time>2020-08-16T13:42:19Z</time>
      </trkpt>
      <trkpt lat="45.93744" lon="6.62753">
        <ele>562.8</ele>
        <time>2020-08-16T13:42:20Z</time>
      </trkpt>
      <trkpt lat="45.93743" lon="6.62748">
        <ele>563</ele>
        <time>2020-08-16T13:42:21Z</time>
      </trkpt>
      <trkpt lat="45.93742" lon="6.62743">
        <ele>563</ele>
        <time>2020-08-16T13:42:22Z</time>
      </trkpt>
      <trkpt lat="45.93741" lon="6.62739">
        <ele>563.2</ele>
        <time>2020-08-16T13:42:23Z</time>
      </trkpt>
      <trkpt lat="45.93741" lon="6.62734">
        <ele>563.4</ele>
        <time>2020-08-16T13:42:24Z</time>
      </trkpt>
      <trkpt lat="45.9374" lon="6.6273">
        <ele>563.8</ele>
        <time>2020-08-16T13:42:25Z</time>
      </trkpt>
      <trkpt lat="45.93739" lon="6.62725">
        <ele>563.8</ele>
        <time>2020-08-16T13:42:26Z</time>
      </trkpt>
      <trkpt lat="45.93738" lon="6.62721">
        <ele>564.2</ele>
        <time>2020-08-16T13:42:27Z</time>
      </trkpt>
      <trkpt lat="45.93738" lon="6.62717">
        <ele>564.4</ele>
        <time>2020-08-16T13:42:28Z</time>
      </trkpt>
      <trkpt lat="45.93739" lon="6.62714">
        <ele>564.4</ele>
        <time>2020-08-16T13:42:29Z</time>
      </trkpt>
      <trkpt lat="45.93742" lon="6.62712">
        <ele>564.2</ele>
        <time>2020-08-16T13:42:30Z</time>
      </trkpt>
      <trkpt lat="45.93744" lon="6.62711">
        <ele>564.2</ele>
        <time>2020-08-16T13:42:31Z</time>
      </trkpt>
      <trkpt lat="45.93747" lon="6.6271">
        <ele>564</ele>
        <time>2020-08-16T13:42:32Z</time>
      </trkpt>
      <trkpt lat="45.93749" lon="6.62709">
        <ele>564</ele>
        <time>2020-08-16T13:42:33Z</time>
      </trkpt>
      <trkpt lat="45.93752" lon="6.62709">
        <ele>563.8</ele>
        <time>2020-08-16T13:42:34Z</time>
      </trkpt>
      <trkpt lat="45.93756" lon="6.62709">
        <ele>563.8</ele>
        <time>2020-08-16T13:42:35Z</time>
      </trkpt>
      <trkpt lat="45.9376" lon="6.62709">
        <ele>563.8</ele>
        <time>2020-08-16T13:42:36Z</time>
      </trkpt>
      <trkpt lat="45.93764" lon="6.62708">
        <ele>563.6</ele>
        <time>2020-08-16T13:42:37Z</time>
      </trkpt>
      <trkpt lat="45.9377" lon="6.62708">
        <ele>563.4</ele>
        <time>2020-08-16T13:42:38Z</time>
      </trkpt>
      <trkpt lat="45.93775" lon="6.62706">
        <ele>563.2</ele>
        <time>2020-08-16T13:42:39Z</time>
      </trkpt>
      <trkpt lat="45.9378" lon="6.62705">
        <ele>563.2</ele>
        <time>2020-08-16T13:42:40Z</time>
      </trkpt>
      <trkpt lat="45.93784" lon="6.62704">
        <ele>563.2</ele>
        <time>2020-08-16T13:42:41Z</time>
      </trkpt>
      <trkpt lat="45.93789" lon="6.62704">
        <ele>563.2</ele>
        <time>2020-08-16T13:42:42Z</time>
      </trkpt>
      <trkpt lat="45.93793" lon="6.62705">
        <ele>562.8</ele>
        <time>2020-08-16T13:42:43Z</time>
      </trkpt>
      <trkpt lat="45.93799" lon="6.62705">
        <ele>563</ele>
        <time>2020-08-16T13:42:44Z</time>
      </trkpt>
      <trkpt lat="45.93804" lon="6.62705">
        <ele>562.8</ele>
        <time>2020-08-16T13:42:45Z</time>
      </trkpt>
      <trkpt lat="45.93809" lon="6.62705">
        <ele>562.6</ele>
        <time>2020-08-16T13:42:46Z</time>
      </trkpt>
      <trkpt lat="45.93814" lon="6.62705">
        <ele>562.4</ele>
        <time>2020-08-16T13:42:47Z</time>
      </trkpt>
      <trkpt lat="45.93819" lon="6.62705">
        <ele>562.4</ele>
        <time>2020-08-16T13:42:48Z</time>
      </trkpt>
      <trkpt lat="45.93825" lon="6.62705">
        <ele>562.4</ele>
        <time>2020-08-16T13:42:49Z</time>
      </trkpt>
      <trkpt lat="45.9383" lon="6.62705">
        <ele>562.6</ele>
        <time>2020-08-16T13:42:50Z</time>
      </trkpt>
      <trkpt lat="45.93836" lon="6.62705">
        <ele>562.8</ele>
        <time>2020-08-16T13:42:51Z</time>
      </trkpt>
      <trkpt lat="45.93841" lon="6.62705">
        <ele>562.8</ele>
        <time>2020-08-16T13:42:52Z</time>
      </trkpt>
      <trkpt lat="45.93847" lon="6.62705">
        <ele>562.6</ele>
        <time>2020-08-16T13:42:53Z</time>
      </trkpt>
      <trkpt lat="45.93853" lon="6.62706">
        <ele>562.4</ele>
        <time>2020-08-16T13:42:54Z</time>
      </trkpt>
      <trkpt lat="45.93858" lon="6.62706">
        <ele>562.2</ele>
        <time>2020-08-16T13:42:55Z</time>
      </trkpt>
      <trkpt lat="45.93863" lon="6.62706">
        <ele>562.2</ele>
        <time>2020-08-16T13:42:56Z</time>
      </trkpt>
      <trkpt lat="45.93869" lon="6.62706">
        <ele>562</ele>
        <time>2020-08-16T13:42:57Z</time>
      </trkpt>
      <trkpt lat="45.93874" lon="6.62705">
        <ele>562</ele>
        <time>2020-08-16T13:42:58Z</time>
      </trkpt>
      <trkpt lat="45.9388" lon="6.62704">
        <ele>562</ele>
        <time>2020-08-16T13:42:59Z</time>
      </trkpt>
      <trkpt lat="45.93885" lon="6.62703">
        <ele>561.8</ele>
        <time>2020-08-16T13:43:00Z</time>
      </trkpt>
      <trkpt lat="45.9389" lon="6.62702">
        <ele>561.8</ele>
        <time>2020-08-16T13:43:01Z</time>
      </trkpt>
      <trkpt lat="45.93896" lon="6.62702">
        <ele>562</ele>
        <time>2020-08-16T13:43:02Z</time>
      </trkpt>
      <trkpt lat="45.93901" lon="6.62701">
        <ele>562</ele>
        <time>2020-08-16T13:43:03Z</time>
      </trkpt>
      <trkpt lat="45.93905" lon="6.62698">
        <ele>561.8</ele>
        <time>2020-08-16T13:43:04Z</time>
      </trkpt>
      <trkpt lat="45.9391" lon="6.62696">
        <ele>561.8</ele>
        <time>2020-08-16T13:43:05Z</time>
      </trkpt>
      <trkpt lat="45.93915" lon="6.62695">
        <ele>561.8</ele>
        <time>2020-08-16T13:43:06Z</time>
      </trkpt>
      <trkpt lat="45.93919" lon="6.62693">
        <ele>561.8</ele>
        <time>2020-08-16T13:43:07Z</time>
      </trkpt>
      <trkpt lat="45.93924" lon="6.62692">
        <ele>562</ele>
        <time>2020-08-16T13:43:08Z</time>
      </trkpt>
      <trkpt lat="45.93929" lon="6.62691">
        <ele>562</ele>
        <time>2020-08-16T13:43:09Z</time>
      </trkpt>
      <trkpt lat="45.93934" lon="6.62691">
        <ele>561.8</ele>
        <time>2020-08-16T13:43:10Z</time>
      </trkpt>
      <trkpt lat="45.93938" lon="6.6269">
        <ele>562</ele>
        <time>2020-08-16T13:43:11Z</time>
      </trkpt>
      <trkpt lat="45.93942" lon="6.62688">
        <ele>562.2</ele>
        <time>2020-08-16T13:43:12Z</time>
      </trkpt>
      <trkpt lat="45.93946" lon="6.62687">
        <ele>562.4</ele>
        <time>2020-08-16T13:43:13Z</time>
      </trkpt>
      <trkpt lat="45.9395" lon="6.62686">
        <ele>562.6</ele>
        <time>2020-08-16T13:43:14Z</time>
      </trkpt>
      <trkpt lat="45.93954" lon="6.62686">
        <ele>562.8</ele>
        <time>2020-08-16T13:43:15Z</time>
      </trkpt>
      <trkpt lat="45.93957" lon="6.62687">
        <ele>562.8</ele>
        <time>2020-08-16T13:43:16Z</time>
      </trkpt>
      <trkpt lat="45.93961" lon="6.62689">
        <ele>562.8</ele>
        <time>2020-08-16T13:43:17Z</time>
      </trkpt>
      <trkpt lat="45.93964" lon="6.6269">
        <ele>562.8</ele>
        <time>2020-08-16T13:43:18Z</time>
      </trkpt>
      <trkpt lat="45.93968" lon="6.62692">
        <ele>562.6</ele>
        <time>2020-08-16T13:43:19Z</time>
      </trkpt>
      <trkpt lat="45.93972" lon="6.62692">
        <ele>562.6</ele>
        <time>2020-08-16T13:43:20Z</time>
      </trkpt>
      <trkpt lat="45.93976" lon="6.62693">
        <ele>562.4</ele>
        <time>2020-08-16T13:43:21Z</time>
      </trkpt>
      <trkpt lat="45.93981" lon="6.62693">
        <ele>562.2</ele>
        <time>2020-08-16T13:43:22Z</time>
      </trkpt>
      <trkpt lat="45.93986" lon="6.62693">
        <ele>562</ele>
        <time>2020-08-16T13:43:23Z</time>
      </trkpt>
      <trkpt lat="45.93991" lon="6.62693">
        <ele>561.8</ele>
        <time>2020-08-16T13:43:24Z</time>
      </trkpt>
      <trkpt lat="45.93997" lon="6.62693">
        <ele>561.8</ele>
        <time>2020-08-16T13:43:25Z</time>
      </trkpt>
      <trkpt lat="45.94002" lon="6.62693">
        <ele>561.6</ele>
        <time>2020-08-16T13:43:26Z</time>
      </trkpt>
      <trkpt lat="45.94008" lon="6.62693">
        <ele>561.4</ele>
        <time>2020-08-16T13:43:27Z</time>
      </trkpt>
      <trkpt lat="45.94013" lon="6.62693">
        <ele>561</ele>
        <time>2020-08-16T13:43:28Z</time>
      </trkpt>
      <trkpt lat="45.94019" lon="6.62692">
        <ele>561.2</ele>
        <time>2020-08-16T13:43:29Z</time>
      </trkpt>
      <trkpt lat="45.94024" lon="6.62693">
        <ele>561</ele>
        <time>2020-08-16T13:43:30Z</time>
      </trkpt>
      <trkpt lat="45.9403" lon="6.62694">
        <ele>561</ele>
        <time>2020-08-16T13:43:31Z</time>
      </trkpt>
      <trkpt lat="45.94036" lon="6.62695">
        <ele>560.4</ele>
        <time>2020-08-16T13:43:32Z</time>
      </trkpt>
      <trkpt lat="45.94042" lon="6.62697">
        <ele>560</ele>
        <time>2020-08-16T13:43:33Z</time>
      </trkpt>
      <trkpt lat="45.94048" lon="6.627">
        <ele>559.6</ele>
        <time>2020-08-16T13:43:34Z</time>
      </trkpt>
      <trkpt lat="45.94054" lon="6.62703">
        <ele>559.4</ele>
        <time>2020-08-16T13:43:35Z</time>
      </trkpt>
      <trkpt lat="45.9406" lon="6.62706">
        <ele>559.2</ele>
        <time>2020-08-16T13:43:36Z</time>
      </trkpt>
      <trkpt lat="45.94065" lon="6.62708">
        <ele>558.8</ele>
        <time>2020-08-16T13:43:37Z</time>
      </trkpt>
      <trkpt lat="45.94071" lon="6.62711">
        <ele>558.8</ele>
        <time>2020-08-16T13:43:38Z</time>
      </trkpt>
      <trkpt lat="45.94078" lon="6.62714">
        <ele>558.8</ele>
        <time>2020-08-16T13:43:39Z</time>
      </trkpt>
      <trkpt lat="45.94084" lon="6.62717">
        <ele>558.4</ele>
        <time>2020-08-16T13:43:40Z</time>
      </trkpt>
      <trkpt lat="45.9409" lon="6.62719">
        <ele>558.2</ele>
        <time>2020-08-16T13:43:41Z</time>
      </trkpt>
      <trkpt lat="45.94097" lon="6.6272">
        <ele>558</ele>
        <time>2020-08-16T13:43:42Z</time>
      </trkpt>
      <trkpt lat="45.94103" lon="6.62721">
        <ele>557.8</ele>
        <time>2020-08-16T13:43:43Z</time>
      </trkpt>
      <trkpt lat="45.9411" lon="6.62722">
        <ele>557.6</ele>
        <time>2020-08-16T13:43:44Z</time>
      </trkpt>
      <trkpt lat="45.94117" lon="6.62723">
        <ele>557.4</ele>
        <time>2020-08-16T13:43:45Z</time>
      </trkpt>
      <trkpt lat="45.94124" lon="6.62724">
        <ele>557.2</ele>
        <time>2020-08-16T13:43:46Z</time>
      </trkpt>
      <trkpt lat="45.94131" lon="6.62724">
        <ele>557</ele>
        <time>2020-08-16T13:43:47Z</time>
      </trkpt>
      <trkpt lat="45.94138" lon="6.62725">
        <ele>556.6</ele>
        <time>2020-08-16T13:43:48Z</time>
      </trkpt>
      <trkpt lat="45.94145" lon="6.62725">
        <ele>556.6</ele>
        <time>2020-08-16T13:43:49Z</time>
      </trkpt>
      <trkpt lat="45.94152" lon="6.62725">
        <ele>556.6</ele>
        <time>2020-08-16T13:43:50Z</time>
      </trkpt>
      <trkpt lat="45.94159" lon="6.62725">
        <ele>556.6</ele>
        <time>2020-08-16T13:43:51Z</time>
      </trkpt>
      <trkpt lat="45.94166" lon="6.62726">
        <ele>556.4</ele>
        <time>2020-08-16T13:43:52Z</time>
      </trkpt>
      <trkpt lat="45.94173" lon="6.62726">
        <ele>556</ele>
        <time>2020-08-16T13:43:53Z</time>
      </trkpt>
      <trkpt lat="45.9418" lon="6.62727">
        <ele>555.8</ele>
        <time>2020-08-16T13:43:54Z</time>
      </trkpt>
      <trkpt lat="45.94187" lon="6.62727">
        <ele>555.4</ele>
        <time>2020-08-16T13:43:55Z</time>
      </trkpt>
      <trkpt lat="45.94194" lon="6.62727">
        <ele>555</ele>
        <time>2020-08-16T13:43:56Z</time>
      </trkpt>
      <trkpt lat="45.94201" lon="6.62727">
        <ele>554.8</ele>
        <time>2020-08-16T13:43:57Z</time>
      </trkpt>
      <trkpt lat="45.94208" lon="6.62727">
        <ele>554.6</ele>
        <time>2020-08-16T13:43:58Z</time>
      </trkpt>
      <trkpt lat="45.94216" lon="6.62727">
        <ele>554.4</ele>
        <time>2020-08-16T13:43:59Z</time>
      </trkpt>
      <trkpt lat="45.94223" lon="6.62727">
        <ele>554.2</ele>
        <time>2020-08-16T13:44:00Z</time>
      </trkpt>
      <trkpt lat="45.94231" lon="6.62727">
        <ele>554</ele>
        <time>2020-08-16T13:44:01Z</time>
      </trkpt>
      <trkpt lat="45.94239" lon="6.62727">
        <ele>554</ele>
        <time>2020-08-16T13:44:02Z</time>
      </trkpt>
      <trkpt lat="45.94246" lon="6.62727">
        <ele>553.8</ele>
        <time>2020-08-16T13:44:03Z</time>
      </trkpt>
      <trkpt lat="45.94254" lon="6.62726">
        <ele>553.6</ele>
        <time>2020-08-16T13:44:04Z</time>
      </trkpt>
      <trkpt lat="45.94262" lon="6.62726">
        <ele>553.2</ele>
        <time>2020-08-16T13:44:05Z</time>
      </trkpt>
      <trkpt lat="45.9427" lon="6.62726">
        <ele>553</ele>
        <time>2020-08-16T13:44:06Z</time>
      </trkpt>
      <trkpt lat="45.94277" lon="6.62726">
        <ele>553</ele>
        <time>2020-08-16T13:44:07Z</time>
      </trkpt>
      <trkpt lat="45.94285" lon="6.62728">
        <ele>552.8</ele>
        <time>2020-08-16T13:44:08Z</time>
      </trkpt>
      <trkpt lat="45.94292" lon="6.62729">
        <ele>552.6</ele>
        <time>2020-08-16T13:44:09Z</time>
      </trkpt>
      <trkpt lat="45.94299" lon="6.6273">
        <ele>552.4</ele>
        <time>2020-08-16T13:44:10Z</time>
      </trkpt>
      <trkpt lat="45.94307" lon="6.62729">
        <ele>552.2</ele>
        <time>2020-08-16T13:44:11Z</time>
      </trkpt>
      <trkpt lat="45.94314" lon="6.62729">
        <ele>552.2</ele>
        <time>2020-08-16T13:44:12Z</time>
      </trkpt>
      <trkpt lat="45.94321" lon="6.62729">
        <ele>552</ele>
        <time>2020-08-16T13:44:13Z</time>
      </trkpt>
      <trkpt lat="45.94328" lon="6.6273">
        <ele>552</ele>
        <time>2020-08-16T13:44:14Z</time>
      </trkpt>
      <trkpt lat="45.94335" lon="6.6273">
        <ele>551.8</ele>
        <time>2020-08-16T13:44:15Z</time>
      </trkpt>
      <trkpt lat="45.94341" lon="6.62731">
        <ele>551.2</ele>
        <time>2020-08-16T13:44:16Z</time>
      </trkpt>
      <trkpt lat="45.94348" lon="6.62732">
        <ele>551</ele>
        <time>2020-08-16T13:44:17Z</time>
      </trkpt>
      <trkpt lat="45.94354" lon="6.62733">
        <ele>550.8</ele>
        <time>2020-08-16T13:44:18Z</time>
      </trkpt>
      <trkpt lat="45.94361" lon="6.62733">
        <ele>550.6</ele>
        <time>2020-08-16T13:44:19Z</time>
      </trkpt>
      <trkpt lat="45.94368" lon="6.62733">
        <ele>550.4</ele>
        <time>2020-08-16T13:44:20Z</time>
      </trkpt>
      <trkpt lat="45.94375" lon="6.62733">
        <ele>550.4</ele>
        <time>2020-08-16T13:44:21Z</time>
      </trkpt>
      <trkpt lat="45.94382" lon="6.62734">
        <ele>550.2</ele>
        <time>2020-08-16T13:44:22Z</time>
      </trkpt>
      <trkpt lat="45.94388" lon="6.62737">
        <ele>549.8</ele>
        <time>2020-08-16T13:44:23Z</time>
      </trkpt>
      <trkpt lat="45.94394" lon="6.62739">
        <ele>549.8</ele>
        <time>2020-08-16T13:44:24Z</time>
      </trkpt>
      <trkpt lat="45.94401" lon="6.62742">
        <ele>549.6</ele>
        <time>2020-08-16T13:44:25Z</time>
      </trkpt>
      <trkpt lat="45.94407" lon="6.62745">
        <ele>549.6</ele>
        <time>2020-08-16T13:44:26Z</time>
      </trkpt>
      <trkpt lat="45.94414" lon="6.62748">
        <ele>549.4</ele>
        <time>2020-08-16T13:44:27Z</time>
      </trkpt>
      <trkpt lat="45.9442" lon="6.6275">
        <ele>549.2</ele>
        <time>2020-08-16T13:44:28Z</time>
      </trkpt>
      <trkpt lat="45.94427" lon="6.62751">
        <ele>549</ele>
        <time>2020-08-16T13:44:29Z</time>
      </trkpt>
      <trkpt lat="45.94434" lon="6.62752">
        <ele>548.8</ele>
        <time>2020-08-16T13:44:30Z</time>
      </trkpt>
      <trkpt lat="45.94441" lon="6.62752">
        <ele>548.4</ele>
        <time>2020-08-16T13:44:31Z</time>
      </trkpt>
      <trkpt lat="45.94448" lon="6.62752">
        <ele>548.4</ele>
        <time>2020-08-16T13:44:32Z</time>
      </trkpt>
      <trkpt lat="45.94455" lon="6.62752">
        <ele>548.2</ele>
        <time>2020-08-16T13:44:33Z</time>
      </trkpt>
      <trkpt lat="45.94463" lon="6.62752">
        <ele>548.2</ele>
        <time>2020-08-16T13:44:34Z</time>
      </trkpt>
      <trkpt lat="45.9447" lon="6.62751">
        <ele>548</ele>
        <time>2020-08-16T13:44:35Z</time>
      </trkpt>
      <trkpt lat="45.94477" lon="6.62751">
        <ele>547.8</ele>
        <time>2020-08-16T13:44:36Z</time>
      </trkpt>
      <trkpt lat="45.94484" lon="6.62751">
        <ele>547.6</ele>
        <time>2020-08-16T13:44:37Z</time>
      </trkpt>
      <trkpt lat="45.94491" lon="6.62751">
        <ele>547.6</ele>
        <time>2020-08-16T13:44:38Z</time>
      </trkpt>
      <trkpt lat="45.94498" lon="6.62751">
        <ele>547.2</ele>
        <time>2020-08-16T13:44:39Z</time>
      </trkpt>
      <trkpt lat="45.94505" lon="6.6275">
        <ele>547.2</ele>
        <time>2020-08-16T13:44:40Z</time>
      </trkpt>
      <trkpt lat="45.94511" lon="6.6275">
        <ele>547</ele>
        <time>2020-08-16T13:44:41Z</time>
      </trkpt>
      <trkpt lat="45.94518" lon="6.62749">
        <ele>546.8</ele>
        <time>2020-08-16T13:44:42Z</time>
      </trkpt>
      <trkpt lat="45.94524" lon="6.62748">
        <ele>546.8</ele>
        <time>2020-08-16T13:44:43Z</time>
      </trkpt>
      <trkpt lat="45.94531" lon="6.62747">
        <ele>546.8</ele>
        <time>2020-08-16T13:44:44Z</time>
      </trkpt>
      <trkpt lat="45.94538" lon="6.62746">
        <ele>546.4</ele>
        <time>2020-08-16T13:44:45Z</time>
      </trkpt>
      <trkpt lat="45.94545" lon="6.62744">
        <ele>546.2</ele>
        <time>2020-08-16T13:44:46Z</time>
      </trkpt>
      <trkpt lat="45.94553" lon="6.62743">
        <ele>546.2</ele>
        <time>2020-08-16T13:44:47Z</time>
      </trkpt>
      <trkpt lat="45.9456" lon="6.62742">
        <ele>546</ele>
        <time>2020-08-16T13:44:48Z</time>
      </trkpt>
      <trkpt lat="45.94567" lon="6.62741">
        <ele>545.6</ele>
        <time>2020-08-16T13:44:49Z</time>
      </trkpt>
      <trkpt lat="45.94574" lon="6.6274">
        <ele>545.6</ele>
        <time>2020-08-16T13:44:50Z</time>
      </trkpt>
      <trkpt lat="45.94581" lon="6.62738">
        <ele>545.6</ele>
        <time>2020-08-16T13:44:51Z</time>
      </trkpt>
      <trkpt lat="45.94588" lon="6.62737">
        <ele>545.4</ele>
        <time>2020-08-16T13:44:52Z</time>
      </trkpt>
      <trkpt lat="45.94595" lon="6.62736">
        <ele>545.2</ele>
        <time>2020-08-16T13:44:53Z</time>
      </trkpt>
      <trkpt lat="45.94602" lon="6.62734">
        <ele>545</ele>
        <time>2020-08-16T13:44:54Z</time>
      </trkpt>
      <trkpt lat="45.94609" lon="6.62733">
        <ele>545</ele>
        <time>2020-08-16T13:44:55Z</time>
      </trkpt>
      <trkpt lat="45.94615" lon="6.62733">
        <ele>544.8</ele>
        <time>2020-08-16T13:44:56Z</time>
      </trkpt>
      <trkpt lat="45.94621" lon="6.62733">
        <ele>544.8</ele>
        <time>2020-08-16T13:44:57Z</time>
      </trkpt>
      <trkpt lat="45.94628" lon="6.62733">
        <ele>544.6</ele>
        <time>2020-08-16T13:44:58Z</time>
      </trkpt>
      <trkpt lat="45.94635" lon="6.62734">
        <ele>544.4</ele>
        <time>2020-08-16T13:44:59Z</time>
      </trkpt>
      <trkpt lat="45.94641" lon="6.62735">
        <ele>544.4</ele>
        <time>2020-08-16T13:45:00Z</time>
      </trkpt>
      <trkpt lat="45.94647" lon="6.62736">
        <ele>544.2</ele>
        <time>2020-08-16T13:45:01Z</time>
      </trkpt>
      <trkpt lat="45.94653" lon="6.62738">
        <ele>544</ele>
        <time>2020-08-16T13:45:02Z</time>
      </trkpt>
      <trkpt lat="45.94659" lon="6.6274">
        <ele>544.2</ele>
        <time>2020-08-16T13:45:03Z</time>
      </trkpt>
      <trkpt lat="45.94666" lon="6.62743">
        <ele>544.2</ele>
        <time>2020-08-16T13:45:04Z</time>
      </trkpt>
      <trkpt lat="45.94672" lon="6.62745">
        <ele>544</ele>
        <time>2020-08-16T13:45:05Z</time>
      </trkpt>
      <trkpt lat="45.94678" lon="6.62749">
        <ele>543.8</ele>
        <time>2020-08-16T13:45:06Z</time>
      </trkpt>
      <trkpt lat="45.94684" lon="6.62753">
        <ele>543.6</ele>
        <time>2020-08-16T13:45:07Z</time>
      </trkpt>
      <trkpt lat="45.9469" lon="6.62757">
        <ele>543.6</ele>
        <time>2020-08-16T13:45:08Z</time>
      </trkpt>
      <trkpt lat="45.94695" lon="6.6276">
        <ele>543.6</ele>
        <time>2020-08-16T13:45:09Z</time>
      </trkpt>
      <trkpt lat="45.94701" lon="6.62764">
        <ele>543.4</ele>
        <time>2020-08-16T13:45:10Z</time>
      </trkpt>
      <trkpt lat="45.94707" lon="6.62767">
        <ele>543.6</ele>
        <time>2020-08-16T13:45:11Z</time>
      </trkpt>
      <trkpt lat="45.94713" lon="6.6277">
        <ele>543.8</ele>
        <time>2020-08-16T13:45:12Z</time>
      </trkpt>
      <trkpt lat="45.94719" lon="6.62772">
        <ele>543.6</ele>
        <time>2020-08-16T13:45:13Z</time>
      </trkpt>
      <trkpt lat="45.94725" lon="6.62774">
        <ele>543.2</ele>
        <time>2020-08-16T13:45:14Z</time>
      </trkpt>
      <trkpt lat="45.94731" lon="6.62776">
        <ele>543</ele>
        <time>2020-08-16T13:45:15Z</time>
      </trkpt>
      <trkpt lat="45.94737" lon="6.62777">
        <ele>543</ele>
        <time>2020-08-16T13:45:16Z</time>
      </trkpt>
      <trkpt lat="45.94743" lon="6.62777">
        <ele>543</ele>
        <time>2020-08-16T13:45:17Z</time>
      </trkpt>
      <trkpt lat="45.94749" lon="6.62778">
        <ele>542.8</ele>
        <time>2020-08-16T13:45:18Z</time>
      </trkpt>
      <trkpt lat="45.94755" lon="6.62778">
        <ele>542.8</ele>
        <time>2020-08-16T13:45:19Z</time>
      </trkpt>
      <trkpt lat="45.94762" lon="6.62777">
        <ele>542.8</ele>
        <time>2020-08-16T13:45:20Z</time>
      </trkpt>
      <trkpt lat="45.94768" lon="6.62777">
        <ele>542.4</ele>
        <time>2020-08-16T13:45:21Z</time>
      </trkpt>
      <trkpt lat="45.94774" lon="6.62775">
        <ele>542.4</ele>
        <time>2020-08-16T13:45:22Z</time>
      </trkpt>
      <trkpt lat="45.9478" lon="6.62774">
        <ele>542.4</ele>
        <time>2020-08-16T13:45:23Z</time>
      </trkpt>
      <trkpt lat="45.94786" lon="6.62771">
        <ele>542.4</ele>
        <time>2020-08-16T13:45:24Z</time>
      </trkpt>
      <trkpt lat="45.94792" lon="6.62769">
        <ele>542.2</ele>
        <time>2020-08-16T13:45:25Z</time>
      </trkpt>
      <trkpt lat="45.94797" lon="6.62767">
        <ele>542.2</ele>
        <time>2020-08-16T13:45:26Z</time>
      </trkpt>
      <trkpt lat="45.94803" lon="6.62764">
        <ele>542.2</ele>
        <time>2020-08-16T13:45:27Z</time>
      </trkpt>
      <trkpt lat="45.94809" lon="6.62761">
        <ele>542</ele>
        <time>2020-08-16T13:45:28Z</time>
      </trkpt>
      <trkpt lat="45.94815" lon="6.62759">
        <ele>542</ele>
        <time>2020-08-16T13:45:29Z</time>
      </trkpt>
      <trkpt lat="45.9482" lon="6.62756">
        <ele>542</ele>
        <time>2020-08-16T13:45:30Z</time>
      </trkpt>
      <trkpt lat="45.94826" lon="6.62753">
        <ele>542</ele>
        <time>2020-08-16T13:45:31Z</time>
      </trkpt>
      <trkpt lat="45.94831" lon="6.6275">
        <ele>542</ele>
        <time>2020-08-16T13:45:32Z</time>
      </trkpt>
      <trkpt lat="45.94836" lon="6.62747">
        <ele>541.8</ele>
        <time>2020-08-16T13:45:33Z</time>
      </trkpt>
      <trkpt lat="45.94842" lon="6.62744">
        <ele>541.6</ele>
        <time>2020-08-16T13:45:34Z</time>
      </trkpt>
      <trkpt lat="45.94847" lon="6.62742">
        <ele>541.6</ele>
        <time>2020-08-16T13:45:35Z</time>
      </trkpt>
      <trkpt lat="45.94852" lon="6.6274">
        <ele>541.6</ele>
        <time>2020-08-16T13:45:36Z</time>
      </trkpt>
      <trkpt lat="45.94858" lon="6.62738">
        <ele>541.4</ele>
        <time>2020-08-16T13:45:37Z</time>
      </trkpt>
      <trkpt lat="45.94864" lon="6.62736">
        <ele>541.4</ele>
        <time>2020-08-16T13:45:38Z</time>
      </trkpt>
      <trkpt lat="45.9487" lon="6.62733">
        <ele>541.4</ele>
        <time>2020-08-16T13:45:39Z</time>
      </trkpt>
      <trkpt lat="45.94875" lon="6.62732">
        <ele>541.4</ele>
        <time>2020-08-16T13:45:40Z</time>
      </trkpt>
      <trkpt lat="45.94881" lon="6.6273">
        <ele>541.2</ele>
        <time>2020-08-16T13:45:41Z</time>
      </trkpt>
      <trkpt lat="45.94887" lon="6.62728">
        <ele>541.2</ele>
        <time>2020-08-16T13:45:42Z</time>
      </trkpt>
      <trkpt lat="45.94892" lon="6.62726">
        <ele>541.2</ele>
        <time>2020-08-16T13:45:43Z</time>
      </trkpt>
      <trkpt lat="45.94898" lon="6.62725">
        <ele>541</ele>
        <time>2020-08-16T13:45:44Z</time>
      </trkpt>
      <trkpt lat="45.94903" lon="6.62724">
        <ele>541</ele>
        <time>2020-08-16T13:45:45Z</time>
      </trkpt>
      <trkpt lat="45.94908" lon="6.62723">
        <ele>540.8</ele>
        <time>2020-08-16T13:45:46Z</time>
      </trkpt>
      <trkpt lat="45.94912" lon="6.62723">
        <ele>540.8</ele>
        <time>2020-08-16T13:45:47Z</time>
      </trkpt>
      <trkpt lat="45.94916" lon="6.62723">
        <ele>540.8</ele>
        <time>2020-08-16T13:45:48Z</time>
      </trkpt>
      <trkpt lat="45.94919" lon="6.62721">
        <ele>540.8</ele>
        <time>2020-08-16T13:45:49Z</time>
      </trkpt>
      <trkpt lat="45.94921" lon="6.62719">
        <ele>540.8</ele>
        <time>2020-08-16T13:45:50Z</time>
      </trkpt>
      <trkpt lat="45.94923" lon="6.62715">
        <ele>540.8</ele>
        <time>2020-08-16T13:45:51Z</time>
      </trkpt>
      <trkpt lat="45.94924" lon="6.6271">
        <ele>540.8</ele>
        <time>2020-08-16T13:45:52Z</time>
      </trkpt>
      <trkpt lat="45.94925" lon="6.62705">
        <ele>540.8</ele>
        <time>2020-08-16T13:45:53Z</time>
      </trkpt>
      <trkpt lat="45.94926" lon="6.627">
        <ele>540.8</ele>
        <time>2020-08-16T13:45:54Z</time>
      </trkpt>
      <trkpt lat="45.94927" lon="6.62694">
        <ele>540.8</ele>
        <time>2020-08-16T13:45:55Z</time>
      </trkpt>
      <trkpt lat="45.94929" lon="6.62688">
        <ele>540.8</ele>
        <time>2020-08-16T13:45:56Z</time>
      </trkpt>
      <trkpt lat="45.94931" lon="6.62682">
        <ele>541</ele>
        <time>2020-08-16T13:45:57Z</time>
      </trkpt>
      <trkpt lat="45.94933" lon="6.62676">
        <ele>540.8</ele>
        <time>2020-08-16T13:45:58Z</time>
      </trkpt>
      <trkpt lat="45.94936" lon="6.6267">
        <ele>540.8</ele>
        <time>2020-08-16T13:45:59Z</time>
      </trkpt>
      <trkpt lat="45.94939" lon="6.62664">
        <ele>540.8</ele>
        <time>2020-08-16T13:46:00Z</time>
      </trkpt>
      <trkpt lat="45.94941" lon="6.62658">
        <ele>540.8</ele>
        <time>2020-08-16T13:46:01Z</time>
      </trkpt>
      <trkpt lat="45.94944" lon="6.62652">
        <ele>541</ele>
        <time>2020-08-16T13:46:02Z</time>
      </trkpt>
      <trkpt lat="45.94948" lon="6.62647">
        <ele>541</ele>
        <time>2020-08-16T13:46:03Z</time>
      </trkpt>
      <trkpt lat="45.94951" lon="6.62642">
        <ele>541.2</ele>
        <time>2020-08-16T13:46:04Z</time>
      </trkpt>
      <trkpt lat="45.94955" lon="6.62638">
        <ele>541.2</ele>
        <time>2020-08-16T13:46:05Z</time>
      </trkpt>
      <trkpt lat="45.94959" lon="6.62635">
        <ele>541.4</ele>
        <time>2020-08-16T13:46:06Z</time>
      </trkpt>
      <trkpt lat="45.94963" lon="6.62632">
        <ele>541.4</ele>
        <time>2020-08-16T13:46:07Z</time>
      </trkpt>
      <trkpt lat="45.94968" lon="6.6263">
        <ele>541.6</ele>
        <time>2020-08-16T13:46:08Z</time>
      </trkpt>
      <trkpt lat="45.94972" lon="6.62628">
        <ele>541.4</ele>
        <time>2020-08-16T13:46:09Z</time>
      </trkpt>
      <trkpt lat="45.94977" lon="6.62627">
        <ele>541.4</ele>
        <time>2020-08-16T13:46:10Z</time>
      </trkpt>
      <trkpt lat="45.94982" lon="6.62626">
        <ele>541.4</ele>
        <time>2020-08-16T13:46:11Z</time>
      </trkpt>
      <trkpt lat="45.94988" lon="6.62626">
        <ele>541.4</ele>
        <time>2020-08-16T13:46:12Z</time>
      </trkpt>
      <trkpt lat="45.94992" lon="6.62627">
        <ele>541.4</ele>
        <time>2020-08-16T13:46:13Z</time>
      </trkpt>
      <trkpt lat="45.94997" lon="6.62628">
        <ele>541.4</ele>
        <time>2020-08-16T13:46:14Z</time>
      </trkpt>
      <trkpt lat="45.95002" lon="6.62629">
        <ele>541.2</ele>
        <time>2020-08-16T13:46:15Z</time>
      </trkpt>
      <trkpt lat="45.95007" lon="6.62631">
        <ele>541.6</ele>
        <time>2020-08-16T13:46:16Z</time>
      </trkpt>
      <trkpt lat="45.95013" lon="6.62633">
        <ele>541.4</ele>
        <time>2020-08-16T13:46:17Z</time>
      </trkpt>
      <trkpt lat="45.95018" lon="6.62635">
        <ele>541.2</ele>
        <time>2020-08-16T13:46:18Z</time>
      </trkpt>
      <trkpt lat="45.95023" lon="6.62636">
        <ele>541.4</ele>
        <time>2020-08-16T13:46:19Z</time>
      </trkpt>
      <trkpt lat="45.95028" lon="6.62638">
        <ele>541.4</ele>
        <time>2020-08-16T13:46:20Z</time>
      </trkpt>
      <trkpt lat="45.95033" lon="6.62641">
        <ele>541.4</ele>
        <time>2020-08-16T13:46:21Z</time>
      </trkpt>
      <trkpt lat="45.95038" lon="6.62643">
        <ele>541.4</ele>
        <time>2020-08-16T13:46:22Z</time>
      </trkpt>
      <trkpt lat="45.95043" lon="6.62646">
        <ele>541.4</ele>
        <time>2020-08-16T13:46:23Z</time>
      </trkpt>
      <trkpt lat="45.95048" lon="6.62648">
        <ele>541.4</ele>
        <time>2020-08-16T13:46:24Z</time>
      </trkpt>
      <trkpt lat="45.95053" lon="6.6265">
        <ele>541.6</ele>
        <time>2020-08-16T13:46:25Z</time>
      </trkpt>
      <trkpt lat="45.95058" lon="6.62652">
        <ele>541.6</ele>
        <time>2020-08-16T13:46:26Z</time>
      </trkpt>
      <trkpt lat="45.95063" lon="6.62655">
        <ele>541.6</ele>
        <time>2020-08-16T13:46:27Z</time>
      </trkpt>
      <trkpt lat="45.95068" lon="6.62657">
        <ele>541.6</ele>
        <time>2020-08-16T13:46:28Z</time>
      </trkpt>
      <trkpt lat="45.95073" lon="6.62659">
        <ele>541.6</ele>
        <time>2020-08-16T13:46:29Z</time>
      </trkpt>
      <trkpt lat="45.95078" lon="6.6266">
        <ele>541.4</ele>
        <time>2020-08-16T13:46:30Z</time>
      </trkpt>
      <trkpt lat="45.95083" lon="6.6266">
        <ele>541.2</ele>
        <time>2020-08-16T13:46:31Z</time>
      </trkpt>
      <trkpt lat="45.95088" lon="6.6266">
        <ele>541.2</ele>
        <time>2020-08-16T13:46:32Z</time>
      </trkpt>
      <trkpt lat="45.95093" lon="6.62659">
        <ele>541.2</ele>
        <time>2020-08-16T13:46:33Z</time>
      </trkpt>
      <trkpt lat="45.95098" lon="6.62659">
        <ele>541.2</ele>
        <time>2020-08-16T13:46:34Z</time>
      </trkpt>
      <trkpt lat="45.95102" lon="6.62658">
        <ele>541.4</ele>
        <time>2020-08-16T13:46:35Z</time>
      </trkpt>
      <trkpt lat="45.95107" lon="6.62656">
        <ele>541.4</ele>
        <time>2020-08-16T13:46:36Z</time>
      </trkpt>
      <trkpt lat="45.95111" lon="6.62655">
        <ele>541.6</ele>
        <time>2020-08-16T13:46:37Z</time>
      </trkpt>
      <trkpt lat="45.95116" lon="6.62654">
        <ele>541.6</ele>
        <time>2020-08-16T13:46:38Z</time>
      </trkpt>
      <trkpt lat="45.9512" lon="6.62652">
        <ele>541.6</ele>
        <time>2020-08-16T13:46:39Z</time>
      </trkpt>
      <trkpt lat="45.95125" lon="6.62651">
        <ele>541.6</ele>
        <time>2020-08-16T13:46:40Z</time>
      </trkpt>
      <trkpt lat="45.95129" lon="6.62649">
        <ele>541.6</ele>
        <time>2020-08-16T13:46:41Z</time>
      </trkpt>
      <trkpt lat="45.95133" lon="6.62647">
        <ele>541.4</ele>
        <time>2020-08-16T13:46:42Z</time>
      </trkpt>
      <trkpt lat="45.95138" lon="6.62645">
        <ele>541.4</ele>
        <time>2020-08-16T13:46:43Z</time>
      </trkpt>
      <trkpt lat="45.95143" lon="6.62643">
        <ele>541.4</ele>
        <time>2020-08-16T13:46:44Z</time>
      </trkpt>
      <trkpt lat="45.95148" lon="6.62641">
        <ele>541.2</ele>
        <time>2020-08-16T13:46:45Z</time>
      </trkpt>
      <trkpt lat="45.95152" lon="6.62639">
        <ele>541.2</ele>
        <time>2020-08-16T13:46:46Z</time>
      </trkpt>
      <trkpt lat="45.95157" lon="6.62636">
        <ele>541</ele>
        <time>2020-08-16T13:46:47Z</time>
      </trkpt>
      <trkpt lat="45.95162" lon="6.62634">
        <ele>541</ele>
        <time>2020-08-16T13:46:48Z</time>
      </trkpt>
      <trkpt lat="45.95167" lon="6.62631">
        <ele>541</ele>
        <time>2020-08-16T13:46:49Z</time>
      </trkpt>
      <trkpt lat="45.95172" lon="6.62629">
        <ele>541</ele>
        <time>2020-08-16T13:46:50Z</time>
      </trkpt>
      <trkpt lat="45.95177" lon="6.62626">
        <ele>541</ele>
        <time>2020-08-16T13:46:51Z</time>
      </trkpt>
      <trkpt lat="45.95183" lon="6.62623">
        <ele>540.8</ele>
        <time>2020-08-16T13:46:52Z</time>
      </trkpt>
      <trkpt lat="45.95188" lon="6.6262">
        <ele>540.8</ele>
        <time>2020-08-16T13:46:53Z</time>
      </trkpt>
      <trkpt lat="45.95193" lon="6.62617">
        <ele>540.8</ele>
        <time>2020-08-16T13:46:54Z</time>
      </trkpt>
      <trkpt lat="45.95199" lon="6.62614">
        <ele>540.8</ele>
        <time>2020-08-16T13:46:55Z</time>
      </trkpt>
      <trkpt lat="45.95204" lon="6.62612">
        <ele>540.6</ele>
        <time>2020-08-16T13:46:56Z</time>
      </trkpt>
      <trkpt lat="45.95209" lon="6.6261">
        <ele>540.4</ele>
        <time>2020-08-16T13:46:57Z</time>
      </trkpt>
      <trkpt lat="45.95214" lon="6.62609">
        <ele>540.4</ele>
        <time>2020-08-16T13:46:58Z</time>
      </trkpt>
      <trkpt lat="45.95219" lon="6.62608">
        <ele>540.2</ele>
        <time>2020-08-16T13:46:59Z</time>
      </trkpt>
      <trkpt lat="45.95225" lon="6.62608">
        <ele>540.2</ele>
        <time>2020-08-16T13:47:00Z</time>
      </trkpt>
      <trkpt lat="45.95231" lon="6.62608">
        <ele>540</ele>
        <time>2020-08-16T13:47:01Z</time>
      </trkpt>
      <trkpt lat="45.95237" lon="6.62607">
        <ele>539.8</ele>
        <time>2020-08-16T13:47:02Z</time>
      </trkpt>
      <trkpt lat="45.95243" lon="6.62606">
        <ele>539.6</ele>
        <time>2020-08-16T13:47:03Z</time>
      </trkpt>
      <trkpt lat="45.95249" lon="6.62605">
        <ele>539.6</ele>
        <time>2020-08-16T13:47:04Z</time>
      </trkpt>
      <trkpt lat="45.95256" lon="6.62604">
        <ele>539.6</ele>
        <time>2020-08-16T13:47:05Z</time>
      </trkpt>
      <trkpt lat="45.95262" lon="6.62603">
        <ele>539.6</ele>
        <time>2020-08-16T13:47:06Z</time>
      </trkpt>
      <trkpt lat="45.95268" lon="6.62603">
        <ele>539.4</ele>
        <time>2020-08-16T13:47:07Z</time>
      </trkpt>
      <trkpt lat="45.95274" lon="6.62602">
        <ele>539.4</ele>
        <time>2020-08-16T13:47:08Z</time>
      </trkpt>
      <trkpt lat="45.9528" lon="6.62602">
        <ele>539.4</ele>
        <time>2020-08-16T13:47:09Z</time>
      </trkpt>
      <trkpt lat="45.95287" lon="6.62601">
        <ele>539.2</ele>
        <time>2020-08-16T13:47:10Z</time>
      </trkpt>
      <trkpt lat="45.95293" lon="6.62601">
        <ele>539.2</ele>
        <time>2020-08-16T13:47:11Z</time>
      </trkpt>
      <trkpt lat="45.95299" lon="6.626">
        <ele>539</ele>
        <time>2020-08-16T13:47:12Z</time>
      </trkpt>
      <trkpt lat="45.95306" lon="6.62601">
        <ele>539</ele>
        <time>2020-08-16T13:47:13Z</time>
      </trkpt>
      <trkpt lat="45.95312" lon="6.62601">
        <ele>538.8</ele>
        <time>2020-08-16T13:47:14Z</time>
      </trkpt>
      <trkpt lat="45.95319" lon="6.62602">
        <ele>538.8</ele>
        <time>2020-08-16T13:47:15Z</time>
      </trkpt>
      <trkpt lat="45.95325" lon="6.62604">
        <ele>538.6</ele>
        <time>2020-08-16T13:47:16Z</time>
      </trkpt>
      <trkpt lat="45.95331" lon="6.62606">
        <ele>538.6</ele>
        <time>2020-08-16T13:47:17Z</time>
      </trkpt>
      <trkpt lat="45.95337" lon="6.62608">
        <ele>538.6</ele>
        <time>2020-08-16T13:47:18Z</time>
      </trkpt>
      <trkpt lat="45.95343" lon="6.6261">
        <ele>538.4</ele>
        <time>2020-08-16T13:47:19Z</time>
      </trkpt>
      <trkpt lat="45.95349" lon="6.62612">
        <ele>538.4</ele>
        <time>2020-08-16T13:47:20Z</time>
      </trkpt>
      <trkpt lat="45.95355" lon="6.62614">
        <ele>538.4</ele>
        <time>2020-08-16T13:47:21Z</time>
      </trkpt>
      <trkpt lat="45.95361" lon="6.62617">
        <ele>538.4</ele>
        <time>2020-08-16T13:47:22Z</time>
      </trkpt>
      <trkpt lat="45.95367" lon="6.6262">
        <ele>538.4</ele>
        <time>2020-08-16T13:47:23Z</time>
      </trkpt>
      <trkpt lat="45.95373" lon="6.62622">
        <ele>538.4</ele>
        <time>2020-08-16T13:47:24Z</time>
      </trkpt>
      <trkpt lat="45.95379" lon="6.62625">
        <ele>538.4</ele>
        <time>2020-08-16T13:47:25Z</time>
      </trkpt>
      <trkpt lat="45.95385" lon="6.62627">
        <ele>538.4</ele>
        <time>2020-08-16T13:47:26Z</time>
      </trkpt>
      <trkpt lat="45.95391" lon="6.62628">
        <ele>538.2</ele>
        <time>2020-08-16T13:47:27Z</time>
      </trkpt>
      <trkpt lat="45.95397" lon="6.62629">
        <ele>538.4</ele>
        <time>2020-08-16T13:47:28Z</time>
      </trkpt>
      <trkpt lat="45.95403" lon="6.6263">
        <ele>538.4</ele>
        <time>2020-08-16T13:47:29Z</time>
      </trkpt>
      <trkpt lat="45.95409" lon="6.62631">
        <ele>538.4</ele>
        <time>2020-08-16T13:47:30Z</time>
      </trkpt>
      <trkpt lat="45.95415" lon="6.62632">
        <ele>538.4</ele>
        <time>2020-08-16T13:47:31Z</time>
      </trkpt>
      <trkpt lat="45.95421" lon="6.62632">
        <ele>538.4</ele>
        <time>2020-08-16T13:47:32Z</time>
      </trkpt>
      <trkpt lat="45.95427" lon="6.62633">
        <ele>538.4</ele>
        <time>2020-08-16T13:47:33Z</time>
      </trkpt>
      <trkpt lat="45.95433" lon="6.62633">
        <ele>538.4</ele>
        <time>2020-08-16T13:47:34Z</time>
      </trkpt>
      <trkpt lat="45.95438" lon="6.62634">
        <ele>538.4</ele>
        <time>2020-08-16T13:47:35Z</time>
      </trkpt>
      <trkpt lat="45.95444" lon="6.62634">
        <ele>538.4</ele>
        <time>2020-08-16T13:47:36Z</time>
      </trkpt>
      <trkpt lat="45.95449" lon="6.62634">
        <ele>538.4</ele>
        <time>2020-08-16T13:47:37Z</time>
      </trkpt>
      <trkpt lat="45.95454" lon="6.62634">
        <ele>538.4</ele>
        <time>2020-08-16T13:47:38Z</time>
      </trkpt>
      <trkpt lat="45.95459" lon="6.62634">
        <ele>538.6</ele>
        <time>2020-08-16T13:47:39Z</time>
      </trkpt>
      <trkpt lat="45.95464" lon="6.62634">
        <ele>538.6</ele>
        <time>2020-08-16T13:47:40Z</time>
      </trkpt>
      <trkpt lat="45.95469" lon="6.62634">
        <ele>538.6</ele>
        <time>2020-08-16T13:47:41Z</time>
      </trkpt>
      <trkpt lat="45.95475" lon="6.62634">
        <ele>538.6</ele>
        <time>2020-08-16T13:47:42Z</time>
      </trkpt>
      <trkpt lat="45.9548" lon="6.62634">
        <ele>538.6</ele>
        <time>2020-08-16T13:47:43Z</time>
      </trkpt>
      <trkpt lat="45.95485" lon="6.62633">
        <ele>538.6</ele>
        <time>2020-08-16T13:47:44Z</time>
      </trkpt>
      <trkpt lat="45.9549" lon="6.62633">
        <ele>538.8</ele>
        <time>2020-08-16T13:47:45Z</time>
      </trkpt>
      <trkpt lat="45.95495" lon="6.62632">
        <ele>538.8</ele>
        <time>2020-08-16T13:47:46Z</time>
      </trkpt>
      <trkpt lat="45.955" lon="6.62631">
        <ele>538.8</ele>
        <time>2020-08-16T13:47:47Z</time>
      </trkpt>
      <trkpt lat="45.95504" lon="6.6263">
        <ele>539</ele>
        <time>2020-08-16T13:47:48Z</time>
      </trkpt>
      <trkpt lat="45.9551" lon="6.62629">
        <ele>539</ele>
        <time>2020-08-16T13:47:49Z</time>
      </trkpt>
      <trkpt lat="45.95514" lon="6.62628">
        <ele>539</ele>
        <time>2020-08-16T13:47:50Z</time>
      </trkpt>
      <trkpt lat="45.95519" lon="6.62627">
        <ele>539</ele>
        <time>2020-08-16T13:47:51Z</time>
      </trkpt>
      <trkpt lat="45.95524" lon="6.62626">
        <ele>539</ele>
        <time>2020-08-16T13:47:52Z</time>
      </trkpt>
      <trkpt lat="45.95529" lon="6.62625">
        <ele>539.2</ele>
        <time>2020-08-16T13:47:53Z</time>
      </trkpt>
      <trkpt lat="45.95534" lon="6.62625">
        <ele>539.2</ele>
        <time>2020-08-16T13:47:54Z</time>
      </trkpt>
      <trkpt lat="45.95539" lon="6.62624">
        <ele>539.2</ele>
        <time>2020-08-16T13:47:55Z</time>
      </trkpt>
      <trkpt lat="45.95544" lon="6.62625">
        <ele>539.2</ele>
        <time>2020-08-16T13:47:56Z</time>
      </trkpt>
      <trkpt lat="45.95548" lon="6.62625">
        <ele>539.4</ele>
        <time>2020-08-16T13:47:57Z</time>
      </trkpt>
      <trkpt lat="45.95553" lon="6.62625">
        <ele>539.6</ele>
        <time>2020-08-16T13:47:58Z</time>
      </trkpt>
      <trkpt lat="45.95558" lon="6.62626">
        <ele>539.6</ele>
        <time>2020-08-16T13:47:59Z</time>
      </trkpt>
      <trkpt lat="45.95562" lon="6.62626">
        <ele>539.8</ele>
        <time>2020-08-16T13:48:00Z</time>
      </trkpt>
      <trkpt lat="45.95566" lon="6.62627">
        <ele>539.8</ele>
        <time>2020-08-16T13:48:01Z</time>
      </trkpt>
      <trkpt lat="45.9557" lon="6.62627">
        <ele>540</ele>
        <time>2020-08-16T13:48:02Z</time>
      </trkpt>
      <trkpt lat="45.95574" lon="6.62627">
        <ele>540.2</ele>
        <time>2020-08-16T13:48:03Z</time>
      </trkpt>
      <trkpt lat="45.95579" lon="6.62628">
        <ele>540</ele>
        <time>2020-08-16T13:48:04Z</time>
      </trkpt>
      <trkpt lat="45.95584" lon="6.62629">
        <ele>540</ele>
        <time>2020-08-16T13:48:05Z</time>
      </trkpt>
      <trkpt lat="45.95589" lon="6.6263">
        <ele>540</ele>
        <time>2020-08-16T13:48:06Z</time>
      </trkpt>
      <trkpt lat="45.95595" lon="6.62631">
        <ele>539.8</ele>
        <time>2020-08-16T13:48:07Z</time>
      </trkpt>
      <trkpt lat="45.956" lon="6.62632">
        <ele>539.8</ele>
        <time>2020-08-16T13:48:08Z</time>
      </trkpt>
      <trkpt lat="45.95606" lon="6.62632">
        <ele>539.6</ele>
        <time>2020-08-16T13:48:09Z</time>
      </trkpt>
      <trkpt lat="45.95612" lon="6.62633">
        <ele>539.4</ele>
        <time>2020-08-16T13:48:10Z</time>
      </trkpt>
      <trkpt lat="45.95618" lon="6.62634">
        <ele>539.4</ele>
        <time>2020-08-16T13:48:11Z</time>
      </trkpt>
      <trkpt lat="45.95624" lon="6.62635">
        <ele>539.4</ele>
        <time>2020-08-16T13:48:12Z</time>
      </trkpt>
      <trkpt lat="45.9563" lon="6.62635">
        <ele>539.4</ele>
        <time>2020-08-16T13:48:13Z</time>
      </trkpt>
      <trkpt lat="45.95636" lon="6.62635">
        <ele>539.4</ele>
        <time>2020-08-16T13:48:14Z</time>
      </trkpt>
      <trkpt lat="45.95641" lon="6.62636">
        <ele>539.6</ele>
        <time>2020-08-16T13:48:15Z</time>
      </trkpt>
      <trkpt lat="45.95647" lon="6.62637">
        <ele>539.6</ele>
        <time>2020-08-16T13:48:16Z</time>
      </trkpt>
      <trkpt lat="45.95652" lon="6.62638">
        <ele>539.6</ele>
        <time>2020-08-16T13:48:17Z</time>
      </trkpt>
      <trkpt lat="45.95657" lon="6.62639">
        <ele>539.6</ele>
        <time>2020-08-16T13:48:18Z</time>
      </trkpt>
      <trkpt lat="45.95663" lon="6.6264">
        <ele>539.4</ele>
        <time>2020-08-16T13:48:19Z</time>
      </trkpt>
      <trkpt lat="45.95668" lon="6.62642">
        <ele>539.4</ele>
        <time>2020-08-16T13:48:20Z</time>
      </trkpt>
      <trkpt lat="45.95674" lon="6.62643">
        <ele>539.2</ele>
        <time>2020-08-16T13:48:21Z</time>
      </trkpt>
      <trkpt lat="45.9568" lon="6.62645">
        <ele>539.2</ele>
        <time>2020-08-16T13:48:22Z</time>
      </trkpt>
      <trkpt lat="45.95686" lon="6.62648">
        <ele>539</ele>
        <time>2020-08-16T13:48:23Z</time>
      </trkpt>
      <trkpt lat="45.95693" lon="6.6265">
        <ele>538.8</ele>
        <time>2020-08-16T13:48:24Z</time>
      </trkpt>
      <trkpt lat="45.95699" lon="6.62653">
        <ele>538.6</ele>
        <time>2020-08-16T13:48:25Z</time>
      </trkpt>
      <trkpt lat="45.95706" lon="6.62657">
        <ele>538.4</ele>
        <time>2020-08-16T13:48:26Z</time>
      </trkpt>
      <trkpt lat="45.95713" lon="6.6266">
        <ele>538</ele>
        <time>2020-08-16T13:48:27Z</time>
      </trkpt>
      <trkpt lat="45.95719" lon="6.62664">
        <ele>537.8</ele>
        <time>2020-08-16T13:48:28Z</time>
      </trkpt>
      <trkpt lat="45.95726" lon="6.62667">
        <ele>537.6</ele>
        <time>2020-08-16T13:48:29Z</time>
      </trkpt>
      <trkpt lat="45.95733" lon="6.62671">
        <ele>537.4</ele>
        <time>2020-08-16T13:48:30Z</time>
      </trkpt>
      <trkpt lat="45.9574" lon="6.62675">
        <ele>537.2</ele>
        <time>2020-08-16T13:48:31Z</time>
      </trkpt>
      <trkpt lat="45.95747" lon="6.62679">
        <ele>537</ele>
        <time>2020-08-16T13:48:32Z</time>
      </trkpt>
      <trkpt lat="45.95754" lon="6.62683">
        <ele>536.8</ele>
        <time>2020-08-16T13:48:33Z</time>
      </trkpt>
      <trkpt lat="45.9576" lon="6.62687">
        <ele>536.8</ele>
        <time>2020-08-16T13:48:34Z</time>
      </trkpt>
      <trkpt lat="45.95767" lon="6.62691">
        <ele>536.6</ele>
        <time>2020-08-16T13:48:35Z</time>
      </trkpt>
      <trkpt lat="45.95774" lon="6.62696">
        <ele>536.6</ele>
        <time>2020-08-16T13:48:36Z</time>
      </trkpt>
      <trkpt lat="45.9578" lon="6.627">
        <ele>536.6</ele>
        <time>2020-08-16T13:48:37Z</time>
      </trkpt>
      <trkpt lat="45.95787" lon="6.62704">
        <ele>536.6</ele>
        <time>2020-08-16T13:48:38Z</time>
      </trkpt>
      <trkpt lat="45.95793" lon="6.62708">
        <ele>536.4</ele>
        <time>2020-08-16T13:48:39Z</time>
      </trkpt>
      <trkpt lat="45.95799" lon="6.62712">
        <ele>536.4</ele>
        <time>2020-08-16T13:48:40Z</time>
      </trkpt>
      <trkpt lat="45.95806" lon="6.62716">
        <ele>536.4</ele>
        <time>2020-08-16T13:48:41Z</time>
      </trkpt>
      <trkpt lat="45.95812" lon="6.62721">
        <ele>536.4</ele>
        <time>2020-08-16T13:48:42Z</time>
      </trkpt>
      <trkpt lat="45.95818" lon="6.62725">
        <ele>536.4</ele>
        <time>2020-08-16T13:48:43Z</time>
      </trkpt>
      <trkpt lat="45.95825" lon="6.62729">
        <ele>536.4</ele>
        <time>2020-08-16T13:48:44Z</time>
      </trkpt>
      <trkpt lat="45.95831" lon="6.62733">
        <ele>536.4</ele>
        <time>2020-08-16T13:48:45Z</time>
      </trkpt>
      <trkpt lat="45.95838" lon="6.62737">
        <ele>536.4</ele>
        <time>2020-08-16T13:48:46Z</time>
      </trkpt>
      <trkpt lat="45.95844" lon="6.6274">
        <ele>536.4</ele>
        <time>2020-08-16T13:48:47Z</time>
      </trkpt>
      <trkpt lat="45.9585" lon="6.62744">
        <ele>536.4</ele>
        <time>2020-08-16T13:48:48Z</time>
      </trkpt>
      <trkpt lat="45.95856" lon="6.62748">
        <ele>536.4</ele>
        <time>2020-08-16T13:48:49Z</time>
      </trkpt>
      <trkpt lat="45.95862" lon="6.62751">
        <ele>536.4</ele>
        <time>2020-08-16T13:48:50Z</time>
      </trkpt>
      <trkpt lat="45.95867" lon="6.62755">
        <ele>536.4</ele>
        <time>2020-08-16T13:48:51Z</time>
      </trkpt>
      <trkpt lat="45.95873" lon="6.62758">
        <ele>536.4</ele>
        <time>2020-08-16T13:48:52Z</time>
      </trkpt>
      <trkpt lat="45.95879" lon="6.62762">
        <ele>536.4</ele>
        <time>2020-08-16T13:48:53Z</time>
      </trkpt>
      <trkpt lat="45.95884" lon="6.62766">
        <ele>536.2</ele>
        <time>2020-08-16T13:48:54Z</time>
      </trkpt>
      <trkpt lat="45.95889" lon="6.62769">
        <ele>536.4</ele>
        <time>2020-08-16T13:48:55Z</time>
      </trkpt>
      <trkpt lat="45.95894" lon="6.62772">
        <ele>536.4</ele>
        <time>2020-08-16T13:48:56Z</time>
      </trkpt>
      <trkpt lat="45.95898" lon="6.62776">
        <ele>536.4</ele>
        <time>2020-08-16T13:48:57Z</time>
      </trkpt>
      <trkpt lat="45.95904" lon="6.62779">
        <ele>536.6</ele>
        <time>2020-08-16T13:48:58Z</time>
      </trkpt>
      <trkpt lat="45.95908" lon="6.62783">
        <ele>536.8</ele>
        <time>2020-08-16T13:48:59Z</time>
      </trkpt>
      <trkpt lat="45.95912" lon="6.62787">
        <ele>537</ele>
        <time>2020-08-16T13:49:00Z</time>
      </trkpt>
      <trkpt lat="45.95917" lon="6.6279">
        <ele>537.2</ele>
        <time>2020-08-16T13:49:01Z</time>
      </trkpt>
      <trkpt lat="45.95921" lon="6.62793">
        <ele>537.4</ele>
        <time>2020-08-16T13:49:02Z</time>
      </trkpt>
      <trkpt lat="45.95926" lon="6.62796">
        <ele>537.6</ele>
        <time>2020-08-16T13:49:03Z</time>
      </trkpt>
      <trkpt lat="45.9593" lon="6.62798">
        <ele>537.8</ele>
        <time>2020-08-16T13:49:04Z</time>
      </trkpt>
      <trkpt lat="45.95935" lon="6.628">
        <ele>538.2</ele>
        <time>2020-08-16T13:49:05Z</time>
      </trkpt>
      <trkpt lat="45.95938" lon="6.62802">
        <ele>538.4</ele>
        <time>2020-08-16T13:49:06Z</time>
      </trkpt>
      <trkpt lat="45.95942" lon="6.62804">
        <ele>538.6</ele>
        <time>2020-08-16T13:49:07Z</time>
      </trkpt>
      <trkpt lat="45.95946" lon="6.62806">
        <ele>538.8</ele>
        <time>2020-08-16T13:49:08Z</time>
      </trkpt>
      <trkpt lat="45.95949" lon="6.62807">
        <ele>539</ele>
        <time>2020-08-16T13:49:09Z</time>
      </trkpt>
      <trkpt lat="45.95952" lon="6.62808">
        <ele>539.2</ele>
        <time>2020-08-16T13:49:10Z</time>
      </trkpt>
      <trkpt lat="45.95956" lon="6.62809">
        <ele>539.4</ele>
        <time>2020-08-16T13:49:11Z</time>
      </trkpt>
      <trkpt lat="45.9596" lon="6.6281">
        <ele>539.6</ele>
        <time>2020-08-16T13:49:12Z</time>
      </trkpt>
      <trkpt lat="45.95964" lon="6.62811">
        <ele>539.8</ele>
        <time>2020-08-16T13:49:13Z</time>
      </trkpt>
      <trkpt lat="45.95968" lon="6.62812">
        <ele>539.8</ele>
        <time>2020-08-16T13:49:14Z</time>
      </trkpt>
      <trkpt lat="45.95971" lon="6.62813">
        <ele>540</ele>
        <time>2020-08-16T13:49:15Z</time>
      </trkpt>
      <trkpt lat="45.95974" lon="6.62813">
        <ele>540.2</ele>
        <time>2020-08-16T13:49:16Z</time>
      </trkpt>
      <trkpt lat="45.95978" lon="6.62814">
        <ele>540.4</ele>
        <time>2020-08-16T13:49:17Z</time>
      </trkpt>
      <trkpt lat="45.95981" lon="6.62814">
        <ele>540.4</ele>
        <time>2020-08-16T13:49:18Z</time>
      </trkpt>
      <trkpt lat="45.95984" lon="6.62815">
        <ele>540.6</ele>
        <time>2020-08-16T13:49:19Z</time>
      </trkpt>
      <trkpt lat="45.95987" lon="6.62815">
        <ele>540.6</ele>
        <time>2020-08-16T13:49:20Z</time>
      </trkpt>
      <trkpt lat="45.95992" lon="6.62816">
        <ele>540.8</ele>
        <time>2020-08-16T13:49:21Z</time>
      </trkpt>
      <trkpt lat="45.95996" lon="6.62816">
        <ele>540.8</ele>
        <time>2020-08-16T13:49:22Z</time>
      </trkpt>
      <trkpt lat="45.95999" lon="6.62818">
        <ele>541</ele>
        <time>2020-08-16T13:49:23Z</time>
      </trkpt>
      <trkpt lat="45.96003" lon="6.6282">
        <ele>541</ele>
        <time>2020-08-16T13:49:24Z</time>
      </trkpt>
      <trkpt lat="45.96006" lon="6.62822">
        <ele>541.2</ele>
        <time>2020-08-16T13:49:25Z</time>
      </trkpt>
      <trkpt lat="45.96009" lon="6.62822">
        <ele>541.2</ele>
        <time>2020-08-16T13:49:26Z</time>
      </trkpt>
      <trkpt lat="45.96013" lon="6.62822">
        <ele>541.2</ele>
        <time>2020-08-16T13:49:27Z</time>
      </trkpt>
      <trkpt lat="45.96016" lon="6.62823">
        <ele>541.2</ele>
        <time>2020-08-16T13:49:28Z</time>
      </trkpt>
      <trkpt lat="45.9602" lon="6.62823">
        <ele>541.2</ele>
        <time>2020-08-16T13:49:29Z</time>
      </trkpt>
      <trkpt lat="45.96024" lon="6.62823">
        <ele>541.2</ele>
        <time>2020-08-16T13:49:30Z</time>
      </trkpt>
      <trkpt lat="45.96029" lon="6.62823">
        <ele>541.2</ele>
        <time>2020-08-16T13:49:31Z</time>
      </trkpt>
      <trkpt lat="45.96034" lon="6.62824">
        <ele>541</ele>
        <time>2020-08-16T13:49:32Z</time>
      </trkpt>
      <trkpt lat="45.96038" lon="6.62824">
        <ele>541</ele>
        <time>2020-08-16T13:49:33Z</time>
      </trkpt>
      <trkpt lat="45.96042" lon="6.62825">
        <ele>540.8</ele>
        <time>2020-08-16T13:49:34Z</time>
      </trkpt>
      <trkpt lat="45.96047" lon="6.62826">
        <ele>540.6</ele>
        <time>2020-08-16T13:49:35Z</time>
      </trkpt>
      <trkpt lat="45.96052" lon="6.62826">
        <ele>540.6</ele>
        <time>2020-08-16T13:49:36Z</time>
      </trkpt>
      <trkpt lat="45.96057" lon="6.62827">
        <ele>540.4</ele>
        <time>2020-08-16T13:49:37Z</time>
      </trkpt>
      <trkpt lat="45.96062" lon="6.62828">
        <ele>540.2</ele>
        <time>2020-08-16T13:49:38Z</time>
      </trkpt>
      <trkpt lat="45.96066" lon="6.62829">
        <ele>540</ele>
        <time>2020-08-16T13:49:39Z</time>
      </trkpt>
      <trkpt lat="45.96072" lon="6.6283">
        <ele>539.6</ele>
        <time>2020-08-16T13:49:40Z</time>
      </trkpt>
      <trkpt lat="45.96078" lon="6.6283">
        <ele>539.4</ele>
        <time>2020-08-16T13:49:41Z</time>
      </trkpt>
      <trkpt lat="45.96085" lon="6.62831">
        <ele>539</ele>
        <time>2020-08-16T13:49:42Z</time>
      </trkpt>
      <trkpt lat="45.96091" lon="6.62831">
        <ele>538.6</ele>
        <time>2020-08-16T13:49:43Z</time>
      </trkpt>
      <trkpt lat="45.96097" lon="6.62832">
        <ele>538.2</ele>
        <time>2020-08-16T13:49:44Z</time>
      </trkpt>
      <trkpt lat="45.96104" lon="6.62832">
        <ele>538</ele>
        <time>2020-08-16T13:49:45Z</time>
      </trkpt>
      <trkpt lat="45.96111" lon="6.62833">
        <ele>537.6</ele>
        <time>2020-08-16T13:49:46Z</time>
      </trkpt>
      <trkpt lat="45.96119" lon="6.62833">
        <ele>537.2</ele>
        <time>2020-08-16T13:49:47Z</time>
      </trkpt>
      <trkpt lat="45.96127" lon="6.62833">
        <ele>537</ele>
        <time>2020-08-16T13:49:48Z</time>
      </trkpt>
      <trkpt lat="45.96135" lon="6.62833">
        <ele>536.8</ele>
        <time>2020-08-16T13:49:49Z</time>
      </trkpt>
      <trkpt lat="45.96144" lon="6.62833">
        <ele>536.6</ele>
        <time>2020-08-16T13:49:50Z</time>
      </trkpt>
      <trkpt lat="45.96151" lon="6.62834">
        <ele>536.4</ele>
        <time>2020-08-16T13:49:51Z</time>
      </trkpt>
      <trkpt lat="45.96158" lon="6.62834">
        <ele>536.4</ele>
        <time>2020-08-16T13:49:52Z</time>
      </trkpt>
      <trkpt lat="45.96165" lon="6.62834">
        <ele>536.4</ele>
        <time>2020-08-16T13:49:53Z</time>
      </trkpt>
      <trkpt lat="45.96172" lon="6.62835">
        <ele>536.4</ele>
        <time>2020-08-16T13:49:54Z</time>
      </trkpt>
      <trkpt lat="45.96179" lon="6.62836">
        <ele>536.4</ele>
        <time>2020-08-16T13:49:55Z</time>
      </trkpt>
      <trkpt lat="45.96186" lon="6.62836">
        <ele>536.2</ele>
        <time>2020-08-16T13:49:56Z</time>
      </trkpt>
      <trkpt lat="45.96192" lon="6.62837">
        <ele>536.2</ele>
        <time>2020-08-16T13:49:57Z</time>
      </trkpt>
      <trkpt lat="45.96199" lon="6.62839">
        <ele>536</ele>
        <time>2020-08-16T13:49:58Z</time>
      </trkpt>
      <trkpt lat="45.96205" lon="6.6284">
        <ele>536.2</ele>
        <time>2020-08-16T13:49:59Z</time>
      </trkpt>
      <trkpt lat="45.96211" lon="6.62842">
        <ele>536</ele>
        <time>2020-08-16T13:50:00Z</time>
      </trkpt>
      <trkpt lat="45.96217" lon="6.62844">
        <ele>536</ele>
        <time>2020-08-16T13:50:01Z</time>
      </trkpt>
      <trkpt lat="45.96223" lon="6.62845">
        <ele>536</ele>
        <time>2020-08-16T13:50:02Z</time>
      </trkpt>
      <trkpt lat="45.96228" lon="6.62847">
        <ele>536</ele>
        <time>2020-08-16T13:50:03Z</time>
      </trkpt>
      <trkpt lat="45.96233" lon="6.62849">
        <ele>535.8</ele>
        <time>2020-08-16T13:50:04Z</time>
      </trkpt>
      <trkpt lat="45.96239" lon="6.6285">
        <ele>536</ele>
        <time>2020-08-16T13:50:05Z</time>
      </trkpt>
      <trkpt lat="45.96244" lon="6.62852">
        <ele>536</ele>
        <time>2020-08-16T13:50:06Z</time>
      </trkpt>
      <trkpt lat="45.96249" lon="6.62854">
        <ele>536</ele>
        <time>2020-08-16T13:50:07Z</time>
      </trkpt>
      <trkpt lat="45.96255" lon="6.62855">
        <ele>536.2</ele>
        <time>2020-08-16T13:50:08Z</time>
      </trkpt>
      <trkpt lat="45.96261" lon="6.62857">
        <ele>536</ele>
        <time>2020-08-16T13:50:09Z</time>
      </trkpt>
      <trkpt lat="45.96266" lon="6.62859">
        <ele>536</ele>
        <time>2020-08-16T13:50:10Z</time>
      </trkpt>
      <trkpt lat="45.96272" lon="6.6286">
        <ele>536.2</ele>
        <time>2020-08-16T13:50:11Z</time>
      </trkpt>
      <trkpt lat="45.96277" lon="6.62862">
        <ele>536.2</ele>
        <time>2020-08-16T13:50:12Z</time>
      </trkpt>
      <trkpt lat="45.96283" lon="6.62864">
        <ele>536.2</ele>
        <time>2020-08-16T13:50:13Z</time>
      </trkpt>
      <trkpt lat="45.96288" lon="6.62865">
        <ele>536.4</ele>
        <time>2020-08-16T13:50:14Z</time>
      </trkpt>
      <trkpt lat="45.96292" lon="6.62867">
        <ele>536.4</ele>
        <time>2020-08-16T13:50:15Z</time>
      </trkpt>
      <trkpt lat="45.96298" lon="6.62868">
        <ele>536.6</ele>
        <time>2020-08-16T13:50:16Z</time>
      </trkpt>
      <trkpt lat="45.96303" lon="6.62869">
        <ele>536.8</ele>
        <time>2020-08-16T13:50:17Z</time>
      </trkpt>
      <trkpt lat="45.96307" lon="6.6287">
        <ele>537</ele>
        <time>2020-08-16T13:50:18Z</time>
      </trkpt>
      <trkpt lat="45.96312" lon="6.6287">
        <ele>537.2</ele>
        <time>2020-08-16T13:50:19Z</time>
      </trkpt>
      <trkpt lat="45.96316" lon="6.62871">
        <ele>537.2</ele>
        <time>2020-08-16T13:50:20Z</time>
      </trkpt>
      <trkpt lat="45.96321" lon="6.6287">
        <ele>537.6</ele>
        <time>2020-08-16T13:50:21Z</time>
      </trkpt>
      <trkpt lat="45.96325" lon="6.6287">
        <ele>537.6</ele>
        <time>2020-08-16T13:50:22Z</time>
      </trkpt>
      <trkpt lat="45.96329" lon="6.6287">
        <ele>537.8</ele>
        <time>2020-08-16T13:50:23Z</time>
      </trkpt>
      <trkpt lat="45.96333" lon="6.62869">
        <ele>538</ele>
        <time>2020-08-16T13:50:24Z</time>
      </trkpt>
      <trkpt lat="45.96338" lon="6.62868">
        <ele>538.2</ele>
        <time>2020-08-16T13:50:25Z</time>
      </trkpt>
      <trkpt lat="45.96342" lon="6.62866">
        <ele>538.4</ele>
        <time>2020-08-16T13:50:26Z</time>
      </trkpt>
      <trkpt lat="45.96346" lon="6.62864">
        <ele>538.4</ele>
        <time>2020-08-16T13:50:27Z</time>
      </trkpt>
      <trkpt lat="45.96349" lon="6.62862">
        <ele>538.6</ele>
        <time>2020-08-16T13:50:28Z</time>
      </trkpt>
      <trkpt lat="45.96353" lon="6.62859">
        <ele>538.6</ele>
        <time>2020-08-16T13:50:29Z</time>
      </trkpt>
      <trkpt lat="45.96356" lon="6.62857">
        <ele>539</ele>
        <time>2020-08-16T13:50:30Z</time>
      </trkpt>
      <trkpt lat="45.96359" lon="6.62854">
        <ele>538.6</ele>
        <time>2020-08-16T13:50:31Z</time>
      </trkpt>
      <trkpt lat="45.96363" lon="6.62851">
        <ele>538.6</ele>
        <time>2020-08-16T13:50:32Z</time>
      </trkpt>
      <trkpt lat="45.96366" lon="6.62848">
        <ele>538.4</ele>
        <time>2020-08-16T13:50:33Z</time>
      </trkpt>
      <trkpt lat="45.96369" lon="6.62844">
        <ele>538.2</ele>
        <time>2020-08-16T13:50:34Z</time>
      </trkpt>
      <trkpt lat="45.96372" lon="6.6284">
        <ele>538</ele>
        <time>2020-08-16T13:50:35Z</time>
      </trkpt>
      <trkpt lat="45.96375" lon="6.62836">
        <ele>538.2</ele>
        <time>2020-08-16T13:50:36Z</time>
      </trkpt>
      <trkpt lat="45.96378" lon="6.62832">
        <ele>538.2</ele>
        <time>2020-08-16T13:50:37Z</time>
      </trkpt>
      <trkpt lat="45.96381" lon="6.62828">
        <ele>538.2</ele>
        <time>2020-08-16T13:50:38Z</time>
      </trkpt>
      <trkpt lat="45.96384" lon="6.62824">
        <ele>538.4</ele>
        <time>2020-08-16T13:50:39Z</time>
      </trkpt>
      <trkpt lat="45.96387" lon="6.6282">
        <ele>538.4</ele>
        <time>2020-08-16T13:50:40Z</time>
      </trkpt>
      <trkpt lat="45.9639" lon="6.62816">
        <ele>538.6</ele>
        <time>2020-08-16T13:50:41Z</time>
      </trkpt>
      <trkpt lat="45.96393" lon="6.62812">
        <ele>538.6</ele>
        <time>2020-08-16T13:50:42Z</time>
      </trkpt>
      <trkpt lat="45.96395" lon="6.62808">
        <ele>538.8</ele>
        <time>2020-08-16T13:50:43Z</time>
      </trkpt>
      <trkpt lat="45.96398" lon="6.62804">
        <ele>538.8</ele>
        <time>2020-08-16T13:50:44Z</time>
      </trkpt>
      <trkpt lat="45.96401" lon="6.628">
        <ele>538.8</ele>
        <time>2020-08-16T13:50:45Z</time>
      </trkpt>
      <trkpt lat="45.96404" lon="6.62796">
        <ele>538.8</ele>
        <time>2020-08-16T13:50:46Z</time>
      </trkpt>
      <trkpt lat="45.96406" lon="6.62792">
        <ele>538.8</ele>
        <time>2020-08-16T13:50:47Z</time>
      </trkpt>
      <trkpt lat="45.96409" lon="6.62788">
        <ele>539</ele>
        <time>2020-08-16T13:50:48Z</time>
      </trkpt>
      <trkpt lat="45.96411" lon="6.62784">
        <ele>539</ele>
        <time>2020-08-16T13:50:49Z</time>
      </trkpt>
      <trkpt lat="45.96413" lon="6.6278">
        <ele>539</ele>
        <time>2020-08-16T13:50:50Z</time>
      </trkpt>
      <trkpt lat="45.96416" lon="6.62776">
        <ele>539.2</ele>
        <time>2020-08-16T13:50:51Z</time>
      </trkpt>
      <trkpt lat="45.96418" lon="6.62772">
        <ele>539.2</ele>
        <time>2020-08-16T13:50:52Z</time>
      </trkpt>
      <trkpt lat="45.9642" lon="6.62769">
        <ele>539.4</ele>
        <time>2020-08-16T13:50:53Z</time>
      </trkpt>
      <trkpt lat="45.96422" lon="6.62765">
        <ele>539.6</ele>
        <time>2020-08-16T13:50:54Z</time>
      </trkpt>
      <trkpt lat="45.96424" lon="6.62762">
        <ele>539.6</ele>
        <time>2020-08-16T13:50:55Z</time>
      </trkpt>
      <trkpt lat="45.96426" lon="6.62759">
        <ele>539.6</ele>
        <time>2020-08-16T13:50:56Z</time>
      </trkpt>
      <trkpt lat="45.96428" lon="6.62756">
        <ele>539.8</ele>
        <time>2020-08-16T13:50:57Z</time>
      </trkpt>
      <trkpt lat="45.96429" lon="6.62754">
        <ele>540</ele>
        <time>2020-08-16T13:50:58Z</time>
      </trkpt>
      <trkpt lat="45.96431" lon="6.62751">
        <ele>540</ele>
        <time>2020-08-16T13:50:59Z</time>
      </trkpt>
      <trkpt lat="45.96432" lon="6.62748">
        <ele>540.2</ele>
        <time>2020-08-16T13:51:00Z</time>
      </trkpt>
      <trkpt lat="45.96434" lon="6.62745">
        <ele>540.4</ele>
        <time>2020-08-16T13:51:01Z</time>
      </trkpt>
      <trkpt lat="45.96436" lon="6.62742">
        <ele>540.6</ele>
        <time>2020-08-16T13:51:02Z</time>
      </trkpt>
      <trkpt lat="45.96437" lon="6.6274">
        <ele>540.8</ele>
        <time>2020-08-16T13:51:03Z</time>
      </trkpt>
      <trkpt lat="45.96439" lon="6.62737">
        <ele>541</ele>
        <time>2020-08-16T13:51:04Z</time>
      </trkpt>
      <trkpt lat="45.96441" lon="6.62734">
        <ele>541.2</ele>
        <time>2020-08-16T13:51:05Z</time>
      </trkpt>
      <trkpt lat="45.96443" lon="6.62732">
        <ele>541.2</ele>
        <time>2020-08-16T13:51:06Z</time>
      </trkpt>
      <trkpt lat="45.96444" lon="6.62729">
        <ele>541.4</ele>
        <time>2020-08-16T13:51:07Z</time>
      </trkpt>
      <trkpt lat="45.96446" lon="6.62726">
        <ele>541.6</ele>
        <time>2020-08-16T13:51:08Z</time>
      </trkpt>
      <trkpt lat="45.96448" lon="6.62724">
        <ele>541.8</ele>
        <time>2020-08-16T13:51:09Z</time>
      </trkpt>
      <trkpt lat="45.96449" lon="6.62721">
        <ele>542</ele>
        <time>2020-08-16T13:51:10Z</time>
      </trkpt>
      <trkpt lat="45.96451" lon="6.62718">
        <ele>542.2</ele>
        <time>2020-08-16T13:51:11Z</time>
      </trkpt>
      <trkpt lat="45.96453" lon="6.62715">
        <ele>542.2</ele>
        <time>2020-08-16T13:51:12Z</time>
      </trkpt>
      <trkpt lat="45.96454" lon="6.62713">
        <ele>542.4</ele>
        <time>2020-08-16T13:51:13Z</time>
      </trkpt>
      <trkpt lat="45.96456" lon="6.6271">
        <ele>542.6</ele>
        <time>2020-08-16T13:51:14Z</time>
      </trkpt>
      <trkpt lat="45.96458" lon="6.62707">
        <ele>542.8</ele>
        <time>2020-08-16T13:51:15Z</time>
      </trkpt>
      <trkpt lat="45.96459" lon="6.62705">
        <ele>543</ele>
        <time>2020-08-16T13:51:16Z</time>
      </trkpt>
      <trkpt lat="45.9646" lon="6.62702">
        <ele>543.2</ele>
        <time>2020-08-16T13:51:17Z</time>
      </trkpt>
      <trkpt lat="45.96462" lon="6.627">
        <ele>543.2</ele>
        <time>2020-08-16T13:51:18Z</time>
      </trkpt>
      <trkpt lat="45.96464" lon="6.62697">
        <ele>543.4</ele>
        <time>2020-08-16T13:51:19Z</time>
      </trkpt>
      <trkpt lat="45.96465" lon="6.62695">
        <ele>543.6</ele>
        <time>2020-08-16T13:51:20Z</time>
      </trkpt>
      <trkpt lat="45.96467" lon="6.62693">
        <ele>543.8</ele>
        <time>2020-08-16T13:51:21Z</time>
      </trkpt>
      <trkpt lat="45.96469" lon="6.62691">
        <ele>544</ele>
        <time>2020-08-16T13:51:22Z</time>
      </trkpt>
      <trkpt lat="45.9647" lon="6.62689">
        <ele>544</ele>
        <time>2020-08-16T13:51:23Z</time>
      </trkpt>
      <trkpt lat="45.96472" lon="6.62688">
        <ele>544.2</ele>
        <time>2020-08-16T13:51:24Z</time>
      </trkpt>
      <trkpt lat="45.96474" lon="6.62686">
        <ele>544.4</ele>
        <time>2020-08-16T13:51:25Z</time>
      </trkpt>
      <trkpt lat="45.96476" lon="6.62684">
        <ele>544.6</ele>
        <time>2020-08-16T13:51:26Z</time>
      </trkpt>
      <trkpt lat="45.96477" lon="6.62682">
        <ele>544.8</ele>
        <time>2020-08-16T13:51:27Z</time>
      </trkpt>
      <trkpt lat="45.96479" lon="6.6268">
        <ele>544.8</ele>
        <time>2020-08-16T13:51:28Z</time>
      </trkpt>
      <trkpt lat="45.96481" lon="6.62678">
        <ele>545</ele>
        <time>2020-08-16T13:51:29Z</time>
      </trkpt>
      <trkpt lat="45.96482" lon="6.62676">
        <ele>545</ele>
        <time>2020-08-16T13:51:30Z</time>
      </trkpt>
      <trkpt lat="45.96483" lon="6.62674">
        <ele>545</ele>
        <time>2020-08-16T13:51:31Z</time>
      </trkpt>
      <trkpt lat="45.96485" lon="6.62672">
        <ele>545</ele>
        <time>2020-08-16T13:51:32Z</time>
      </trkpt>
      <trkpt lat="45.96487" lon="6.62671">
        <ele>545</ele>
        <time>2020-08-16T13:51:33Z</time>
      </trkpt>
      <trkpt lat="45.96489" lon="6.62669">
        <ele>545.4</ele>
        <time>2020-08-16T13:51:34Z</time>
      </trkpt>
      <trkpt lat="45.9649" lon="6.62667">
        <ele>545.4</ele>
        <time>2020-08-16T13:51:35Z</time>
      </trkpt>
      <trkpt lat="45.96492" lon="6.62666">
        <ele>545.6</ele>
        <time>2020-08-16T13:51:36Z</time>
      </trkpt>
      <trkpt lat="45.96495" lon="6.62664">
        <ele>545.8</ele>
        <time>2020-08-16T13:51:37Z</time>
      </trkpt>
      <trkpt lat="45.96496" lon="6.62663">
        <ele>545.8</ele>
        <time>2020-08-16T13:51:38Z</time>
      </trkpt>
      <trkpt lat="45.96498" lon="6.62661">
        <ele>546</ele>
        <time>2020-08-16T13:51:39Z</time>
      </trkpt>
      <trkpt lat="45.965" lon="6.6266">
        <ele>546.2</ele>
        <time>2020-08-16T13:51:40Z</time>
      </trkpt>
      <trkpt lat="45.96501" lon="6.62658">
        <ele>546.4</ele>
        <time>2020-08-16T13:51:41Z</time>
      </trkpt>
      <trkpt lat="45.96503" lon="6.62657">
        <ele>546.6</ele>
        <time>2020-08-16T13:51:42Z</time>
      </trkpt>
      <trkpt lat="45.96505" lon="6.62656">
        <ele>546.8</ele>
        <time>2020-08-16T13:51:43Z</time>
      </trkpt>
      <trkpt lat="45.96507" lon="6.62655">
        <ele>546.8</ele>
        <time>2020-08-16T13:51:44Z</time>
      </trkpt>
      <trkpt lat="45.96509" lon="6.62654">
        <ele>547.2</ele>
        <time>2020-08-16T13:51:45Z</time>
      </trkpt>
      <trkpt lat="45.9651" lon="6.62652">
        <ele>547.4</ele>
        <time>2020-08-16T13:51:46Z</time>
      </trkpt>
      <trkpt lat="45.96512" lon="6.6265">
        <ele>547.6</ele>
        <time>2020-08-16T13:51:47Z</time>
      </trkpt>
      <trkpt lat="45.96514" lon="6.62649">
        <ele>547.8</ele>
        <time>2020-08-16T13:51:48Z</time>
      </trkpt>
      <trkpt lat="45.96516" lon="6.62648">
        <ele>547.8</ele>
        <time>2020-08-16T13:51:49Z</time>
      </trkpt>
      <trkpt lat="45.96518" lon="6.62647">
        <ele>548</ele>
        <time>2020-08-16T13:51:50Z</time>
      </trkpt>
      <trkpt lat="45.96519" lon="6.62645">
        <ele>548</ele>
        <time>2020-08-16T13:51:51Z</time>
      </trkpt>
      <trkpt lat="45.96521" lon="6.62643">
        <ele>548.2</ele>
        <time>2020-08-16T13:51:52Z</time>
      </trkpt>
      <trkpt lat="45.96522" lon="6.62642">
        <ele>548.2</ele>
        <time>2020-08-16T13:51:53Z</time>
      </trkpt>
      <trkpt lat="45.96524" lon="6.6264">
        <ele>548.4</ele>
        <time>2020-08-16T13:51:54Z</time>
      </trkpt>
      <trkpt lat="45.96526" lon="6.62638">
        <ele>548.4</ele>
        <time>2020-08-16T13:51:55Z</time>
      </trkpt>
      <trkpt lat="45.96528" lon="6.62636">
        <ele>548.8</ele>
        <time>2020-08-16T13:51:56Z</time>
      </trkpt>
      <trkpt lat="45.9653" lon="6.62634">
        <ele>549</ele>
        <time>2020-08-16T13:51:57Z</time>
      </trkpt>
      <trkpt lat="45.96532" lon="6.62633">
        <ele>549</ele>
        <time>2020-08-16T13:51:58Z</time>
      </trkpt>
      <trkpt lat="45.96534" lon="6.62631">
        <ele>549.2</ele>
        <time>2020-08-16T13:51:59Z</time>
      </trkpt>
      <trkpt lat="45.96535" lon="6.62629">
        <ele>549.2</ele>
        <time>2020-08-16T13:52:00Z</time>
      </trkpt>
      <trkpt lat="45.96537" lon="6.62628">
        <ele>549.4</ele>
        <time>2020-08-16T13:52:01Z</time>
      </trkpt>
      <trkpt lat="45.96539" lon="6.62626">
        <ele>549.6</ele>
        <time>2020-08-16T13:52:02Z</time>
      </trkpt>
      <trkpt lat="45.96541" lon="6.62625">
        <ele>549.6</ele>
        <time>2020-08-16T13:52:03Z</time>
      </trkpt>
      <trkpt lat="45.96544" lon="6.62623">
        <ele>549.8</ele>
        <time>2020-08-16T13:52:04Z</time>
      </trkpt>
      <trkpt lat="45.96546" lon="6.62621">
        <ele>549.8</ele>
        <time>2020-08-16T13:52:05Z</time>
      </trkpt>
      <trkpt lat="45.96547" lon="6.6262">
        <ele>550</ele>
        <time>2020-08-16T13:52:06Z</time>
      </trkpt>
      <trkpt lat="45.96549" lon="6.62618">
        <ele>550.2</ele>
        <time>2020-08-16T13:52:07Z</time>
      </trkpt>
      <trkpt lat="45.96551" lon="6.62616">
        <ele>550.4</ele>
        <time>2020-08-16T13:52:08Z</time>
      </trkpt>
      <trkpt lat="45.96553" lon="6.62614">
        <ele>550.4</ele>
        <time>2020-08-16T13:52:09Z</time>
      </trkpt>
      <trkpt lat="45.96555" lon="6.62613">
        <ele>550.6</ele>
        <time>2020-08-16T13:52:10Z</time>
      </trkpt>
      <trkpt lat="45.96556" lon="6.62612">
        <ele>550.8</ele>
        <time>2020-08-16T13:52:11Z</time>
      </trkpt>
      <trkpt lat="45.96558" lon="6.6261">
        <ele>551</ele>
        <time>2020-08-16T13:52:12Z</time>
      </trkpt>
      <trkpt lat="45.9656" lon="6.62609">
        <ele>551</ele>
        <time>2020-08-16T13:52:13Z</time>
      </trkpt>
      <trkpt lat="45.96562" lon="6.62608">
        <ele>551.2</ele>
        <time>2020-08-16T13:52:14Z</time>
      </trkpt>
      <trkpt lat="45.96564" lon="6.62607">
        <ele>551.4</ele>
        <time>2020-08-16T13:52:15Z</time>
      </trkpt>
      <trkpt lat="45.96565" lon="6.62605">
        <ele>551.4</ele>
        <time>2020-08-16T13:52:16Z</time>
      </trkpt>
      <trkpt lat="45.96567" lon="6.62604">
        <ele>551.6</ele>
        <time>2020-08-16T13:52:17Z</time>
      </trkpt>
      <trkpt lat="45.96569" lon="6.62603">
        <ele>551.6</ele>
        <time>2020-08-16T13:52:18Z</time>
      </trkpt>
      <trkpt lat="45.96571" lon="6.62601">
        <ele>552</ele>
        <time>2020-08-16T13:52:19Z</time>
      </trkpt>
      <trkpt lat="45.96573" lon="6.626">
        <ele>552</ele>
        <time>2020-08-16T13:52:20Z</time>
      </trkpt>
      <trkpt lat="45.96575" lon="6.62599">
        <ele>552.2</ele>
        <time>2020-08-16T13:52:21Z</time>
      </trkpt>
      <trkpt lat="45.96577" lon="6.62598">
        <ele>552.4</ele>
        <time>2020-08-16T13:52:22Z</time>
      </trkpt>
      <trkpt lat="45.96579" lon="6.62597">
        <ele>552.6</ele>
        <time>2020-08-16T13:52:23Z</time>
      </trkpt>
      <trkpt lat="45.96581" lon="6.62596">
        <ele>552.8</ele>
        <time>2020-08-16T13:52:24Z</time>
      </trkpt>
      <trkpt lat="45.96583" lon="6.62595">
        <ele>553</ele>
        <time>2020-08-16T13:52:25Z</time>
      </trkpt>
      <trkpt lat="45.96585" lon="6.62593">
        <ele>553</ele>
        <time>2020-08-16T13:52:26Z</time>
      </trkpt>
      <trkpt lat="45.96586" lon="6.62592">
        <ele>553.2</ele>
        <time>2020-08-16T13:52:27Z</time>
      </trkpt>
      <trkpt lat="45.96588" lon="6.62591">
        <ele>553.2</ele>
        <time>2020-08-16T13:52:28Z</time>
      </trkpt>
      <trkpt lat="45.9659" lon="6.62591">
        <ele>553.4</ele>
        <time>2020-08-16T13:52:29Z</time>
      </trkpt>
      <trkpt lat="45.96592" lon="6.6259">
        <ele>553.6</ele>
        <time>2020-08-16T13:52:30Z</time>
      </trkpt>
      <trkpt lat="45.96594" lon="6.62589">
        <ele>553.8</ele>
        <time>2020-08-16T13:52:31Z</time>
      </trkpt>
      <trkpt lat="45.96596" lon="6.62588">
        <ele>554</ele>
        <time>2020-08-16T13:52:32Z</time>
      </trkpt>
      <trkpt lat="45.96597" lon="6.62587">
        <ele>554.2</ele>
        <time>2020-08-16T13:52:33Z</time>
      </trkpt>
      <trkpt lat="45.96599" lon="6.62586">
        <ele>554.4</ele>
        <time>2020-08-16T13:52:34Z</time>
      </trkpt>
      <trkpt lat="45.96601" lon="6.62585">
        <ele>554.4</ele>
        <time>2020-08-16T13:52:35Z</time>
      </trkpt>
      <trkpt lat="45.96603" lon="6.62585">
        <ele>554.4</ele>
        <time>2020-08-16T13:52:36Z</time>
      </trkpt>
      <trkpt lat="45.96604" lon="6.62584">
        <ele>554.6</ele>
        <time>2020-08-16T13:52:37Z</time>
      </trkpt>
      <trkpt lat="45.96606" lon="6.62583">
        <ele>554.8</ele>
        <time>2020-08-16T13:52:38Z</time>
      </trkpt>
      <trkpt lat="45.96608" lon="6.62582">
        <ele>555</ele>
        <time>2020-08-16T13:52:39Z</time>
      </trkpt>
      <trkpt lat="45.9661" lon="6.62581">
        <ele>555.4</ele>
        <time>2020-08-16T13:52:40Z</time>
      </trkpt>
      <trkpt lat="45.96611" lon="6.6258">
        <ele>555.4</ele>
        <time>2020-08-16T13:52:41Z</time>
      </trkpt>
      <trkpt lat="45.96613" lon="6.62578">
        <ele>555.8</ele>
        <time>2020-08-16T13:52:42Z</time>
      </trkpt>
      <trkpt lat="45.96615" lon="6.62577">
        <ele>555.8</ele>
        <time>2020-08-16T13:52:43Z</time>
      </trkpt>
      <trkpt lat="45.96616" lon="6.62575">
        <ele>556</ele>
        <time>2020-08-16T13:52:44Z</time>
      </trkpt>
      <trkpt lat="45.96618" lon="6.62573">
        <ele>556</ele>
        <time>2020-08-16T13:52:45Z</time>
      </trkpt>
      <trkpt lat="45.96619" lon="6.62572">
        <ele>556.2</ele>
        <time>2020-08-16T13:52:46Z</time>
      </trkpt>
      <trkpt lat="45.9662" lon="6.6257">
        <ele>556.4</ele>
        <time>2020-08-16T13:52:47Z</time>
      </trkpt>
      <trkpt lat="45.96621" lon="6.62569">
        <ele>556.4</ele>
        <time>2020-08-16T13:52:48Z</time>
      </trkpt>
      <trkpt lat="45.96622" lon="6.62567">
        <ele>556.6</ele>
        <time>2020-08-16T13:52:49Z</time>
      </trkpt>
      <trkpt lat="45.96623" lon="6.62565">
        <ele>556.6</ele>
        <time>2020-08-16T13:52:50Z</time>
      </trkpt>
      <trkpt lat="45.96625" lon="6.62563">
        <ele>556.8</ele>
        <time>2020-08-16T13:52:51Z</time>
      </trkpt>
      <trkpt lat="45.96625" lon="6.6256">
        <ele>557</ele>
        <time>2020-08-16T13:52:52Z</time>
      </trkpt>
      <trkpt lat="45.96626" lon="6.62558">
        <ele>557.2</ele>
        <time>2020-08-16T13:52:53Z</time>
      </trkpt>
      <trkpt lat="45.96627" lon="6.62556">
        <ele>557.2</ele>
        <time>2020-08-16T13:52:54Z</time>
      </trkpt>
      <trkpt lat="45.96629" lon="6.62555">
        <ele>557.4</ele>
        <time>2020-08-16T13:52:55Z</time>
      </trkpt>
      <trkpt lat="45.9663" lon="6.62552">
        <ele>557.6</ele>
        <time>2020-08-16T13:52:56Z</time>
      </trkpt>
      <trkpt lat="45.96631" lon="6.62551">
        <ele>557.6</ele>
        <time>2020-08-16T13:52:57Z</time>
      </trkpt>
      <trkpt lat="45.96632" lon="6.62549">
        <ele>557.8</ele>
        <time>2020-08-16T13:52:58Z</time>
      </trkpt>
      <trkpt lat="45.96634" lon="6.62547">
        <ele>558</ele>
        <time>2020-08-16T13:52:59Z</time>
      </trkpt>
      <trkpt lat="45.96635" lon="6.62545">
        <ele>558.2</ele>
        <time>2020-08-16T13:53:00Z</time>
      </trkpt>
      <trkpt lat="45.96636" lon="6.62544">
        <ele>558.2</ele>
        <time>2020-08-16T13:53:01Z</time>
      </trkpt>
      <trkpt lat="45.96637" lon="6.62542">
        <ele>558.4</ele>
        <time>2020-08-16T13:53:02Z</time>
      </trkpt>
      <trkpt lat="45.96639" lon="6.6254">
        <ele>558.6</ele>
        <time>2020-08-16T13:53:03Z</time>
      </trkpt>
      <trkpt lat="45.9664" lon="6.62539">
        <ele>558.6</ele>
        <time>2020-08-16T13:53:04Z</time>
      </trkpt>
      <trkpt lat="45.96642" lon="6.62537">
        <ele>558.8</ele>
        <time>2020-08-16T13:53:05Z</time>
      </trkpt>
      <trkpt lat="45.96644" lon="6.62535">
        <ele>559</ele>
        <time>2020-08-16T13:53:06Z</time>
      </trkpt>
      <trkpt lat="45.96646" lon="6.62534">
        <ele>559</ele>
        <time>2020-08-16T13:53:07Z</time>
      </trkpt>
      <trkpt lat="45.96648" lon="6.62532">
        <ele>559.2</ele>
        <time>2020-08-16T13:53:08Z</time>
      </trkpt>
      <trkpt lat="45.96649" lon="6.62531">
        <ele>559.4</ele>
        <time>2020-08-16T13:53:09Z</time>
      </trkpt>
      <trkpt lat="45.96651" lon="6.62529">
        <ele>559.6</ele>
        <time>2020-08-16T13:53:10Z</time>
      </trkpt>
      <trkpt lat="45.96653" lon="6.62528">
        <ele>559.8</ele>
        <time>2020-08-16T13:53:11Z</time>
      </trkpt>
      <trkpt lat="45.96654" lon="6.62527">
        <ele>559.8</ele>
        <time>2020-08-16T13:53:12Z</time>
      </trkpt>
      <trkpt lat="45.96656" lon="6.62527">
        <ele>560</ele>
        <time>2020-08-16T13:53:13Z</time>
      </trkpt>
      <trkpt lat="45.96658" lon="6.62527">
        <ele>560</ele>
        <time>2020-08-16T13:53:14Z</time>
      </trkpt>
      <trkpt lat="45.9666" lon="6.62527">
        <ele>560.2</ele>
        <time>2020-08-16T13:53:15Z</time>
      </trkpt>
      <trkpt lat="45.96662" lon="6.62527">
        <ele>560.2</ele>
        <time>2020-08-16T13:53:16Z</time>
      </trkpt>
      <trkpt lat="45.96664" lon="6.62527">
        <ele>560.4</ele>
        <time>2020-08-16T13:53:17Z</time>
      </trkpt>
      <trkpt lat="45.96666" lon="6.62527">
        <ele>560.6</ele>
        <time>2020-08-16T13:53:18Z</time>
      </trkpt>
      <trkpt lat="45.96668" lon="6.62527">
        <ele>560.6</ele>
        <time>2020-08-16T13:53:19Z</time>
      </trkpt>
      <trkpt lat="45.9667" lon="6.62527">
        <ele>560.8</ele>
        <time>2020-08-16T13:53:20Z</time>
      </trkpt>
      <trkpt lat="45.96672" lon="6.62527">
        <ele>561</ele>
        <time>2020-08-16T13:53:21Z</time>
      </trkpt>
      <trkpt lat="45.96674" lon="6.62527">
        <ele>561.2</ele>
        <time>2020-08-16T13:53:22Z</time>
      </trkpt>
      <trkpt lat="45.96676" lon="6.62527">
        <ele>561.4</ele>
        <time>2020-08-16T13:53:23Z</time>
      </trkpt>
      <trkpt lat="45.96678" lon="6.62528">
        <ele>561.6</ele>
        <time>2020-08-16T13:53:24Z</time>
      </trkpt>
      <trkpt lat="45.96679" lon="6.62529">
        <ele>561.8</ele>
        <time>2020-08-16T13:53:25Z</time>
      </trkpt>
      <trkpt lat="45.96681" lon="6.62529">
        <ele>561.8</ele>
        <time>2020-08-16T13:53:26Z</time>
      </trkpt>
      <trkpt lat="45.96683" lon="6.6253">
        <ele>562</ele>
        <time>2020-08-16T13:53:27Z</time>
      </trkpt>
      <trkpt lat="45.96685" lon="6.6253">
        <ele>562.4</ele>
        <time>2020-08-16T13:53:28Z</time>
      </trkpt>
      <trkpt lat="45.96687" lon="6.6253">
        <ele>562.6</ele>
        <time>2020-08-16T13:53:29Z</time>
      </trkpt>
      <trkpt lat="45.96689" lon="6.6253">
        <ele>562.8</ele>
        <time>2020-08-16T13:53:30Z</time>
      </trkpt>
      <trkpt lat="45.96691" lon="6.62531">
        <ele>562.8</ele>
        <time>2020-08-16T13:53:31Z</time>
      </trkpt>
      <trkpt lat="45.96692" lon="6.62531">
        <ele>563</ele>
        <time>2020-08-16T13:53:32Z</time>
      </trkpt>
      <trkpt lat="45.96694" lon="6.62531">
        <ele>563.2</ele>
        <time>2020-08-16T13:53:33Z</time>
      </trkpt>
      <trkpt lat="45.96696" lon="6.62531">
        <ele>563.4</ele>
        <time>2020-08-16T13:53:34Z</time>
      </trkpt>
      <trkpt lat="45.96697" lon="6.62532">
        <ele>563.6</ele>
        <time>2020-08-16T13:53:35Z</time>
      </trkpt>
      <trkpt lat="45.96699" lon="6.62532">
        <ele>563.6</ele>
        <time>2020-08-16T13:53:36Z</time>
      </trkpt>
      <trkpt lat="45.96701" lon="6.62532">
        <ele>563.8</ele>
        <time>2020-08-16T13:53:37Z</time>
      </trkpt>
      <trkpt lat="45.96703" lon="6.62532">
        <ele>564</ele>
        <time>2020-08-16T13:53:38Z</time>
      </trkpt>
      <trkpt lat="45.96706" lon="6.62533">
        <ele>564.4</ele>
        <time>2020-08-16T13:53:39Z</time>
      </trkpt>
      <trkpt lat="45.96708" lon="6.62533">
        <ele>564.4</ele>
        <time>2020-08-16T13:53:40Z</time>
      </trkpt>
      <trkpt lat="45.9671" lon="6.62534">
        <ele>564.4</ele>
        <time>2020-08-16T13:53:41Z</time>
      </trkpt>
      <trkpt lat="45.96712" lon="6.62534">
        <ele>564.6</ele>
        <time>2020-08-16T13:53:42Z</time>
      </trkpt>
      <trkpt lat="45.96714" lon="6.62534">
        <ele>564.6</ele>
        <time>2020-08-16T13:53:43Z</time>
      </trkpt>
      <trkpt lat="45.96717" lon="6.62535">
        <ele>564.6</ele>
        <time>2020-08-16T13:53:44Z</time>
      </trkpt>
      <trkpt lat="45.96719" lon="6.62535">
        <ele>564.8</ele>
        <time>2020-08-16T13:53:45Z</time>
      </trkpt>
      <trkpt lat="45.96721" lon="6.62536">
        <ele>564.8</ele>
        <time>2020-08-16T13:53:46Z</time>
      </trkpt>
      <trkpt lat="45.96723" lon="6.62536">
        <ele>564.8</ele>
        <time>2020-08-16T13:53:47Z</time>
      </trkpt>
      <trkpt lat="45.96725" lon="6.62536">
        <ele>565</ele>
        <time>2020-08-16T13:53:48Z</time>
      </trkpt>
      <trkpt lat="45.96728" lon="6.62536">
        <ele>565.2</ele>
        <time>2020-08-16T13:53:49Z</time>
      </trkpt>
      <trkpt lat="45.9673" lon="6.62537">
        <ele>565.2</ele>
        <time>2020-08-16T13:53:50Z</time>
      </trkpt>
      <trkpt lat="45.96732" lon="6.62537">
        <ele>565.4</ele>
        <time>2020-08-16T13:53:51Z</time>
      </trkpt>
      <trkpt lat="45.96734" lon="6.62537">
        <ele>565.4</ele>
        <time>2020-08-16T13:53:52Z</time>
      </trkpt>
      <trkpt lat="45.96736" lon="6.62537">
        <ele>565.6</ele>
        <time>2020-08-16T13:53:53Z</time>
      </trkpt>
      <trkpt lat="45.96738" lon="6.62538">
        <ele>565.6</ele>
        <time>2020-08-16T13:53:54Z</time>
      </trkpt>
      <trkpt lat="45.9674" lon="6.62539">
        <ele>565.6</ele>
        <time>2020-08-16T13:53:55Z</time>
      </trkpt>
      <trkpt lat="45.96743" lon="6.62539">
        <ele>565.6</ele>
        <time>2020-08-16T13:53:56Z</time>
      </trkpt>
      <trkpt lat="45.96745" lon="6.62539">
        <ele>565.8</ele>
        <time>2020-08-16T13:53:57Z</time>
      </trkpt>
      <trkpt lat="45.96747" lon="6.62539">
        <ele>565.8</ele>
        <time>2020-08-16T13:53:58Z</time>
      </trkpt>
      <trkpt lat="45.9675" lon="6.6254">
        <ele>566</ele>
        <time>2020-08-16T13:53:59Z</time>
      </trkpt>
      <trkpt lat="45.96752" lon="6.6254">
        <ele>566</ele>
        <time>2020-08-16T13:54:00Z</time>
      </trkpt>
      <trkpt lat="45.96754" lon="6.6254">
        <ele>566</ele>
        <time>2020-08-16T13:54:01Z</time>
      </trkpt>
      <trkpt lat="45.96756" lon="6.6254">
        <ele>566</ele>
        <time>2020-08-16T13:54:02Z</time>
      </trkpt>
      <trkpt lat="45.96759" lon="6.62541">
        <ele>566.2</ele>
        <time>2020-08-16T13:54:03Z</time>
      </trkpt>
      <trkpt lat="45.96761" lon="6.62541">
        <ele>566.4</ele>
        <time>2020-08-16T13:54:04Z</time>
      </trkpt>
      <trkpt lat="45.96763" lon="6.62542">
        <ele>566.6</ele>
        <time>2020-08-16T13:54:05Z</time>
      </trkpt>
      <trkpt lat="45.96764" lon="6.62542">
        <ele>566.6</ele>
        <time>2020-08-16T13:54:06Z</time>
      </trkpt>
      <trkpt lat="45.96767" lon="6.62542">
        <ele>566.8</ele>
        <time>2020-08-16T13:54:07Z</time>
      </trkpt>
      <trkpt lat="45.96769" lon="6.62542">
        <ele>566.8</ele>
        <time>2020-08-16T13:54:08Z</time>
      </trkpt>
      <trkpt lat="45.96771" lon="6.62543">
        <ele>566.8</ele>
        <time>2020-08-16T13:54:09Z</time>
      </trkpt>
      <trkpt lat="45.96773" lon="6.62543">
        <ele>567</ele>
        <time>2020-08-16T13:54:10Z</time>
      </trkpt>
      <trkpt lat="45.96775" lon="6.62543">
        <ele>567.2</ele>
        <time>2020-08-16T13:54:11Z</time>
      </trkpt>
      <trkpt lat="45.96778" lon="6.62544">
        <ele>567.4</ele>
        <time>2020-08-16T13:54:12Z</time>
      </trkpt>
      <trkpt lat="45.9678" lon="6.62544">
        <ele>567.4</ele>
        <time>2020-08-16T13:54:13Z</time>
      </trkpt>
      <trkpt lat="45.96782" lon="6.62545">
        <ele>567.4</ele>
        <time>2020-08-16T13:54:14Z</time>
      </trkpt>
      <trkpt lat="45.96785" lon="6.62546">
        <ele>567.4</ele>
        <time>2020-08-16T13:54:15Z</time>
      </trkpt>
      <trkpt lat="45.96787" lon="6.62546">
        <ele>567.6</ele>
        <time>2020-08-16T13:54:16Z</time>
      </trkpt>
      <trkpt lat="45.9679" lon="6.62546">
        <ele>567.6</ele>
        <time>2020-08-16T13:54:17Z</time>
      </trkpt>
      <trkpt lat="45.96792" lon="6.62546">
        <ele>567.8</ele>
        <time>2020-08-16T13:54:18Z</time>
      </trkpt>
      <trkpt lat="45.96795" lon="6.62547">
        <ele>567.8</ele>
        <time>2020-08-16T13:54:19Z</time>
      </trkpt>
      <trkpt lat="45.96797" lon="6.62547">
        <ele>567.8</ele>
        <time>2020-08-16T13:54:20Z</time>
      </trkpt>
      <trkpt lat="45.96799" lon="6.62547">
        <ele>568.2</ele>
        <time>2020-08-16T13:54:21Z</time>
      </trkpt>
      <trkpt lat="45.96802" lon="6.62547">
        <ele>568.4</ele>
        <time>2020-08-16T13:54:22Z</time>
      </trkpt>
      <trkpt lat="45.96804" lon="6.62547">
        <ele>568.4</ele>
        <time>2020-08-16T13:54:23Z</time>
      </trkpt>
      <trkpt lat="45.96806" lon="6.62547">
        <ele>568.4</ele>
        <time>2020-08-16T13:54:24Z</time>
      </trkpt>
      <trkpt lat="45.96809" lon="6.62547">
        <ele>568.6</ele>
        <time>2020-08-16T13:54:25Z</time>
      </trkpt>
      <trkpt lat="45.96811" lon="6.62546">
        <ele>568.6</ele>
        <time>2020-08-16T13:54:26Z</time>
      </trkpt>
      <trkpt lat="45.96814" lon="6.62545">
        <ele>568.8</ele>
        <time>2020-08-16T13:54:27Z</time>
      </trkpt>
      <trkpt lat="45.96816" lon="6.62545">
        <ele>569</ele>
        <time>2020-08-16T13:54:28Z</time>
      </trkpt>
      <trkpt lat="45.96819" lon="6.62545">
        <ele>569</ele>
        <time>2020-08-16T13:54:29Z</time>
      </trkpt>
      <trkpt lat="45.96821" lon="6.62545">
        <ele>569.2</ele>
        <time>2020-08-16T13:54:30Z</time>
      </trkpt>
      <trkpt lat="45.96824" lon="6.62545">
        <ele>569.2</ele>
        <time>2020-08-16T13:54:31Z</time>
      </trkpt>
      <trkpt lat="45.96826" lon="6.62545">
        <ele>569.2</ele>
        <time>2020-08-16T13:54:32Z</time>
      </trkpt>
      <trkpt lat="45.96828" lon="6.62545">
        <ele>569.2</ele>
        <time>2020-08-16T13:54:33Z</time>
      </trkpt>
      <trkpt lat="45.9683" lon="6.62545">
        <ele>569.4</ele>
        <time>2020-08-16T13:54:34Z</time>
      </trkpt>
      <trkpt lat="45.96833" lon="6.62544">
        <ele>569.6</ele>
        <time>2020-08-16T13:54:35Z</time>
      </trkpt>
      <trkpt lat="45.96835" lon="6.62544">
        <ele>569.8</ele>
        <time>2020-08-16T13:54:36Z</time>
      </trkpt>
      <trkpt lat="45.96838" lon="6.62544">
        <ele>569.8</ele>
        <time>2020-08-16T13:54:37Z</time>
      </trkpt>
      <trkpt lat="45.9684" lon="6.62543">
        <ele>569.8</ele>
        <time>2020-08-16T13:54:38Z</time>
      </trkpt>
      <trkpt lat="45.96842" lon="6.62543">
        <ele>570</ele>
        <time>2020-08-16T13:54:39Z</time>
      </trkpt>
      <trkpt lat="45.96845" lon="6.62542">
        <ele>570</ele>
        <time>2020-08-16T13:54:40Z</time>
      </trkpt>
      <trkpt lat="45.96847" lon="6.62542">
        <ele>570.2</ele>
        <time>2020-08-16T13:54:41Z</time>
      </trkpt>
      <trkpt lat="45.9685" lon="6.62542">
        <ele>570.2</ele>
        <time>2020-08-16T13:54:42Z</time>
      </trkpt>
      <trkpt lat="45.96852" lon="6.62541">
        <ele>570.4</ele>
        <time>2020-08-16T13:54:43Z</time>
      </trkpt>
      <trkpt lat="45.96854" lon="6.62541">
        <ele>570.4</ele>
        <time>2020-08-16T13:54:44Z</time>
      </trkpt>
      <trkpt lat="45.96857" lon="6.62541">
        <ele>570.6</ele>
        <time>2020-08-16T13:54:45Z</time>
      </trkpt>
      <trkpt lat="45.96859" lon="6.6254">
        <ele>570.6</ele>
        <time>2020-08-16T13:54:46Z</time>
      </trkpt>
      <trkpt lat="45.96861" lon="6.6254">
        <ele>570.6</ele>
        <time>2020-08-16T13:54:47Z</time>
      </trkpt>
      <trkpt lat="45.96864" lon="6.6254">
        <ele>570.6</ele>
        <time>2020-08-16T13:54:48Z</time>
      </trkpt>
      <trkpt lat="45.96866" lon="6.6254">
        <ele>570.8</ele>
        <time>2020-08-16T13:54:49Z</time>
      </trkpt>
      <trkpt lat="45.96869" lon="6.62539">
        <ele>570.8</ele>
        <time>2020-08-16T13:54:50Z</time>
      </trkpt>
      <trkpt lat="45.96871" lon="6.62539">
        <ele>570.8</ele>
        <time>2020-08-16T13:54:51Z</time>
      </trkpt>
      <trkpt lat="45.96874" lon="6.62538">
        <ele>571</ele>
        <time>2020-08-16T13:54:52Z</time>
      </trkpt>
      <trkpt lat="45.96877" lon="6.62538">
        <ele>571.2</ele>
        <time>2020-08-16T13:54:53Z</time>
      </trkpt>
      <trkpt lat="45.96879" lon="6.62538">
        <ele>571.2</ele>
        <time>2020-08-16T13:54:54Z</time>
      </trkpt>
      <trkpt lat="45.96882" lon="6.62538">
        <ele>571.4</ele>
        <time>2020-08-16T13:54:55Z</time>
      </trkpt>
      <trkpt lat="45.96884" lon="6.62537">
        <ele>571.6</ele>
        <time>2020-08-16T13:54:56Z</time>
      </trkpt>
      <trkpt lat="45.96887" lon="6.62537">
        <ele>571.6</ele>
        <time>2020-08-16T13:54:57Z</time>
      </trkpt>
      <trkpt lat="45.96889" lon="6.62537">
        <ele>571.8</ele>
        <time>2020-08-16T13:54:58Z</time>
      </trkpt>
      <trkpt lat="45.96891" lon="6.62536">
        <ele>571.8</ele>
        <time>2020-08-16T13:54:59Z</time>
      </trkpt>
      <trkpt lat="45.96893" lon="6.62535">
        <ele>572</ele>
        <time>2020-08-16T13:55:00Z</time>
      </trkpt>
      <trkpt lat="45.96895" lon="6.62534">
        <ele>572</ele>
        <time>2020-08-16T13:55:01Z</time>
      </trkpt>
      <trkpt lat="45.96898" lon="6.62534">
        <ele>572.2</ele>
        <time>2020-08-16T13:55:02Z</time>
      </trkpt>
      <trkpt lat="45.969" lon="6.62534">
        <ele>572.2</ele>
        <time>2020-08-16T13:55:03Z</time>
      </trkpt>
      <trkpt lat="45.96902" lon="6.62533">
        <ele>572.4</ele>
        <time>2020-08-16T13:55:04Z</time>
      </trkpt>
      <trkpt lat="45.96905" lon="6.62533">
        <ele>572.4</ele>
        <time>2020-08-16T13:55:05Z</time>
      </trkpt>
      <trkpt lat="45.96907" lon="6.62532">
        <ele>572.6</ele>
        <time>2020-08-16T13:55:06Z</time>
      </trkpt>
      <trkpt lat="45.96909" lon="6.62531">
        <ele>572.6</ele>
        <time>2020-08-16T13:55:07Z</time>
      </trkpt>
      <trkpt lat="45.96912" lon="6.62531">
        <ele>572.8</ele>
        <time>2020-08-16T13:55:08Z</time>
      </trkpt>
      <trkpt lat="45.96914" lon="6.6253">
        <ele>573</ele>
        <time>2020-08-16T13:55:09Z</time>
      </trkpt>
      <trkpt lat="45.96916" lon="6.6253">
        <ele>573.2</ele>
        <time>2020-08-16T13:55:10Z</time>
      </trkpt>
      <trkpt lat="45.96918" lon="6.62529">
        <ele>573.2</ele>
        <time>2020-08-16T13:55:11Z</time>
      </trkpt>
      <trkpt lat="45.9692" lon="6.62528">
        <ele>573.4</ele>
        <time>2020-08-16T13:55:12Z</time>
      </trkpt>
      <trkpt lat="45.96922" lon="6.62528">
        <ele>573.6</ele>
        <time>2020-08-16T13:55:13Z</time>
      </trkpt>
      <trkpt lat="45.96925" lon="6.62527">
        <ele>573.6</ele>
        <time>2020-08-16T13:55:14Z</time>
      </trkpt>
      <trkpt lat="45.96927" lon="6.62527">
        <ele>573.8</ele>
        <time>2020-08-16T13:55:15Z</time>
      </trkpt>
      <trkpt lat="45.96929" lon="6.62527">
        <ele>574</ele>
        <time>2020-08-16T13:55:16Z</time>
      </trkpt>
      <trkpt lat="45.96932" lon="6.62526">
        <ele>574</ele>
        <time>2020-08-16T13:55:17Z</time>
      </trkpt>
      <trkpt lat="45.96934" lon="6.62526">
        <ele>574.2</ele>
        <time>2020-08-16T13:55:18Z</time>
      </trkpt>
      <trkpt lat="45.96936" lon="6.62526">
        <ele>574.2</ele>
        <time>2020-08-16T13:55:19Z</time>
      </trkpt>
      <trkpt lat="45.96939" lon="6.62525">
        <ele>574.4</ele>
        <time>2020-08-16T13:55:20Z</time>
      </trkpt>
      <trkpt lat="45.96941" lon="6.62525">
        <ele>574.4</ele>
        <time>2020-08-16T13:55:21Z</time>
      </trkpt>
      <trkpt lat="45.96943" lon="6.62524">
        <ele>574.6</ele>
        <time>2020-08-16T13:55:22Z</time>
      </trkpt>
      <trkpt lat="45.96945" lon="6.62524">
        <ele>574.8</ele>
        <time>2020-08-16T13:55:23Z</time>
      </trkpt>
      <trkpt lat="45.96948" lon="6.62524">
        <ele>574.8</ele>
        <time>2020-08-16T13:55:24Z</time>
      </trkpt>
      <trkpt lat="45.9695" lon="6.62524">
        <ele>575</ele>
        <time>2020-08-16T13:55:25Z</time>
      </trkpt>
      <trkpt lat="45.96952" lon="6.62523">
        <ele>575</ele>
        <time>2020-08-16T13:55:26Z</time>
      </trkpt>
      <trkpt lat="45.96954" lon="6.62523">
        <ele>575.2</ele>
        <time>2020-08-16T13:55:27Z</time>
      </trkpt>
      <trkpt lat="45.96957" lon="6.62523">
        <ele>575.4</ele>
        <time>2020-08-16T13:55:28Z</time>
      </trkpt>
      <trkpt lat="45.96959" lon="6.62523">
        <ele>575.4</ele>
        <time>2020-08-16T13:55:29Z</time>
      </trkpt>
      <trkpt lat="45.96961" lon="6.62522">
        <ele>575.6</ele>
        <time>2020-08-16T13:55:30Z</time>
      </trkpt>
      <trkpt lat="45.96963" lon="6.62522">
        <ele>575.8</ele>
        <time>2020-08-16T13:55:31Z</time>
      </trkpt>
      <trkpt lat="45.96965" lon="6.62522">
        <ele>575.8</ele>
        <time>2020-08-16T13:55:32Z</time>
      </trkpt>
      <trkpt lat="45.96967" lon="6.62521">
        <ele>576</ele>
        <time>2020-08-16T13:55:33Z</time>
      </trkpt>
      <trkpt lat="45.96969" lon="6.62521">
        <ele>576.2</ele>
        <time>2020-08-16T13:55:34Z</time>
      </trkpt>
      <trkpt lat="45.96972" lon="6.6252">
        <ele>576.6</ele>
        <time>2020-08-16T13:55:35Z</time>
      </trkpt>
      <trkpt lat="45.96974" lon="6.6252">
        <ele>576.6</ele>
        <time>2020-08-16T13:55:36Z</time>
      </trkpt>
      <trkpt lat="45.96976" lon="6.62519">
        <ele>576.8</ele>
        <time>2020-08-16T13:55:37Z</time>
      </trkpt>
      <trkpt lat="45.96978" lon="6.62519">
        <ele>577</ele>
        <time>2020-08-16T13:55:38Z</time>
      </trkpt>
      <trkpt lat="45.96981" lon="6.62519">
        <ele>577</ele>
        <time>2020-08-16T13:55:39Z</time>
      </trkpt>
      <trkpt lat="45.96983" lon="6.62519">
        <ele>577.2</ele>
        <time>2020-08-16T13:55:40Z</time>
      </trkpt>
      <trkpt lat="45.96985" lon="6.62519">
        <ele>577.4</ele>
        <time>2020-08-16T13:55:41Z</time>
      </trkpt>
      <trkpt lat="45.96986" lon="6.62518">
        <ele>577.4</ele>
        <time>2020-08-16T13:55:42Z</time>
      </trkpt>
      <trkpt lat="45.96988" lon="6.62517">
        <ele>577.4</ele>
        <time>2020-08-16T13:55:43Z</time>
      </trkpt>
      <trkpt lat="45.9699" lon="6.62516">
        <ele>577.6</ele>
        <time>2020-08-16T13:55:44Z</time>
      </trkpt>
      <trkpt lat="45.96992" lon="6.62515">
        <ele>578</ele>
        <time>2020-08-16T13:55:45Z</time>
      </trkpt>
      <trkpt lat="45.96994" lon="6.62514">
        <ele>578.2</ele>
        <time>2020-08-16T13:55:46Z</time>
      </trkpt>
      <trkpt lat="45.96996" lon="6.62513">
        <ele>578.4</ele>
        <time>2020-08-16T13:55:47Z</time>
      </trkpt>
      <trkpt lat="45.96998" lon="6.62511">
        <ele>578.4</ele>
        <time>2020-08-16T13:55:48Z</time>
      </trkpt>
      <trkpt lat="45.96999" lon="6.62509">
        <ele>578.4</ele>
        <time>2020-08-16T13:55:49Z</time>
      </trkpt>
      <trkpt lat="45.97001" lon="6.62508">
        <ele>578.4</ele>
        <time>2020-08-16T13:55:50Z</time>
      </trkpt>
      <trkpt lat="45.97003" lon="6.62506">
        <ele>578.4</ele>
        <time>2020-08-16T13:55:51Z</time>
      </trkpt>
      <trkpt lat="45.97005" lon="6.62504">
        <ele>578.6</ele>
        <time>2020-08-16T13:55:52Z</time>
      </trkpt>
      <trkpt lat="45.97007" lon="6.62502">
        <ele>578.6</ele>
        <time>2020-08-16T13:55:53Z</time>
      </trkpt>
      <trkpt lat="45.97008" lon="6.625">
        <ele>578.8</ele>
        <time>2020-08-16T13:55:54Z</time>
      </trkpt>
      <trkpt lat="45.9701" lon="6.62498">
        <ele>578.8</ele>
        <time>2020-08-16T13:55:55Z</time>
      </trkpt>
      <trkpt lat="45.97011" lon="6.62495">
        <ele>579</ele>
        <time>2020-08-16T13:55:56Z</time>
      </trkpt>
      <trkpt lat="45.97013" lon="6.62493">
        <ele>579.2</ele>
        <time>2020-08-16T13:55:57Z</time>
      </trkpt>
      <trkpt lat="45.97014" lon="6.62492">
        <ele>579.4</ele>
        <time>2020-08-16T13:55:58Z</time>
      </trkpt>
      <trkpt lat="45.97016" lon="6.6249">
        <ele>579.6</ele>
        <time>2020-08-16T13:55:59Z</time>
      </trkpt>
      <trkpt lat="45.97017" lon="6.62487">
        <ele>579.6</ele>
        <time>2020-08-16T13:56:00Z</time>
      </trkpt>
      <trkpt lat="45.97019" lon="6.62485">
        <ele>579.8</ele>
        <time>2020-08-16T13:56:01Z</time>
      </trkpt>
      <trkpt lat="45.97021" lon="6.62483">
        <ele>580</ele>
        <time>2020-08-16T13:56:02Z</time>
      </trkpt>
      <trkpt lat="45.97022" lon="6.62481">
        <ele>580.2</ele>
        <time>2020-08-16T13:56:03Z</time>
      </trkpt>
      <trkpt lat="45.97024" lon="6.62478">
        <ele>580.2</ele>
        <time>2020-08-16T13:56:04Z</time>
      </trkpt>
      <trkpt lat="45.97026" lon="6.62475">
        <ele>580.4</ele>
        <time>2020-08-16T13:56:05Z</time>
      </trkpt>
      <trkpt lat="45.97027" lon="6.62473">
        <ele>580.6</ele>
        <time>2020-08-16T13:56:06Z</time>
      </trkpt>
      <trkpt lat="45.97028" lon="6.62471">
        <ele>580.6</ele>
        <time>2020-08-16T13:56:07Z</time>
      </trkpt>
      <trkpt lat="45.9703" lon="6.62468">
        <ele>580.8</ele>
        <time>2020-08-16T13:56:08Z</time>
      </trkpt>
      <trkpt lat="45.97031" lon="6.62467">
        <ele>581</ele>
        <time>2020-08-16T13:56:09Z</time>
      </trkpt>
      <trkpt lat="45.97032" lon="6.62465">
        <ele>581</ele>
        <time>2020-08-16T13:56:10Z</time>
      </trkpt>
      <trkpt lat="45.97034" lon="6.62463">
        <ele>581</ele>
        <time>2020-08-16T13:56:11Z</time>
      </trkpt>
      <trkpt lat="45.97035" lon="6.6246">
        <ele>581.2</ele>
        <time>2020-08-16T13:56:12Z</time>
      </trkpt>
      <trkpt lat="45.97037" lon="6.62458">
        <ele>581.2</ele>
        <time>2020-08-16T13:56:13Z</time>
      </trkpt>
      <trkpt lat="45.97038" lon="6.62456">
        <ele>581.2</ele>
        <time>2020-08-16T13:56:14Z</time>
      </trkpt>
      <trkpt lat="45.97039" lon="6.62453">
        <ele>581.2</ele>
        <time>2020-08-16T13:56:15Z</time>
      </trkpt>
      <trkpt lat="45.97041" lon="6.62451">
        <ele>581.4</ele>
        <time>2020-08-16T13:56:16Z</time>
      </trkpt>
      <trkpt lat="45.97042" lon="6.62449">
        <ele>582</ele>
        <time>2020-08-16T13:56:17Z</time>
      </trkpt>
      <trkpt lat="45.97044" lon="6.62447">
        <ele>582.2</ele>
        <time>2020-08-16T13:56:18Z</time>
      </trkpt>
      <trkpt lat="45.97046" lon="6.62444">
        <ele>582</ele>
        <time>2020-08-16T13:56:19Z</time>
      </trkpt>
      <trkpt lat="45.97047" lon="6.62442">
        <ele>582</ele>
        <time>2020-08-16T13:56:20Z</time>
      </trkpt>
      <trkpt lat="45.97049" lon="6.6244">
        <ele>582.2</ele>
        <time>2020-08-16T13:56:21Z</time>
      </trkpt>
      <trkpt lat="45.97051" lon="6.62438">
        <ele>582.4</ele>
        <time>2020-08-16T13:56:22Z</time>
      </trkpt>
      <trkpt lat="45.97052" lon="6.62436">
        <ele>582.4</ele>
        <time>2020-08-16T13:56:23Z</time>
      </trkpt>
      <trkpt lat="45.97054" lon="6.62433">
        <ele>582.6</ele>
        <time>2020-08-16T13:56:24Z</time>
      </trkpt>
      <trkpt lat="45.97055" lon="6.62431">
        <ele>582.8</ele>
        <time>2020-08-16T13:56:25Z</time>
      </trkpt>
      <trkpt lat="45.97057" lon="6.62429">
        <ele>583</ele>
        <time>2020-08-16T13:56:26Z</time>
      </trkpt>
      <trkpt lat="45.97059" lon="6.62427">
        <ele>583.2</ele>
        <time>2020-08-16T13:56:27Z</time>
      </trkpt>
      <trkpt lat="45.9706" lon="6.62425">
        <ele>583.4</ele>
        <time>2020-08-16T13:56:28Z</time>
      </trkpt>
      <trkpt lat="45.97062" lon="6.62423">
        <ele>583.6</ele>
        <time>2020-08-16T13:56:29Z</time>
      </trkpt>
      <trkpt lat="45.97063" lon="6.62421">
        <ele>583.6</ele>
        <time>2020-08-16T13:56:30Z</time>
      </trkpt>
      <trkpt lat="45.97065" lon="6.62419">
        <ele>583.8</ele>
        <time>2020-08-16T13:56:31Z</time>
      </trkpt>
      <trkpt lat="45.97067" lon="6.62417">
        <ele>584</ele>
        <time>2020-08-16T13:56:32Z</time>
      </trkpt>
      <trkpt lat="45.97068" lon="6.62414">
        <ele>584.2</ele>
        <time>2020-08-16T13:56:33Z</time>
      </trkpt>
      <trkpt lat="45.9707" lon="6.62413">
        <ele>584.2</ele>
        <time>2020-08-16T13:56:34Z</time>
      </trkpt>
      <trkpt lat="45.97071" lon="6.6241">
        <ele>584.4</ele>
        <time>2020-08-16T13:56:35Z</time>
      </trkpt>
      <trkpt lat="45.97073" lon="6.62408">
        <ele>584.4</ele>
        <time>2020-08-16T13:56:36Z</time>
      </trkpt>
      <trkpt lat="45.97074" lon="6.62405">
        <ele>584.6</ele>
        <time>2020-08-16T13:56:37Z</time>
      </trkpt>
      <trkpt lat="45.97076" lon="6.62403">
        <ele>584.8</ele>
        <time>2020-08-16T13:56:38Z</time>
      </trkpt>
      <trkpt lat="45.97077" lon="6.62401">
        <ele>585</ele>
        <time>2020-08-16T13:56:39Z</time>
      </trkpt>
      <trkpt lat="45.97079" lon="6.62398">
        <ele>585.2</ele>
        <time>2020-08-16T13:56:40Z</time>
      </trkpt>
      <trkpt lat="45.97081" lon="6.62396">
        <ele>585.2</ele>
        <time>2020-08-16T13:56:41Z</time>
      </trkpt>
      <trkpt lat="45.97082" lon="6.62393">
        <ele>585.4</ele>
        <time>2020-08-16T13:56:42Z</time>
      </trkpt>
      <trkpt lat="45.97083" lon="6.62392">
        <ele>585.4</ele>
        <time>2020-08-16T13:56:43Z</time>
      </trkpt>
      <trkpt lat="45.97085" lon="6.62389">
        <ele>585.6</ele>
        <time>2020-08-16T13:56:44Z</time>
      </trkpt>
      <trkpt lat="45.97086" lon="6.62387">
        <ele>585.8</ele>
        <time>2020-08-16T13:56:45Z</time>
      </trkpt>
      <trkpt lat="45.97087" lon="6.62385">
        <ele>586</ele>
        <time>2020-08-16T13:56:46Z</time>
      </trkpt>
      <trkpt lat="45.97089" lon="6.62383">
        <ele>586.2</ele>
        <time>2020-08-16T13:56:47Z</time>
      </trkpt>
      <trkpt lat="45.9709" lon="6.62381">
        <ele>586.2</ele>
        <time>2020-08-16T13:56:48Z</time>
      </trkpt>
      <trkpt lat="45.97092" lon="6.62379">
        <ele>586.4</ele>
        <time>2020-08-16T13:56:49Z</time>
      </trkpt>
      <trkpt lat="45.97093" lon="6.62377">
        <ele>586.6</ele>
        <time>2020-08-16T13:56:50Z</time>
      </trkpt>
      <trkpt lat="45.97095" lon="6.62374">
        <ele>586.8</ele>
        <time>2020-08-16T13:56:51Z</time>
      </trkpt>
      <trkpt lat="45.97096" lon="6.62371">
        <ele>587</ele>
        <time>2020-08-16T13:56:52Z</time>
      </trkpt>
      <trkpt lat="45.97098" lon="6.62368">
        <ele>587</ele>
        <time>2020-08-16T13:56:53Z</time>
      </trkpt>
      <trkpt lat="45.971" lon="6.62366">
        <ele>587.2</ele>
        <time>2020-08-16T13:56:54Z</time>
      </trkpt>
      <trkpt lat="45.97101" lon="6.62363">
        <ele>587.2</ele>
        <time>2020-08-16T13:56:55Z</time>
      </trkpt>
      <trkpt lat="45.97103" lon="6.62361">
        <ele>587.4</ele>
        <time>2020-08-16T13:56:56Z</time>
      </trkpt>
      <trkpt lat="45.97105" lon="6.62359">
        <ele>587.4</ele>
        <time>2020-08-16T13:56:57Z</time>
      </trkpt>
      <trkpt lat="45.97106" lon="6.62356">
        <ele>587.6</ele>
        <time>2020-08-16T13:56:58Z</time>
      </trkpt>
      <trkpt lat="45.97108" lon="6.62354">
        <ele>587.8</ele>
        <time>2020-08-16T13:56:59Z</time>
      </trkpt>
      <trkpt lat="45.9711" lon="6.62352">
        <ele>588</ele>
        <time>2020-08-16T13:57:00Z</time>
      </trkpt>
      <trkpt lat="45.97111" lon="6.6235">
        <ele>588.2</ele>
        <time>2020-08-16T13:57:01Z</time>
      </trkpt>
      <trkpt lat="45.97112" lon="6.62348">
        <ele>588.2</ele>
        <time>2020-08-16T13:57:02Z</time>
      </trkpt>
      <trkpt lat="45.97114" lon="6.62346">
        <ele>588.4</ele>
        <time>2020-08-16T13:57:03Z</time>
      </trkpt>
      <trkpt lat="45.97115" lon="6.62344">
        <ele>588.4</ele>
        <time>2020-08-16T13:57:04Z</time>
      </trkpt>
      <trkpt lat="45.97117" lon="6.62342">
        <ele>588.6</ele>
        <time>2020-08-16T13:57:05Z</time>
      </trkpt>
      <trkpt lat="45.97118" lon="6.6234">
        <ele>588.8</ele>
        <time>2020-08-16T13:57:06Z</time>
      </trkpt>
      <trkpt lat="45.9712" lon="6.62339">
        <ele>588.8</ele>
        <time>2020-08-16T13:57:07Z</time>
      </trkpt>
      <trkpt lat="45.97122" lon="6.62338">
        <ele>588.8</ele>
        <time>2020-08-16T13:57:08Z</time>
      </trkpt>
      <trkpt lat="45.97125" lon="6.62338">
        <ele>588.8</ele>
        <time>2020-08-16T13:57:09Z</time>
      </trkpt>
      <trkpt lat="45.97127" lon="6.62337">
        <ele>588.8</ele>
        <time>2020-08-16T13:57:10Z</time>
      </trkpt>
      <trkpt lat="45.9713" lon="6.62337">
        <ele>588.8</ele>
        <time>2020-08-16T13:57:11Z</time>
      </trkpt>
      <trkpt lat="45.97133" lon="6.62337">
        <ele>588.6</ele>
        <time>2020-08-16T13:57:12Z</time>
      </trkpt>
      <trkpt lat="45.97136" lon="6.62338">
        <ele>588.4</ele>
        <time>2020-08-16T13:57:13Z</time>
      </trkpt>
      <trkpt lat="45.9714" lon="6.62338">
        <ele>588.2</ele>
        <time>2020-08-16T13:57:14Z</time>
      </trkpt>
      <trkpt lat="45.97143" lon="6.6234">
        <ele>588.2</ele>
        <time>2020-08-16T13:57:15Z</time>
      </trkpt>
      <trkpt lat="45.97147" lon="6.62342">
        <ele>588</ele>
        <time>2020-08-16T13:57:16Z</time>
      </trkpt>
      <trkpt lat="45.9715" lon="6.62344">
        <ele>587.6</ele>
        <time>2020-08-16T13:57:17Z</time>
      </trkpt>
      <trkpt lat="45.97153" lon="6.62346">
        <ele>587.4</ele>
        <time>2020-08-16T13:57:18Z</time>
      </trkpt>
      <trkpt lat="45.97158" lon="6.62348">
        <ele>586.8</ele>
        <time>2020-08-16T13:57:19Z</time>
      </trkpt>
      <trkpt lat="45.97163" lon="6.62349">
        <ele>586.4</ele>
        <time>2020-08-16T13:57:20Z</time>
      </trkpt>
      <trkpt lat="45.97168" lon="6.6235">
        <ele>586</ele>
        <time>2020-08-16T13:57:21Z</time>
      </trkpt>
      <trkpt lat="45.97174" lon="6.6235">
        <ele>585.6</ele>
        <time>2020-08-16T13:57:22Z</time>
      </trkpt>
      <trkpt lat="45.97179" lon="6.62349">
        <ele>585.4</ele>
        <time>2020-08-16T13:57:23Z</time>
      </trkpt>
      <trkpt lat="45.97184" lon="6.62347">
        <ele>585</ele>
        <time>2020-08-16T13:57:24Z</time>
      </trkpt>
      <trkpt lat="45.97189" lon="6.62345">
        <ele>584.8</ele>
        <time>2020-08-16T13:57:25Z</time>
      </trkpt>
      <trkpt lat="45.97194" lon="6.62342">
        <ele>584.4</ele>
        <time>2020-08-16T13:57:26Z</time>
      </trkpt>
      <trkpt lat="45.972" lon="6.6234">
        <ele>584</ele>
        <time>2020-08-16T13:57:27Z</time>
      </trkpt>
      <trkpt lat="45.97205" lon="6.62339">
        <ele>583.6</ele>
        <time>2020-08-16T13:57:28Z</time>
      </trkpt>
      <trkpt lat="45.97211" lon="6.62338">
        <ele>583.4</ele>
        <time>2020-08-16T13:57:29Z</time>
      </trkpt>
      <trkpt lat="45.97216" lon="6.62338">
        <ele>583.2</ele>
        <time>2020-08-16T13:57:30Z</time>
      </trkpt>
      <trkpt lat="45.97222" lon="6.62337">
        <ele>583</ele>
        <time>2020-08-16T13:57:31Z</time>
      </trkpt>
      <trkpt lat="45.97228" lon="6.62337">
        <ele>582.8</ele>
        <time>2020-08-16T13:57:32Z</time>
      </trkpt>
      <trkpt lat="45.97233" lon="6.62336">
        <ele>583</ele>
        <time>2020-08-16T13:57:33Z</time>
      </trkpt>
      <trkpt lat="45.97239" lon="6.62336">
        <ele>582.8</ele>
        <time>2020-08-16T13:57:34Z</time>
      </trkpt>
      <trkpt lat="45.97244" lon="6.62335">
        <ele>582.6</ele>
        <time>2020-08-16T13:57:35Z</time>
      </trkpt>
      <trkpt lat="45.9725" lon="6.62335">
        <ele>582.4</ele>
        <time>2020-08-16T13:57:36Z</time>
      </trkpt>
      <trkpt lat="45.97256" lon="6.62334">
        <ele>582</ele>
        <time>2020-08-16T13:57:37Z</time>
      </trkpt>
      <trkpt lat="45.97261" lon="6.62335">
        <ele>581.6</ele>
        <time>2020-08-16T13:57:38Z</time>
      </trkpt>
      <trkpt lat="45.97266" lon="6.62337">
        <ele>581.2</ele>
        <time>2020-08-16T13:57:39Z</time>
      </trkpt>
      <trkpt lat="45.97272" lon="6.62337">
        <ele>580.8</ele>
        <time>2020-08-16T13:57:40Z</time>
      </trkpt>
      <trkpt lat="45.97278" lon="6.62337">
        <ele>580.4</ele>
        <time>2020-08-16T13:57:41Z</time>
      </trkpt>
      <trkpt lat="45.97284" lon="6.62335">
        <ele>579.8</ele>
        <time>2020-08-16T13:57:42Z</time>
      </trkpt>
      <trkpt lat="45.9729" lon="6.62333">
        <ele>579.2</ele>
        <time>2020-08-16T13:57:43Z</time>
      </trkpt>
      <trkpt lat="45.97295" lon="6.62331">
        <ele>578.6</ele>
        <time>2020-08-16T13:57:44Z</time>
      </trkpt>
      <trkpt lat="45.973" lon="6.62331">
        <ele>578.4</ele>
        <time>2020-08-16T13:57:45Z</time>
      </trkpt>
      <trkpt lat="45.97306" lon="6.62334">
        <ele>578</ele>
        <time>2020-08-16T13:57:46Z</time>
      </trkpt>
      <trkpt lat="45.9731" lon="6.62339">
        <ele>577.6</ele>
        <time>2020-08-16T13:57:47Z</time>
      </trkpt>
      <trkpt lat="45.97314" lon="6.62345">
        <ele>577.2</ele>
        <time>2020-08-16T13:57:48Z</time>
      </trkpt>
      <trkpt lat="45.97317" lon="6.62353">
        <ele>576.6</ele>
        <time>2020-08-16T13:57:49Z</time>
      </trkpt>
      <trkpt lat="45.9732" lon="6.62361">
        <ele>576.2</ele>
        <time>2020-08-16T13:57:50Z</time>
      </trkpt>
      <trkpt lat="45.97323" lon="6.62369">
        <ele>575.6</ele>
        <time>2020-08-16T13:57:51Z</time>
      </trkpt>
      <trkpt lat="45.97326" lon="6.62376">
        <ele>575.2</ele>
        <time>2020-08-16T13:57:52Z</time>
      </trkpt>
      <trkpt lat="45.97329" lon="6.62384">
        <ele>575</ele>
        <time>2020-08-16T13:57:53Z</time>
      </trkpt>
      <trkpt lat="45.9733" lon="6.62392">
        <ele>574.6</ele>
        <time>2020-08-16T13:57:54Z</time>
      </trkpt>
      <trkpt lat="45.97331" lon="6.62401">
        <ele>574.4</ele>
        <time>2020-08-16T13:57:55Z</time>
      </trkpt>
      <trkpt lat="45.97331" lon="6.62411">
        <ele>574</ele>
        <time>2020-08-16T13:57:56Z</time>
      </trkpt>
      <trkpt lat="45.97331" lon="6.62421">
        <ele>573.6</ele>
        <time>2020-08-16T13:57:57Z</time>
      </trkpt>
      <trkpt lat="45.9733" lon="6.62431">
        <ele>573</ele>
        <time>2020-08-16T13:57:58Z</time>
      </trkpt>
      <trkpt lat="45.9733" lon="6.62441">
        <ele>572.8</ele>
        <time>2020-08-16T13:57:59Z</time>
      </trkpt>
      <trkpt lat="45.97329" lon="6.62452">
        <ele>572.4</ele>
        <time>2020-08-16T13:58:00Z</time>
      </trkpt>
      <trkpt lat="45.97329" lon="6.62464">
        <ele>571.4</ele>
        <time>2020-08-16T13:58:01Z</time>
      </trkpt>
      <trkpt lat="45.97329" lon="6.62476">
        <ele>570.8</ele>
        <time>2020-08-16T13:58:02Z</time>
      </trkpt>
      <trkpt lat="45.97329" lon="6.6249">
        <ele>569.4</ele>
        <time>2020-08-16T13:58:03Z</time>
      </trkpt>
      <trkpt lat="45.97328" lon="6.62503">
        <ele>568</ele>
        <time>2020-08-16T13:58:04Z</time>
      </trkpt>
      <trkpt lat="45.97328" lon="6.62515">
        <ele>567</ele>
        <time>2020-08-16T13:58:05Z</time>
      </trkpt>
      <trkpt lat="45.97328" lon="6.62528">
        <ele>566</ele>
        <time>2020-08-16T13:58:06Z</time>
      </trkpt>
      <trkpt lat="45.97329" lon="6.62541">
        <ele>565.2</ele>
        <time>2020-08-16T13:58:07Z</time>
      </trkpt>
      <trkpt lat="45.97331" lon="6.62552">
        <ele>564.6</ele>
        <time>2020-08-16T13:58:08Z</time>
      </trkpt>
      <trkpt lat="45.97335" lon="6.62562">
        <ele>563.6</ele>
        <time>2020-08-16T13:58:09Z</time>
      </trkpt>
      <trkpt lat="45.97341" lon="6.6257">
        <ele>563</ele>
        <time>2020-08-16T13:58:10Z</time>
      </trkpt>
      <trkpt lat="45.97348" lon="6.62576">
        <ele>561.8</ele>
        <time>2020-08-16T13:58:11Z</time>
      </trkpt>
      <trkpt lat="45.97354" lon="6.62583">
        <ele>560.8</ele>
        <time>2020-08-16T13:58:12Z</time>
      </trkpt>
      <trkpt lat="45.9736" lon="6.62592">
        <ele>559.8</ele>
        <time>2020-08-16T13:58:13Z</time>
      </trkpt>
      <trkpt lat="45.97364" lon="6.62602">
        <ele>559</ele>
        <time>2020-08-16T13:58:14Z</time>
      </trkpt>
      <trkpt lat="45.97367" lon="6.62614">
        <ele>558.2</ele>
        <time>2020-08-16T13:58:15Z</time>
      </trkpt>
      <trkpt lat="45.97369" lon="6.62626">
        <ele>557.4</ele>
        <time>2020-08-16T13:58:16Z</time>
      </trkpt>
      <trkpt lat="45.97372" lon="6.62639">
        <ele>556.4</ele>
        <time>2020-08-16T13:58:17Z</time>
      </trkpt>
      <trkpt lat="45.97373" lon="6.6265">
        <ele>555.8</ele>
        <time>2020-08-16T13:58:18Z</time>
      </trkpt>
      <trkpt lat="45.97375" lon="6.62662">
        <ele>555.2</ele>
        <time>2020-08-16T13:58:19Z</time>
      </trkpt>
      <trkpt lat="45.97377" lon="6.62675">
        <ele>554.6</ele>
        <time>2020-08-16T13:58:20Z</time>
      </trkpt>
      <trkpt lat="45.97379" lon="6.62687">
        <ele>553.8</ele>
        <time>2020-08-16T13:58:21Z</time>
      </trkpt>
      <trkpt lat="45.9738" lon="6.62699">
        <ele>553</ele>
        <time>2020-08-16T13:58:22Z</time>
      </trkpt>
      <trkpt lat="45.97379" lon="6.6271">
        <ele>552</ele>
        <time>2020-08-16T13:58:23Z</time>
      </trkpt>
      <trkpt lat="45.97378" lon="6.62722">
        <ele>551.2</ele>
        <time>2020-08-16T13:58:24Z</time>
      </trkpt>
      <trkpt lat="45.97375" lon="6.62732">
        <ele>550.6</ele>
        <time>2020-08-16T13:58:25Z</time>
      </trkpt>
      <trkpt lat="45.97372" lon="6.62741">
        <ele>550.2</ele>
        <time>2020-08-16T13:58:26Z</time>
      </trkpt>
      <trkpt lat="45.9737" lon="6.62749">
        <ele>549.2</ele>
        <time>2020-08-16T13:58:27Z</time>
      </trkpt>
      <trkpt lat="45.97368" lon="6.62757">
        <ele>549</ele>
        <time>2020-08-16T13:58:28Z</time>
      </trkpt>
      <trkpt lat="45.97368" lon="6.62763">
        <ele>548.4</ele>
        <time>2020-08-16T13:58:29Z</time>
      </trkpt>
      <trkpt lat="45.97369" lon="6.62766">
        <ele>548.4</ele>
        <time>2020-08-16T13:58:30Z</time>
      </trkpt>
      <trkpt lat="45.97372" lon="6.62768">
        <ele>548.4</ele>
        <time>2020-08-16T13:58:31Z</time>
      </trkpt>
      <trkpt lat="45.97374" lon="6.62768">
        <ele>548.4</ele>
        <time>2020-08-16T13:58:32Z</time>
      </trkpt>
      <trkpt lat="45.97377" lon="6.62768">
        <ele>548.4</ele>
        <time>2020-08-16T13:58:33Z</time>
      </trkpt>
      <trkpt lat="45.9738" lon="6.62769">
        <ele>548.4</ele>
        <time>2020-08-16T13:58:34Z</time>
      </trkpt>
      <trkpt lat="45.97383" lon="6.62769">
        <ele>548.2</ele>
        <time>2020-08-16T13:58:35Z</time>
      </trkpt>
      <trkpt lat="45.97386" lon="6.62769">
        <ele>548.2</ele>
        <time>2020-08-16T13:58:36Z</time>
      </trkpt>
      <trkpt lat="45.9739" lon="6.62768">
        <ele>548.2</ele>
        <time>2020-08-16T13:58:37Z</time>
      </trkpt>
      <trkpt lat="45.97394" lon="6.62767">
        <ele>548.2</ele>
        <time>2020-08-16T13:58:38Z</time>
      </trkpt>
      <trkpt lat="45.97398" lon="6.62765">
        <ele>548.2</ele>
        <time>2020-08-16T13:58:39Z</time>
      </trkpt>
      <trkpt lat="45.97402" lon="6.62764">
        <ele>548.2</ele>
        <time>2020-08-16T13:58:40Z</time>
      </trkpt>
      <trkpt lat="45.97407" lon="6.62764">
        <ele>548.2</ele>
        <time>2020-08-16T13:58:41Z</time>
      </trkpt>
      <trkpt lat="45.97411" lon="6.62762">
        <ele>548</ele>
        <time>2020-08-16T13:58:42Z</time>
      </trkpt>
      <trkpt lat="45.97416" lon="6.62761">
        <ele>548</ele>
        <time>2020-08-16T13:58:43Z</time>
      </trkpt>
      <trkpt lat="45.97421" lon="6.6276">
        <ele>548</ele>
        <time>2020-08-16T13:58:44Z</time>
      </trkpt>
      <trkpt lat="45.97427" lon="6.62758">
        <ele>547.8</ele>
        <time>2020-08-16T13:58:45Z</time>
      </trkpt>
      <trkpt lat="45.97432" lon="6.62757">
        <ele>547.8</ele>
        <time>2020-08-16T13:58:46Z</time>
      </trkpt>
      <trkpt lat="45.97437" lon="6.62754">
        <ele>547.6</ele>
        <time>2020-08-16T13:58:47Z</time>
      </trkpt>
      <trkpt lat="45.97442" lon="6.62752">
        <ele>547.6</ele>
        <time>2020-08-16T13:58:48Z</time>
      </trkpt>
      <trkpt lat="45.97447" lon="6.6275">
        <ele>547.4</ele>
        <time>2020-08-16T13:58:49Z</time>
      </trkpt>
      <trkpt lat="45.97452" lon="6.62749">
        <ele>547.2</ele>
        <time>2020-08-16T13:58:50Z</time>
      </trkpt>
      <trkpt lat="45.97456" lon="6.62747">
        <ele>547.2</ele>
        <time>2020-08-16T13:58:51Z</time>
      </trkpt>
      <trkpt lat="45.97461" lon="6.62745">
        <ele>547</ele>
        <time>2020-08-16T13:58:52Z</time>
      </trkpt>
      <trkpt lat="45.97465" lon="6.62743">
        <ele>547</ele>
        <time>2020-08-16T13:58:53Z</time>
      </trkpt>
      <trkpt lat="45.97469" lon="6.62741">
        <ele>547</ele>
        <time>2020-08-16T13:58:54Z</time>
      </trkpt>
      <trkpt lat="45.97473" lon="6.62739">
        <ele>547</ele>
        <time>2020-08-16T13:58:55Z</time>
      </trkpt>
      <trkpt lat="45.97478" lon="6.62737">
        <ele>547.2</ele>
        <time>2020-08-16T13:58:56Z</time>
      </trkpt>
      <trkpt lat="45.97482" lon="6.62734">
        <ele>547.2</ele>
        <time>2020-08-16T13:58:57Z</time>
      </trkpt>
      <trkpt lat="45.97486" lon="6.62732">
        <ele>547</ele>
        <time>2020-08-16T13:58:58Z</time>
      </trkpt>
      <trkpt lat="45.9749" lon="6.6273">
        <ele>547</ele>
        <time>2020-08-16T13:58:59Z</time>
      </trkpt>
      <trkpt lat="45.97494" lon="6.62728">
        <ele>547.2</ele>
        <time>2020-08-16T13:59:00Z</time>
      </trkpt>
      <trkpt lat="45.97499" lon="6.62726">
        <ele>547.2</ele>
        <time>2020-08-16T13:59:01Z</time>
      </trkpt>
      <trkpt lat="45.97503" lon="6.62723">
        <ele>547</ele>
        <time>2020-08-16T13:59:02Z</time>
      </trkpt>
      <trkpt lat="45.97508" lon="6.62721">
        <ele>547</ele>
        <time>2020-08-16T13:59:03Z</time>
      </trkpt>
      <trkpt lat="45.97513" lon="6.6272">
        <ele>546.8</ele>
        <time>2020-08-16T13:59:04Z</time>
      </trkpt>
      <trkpt lat="45.97517" lon="6.6272">
        <ele>546.8</ele>
        <time>2020-08-16T13:59:05Z</time>
      </trkpt>
      <trkpt lat="45.97522" lon="6.6272">
        <ele>546.6</ele>
        <time>2020-08-16T13:59:06Z</time>
      </trkpt>
      <trkpt lat="45.97526" lon="6.62721">
        <ele>546.6</ele>
        <time>2020-08-16T13:59:07Z</time>
      </trkpt>
      <trkpt lat="45.97531" lon="6.62721">
        <ele>546</ele>
        <time>2020-08-16T13:59:08Z</time>
      </trkpt>
      <trkpt lat="45.97536" lon="6.62721">
        <ele>545.8</ele>
        <time>2020-08-16T13:59:09Z</time>
      </trkpt>
      <trkpt lat="45.97541" lon="6.6272">
        <ele>545.6</ele>
        <time>2020-08-16T13:59:10Z</time>
      </trkpt>
      <trkpt lat="45.97546" lon="6.62718">
        <ele>545.4</ele>
        <time>2020-08-16T13:59:11Z</time>
      </trkpt>
      <trkpt lat="45.97551" lon="6.62715">
        <ele>545</ele>
        <time>2020-08-16T13:59:12Z</time>
      </trkpt>
      <trkpt lat="45.97556" lon="6.62713">
        <ele>544.6</ele>
        <time>2020-08-16T13:59:13Z</time>
      </trkpt>
      <trkpt lat="45.97561" lon="6.62709">
        <ele>544.2</ele>
        <time>2020-08-16T13:59:14Z</time>
      </trkpt>
      <trkpt lat="45.97566" lon="6.62706">
        <ele>544.2</ele>
        <time>2020-08-16T13:59:15Z</time>
      </trkpt>
      <trkpt lat="45.97571" lon="6.62701">
        <ele>544</ele>
        <time>2020-08-16T13:59:16Z</time>
      </trkpt>
      <trkpt lat="45.97575" lon="6.62697">
        <ele>543.6</ele>
        <time>2020-08-16T13:59:17Z</time>
      </trkpt>
      <trkpt lat="45.9758" lon="6.62692">
        <ele>543.6</ele>
        <time>2020-08-16T13:59:18Z</time>
      </trkpt>
      <trkpt lat="45.97585" lon="6.62686">
        <ele>543.2</ele>
        <time>2020-08-16T13:59:19Z</time>
      </trkpt>
      <trkpt lat="45.9759" lon="6.62682">
        <ele>543</ele>
        <time>2020-08-16T13:59:20Z</time>
      </trkpt>
      <trkpt lat="45.97596" lon="6.62678">
        <ele>543</ele>
        <time>2020-08-16T13:59:21Z</time>
      </trkpt>
      <trkpt lat="45.97601" lon="6.62673">
        <ele>542.6</ele>
        <time>2020-08-16T13:59:22Z</time>
      </trkpt>
      <trkpt lat="45.97607" lon="6.62668">
        <ele>542.4</ele>
        <time>2020-08-16T13:59:23Z</time>
      </trkpt>
      <trkpt lat="45.97612" lon="6.62664">
        <ele>542.2</ele>
        <time>2020-08-16T13:59:24Z</time>
      </trkpt>
      <trkpt lat="45.97618" lon="6.62659">
        <ele>542</ele>
        <time>2020-08-16T13:59:25Z</time>
      </trkpt>
      <trkpt lat="45.97623" lon="6.62654">
        <ele>541.8</ele>
        <time>2020-08-16T13:59:26Z</time>
      </trkpt>
      <trkpt lat="45.97628" lon="6.62649">
        <ele>541.6</ele>
        <time>2020-08-16T13:59:27Z</time>
      </trkpt>
      <trkpt lat="45.97631" lon="6.62642">
        <ele>541.4</ele>
        <time>2020-08-16T13:59:28Z</time>
      </trkpt>
      <trkpt lat="45.97634" lon="6.62634">
        <ele>541.4</ele>
        <time>2020-08-16T13:59:29Z</time>
      </trkpt>
      <trkpt lat="45.97634" lon="6.62626">
        <ele>541.4</ele>
        <time>2020-08-16T13:59:30Z</time>
      </trkpt>
      <trkpt lat="45.97634" lon="6.62618">
        <ele>541.6</ele>
        <time>2020-08-16T13:59:31Z</time>
      </trkpt>
      <trkpt lat="45.97633" lon="6.6261">
        <ele>541.6</ele>
        <time>2020-08-16T13:59:32Z</time>
      </trkpt>
      <trkpt lat="45.97633" lon="6.62603">
        <ele>541.8</ele>
        <time>2020-08-16T13:59:33Z</time>
      </trkpt>
      <trkpt lat="45.97632" lon="6.62596">
        <ele>542</ele>
        <time>2020-08-16T13:59:34Z</time>
      </trkpt>
      <trkpt lat="45.97632" lon="6.6259">
        <ele>542.2</ele>
        <time>2020-08-16T13:59:35Z</time>
      </trkpt>
      <trkpt lat="45.97632" lon="6.62585">
        <ele>542.2</ele>
        <time>2020-08-16T13:59:36Z</time>
      </trkpt>
      <trkpt lat="45.97633" lon="6.62581">
        <ele>542.2</ele>
        <time>2020-08-16T13:59:37Z</time>
      </trkpt>
      <trkpt lat="45.97635" lon="6.62579">
        <ele>542.4</ele>
        <time>2020-08-16T13:59:38Z</time>
      </trkpt>
      <trkpt lat="45.97637" lon="6.62578">
        <ele>542.4</ele>
        <time>2020-08-16T13:59:39Z</time>
      </trkpt>
      <trkpt lat="45.97639" lon="6.62577">
        <ele>542.4</ele>
        <time>2020-08-16T13:59:40Z</time>
      </trkpt>
      <trkpt lat="45.97642" lon="6.62576">
        <ele>542.6</ele>
        <time>2020-08-16T13:59:41Z</time>
      </trkpt>
      <trkpt lat="45.97643" lon="6.62576">
        <ele>542.6</ele>
        <time>2020-08-16T13:59:42Z</time>
      </trkpt>
      <trkpt lat="45.97646" lon="6.62576">
        <ele>542.8</ele>
        <time>2020-08-16T13:59:43Z</time>
      </trkpt>
      <trkpt lat="45.97648" lon="6.62576">
        <ele>542.8</ele>
        <time>2020-08-16T13:59:44Z</time>
      </trkpt>
      <trkpt lat="45.97651" lon="6.62576">
        <ele>542.8</ele>
        <time>2020-08-16T13:59:45Z</time>
      </trkpt>
      <trkpt lat="45.97654" lon="6.62576">
        <ele>542.8</ele>
        <time>2020-08-16T13:59:46Z</time>
      </trkpt>
      <trkpt lat="45.97656" lon="6.62576">
        <ele>542.8</ele>
        <time>2020-08-16T13:59:47Z</time>
      </trkpt>
      <trkpt lat="45.97659" lon="6.62575">
        <ele>543</ele>
        <time>2020-08-16T13:59:48Z</time>
      </trkpt>
      <trkpt lat="45.97662" lon="6.62575">
        <ele>542.8</ele>
        <time>2020-08-16T13:59:49Z</time>
      </trkpt>
      <trkpt lat="45.97665" lon="6.62575">
        <ele>542.6</ele>
        <time>2020-08-16T13:59:50Z</time>
      </trkpt>
      <trkpt lat="45.97668" lon="6.62574">
        <ele>542.4</ele>
        <time>2020-08-16T13:59:51Z</time>
      </trkpt>
      <trkpt lat="45.97672" lon="6.62573">
        <ele>542.4</ele>
        <time>2020-08-16T13:59:52Z</time>
      </trkpt>
      <trkpt lat="45.97676" lon="6.62573">
        <ele>542.2</ele>
        <time>2020-08-16T13:59:53Z</time>
      </trkpt>
      <trkpt lat="45.9768" lon="6.62572">
        <ele>542.4</ele>
        <time>2020-08-16T13:59:54Z</time>
      </trkpt>
      <trkpt lat="45.97684" lon="6.62572">
        <ele>542.2</ele>
        <time>2020-08-16T13:59:55Z</time>
      </trkpt>
      <trkpt lat="45.97688" lon="6.62572">
        <ele>542</ele>
        <time>2020-08-16T13:59:56Z</time>
      </trkpt>
      <trkpt lat="45.97692" lon="6.6257">
        <ele>542.2</ele>
        <time>2020-08-16T13:59:57Z</time>
      </trkpt>
      <trkpt lat="45.97696" lon="6.62568">
        <ele>542</ele>
        <time>2020-08-16T13:59:58Z</time>
      </trkpt>
      <trkpt lat="45.97699" lon="6.62566">
        <ele>541.2</ele>
        <time>2020-08-16T13:59:59Z</time>
      </trkpt>
      <trkpt lat="45.97703" lon="6.62563">
        <ele>540.8</ele>
        <time>2020-08-16T14:00:00Z</time>
      </trkpt>
      <trkpt lat="45.97707" lon="6.6256">
        <ele>540.6</ele>
        <time>2020-08-16T14:00:01Z</time>
      </trkpt>
      <trkpt lat="45.97712" lon="6.62558">
        <ele>540.4</ele>
        <time>2020-08-16T14:00:02Z</time>
      </trkpt>
      <trkpt lat="45.97717" lon="6.62555">
        <ele>540.6</ele>
        <time>2020-08-16T14:00:03Z</time>
      </trkpt>
      <trkpt lat="45.97721" lon="6.62553">
        <ele>540.2</ele>
        <time>2020-08-16T14:00:04Z</time>
      </trkpt>
      <trkpt lat="45.97726" lon="6.62551">
        <ele>540</ele>
        <time>2020-08-16T14:00:05Z</time>
      </trkpt>
      <trkpt lat="45.9773" lon="6.62549">
        <ele>540</ele>
        <time>2020-08-16T14:00:06Z</time>
      </trkpt>
      <trkpt lat="45.97733" lon="6.62547">
        <ele>540</ele>
        <time>2020-08-16T14:00:07Z</time>
      </trkpt>
      <trkpt lat="45.97737" lon="6.62545">
        <ele>540</ele>
        <time>2020-08-16T14:00:08Z</time>
      </trkpt>
      <trkpt lat="45.97741" lon="6.62542">
        <ele>539.8</ele>
        <time>2020-08-16T14:00:09Z</time>
      </trkpt>
      <trkpt lat="45.97744" lon="6.6254">
        <ele>539.8</ele>
        <time>2020-08-16T14:00:10Z</time>
      </trkpt>
      <trkpt lat="45.97748" lon="6.62538">
        <ele>539.8</ele>
        <time>2020-08-16T14:00:11Z</time>
      </trkpt>
      <trkpt lat="45.97751" lon="6.62536">
        <ele>539.6</ele>
        <time>2020-08-16T14:00:12Z</time>
      </trkpt>
      <trkpt lat="45.97755" lon="6.62534">
        <ele>539.6</ele>
        <time>2020-08-16T14:00:13Z</time>
      </trkpt>
      <trkpt lat="45.97758" lon="6.62531">
        <ele>539.6</ele>
        <time>2020-08-16T14:00:14Z</time>
      </trkpt>
      <trkpt lat="45.97761" lon="6.62528">
        <ele>539.6</ele>
        <time>2020-08-16T14:00:15Z</time>
      </trkpt>
      <trkpt lat="45.97764" lon="6.62525">
        <ele>539.6</ele>
        <time>2020-08-16T14:00:16Z</time>
      </trkpt>
      <trkpt lat="45.97767" lon="6.62522">
        <ele>539.2</ele>
        <time>2020-08-16T14:00:17Z</time>
      </trkpt>
      <trkpt lat="45.9777" lon="6.62518">
        <ele>539</ele>
        <time>2020-08-16T14:00:18Z</time>
      </trkpt>
      <trkpt lat="45.97773" lon="6.62514">
        <ele>538.6</ele>
        <time>2020-08-16T14:00:19Z</time>
      </trkpt>
      <trkpt lat="45.97776" lon="6.62511">
        <ele>538.4</ele>
        <time>2020-08-16T14:00:20Z</time>
      </trkpt>
      <trkpt lat="45.97779" lon="6.62508">
        <ele>538.4</ele>
        <time>2020-08-16T14:00:21Z</time>
      </trkpt>
      <trkpt lat="45.97782" lon="6.62505">
        <ele>538.2</ele>
        <time>2020-08-16T14:00:22Z</time>
      </trkpt>
      <trkpt lat="45.97784" lon="6.62503">
        <ele>538.2</ele>
        <time>2020-08-16T14:00:23Z</time>
      </trkpt>
      <trkpt lat="45.97786" lon="6.625">
        <ele>538</ele>
        <time>2020-08-16T14:00:24Z</time>
      </trkpt>
      <trkpt lat="45.97789" lon="6.62499">
        <ele>537.8</ele>
        <time>2020-08-16T14:00:25Z</time>
      </trkpt>
      <trkpt lat="45.97791" lon="6.62497">
        <ele>537.6</ele>
        <time>2020-08-16T14:00:26Z</time>
      </trkpt>
      <trkpt lat="45.97793" lon="6.62496">
        <ele>537.4</ele>
        <time>2020-08-16T14:00:27Z</time>
      </trkpt>
      <trkpt lat="45.97795" lon="6.62494">
        <ele>537</ele>
        <time>2020-08-16T14:00:28Z</time>
      </trkpt>
      <trkpt lat="45.97798" lon="6.62492">
        <ele>536.8</ele>
        <time>2020-08-16T14:00:29Z</time>
      </trkpt>
      <trkpt lat="45.97801" lon="6.62489">
        <ele>536.6</ele>
        <time>2020-08-16T14:00:30Z</time>
      </trkpt>
      <trkpt lat="45.97804" lon="6.62487">
        <ele>536.4</ele>
        <time>2020-08-16T14:00:31Z</time>
      </trkpt>
      <trkpt lat="45.97806" lon="6.62485">
        <ele>536</ele>
        <time>2020-08-16T14:00:32Z</time>
      </trkpt>
      <trkpt lat="45.97809" lon="6.62484">
        <ele>535.8</ele>
        <time>2020-08-16T14:00:33Z</time>
      </trkpt>
      <trkpt lat="45.97811" lon="6.62482">
        <ele>535.4</ele>
        <time>2020-08-16T14:00:34Z</time>
      </trkpt>
      <trkpt lat="45.97814" lon="6.6248">
        <ele>535.2</ele>
        <time>2020-08-16T14:00:35Z</time>
      </trkpt>
      <trkpt lat="45.97817" lon="6.62478">
        <ele>535</ele>
        <time>2020-08-16T14:00:36Z</time>
      </trkpt>
      <trkpt lat="45.9782" lon="6.62476">
        <ele>534.6</ele>
        <time>2020-08-16T14:00:37Z</time>
      </trkpt>
      <trkpt lat="45.97823" lon="6.62474">
        <ele>534.2</ele>
        <time>2020-08-16T14:00:38Z</time>
      </trkpt>
      <trkpt lat="45.97826" lon="6.62472">
        <ele>534</ele>
        <time>2020-08-16T14:00:39Z</time>
      </trkpt>
      <trkpt lat="45.9783" lon="6.62469">
        <ele>533.6</ele>
        <time>2020-08-16T14:00:40Z</time>
      </trkpt>
      <trkpt lat="45.97833" lon="6.62467">
        <ele>533.4</ele>
        <time>2020-08-16T14:00:41Z</time>
      </trkpt>
      <trkpt lat="45.97836" lon="6.62464">
        <ele>533.2</ele>
        <time>2020-08-16T14:00:42Z</time>
      </trkpt>
      <trkpt lat="45.97839" lon="6.62461">
        <ele>533</ele>
        <time>2020-08-16T14:00:43Z</time>
      </trkpt>
      <trkpt lat="45.97842" lon="6.62458">
        <ele>532.8</ele>
        <time>2020-08-16T14:00:44Z</time>
      </trkpt>
      <trkpt lat="45.97845" lon="6.62456">
        <ele>532.6</ele>
        <time>2020-08-16T14:00:45Z</time>
      </trkpt>
      <trkpt lat="45.97848" lon="6.62453">
        <ele>532.2</ele>
        <time>2020-08-16T14:00:46Z</time>
      </trkpt>
      <trkpt lat="45.97851" lon="6.62451">
        <ele>532</ele>
        <time>2020-08-16T14:00:47Z</time>
      </trkpt>
      <trkpt lat="45.97854" lon="6.62448">
        <ele>531.8</ele>
        <time>2020-08-16T14:00:48Z</time>
      </trkpt>
      <trkpt lat="45.97857" lon="6.62446">
        <ele>531.8</ele>
        <time>2020-08-16T14:00:49Z</time>
      </trkpt>
      <trkpt lat="45.9786" lon="6.62444">
        <ele>531.8</ele>
        <time>2020-08-16T14:00:50Z</time>
      </trkpt>
      <trkpt lat="45.97863" lon="6.62441">
        <ele>531.4</ele>
        <time>2020-08-16T14:00:51Z</time>
      </trkpt>
      <trkpt lat="45.97867" lon="6.62439">
        <ele>531.4</ele>
        <time>2020-08-16T14:00:52Z</time>
      </trkpt>
      <trkpt lat="45.9787" lon="6.62436">
        <ele>531.2</ele>
        <time>2020-08-16T14:00:53Z</time>
      </trkpt>
      <trkpt lat="45.97873" lon="6.62434">
        <ele>531</ele>
        <time>2020-08-16T14:00:54Z</time>
      </trkpt>
      <trkpt lat="45.97876" lon="6.62431">
        <ele>531</ele>
        <time>2020-08-16T14:00:55Z</time>
      </trkpt>
      <trkpt lat="45.97878" lon="6.62429">
        <ele>530.8</ele>
        <time>2020-08-16T14:00:56Z</time>
      </trkpt>
      <trkpt lat="45.97881" lon="6.62427">
        <ele>530.6</ele>
        <time>2020-08-16T14:00:57Z</time>
      </trkpt>
      <trkpt lat="45.97884" lon="6.62425">
        <ele>530.4</ele>
        <time>2020-08-16T14:00:58Z</time>
      </trkpt>
      <trkpt lat="45.97887" lon="6.62422">
        <ele>530.2</ele>
        <time>2020-08-16T14:00:59Z</time>
      </trkpt>
      <trkpt lat="45.9789" lon="6.62419">
        <ele>530</ele>
        <time>2020-08-16T14:01:00Z</time>
      </trkpt>
      <trkpt lat="45.97893" lon="6.62416">
        <ele>529.8</ele>
        <time>2020-08-16T14:01:01Z</time>
      </trkpt>
      <trkpt lat="45.97896" lon="6.62414">
        <ele>529.6</ele>
        <time>2020-08-16T14:01:02Z</time>
      </trkpt>
      <trkpt lat="45.97899" lon="6.62411">
        <ele>529.4</ele>
        <time>2020-08-16T14:01:03Z</time>
      </trkpt>
      <trkpt lat="45.97902" lon="6.62409">
        <ele>529.2</ele>
        <time>2020-08-16T14:01:04Z</time>
      </trkpt>
      <trkpt lat="45.97905" lon="6.62407">
        <ele>529</ele>
        <time>2020-08-16T14:01:05Z</time>
      </trkpt>
      <trkpt lat="45.97909" lon="6.62405">
        <ele>528.8</ele>
        <time>2020-08-16T14:01:06Z</time>
      </trkpt>
      <trkpt lat="45.97912" lon="6.62403">
        <ele>528.6</ele>
        <time>2020-08-16T14:01:07Z</time>
      </trkpt>
      <trkpt lat="45.97915" lon="6.62402">
        <ele>528.4</ele>
        <time>2020-08-16T14:01:08Z</time>
      </trkpt>
      <trkpt lat="45.97918" lon="6.624">
        <ele>528.4</ele>
        <time>2020-08-16T14:01:09Z</time>
      </trkpt>
      <trkpt lat="45.97922" lon="6.62399">
        <ele>528</ele>
        <time>2020-08-16T14:01:10Z</time>
      </trkpt>
      <trkpt lat="45.97925" lon="6.62398">
        <ele>527.8</ele>
        <time>2020-08-16T14:01:11Z</time>
      </trkpt>
      <trkpt lat="45.97928" lon="6.62397">
        <ele>527.6</ele>
        <time>2020-08-16T14:01:12Z</time>
      </trkpt>
      <trkpt lat="45.97931" lon="6.62396">
        <ele>527.6</ele>
        <time>2020-08-16T14:01:13Z</time>
      </trkpt>
      <trkpt lat="45.97934" lon="6.62395">
        <ele>527.2</ele>
        <time>2020-08-16T14:01:14Z</time>
      </trkpt>
      <trkpt lat="45.97938" lon="6.62393">
        <ele>527</ele>
        <time>2020-08-16T14:01:15Z</time>
      </trkpt>
      <trkpt lat="45.97941" lon="6.62391">
        <ele>527</ele>
        <time>2020-08-16T14:01:16Z</time>
      </trkpt>
      <trkpt lat="45.97944" lon="6.62389">
        <ele>526.8</ele>
        <time>2020-08-16T14:01:17Z</time>
      </trkpt>
      <trkpt lat="45.97946" lon="6.62387">
        <ele>526.8</ele>
        <time>2020-08-16T14:01:18Z</time>
      </trkpt>
      <trkpt lat="45.97949" lon="6.62384">
        <ele>526.6</ele>
        <time>2020-08-16T14:01:19Z</time>
      </trkpt>
      <trkpt lat="45.97952" lon="6.62381">
        <ele>526.4</ele>
        <time>2020-08-16T14:01:20Z</time>
      </trkpt>
      <trkpt lat="45.97954" lon="6.62378">
        <ele>526.4</ele>
        <time>2020-08-16T14:01:21Z</time>
      </trkpt>
      <trkpt lat="45.97957" lon="6.62375">
        <ele>526.4</ele>
        <time>2020-08-16T14:01:22Z</time>
      </trkpt>
      <trkpt lat="45.9796" lon="6.62372">
        <ele>526.4</ele>
        <time>2020-08-16T14:01:23Z</time>
      </trkpt>
      <trkpt lat="45.97962" lon="6.62371">
        <ele>526.2</ele>
        <time>2020-08-16T14:01:24Z</time>
      </trkpt>
      <trkpt lat="45.97965" lon="6.62368">
        <ele>526.2</ele>
        <time>2020-08-16T14:01:25Z</time>
      </trkpt>
      <trkpt lat="45.97968" lon="6.62366">
        <ele>526.2</ele>
        <time>2020-08-16T14:01:26Z</time>
      </trkpt>
      <trkpt lat="45.9797" lon="6.62364">
        <ele>526.2</ele>
        <time>2020-08-16T14:01:27Z</time>
      </trkpt>
      <trkpt lat="45.97972" lon="6.62362">
        <ele>526.2</ele>
        <time>2020-08-16T14:01:28Z</time>
      </trkpt>
      <trkpt lat="45.97975" lon="6.6236">
        <ele>526</ele>
        <time>2020-08-16T14:01:29Z</time>
      </trkpt>
      <trkpt lat="45.97977" lon="6.62358">
        <ele>526.2</ele>
        <time>2020-08-16T14:01:30Z</time>
      </trkpt>
      <trkpt lat="45.97979" lon="6.62355">
        <ele>526</ele>
        <time>2020-08-16T14:01:31Z</time>
      </trkpt>
      <trkpt lat="45.97982" lon="6.62354">
        <ele>526.2</ele>
        <time>2020-08-16T14:01:32Z</time>
      </trkpt>
      <trkpt lat="45.97984" lon="6.62352">
        <ele>526.2</ele>
        <time>2020-08-16T14:01:34Z</time>
      </trkpt>
      <trkpt lat="45.97988" lon="6.62349">
        <ele>526.2</ele>
        <time>2020-08-16T14:01:35Z</time>
      </trkpt>
      <trkpt lat="45.97989" lon="6.62348">
        <ele>526.2</ele>
        <time>2020-08-16T14:01:36Z</time>
      </trkpt>
      <trkpt lat="45.97991" lon="6.62346">
        <ele>526.2</ele>
        <time>2020-08-16T14:01:37Z</time>
      </trkpt>
      <trkpt lat="45.97993" lon="6.62345">
        <ele>526.2</ele>
        <time>2020-08-16T14:01:38Z</time>
      </trkpt>
      <trkpt lat="45.97995" lon="6.62343">
        <ele>526.2</ele>
        <time>2020-08-16T14:01:39Z</time>
      </trkpt>
      <trkpt lat="45.97997" lon="6.62341">
        <ele>526.2</ele>
        <time>2020-08-16T14:01:40Z</time>
      </trkpt>
      <trkpt lat="45.97999" lon="6.62339">
        <ele>526.2</ele>
        <time>2020-08-16T14:01:41Z</time>
      </trkpt>
      <trkpt lat="45.98001" lon="6.62338">
        <ele>526.4</ele>
        <time>2020-08-16T14:01:42Z</time>
      </trkpt>
      <trkpt lat="45.98003" lon="6.62337">
        <ele>526.4</ele>
        <time>2020-08-16T14:01:44Z</time>
      </trkpt>
      <trkpt lat="45.98007" lon="6.62335">
        <ele>526.4</ele>
        <time>2020-08-16T14:01:45Z</time>
      </trkpt>
      <trkpt lat="45.98008" lon="6.62334">
        <ele>526.4</ele>
        <time>2020-08-16T14:01:46Z</time>
      </trkpt>
      <trkpt lat="45.98009" lon="6.62332">
        <ele>526.6</ele>
        <time>2020-08-16T14:01:48Z</time>
      </trkpt>
      <trkpt lat="45.98012" lon="6.62332">
        <ele>526.6</ele>
        <time>2020-08-16T14:01:50Z</time>
      </trkpt>
      <trkpt lat="45.98013" lon="6.62332">
        <ele>526.8</ele>
        <time>2020-08-16T14:01:51Z</time>
      </trkpt>
      <trkpt lat="45.98016" lon="6.62334">
        <ele>527</ele>
        <time>2020-08-16T14:01:52Z</time>
      </trkpt>
      <trkpt lat="45.98017" lon="6.62334">
        <ele>527.2</ele>
        <time>2020-08-16T14:01:54Z</time>
      </trkpt>
      <trkpt lat="45.9802" lon="6.62333">
        <ele>527.4</ele>
        <time>2020-08-16T14:01:55Z</time>
      </trkpt>
      <trkpt lat="45.98022" lon="6.62334">
        <ele>527.6</ele>
        <time>2020-08-16T14:01:56Z</time>
      </trkpt>
      <trkpt lat="45.98024" lon="6.62334">
        <ele>527.8</ele>
        <time>2020-08-16T14:01:57Z</time>
      </trkpt>
      <trkpt lat="45.98025" lon="6.62333">
        <ele>527.8</ele>
        <time>2020-08-16T14:01:59Z</time>
      </trkpt>
      <trkpt lat="45.98028" lon="6.62335">
        <ele>528</ele>
        <time>2020-08-16T14:02:00Z</time>
      </trkpt>
      <trkpt lat="45.9803" lon="6.62334">
        <ele>528.2</ele>
        <time>2020-08-16T14:02:01Z</time>
      </trkpt>
      <trkpt lat="45.98031" lon="6.62333">
        <ele>528.2</ele>
        <time>2020-08-16T14:02:03Z</time>
      </trkpt>
      <trkpt lat="45.98033" lon="6.62331">
        <ele>528.2</ele>
        <time>2020-08-16T14:02:04Z</time>
      </trkpt>
      <trkpt lat="45.98035" lon="6.62331">
        <ele>528.4</ele>
        <time>2020-08-16T14:02:06Z</time>
      </trkpt>
      <trkpt lat="45.98038" lon="6.62331">
        <ele>528.2</ele>
        <time>2020-08-16T14:02:07Z</time>
      </trkpt>
      <trkpt lat="45.9804" lon="6.62329">
        <ele>528.2</ele>
        <time>2020-08-16T14:02:09Z</time>
      </trkpt>
      <trkpt lat="45.9804" lon="6.62327">
        <ele>528.2</ele>
        <time>2020-08-16T14:02:10Z</time>
      </trkpt>
      <trkpt lat="45.98041" lon="6.62327">
        <ele>528.2</ele>
        <time>2020-08-16T14:02:11Z</time>
      </trkpt>
      <trkpt lat="45.98042" lon="6.62326">
        <ele>528.2</ele>
        <time>2020-08-16T14:02:13Z</time>
      </trkpt>
      <trkpt lat="45.98063" lon="6.62322">
        <ele>529.6</ele>
        <time>2020-08-16T14:02:31Z</time>
      </trkpt>
      <trkpt lat="45.98065" lon="6.62322">
        <ele>529.6</ele>
        <time>2020-08-16T14:02:32Z</time>
      </trkpt>
      <trkpt lat="45.98067" lon="6.62322">
        <ele>529.6</ele>
        <time>2020-08-16T14:02:33Z</time>
      </trkpt>
      <trkpt lat="45.9807" lon="6.62321">
        <ele>529.8</ele>
        <time>2020-08-16T14:02:34Z</time>
      </trkpt>
      <trkpt lat="45.98072" lon="6.62322">
        <ele>530</ele>
        <time>2020-08-16T14:02:35Z</time>
      </trkpt>
      <trkpt lat="45.98074" lon="6.62322">
        <ele>530.2</ele>
        <time>2020-08-16T14:02:36Z</time>
      </trkpt>
      <trkpt lat="45.98077" lon="6.62322">
        <ele>530.2</ele>
        <time>2020-08-16T14:02:38Z</time>
      </trkpt>
      <trkpt lat="45.9808" lon="6.62324">
        <ele>530.4</ele>
        <time>2020-08-16T14:02:39Z</time>
      </trkpt>
      <trkpt lat="45.98082" lon="6.62324">
        <ele>530.6</ele>
        <time>2020-08-16T14:02:40Z</time>
      </trkpt>
      <trkpt lat="45.98084" lon="6.62325">
        <ele>530.6</ele>
        <time>2020-08-16T14:02:41Z</time>
      </trkpt>
      <trkpt lat="45.98085" lon="6.62324">
        <ele>530.8</ele>
        <time>2020-08-16T14:02:42Z</time>
      </trkpt>
      <trkpt lat="45.98087" lon="6.62324">
        <ele>530.8</ele>
        <time>2020-08-16T14:02:44Z</time>
      </trkpt>
      <trkpt lat="45.9809" lon="6.62325">
        <ele>531</ele>
        <time>2020-08-16T14:02:46Z</time>
      </trkpt>
      <trkpt lat="45.98093" lon="6.62326">
        <ele>531.2</ele>
        <time>2020-08-16T14:02:48Z</time>
      </trkpt>
      <trkpt lat="45.98095" lon="6.62326">
        <ele>531.4</ele>
        <time>2020-08-16T14:02:50Z</time>
      </trkpt>
      <trkpt lat="45.98098" lon="6.62325">
        <ele>531.8</ele>
        <time>2020-08-16T14:02:51Z</time>
      </trkpt>
      <trkpt lat="45.98099" lon="6.62325">
        <ele>531.8</ele>
        <time>2020-08-16T14:02:53Z</time>
      </trkpt>
      <trkpt lat="45.98102" lon="6.62327">
        <ele>532</ele>
        <time>2020-08-16T14:02:54Z</time>
      </trkpt>
      <trkpt lat="45.98103" lon="6.62327">
        <ele>532</ele>
        <time>2020-08-16T14:02:55Z</time>
      </trkpt>
      <trkpt lat="45.98104" lon="6.62327">
        <ele>532.2</ele>
        <time>2020-08-16T14:02:56Z</time>
      </trkpt>
      <trkpt lat="45.98105" lon="6.62327">
        <ele>532.2</ele>
        <time>2020-08-16T14:02:57Z</time>
      </trkpt>
      <trkpt lat="45.98106" lon="6.62327">
        <ele>532.2</ele>
        <time>2020-08-16T14:02:59Z</time>
      </trkpt>
      <trkpt lat="45.98108" lon="6.62327">
        <ele>532.4</ele>
        <time>2020-08-16T14:03:00Z</time>
      </trkpt>
      <trkpt lat="45.9811" lon="6.62328">
        <ele>532.4</ele>
        <time>2020-08-16T14:03:01Z</time>
      </trkpt>
      <trkpt lat="45.98111" lon="6.62329">
        <ele>532.6</ele>
        <time>2020-08-16T14:03:03Z</time>
      </trkpt>
      <trkpt lat="45.98111" lon="6.62329">
        <ele>532.6</ele>
        <time>2020-08-16T14:03:04Z</time>
      </trkpt>
      <trkpt lat="45.98113" lon="6.62329">
        <ele>532.6</ele>
        <time>2020-08-16T14:03:05Z</time>
      </trkpt>
      <trkpt lat="45.98114" lon="6.62329">
        <ele>532.6</ele>
        <time>2020-08-16T14:03:06Z</time>
      </trkpt>
      <trkpt lat="45.98115" lon="6.6233">
        <ele>532.6</ele>
        <time>2020-08-16T14:03:07Z</time>
      </trkpt>
      <trkpt lat="45.98115" lon="6.6233">
        <ele>532.8</ele>
        <time>2020-08-16T14:03:08Z</time>
      </trkpt>
      <trkpt lat="45.98116" lon="6.6233">
        <ele>532.8</ele>
        <time>2020-08-16T14:03:09Z</time>
      </trkpt>
      <trkpt lat="45.98116" lon="6.62328">
        <ele>532.8</ele>
        <time>2020-08-16T14:03:10Z</time>
      </trkpt>
      <trkpt lat="45.98117" lon="6.62328">
        <ele>532.8</ele>
        <time>2020-08-16T14:03:11Z</time>
      </trkpt>
      <trkpt lat="45.98117" lon="6.62328">
        <ele>532.8</ele>
        <time>2020-08-16T14:03:12Z</time>
      </trkpt>
      <trkpt lat="45.98118" lon="6.62327">
        <ele>532.8</ele>
        <time>2020-08-16T14:03:13Z</time>
      </trkpt>
      <trkpt lat="45.98118" lon="6.62326">
        <ele>532.8</ele>
        <time>2020-08-16T14:03:14Z</time>
      </trkpt>
      <trkpt lat="45.9813" lon="6.62326">
        <ele>534.6</ele>
        <time>2020-08-16T14:04:22Z</time>
      </trkpt>
      <trkpt lat="45.98132" lon="6.62328">
        <ele>534.8</ele>
        <time>2020-08-16T14:04:23Z</time>
      </trkpt>
      <trkpt lat="45.98133" lon="6.6233">
        <ele>534.8</ele>
        <time>2020-08-16T14:04:24Z</time>
      </trkpt>
      <trkpt lat="45.98134" lon="6.62331">
        <ele>534.8</ele>
        <time>2020-08-16T14:04:25Z</time>
      </trkpt>
      <trkpt lat="45.98136" lon="6.62332">
        <ele>535</ele>
        <time>2020-08-16T14:04:26Z</time>
      </trkpt>
      <trkpt lat="45.98138" lon="6.62332">
        <ele>535</ele>
        <time>2020-08-16T14:04:27Z</time>
      </trkpt>
      <trkpt lat="45.98139" lon="6.62334">
        <ele>535.2</ele>
        <time>2020-08-16T14:04:28Z</time>
      </trkpt>
      <trkpt lat="45.98141" lon="6.62334">
        <ele>535.4</ele>
        <time>2020-08-16T14:04:29Z</time>
      </trkpt>
      <trkpt lat="45.98142" lon="6.62336">
        <ele>535.6</ele>
        <time>2020-08-16T14:04:30Z</time>
      </trkpt>
      <trkpt lat="45.98144" lon="6.62337">
        <ele>535.6</ele>
        <time>2020-08-16T14:04:31Z</time>
      </trkpt>
      <trkpt lat="45.98146" lon="6.62338">
        <ele>535.8</ele>
        <time>2020-08-16T14:04:32Z</time>
      </trkpt>
      <trkpt lat="45.98147" lon="6.62339">
        <ele>536</ele>
        <time>2020-08-16T14:04:33Z</time>
      </trkpt>
      <trkpt lat="45.98148" lon="6.6234">
        <ele>536</ele>
        <time>2020-08-16T14:04:34Z</time>
      </trkpt>
      <trkpt lat="45.98149" lon="6.62341">
        <ele>536.2</ele>
        <time>2020-08-16T14:04:35Z</time>
      </trkpt>
      <trkpt lat="45.98151" lon="6.62341">
        <ele>536.4</ele>
        <time>2020-08-16T14:04:36Z</time>
      </trkpt>
      <trkpt lat="45.9815" lon="6.62343">
        <ele>536.4</ele>
        <time>2020-08-16T14:04:37Z</time>
      </trkpt>
      <trkpt lat="45.98152" lon="6.62344">
        <ele>536.6</ele>
        <time>2020-08-16T14:04:38Z</time>
      </trkpt>
      <trkpt lat="45.98156" lon="6.62347">
        <ele>536.6</ele>
        <time>2020-08-16T14:04:39Z</time>
      </trkpt>
      <trkpt lat="45.98159" lon="6.62348">
        <ele>536.8</ele>
        <time>2020-08-16T14:04:40Z</time>
      </trkpt>
      <trkpt lat="45.98161" lon="6.6235">
        <ele>536.8</ele>
        <time>2020-08-16T14:04:41Z</time>
      </trkpt>
      <trkpt lat="45.98162" lon="6.62352">
        <ele>537</ele>
        <time>2020-08-16T14:04:42Z</time>
      </trkpt>
      <trkpt lat="45.98166" lon="6.62354">
        <ele>537</ele>
        <time>2020-08-16T14:04:43Z</time>
      </trkpt>
      <trkpt lat="45.98167" lon="6.62355">
        <ele>537.2</ele>
        <time>2020-08-16T14:04:44Z</time>
      </trkpt>
      <trkpt lat="45.9817" lon="6.62356">
        <ele>537.2</ele>
        <time>2020-08-16T14:04:45Z</time>
      </trkpt>
      <trkpt lat="45.98172" lon="6.62357">
        <ele>537.4</ele>
        <time>2020-08-16T14:04:46Z</time>
      </trkpt>
      <trkpt lat="45.98174" lon="6.62358">
        <ele>537.6</ele>
        <time>2020-08-16T14:04:47Z</time>
      </trkpt>
      <trkpt lat="45.98176" lon="6.6236">
        <ele>537.6</ele>
        <time>2020-08-16T14:04:48Z</time>
      </trkpt>
      <trkpt lat="45.98178" lon="6.62361">
        <ele>537.8</ele>
        <time>2020-08-16T14:04:49Z</time>
      </trkpt>
      <trkpt lat="45.98179" lon="6.62363">
        <ele>538</ele>
        <time>2020-08-16T14:04:50Z</time>
      </trkpt>
      <trkpt lat="45.9818" lon="6.62365">
        <ele>538</ele>
        <time>2020-08-16T14:04:51Z</time>
      </trkpt>
      <trkpt lat="45.98182" lon="6.62367">
        <ele>538</ele>
        <time>2020-08-16T14:04:52Z</time>
      </trkpt>
      <trkpt lat="45.98184" lon="6.62369">
        <ele>538.2</ele>
        <time>2020-08-16T14:04:53Z</time>
      </trkpt>
      <trkpt lat="45.98185" lon="6.62371">
        <ele>538.2</ele>
        <time>2020-08-16T14:04:54Z</time>
      </trkpt>
      <trkpt lat="45.98187" lon="6.62373">
        <ele>538.4</ele>
        <time>2020-08-16T14:04:55Z</time>
      </trkpt>
      <trkpt lat="45.98189" lon="6.62374">
        <ele>538.4</ele>
        <time>2020-08-16T14:04:56Z</time>
      </trkpt>
      <trkpt lat="45.9819" lon="6.62376">
        <ele>538.6</ele>
        <time>2020-08-16T14:04:57Z</time>
      </trkpt>
      <trkpt lat="45.98191" lon="6.62377">
        <ele>538.8</ele>
        <time>2020-08-16T14:04:58Z</time>
      </trkpt>
      <trkpt lat="45.98192" lon="6.62378">
        <ele>539</ele>
        <time>2020-08-16T14:04:59Z</time>
      </trkpt>
      <trkpt lat="45.98194" lon="6.62381">
        <ele>539</ele>
        <time>2020-08-16T14:05:00Z</time>
      </trkpt>
      <trkpt lat="45.98195" lon="6.62383">
        <ele>539</ele>
        <time>2020-08-16T14:05:01Z</time>
      </trkpt>
      <trkpt lat="45.98197" lon="6.62384">
        <ele>539.2</ele>
        <time>2020-08-16T14:05:02Z</time>
      </trkpt>
      <trkpt lat="45.98199" lon="6.62384">
        <ele>539.2</ele>
        <time>2020-08-16T14:05:03Z</time>
      </trkpt>
      <trkpt lat="45.982" lon="6.62385">
        <ele>539.4</ele>
        <time>2020-08-16T14:05:04Z</time>
      </trkpt>
      <trkpt lat="45.98202" lon="6.62386">
        <ele>539.6</ele>
        <time>2020-08-16T14:05:05Z</time>
      </trkpt>
      <trkpt lat="45.98203" lon="6.62388">
        <ele>539.6</ele>
        <time>2020-08-16T14:05:06Z</time>
      </trkpt>
      <trkpt lat="45.98205" lon="6.6239">
        <ele>539.8</ele>
        <time>2020-08-16T14:05:07Z</time>
      </trkpt>
      <trkpt lat="45.98206" lon="6.6239">
        <ele>539.8</ele>
        <time>2020-08-16T14:05:08Z</time>
      </trkpt>
      <trkpt lat="45.98207" lon="6.62391">
        <ele>540</ele>
        <time>2020-08-16T14:05:09Z</time>
      </trkpt>
      <trkpt lat="45.98208" lon="6.62392">
        <ele>540</ele>
        <time>2020-08-16T14:05:10Z</time>
      </trkpt>
      <trkpt lat="45.98209" lon="6.62394">
        <ele>540.2</ele>
        <time>2020-08-16T14:05:11Z</time>
      </trkpt>
      <trkpt lat="45.98211" lon="6.62395">
        <ele>540.2</ele>
        <time>2020-08-16T14:05:12Z</time>
      </trkpt>
      <trkpt lat="45.98212" lon="6.62396">
        <ele>540.4</ele>
        <time>2020-08-16T14:05:13Z</time>
      </trkpt>
      <trkpt lat="45.98213" lon="6.62397">
        <ele>540.4</ele>
        <time>2020-08-16T14:05:14Z</time>
      </trkpt>
      <trkpt lat="45.98214" lon="6.62398">
        <ele>540.4</ele>
        <time>2020-08-16T14:05:15Z</time>
      </trkpt>
      <trkpt lat="45.98215" lon="6.62399">
        <ele>540.6</ele>
        <time>2020-08-16T14:05:16Z</time>
      </trkpt>
      <trkpt lat="45.98217" lon="6.624">
        <ele>540.6</ele>
        <time>2020-08-16T14:05:17Z</time>
      </trkpt>
      <trkpt lat="45.98218" lon="6.62401">
        <ele>540.6</ele>
        <time>2020-08-16T14:05:18Z</time>
      </trkpt>
      <trkpt lat="45.98219" lon="6.62401">
        <ele>540.6</ele>
        <time>2020-08-16T14:05:19Z</time>
      </trkpt>
      <trkpt lat="45.9822" lon="6.62402">
        <ele>540.6</ele>
        <time>2020-08-16T14:05:20Z</time>
      </trkpt>
      <trkpt lat="45.98221" lon="6.62402">
        <ele>540.8</ele>
        <time>2020-08-16T14:05:21Z</time>
      </trkpt>
      <trkpt lat="45.98222" lon="6.62403">
        <ele>540.8</ele>
        <time>2020-08-16T14:05:22Z</time>
      </trkpt>
      <trkpt lat="45.98224" lon="6.62404">
        <ele>541</ele>
        <time>2020-08-16T14:05:23Z</time>
      </trkpt>
      <trkpt lat="45.98225" lon="6.62405">
        <ele>541</ele>
        <time>2020-08-16T14:05:24Z</time>
      </trkpt>
      <trkpt lat="45.98227" lon="6.62407">
        <ele>541.2</ele>
        <time>2020-08-16T14:05:25Z</time>
      </trkpt>
      <trkpt lat="45.98228" lon="6.62407">
        <ele>541.2</ele>
        <time>2020-08-16T14:05:26Z</time>
      </trkpt>
      <trkpt lat="45.9823" lon="6.62408">
        <ele>541.4</ele>
        <time>2020-08-16T14:05:27Z</time>
      </trkpt>
      <trkpt lat="45.98231" lon="6.62408">
        <ele>541.4</ele>
        <time>2020-08-16T14:05:28Z</time>
      </trkpt>
      <trkpt lat="45.98233" lon="6.62409">
        <ele>541.4</ele>
        <time>2020-08-16T14:05:29Z</time>
      </trkpt>
      <trkpt lat="45.98235" lon="6.6241">
        <ele>541.4</ele>
        <time>2020-08-16T14:05:30Z</time>
      </trkpt>
      <trkpt lat="45.98236" lon="6.6241">
        <ele>541.6</ele>
        <time>2020-08-16T14:05:31Z</time>
      </trkpt>
      <trkpt lat="45.98238" lon="6.62409">
        <ele>541.6</ele>
        <time>2020-08-16T14:05:32Z</time>
      </trkpt>
      <trkpt lat="45.98239" lon="6.62409">
        <ele>541.8</ele>
        <time>2020-08-16T14:05:33Z</time>
      </trkpt>
      <trkpt lat="45.98241" lon="6.62409">
        <ele>541.8</ele>
        <time>2020-08-16T14:05:34Z</time>
      </trkpt>
      <trkpt lat="45.98243" lon="6.62409">
        <ele>542</ele>
        <time>2020-08-16T14:05:35Z</time>
      </trkpt>
      <trkpt lat="45.98245" lon="6.62408">
        <ele>542</ele>
        <time>2020-08-16T14:05:36Z</time>
      </trkpt>
      <trkpt lat="45.98247" lon="6.62409">
        <ele>542</ele>
        <time>2020-08-16T14:05:37Z</time>
      </trkpt>
      <trkpt lat="45.98249" lon="6.62409">
        <ele>542.2</ele>
        <time>2020-08-16T14:05:38Z</time>
      </trkpt>
      <trkpt lat="45.98251" lon="6.6241">
        <ele>542.2</ele>
        <time>2020-08-16T14:05:39Z</time>
      </trkpt>
      <trkpt lat="45.98252" lon="6.6241">
        <ele>542.4</ele>
        <time>2020-08-16T14:05:40Z</time>
      </trkpt>
      <trkpt lat="45.98254" lon="6.6241">
        <ele>542.4</ele>
        <time>2020-08-16T14:05:41Z</time>
      </trkpt>
      <trkpt lat="45.98256" lon="6.62411">
        <ele>542.4</ele>
        <time>2020-08-16T14:05:42Z</time>
      </trkpt>
      <trkpt lat="45.98258" lon="6.62412">
        <ele>542.6</ele>
        <time>2020-08-16T14:05:43Z</time>
      </trkpt>
      <trkpt lat="45.9826" lon="6.62412">
        <ele>542.6</ele>
        <time>2020-08-16T14:05:44Z</time>
      </trkpt>
      <trkpt lat="45.98262" lon="6.62413">
        <ele>542.8</ele>
        <time>2020-08-16T14:05:45Z</time>
      </trkpt>
      <trkpt lat="45.98264" lon="6.62414">
        <ele>542.8</ele>
        <time>2020-08-16T14:05:46Z</time>
      </trkpt>
      <trkpt lat="45.98266" lon="6.62415">
        <ele>543</ele>
        <time>2020-08-16T14:05:47Z</time>
      </trkpt>
      <trkpt lat="45.98267" lon="6.62415">
        <ele>543.2</ele>
        <time>2020-08-16T14:05:48Z</time>
      </trkpt>
      <trkpt lat="45.98269" lon="6.62415">
        <ele>543.2</ele>
        <time>2020-08-16T14:05:49Z</time>
      </trkpt>
      <trkpt lat="45.9827" lon="6.62416">
        <ele>543.4</ele>
        <time>2020-08-16T14:05:50Z</time>
      </trkpt>
      <trkpt lat="45.98272" lon="6.62416">
        <ele>543.4</ele>
        <time>2020-08-16T14:05:51Z</time>
      </trkpt>
      <trkpt lat="45.98274" lon="6.62416">
        <ele>543.6</ele>
        <time>2020-08-16T14:05:52Z</time>
      </trkpt>
      <trkpt lat="45.98276" lon="6.62415">
        <ele>543.6</ele>
        <time>2020-08-16T14:05:53Z</time>
      </trkpt>
      <trkpt lat="45.98277" lon="6.62416">
        <ele>543.8</ele>
        <time>2020-08-16T14:05:54Z</time>
      </trkpt>
      <trkpt lat="45.98278" lon="6.62417">
        <ele>543.8</ele>
        <time>2020-08-16T14:05:55Z</time>
      </trkpt>
      <trkpt lat="45.9828" lon="6.62419">
        <ele>543.8</ele>
        <time>2020-08-16T14:05:56Z</time>
      </trkpt>
      <trkpt lat="45.98282" lon="6.6242">
        <ele>544</ele>
        <time>2020-08-16T14:05:57Z</time>
      </trkpt>
      <trkpt lat="45.98284" lon="6.6242">
        <ele>544</ele>
        <time>2020-08-16T14:05:58Z</time>
      </trkpt>
      <trkpt lat="45.98285" lon="6.6242">
        <ele>544.2</ele>
        <time>2020-08-16T14:05:59Z</time>
      </trkpt>
      <trkpt lat="45.98287" lon="6.62422">
        <ele>544.4</ele>
        <time>2020-08-16T14:06:00Z</time>
      </trkpt>
      <trkpt lat="45.98288" lon="6.62423">
        <ele>544.6</ele>
        <time>2020-08-16T14:06:01Z</time>
      </trkpt>
      <trkpt lat="45.98289" lon="6.62426">
        <ele>544.8</ele>
        <time>2020-08-16T14:06:02Z</time>
      </trkpt>
      <trkpt lat="45.98291" lon="6.62427">
        <ele>544.8</ele>
        <time>2020-08-16T14:06:03Z</time>
      </trkpt>
      <trkpt lat="45.98293" lon="6.62429">
        <ele>545</ele>
        <time>2020-08-16T14:06:04Z</time>
      </trkpt>
      <trkpt lat="45.98295" lon="6.62429">
        <ele>545</ele>
        <time>2020-08-16T14:06:05Z</time>
      </trkpt>
      <trkpt lat="45.98296" lon="6.6243">
        <ele>545.2</ele>
        <time>2020-08-16T14:06:06Z</time>
      </trkpt>
      <trkpt lat="45.98299" lon="6.62433">
        <ele>545.2</ele>
        <time>2020-08-16T14:06:07Z</time>
      </trkpt>
      <trkpt lat="45.98301" lon="6.62434">
        <ele>545.4</ele>
        <time>2020-08-16T14:06:08Z</time>
      </trkpt>
      <trkpt lat="45.98303" lon="6.62436">
        <ele>545.6</ele>
        <time>2020-08-16T14:06:09Z</time>
      </trkpt>
      <trkpt lat="45.98305" lon="6.62437">
        <ele>545.6</ele>
        <time>2020-08-16T14:06:10Z</time>
      </trkpt>
      <trkpt lat="45.98305" lon="6.62438">
        <ele>545.8</ele>
        <time>2020-08-16T14:06:11Z</time>
      </trkpt>
      <trkpt lat="45.98307" lon="6.62438">
        <ele>545.8</ele>
        <time>2020-08-16T14:06:12Z</time>
      </trkpt>
      <trkpt lat="45.98309" lon="6.62439">
        <ele>546</ele>
        <time>2020-08-16T14:06:13Z</time>
      </trkpt>
      <trkpt lat="45.98311" lon="6.62439">
        <ele>546.2</ele>
        <time>2020-08-16T14:06:14Z</time>
      </trkpt>
      <trkpt lat="45.98314" lon="6.6244">
        <ele>546.2</ele>
        <time>2020-08-16T14:06:15Z</time>
      </trkpt>
      <trkpt lat="45.98317" lon="6.62439">
        <ele>546.2</ele>
        <time>2020-08-16T14:06:16Z</time>
      </trkpt>
      <trkpt lat="45.98319" lon="6.62439">
        <ele>546.4</ele>
        <time>2020-08-16T14:06:17Z</time>
      </trkpt>
      <trkpt lat="45.9832" lon="6.6244">
        <ele>546.4</ele>
        <time>2020-08-16T14:06:18Z</time>
      </trkpt>
      <trkpt lat="45.98321" lon="6.62442">
        <ele>546.6</ele>
        <time>2020-08-16T14:06:19Z</time>
      </trkpt>
      <trkpt lat="45.98323" lon="6.62444">
        <ele>546.6</ele>
        <time>2020-08-16T14:06:20Z</time>
      </trkpt>
      <trkpt lat="45.98324" lon="6.62446">
        <ele>546.8</ele>
        <time>2020-08-16T14:06:21Z</time>
      </trkpt>
      <trkpt lat="45.98325" lon="6.62449">
        <ele>546.8</ele>
        <time>2020-08-16T14:06:22Z</time>
      </trkpt>
      <trkpt lat="45.98326" lon="6.62451">
        <ele>547</ele>
        <time>2020-08-16T14:06:23Z</time>
      </trkpt>
      <trkpt lat="45.98327" lon="6.62453">
        <ele>547.2</ele>
        <time>2020-08-16T14:06:24Z</time>
      </trkpt>
      <trkpt lat="45.98327" lon="6.62455">
        <ele>547.2</ele>
        <time>2020-08-16T14:06:25Z</time>
      </trkpt>
      <trkpt lat="45.98328" lon="6.62458">
        <ele>547.4</ele>
        <time>2020-08-16T14:06:26Z</time>
      </trkpt>
      <trkpt lat="45.98329" lon="6.62461">
        <ele>547.6</ele>
        <time>2020-08-16T14:06:27Z</time>
      </trkpt>
      <trkpt lat="45.98331" lon="6.62464">
        <ele>547.6</ele>
        <time>2020-08-16T14:06:28Z</time>
      </trkpt>
      <trkpt lat="45.98333" lon="6.62466">
        <ele>547.6</ele>
        <time>2020-08-16T14:06:29Z</time>
      </trkpt>
      <trkpt lat="45.98334" lon="6.6247">
        <ele>547.8</ele>
        <time>2020-08-16T14:06:30Z</time>
      </trkpt>
      <trkpt lat="45.98335" lon="6.62471">
        <ele>548</ele>
        <time>2020-08-16T14:06:31Z</time>
      </trkpt>
      <trkpt lat="45.98336" lon="6.62474">
        <ele>548</ele>
        <time>2020-08-16T14:06:32Z</time>
      </trkpt>
      <trkpt lat="45.98338" lon="6.62477">
        <ele>548.2</ele>
        <time>2020-08-16T14:06:33Z</time>
      </trkpt>
      <trkpt lat="45.98338" lon="6.6248">
        <ele>548.2</ele>
        <time>2020-08-16T14:06:34Z</time>
      </trkpt>
      <trkpt lat="45.98338" lon="6.62483">
        <ele>548.4</ele>
        <time>2020-08-16T14:06:35Z</time>
      </trkpt>
      <trkpt lat="45.98339" lon="6.62485">
        <ele>548.4</ele>
        <time>2020-08-16T14:06:36Z</time>
      </trkpt>
      <trkpt lat="45.9834" lon="6.62488">
        <ele>548.6</ele>
        <time>2020-08-16T14:06:37Z</time>
      </trkpt>
      <trkpt lat="45.98341" lon="6.6249">
        <ele>548.6</ele>
        <time>2020-08-16T14:06:38Z</time>
      </trkpt>
      <trkpt lat="45.98343" lon="6.62491">
        <ele>548.8</ele>
        <time>2020-08-16T14:06:39Z</time>
      </trkpt>
      <trkpt lat="45.98346" lon="6.62494">
        <ele>548.8</ele>
        <time>2020-08-16T14:06:40Z</time>
      </trkpt>
      <trkpt lat="45.98348" lon="6.62496">
        <ele>548.8</ele>
        <time>2020-08-16T14:06:41Z</time>
      </trkpt>
      <trkpt lat="45.98349" lon="6.62498">
        <ele>549</ele>
        <time>2020-08-16T14:06:42Z</time>
      </trkpt>
      <trkpt lat="45.98353" lon="6.62501">
        <ele>549.2</ele>
        <time>2020-08-16T14:06:43Z</time>
      </trkpt>
      <trkpt lat="45.98355" lon="6.62503">
        <ele>549.2</ele>
        <time>2020-08-16T14:06:44Z</time>
      </trkpt>
      <trkpt lat="45.98357" lon="6.62507">
        <ele>549.4</ele>
        <time>2020-08-16T14:06:45Z</time>
      </trkpt>
      <trkpt lat="45.98357" lon="6.62509">
        <ele>549.4</ele>
        <time>2020-08-16T14:06:46Z</time>
      </trkpt>
      <trkpt lat="45.98358" lon="6.62512">
        <ele>549.4</ele>
        <time>2020-08-16T14:06:47Z</time>
      </trkpt>
      <trkpt lat="45.9836" lon="6.62514">
        <ele>549.6</ele>
        <time>2020-08-16T14:06:48Z</time>
      </trkpt>
      <trkpt lat="45.98362" lon="6.62515">
        <ele>549.6</ele>
        <time>2020-08-16T14:06:49Z</time>
      </trkpt>
      <trkpt lat="45.98364" lon="6.62516">
        <ele>549.6</ele>
        <time>2020-08-16T14:06:50Z</time>
      </trkpt>
      <trkpt lat="45.98367" lon="6.62516">
        <ele>549.8</ele>
        <time>2020-08-16T14:06:51Z</time>
      </trkpt>
      <trkpt lat="45.98369" lon="6.62517">
        <ele>549.8</ele>
        <time>2020-08-16T14:06:52Z</time>
      </trkpt>
      <trkpt lat="45.98372" lon="6.62517">
        <ele>550</ele>
        <time>2020-08-16T14:06:53Z</time>
      </trkpt>
      <trkpt lat="45.98375" lon="6.62518">
        <ele>550</ele>
        <time>2020-08-16T14:06:54Z</time>
      </trkpt>
      <trkpt lat="45.98377" lon="6.6252">
        <ele>550.2</ele>
        <time>2020-08-16T14:06:55Z</time>
      </trkpt>
      <trkpt lat="45.98379" lon="6.62521">
        <ele>550.2</ele>
        <time>2020-08-16T14:06:56Z</time>
      </trkpt>
      <trkpt lat="45.98381" lon="6.62522">
        <ele>550.4</ele>
        <time>2020-08-16T14:06:57Z</time>
      </trkpt>
      <trkpt lat="45.98384" lon="6.62523">
        <ele>550.4</ele>
        <time>2020-08-16T14:06:58Z</time>
      </trkpt>
      <trkpt lat="45.98386" lon="6.62523">
        <ele>550.6</ele>
        <time>2020-08-16T14:06:59Z</time>
      </trkpt>
      <trkpt lat="45.98389" lon="6.62523">
        <ele>550.6</ele>
        <time>2020-08-16T14:07:00Z</time>
      </trkpt>
      <trkpt lat="45.98391" lon="6.62525">
        <ele>550.8</ele>
        <time>2020-08-16T14:07:01Z</time>
      </trkpt>
      <trkpt lat="45.98392" lon="6.62525">
        <ele>550.8</ele>
        <time>2020-08-16T14:07:02Z</time>
      </trkpt>
      <trkpt lat="45.98395" lon="6.62524">
        <ele>550.8</ele>
        <time>2020-08-16T14:07:03Z</time>
      </trkpt>
      <trkpt lat="45.98397" lon="6.62523">
        <ele>551</ele>
        <time>2020-08-16T14:07:04Z</time>
      </trkpt>
      <trkpt lat="45.98399" lon="6.62524">
        <ele>551</ele>
        <time>2020-08-16T14:07:05Z</time>
      </trkpt>
      <trkpt lat="45.98401" lon="6.62523">
        <ele>551</ele>
        <time>2020-08-16T14:07:06Z</time>
      </trkpt>
      <trkpt lat="45.98403" lon="6.62522">
        <ele>551</ele>
        <time>2020-08-16T14:07:07Z</time>
      </trkpt>
      <trkpt lat="45.98405" lon="6.62522">
        <ele>551.2</ele>
        <time>2020-08-16T14:07:08Z</time>
      </trkpt>
      <trkpt lat="45.98407" lon="6.62523">
        <ele>551.4</ele>
        <time>2020-08-16T14:07:09Z</time>
      </trkpt>
      <trkpt lat="45.98409" lon="6.62523">
        <ele>551.4</ele>
        <time>2020-08-16T14:07:10Z</time>
      </trkpt>
      <trkpt lat="45.98412" lon="6.62524">
        <ele>551.6</ele>
        <time>2020-08-16T14:07:11Z</time>
      </trkpt>
      <trkpt lat="45.98414" lon="6.62526">
        <ele>551.8</ele>
        <time>2020-08-16T14:07:12Z</time>
      </trkpt>
      <trkpt lat="45.98416" lon="6.62526">
        <ele>551.8</ele>
        <time>2020-08-16T14:07:13Z</time>
      </trkpt>
      <trkpt lat="45.98418" lon="6.62526">
        <ele>552</ele>
        <time>2020-08-16T14:07:14Z</time>
      </trkpt>
      <trkpt lat="45.9842" lon="6.62528">
        <ele>552.2</ele>
        <time>2020-08-16T14:07:15Z</time>
      </trkpt>
      <trkpt lat="45.98422" lon="6.62527">
        <ele>552.2</ele>
        <time>2020-08-16T14:07:16Z</time>
      </trkpt>
      <trkpt lat="45.98424" lon="6.62527">
        <ele>552.4</ele>
        <time>2020-08-16T14:07:17Z</time>
      </trkpt>
      <trkpt lat="45.98425" lon="6.62529">
        <ele>552.6</ele>
        <time>2020-08-16T14:07:18Z</time>
      </trkpt>
      <trkpt lat="45.98427" lon="6.6253">
        <ele>552.6</ele>
        <time>2020-08-16T14:07:19Z</time>
      </trkpt>
      <trkpt lat="45.98429" lon="6.62532">
        <ele>552.8</ele>
        <time>2020-08-16T14:07:20Z</time>
      </trkpt>
      <trkpt lat="45.9843" lon="6.62534">
        <ele>552.8</ele>
        <time>2020-08-16T14:07:21Z</time>
      </trkpt>
      <trkpt lat="45.98432" lon="6.62535">
        <ele>553</ele>
        <time>2020-08-16T14:07:22Z</time>
      </trkpt>
      <trkpt lat="45.98433" lon="6.62536">
        <ele>553.2</ele>
        <time>2020-08-16T14:07:23Z</time>
      </trkpt>
      <trkpt lat="45.98435" lon="6.62537">
        <ele>553.2</ele>
        <time>2020-08-16T14:07:24Z</time>
      </trkpt>
      <trkpt lat="45.98436" lon="6.62539">
        <ele>553.4</ele>
        <time>2020-08-16T14:07:25Z</time>
      </trkpt>
      <trkpt lat="45.98439" lon="6.6254">
        <ele>553.4</ele>
        <time>2020-08-16T14:07:26Z</time>
      </trkpt>
      <trkpt lat="45.98442" lon="6.62542">
        <ele>553.6</ele>
        <time>2020-08-16T14:07:27Z</time>
      </trkpt>
      <trkpt lat="45.98445" lon="6.62543">
        <ele>553.6</ele>
        <time>2020-08-16T14:07:28Z</time>
      </trkpt>
      <trkpt lat="45.98447" lon="6.62545">
        <ele>553.8</ele>
        <time>2020-08-16T14:07:29Z</time>
      </trkpt>
      <trkpt lat="45.9845" lon="6.62546">
        <ele>553.8</ele>
        <time>2020-08-16T14:07:30Z</time>
      </trkpt>
      <trkpt lat="45.98452" lon="6.62547">
        <ele>554</ele>
        <time>2020-08-16T14:07:31Z</time>
      </trkpt>
      <trkpt lat="45.98454" lon="6.62548">
        <ele>554</ele>
        <time>2020-08-16T14:07:32Z</time>
      </trkpt>
      <trkpt lat="45.98456" lon="6.6255">
        <ele>554.2</ele>
        <time>2020-08-16T14:07:33Z</time>
      </trkpt>
      <trkpt lat="45.98458" lon="6.6255">
        <ele>554.2</ele>
        <time>2020-08-16T14:07:34Z</time>
      </trkpt>
      <trkpt lat="45.98459" lon="6.6255">
        <ele>554.2</ele>
        <time>2020-08-16T14:07:35Z</time>
      </trkpt>
      <trkpt lat="45.98461" lon="6.62552">
        <ele>554.4</ele>
        <time>2020-08-16T14:07:36Z</time>
      </trkpt>
      <trkpt lat="45.98463" lon="6.62552">
        <ele>554.4</ele>
        <time>2020-08-16T14:07:37Z</time>
      </trkpt>
      <trkpt lat="45.98465" lon="6.62553">
        <ele>554.6</ele>
        <time>2020-08-16T14:07:38Z</time>
      </trkpt>
      <trkpt lat="45.98467" lon="6.62555">
        <ele>554.6</ele>
        <time>2020-08-16T14:07:39Z</time>
      </trkpt>
      <trkpt lat="45.98468" lon="6.62556">
        <ele>554.8</ele>
        <time>2020-08-16T14:07:40Z</time>
      </trkpt>
      <trkpt lat="45.9847" lon="6.62557">
        <ele>555</ele>
        <time>2020-08-16T14:07:41Z</time>
      </trkpt>
      <trkpt lat="45.98472" lon="6.62558">
        <ele>555.2</ele>
        <time>2020-08-16T14:07:42Z</time>
      </trkpt>
      <trkpt lat="45.98474" lon="6.6256">
        <ele>555.2</ele>
        <time>2020-08-16T14:07:43Z</time>
      </trkpt>
      <trkpt lat="45.98476" lon="6.62562">
        <ele>555.4</ele>
        <time>2020-08-16T14:07:44Z</time>
      </trkpt>
      <trkpt lat="45.98477" lon="6.62564">
        <ele>555.6</ele>
        <time>2020-08-16T14:07:45Z</time>
      </trkpt>
      <trkpt lat="45.98479" lon="6.62566">
        <ele>555.6</ele>
        <time>2020-08-16T14:07:46Z</time>
      </trkpt>
      <trkpt lat="45.98481" lon="6.62566">
        <ele>555.8</ele>
        <time>2020-08-16T14:07:47Z</time>
      </trkpt>
      <trkpt lat="45.98483" lon="6.62567">
        <ele>555.8</ele>
        <time>2020-08-16T14:07:48Z</time>
      </trkpt>
      <trkpt lat="45.98485" lon="6.62568">
        <ele>555.8</ele>
        <time>2020-08-16T14:07:49Z</time>
      </trkpt>
      <trkpt lat="45.98487" lon="6.62569">
        <ele>555.8</ele>
        <time>2020-08-16T14:07:50Z</time>
      </trkpt>
      <trkpt lat="45.98491" lon="6.62569">
        <ele>556</ele>
        <time>2020-08-16T14:07:51Z</time>
      </trkpt>
      <trkpt lat="45.98494" lon="6.6257">
        <ele>556</ele>
        <time>2020-08-16T14:07:52Z</time>
      </trkpt>
      <trkpt lat="45.98497" lon="6.62571">
        <ele>556</ele>
        <time>2020-08-16T14:07:53Z</time>
      </trkpt>
      <trkpt lat="45.985" lon="6.62572">
        <ele>556.2</ele>
        <time>2020-08-16T14:07:54Z</time>
      </trkpt>
      <trkpt lat="45.98501" lon="6.62572">
        <ele>556.2</ele>
        <time>2020-08-16T14:07:55Z</time>
      </trkpt>
      <trkpt lat="45.98504" lon="6.62571">
        <ele>556.4</ele>
        <time>2020-08-16T14:07:56Z</time>
      </trkpt>
      <trkpt lat="45.98505" lon="6.62572">
        <ele>556.6</ele>
        <time>2020-08-16T14:07:57Z</time>
      </trkpt>
      <trkpt lat="45.98508" lon="6.62572">
        <ele>556.6</ele>
        <time>2020-08-16T14:07:58Z</time>
      </trkpt>
      <trkpt lat="45.9851" lon="6.62571">
        <ele>556.8</ele>
        <time>2020-08-16T14:07:59Z</time>
      </trkpt>
      <trkpt lat="45.98512" lon="6.62571">
        <ele>556.8</ele>
        <time>2020-08-16T14:08:00Z</time>
      </trkpt>
      <trkpt lat="45.98514" lon="6.62571">
        <ele>556.8</ele>
        <time>2020-08-16T14:08:01Z</time>
      </trkpt>
      <trkpt lat="45.98516" lon="6.6257">
        <ele>557</ele>
        <time>2020-08-16T14:08:02Z</time>
      </trkpt>
      <trkpt lat="45.98518" lon="6.6257">
        <ele>557</ele>
        <time>2020-08-16T14:08:03Z</time>
      </trkpt>
      <trkpt lat="45.9852" lon="6.6257">
        <ele>557</ele>
        <time>2020-08-16T14:08:04Z</time>
      </trkpt>
      <trkpt lat="45.98522" lon="6.62569">
        <ele>557.2</ele>
        <time>2020-08-16T14:08:05Z</time>
      </trkpt>
      <trkpt lat="45.98524" lon="6.6257">
        <ele>557.2</ele>
        <time>2020-08-16T14:08:06Z</time>
      </trkpt>
      <trkpt lat="45.98525" lon="6.6257">
        <ele>557.2</ele>
        <time>2020-08-16T14:08:07Z</time>
      </trkpt>
      <trkpt lat="45.98527" lon="6.62572">
        <ele>557.2</ele>
        <time>2020-08-16T14:08:08Z</time>
      </trkpt>
      <trkpt lat="45.98528" lon="6.62572">
        <ele>557.4</ele>
        <time>2020-08-16T14:08:09Z</time>
      </trkpt>
      <trkpt lat="45.9853" lon="6.62573">
        <ele>557.6</ele>
        <time>2020-08-16T14:08:10Z</time>
      </trkpt>
      <trkpt lat="45.98532" lon="6.62573">
        <ele>557.6</ele>
        <time>2020-08-16T14:08:11Z</time>
      </trkpt>
      <trkpt lat="45.98534" lon="6.62573">
        <ele>557.6</ele>
        <time>2020-08-16T14:08:12Z</time>
      </trkpt>
      <trkpt lat="45.98536" lon="6.62574">
        <ele>557.8</ele>
        <time>2020-08-16T14:08:13Z</time>
      </trkpt>
      <trkpt lat="45.98538" lon="6.62575">
        <ele>557.8</ele>
        <time>2020-08-16T14:08:14Z</time>
      </trkpt>
      <trkpt lat="45.9854" lon="6.62576">
        <ele>558</ele>
        <time>2020-08-16T14:08:15Z</time>
      </trkpt>
      <trkpt lat="45.98542" lon="6.62577">
        <ele>558.2</ele>
        <time>2020-08-16T14:08:16Z</time>
      </trkpt>
      <trkpt lat="45.98545" lon="6.62578">
        <ele>558.4</ele>
        <time>2020-08-16T14:08:17Z</time>
      </trkpt>
      <trkpt lat="45.98546" lon="6.6258">
        <ele>558.4</ele>
        <time>2020-08-16T14:08:18Z</time>
      </trkpt>
      <trkpt lat="45.98549" lon="6.62582">
        <ele>558.6</ele>
        <time>2020-08-16T14:08:19Z</time>
      </trkpt>
      <trkpt lat="45.98551" lon="6.62583">
        <ele>558.6</ele>
        <time>2020-08-16T14:08:20Z</time>
      </trkpt>
      <trkpt lat="45.98553" lon="6.62584">
        <ele>558.8</ele>
        <time>2020-08-16T14:08:21Z</time>
      </trkpt>
      <trkpt lat="45.98554" lon="6.62585">
        <ele>558.8</ele>
        <time>2020-08-16T14:08:22Z</time>
      </trkpt>
      <trkpt lat="45.98557" lon="6.62584">
        <ele>558.8</ele>
        <time>2020-08-16T14:08:23Z</time>
      </trkpt>
      <trkpt lat="45.98559" lon="6.62585">
        <ele>559</ele>
        <time>2020-08-16T14:08:24Z</time>
      </trkpt>
      <trkpt lat="45.98561" lon="6.62586">
        <ele>559.2</ele>
        <time>2020-08-16T14:08:25Z</time>
      </trkpt>
      <trkpt lat="45.98564" lon="6.62588">
        <ele>559.2</ele>
        <time>2020-08-16T14:08:26Z</time>
      </trkpt>
      <trkpt lat="45.98565" lon="6.62587">
        <ele>559.2</ele>
        <time>2020-08-16T14:08:27Z</time>
      </trkpt>
      <trkpt lat="45.98567" lon="6.62586">
        <ele>559.2</ele>
        <time>2020-08-16T14:08:28Z</time>
      </trkpt>
      <trkpt lat="45.98569" lon="6.62586">
        <ele>559.4</ele>
        <time>2020-08-16T14:08:29Z</time>
      </trkpt>
      <trkpt lat="45.9857" lon="6.62586">
        <ele>559.4</ele>
        <time>2020-08-16T14:08:30Z</time>
      </trkpt>
      <trkpt lat="45.98572" lon="6.62585">
        <ele>559.4</ele>
        <time>2020-08-16T14:08:31Z</time>
      </trkpt>
      <trkpt lat="45.98573" lon="6.62585">
        <ele>559.6</ele>
        <time>2020-08-16T14:08:32Z</time>
      </trkpt>
      <trkpt lat="45.98574" lon="6.62586">
        <ele>559.6</ele>
        <time>2020-08-16T14:08:33Z</time>
      </trkpt>
      <trkpt lat="45.98576" lon="6.62587">
        <ele>559.6</ele>
        <time>2020-08-16T14:08:34Z</time>
      </trkpt>
      <trkpt lat="45.98578" lon="6.62587">
        <ele>559.8</ele>
        <time>2020-08-16T14:08:35Z</time>
      </trkpt>
      <trkpt lat="45.98581" lon="6.62587">
        <ele>559.8</ele>
        <time>2020-08-16T14:08:36Z</time>
      </trkpt>
      <trkpt lat="45.98583" lon="6.62588">
        <ele>560</ele>
        <time>2020-08-16T14:08:37Z</time>
      </trkpt>
      <trkpt lat="45.98585" lon="6.62588">
        <ele>560</ele>
        <time>2020-08-16T14:08:38Z</time>
      </trkpt>
      <trkpt lat="45.98586" lon="6.62588">
        <ele>560.2</ele>
        <time>2020-08-16T14:08:39Z</time>
      </trkpt>
      <trkpt lat="45.98588" lon="6.62589">
        <ele>560.4</ele>
        <time>2020-08-16T14:08:40Z</time>
      </trkpt>
      <trkpt lat="45.98589" lon="6.6259">
        <ele>560.6</ele>
        <time>2020-08-16T14:08:41Z</time>
      </trkpt>
      <trkpt lat="45.98591" lon="6.62592">
        <ele>560.6</ele>
        <time>2020-08-16T14:08:42Z</time>
      </trkpt>
      <trkpt lat="45.98593" lon="6.62594">
        <ele>560.6</ele>
        <time>2020-08-16T14:08:43Z</time>
      </trkpt>
      <trkpt lat="45.98595" lon="6.62596">
        <ele>560.8</ele>
        <time>2020-08-16T14:08:44Z</time>
      </trkpt>
      <trkpt lat="45.98597" lon="6.62596">
        <ele>561</ele>
        <time>2020-08-16T14:08:45Z</time>
      </trkpt>
      <trkpt lat="45.98598" lon="6.62596">
        <ele>561</ele>
        <time>2020-08-16T14:08:46Z</time>
      </trkpt>
      <trkpt lat="45.986" lon="6.62597">
        <ele>561</ele>
        <time>2020-08-16T14:08:47Z</time>
      </trkpt>
      <trkpt lat="45.98602" lon="6.62597">
        <ele>561.2</ele>
        <time>2020-08-16T14:08:48Z</time>
      </trkpt>
      <trkpt lat="45.98603" lon="6.62598">
        <ele>561.2</ele>
        <time>2020-08-16T14:08:49Z</time>
      </trkpt>
      <trkpt lat="45.98604" lon="6.62598">
        <ele>561.2</ele>
        <time>2020-08-16T14:08:50Z</time>
      </trkpt>
      <trkpt lat="45.98606" lon="6.62599">
        <ele>561.4</ele>
        <time>2020-08-16T14:08:51Z</time>
      </trkpt>
      <trkpt lat="45.98608" lon="6.626">
        <ele>561.4</ele>
        <time>2020-08-16T14:08:52Z</time>
      </trkpt>
      <trkpt lat="45.9861" lon="6.626">
        <ele>561.4</ele>
        <time>2020-08-16T14:08:53Z</time>
      </trkpt>
      <trkpt lat="45.98611" lon="6.62601">
        <ele>561.6</ele>
        <time>2020-08-16T14:08:54Z</time>
      </trkpt>
      <trkpt lat="45.98613" lon="6.62601">
        <ele>561.6</ele>
        <time>2020-08-16T14:08:55Z</time>
      </trkpt>
      <trkpt lat="45.98614" lon="6.62601">
        <ele>561.8</ele>
        <time>2020-08-16T14:08:56Z</time>
      </trkpt>
      <trkpt lat="45.98615" lon="6.626">
        <ele>561.8</ele>
        <time>2020-08-16T14:08:57Z</time>
      </trkpt>
      <trkpt lat="45.98616" lon="6.626">
        <ele>561.8</ele>
        <time>2020-08-16T14:08:58Z</time>
      </trkpt>
      <trkpt lat="45.98616" lon="6.62601">
        <ele>561.8</ele>
        <time>2020-08-16T14:08:59Z</time>
      </trkpt>
      <trkpt lat="45.98616" lon="6.62601">
        <ele>561.8</ele>
        <time>2020-08-16T14:09:00Z</time>
      </trkpt>
      <trkpt lat="45.98617" lon="6.62601">
        <ele>561.8</ele>
        <time>2020-08-16T14:09:01Z</time>
      </trkpt>
      <trkpt lat="45.98617" lon="6.62601">
        <ele>561.8</ele>
        <time>2020-08-16T14:09:02Z</time>
      </trkpt>
      <trkpt lat="45.98617" lon="6.626">
        <ele>561.8</ele>
        <time>2020-08-16T14:09:03Z</time>
      </trkpt>
      <trkpt lat="45.98617" lon="6.626">
        <ele>561.8</ele>
        <time>2020-08-16T14:09:04Z</time>
      </trkpt>
      <trkpt lat="45.98635" lon="6.6261">
        <ele>563.2</ele>
        <time>2020-08-16T14:09:47Z</time>
      </trkpt>
      <trkpt lat="45.98637" lon="6.62611">
        <ele>563.2</ele>
        <time>2020-08-16T14:09:48Z</time>
      </trkpt>
      <trkpt lat="45.98638" lon="6.62611">
        <ele>563.2</ele>
        <time>2020-08-16T14:09:49Z</time>
      </trkpt>
      <trkpt lat="45.9864" lon="6.62611">
        <ele>563.4</ele>
        <time>2020-08-16T14:09:50Z</time>
      </trkpt>
      <trkpt lat="45.98642" lon="6.62612">
        <ele>563.4</ele>
        <time>2020-08-16T14:09:51Z</time>
      </trkpt>
      <trkpt lat="45.98645" lon="6.62613">
        <ele>563.4</ele>
        <time>2020-08-16T14:09:52Z</time>
      </trkpt>
      <trkpt lat="45.98647" lon="6.62613">
        <ele>563.6</ele>
        <time>2020-08-16T14:09:53Z</time>
      </trkpt>
      <trkpt lat="45.98649" lon="6.62614">
        <ele>563.6</ele>
        <time>2020-08-16T14:09:54Z</time>
      </trkpt>
      <trkpt lat="45.98651" lon="6.62615">
        <ele>563.6</ele>
        <time>2020-08-16T14:09:55Z</time>
      </trkpt>
      <trkpt lat="45.98653" lon="6.62615">
        <ele>563.8</ele>
        <time>2020-08-16T14:09:56Z</time>
      </trkpt>
      <trkpt lat="45.98654" lon="6.62615">
        <ele>563.8</ele>
        <time>2020-08-16T14:09:57Z</time>
      </trkpt>
      <trkpt lat="45.98656" lon="6.62615">
        <ele>564</ele>
        <time>2020-08-16T14:09:58Z</time>
      </trkpt>
      <trkpt lat="45.98658" lon="6.62617">
        <ele>564</ele>
        <time>2020-08-16T14:09:59Z</time>
      </trkpt>
      <trkpt lat="45.9866" lon="6.62617">
        <ele>564</ele>
        <time>2020-08-16T14:10:00Z</time>
      </trkpt>
      <trkpt lat="45.98662" lon="6.62618">
        <ele>564</ele>
        <time>2020-08-16T14:10:01Z</time>
      </trkpt>
      <trkpt lat="45.98663" lon="6.62619">
        <ele>564</ele>
        <time>2020-08-16T14:10:02Z</time>
      </trkpt>
      <trkpt lat="45.98664" lon="6.6262">
        <ele>564.2</ele>
        <time>2020-08-16T14:10:03Z</time>
      </trkpt>
      <trkpt lat="45.98665" lon="6.62622">
        <ele>564.2</ele>
        <time>2020-08-16T14:10:04Z</time>
      </trkpt>
      <trkpt lat="45.98667" lon="6.62622">
        <ele>564.4</ele>
        <time>2020-08-16T14:10:05Z</time>
      </trkpt>
      <trkpt lat="45.98668" lon="6.62623">
        <ele>564.4</ele>
        <time>2020-08-16T14:10:06Z</time>
      </trkpt>
      <trkpt lat="45.98671" lon="6.62623">
        <ele>564.4</ele>
        <time>2020-08-16T14:10:07Z</time>
      </trkpt>
      <trkpt lat="45.98673" lon="6.62624">
        <ele>564.6</ele>
        <time>2020-08-16T14:10:08Z</time>
      </trkpt>
      <trkpt lat="45.98674" lon="6.62625">
        <ele>564.6</ele>
        <time>2020-08-16T14:10:09Z</time>
      </trkpt>
      <trkpt lat="45.98675" lon="6.62626">
        <ele>564.8</ele>
        <time>2020-08-16T14:10:10Z</time>
      </trkpt>
      <trkpt lat="45.98677" lon="6.62627">
        <ele>564.8</ele>
        <time>2020-08-16T14:10:11Z</time>
      </trkpt>
      <trkpt lat="45.98679" lon="6.62627">
        <ele>565</ele>
        <time>2020-08-16T14:10:12Z</time>
      </trkpt>
      <trkpt lat="45.9868" lon="6.62627">
        <ele>565</ele>
        <time>2020-08-16T14:10:13Z</time>
      </trkpt>
      <trkpt lat="45.98682" lon="6.62627">
        <ele>565.2</ele>
        <time>2020-08-16T14:10:14Z</time>
      </trkpt>
      <trkpt lat="45.98684" lon="6.62629">
        <ele>565.2</ele>
        <time>2020-08-16T14:10:15Z</time>
      </trkpt>
      <trkpt lat="45.98686" lon="6.62629">
        <ele>565.2</ele>
        <time>2020-08-16T14:10:16Z</time>
      </trkpt>
      <trkpt lat="45.98688" lon="6.6263">
        <ele>565.4</ele>
        <time>2020-08-16T14:10:17Z</time>
      </trkpt>
      <trkpt lat="45.98689" lon="6.6263">
        <ele>565.4</ele>
        <time>2020-08-16T14:10:18Z</time>
      </trkpt>
      <trkpt lat="45.98689" lon="6.62632">
        <ele>565.4</ele>
        <time>2020-08-16T14:10:19Z</time>
      </trkpt>
      <trkpt lat="45.98692" lon="6.62633">
        <ele>565.6</ele>
        <time>2020-08-16T14:10:20Z</time>
      </trkpt>
      <trkpt lat="45.98693" lon="6.62633">
        <ele>565.6</ele>
        <time>2020-08-16T14:10:21Z</time>
      </trkpt>
      <trkpt lat="45.98696" lon="6.62633">
        <ele>565.8</ele>
        <time>2020-08-16T14:10:22Z</time>
      </trkpt>
      <trkpt lat="45.98698" lon="6.62632">
        <ele>565.8</ele>
        <time>2020-08-16T14:10:23Z</time>
      </trkpt>
      <trkpt lat="45.98699" lon="6.62632">
        <ele>566</ele>
        <time>2020-08-16T14:10:24Z</time>
      </trkpt>
      <trkpt lat="45.98699" lon="6.62632">
        <ele>566</ele>
        <time>2020-08-16T14:10:25Z</time>
      </trkpt>
      <trkpt lat="45.98701" lon="6.62632">
        <ele>566</ele>
        <time>2020-08-16T14:10:26Z</time>
      </trkpt>
      <trkpt lat="45.98703" lon="6.62632">
        <ele>566.2</ele>
        <time>2020-08-16T14:10:27Z</time>
      </trkpt>
      <trkpt lat="45.98705" lon="6.62631">
        <ele>566.2</ele>
        <time>2020-08-16T14:10:28Z</time>
      </trkpt>
      <trkpt lat="45.98706" lon="6.62631">
        <ele>566.4</ele>
        <time>2020-08-16T14:10:29Z</time>
      </trkpt>
      <trkpt lat="45.98707" lon="6.62631">
        <ele>566.4</ele>
        <time>2020-08-16T14:10:30Z</time>
      </trkpt>
      <trkpt lat="45.98708" lon="6.6263">
        <ele>566.4</ele>
        <time>2020-08-16T14:10:31Z</time>
      </trkpt>
      <trkpt lat="45.9871" lon="6.62629">
        <ele>566.6</ele>
        <time>2020-08-16T14:10:32Z</time>
      </trkpt>
      <trkpt lat="45.98712" lon="6.62629">
        <ele>566.6</ele>
        <time>2020-08-16T14:10:33Z</time>
      </trkpt>
      <trkpt lat="45.98714" lon="6.62629">
        <ele>566.6</ele>
        <time>2020-08-16T14:10:34Z</time>
      </trkpt>
      <trkpt lat="45.98716" lon="6.62629">
        <ele>566.8</ele>
        <time>2020-08-16T14:10:35Z</time>
      </trkpt>
      <trkpt lat="45.98717" lon="6.62631">
        <ele>566.8</ele>
        <time>2020-08-16T14:10:36Z</time>
      </trkpt>
      <trkpt lat="45.98718" lon="6.62631">
        <ele>566.8</ele>
        <time>2020-08-16T14:10:37Z</time>
      </trkpt>
      <trkpt lat="45.98718" lon="6.62631">
        <ele>567</ele>
        <time>2020-08-16T14:10:38Z</time>
      </trkpt>
      <trkpt lat="45.98719" lon="6.62631">
        <ele>567</ele>
        <time>2020-08-16T14:10:39Z</time>
      </trkpt>
      <trkpt lat="45.98721" lon="6.6263">
        <ele>567</ele>
        <time>2020-08-16T14:10:40Z</time>
      </trkpt>
      <trkpt lat="45.98722" lon="6.6263">
        <ele>567</ele>
        <time>2020-08-16T14:10:41Z</time>
      </trkpt>
      <trkpt lat="45.98724" lon="6.62631">
        <ele>567</ele>
        <time>2020-08-16T14:10:42Z</time>
      </trkpt>
      <trkpt lat="45.98726" lon="6.62631">
        <ele>567.2</ele>
        <time>2020-08-16T14:10:43Z</time>
      </trkpt>
      <trkpt lat="45.98727" lon="6.62632">
        <ele>567.2</ele>
        <time>2020-08-16T14:10:44Z</time>
      </trkpt>
      <trkpt lat="45.98729" lon="6.62633">
        <ele>567.2</ele>
        <time>2020-08-16T14:10:45Z</time>
      </trkpt>
      <trkpt lat="45.9873" lon="6.62633">
        <ele>567.4</ele>
        <time>2020-08-16T14:10:46Z</time>
      </trkpt>
      <trkpt lat="45.98732" lon="6.62634">
        <ele>567.4</ele>
        <time>2020-08-16T14:10:47Z</time>
      </trkpt>
      <trkpt lat="45.98732" lon="6.62635">
        <ele>567.4</ele>
        <time>2020-08-16T14:10:48Z</time>
      </trkpt>
      <trkpt lat="45.98733" lon="6.62636">
        <ele>567.4</ele>
        <time>2020-08-16T14:10:49Z</time>
      </trkpt>
      <trkpt lat="45.98735" lon="6.62636">
        <ele>567.6</ele>
        <time>2020-08-16T14:10:50Z</time>
      </trkpt>
      <trkpt lat="45.98738" lon="6.62637">
        <ele>567.6</ele>
        <time>2020-08-16T14:10:51Z</time>
      </trkpt>
      <trkpt lat="45.98739" lon="6.62637">
        <ele>567.8</ele>
        <time>2020-08-16T14:10:52Z</time>
      </trkpt>
      <trkpt lat="45.98742" lon="6.62638">
        <ele>567.8</ele>
        <time>2020-08-16T14:10:53Z</time>
      </trkpt>
      <trkpt lat="45.98744" lon="6.62637">
        <ele>568</ele>
        <time>2020-08-16T14:10:54Z</time>
      </trkpt>
      <trkpt lat="45.98745" lon="6.62637">
        <ele>568</ele>
        <time>2020-08-16T14:10:55Z</time>
      </trkpt>
      <trkpt lat="45.98747" lon="6.62637">
        <ele>568</ele>
        <time>2020-08-16T14:10:56Z</time>
      </trkpt>
      <trkpt lat="45.98748" lon="6.62637">
        <ele>568.2</ele>
        <time>2020-08-16T14:10:57Z</time>
      </trkpt>
      <trkpt lat="45.98749" lon="6.62637">
        <ele>568.4</ele>
        <time>2020-08-16T14:10:58Z</time>
      </trkpt>
      <trkpt lat="45.98751" lon="6.62637">
        <ele>568.4</ele>
        <time>2020-08-16T14:10:59Z</time>
      </trkpt>
      <trkpt lat="45.98752" lon="6.62636">
        <ele>568.6</ele>
        <time>2020-08-16T14:11:00Z</time>
      </trkpt>
      <trkpt lat="45.98754" lon="6.62635">
        <ele>568.6</ele>
        <time>2020-08-16T14:11:01Z</time>
      </trkpt>
      <trkpt lat="45.98756" lon="6.62634">
        <ele>568.6</ele>
        <time>2020-08-16T14:11:02Z</time>
      </trkpt>
      <trkpt lat="45.98757" lon="6.62634">
        <ele>568.6</ele>
        <time>2020-08-16T14:11:03Z</time>
      </trkpt>
      <trkpt lat="45.98759" lon="6.62634">
        <ele>568.6</ele>
        <time>2020-08-16T14:11:04Z</time>
      </trkpt>
      <trkpt lat="45.98759" lon="6.62633">
        <ele>568.6</ele>
        <time>2020-08-16T14:11:05Z</time>
      </trkpt>
      <trkpt lat="45.9876" lon="6.62632">
        <ele>568.6</ele>
        <time>2020-08-16T14:11:06Z</time>
      </trkpt>
      <trkpt lat="45.98762" lon="6.62631">
        <ele>568.6</ele>
        <time>2020-08-16T14:11:07Z</time>
      </trkpt>
      <trkpt lat="45.98763" lon="6.62632">
        <ele>568.6</ele>
        <time>2020-08-16T14:11:08Z</time>
      </trkpt>
      <trkpt lat="45.98763" lon="6.62633">
        <ele>568.6</ele>
        <time>2020-08-16T14:11:09Z</time>
      </trkpt>
      <trkpt lat="45.98764" lon="6.62633">
        <ele>568.6</ele>
        <time>2020-08-16T14:11:10Z</time>
      </trkpt>
      <trkpt lat="45.98765" lon="6.62632">
        <ele>568.6</ele>
        <time>2020-08-16T14:11:11Z</time>
      </trkpt>
      <trkpt lat="45.98766" lon="6.62631">
        <ele>568.6</ele>
        <time>2020-08-16T14:11:12Z</time>
      </trkpt>
      <trkpt lat="45.98794" lon="6.6263">
        <ele>569.8</ele>
        <time>2020-08-16T14:12:06Z</time>
      </trkpt>
      <trkpt lat="45.98795" lon="6.62629">
        <ele>569.8</ele>
        <time>2020-08-16T14:12:07Z</time>
      </trkpt>
      <trkpt lat="45.98797" lon="6.62629">
        <ele>569.8</ele>
        <time>2020-08-16T14:12:08Z</time>
      </trkpt>
      <trkpt lat="45.98798" lon="6.62628">
        <ele>569.8</ele>
        <time>2020-08-16T14:12:09Z</time>
      </trkpt>
      <trkpt lat="45.98799" lon="6.62629">
        <ele>570</ele>
        <time>2020-08-16T14:12:10Z</time>
      </trkpt>
      <trkpt lat="45.98801" lon="6.62628">
        <ele>570</ele>
        <time>2020-08-16T14:12:11Z</time>
      </trkpt>
      <trkpt lat="45.98802" lon="6.62626">
        <ele>570</ele>
        <time>2020-08-16T14:12:12Z</time>
      </trkpt>
      <trkpt lat="45.98802" lon="6.62628">
        <ele>570.2</ele>
        <time>2020-08-16T14:12:13Z</time>
      </trkpt>
      <trkpt lat="45.98802" lon="6.62628">
        <ele>570.2</ele>
        <time>2020-08-16T14:12:14Z</time>
      </trkpt>
      <trkpt lat="45.98804" lon="6.62628">
        <ele>570.4</ele>
        <time>2020-08-16T14:12:15Z</time>
      </trkpt>
      <trkpt lat="45.98804" lon="6.62628">
        <ele>570.6</ele>
        <time>2020-08-16T14:12:16Z</time>
      </trkpt>
      <trkpt lat="45.98805" lon="6.6263">
        <ele>570.6</ele>
        <time>2020-08-16T14:12:17Z</time>
      </trkpt>
      <trkpt lat="45.98806" lon="6.62633">
        <ele>570.6</ele>
        <time>2020-08-16T14:12:18Z</time>
      </trkpt>
      <trkpt lat="45.98807" lon="6.62634">
        <ele>570.6</ele>
        <time>2020-08-16T14:12:19Z</time>
      </trkpt>
      <trkpt lat="45.98811" lon="6.62631">
        <ele>570.6</ele>
        <time>2020-08-16T14:12:20Z</time>
      </trkpt>
      <trkpt lat="45.98812" lon="6.6263">
        <ele>570.8</ele>
        <time>2020-08-16T14:12:21Z</time>
      </trkpt>
      <trkpt lat="45.98813" lon="6.62631">
        <ele>570.8</ele>
        <time>2020-08-16T14:12:22Z</time>
      </trkpt>
      <trkpt lat="45.98815" lon="6.6263">
        <ele>570.8</ele>
        <time>2020-08-16T14:12:23Z</time>
      </trkpt>
      <trkpt lat="45.98815" lon="6.62629">
        <ele>571</ele>
        <time>2020-08-16T14:12:24Z</time>
      </trkpt>
      <trkpt lat="45.98816" lon="6.62629">
        <ele>571</ele>
        <time>2020-08-16T14:12:25Z</time>
      </trkpt>
      <trkpt lat="45.98816" lon="6.62629">
        <ele>571.2</ele>
        <time>2020-08-16T14:12:26Z</time>
      </trkpt>
      <trkpt lat="45.98816" lon="6.62629">
        <ele>571.2</ele>
        <time>2020-08-16T14:12:27Z</time>
      </trkpt>
      <trkpt lat="45.98818" lon="6.62628">
        <ele>571.2</ele>
        <time>2020-08-16T14:12:28Z</time>
      </trkpt>
      <trkpt lat="45.9882" lon="6.62627">
        <ele>571.2</ele>
        <time>2020-08-16T14:12:29Z</time>
      </trkpt>
      <trkpt lat="45.98821" lon="6.62629">
        <ele>571.4</ele>
        <time>2020-08-16T14:12:30Z</time>
      </trkpt>
      <trkpt lat="45.98823" lon="6.62629">
        <ele>571.4</ele>
        <time>2020-08-16T14:12:31Z</time>
      </trkpt>
      <trkpt lat="45.98825" lon="6.6263">
        <ele>571.4</ele>
        <time>2020-08-16T14:12:32Z</time>
      </trkpt>
      <trkpt lat="45.98827" lon="6.6263">
        <ele>571.6</ele>
        <time>2020-08-16T14:12:33Z</time>
      </trkpt>
      <trkpt lat="45.98828" lon="6.62632">
        <ele>571.6</ele>
        <time>2020-08-16T14:12:34Z</time>
      </trkpt>
      <trkpt lat="45.9883" lon="6.62634">
        <ele>571.6</ele>
        <time>2020-08-16T14:12:35Z</time>
      </trkpt>
      <trkpt lat="45.98831" lon="6.62634">
        <ele>571.8</ele>
        <time>2020-08-16T14:12:36Z</time>
      </trkpt>
      <trkpt lat="45.98833" lon="6.62633">
        <ele>571.8</ele>
        <time>2020-08-16T14:12:37Z</time>
      </trkpt>
      <trkpt lat="45.98835" lon="6.62634">
        <ele>572</ele>
        <time>2020-08-16T14:12:38Z</time>
      </trkpt>
      <trkpt lat="45.98836" lon="6.62634">
        <ele>572</ele>
        <time>2020-08-16T14:12:39Z</time>
      </trkpt>
      <trkpt lat="45.98838" lon="6.62634">
        <ele>572</ele>
        <time>2020-08-16T14:12:40Z</time>
      </trkpt>
      <trkpt lat="45.98839" lon="6.62634">
        <ele>572</ele>
        <time>2020-08-16T14:12:41Z</time>
      </trkpt>
      <trkpt lat="45.98841" lon="6.62635">
        <ele>572.2</ele>
        <time>2020-08-16T14:12:42Z</time>
      </trkpt>
      <trkpt lat="45.98843" lon="6.62636">
        <ele>572.2</ele>
        <time>2020-08-16T14:12:43Z</time>
      </trkpt>
      <trkpt lat="45.98843" lon="6.62637">
        <ele>572.2</ele>
        <time>2020-08-16T14:12:44Z</time>
      </trkpt>
      <trkpt lat="45.98844" lon="6.62638">
        <ele>572.4</ele>
        <time>2020-08-16T14:12:45Z</time>
      </trkpt>
      <trkpt lat="45.98845" lon="6.62637">
        <ele>572.4</ele>
        <time>2020-08-16T14:12:46Z</time>
      </trkpt>
      <trkpt lat="45.98846" lon="6.62637">
        <ele>572.4</ele>
        <time>2020-08-16T14:12:47Z</time>
      </trkpt>
      <trkpt lat="45.98847" lon="6.62636">
        <ele>572.6</ele>
        <time>2020-08-16T14:12:48Z</time>
      </trkpt>
      <trkpt lat="45.98848" lon="6.62635">
        <ele>572.6</ele>
        <time>2020-08-16T14:12:49Z</time>
      </trkpt>
      <trkpt lat="45.98849" lon="6.62637">
        <ele>572.8</ele>
        <time>2020-08-16T14:12:50Z</time>
      </trkpt>
      <trkpt lat="45.9885" lon="6.62636">
        <ele>572.8</ele>
        <time>2020-08-16T14:12:51Z</time>
      </trkpt>
      <trkpt lat="45.98851" lon="6.62637">
        <ele>572.8</ele>
        <time>2020-08-16T14:12:52Z</time>
      </trkpt>
      <trkpt lat="45.98853" lon="6.62637">
        <ele>572.8</ele>
        <time>2020-08-16T14:12:53Z</time>
      </trkpt>
      <trkpt lat="45.98855" lon="6.62639">
        <ele>572.8</ele>
        <time>2020-08-16T14:12:54Z</time>
      </trkpt>
      <trkpt lat="45.98856" lon="6.62639">
        <ele>572.8</ele>
        <time>2020-08-16T14:12:55Z</time>
      </trkpt>
      <trkpt lat="45.98859" lon="6.62639">
        <ele>573</ele>
        <time>2020-08-16T14:12:56Z</time>
      </trkpt>
      <trkpt lat="45.9886" lon="6.62639">
        <ele>573</ele>
        <time>2020-08-16T14:12:57Z</time>
      </trkpt>
      <trkpt lat="45.98861" lon="6.62639">
        <ele>573</ele>
        <time>2020-08-16T14:12:58Z</time>
      </trkpt>
      <trkpt lat="45.98863" lon="6.62639">
        <ele>573.2</ele>
        <time>2020-08-16T14:12:59Z</time>
      </trkpt>
      <trkpt lat="45.98863" lon="6.62639">
        <ele>573.2</ele>
        <time>2020-08-16T14:13:00Z</time>
      </trkpt>
      <trkpt lat="45.98865" lon="6.62638">
        <ele>573.4</ele>
        <time>2020-08-16T14:13:01Z</time>
      </trkpt>
      <trkpt lat="45.98867" lon="6.62638">
        <ele>573.4</ele>
        <time>2020-08-16T14:13:02Z</time>
      </trkpt>
      <trkpt lat="45.98868" lon="6.62638">
        <ele>573.4</ele>
        <time>2020-08-16T14:13:03Z</time>
      </trkpt>
      <trkpt lat="45.98869" lon="6.62637">
        <ele>573.6</ele>
        <time>2020-08-16T14:13:04Z</time>
      </trkpt>
      <trkpt lat="45.9887" lon="6.62636">
        <ele>573.6</ele>
        <time>2020-08-16T14:13:05Z</time>
      </trkpt>
      <trkpt lat="45.98872" lon="6.62634">
        <ele>573.6</ele>
        <time>2020-08-16T14:13:06Z</time>
      </trkpt>
      <trkpt lat="45.98874" lon="6.62633">
        <ele>573.6</ele>
        <time>2020-08-16T14:13:07Z</time>
      </trkpt>
      <trkpt lat="45.98876" lon="6.62632">
        <ele>573.8</ele>
        <time>2020-08-16T14:13:08Z</time>
      </trkpt>
      <trkpt lat="45.98877" lon="6.62632">
        <ele>573.8</ele>
        <time>2020-08-16T14:13:09Z</time>
      </trkpt>
      <trkpt lat="45.98879" lon="6.62632">
        <ele>573.8</ele>
        <time>2020-08-16T14:13:10Z</time>
      </trkpt>
      <trkpt lat="45.9888" lon="6.62632">
        <ele>574</ele>
        <time>2020-08-16T14:13:11Z</time>
      </trkpt>
      <trkpt lat="45.98881" lon="6.62631">
        <ele>574</ele>
        <time>2020-08-16T14:13:12Z</time>
      </trkpt>
      <trkpt lat="45.98883" lon="6.62631">
        <ele>574</ele>
        <time>2020-08-16T14:13:13Z</time>
      </trkpt>
      <trkpt lat="45.98884" lon="6.62631">
        <ele>574.2</ele>
        <time>2020-08-16T14:13:14Z</time>
      </trkpt>
      <trkpt lat="45.98885" lon="6.6263">
        <ele>574.2</ele>
        <time>2020-08-16T14:13:15Z</time>
      </trkpt>
      <trkpt lat="45.98887" lon="6.6263">
        <ele>574.2</ele>
        <time>2020-08-16T14:13:16Z</time>
      </trkpt>
      <trkpt lat="45.98888" lon="6.62628">
        <ele>574.2</ele>
        <time>2020-08-16T14:13:17Z</time>
      </trkpt>
      <trkpt lat="45.9889" lon="6.62627">
        <ele>574.4</ele>
        <time>2020-08-16T14:13:18Z</time>
      </trkpt>
      <trkpt lat="45.98892" lon="6.62626">
        <ele>574.4</ele>
        <time>2020-08-16T14:13:19Z</time>
      </trkpt>
      <trkpt lat="45.98894" lon="6.62625">
        <ele>574.4</ele>
        <time>2020-08-16T14:13:20Z</time>
      </trkpt>
      <trkpt lat="45.98895" lon="6.62625">
        <ele>574.6</ele>
        <time>2020-08-16T14:13:21Z</time>
      </trkpt>
      <trkpt lat="45.98896" lon="6.62625">
        <ele>574.6</ele>
        <time>2020-08-16T14:13:22Z</time>
      </trkpt>
      <trkpt lat="45.98897" lon="6.62625">
        <ele>574.6</ele>
        <time>2020-08-16T14:13:23Z</time>
      </trkpt>
      <trkpt lat="45.98898" lon="6.62625">
        <ele>574.8</ele>
        <time>2020-08-16T14:13:24Z</time>
      </trkpt>
      <trkpt lat="45.98899" lon="6.62625">
        <ele>574.8</ele>
        <time>2020-08-16T14:13:25Z</time>
      </trkpt>
      <trkpt lat="45.98901" lon="6.62624">
        <ele>574.8</ele>
        <time>2020-08-16T14:13:26Z</time>
      </trkpt>
      <trkpt lat="45.98903" lon="6.62624">
        <ele>574.8</ele>
        <time>2020-08-16T14:13:27Z</time>
      </trkpt>
      <trkpt lat="45.98906" lon="6.62624">
        <ele>574.8</ele>
        <time>2020-08-16T14:13:28Z</time>
      </trkpt>
      <trkpt lat="45.98907" lon="6.62623">
        <ele>575</ele>
        <time>2020-08-16T14:13:29Z</time>
      </trkpt>
      <trkpt lat="45.98909" lon="6.62623">
        <ele>575</ele>
        <time>2020-08-16T14:13:30Z</time>
      </trkpt>
      <trkpt lat="45.9891" lon="6.62623">
        <ele>575</ele>
        <time>2020-08-16T14:13:31Z</time>
      </trkpt>
      <trkpt lat="45.98911" lon="6.62622">
        <ele>575.2</ele>
        <time>2020-08-16T14:13:32Z</time>
      </trkpt>
      <trkpt lat="45.98912" lon="6.6262">
        <ele>575</ele>
        <time>2020-08-16T14:13:33Z</time>
      </trkpt>
      <trkpt lat="45.98913" lon="6.62619">
        <ele>575.2</ele>
        <time>2020-08-16T14:13:34Z</time>
      </trkpt>
      <trkpt lat="45.98914" lon="6.62618">
        <ele>575.2</ele>
        <time>2020-08-16T14:13:35Z</time>
      </trkpt>
      <trkpt lat="45.98915" lon="6.62618">
        <ele>575.2</ele>
        <time>2020-08-16T14:13:36Z</time>
      </trkpt>
      <trkpt lat="45.98917" lon="6.62618">
        <ele>575.2</ele>
        <time>2020-08-16T14:13:37Z</time>
      </trkpt>
      <trkpt lat="45.98918" lon="6.62619">
        <ele>575.2</ele>
        <time>2020-08-16T14:13:38Z</time>
      </trkpt>
      <trkpt lat="45.9892" lon="6.62619">
        <ele>575.2</ele>
        <time>2020-08-16T14:13:39Z</time>
      </trkpt>
      <trkpt lat="45.98922" lon="6.62619">
        <ele>575.4</ele>
        <time>2020-08-16T14:13:40Z</time>
      </trkpt>
      <trkpt lat="45.98924" lon="6.62618">
        <ele>575.4</ele>
        <time>2020-08-16T14:13:41Z</time>
      </trkpt>
      <trkpt lat="45.98925" lon="6.62617">
        <ele>575.4</ele>
        <time>2020-08-16T14:13:42Z</time>
      </trkpt>
      <trkpt lat="45.98927" lon="6.62616">
        <ele>575.4</ele>
        <time>2020-08-16T14:13:43Z</time>
      </trkpt>
      <trkpt lat="45.98927" lon="6.62616">
        <ele>575.6</ele>
        <time>2020-08-16T14:13:44Z</time>
      </trkpt>
      <trkpt lat="45.98929" lon="6.62614">
        <ele>575.4</ele>
        <time>2020-08-16T14:13:45Z</time>
      </trkpt>
      <trkpt lat="45.9893" lon="6.62613">
        <ele>575.4</ele>
        <time>2020-08-16T14:13:46Z</time>
      </trkpt>
      <trkpt lat="45.98932" lon="6.62611">
        <ele>575.6</ele>
        <time>2020-08-16T14:13:47Z</time>
      </trkpt>
      <trkpt lat="45.98933" lon="6.62611">
        <ele>575.8</ele>
        <time>2020-08-16T14:13:48Z</time>
      </trkpt>
      <trkpt lat="45.98935" lon="6.62611">
        <ele>575.8</ele>
        <time>2020-08-16T14:13:49Z</time>
      </trkpt>
      <trkpt lat="45.98936" lon="6.62608">
        <ele>575.6</ele>
        <time>2020-08-16T14:13:50Z</time>
      </trkpt>
      <trkpt lat="45.98938" lon="6.62607">
        <ele>575.6</ele>
        <time>2020-08-16T14:13:51Z</time>
      </trkpt>
      <trkpt lat="45.98939" lon="6.62604">
        <ele>575.8</ele>
        <time>2020-08-16T14:13:52Z</time>
      </trkpt>
      <trkpt lat="45.9894" lon="6.62603">
        <ele>575.6</ele>
        <time>2020-08-16T14:13:53Z</time>
      </trkpt>
      <trkpt lat="45.9894" lon="6.62601">
        <ele>575.8</ele>
        <time>2020-08-16T14:13:54Z</time>
      </trkpt>
      <trkpt lat="45.98941" lon="6.62599">
        <ele>575.8</ele>
        <time>2020-08-16T14:13:55Z</time>
      </trkpt>
      <trkpt lat="45.98943" lon="6.62597">
        <ele>575.8</ele>
        <time>2020-08-16T14:13:56Z</time>
      </trkpt>
      <trkpt lat="45.98944" lon="6.62595">
        <ele>575.8</ele>
        <time>2020-08-16T14:13:57Z</time>
      </trkpt>
      <trkpt lat="45.98945" lon="6.62593">
        <ele>575.8</ele>
        <time>2020-08-16T14:13:58Z</time>
      </trkpt>
      <trkpt lat="45.98947" lon="6.62591">
        <ele>575.8</ele>
        <time>2020-08-16T14:13:59Z</time>
      </trkpt>
      <trkpt lat="45.98948" lon="6.62589">
        <ele>575.8</ele>
        <time>2020-08-16T14:14:00Z</time>
      </trkpt>
      <trkpt lat="45.98949" lon="6.62586">
        <ele>575.8</ele>
        <time>2020-08-16T14:14:01Z</time>
      </trkpt>
      <trkpt lat="45.9895" lon="6.62584">
        <ele>576</ele>
        <time>2020-08-16T14:14:02Z</time>
      </trkpt>
      <trkpt lat="45.9895" lon="6.62581">
        <ele>576</ele>
        <time>2020-08-16T14:14:03Z</time>
      </trkpt>
      <trkpt lat="45.9895" lon="6.62579">
        <ele>576.2</ele>
        <time>2020-08-16T14:14:04Z</time>
      </trkpt>
      <trkpt lat="45.9895" lon="6.62577">
        <ele>576.4</ele>
        <time>2020-08-16T14:14:05Z</time>
      </trkpt>
      <trkpt lat="45.98949" lon="6.62574">
        <ele>576.4</ele>
        <time>2020-08-16T14:14:06Z</time>
      </trkpt>
      <trkpt lat="45.98949" lon="6.62572">
        <ele>576.4</ele>
        <time>2020-08-16T14:14:07Z</time>
      </trkpt>
      <trkpt lat="45.9895" lon="6.62569">
        <ele>576.6</ele>
        <time>2020-08-16T14:14:08Z</time>
      </trkpt>
      <trkpt lat="45.9895" lon="6.62566">
        <ele>576.6</ele>
        <time>2020-08-16T14:14:09Z</time>
      </trkpt>
      <trkpt lat="45.98951" lon="6.62564">
        <ele>576.8</ele>
        <time>2020-08-16T14:14:10Z</time>
      </trkpt>
      <trkpt lat="45.9895" lon="6.62564">
        <ele>576.8</ele>
        <time>2020-08-16T14:14:11Z</time>
      </trkpt>
      <trkpt lat="45.98949" lon="6.62561">
        <ele>576.8</ele>
        <time>2020-08-16T14:14:12Z</time>
      </trkpt>
      <trkpt lat="45.98949" lon="6.62559">
        <ele>576.8</ele>
        <time>2020-08-16T14:14:13Z</time>
      </trkpt>
      <trkpt lat="45.98949" lon="6.62556">
        <ele>577</ele>
        <time>2020-08-16T14:14:14Z</time>
      </trkpt>
      <trkpt lat="45.98949" lon="6.62554">
        <ele>577</ele>
        <time>2020-08-16T14:14:15Z</time>
      </trkpt>
      <trkpt lat="45.98949" lon="6.62552">
        <ele>577</ele>
        <time>2020-08-16T14:14:16Z</time>
      </trkpt>
      <trkpt lat="45.98948" lon="6.62549">
        <ele>577</ele>
        <time>2020-08-16T14:14:17Z</time>
      </trkpt>
      <trkpt lat="45.98947" lon="6.62547">
        <ele>577.2</ele>
        <time>2020-08-16T14:14:18Z</time>
      </trkpt>
      <trkpt lat="45.98948" lon="6.62545">
        <ele>577.2</ele>
        <time>2020-08-16T14:14:19Z</time>
      </trkpt>
      <trkpt lat="45.98946" lon="6.62543">
        <ele>577.4</ele>
        <time>2020-08-16T14:14:20Z</time>
      </trkpt>
      <trkpt lat="45.98947" lon="6.62541">
        <ele>577.4</ele>
        <time>2020-08-16T14:14:21Z</time>
      </trkpt>
      <trkpt lat="45.98946" lon="6.62538">
        <ele>577.4</ele>
        <time>2020-08-16T14:14:22Z</time>
      </trkpt>
      <trkpt lat="45.98947" lon="6.62536">
        <ele>577.6</ele>
        <time>2020-08-16T14:14:23Z</time>
      </trkpt>
      <trkpt lat="45.98947" lon="6.62534">
        <ele>577.6</ele>
        <time>2020-08-16T14:14:24Z</time>
      </trkpt>
      <trkpt lat="45.98946" lon="6.62531">
        <ele>577.6</ele>
        <time>2020-08-16T14:14:25Z</time>
      </trkpt>
      <trkpt lat="45.98946" lon="6.62528">
        <ele>577.6</ele>
        <time>2020-08-16T14:14:26Z</time>
      </trkpt>
      <trkpt lat="45.98947" lon="6.62524">
        <ele>577.8</ele>
        <time>2020-08-16T14:14:27Z</time>
      </trkpt>
      <trkpt lat="45.98948" lon="6.62522">
        <ele>577.8</ele>
        <time>2020-08-16T14:14:28Z</time>
      </trkpt>
      <trkpt lat="45.98948" lon="6.6252">
        <ele>577.8</ele>
        <time>2020-08-16T14:14:29Z</time>
      </trkpt>
      <trkpt lat="45.9895" lon="6.62518">
        <ele>578</ele>
        <time>2020-08-16T14:14:30Z</time>
      </trkpt>
      <trkpt lat="45.9895" lon="6.62515">
        <ele>578</ele>
        <time>2020-08-16T14:14:31Z</time>
      </trkpt>
      <trkpt lat="45.98949" lon="6.62511">
        <ele>578</ele>
        <time>2020-08-16T14:14:32Z</time>
      </trkpt>
      <trkpt lat="45.9895" lon="6.62508">
        <ele>578.2</ele>
        <time>2020-08-16T14:14:33Z</time>
      </trkpt>
      <trkpt lat="45.9895" lon="6.62506">
        <ele>578.2</ele>
        <time>2020-08-16T14:14:34Z</time>
      </trkpt>
      <trkpt lat="45.98951" lon="6.62503">
        <ele>578.2</ele>
        <time>2020-08-16T14:14:35Z</time>
      </trkpt>
      <trkpt lat="45.98952" lon="6.625">
        <ele>578.4</ele>
        <time>2020-08-16T14:14:36Z</time>
      </trkpt>
      <trkpt lat="45.98953" lon="6.62498">
        <ele>578.4</ele>
        <time>2020-08-16T14:14:37Z</time>
      </trkpt>
      <trkpt lat="45.98954" lon="6.62496">
        <ele>578.6</ele>
        <time>2020-08-16T14:14:38Z</time>
      </trkpt>
      <trkpt lat="45.98955" lon="6.62494">
        <ele>578.6</ele>
        <time>2020-08-16T14:14:39Z</time>
      </trkpt>
      <trkpt lat="45.98956" lon="6.62491">
        <ele>578.6</ele>
        <time>2020-08-16T14:14:40Z</time>
      </trkpt>
      <trkpt lat="45.98957" lon="6.62489">
        <ele>578.8</ele>
        <time>2020-08-16T14:14:41Z</time>
      </trkpt>
      <trkpt lat="45.98959" lon="6.62486">
        <ele>578.8</ele>
        <time>2020-08-16T14:14:42Z</time>
      </trkpt>
      <trkpt lat="45.98961" lon="6.62484">
        <ele>579</ele>
        <time>2020-08-16T14:14:43Z</time>
      </trkpt>
      <trkpt lat="45.98961" lon="6.62481">
        <ele>579.2</ele>
        <time>2020-08-16T14:14:44Z</time>
      </trkpt>
      <trkpt lat="45.98963" lon="6.62479">
        <ele>579.4</ele>
        <time>2020-08-16T14:14:45Z</time>
      </trkpt>
      <trkpt lat="45.98964" lon="6.62477">
        <ele>579.4</ele>
        <time>2020-08-16T14:14:46Z</time>
      </trkpt>
      <trkpt lat="45.98966" lon="6.62476">
        <ele>579.6</ele>
        <time>2020-08-16T14:14:47Z</time>
      </trkpt>
      <trkpt lat="45.98968" lon="6.62474">
        <ele>579.6</ele>
        <time>2020-08-16T14:14:48Z</time>
      </trkpt>
      <trkpt lat="45.98969" lon="6.62471">
        <ele>579.8</ele>
        <time>2020-08-16T14:14:49Z</time>
      </trkpt>
      <trkpt lat="45.98971" lon="6.62469">
        <ele>579.8</ele>
        <time>2020-08-16T14:14:50Z</time>
      </trkpt>
      <trkpt lat="45.98972" lon="6.62467">
        <ele>579.8</ele>
        <time>2020-08-16T14:14:51Z</time>
      </trkpt>
      <trkpt lat="45.98974" lon="6.62465">
        <ele>580</ele>
        <time>2020-08-16T14:14:52Z</time>
      </trkpt>
      <trkpt lat="45.98975" lon="6.62462">
        <ele>580</ele>
        <time>2020-08-16T14:14:53Z</time>
      </trkpt>
      <trkpt lat="45.98977" lon="6.6246">
        <ele>580.2</ele>
        <time>2020-08-16T14:14:54Z</time>
      </trkpt>
      <trkpt lat="45.98979" lon="6.62458">
        <ele>580.2</ele>
        <time>2020-08-16T14:14:55Z</time>
      </trkpt>
      <trkpt lat="45.9898" lon="6.62456">
        <ele>580.4</ele>
        <time>2020-08-16T14:14:56Z</time>
      </trkpt>
      <trkpt lat="45.98982" lon="6.62455">
        <ele>580.4</ele>
        <time>2020-08-16T14:14:57Z</time>
      </trkpt>
      <trkpt lat="45.98984" lon="6.62453">
        <ele>580.6</ele>
        <time>2020-08-16T14:14:58Z</time>
      </trkpt>
      <trkpt lat="45.98985" lon="6.62451">
        <ele>580.6</ele>
        <time>2020-08-16T14:14:59Z</time>
      </trkpt>
      <trkpt lat="45.98987" lon="6.62449">
        <ele>580.6</ele>
        <time>2020-08-16T14:15:00Z</time>
      </trkpt>
      <trkpt lat="45.98988" lon="6.62447">
        <ele>580.8</ele>
        <time>2020-08-16T14:15:01Z</time>
      </trkpt>
      <trkpt lat="45.98989" lon="6.62446">
        <ele>580.8</ele>
        <time>2020-08-16T14:15:02Z</time>
      </trkpt>
      <trkpt lat="45.98991" lon="6.62444">
        <ele>581</ele>
        <time>2020-08-16T14:15:03Z</time>
      </trkpt>
      <trkpt lat="45.98993" lon="6.62442">
        <ele>581</ele>
        <time>2020-08-16T14:15:04Z</time>
      </trkpt>
      <trkpt lat="45.98995" lon="6.6244">
        <ele>581</ele>
        <time>2020-08-16T14:15:05Z</time>
      </trkpt>
      <trkpt lat="45.98997" lon="6.62438">
        <ele>581.2</ele>
        <time>2020-08-16T14:15:06Z</time>
      </trkpt>
      <trkpt lat="45.98999" lon="6.62436">
        <ele>581.2</ele>
        <time>2020-08-16T14:15:07Z</time>
      </trkpt>
      <trkpt lat="45.99001" lon="6.62434">
        <ele>581.4</ele>
        <time>2020-08-16T14:15:08Z</time>
      </trkpt>
      <trkpt lat="45.99004" lon="6.62432">
        <ele>581.4</ele>
        <time>2020-08-16T14:15:09Z</time>
      </trkpt>
      <trkpt lat="45.99006" lon="6.62431">
        <ele>581.4</ele>
        <time>2020-08-16T14:15:10Z</time>
      </trkpt>
      <trkpt lat="45.99007" lon="6.62429">
        <ele>581.4</ele>
        <time>2020-08-16T14:15:11Z</time>
      </trkpt>
      <trkpt lat="45.99009" lon="6.62427">
        <ele>581.6</ele>
        <time>2020-08-16T14:15:12Z</time>
      </trkpt>
      <trkpt lat="45.9901" lon="6.62426">
        <ele>581.6</ele>
        <time>2020-08-16T14:15:13Z</time>
      </trkpt>
      <trkpt lat="45.99012" lon="6.62425">
        <ele>581.8</ele>
        <time>2020-08-16T14:15:14Z</time>
      </trkpt>
      <trkpt lat="45.99013" lon="6.62423">
        <ele>581.8</ele>
        <time>2020-08-16T14:15:15Z</time>
      </trkpt>
      <trkpt lat="45.99015" lon="6.62422">
        <ele>581.8</ele>
        <time>2020-08-16T14:15:16Z</time>
      </trkpt>
      <trkpt lat="45.99017" lon="6.62421">
        <ele>582</ele>
        <time>2020-08-16T14:15:17Z</time>
      </trkpt>
      <trkpt lat="45.99019" lon="6.6242">
        <ele>582</ele>
        <time>2020-08-16T14:15:18Z</time>
      </trkpt>
      <trkpt lat="45.99021" lon="6.62417">
        <ele>582.2</ele>
        <time>2020-08-16T14:15:19Z</time>
      </trkpt>
      <trkpt lat="45.99023" lon="6.62416">
        <ele>582.2</ele>
        <time>2020-08-16T14:15:20Z</time>
      </trkpt>
      <trkpt lat="45.99024" lon="6.62416">
        <ele>582.4</ele>
        <time>2020-08-16T14:15:21Z</time>
      </trkpt>
      <trkpt lat="45.99026" lon="6.62415">
        <ele>582.4</ele>
        <time>2020-08-16T14:15:22Z</time>
      </trkpt>
      <trkpt lat="45.99028" lon="6.62414">
        <ele>582.6</ele>
        <time>2020-08-16T14:15:23Z</time>
      </trkpt>
      <trkpt lat="45.9903" lon="6.62413">
        <ele>582.8</ele>
        <time>2020-08-16T14:15:24Z</time>
      </trkpt>
      <trkpt lat="45.99031" lon="6.62412">
        <ele>582.8</ele>
        <time>2020-08-16T14:15:25Z</time>
      </trkpt>
      <trkpt lat="45.99033" lon="6.62411">
        <ele>582.8</ele>
        <time>2020-08-16T14:15:26Z</time>
      </trkpt>
      <trkpt lat="45.99034" lon="6.6241">
        <ele>583</ele>
        <time>2020-08-16T14:15:27Z</time>
      </trkpt>
      <trkpt lat="45.99036" lon="6.62409">
        <ele>583.2</ele>
        <time>2020-08-16T14:15:28Z</time>
      </trkpt>
      <trkpt lat="45.99038" lon="6.62407">
        <ele>583.2</ele>
        <time>2020-08-16T14:15:29Z</time>
      </trkpt>
      <trkpt lat="45.9904" lon="6.62404">
        <ele>583.2</ele>
        <time>2020-08-16T14:15:30Z</time>
      </trkpt>
      <trkpt lat="45.99041" lon="6.62402">
        <ele>583.4</ele>
        <time>2020-08-16T14:15:31Z</time>
      </trkpt>
      <trkpt lat="45.99042" lon="6.624">
        <ele>583.6</ele>
        <time>2020-08-16T14:15:32Z</time>
      </trkpt>
      <trkpt lat="45.99043" lon="6.62398">
        <ele>583.6</ele>
        <time>2020-08-16T14:15:33Z</time>
      </trkpt>
      <trkpt lat="45.99045" lon="6.62396">
        <ele>583.8</ele>
        <time>2020-08-16T14:15:34Z</time>
      </trkpt>
      <trkpt lat="45.99047" lon="6.62394">
        <ele>583.8</ele>
        <time>2020-08-16T14:15:35Z</time>
      </trkpt>
      <trkpt lat="45.99048" lon="6.62393">
        <ele>584</ele>
        <time>2020-08-16T14:15:36Z</time>
      </trkpt>
      <trkpt lat="45.9905" lon="6.62392">
        <ele>584</ele>
        <time>2020-08-16T14:15:37Z</time>
      </trkpt>
      <trkpt lat="45.99052" lon="6.62391">
        <ele>584.2</ele>
        <time>2020-08-16T14:15:38Z</time>
      </trkpt>
      <trkpt lat="45.99054" lon="6.62391">
        <ele>584.2</ele>
        <time>2020-08-16T14:15:39Z</time>
      </trkpt>
      <trkpt lat="45.99057" lon="6.6239">
        <ele>584.4</ele>
        <time>2020-08-16T14:15:40Z</time>
      </trkpt>
      <trkpt lat="45.99059" lon="6.62389">
        <ele>584.4</ele>
        <time>2020-08-16T14:15:41Z</time>
      </trkpt>
      <trkpt lat="45.99061" lon="6.62389">
        <ele>584.6</ele>
        <time>2020-08-16T14:15:42Z</time>
      </trkpt>
      <trkpt lat="45.99063" lon="6.62389">
        <ele>584.6</ele>
        <time>2020-08-16T14:15:43Z</time>
      </trkpt>
      <trkpt lat="45.99066" lon="6.62389">
        <ele>584.8</ele>
        <time>2020-08-16T14:15:44Z</time>
      </trkpt>
      <trkpt lat="45.99068" lon="6.6239">
        <ele>585</ele>
        <time>2020-08-16T14:15:45Z</time>
      </trkpt>
      <trkpt lat="45.9907" lon="6.62391">
        <ele>585</ele>
        <time>2020-08-16T14:15:46Z</time>
      </trkpt>
      <trkpt lat="45.99072" lon="6.62392">
        <ele>585</ele>
        <time>2020-08-16T14:15:47Z</time>
      </trkpt>
      <trkpt lat="45.99074" lon="6.62392">
        <ele>585.2</ele>
        <time>2020-08-16T14:15:48Z</time>
      </trkpt>
      <trkpt lat="45.99076" lon="6.62393">
        <ele>585.2</ele>
        <time>2020-08-16T14:15:49Z</time>
      </trkpt>
      <trkpt lat="45.99078" lon="6.62394">
        <ele>585.2</ele>
        <time>2020-08-16T14:15:50Z</time>
      </trkpt>
      <trkpt lat="45.9908" lon="6.62394">
        <ele>585.4</ele>
        <time>2020-08-16T14:15:51Z</time>
      </trkpt>
      <trkpt lat="45.99082" lon="6.62395">
        <ele>585.6</ele>
        <time>2020-08-16T14:15:52Z</time>
      </trkpt>
      <trkpt lat="45.99084" lon="6.62395">
        <ele>585.6</ele>
        <time>2020-08-16T14:15:53Z</time>
      </trkpt>
      <trkpt lat="45.99086" lon="6.62395">
        <ele>585.8</ele>
        <time>2020-08-16T14:15:54Z</time>
      </trkpt>
      <trkpt lat="45.99088" lon="6.62394">
        <ele>586</ele>
        <time>2020-08-16T14:15:55Z</time>
      </trkpt>
      <trkpt lat="45.9909" lon="6.62394">
        <ele>586.2</ele>
        <time>2020-08-16T14:15:56Z</time>
      </trkpt>
      <trkpt lat="45.99092" lon="6.62395">
        <ele>586.2</ele>
        <time>2020-08-16T14:15:57Z</time>
      </trkpt>
      <trkpt lat="45.99093" lon="6.62394">
        <ele>586.4</ele>
        <time>2020-08-16T14:15:58Z</time>
      </trkpt>
      <trkpt lat="45.99095" lon="6.62394">
        <ele>586.6</ele>
        <time>2020-08-16T14:15:59Z</time>
      </trkpt>
      <trkpt lat="45.99097" lon="6.62394">
        <ele>586.8</ele>
        <time>2020-08-16T14:16:00Z</time>
      </trkpt>
      <trkpt lat="45.99099" lon="6.62393">
        <ele>587.2</ele>
        <time>2020-08-16T14:16:01Z</time>
      </trkpt>
      <trkpt lat="45.99102" lon="6.62392">
        <ele>587.4</ele>
        <time>2020-08-16T14:16:02Z</time>
      </trkpt>
      <trkpt lat="45.99105" lon="6.6239">
        <ele>587.6</ele>
        <time>2020-08-16T14:16:03Z</time>
      </trkpt>
      <trkpt lat="45.99107" lon="6.62389">
        <ele>587.6</ele>
        <time>2020-08-16T14:16:04Z</time>
      </trkpt>
      <trkpt lat="45.9911" lon="6.62387">
        <ele>587.8</ele>
        <time>2020-08-16T14:16:05Z</time>
      </trkpt>
      <trkpt lat="45.99112" lon="6.62386">
        <ele>588</ele>
        <time>2020-08-16T14:16:06Z</time>
      </trkpt>
      <trkpt lat="45.99114" lon="6.62384">
        <ele>588.2</ele>
        <time>2020-08-16T14:16:07Z</time>
      </trkpt>
      <trkpt lat="45.99116" lon="6.62383">
        <ele>588.4</ele>
        <time>2020-08-16T14:16:08Z</time>
      </trkpt>
      <trkpt lat="45.99118" lon="6.62382">
        <ele>588.6</ele>
        <time>2020-08-16T14:16:09Z</time>
      </trkpt>
      <trkpt lat="45.9912" lon="6.62381">
        <ele>588.8</ele>
        <time>2020-08-16T14:16:10Z</time>
      </trkpt>
      <trkpt lat="45.99122" lon="6.6238">
        <ele>588.8</ele>
        <time>2020-08-16T14:16:11Z</time>
      </trkpt>
      <trkpt lat="45.99123" lon="6.62378">
        <ele>589</ele>
        <time>2020-08-16T14:16:12Z</time>
      </trkpt>
      <trkpt lat="45.99125" lon="6.62377">
        <ele>589.2</ele>
        <time>2020-08-16T14:16:13Z</time>
      </trkpt>
      <trkpt lat="45.99127" lon="6.62375">
        <ele>589.2</ele>
        <time>2020-08-16T14:16:14Z</time>
      </trkpt>
      <trkpt lat="45.99128" lon="6.62373">
        <ele>589.4</ele>
        <time>2020-08-16T14:16:15Z</time>
      </trkpt>
      <trkpt lat="45.9913" lon="6.62372">
        <ele>589.6</ele>
        <time>2020-08-16T14:16:16Z</time>
      </trkpt>
      <trkpt lat="45.99131" lon="6.6237">
        <ele>589.8</ele>
        <time>2020-08-16T14:16:17Z</time>
      </trkpt>
      <trkpt lat="45.99133" lon="6.62369">
        <ele>589.8</ele>
        <time>2020-08-16T14:16:18Z</time>
      </trkpt>
      <trkpt lat="45.99135" lon="6.62368">
        <ele>590</ele>
        <time>2020-08-16T14:16:19Z</time>
      </trkpt>
      <trkpt lat="45.99137" lon="6.62366">
        <ele>590.2</ele>
        <time>2020-08-16T14:16:20Z</time>
      </trkpt>
      <trkpt lat="45.99138" lon="6.62365">
        <ele>590.4</ele>
        <time>2020-08-16T14:16:21Z</time>
      </trkpt>
      <trkpt lat="45.9914" lon="6.62364">
        <ele>590.4</ele>
        <time>2020-08-16T14:16:22Z</time>
      </trkpt>
      <trkpt lat="45.99141" lon="6.62362">
        <ele>590.6</ele>
        <time>2020-08-16T14:16:23Z</time>
      </trkpt>
      <trkpt lat="45.99143" lon="6.62361">
        <ele>590.8</ele>
        <time>2020-08-16T14:16:24Z</time>
      </trkpt>
      <trkpt lat="45.99144" lon="6.62359">
        <ele>591</ele>
        <time>2020-08-16T14:16:25Z</time>
      </trkpt>
      <trkpt lat="45.99146" lon="6.62358">
        <ele>591</ele>
        <time>2020-08-16T14:16:26Z</time>
      </trkpt>
      <trkpt lat="45.99147" lon="6.62357">
        <ele>591</ele>
        <time>2020-08-16T14:16:27Z</time>
      </trkpt>
      <trkpt lat="45.99149" lon="6.62355">
        <ele>591.2</ele>
        <time>2020-08-16T14:16:28Z</time>
      </trkpt>
      <trkpt lat="45.99151" lon="6.62353">
        <ele>591.2</ele>
        <time>2020-08-16T14:16:29Z</time>
      </trkpt>
      <trkpt lat="45.99152" lon="6.62352">
        <ele>591.4</ele>
        <time>2020-08-16T14:16:30Z</time>
      </trkpt>
      <trkpt lat="45.99154" lon="6.6235">
        <ele>591.4</ele>
        <time>2020-08-16T14:16:31Z</time>
      </trkpt>
      <trkpt lat="45.99155" lon="6.62349">
        <ele>591.2</ele>
        <time>2020-08-16T14:16:32Z</time>
      </trkpt>
      <trkpt lat="45.99156" lon="6.62348">
        <ele>591.2</ele>
        <time>2020-08-16T14:16:33Z</time>
      </trkpt>
      <trkpt lat="45.99158" lon="6.62347">
        <ele>591.2</ele>
        <time>2020-08-16T14:16:34Z</time>
      </trkpt>
      <trkpt lat="45.99159" lon="6.62347">
        <ele>591</ele>
        <time>2020-08-16T14:16:35Z</time>
      </trkpt>
      <trkpt lat="45.99159" lon="6.62348">
        <ele>590.8</ele>
        <time>2020-08-16T14:16:36Z</time>
      </trkpt>
      <trkpt lat="45.9916" lon="6.62349">
        <ele>590.8</ele>
        <time>2020-08-16T14:16:37Z</time>
      </trkpt>
      <trkpt lat="45.99161" lon="6.6235">
        <ele>590.6</ele>
        <time>2020-08-16T14:16:38Z</time>
      </trkpt>
      <trkpt lat="45.99162" lon="6.62352">
        <ele>590.2</ele>
        <time>2020-08-16T14:16:39Z</time>
      </trkpt>
      <trkpt lat="45.99164" lon="6.62353">
        <ele>590</ele>
        <time>2020-08-16T14:16:40Z</time>
      </trkpt>
      <trkpt lat="45.99165" lon="6.62355">
        <ele>589.8</ele>
        <time>2020-08-16T14:16:41Z</time>
      </trkpt>
      <trkpt lat="45.99167" lon="6.62357">
        <ele>589.6</ele>
        <time>2020-08-16T14:16:42Z</time>
      </trkpt>
      <trkpt lat="45.99168" lon="6.62359">
        <ele>589.4</ele>
        <time>2020-08-16T14:16:43Z</time>
      </trkpt>
      <trkpt lat="45.9917" lon="6.62361">
        <ele>589.2</ele>
        <time>2020-08-16T14:16:44Z</time>
      </trkpt>
      <trkpt lat="45.99172" lon="6.62363">
        <ele>589</ele>
        <time>2020-08-16T14:16:45Z</time>
      </trkpt>
      <trkpt lat="45.99174" lon="6.62365">
        <ele>588.8</ele>
        <time>2020-08-16T14:16:46Z</time>
      </trkpt>
      <trkpt lat="45.99176" lon="6.62367">
        <ele>588.6</ele>
        <time>2020-08-16T14:16:47Z</time>
      </trkpt>
      <trkpt lat="45.99178" lon="6.6237">
        <ele>588.4</ele>
        <time>2020-08-16T14:16:48Z</time>
      </trkpt>
      <trkpt lat="45.9918" lon="6.62373">
        <ele>588.2</ele>
        <time>2020-08-16T14:16:49Z</time>
      </trkpt>
      <trkpt lat="45.99182" lon="6.62376">
        <ele>587.8</ele>
        <time>2020-08-16T14:16:50Z</time>
      </trkpt>
      <trkpt lat="45.99185" lon="6.62381">
        <ele>587.4</ele>
        <time>2020-08-16T14:16:51Z</time>
      </trkpt>
      <trkpt lat="45.99188" lon="6.62386">
        <ele>587.4</ele>
        <time>2020-08-16T14:16:52Z</time>
      </trkpt>
      <trkpt lat="45.9919" lon="6.6239">
        <ele>587.8</ele>
        <time>2020-08-16T14:16:53Z</time>
      </trkpt>
      <trkpt lat="45.99192" lon="6.62393">
        <ele>588</ele>
        <time>2020-08-16T14:16:54Z</time>
      </trkpt>
      <trkpt lat="45.99194" lon="6.62394">
        <ele>588</ele>
        <time>2020-08-16T14:16:55Z</time>
      </trkpt>
      <trkpt lat="45.99195" lon="6.62394">
        <ele>588.2</ele>
        <time>2020-08-16T14:16:56Z</time>
      </trkpt>
      <trkpt lat="45.99196" lon="6.62395">
        <ele>588.2</ele>
        <time>2020-08-16T14:16:57Z</time>
      </trkpt>
      <trkpt lat="45.99197" lon="6.62395">
        <ele>588.4</ele>
        <time>2020-08-16T14:16:58Z</time>
      </trkpt>
      <trkpt lat="45.99198" lon="6.62396">
        <ele>588.4</ele>
        <time>2020-08-16T14:16:59Z</time>
      </trkpt>
      <trkpt lat="45.99198" lon="6.62396">
        <ele>588.4</ele>
        <time>2020-08-16T14:17:00Z</time>
      </trkpt>
      <trkpt lat="45.99198" lon="6.62396">
        <ele>588.4</ele>
        <time>2020-08-16T14:17:01Z</time>
      </trkpt>
      <trkpt lat="45.99198" lon="6.62396">
        <ele>588.4</ele>
        <time>2020-08-16T14:17:02Z</time>
      </trkpt>
      <trkpt lat="45.99198" lon="6.62396">
        <ele>588.4</ele>
        <time>2020-08-16T14:17:03Z</time>
      </trkpt>
      <trkpt lat="45.99198" lon="6.62396">
        <ele>588.4</ele>
        <time>2020-08-16T14:17:04Z</time>
      </trkpt>
      <trkpt lat="45.99198" lon="6.62396">
        <ele>588.4</ele>
        <time>2020-08-16T14:17:05Z</time>
      </trkpt>
      <trkpt lat="45.99198" lon="6.62396">
        <ele>588.2</ele>
        <time>2020-08-16T14:17:06Z</time>
      </trkpt>
      <trkpt lat="45.99186" lon="6.62378">
        <ele>587</ele>
        <time>2020-08-16T14:17:54Z</time>
      </trkpt>
      <trkpt lat="45.99184" lon="6.62374">
        <ele>587.2</ele>
        <time>2020-08-16T14:17:55Z</time>
      </trkpt>
      <trkpt lat="45.99183" lon="6.62371">
        <ele>587.4</ele>
        <time>2020-08-16T14:17:56Z</time>
      </trkpt>
      <trkpt lat="45.99181" lon="6.62369">
        <ele>587.6</ele>
        <time>2020-08-16T14:17:57Z</time>
      </trkpt>
      <trkpt lat="45.9918" lon="6.62367">
        <ele>587.8</ele>
        <time>2020-08-16T14:17:58Z</time>
      </trkpt>
      <trkpt lat="45.99179" lon="6.62366">
        <ele>588</ele>
        <time>2020-08-16T14:17:59Z</time>
      </trkpt>
      <trkpt lat="45.99178" lon="6.62364">
        <ele>588.2</ele>
        <time>2020-08-16T14:18:00Z</time>
      </trkpt>
      <trkpt lat="45.99177" lon="6.62363">
        <ele>588.2</ele>
        <time>2020-08-16T14:18:01Z</time>
      </trkpt>
      <trkpt lat="45.99175" lon="6.62362">
        <ele>588.4</ele>
        <time>2020-08-16T14:18:02Z</time>
      </trkpt>
      <trkpt lat="45.99173" lon="6.6236">
        <ele>588.4</ele>
        <time>2020-08-16T14:18:03Z</time>
      </trkpt>
      <trkpt lat="45.99172" lon="6.62359">
        <ele>588.6</ele>
        <time>2020-08-16T14:18:04Z</time>
      </trkpt>
      <trkpt lat="45.99171" lon="6.62357">
        <ele>588.8</ele>
        <time>2020-08-16T14:18:05Z</time>
      </trkpt>
      <trkpt lat="45.99169" lon="6.62356">
        <ele>589</ele>
        <time>2020-08-16T14:18:06Z</time>
      </trkpt>
      <trkpt lat="45.99168" lon="6.62354">
        <ele>589.2</ele>
        <time>2020-08-16T14:18:07Z</time>
      </trkpt>
      <trkpt lat="45.99166" lon="6.62352">
        <ele>589.4</ele>
        <time>2020-08-16T14:18:08Z</time>
      </trkpt>
      <trkpt lat="45.99165" lon="6.62351">
        <ele>589.6</ele>
        <time>2020-08-16T14:18:09Z</time>
      </trkpt>
      <trkpt lat="45.99164" lon="6.62348">
        <ele>589.8</ele>
        <time>2020-08-16T14:18:10Z</time>
      </trkpt>
      <trkpt lat="45.99163" lon="6.62346">
        <ele>590.2</ele>
        <time>2020-08-16T14:18:11Z</time>
      </trkpt>
      <trkpt lat="45.99162" lon="6.62344">
        <ele>590.4</ele>
        <time>2020-08-16T14:18:12Z</time>
      </trkpt>
      <trkpt lat="45.99162" lon="6.62342">
        <ele>590.8</ele>
        <time>2020-08-16T14:18:13Z</time>
      </trkpt>
      <trkpt lat="45.99162" lon="6.6234">
        <ele>591</ele>
        <time>2020-08-16T14:18:14Z</time>
      </trkpt>
      <trkpt lat="45.99162" lon="6.62338">
        <ele>591</ele>
        <time>2020-08-16T14:18:15Z</time>
      </trkpt>
      <trkpt lat="45.99163" lon="6.62336">
        <ele>591.2</ele>
        <time>2020-08-16T14:18:16Z</time>
      </trkpt>
      <trkpt lat="45.99164" lon="6.62335">
        <ele>591.2</ele>
        <time>2020-08-16T14:18:17Z</time>
      </trkpt>
      <trkpt lat="45.99166" lon="6.62334">
        <ele>591.4</ele>
        <time>2020-08-16T14:18:18Z</time>
      </trkpt>
      <trkpt lat="45.99167" lon="6.62333">
        <ele>591.4</ele>
        <time>2020-08-16T14:18:19Z</time>
      </trkpt>
      <trkpt lat="45.99168" lon="6.62332">
        <ele>591.6</ele>
        <time>2020-08-16T14:18:20Z</time>
      </trkpt>
      <trkpt lat="45.99169" lon="6.62332">
        <ele>591.6</ele>
        <time>2020-08-16T14:18:21Z</time>
      </trkpt>
      <trkpt lat="45.9917" lon="6.62331">
        <ele>591.6</ele>
        <time>2020-08-16T14:18:22Z</time>
      </trkpt>
      <trkpt lat="45.9917" lon="6.62332">
        <ele>591.6</ele>
        <time>2020-08-16T14:18:23Z</time>
      </trkpt>
      <trkpt lat="45.9917" lon="6.62332">
        <ele>591.6</ele>
        <time>2020-08-16T14:18:24Z</time>
      </trkpt>
      <trkpt lat="45.9917" lon="6.62332">
        <ele>591.4</ele>
        <time>2020-08-16T14:18:25Z</time>
      </trkpt>
      <trkpt lat="45.9917" lon="6.62332">
        <ele>591.4</ele>
        <time>2020-08-16T14:18:26Z</time>
      </trkpt>
      <trkpt lat="45.9917" lon="6.62332">
        <ele>591.4</ele>
        <time>2020-08-16T14:18:27Z</time>
      </trkpt>
      <trkpt lat="45.9917" lon="6.62332">
        <ele>591.4</ele>
        <time>2020-08-16T14:18:28Z</time>
      </trkpt>
      <trkpt lat="45.99184" lon="6.6232">
        <ele>592.8</ele>
        <time>2020-08-16T14:18:40Z</time>
      </trkpt>
      <trkpt lat="45.99185" lon="6.62319">
        <ele>593</ele>
        <time>2020-08-16T14:18:41Z</time>
      </trkpt>
      <trkpt lat="45.99186" lon="6.62316">
        <ele>593.2</ele>
        <time>2020-08-16T14:18:42Z</time>
      </trkpt>
      <trkpt lat="45.99188" lon="6.62315">
        <ele>593.4</ele>
        <time>2020-08-16T14:18:43Z</time>
      </trkpt>
      <trkpt lat="45.99189" lon="6.62313">
        <ele>593.6</ele>
        <time>2020-08-16T14:18:44Z</time>
      </trkpt>
      <trkpt lat="45.9919" lon="6.62311">
        <ele>593.8</ele>
        <time>2020-08-16T14:18:45Z</time>
      </trkpt>
      <trkpt lat="45.99191" lon="6.6231">
        <ele>594</ele>
        <time>2020-08-16T14:18:46Z</time>
      </trkpt>
      <trkpt lat="45.99193" lon="6.62309">
        <ele>594.2</ele>
        <time>2020-08-16T14:18:47Z</time>
      </trkpt>
      <trkpt lat="45.99194" lon="6.62308">
        <ele>594.4</ele>
        <time>2020-08-16T14:18:48Z</time>
      </trkpt>
      <trkpt lat="45.99196" lon="6.62307">
        <ele>594.6</ele>
        <time>2020-08-16T14:18:49Z</time>
      </trkpt>
      <trkpt lat="45.99197" lon="6.62306">
        <ele>594.8</ele>
        <time>2020-08-16T14:18:50Z</time>
      </trkpt>
      <trkpt lat="45.99199" lon="6.62306">
        <ele>594.8</ele>
        <time>2020-08-16T14:18:51Z</time>
      </trkpt>
      <trkpt lat="45.99201" lon="6.62305">
        <ele>594.8</ele>
        <time>2020-08-16T14:18:52Z</time>
      </trkpt>
      <trkpt lat="45.99202" lon="6.62304">
        <ele>595</ele>
        <time>2020-08-16T14:18:53Z</time>
      </trkpt>
      <trkpt lat="45.99203" lon="6.62303">
        <ele>595.2</ele>
        <time>2020-08-16T14:18:54Z</time>
      </trkpt>
      <trkpt lat="45.99205" lon="6.62302">
        <ele>595.2</ele>
        <time>2020-08-16T14:18:55Z</time>
      </trkpt>
      <trkpt lat="45.99206" lon="6.62301">
        <ele>595.4</ele>
        <time>2020-08-16T14:18:56Z</time>
      </trkpt>
      <trkpt lat="45.99207" lon="6.623">
        <ele>595.4</ele>
        <time>2020-08-16T14:18:57Z</time>
      </trkpt>
      <trkpt lat="45.99209" lon="6.62299">
        <ele>595.6</ele>
        <time>2020-08-16T14:18:58Z</time>
      </trkpt>
      <trkpt lat="45.9921" lon="6.62298">
        <ele>595.8</ele>
        <time>2020-08-16T14:18:59Z</time>
      </trkpt>
      <trkpt lat="45.99211" lon="6.62297">
        <ele>595.8</ele>
        <time>2020-08-16T14:19:00Z</time>
      </trkpt>
      <trkpt lat="45.99213" lon="6.62296">
        <ele>596</ele>
        <time>2020-08-16T14:19:01Z</time>
      </trkpt>
      <trkpt lat="45.99214" lon="6.62295">
        <ele>596.2</ele>
        <time>2020-08-16T14:19:02Z</time>
      </trkpt>
      <trkpt lat="45.99216" lon="6.62294">
        <ele>596.2</ele>
        <time>2020-08-16T14:19:03Z</time>
      </trkpt>
      <trkpt lat="45.99217" lon="6.62293">
        <ele>596.4</ele>
        <time>2020-08-16T14:19:04Z</time>
      </trkpt>
      <trkpt lat="45.99219" lon="6.62292">
        <ele>596.6</ele>
        <time>2020-08-16T14:19:05Z</time>
      </trkpt>
      <trkpt lat="45.9922" lon="6.62291">
        <ele>596.8</ele>
        <time>2020-08-16T14:19:06Z</time>
      </trkpt>
      <trkpt lat="45.99222" lon="6.6229">
        <ele>596.8</ele>
        <time>2020-08-16T14:19:07Z</time>
      </trkpt>
      <trkpt lat="45.99224" lon="6.62289">
        <ele>597</ele>
        <time>2020-08-16T14:19:08Z</time>
      </trkpt>
      <trkpt lat="45.99226" lon="6.62287">
        <ele>597</ele>
        <time>2020-08-16T14:19:09Z</time>
      </trkpt>
      <trkpt lat="45.99227" lon="6.62285">
        <ele>597.2</ele>
        <time>2020-08-16T14:19:10Z</time>
      </trkpt>
      <trkpt lat="45.99228" lon="6.62284">
        <ele>597.4</ele>
        <time>2020-08-16T14:19:11Z</time>
      </trkpt>
      <trkpt lat="45.99229" lon="6.62282">
        <ele>597.4</ele>
        <time>2020-08-16T14:19:12Z</time>
      </trkpt>
      <trkpt lat="45.9923" lon="6.6228">
        <ele>597.6</ele>
        <time>2020-08-16T14:19:13Z</time>
      </trkpt>
      <trkpt lat="45.99231" lon="6.62278">
        <ele>597.8</ele>
        <time>2020-08-16T14:19:14Z</time>
      </trkpt>
      <trkpt lat="45.99232" lon="6.62277">
        <ele>598</ele>
        <time>2020-08-16T14:19:15Z</time>
      </trkpt>
      <trkpt lat="45.99232" lon="6.62275">
        <ele>598.2</ele>
        <time>2020-08-16T14:19:16Z</time>
      </trkpt>
      <trkpt lat="45.99234" lon="6.62274">
        <ele>598.2</ele>
        <time>2020-08-16T14:19:17Z</time>
      </trkpt>
      <trkpt lat="45.99235" lon="6.62273">
        <ele>598.4</ele>
        <time>2020-08-16T14:19:18Z</time>
      </trkpt>
      <trkpt lat="45.99237" lon="6.62273">
        <ele>598.6</ele>
        <time>2020-08-16T14:19:19Z</time>
      </trkpt>
      <trkpt lat="45.99238" lon="6.62274">
        <ele>598.6</ele>
        <time>2020-08-16T14:19:20Z</time>
      </trkpt>
      <trkpt lat="45.9924" lon="6.62273">
        <ele>598.8</ele>
        <time>2020-08-16T14:19:21Z</time>
      </trkpt>
      <trkpt lat="45.99241" lon="6.62273">
        <ele>599</ele>
        <time>2020-08-16T14:19:22Z</time>
      </trkpt>
      <trkpt lat="45.99243" lon="6.62273">
        <ele>599.2</ele>
        <time>2020-08-16T14:19:23Z</time>
      </trkpt>
      <trkpt lat="45.99245" lon="6.62273">
        <ele>599.4</ele>
        <time>2020-08-16T14:19:24Z</time>
      </trkpt>
      <trkpt lat="45.99247" lon="6.62272">
        <ele>599.6</ele>
        <time>2020-08-16T14:19:25Z</time>
      </trkpt>
      <trkpt lat="45.99249" lon="6.62273">
        <ele>599.8</ele>
        <time>2020-08-16T14:19:26Z</time>
      </trkpt>
      <trkpt lat="45.99252" lon="6.62273">
        <ele>600</ele>
        <time>2020-08-16T14:19:27Z</time>
      </trkpt>
      <trkpt lat="45.99253" lon="6.62272">
        <ele>600</ele>
        <time>2020-08-16T14:19:28Z</time>
      </trkpt>
      <trkpt lat="45.99255" lon="6.62273">
        <ele>600.2</ele>
        <time>2020-08-16T14:19:29Z</time>
      </trkpt>
      <trkpt lat="45.99256" lon="6.62274">
        <ele>600.4</ele>
        <time>2020-08-16T14:19:30Z</time>
      </trkpt>
      <trkpt lat="45.99258" lon="6.62276">
        <ele>600.4</ele>
        <time>2020-08-16T14:19:31Z</time>
      </trkpt>
      <trkpt lat="45.99259" lon="6.62277">
        <ele>600.6</ele>
        <time>2020-08-16T14:19:32Z</time>
      </trkpt>
      <trkpt lat="45.99261" lon="6.62279">
        <ele>600.8</ele>
        <time>2020-08-16T14:19:33Z</time>
      </trkpt>
      <trkpt lat="45.99262" lon="6.62281">
        <ele>600.8</ele>
        <time>2020-08-16T14:19:34Z</time>
      </trkpt>
      <trkpt lat="45.99264" lon="6.62283">
        <ele>601</ele>
        <time>2020-08-16T14:19:35Z</time>
      </trkpt>
      <trkpt lat="45.99264" lon="6.62285">
        <ele>601.2</ele>
        <time>2020-08-16T14:19:36Z</time>
      </trkpt>
      <trkpt lat="45.99266" lon="6.62287">
        <ele>601.4</ele>
        <time>2020-08-16T14:19:37Z</time>
      </trkpt>
      <trkpt lat="45.99268" lon="6.62289">
        <ele>601.6</ele>
        <time>2020-08-16T14:19:38Z</time>
      </trkpt>
      <trkpt lat="45.99269" lon="6.6229">
        <ele>601.8</ele>
        <time>2020-08-16T14:19:39Z</time>
      </trkpt>
      <trkpt lat="45.99271" lon="6.62291">
        <ele>602</ele>
        <time>2020-08-16T14:19:40Z</time>
      </trkpt>
      <trkpt lat="45.99272" lon="6.62292">
        <ele>602.2</ele>
        <time>2020-08-16T14:19:41Z</time>
      </trkpt>
      <trkpt lat="45.99272" lon="6.62293">
        <ele>602.4</ele>
        <time>2020-08-16T14:19:42Z</time>
      </trkpt>
      <trkpt lat="45.99273" lon="6.62294">
        <ele>602.4</ele>
        <time>2020-08-16T14:19:43Z</time>
      </trkpt>
      <trkpt lat="45.99274" lon="6.62296">
        <ele>602.6</ele>
        <time>2020-08-16T14:19:44Z</time>
      </trkpt>
      <trkpt lat="45.99276" lon="6.62297">
        <ele>602.8</ele>
        <time>2020-08-16T14:19:45Z</time>
      </trkpt>
      <trkpt lat="45.99277" lon="6.62298">
        <ele>603</ele>
        <time>2020-08-16T14:19:46Z</time>
      </trkpt>
      <trkpt lat="45.99279" lon="6.62299">
        <ele>603.2</ele>
        <time>2020-08-16T14:19:47Z</time>
      </trkpt>
      <trkpt lat="45.99281" lon="6.623">
        <ele>603.4</ele>
        <time>2020-08-16T14:19:48Z</time>
      </trkpt>
      <trkpt lat="45.99282" lon="6.62301">
        <ele>603.4</ele>
        <time>2020-08-16T14:19:49Z</time>
      </trkpt>
      <trkpt lat="45.99284" lon="6.62301">
        <ele>603.6</ele>
        <time>2020-08-16T14:19:50Z</time>
      </trkpt>
      <trkpt lat="45.99285" lon="6.62301">
        <ele>603.8</ele>
        <time>2020-08-16T14:19:51Z</time>
      </trkpt>
      <trkpt lat="45.99287" lon="6.62301">
        <ele>604</ele>
        <time>2020-08-16T14:19:52Z</time>
      </trkpt>
      <trkpt lat="45.99288" lon="6.623">
        <ele>604</ele>
        <time>2020-08-16T14:19:53Z</time>
      </trkpt>
      <trkpt lat="45.99289" lon="6.62299">
        <ele>604.2</ele>
        <time>2020-08-16T14:19:54Z</time>
      </trkpt>
      <trkpt lat="45.99291" lon="6.62298">
        <ele>604.4</ele>
        <time>2020-08-16T14:19:55Z</time>
      </trkpt>
      <trkpt lat="45.99293" lon="6.62297">
        <ele>604.4</ele>
        <time>2020-08-16T14:19:56Z</time>
      </trkpt>
      <trkpt lat="45.99294" lon="6.62296">
        <ele>604.6</ele>
        <time>2020-08-16T14:19:57Z</time>
      </trkpt>
      <trkpt lat="45.99296" lon="6.62294">
        <ele>604.8</ele>
        <time>2020-08-16T14:19:58Z</time>
      </trkpt>
      <trkpt lat="45.99298" lon="6.62293">
        <ele>605</ele>
        <time>2020-08-16T14:19:59Z</time>
      </trkpt>
      <trkpt lat="45.993" lon="6.62292">
        <ele>605</ele>
        <time>2020-08-16T14:20:00Z</time>
      </trkpt>
      <trkpt lat="45.99301" lon="6.6229">
        <ele>605.2</ele>
        <time>2020-08-16T14:20:01Z</time>
      </trkpt>
      <trkpt lat="45.99303" lon="6.62289">
        <ele>605.4</ele>
        <time>2020-08-16T14:20:02Z</time>
      </trkpt>
      <trkpt lat="45.99306" lon="6.62288">
        <ele>605.4</ele>
        <time>2020-08-16T14:20:03Z</time>
      </trkpt>
      <trkpt lat="45.99308" lon="6.62286">
        <ele>605.6</ele>
        <time>2020-08-16T14:20:04Z</time>
      </trkpt>
      <trkpt lat="45.9931" lon="6.62285">
        <ele>605.8</ele>
        <time>2020-08-16T14:20:05Z</time>
      </trkpt>
      <trkpt lat="45.99312" lon="6.62283">
        <ele>606</ele>
        <time>2020-08-16T14:20:06Z</time>
      </trkpt>
      <trkpt lat="45.99315" lon="6.62281">
        <ele>606</ele>
        <time>2020-08-16T14:20:07Z</time>
      </trkpt>
      <trkpt lat="45.99317" lon="6.62279">
        <ele>606.2</ele>
        <time>2020-08-16T14:20:08Z</time>
      </trkpt>
      <trkpt lat="45.99318" lon="6.62277">
        <ele>606.4</ele>
        <time>2020-08-16T14:20:09Z</time>
      </trkpt>
      <trkpt lat="45.9932" lon="6.62275">
        <ele>606.6</ele>
        <time>2020-08-16T14:20:10Z</time>
      </trkpt>
      <trkpt lat="45.99322" lon="6.62274">
        <ele>606.8</ele>
        <time>2020-08-16T14:20:11Z</time>
      </trkpt>
      <trkpt lat="45.99324" lon="6.62272">
        <ele>607</ele>
        <time>2020-08-16T14:20:12Z</time>
      </trkpt>
      <trkpt lat="45.99326" lon="6.62271">
        <ele>607</ele>
        <time>2020-08-16T14:20:13Z</time>
      </trkpt>
      <trkpt lat="45.99328" lon="6.62269">
        <ele>607.2</ele>
        <time>2020-08-16T14:20:14Z</time>
      </trkpt>
      <trkpt lat="45.9933" lon="6.62268">
        <ele>607.2</ele>
        <time>2020-08-16T14:20:15Z</time>
      </trkpt>
      <trkpt lat="45.99333" lon="6.62266">
        <ele>607.4</ele>
        <time>2020-08-16T14:20:16Z</time>
      </trkpt>
      <trkpt lat="45.99335" lon="6.62265">
        <ele>607.4</ele>
        <time>2020-08-16T14:20:17Z</time>
      </trkpt>
      <trkpt lat="45.99337" lon="6.62263">
        <ele>607.6</ele>
        <time>2020-08-16T14:20:18Z</time>
      </trkpt>
      <trkpt lat="45.99339" lon="6.62261">
        <ele>607.6</ele>
        <time>2020-08-16T14:20:19Z</time>
      </trkpt>
      <trkpt lat="45.99341" lon="6.62259">
        <ele>607.8</ele>
        <time>2020-08-16T14:20:20Z</time>
      </trkpt>
      <trkpt lat="45.99343" lon="6.62257">
        <ele>608</ele>
        <time>2020-08-16T14:20:21Z</time>
      </trkpt>
      <trkpt lat="45.99345" lon="6.62256">
        <ele>608.2</ele>
        <time>2020-08-16T14:20:22Z</time>
      </trkpt>
      <trkpt lat="45.99347" lon="6.62254">
        <ele>608.2</ele>
        <time>2020-08-16T14:20:23Z</time>
      </trkpt>
      <trkpt lat="45.99349" lon="6.62253">
        <ele>608.2</ele>
        <time>2020-08-16T14:20:24Z</time>
      </trkpt>
      <trkpt lat="45.99351" lon="6.62251">
        <ele>608.4</ele>
        <time>2020-08-16T14:20:25Z</time>
      </trkpt>
      <trkpt lat="45.99354" lon="6.6225">
        <ele>608.4</ele>
        <time>2020-08-16T14:20:26Z</time>
      </trkpt>
      <trkpt lat="45.99356" lon="6.62249">
        <ele>608.6</ele>
        <time>2020-08-16T14:20:27Z</time>
      </trkpt>
      <trkpt lat="45.99358" lon="6.62247">
        <ele>608.6</ele>
        <time>2020-08-16T14:20:28Z</time>
      </trkpt>
      <trkpt lat="45.9936" lon="6.62246">
        <ele>608.8</ele>
        <time>2020-08-16T14:20:29Z</time>
      </trkpt>
      <trkpt lat="45.99363" lon="6.62244">
        <ele>608.8</ele>
        <time>2020-08-16T14:20:30Z</time>
      </trkpt>
      <trkpt lat="45.99365" lon="6.62243">
        <ele>609</ele>
        <time>2020-08-16T14:20:31Z</time>
      </trkpt>
      <trkpt lat="45.99367" lon="6.62241">
        <ele>609.2</ele>
        <time>2020-08-16T14:20:32Z</time>
      </trkpt>
      <trkpt lat="45.9937" lon="6.6224">
        <ele>609.2</ele>
        <time>2020-08-16T14:20:33Z</time>
      </trkpt>
      <trkpt lat="45.99372" lon="6.62238">
        <ele>609.2</ele>
        <time>2020-08-16T14:20:34Z</time>
      </trkpt>
      <trkpt lat="45.99374" lon="6.62237">
        <ele>609.4</ele>
        <time>2020-08-16T14:20:35Z</time>
      </trkpt>
      <trkpt lat="45.99377" lon="6.62236">
        <ele>609.6</ele>
        <time>2020-08-16T14:20:36Z</time>
      </trkpt>
      <trkpt lat="45.99379" lon="6.62234">
        <ele>609.6</ele>
        <time>2020-08-16T14:20:37Z</time>
      </trkpt>
      <trkpt lat="45.99381" lon="6.62232">
        <ele>609.8</ele>
        <time>2020-08-16T14:20:38Z</time>
      </trkpt>
      <trkpt lat="45.99383" lon="6.6223">
        <ele>609.8</ele>
        <time>2020-08-16T14:20:39Z</time>
      </trkpt>
      <trkpt lat="45.99385" lon="6.62228">
        <ele>610</ele>
        <time>2020-08-16T14:20:40Z</time>
      </trkpt>
      <trkpt lat="45.99387" lon="6.62228">
        <ele>610</ele>
        <time>2020-08-16T14:20:41Z</time>
      </trkpt>
      <trkpt lat="45.99387" lon="6.62227">
        <ele>610</ele>
        <time>2020-08-16T14:20:42Z</time>
      </trkpt>
      <trkpt lat="45.99388" lon="6.62227">
        <ele>610</ele>
        <time>2020-08-16T14:20:43Z</time>
      </trkpt>
      <trkpt lat="45.99388" lon="6.62227">
        <ele>610</ele>
        <time>2020-08-16T14:20:44Z</time>
      </trkpt>
      <trkpt lat="45.99388" lon="6.62227">
        <ele>610</ele>
        <time>2020-08-16T14:20:45Z</time>
      </trkpt>
      <trkpt lat="45.99388" lon="6.62227">
        <ele>610</ele>
        <time>2020-08-16T14:20:46Z</time>
      </trkpt>
      <trkpt lat="45.99388" lon="6.62227">
        <ele>609.8</ele>
        <time>2020-08-16T14:20:47Z</time>
      </trkpt>
      <trkpt lat="45.99388" lon="6.62227">
        <ele>609.8</ele>
        <time>2020-08-16T14:20:48Z</time>
      </trkpt>
      <trkpt lat="45.99388" lon="6.62227">
        <ele>609.8</ele>
        <time>2020-08-16T14:20:49Z</time>
      </trkpt>
      <trkpt lat="45.99403" lon="6.62216">
        <ele>610.4</ele>
        <time>2020-08-16T14:21:02Z</time>
      </trkpt>
      <trkpt lat="45.99405" lon="6.62214">
        <ele>610.6</ele>
        <time>2020-08-16T14:21:03Z</time>
      </trkpt>
      <trkpt lat="45.99408" lon="6.62211">
        <ele>610.6</ele>
        <time>2020-08-16T14:21:04Z</time>
      </trkpt>
      <trkpt lat="45.9941" lon="6.6221">
        <ele>610.8</ele>
        <time>2020-08-16T14:21:05Z</time>
      </trkpt>
      <trkpt lat="45.99412" lon="6.62207">
        <ele>611</ele>
        <time>2020-08-16T14:21:06Z</time>
      </trkpt>
      <trkpt lat="45.99414" lon="6.62205">
        <ele>611.2</ele>
        <time>2020-08-16T14:21:07Z</time>
      </trkpt>
      <trkpt lat="45.99415" lon="6.62202">
        <ele>611.2</ele>
        <time>2020-08-16T14:21:08Z</time>
      </trkpt>
      <trkpt lat="45.99418" lon="6.622">
        <ele>611.4</ele>
        <time>2020-08-16T14:21:09Z</time>
      </trkpt>
      <trkpt lat="45.9942" lon="6.62197">
        <ele>611.6</ele>
        <time>2020-08-16T14:21:10Z</time>
      </trkpt>
      <trkpt lat="45.99422" lon="6.62194">
        <ele>611.8</ele>
        <time>2020-08-16T14:21:11Z</time>
      </trkpt>
      <trkpt lat="45.99424" lon="6.62191">
        <ele>611.8</ele>
        <time>2020-08-16T14:21:12Z</time>
      </trkpt>
      <trkpt lat="45.99426" lon="6.62188">
        <ele>611.8</ele>
        <time>2020-08-16T14:21:13Z</time>
      </trkpt>
      <trkpt lat="45.99428" lon="6.62185">
        <ele>612</ele>
        <time>2020-08-16T14:21:14Z</time>
      </trkpt>
      <trkpt lat="45.99429" lon="6.62181">
        <ele>612</ele>
        <time>2020-08-16T14:21:15Z</time>
      </trkpt>
      <trkpt lat="45.99431" lon="6.62179">
        <ele>612</ele>
        <time>2020-08-16T14:21:16Z</time>
      </trkpt>
      <trkpt lat="45.99432" lon="6.62175">
        <ele>612</ele>
        <time>2020-08-16T14:21:17Z</time>
      </trkpt>
      <trkpt lat="45.99433" lon="6.62173">
        <ele>612.2</ele>
        <time>2020-08-16T14:21:18Z</time>
      </trkpt>
      <trkpt lat="45.99435" lon="6.6217">
        <ele>612.4</ele>
        <time>2020-08-16T14:21:19Z</time>
      </trkpt>
      <trkpt lat="45.99437" lon="6.62168">
        <ele>612.4</ele>
        <time>2020-08-16T14:21:20Z</time>
      </trkpt>
      <trkpt lat="45.99439" lon="6.62166">
        <ele>612.4</ele>
        <time>2020-08-16T14:21:21Z</time>
      </trkpt>
      <trkpt lat="45.9944" lon="6.62165">
        <ele>612.6</ele>
        <time>2020-08-16T14:21:22Z</time>
      </trkpt>
      <trkpt lat="45.99441" lon="6.62164">
        <ele>612.6</ele>
        <time>2020-08-16T14:21:23Z</time>
      </trkpt>
      <trkpt lat="45.99442" lon="6.62162">
        <ele>612.6</ele>
        <time>2020-08-16T14:21:24Z</time>
      </trkpt>
      <trkpt lat="45.99444" lon="6.6216">
        <ele>612.8</ele>
        <time>2020-08-16T14:21:25Z</time>
      </trkpt>
      <trkpt lat="45.99445" lon="6.62158">
        <ele>612.8</ele>
        <time>2020-08-16T14:21:26Z</time>
      </trkpt>
      <trkpt lat="45.99448" lon="6.62157">
        <ele>612.8</ele>
        <time>2020-08-16T14:21:27Z</time>
      </trkpt>
      <trkpt lat="45.9945" lon="6.62156">
        <ele>613</ele>
        <time>2020-08-16T14:21:28Z</time>
      </trkpt>
      <trkpt lat="45.99453" lon="6.62156">
        <ele>613</ele>
        <time>2020-08-16T14:21:29Z</time>
      </trkpt>
      <trkpt lat="45.99455" lon="6.62155">
        <ele>613</ele>
        <time>2020-08-16T14:21:30Z</time>
      </trkpt>
      <trkpt lat="45.99457" lon="6.62155">
        <ele>613</ele>
        <time>2020-08-16T14:21:31Z</time>
      </trkpt>
      <trkpt lat="45.99459" lon="6.62155">
        <ele>613.2</ele>
        <time>2020-08-16T14:21:32Z</time>
      </trkpt>
      <trkpt lat="45.99461" lon="6.62153">
        <ele>613.2</ele>
        <time>2020-08-16T14:21:33Z</time>
      </trkpt>
      <trkpt lat="45.99464" lon="6.62151">
        <ele>613.2</ele>
        <time>2020-08-16T14:21:34Z</time>
      </trkpt>
      <trkpt lat="45.99465" lon="6.6215">
        <ele>613.2</ele>
        <time>2020-08-16T14:21:35Z</time>
      </trkpt>
      <trkpt lat="45.99467" lon="6.6215">
        <ele>613.2</ele>
        <time>2020-08-16T14:21:36Z</time>
      </trkpt>
      <trkpt lat="45.99469" lon="6.62149">
        <ele>613.2</ele>
        <time>2020-08-16T14:21:37Z</time>
      </trkpt>
      <trkpt lat="45.9947" lon="6.62148">
        <ele>613</ele>
        <time>2020-08-16T14:21:38Z</time>
      </trkpt>
      <trkpt lat="45.99471" lon="6.62147">
        <ele>613</ele>
        <time>2020-08-16T14:21:39Z</time>
      </trkpt>
      <trkpt lat="45.99472" lon="6.62146">
        <ele>613</ele>
        <time>2020-08-16T14:21:40Z</time>
      </trkpt>
      <trkpt lat="45.99473" lon="6.62146">
        <ele>613</ele>
        <time>2020-08-16T14:21:41Z</time>
      </trkpt>
      <trkpt lat="45.99474" lon="6.62144">
        <ele>613</ele>
        <time>2020-08-16T14:21:42Z</time>
      </trkpt>
      <trkpt lat="45.99476" lon="6.62143">
        <ele>613.2</ele>
        <time>2020-08-16T14:21:43Z</time>
      </trkpt>
      <trkpt lat="45.99477" lon="6.62142">
        <ele>613.2</ele>
        <time>2020-08-16T14:21:44Z</time>
      </trkpt>
      <trkpt lat="45.99479" lon="6.62141">
        <ele>613.2</ele>
        <time>2020-08-16T14:21:45Z</time>
      </trkpt>
      <trkpt lat="45.99481" lon="6.6214">
        <ele>613.2</ele>
        <time>2020-08-16T14:21:46Z</time>
      </trkpt>
      <trkpt lat="45.99483" lon="6.6214">
        <ele>613.2</ele>
        <time>2020-08-16T14:21:47Z</time>
      </trkpt>
      <trkpt lat="45.99484" lon="6.6214">
        <ele>613.2</ele>
        <time>2020-08-16T14:21:48Z</time>
      </trkpt>
      <trkpt lat="45.99485" lon="6.6214">
        <ele>613.2</ele>
        <time>2020-08-16T14:21:49Z</time>
      </trkpt>
      <trkpt lat="45.99487" lon="6.62139">
        <ele>613.4</ele>
        <time>2020-08-16T14:21:50Z</time>
      </trkpt>
      <trkpt lat="45.99489" lon="6.62138">
        <ele>613.4</ele>
        <time>2020-08-16T14:21:51Z</time>
      </trkpt>
      <trkpt lat="45.9949" lon="6.62136">
        <ele>613.4</ele>
        <time>2020-08-16T14:21:52Z</time>
      </trkpt>
      <trkpt lat="45.99492" lon="6.62134">
        <ele>613.6</ele>
        <time>2020-08-16T14:21:53Z</time>
      </trkpt>
      <trkpt lat="45.99493" lon="6.62133">
        <ele>613.6</ele>
        <time>2020-08-16T14:21:54Z</time>
      </trkpt>
      <trkpt lat="45.99494" lon="6.62131">
        <ele>613.6</ele>
        <time>2020-08-16T14:21:55Z</time>
      </trkpt>
      <trkpt lat="45.99495" lon="6.62129">
        <ele>613.6</ele>
        <time>2020-08-16T14:21:56Z</time>
      </trkpt>
      <trkpt lat="45.99495" lon="6.62128">
        <ele>613.6</ele>
        <time>2020-08-16T14:21:57Z</time>
      </trkpt>
      <trkpt lat="45.99496" lon="6.62126">
        <ele>613.6</ele>
        <time>2020-08-16T14:21:58Z</time>
      </trkpt>
      <trkpt lat="45.99496" lon="6.62124">
        <ele>613.6</ele>
        <time>2020-08-16T14:21:59Z</time>
      </trkpt>
      <trkpt lat="45.99496" lon="6.62123">
        <ele>613.6</ele>
        <time>2020-08-16T14:22:00Z</time>
      </trkpt>
      <trkpt lat="45.99497" lon="6.62123">
        <ele>613.4</ele>
        <time>2020-08-16T14:22:01Z</time>
      </trkpt>
      <trkpt lat="45.99499" lon="6.62123">
        <ele>613.4</ele>
        <time>2020-08-16T14:22:02Z</time>
      </trkpt>
      <trkpt lat="45.995" lon="6.62124">
        <ele>613.2</ele>
        <time>2020-08-16T14:22:03Z</time>
      </trkpt>
      <trkpt lat="45.995" lon="6.62125">
        <ele>613.2</ele>
        <time>2020-08-16T14:22:04Z</time>
      </trkpt>
      <trkpt lat="45.995" lon="6.62127">
        <ele>613.2</ele>
        <time>2020-08-16T14:22:05Z</time>
      </trkpt>
      <trkpt lat="45.995" lon="6.62128">
        <ele>613.4</ele>
        <time>2020-08-16T14:22:06Z</time>
      </trkpt>
      <trkpt lat="45.995" lon="6.62128">
        <ele>613.4</ele>
        <time>2020-08-16T14:22:07Z</time>
      </trkpt>
      <trkpt lat="45.995" lon="6.62128">
        <ele>613.4</ele>
        <time>2020-08-16T14:22:08Z</time>
      </trkpt>
      <trkpt lat="45.995" lon="6.62128">
        <ele>613.4</ele>
        <time>2020-08-16T14:22:09Z</time>
      </trkpt>
      <trkpt lat="45.995" lon="6.62129">
        <ele>613.4</ele>
        <time>2020-08-16T14:22:10Z</time>
      </trkpt>
      <trkpt lat="45.995" lon="6.62129">
        <ele>613.4</ele>
        <time>2020-08-16T14:22:11Z</time>
      </trkpt>
      <trkpt lat="45.995" lon="6.62129">
        <ele>613.4</ele>
        <time>2020-08-16T14:22:12Z</time>
      </trkpt>
      <trkpt lat="45.995" lon="6.62128">
        <ele>613.4</ele>
        <time>2020-08-16T14:22:13Z</time>
      </trkpt>
      <trkpt lat="45.995" lon="6.62128">
        <ele>613.4</ele>
        <time>2020-08-16T14:22:14Z</time>
      </trkpt>
      <trkpt lat="45.995" lon="6.62128">
        <ele>613.4</ele>
        <time>2020-08-16T14:22:15Z</time>
      </trkpt>
      <trkpt lat="45.99487" lon="6.62123">
        <ele>615.2</ele>
        <time>2020-08-16T14:23:14Z</time>
      </trkpt>
      <trkpt lat="45.99487" lon="6.62123">
        <ele>615.4</ele>
        <time>2020-08-16T14:23:15Z</time>
      </trkpt>
      <trkpt lat="45.99487" lon="6.62123">
        <ele>615.4</ele>
        <time>2020-08-16T14:23:16Z</time>
      </trkpt>
      <trkpt lat="45.99487" lon="6.62123">
        <ele>615.4</ele>
        <time>2020-08-16T14:23:17Z</time>
      </trkpt>
      <trkpt lat="45.99487" lon="6.62123">
        <ele>615.4</ele>
        <time>2020-08-16T14:23:18Z</time>
      </trkpt>
      <trkpt lat="45.99486" lon="6.62123">
        <ele>615.4</ele>
        <time>2020-08-16T14:23:19Z</time>
      </trkpt>
      <trkpt lat="45.99486" lon="6.62123">
        <ele>615.4</ele>
        <time>2020-08-16T14:23:20Z</time>
      </trkpt>
      <trkpt lat="45.99486" lon="6.62123">
        <ele>615.4</ele>
        <time>2020-08-16T14:23:21Z</time>
      </trkpt>
      <trkpt lat="45.99511" lon="6.62121">
        <ele>613</ele>
        <time>2020-08-16T14:23:57Z</time>
      </trkpt>
      <trkpt lat="45.99514" lon="6.62121">
        <ele>612.6</ele>
        <time>2020-08-16T14:23:58Z</time>
      </trkpt>
      <trkpt lat="45.99517" lon="6.62122">
        <ele>612.4</ele>
        <time>2020-08-16T14:23:59Z</time>
      </trkpt>
      <trkpt lat="45.99517" lon="6.62122">
        <ele>612.4</ele>
        <time>2020-08-16T14:24:00Z</time>
      </trkpt>
      <trkpt lat="45.99516" lon="6.62123">
        <ele>612.4</ele>
        <time>2020-08-16T14:24:01Z</time>
      </trkpt>
      <trkpt lat="45.99517" lon="6.62123">
        <ele>612.2</ele>
        <time>2020-08-16T14:24:02Z</time>
      </trkpt>
      <trkpt lat="45.99516" lon="6.62123">
        <ele>612.2</ele>
        <time>2020-08-16T14:24:03Z</time>
      </trkpt>
      <trkpt lat="45.99516" lon="6.62123">
        <ele>612.4</ele>
        <time>2020-08-16T14:24:04Z</time>
      </trkpt>
      <trkpt lat="45.99517" lon="6.62123">
        <ele>612.2</ele>
        <time>2020-08-16T14:24:05Z</time>
      </trkpt>
      <trkpt lat="45.99517" lon="6.62123">
        <ele>612.4</ele>
        <time>2020-08-16T14:24:06Z</time>
      </trkpt>
      <trkpt lat="45.99517" lon="6.62123">
        <ele>612.4</ele>
        <time>2020-08-16T14:24:07Z</time>
      </trkpt>
      <trkpt lat="45.99517" lon="6.62123">
        <ele>612.4</ele>
        <time>2020-08-16T14:24:08Z</time>
      </trkpt>
      <trkpt lat="45.99549" lon="6.62123">
        <ele>609.4</ele>
        <time>2020-08-16T14:27:45Z</time>
      </trkpt>
      <trkpt lat="45.99549" lon="6.62123">
        <ele>609</ele>
        <time>2020-08-16T14:27:46Z</time>
      </trkpt>
      <trkpt lat="45.9956" lon="6.62126">
        <ele>608.2</ele>
        <time>2020-08-16T14:27:47Z</time>
      </trkpt>
      <trkpt lat="45.99566" lon="6.62127">
        <ele>608</ele>
        <time>2020-08-16T14:27:48Z</time>
      </trkpt>
      <trkpt lat="45.99572" lon="6.62128">
        <ele>607.4</ele>
        <time>2020-08-16T14:27:49Z</time>
      </trkpt>
      <trkpt lat="45.99572" lon="6.62128">
        <ele>606.8</ele>
        <time>2020-08-16T14:27:50Z</time>
      </trkpt>
      <trkpt lat="45.99579" lon="6.62127">
        <ele>606.2</ele>
        <time>2020-08-16T14:27:51Z</time>
      </trkpt>
      <trkpt lat="45.99594" lon="6.62127">
        <ele>605.4</ele>
        <time>2020-08-16T14:27:52Z</time>
      </trkpt>
      <trkpt lat="45.99601" lon="6.62127">
        <ele>604.8</ele>
        <time>2020-08-16T14:27:53Z</time>
      </trkpt>
      <trkpt lat="45.99608" lon="6.62126">
        <ele>604</ele>
        <time>2020-08-16T14:27:54Z</time>
      </trkpt>
      <trkpt lat="45.99615" lon="6.62123">
        <ele>603.6</ele>
        <time>2020-08-16T14:27:55Z</time>
      </trkpt>
      <trkpt lat="45.99622" lon="6.62119">
        <ele>602.8</ele>
        <time>2020-08-16T14:27:56Z</time>
      </trkpt>
      <trkpt lat="45.99629" lon="6.62113">
        <ele>602.2</ele>
        <time>2020-08-16T14:27:57Z</time>
      </trkpt>
      <trkpt lat="45.99634" lon="6.62105">
        <ele>601.2</ele>
        <time>2020-08-16T14:27:58Z</time>
      </trkpt>
      <trkpt lat="45.9964" lon="6.62099">
        <ele>600.4</ele>
        <time>2020-08-16T14:27:59Z</time>
      </trkpt>
      <trkpt lat="45.99645" lon="6.62093">
        <ele>599.4</ele>
        <time>2020-08-16T14:28:00Z</time>
      </trkpt>
      <trkpt lat="45.9965" lon="6.62083">
        <ele>598.6</ele>
        <time>2020-08-16T14:28:01Z</time>
      </trkpt>
      <trkpt lat="45.99653" lon="6.62074">
        <ele>597.4</ele>
        <time>2020-08-16T14:28:02Z</time>
      </trkpt>
      <trkpt lat="45.99657" lon="6.62066">
        <ele>596</ele>
        <time>2020-08-16T14:28:03Z</time>
      </trkpt>
      <trkpt lat="45.99663" lon="6.62058">
        <ele>595.2</ele>
        <time>2020-08-16T14:28:04Z</time>
      </trkpt>
      <trkpt lat="45.9967" lon="6.62054">
        <ele>594</ele>
        <time>2020-08-16T14:28:05Z</time>
      </trkpt>
      <trkpt lat="45.99674" lon="6.6205">
        <ele>593.4</ele>
        <time>2020-08-16T14:28:06Z</time>
      </trkpt>
      <trkpt lat="45.99679" lon="6.62045">
        <ele>592.6</ele>
        <time>2020-08-16T14:28:07Z</time>
      </trkpt>
      <trkpt lat="45.99684" lon="6.62039">
        <ele>592</ele>
        <time>2020-08-16T14:28:08Z</time>
      </trkpt>
      <trkpt lat="45.9969" lon="6.62033">
        <ele>591.2</ele>
        <time>2020-08-16T14:28:09Z</time>
      </trkpt>
      <trkpt lat="45.9969" lon="6.62033">
        <ele>590.6</ele>
        <time>2020-08-16T14:28:10Z</time>
      </trkpt>
      <trkpt lat="45.99693" lon="6.62017">
        <ele>589.4</ele>
        <time>2020-08-16T14:28:11Z</time>
      </trkpt>
      <trkpt lat="45.99696" lon="6.62004">
        <ele>588.6</ele>
        <time>2020-08-16T14:28:12Z</time>
      </trkpt>
      <trkpt lat="45.997" lon="6.61993">
        <ele>588</ele>
        <time>2020-08-16T14:28:13Z</time>
      </trkpt>
      <trkpt lat="45.99703" lon="6.61977">
        <ele>587.2</ele>
        <time>2020-08-16T14:28:14Z</time>
      </trkpt>
      <trkpt lat="45.99709" lon="6.61967">
        <ele>586.6</ele>
        <time>2020-08-16T14:28:15Z</time>
      </trkpt>
      <trkpt lat="45.99715" lon="6.61956">
        <ele>585.6</ele>
        <time>2020-08-16T14:28:16Z</time>
      </trkpt>
      <trkpt lat="45.99719" lon="6.61946">
        <ele>584.6</ele>
        <time>2020-08-16T14:28:17Z</time>
      </trkpt>
      <trkpt lat="45.99723" lon="6.61935">
        <ele>583.8</ele>
        <time>2020-08-16T14:28:18Z</time>
      </trkpt>
      <trkpt lat="45.99724" lon="6.61927">
        <ele>582.6</ele>
        <time>2020-08-16T14:28:19Z</time>
      </trkpt>
      <trkpt lat="45.99727" lon="6.61918">
        <ele>581.6</ele>
        <time>2020-08-16T14:28:20Z</time>
      </trkpt>
      <trkpt lat="45.99732" lon="6.61909">
        <ele>580.6</ele>
        <time>2020-08-16T14:28:21Z</time>
      </trkpt>
      <trkpt lat="45.99739" lon="6.61905">
        <ele>580.2</ele>
        <time>2020-08-16T14:28:22Z</time>
      </trkpt>
      <trkpt lat="45.99746" lon="6.61905">
        <ele>579.2</ele>
        <time>2020-08-16T14:28:23Z</time>
      </trkpt>
      <trkpt lat="45.99752" lon="6.61907">
        <ele>578.8</ele>
        <time>2020-08-16T14:28:24Z</time>
      </trkpt>
      <trkpt lat="45.99759" lon="6.61912">
        <ele>577.8</ele>
        <time>2020-08-16T14:28:25Z</time>
      </trkpt>
      <trkpt lat="45.99768" lon="6.61917">
        <ele>577.4</ele>
        <time>2020-08-16T14:28:26Z</time>
      </trkpt>
      <trkpt lat="45.99775" lon="6.61924">
        <ele>576.4</ele>
        <time>2020-08-16T14:28:27Z</time>
      </trkpt>
      <trkpt lat="45.99782" lon="6.61932">
        <ele>575.6</ele>
        <time>2020-08-16T14:28:28Z</time>
      </trkpt>
      <trkpt lat="45.99791" lon="6.61937">
        <ele>574.4</ele>
        <time>2020-08-16T14:28:29Z</time>
      </trkpt>
      <trkpt lat="45.998" lon="6.61942">
        <ele>573.4</ele>
        <time>2020-08-16T14:28:30Z</time>
      </trkpt>
      <trkpt lat="45.99808" lon="6.61949">
        <ele>572.4</ele>
        <time>2020-08-16T14:28:31Z</time>
      </trkpt>
      <trkpt lat="45.99817" lon="6.61955">
        <ele>571.4</ele>
        <time>2020-08-16T14:28:32Z</time>
      </trkpt>
      <trkpt lat="45.99825" lon="6.6196">
        <ele>570.8</ele>
        <time>2020-08-16T14:28:33Z</time>
      </trkpt>
      <trkpt lat="45.99835" lon="6.61961">
        <ele>569.6</ele>
        <time>2020-08-16T14:28:34Z</time>
      </trkpt>
      <trkpt lat="45.99844" lon="6.61959">
        <ele>568.6</ele>
        <time>2020-08-16T14:28:35Z</time>
      </trkpt>
      <trkpt lat="45.99852" lon="6.61954">
        <ele>567.8</ele>
        <time>2020-08-16T14:28:36Z</time>
      </trkpt>
      <trkpt lat="45.99866" lon="6.61943">
        <ele>567</ele>
        <time>2020-08-16T14:28:37Z</time>
      </trkpt>
      <trkpt lat="45.99876" lon="6.61932">
        <ele>566</ele>
        <time>2020-08-16T14:28:38Z</time>
      </trkpt>
      <trkpt lat="45.99882" lon="6.61921">
        <ele>565.2</ele>
        <time>2020-08-16T14:28:39Z</time>
      </trkpt>
      <trkpt lat="45.9989" lon="6.6191">
        <ele>564.2</ele>
        <time>2020-08-16T14:28:40Z</time>
      </trkpt>
      <trkpt lat="45.99899" lon="6.61901">
        <ele>563.2</ele>
        <time>2020-08-16T14:28:41Z</time>
      </trkpt>
      <trkpt lat="45.99909" lon="6.61893">
        <ele>562.4</ele>
        <time>2020-08-16T14:28:42Z</time>
      </trkpt>
      <trkpt lat="45.9992" lon="6.61888">
        <ele>561</ele>
        <time>2020-08-16T14:28:43Z</time>
      </trkpt>
      <trkpt lat="45.99931" lon="6.61885">
        <ele>560.4</ele>
        <time>2020-08-16T14:28:44Z</time>
      </trkpt>
      <trkpt lat="45.99941" lon="6.61884">
        <ele>559.4</ele>
        <time>2020-08-16T14:28:45Z</time>
      </trkpt>
      <trkpt lat="45.99952" lon="6.61884">
        <ele>558.4</ele>
        <time>2020-08-16T14:28:46Z</time>
      </trkpt>
      <trkpt lat="45.99962" lon="6.61883">
        <ele>557.8</ele>
        <time>2020-08-16T14:28:47Z</time>
      </trkpt>
      <trkpt lat="45.99972" lon="6.6188">
        <ele>556.2</ele>
        <time>2020-08-16T14:28:48Z</time>
      </trkpt>
      <trkpt lat="45.99981" lon="6.61876">
        <ele>555.2</ele>
        <time>2020-08-16T14:28:49Z</time>
      </trkpt>
      <trkpt lat="45.9999" lon="6.61872">
        <ele>554.2</ele>
        <time>2020-08-16T14:28:50Z</time>
      </trkpt>
      <trkpt lat="45.99998" lon="6.61872">
        <ele>553.4</ele>
        <time>2020-08-16T14:28:51Z</time>
      </trkpt>
      <trkpt lat="46.00006" lon="6.61875">
        <ele>552.6</ele>
        <time>2020-08-16T14:28:52Z</time>
      </trkpt>
      <trkpt lat="46.00014" lon="6.61879">
        <ele>552</ele>
        <time>2020-08-16T14:28:53Z</time>
      </trkpt>
      <trkpt lat="46.00021" lon="6.61885">
        <ele>551.4</ele>
        <time>2020-08-16T14:28:54Z</time>
      </trkpt>
      <trkpt lat="46.00028" lon="6.61891">
        <ele>550.2</ele>
        <time>2020-08-16T14:28:55Z</time>
      </trkpt>
      <trkpt lat="46.00035" lon="6.61896">
        <ele>549.6</ele>
        <time>2020-08-16T14:28:56Z</time>
      </trkpt>
      <trkpt lat="46.00042" lon="6.619">
        <ele>548.8</ele>
        <time>2020-08-16T14:28:57Z</time>
      </trkpt>
      <trkpt lat="46.0005" lon="6.61902">
        <ele>548.2</ele>
        <time>2020-08-16T14:28:58Z</time>
      </trkpt>
      <trkpt lat="46.0006" lon="6.61903">
        <ele>547.6</ele>
        <time>2020-08-16T14:28:59Z</time>
      </trkpt>
      <trkpt lat="46.00069" lon="6.61904">
        <ele>546.6</ele>
        <time>2020-08-16T14:29:00Z</time>
      </trkpt>
      <trkpt lat="46.00078" lon="6.61905">
        <ele>546</ele>
        <time>2020-08-16T14:29:01Z</time>
      </trkpt>
      <trkpt lat="46.00087" lon="6.61905">
        <ele>546</ele>
        <time>2020-08-16T14:29:02Z</time>
      </trkpt>
      <trkpt lat="46.00096" lon="6.61905">
        <ele>545.6</ele>
        <time>2020-08-16T14:29:03Z</time>
      </trkpt>
      <trkpt lat="46.00103" lon="6.61907">
        <ele>545.4</ele>
        <time>2020-08-16T14:29:04Z</time>
      </trkpt>
      <trkpt lat="46.0011" lon="6.61908">
        <ele>545.4</ele>
        <time>2020-08-16T14:29:05Z</time>
      </trkpt>
      <trkpt lat="46.00116" lon="6.61908">
        <ele>545.4</ele>
        <time>2020-08-16T14:29:06Z</time>
      </trkpt>
      <trkpt lat="46.00123" lon="6.61908">
        <ele>545.4</ele>
        <time>2020-08-16T14:29:07Z</time>
      </trkpt>
      <trkpt lat="46.00129" lon="6.61909">
        <ele>545.6</ele>
        <time>2020-08-16T14:29:08Z</time>
      </trkpt>
      <trkpt lat="46.00135" lon="6.61909">
        <ele>545.8</ele>
        <time>2020-08-16T14:29:09Z</time>
      </trkpt>
      <trkpt lat="46.00139" lon="6.61909">
        <ele>546</ele>
        <time>2020-08-16T14:29:10Z</time>
      </trkpt>
      <trkpt lat="46.00143" lon="6.61909">
        <ele>546</ele>
        <time>2020-08-16T14:29:11Z</time>
      </trkpt>
      <trkpt lat="46.00146" lon="6.61908">
        <ele>546.2</ele>
        <time>2020-08-16T14:29:12Z</time>
      </trkpt>
      <trkpt lat="46.0015" lon="6.61908">
        <ele>546.4</ele>
        <time>2020-08-16T14:29:13Z</time>
      </trkpt>
      <trkpt lat="46.00152" lon="6.61906">
        <ele>546.4</ele>
        <time>2020-08-16T14:29:14Z</time>
      </trkpt>
      <trkpt lat="46.00154" lon="6.61904">
        <ele>546.6</ele>
        <time>2020-08-16T14:29:15Z</time>
      </trkpt>
      <trkpt lat="46.00154" lon="6.619">
        <ele>546.8</ele>
        <time>2020-08-16T14:29:16Z</time>
      </trkpt>
      <trkpt lat="46.00153" lon="6.61899">
        <ele>547</ele>
        <time>2020-08-16T14:29:17Z</time>
      </trkpt>
      <trkpt lat="46.00152" lon="6.61899">
        <ele>547.2</ele>
        <time>2020-08-16T14:29:18Z</time>
      </trkpt>
      <trkpt lat="46.0015" lon="6.61899">
        <ele>547.2</ele>
        <time>2020-08-16T14:29:19Z</time>
      </trkpt>
      <trkpt lat="46.00149" lon="6.61898">
        <ele>547.2</ele>
        <time>2020-08-16T14:29:20Z</time>
      </trkpt>
      <trkpt lat="46.00148" lon="6.61896">
        <ele>547.4</ele>
        <time>2020-08-16T14:29:21Z</time>
      </trkpt>
      <trkpt lat="46.00148" lon="6.61895">
        <ele>547.6</ele>
        <time>2020-08-16T14:29:22Z</time>
      </trkpt>
      <trkpt lat="46.00148" lon="6.61895">
        <ele>547.6</ele>
        <time>2020-08-16T14:29:23Z</time>
      </trkpt>
      <trkpt lat="46.00149" lon="6.61895">
        <ele>547.6</ele>
        <time>2020-08-16T14:29:24Z</time>
      </trkpt>
      <trkpt lat="46.00149" lon="6.61894">
        <ele>547.6</ele>
        <time>2020-08-16T14:29:25Z</time>
      </trkpt>
      <trkpt lat="46.00149" lon="6.61894">
        <ele>547.6</ele>
        <time>2020-08-16T14:29:26Z</time>
      </trkpt>
      <trkpt lat="46.00149" lon="6.61893">
        <ele>547.6</ele>
        <time>2020-08-16T14:29:27Z</time>
      </trkpt>
      <trkpt lat="46.00149" lon="6.61893">
        <ele>547.6</ele>
        <time>2020-08-16T14:29:28Z</time>
      </trkpt>
      <trkpt lat="46.0015" lon="6.61893">
        <ele>547.6</ele>
        <time>2020-08-16T14:29:29Z</time>
      </trkpt>
      <trkpt lat="46.00161" lon="6.61893">
        <ele>547</ele>
        <time>2020-08-16T14:31:29Z</time>
      </trkpt>
      <trkpt lat="46.00161" lon="6.61893">
        <ele>547</ele>
        <time>2020-08-16T14:31:30Z</time>
      </trkpt>
      <trkpt lat="46.00161" lon="6.61893">
        <ele>546.8</ele>
        <time>2020-08-16T14:31:31Z</time>
      </trkpt>
      <trkpt lat="46.00161" lon="6.61893">
        <ele>546.8</ele>
        <time>2020-08-16T14:31:32Z</time>
      </trkpt>
      <trkpt lat="46.00161" lon="6.61893">
        <ele>546.8</ele>
        <time>2020-08-16T14:31:33Z</time>
      </trkpt>
      <trkpt lat="46.00155" lon="6.61907">
        <ele>545.8</ele>
        <time>2020-08-16T14:32:41Z</time>
      </trkpt>
      <trkpt lat="46.00155" lon="6.61907">
        <ele>545.8</ele>
        <time>2020-08-16T14:32:42Z</time>
      </trkpt>
      <trkpt lat="46.00155" lon="6.61907">
        <ele>545.8</ele>
        <time>2020-08-16T14:32:43Z</time>
      </trkpt>
      <trkpt lat="46.00155" lon="6.61907">
        <ele>545.8</ele>
        <time>2020-08-16T14:32:44Z</time>
      </trkpt>
      <trkpt lat="46.00155" lon="6.61906">
        <ele>545.8</ele>
        <time>2020-08-16T14:32:45Z</time>
      </trkpt>
      <trkpt lat="46.00155" lon="6.61906">
        <ele>545.8</ele>
        <time>2020-08-16T14:32:46Z</time>
      </trkpt>
      <trkpt lat="46.00155" lon="6.61906">
        <ele>545.8</ele>
        <time>2020-08-16T14:32:47Z</time>
      </trkpt>
      <trkpt lat="46.00155" lon="6.61906">
        <ele>545.8</ele>
        <time>2020-08-16T14:32:48Z</time>
      </trkpt>
      <trkpt lat="46.00181" lon="6.61898">
        <ele>543.6</ele>
        <time>2020-08-16T14:35:22Z</time>
      </trkpt>
      <trkpt lat="46.00181" lon="6.61898">
        <ele>543.2</ele>
        <time>2020-08-16T14:35:23Z</time>
      </trkpt>
      <trkpt lat="46.00189" lon="6.61893">
        <ele>542.8</ele>
        <time>2020-08-16T14:35:24Z</time>
      </trkpt>
      <trkpt lat="46.00193" lon="6.61891">
        <ele>542.6</ele>
        <time>2020-08-16T14:35:25Z</time>
      </trkpt>
      <trkpt lat="46.00197" lon="6.61887">
        <ele>542.2</ele>
        <time>2020-08-16T14:35:26Z</time>
      </trkpt>
      <trkpt lat="46.00201" lon="6.61884">
        <ele>541.8</ele>
        <time>2020-08-16T14:35:27Z</time>
      </trkpt>
      <trkpt lat="46.00207" lon="6.61881">
        <ele>541.2</ele>
        <time>2020-08-16T14:35:28Z</time>
      </trkpt>
      <trkpt lat="46.00211" lon="6.61879">
        <ele>541</ele>
        <time>2020-08-16T14:35:29Z</time>
      </trkpt>
      <trkpt lat="46.00216" lon="6.61876">
        <ele>540.6</ele>
        <time>2020-08-16T14:35:30Z</time>
      </trkpt>
      <trkpt lat="46.00219" lon="6.61873">
        <ele>540.2</ele>
        <time>2020-08-16T14:35:31Z</time>
      </trkpt>
      <trkpt lat="46.00222" lon="6.61869">
        <ele>540</ele>
        <time>2020-08-16T14:35:32Z</time>
      </trkpt>
      <trkpt lat="46.00225" lon="6.61867">
        <ele>539.6</ele>
        <time>2020-08-16T14:35:33Z</time>
      </trkpt>
      <trkpt lat="46.00229" lon="6.61867">
        <ele>539.4</ele>
        <time>2020-08-16T14:35:34Z</time>
      </trkpt>
      <trkpt lat="46.00232" lon="6.61868">
        <ele>539.2</ele>
        <time>2020-08-16T14:35:35Z</time>
      </trkpt>
      <trkpt lat="46.00235" lon="6.61871">
        <ele>538.8</ele>
        <time>2020-08-16T14:35:36Z</time>
      </trkpt>
      <trkpt lat="46.00239" lon="6.61876">
        <ele>538.2</ele>
        <time>2020-08-16T14:35:37Z</time>
      </trkpt>
      <trkpt lat="46.00242" lon="6.61881">
        <ele>537.8</ele>
        <time>2020-08-16T14:35:38Z</time>
      </trkpt>
      <trkpt lat="46.00246" lon="6.61888">
        <ele>537.6</ele>
        <time>2020-08-16T14:35:39Z</time>
      </trkpt>
      <trkpt lat="46.00249" lon="6.61895">
        <ele>537.2</ele>
        <time>2020-08-16T14:35:40Z</time>
      </trkpt>
      <trkpt lat="46.00252" lon="6.61902">
        <ele>536.8</ele>
        <time>2020-08-16T14:35:41Z</time>
      </trkpt>
      <trkpt lat="46.00255" lon="6.61909">
        <ele>536.4</ele>
        <time>2020-08-16T14:35:42Z</time>
      </trkpt>
      <trkpt lat="46.00259" lon="6.61917">
        <ele>535.8</ele>
        <time>2020-08-16T14:35:43Z</time>
      </trkpt>
      <trkpt lat="46.00262" lon="6.61925">
        <ele>535.4</ele>
        <time>2020-08-16T14:35:44Z</time>
      </trkpt>
      <trkpt lat="46.00266" lon="6.61932">
        <ele>535</ele>
        <time>2020-08-16T14:35:45Z</time>
      </trkpt>
      <trkpt lat="46.00269" lon="6.61939">
        <ele>534.6</ele>
        <time>2020-08-16T14:35:46Z</time>
      </trkpt>
      <trkpt lat="46.00273" lon="6.61945">
        <ele>534.2</ele>
        <time>2020-08-16T14:35:47Z</time>
      </trkpt>
      <trkpt lat="46.00276" lon="6.6195">
        <ele>533.8</ele>
        <time>2020-08-16T14:35:48Z</time>
      </trkpt>
      <trkpt lat="46.00279" lon="6.61955">
        <ele>533.4</ele>
        <time>2020-08-16T14:35:49Z</time>
      </trkpt>
      <trkpt lat="46.00282" lon="6.61959">
        <ele>533</ele>
        <time>2020-08-16T14:35:50Z</time>
      </trkpt>
      <trkpt lat="46.00286" lon="6.61961">
        <ele>532.8</ele>
        <time>2020-08-16T14:35:51Z</time>
      </trkpt>
      <trkpt lat="46.00289" lon="6.6196">
        <ele>532.4</ele>
        <time>2020-08-16T14:35:52Z</time>
      </trkpt>
      <trkpt lat="46.00293" lon="6.61958">
        <ele>532.4</ele>
        <time>2020-08-16T14:35:53Z</time>
      </trkpt>
      <trkpt lat="46.00296" lon="6.61956">
        <ele>532.2</ele>
        <time>2020-08-16T14:35:54Z</time>
      </trkpt>
      <trkpt lat="46.00299" lon="6.61953">
        <ele>532</ele>
        <time>2020-08-16T14:35:55Z</time>
      </trkpt>
      <trkpt lat="46.00303" lon="6.6195">
        <ele>531.8</ele>
        <time>2020-08-16T14:35:56Z</time>
      </trkpt>
      <trkpt lat="46.00307" lon="6.61946">
        <ele>531.4</ele>
        <time>2020-08-16T14:35:57Z</time>
      </trkpt>
      <trkpt lat="46.00311" lon="6.61943">
        <ele>531.2</ele>
        <time>2020-08-16T14:35:58Z</time>
      </trkpt>
      <trkpt lat="46.00315" lon="6.61939">
        <ele>531</ele>
        <time>2020-08-16T14:35:59Z</time>
      </trkpt>
      <trkpt lat="46.0032" lon="6.61935">
        <ele>531</ele>
        <time>2020-08-16T14:36:00Z</time>
      </trkpt>
      <trkpt lat="46.00325" lon="6.61931">
        <ele>530.6</ele>
        <time>2020-08-16T14:36:01Z</time>
      </trkpt>
      <trkpt lat="46.00329" lon="6.61927">
        <ele>530.4</ele>
        <time>2020-08-16T14:36:02Z</time>
      </trkpt>
      <trkpt lat="46.00334" lon="6.61922">
        <ele>530.2</ele>
        <time>2020-08-16T14:36:03Z</time>
      </trkpt>
      <trkpt lat="46.00339" lon="6.61917">
        <ele>530</ele>
        <time>2020-08-16T14:36:04Z</time>
      </trkpt>
      <trkpt lat="46.00344" lon="6.61912">
        <ele>529.8</ele>
        <time>2020-08-16T14:36:05Z</time>
      </trkpt>
      <trkpt lat="46.00349" lon="6.61907">
        <ele>529.6</ele>
        <time>2020-08-16T14:36:06Z</time>
      </trkpt>
      <trkpt lat="46.00354" lon="6.61903">
        <ele>529.2</ele>
        <time>2020-08-16T14:36:07Z</time>
      </trkpt>
      <trkpt lat="46.00359" lon="6.619">
        <ele>529</ele>
        <time>2020-08-16T14:36:08Z</time>
      </trkpt>
      <trkpt lat="46.00363" lon="6.61896">
        <ele>528.8</ele>
        <time>2020-08-16T14:36:09Z</time>
      </trkpt>
      <trkpt lat="46.00368" lon="6.61892">
        <ele>528.4</ele>
        <time>2020-08-16T14:36:10Z</time>
      </trkpt>
      <trkpt lat="46.00373" lon="6.61888">
        <ele>528.4</ele>
        <time>2020-08-16T14:36:11Z</time>
      </trkpt>
      <trkpt lat="46.00377" lon="6.61882">
        <ele>528.2</ele>
        <time>2020-08-16T14:36:12Z</time>
      </trkpt>
      <trkpt lat="46.00382" lon="6.61878">
        <ele>528</ele>
        <time>2020-08-16T14:36:13Z</time>
      </trkpt>
      <trkpt lat="46.00388" lon="6.61875">
        <ele>527.8</ele>
        <time>2020-08-16T14:36:14Z</time>
      </trkpt>
      <trkpt lat="46.00393" lon="6.61872">
        <ele>527.6</ele>
        <time>2020-08-16T14:36:15Z</time>
      </trkpt>
      <trkpt lat="46.00399" lon="6.61869">
        <ele>527.4</ele>
        <time>2020-08-16T14:36:16Z</time>
      </trkpt>
      <trkpt lat="46.00405" lon="6.61866">
        <ele>527</ele>
        <time>2020-08-16T14:36:17Z</time>
      </trkpt>
      <trkpt lat="46.0041" lon="6.61863">
        <ele>526.8</ele>
        <time>2020-08-16T14:36:18Z</time>
      </trkpt>
      <trkpt lat="46.00416" lon="6.6186">
        <ele>526.6</ele>
        <time>2020-08-16T14:36:19Z</time>
      </trkpt>
      <trkpt lat="46.00422" lon="6.61858">
        <ele>526.6</ele>
        <time>2020-08-16T14:36:20Z</time>
      </trkpt>
      <trkpt lat="46.00427" lon="6.61855">
        <ele>526.4</ele>
        <time>2020-08-16T14:36:21Z</time>
      </trkpt>
      <trkpt lat="46.00434" lon="6.61853">
        <ele>526.2</ele>
        <time>2020-08-16T14:36:22Z</time>
      </trkpt>
      <trkpt lat="46.0044" lon="6.61851">
        <ele>526.2</ele>
        <time>2020-08-16T14:36:23Z</time>
      </trkpt>
      <trkpt lat="46.00445" lon="6.61849">
        <ele>526.2</ele>
        <time>2020-08-16T14:36:24Z</time>
      </trkpt>
      <trkpt lat="46.0045" lon="6.61847">
        <ele>526</ele>
        <time>2020-08-16T14:36:25Z</time>
      </trkpt>
      <trkpt lat="46.00455" lon="6.61845">
        <ele>526</ele>
        <time>2020-08-16T14:36:26Z</time>
      </trkpt>
      <trkpt lat="46.0046" lon="6.61843">
        <ele>526</ele>
        <time>2020-08-16T14:36:27Z</time>
      </trkpt>
      <trkpt lat="46.00466" lon="6.61841">
        <ele>525.8</ele>
        <time>2020-08-16T14:36:28Z</time>
      </trkpt>
      <trkpt lat="46.00471" lon="6.61839">
        <ele>525.8</ele>
        <time>2020-08-16T14:36:29Z</time>
      </trkpt>
      <trkpt lat="46.00476" lon="6.61838">
        <ele>525.6</ele>
        <time>2020-08-16T14:36:30Z</time>
      </trkpt>
      <trkpt lat="46.00481" lon="6.61836">
        <ele>525.6</ele>
        <time>2020-08-16T14:36:31Z</time>
      </trkpt>
      <trkpt lat="46.00486" lon="6.61834">
        <ele>525.6</ele>
        <time>2020-08-16T14:36:32Z</time>
      </trkpt>
      <trkpt lat="46.0049" lon="6.61833">
        <ele>525.8</ele>
        <time>2020-08-16T14:36:33Z</time>
      </trkpt>
      <trkpt lat="46.00494" lon="6.61831">
        <ele>526</ele>
        <time>2020-08-16T14:36:34Z</time>
      </trkpt>
      <trkpt lat="46.00498" lon="6.61829">
        <ele>525.8</ele>
        <time>2020-08-16T14:36:35Z</time>
      </trkpt>
      <trkpt lat="46.00502" lon="6.61827">
        <ele>525.8</ele>
        <time>2020-08-16T14:36:36Z</time>
      </trkpt>
      <trkpt lat="46.00506" lon="6.61825">
        <ele>525.8</ele>
        <time>2020-08-16T14:36:37Z</time>
      </trkpt>
      <trkpt lat="46.00509" lon="6.61824">
        <ele>525.8</ele>
        <time>2020-08-16T14:36:38Z</time>
      </trkpt>
      <trkpt lat="46.00513" lon="6.61822">
        <ele>526</ele>
        <time>2020-08-16T14:36:39Z</time>
      </trkpt>
      <trkpt lat="46.00516" lon="6.61821">
        <ele>526</ele>
        <time>2020-08-16T14:36:40Z</time>
      </trkpt>
      <trkpt lat="46.0052" lon="6.6182">
        <ele>526</ele>
        <time>2020-08-16T14:36:41Z</time>
      </trkpt>
      <trkpt lat="46.00524" lon="6.61818">
        <ele>526</ele>
        <time>2020-08-16T14:36:42Z</time>
      </trkpt>
      <trkpt lat="46.00528" lon="6.61816">
        <ele>526</ele>
        <time>2020-08-16T14:36:43Z</time>
      </trkpt>
      <trkpt lat="46.00532" lon="6.61814">
        <ele>526.2</ele>
        <time>2020-08-16T14:36:44Z</time>
      </trkpt>
      <trkpt lat="46.00535" lon="6.61812">
        <ele>526.4</ele>
        <time>2020-08-16T14:36:45Z</time>
      </trkpt>
      <trkpt lat="46.00538" lon="6.6181">
        <ele>526.4</ele>
        <time>2020-08-16T14:36:46Z</time>
      </trkpt>
      <trkpt lat="46.00542" lon="6.61808">
        <ele>526.6</ele>
        <time>2020-08-16T14:36:47Z</time>
      </trkpt>
      <trkpt lat="46.00545" lon="6.61806">
        <ele>526.6</ele>
        <time>2020-08-16T14:36:48Z</time>
      </trkpt>
      <trkpt lat="46.00548" lon="6.61805">
        <ele>526.6</ele>
        <time>2020-08-16T14:36:49Z</time>
      </trkpt>
      <trkpt lat="46.00552" lon="6.61803">
        <ele>526.8</ele>
        <time>2020-08-16T14:36:50Z</time>
      </trkpt>
      <trkpt lat="46.00555" lon="6.61801">
        <ele>526.8</ele>
        <time>2020-08-16T14:36:51Z</time>
      </trkpt>
      <trkpt lat="46.00559" lon="6.61798">
        <ele>526.8</ele>
        <time>2020-08-16T14:36:52Z</time>
      </trkpt>
      <trkpt lat="46.00562" lon="6.61796">
        <ele>527</ele>
        <time>2020-08-16T14:36:53Z</time>
      </trkpt>
      <trkpt lat="46.00566" lon="6.61793">
        <ele>527</ele>
        <time>2020-08-16T14:36:54Z</time>
      </trkpt>
      <trkpt lat="46.00569" lon="6.61791">
        <ele>527</ele>
        <time>2020-08-16T14:36:55Z</time>
      </trkpt>
      <trkpt lat="46.00573" lon="6.61789">
        <ele>527</ele>
        <time>2020-08-16T14:36:56Z</time>
      </trkpt>
      <trkpt lat="46.00577" lon="6.61787">
        <ele>527.2</ele>
        <time>2020-08-16T14:36:57Z</time>
      </trkpt>
      <trkpt lat="46.00581" lon="6.61784">
        <ele>527.2</ele>
        <time>2020-08-16T14:36:58Z</time>
      </trkpt>
      <trkpt lat="46.00584" lon="6.61782">
        <ele>527.2</ele>
        <time>2020-08-16T14:36:59Z</time>
      </trkpt>
      <trkpt lat="46.00588" lon="6.61779">
        <ele>527.4</ele>
        <time>2020-08-16T14:37:00Z</time>
      </trkpt>
      <trkpt lat="46.00591" lon="6.61777">
        <ele>527.6</ele>
        <time>2020-08-16T14:37:01Z</time>
      </trkpt>
      <trkpt lat="46.00595" lon="6.61775">
        <ele>527.8</ele>
        <time>2020-08-16T14:37:02Z</time>
      </trkpt>
      <trkpt lat="46.00598" lon="6.61773">
        <ele>527.8</ele>
        <time>2020-08-16T14:37:03Z</time>
      </trkpt>
      <trkpt lat="46.00601" lon="6.61771">
        <ele>527.8</ele>
        <time>2020-08-16T14:37:04Z</time>
      </trkpt>
      <trkpt lat="46.00604" lon="6.61769">
        <ele>528</ele>
        <time>2020-08-16T14:37:05Z</time>
      </trkpt>
      <trkpt lat="46.00607" lon="6.61767">
        <ele>528</ele>
        <time>2020-08-16T14:37:06Z</time>
      </trkpt>
      <trkpt lat="46.0061" lon="6.61764">
        <ele>528.2</ele>
        <time>2020-08-16T14:37:07Z</time>
      </trkpt>
      <trkpt lat="46.00613" lon="6.61761">
        <ele>528.4</ele>
        <time>2020-08-16T14:37:08Z</time>
      </trkpt>
      <trkpt lat="46.00616" lon="6.61759">
        <ele>528.4</ele>
        <time>2020-08-16T14:37:09Z</time>
      </trkpt>
      <trkpt lat="46.00619" lon="6.61757">
        <ele>528.6</ele>
        <time>2020-08-16T14:37:10Z</time>
      </trkpt>
      <trkpt lat="46.00622" lon="6.61756">
        <ele>528.4</ele>
        <time>2020-08-16T14:37:11Z</time>
      </trkpt>
      <trkpt lat="46.00625" lon="6.61754">
        <ele>528.4</ele>
        <time>2020-08-16T14:37:12Z</time>
      </trkpt>
      <trkpt lat="46.00629" lon="6.61752">
        <ele>528.4</ele>
        <time>2020-08-16T14:37:13Z</time>
      </trkpt>
      <trkpt lat="46.00632" lon="6.6175">
        <ele>528.6</ele>
        <time>2020-08-16T14:37:14Z</time>
      </trkpt>
      <trkpt lat="46.00635" lon="6.61748">
        <ele>528.6</ele>
        <time>2020-08-16T14:37:15Z</time>
      </trkpt>
      <trkpt lat="46.00639" lon="6.61745">
        <ele>528.8</ele>
        <time>2020-08-16T14:37:16Z</time>
      </trkpt>
      <trkpt lat="46.00642" lon="6.61742">
        <ele>528.8</ele>
        <time>2020-08-16T14:37:17Z</time>
      </trkpt>
      <trkpt lat="46.00645" lon="6.6174">
        <ele>529</ele>
        <time>2020-08-16T14:37:18Z</time>
      </trkpt>
      <trkpt lat="46.00648" lon="6.61737">
        <ele>529</ele>
        <time>2020-08-16T14:37:19Z</time>
      </trkpt>
      <trkpt lat="46.00651" lon="6.61733">
        <ele>529</ele>
        <time>2020-08-16T14:37:20Z</time>
      </trkpt>
      <trkpt lat="46.00653" lon="6.61729">
        <ele>529.2</ele>
        <time>2020-08-16T14:37:21Z</time>
      </trkpt>
      <trkpt lat="46.00655" lon="6.61725">
        <ele>529.2</ele>
        <time>2020-08-16T14:37:22Z</time>
      </trkpt>
      <trkpt lat="46.00657" lon="6.61721">
        <ele>529.4</ele>
        <time>2020-08-16T14:37:23Z</time>
      </trkpt>
      <trkpt lat="46.00659" lon="6.61717">
        <ele>529.4</ele>
        <time>2020-08-16T14:37:24Z</time>
      </trkpt>
      <trkpt lat="46.00661" lon="6.61713">
        <ele>529.4</ele>
        <time>2020-08-16T14:37:25Z</time>
      </trkpt>
      <trkpt lat="46.00664" lon="6.6171">
        <ele>529.6</ele>
        <time>2020-08-16T14:37:26Z</time>
      </trkpt>
      <trkpt lat="46.00666" lon="6.61706">
        <ele>529.8</ele>
        <time>2020-08-16T14:37:27Z</time>
      </trkpt>
      <trkpt lat="46.00668" lon="6.61703">
        <ele>530</ele>
        <time>2020-08-16T14:37:28Z</time>
      </trkpt>
      <trkpt lat="46.0067" lon="6.617">
        <ele>530</ele>
        <time>2020-08-16T14:37:29Z</time>
      </trkpt>
      <trkpt lat="46.00673" lon="6.61697">
        <ele>530.4</ele>
        <time>2020-08-16T14:37:30Z</time>
      </trkpt>
      <trkpt lat="46.00675" lon="6.61694">
        <ele>530.4</ele>
        <time>2020-08-16T14:37:31Z</time>
      </trkpt>
      <trkpt lat="46.00678" lon="6.61691">
        <ele>530.6</ele>
        <time>2020-08-16T14:37:32Z</time>
      </trkpt>
      <trkpt lat="46.0068" lon="6.61689">
        <ele>530.6</ele>
        <time>2020-08-16T14:37:33Z</time>
      </trkpt>
      <trkpt lat="46.00682" lon="6.61685">
        <ele>531</ele>
        <time>2020-08-16T14:37:34Z</time>
      </trkpt>
      <trkpt lat="46.00685" lon="6.61683">
        <ele>531</ele>
        <time>2020-08-16T14:37:35Z</time>
      </trkpt>
      <trkpt lat="46.00688" lon="6.61681">
        <ele>531.2</ele>
        <time>2020-08-16T14:37:36Z</time>
      </trkpt>
      <trkpt lat="46.0069" lon="6.61679">
        <ele>531.2</ele>
        <time>2020-08-16T14:37:37Z</time>
      </trkpt>
      <trkpt lat="46.00693" lon="6.61676">
        <ele>531.4</ele>
        <time>2020-08-16T14:37:38Z</time>
      </trkpt>
      <trkpt lat="46.00695" lon="6.61674">
        <ele>531.6</ele>
        <time>2020-08-16T14:37:39Z</time>
      </trkpt>
      <trkpt lat="46.00698" lon="6.61671">
        <ele>531.8</ele>
        <time>2020-08-16T14:37:40Z</time>
      </trkpt>
      <trkpt lat="46.00701" lon="6.61668">
        <ele>531.8</ele>
        <time>2020-08-16T14:37:41Z</time>
      </trkpt>
      <trkpt lat="46.00703" lon="6.61667">
        <ele>532</ele>
        <time>2020-08-16T14:37:42Z</time>
      </trkpt>
      <trkpt lat="46.00705" lon="6.61665">
        <ele>532</ele>
        <time>2020-08-16T14:37:43Z</time>
      </trkpt>
      <trkpt lat="46.00707" lon="6.61664">
        <ele>532.2</ele>
        <time>2020-08-16T14:37:44Z</time>
      </trkpt>
      <trkpt lat="46.0071" lon="6.61663">
        <ele>532.4</ele>
        <time>2020-08-16T14:37:45Z</time>
      </trkpt>
      <trkpt lat="46.00712" lon="6.61662">
        <ele>532.4</ele>
        <time>2020-08-16T14:37:46Z</time>
      </trkpt>
      <trkpt lat="46.00715" lon="6.61661">
        <ele>532.6</ele>
        <time>2020-08-16T14:37:47Z</time>
      </trkpt>
      <trkpt lat="46.00717" lon="6.6166">
        <ele>532.6</ele>
        <time>2020-08-16T14:37:48Z</time>
      </trkpt>
      <trkpt lat="46.00719" lon="6.61659">
        <ele>532.8</ele>
        <time>2020-08-16T14:37:49Z</time>
      </trkpt>
      <trkpt lat="46.00722" lon="6.61658">
        <ele>532.8</ele>
        <time>2020-08-16T14:37:50Z</time>
      </trkpt>
      <trkpt lat="46.00724" lon="6.61658">
        <ele>533</ele>
        <time>2020-08-16T14:37:51Z</time>
      </trkpt>
      <trkpt lat="46.00727" lon="6.61657">
        <ele>533.2</ele>
        <time>2020-08-16T14:37:52Z</time>
      </trkpt>
      <trkpt lat="46.0073" lon="6.61656">
        <ele>533.2</ele>
        <time>2020-08-16T14:37:53Z</time>
      </trkpt>
      <trkpt lat="46.00731" lon="6.61656">
        <ele>533.4</ele>
        <time>2020-08-16T14:37:54Z</time>
      </trkpt>
      <trkpt lat="46.00734" lon="6.61655">
        <ele>533.6</ele>
        <time>2020-08-16T14:37:55Z</time>
      </trkpt>
      <trkpt lat="46.00736" lon="6.61655">
        <ele>533.6</ele>
        <time>2020-08-16T14:37:56Z</time>
      </trkpt>
      <trkpt lat="46.00738" lon="6.61654">
        <ele>533.8</ele>
        <time>2020-08-16T14:37:57Z</time>
      </trkpt>
      <trkpt lat="46.0074" lon="6.61653">
        <ele>533.8</ele>
        <time>2020-08-16T14:37:58Z</time>
      </trkpt>
      <trkpt lat="46.00742" lon="6.61652">
        <ele>534</ele>
        <time>2020-08-16T14:37:59Z</time>
      </trkpt>
      <trkpt lat="46.00745" lon="6.61651">
        <ele>534</ele>
        <time>2020-08-16T14:38:00Z</time>
      </trkpt>
      <trkpt lat="46.00747" lon="6.6165">
        <ele>534.2</ele>
        <time>2020-08-16T14:38:01Z</time>
      </trkpt>
      <trkpt lat="46.00749" lon="6.61648">
        <ele>534.4</ele>
        <time>2020-08-16T14:38:02Z</time>
      </trkpt>
      <trkpt lat="46.00751" lon="6.61646">
        <ele>534.6</ele>
        <time>2020-08-16T14:38:03Z</time>
      </trkpt>
      <trkpt lat="46.00753" lon="6.61646">
        <ele>534.8</ele>
        <time>2020-08-16T14:38:04Z</time>
      </trkpt>
      <trkpt lat="46.00756" lon="6.61645">
        <ele>534.8</ele>
        <time>2020-08-16T14:38:05Z</time>
      </trkpt>
      <trkpt lat="46.00758" lon="6.61644">
        <ele>534.8</ele>
        <time>2020-08-16T14:38:06Z</time>
      </trkpt>
      <trkpt lat="46.0076" lon="6.61643">
        <ele>534.8</ele>
        <time>2020-08-16T14:38:07Z</time>
      </trkpt>
      <trkpt lat="46.00761" lon="6.61641">
        <ele>535</ele>
        <time>2020-08-16T14:38:08Z</time>
      </trkpt>
      <trkpt lat="46.00763" lon="6.6164">
        <ele>535</ele>
        <time>2020-08-16T14:38:09Z</time>
      </trkpt>
      <trkpt lat="46.00765" lon="6.61638">
        <ele>535.2</ele>
        <time>2020-08-16T14:38:10Z</time>
      </trkpt>
      <trkpt lat="46.00767" lon="6.61638">
        <ele>535.2</ele>
        <time>2020-08-16T14:38:11Z</time>
      </trkpt>
      <trkpt lat="46.00768" lon="6.61638">
        <ele>535.4</ele>
        <time>2020-08-16T14:38:12Z</time>
      </trkpt>
      <trkpt lat="46.00769" lon="6.61637">
        <ele>535.4</ele>
        <time>2020-08-16T14:38:13Z</time>
      </trkpt>
      <trkpt lat="46.00772" lon="6.61637">
        <ele>535.4</ele>
        <time>2020-08-16T14:38:14Z</time>
      </trkpt>
      <trkpt lat="46.00772" lon="6.61636">
        <ele>535.4</ele>
        <time>2020-08-16T14:38:15Z</time>
      </trkpt>
      <trkpt lat="46.00773" lon="6.61636">
        <ele>535.6</ele>
        <time>2020-08-16T14:38:16Z</time>
      </trkpt>
      <trkpt lat="46.00774" lon="6.61635">
        <ele>535.6</ele>
        <time>2020-08-16T14:38:17Z</time>
      </trkpt>
      <trkpt lat="46.00774" lon="6.61635">
        <ele>535.6</ele>
        <time>2020-08-16T14:38:18Z</time>
      </trkpt>
      <trkpt lat="46.00774" lon="6.61635">
        <ele>535.6</ele>
        <time>2020-08-16T14:38:19Z</time>
      </trkpt>
      <trkpt lat="46.00774" lon="6.61634">
        <ele>535.6</ele>
        <time>2020-08-16T14:38:20Z</time>
      </trkpt>
      <trkpt lat="46.00775" lon="6.61634">
        <ele>535.6</ele>
        <time>2020-08-16T14:38:21Z</time>
      </trkpt>
      <trkpt lat="46.00775" lon="6.61634">
        <ele>535.6</ele>
        <time>2020-08-16T14:38:22Z</time>
      </trkpt>
      <trkpt lat="46.00775" lon="6.61633">
        <ele>535.6</ele>
        <time>2020-08-16T14:38:23Z</time>
      </trkpt>
      <trkpt lat="46.00775" lon="6.61633">
        <ele>535.8</ele>
        <time>2020-08-16T14:38:24Z</time>
      </trkpt>
      <trkpt lat="46.00793" lon="6.61628">
        <ele>536.6</ele>
        <time>2020-08-16T14:38:48Z</time>
      </trkpt>
      <trkpt lat="46.00793" lon="6.61628">
        <ele>536.8</ele>
        <time>2020-08-16T14:38:49Z</time>
      </trkpt>
      <trkpt lat="46.00797" lon="6.61627">
        <ele>537</ele>
        <time>2020-08-16T14:38:50Z</time>
      </trkpt>
      <trkpt lat="46.008" lon="6.61626">
        <ele>537.2</ele>
        <time>2020-08-16T14:38:51Z</time>
      </trkpt>
      <trkpt lat="46.00803" lon="6.61625">
        <ele>537.4</ele>
        <time>2020-08-16T14:38:52Z</time>
      </trkpt>
      <trkpt lat="46.00806" lon="6.61624">
        <ele>537.4</ele>
        <time>2020-08-16T14:38:53Z</time>
      </trkpt>
      <trkpt lat="46.00809" lon="6.61622">
        <ele>537.6</ele>
        <time>2020-08-16T14:38:54Z</time>
      </trkpt>
      <trkpt lat="46.00812" lon="6.61621">
        <ele>537.6</ele>
        <time>2020-08-16T14:38:55Z</time>
      </trkpt>
      <trkpt lat="46.00814" lon="6.6162">
        <ele>537.8</ele>
        <time>2020-08-16T14:38:56Z</time>
      </trkpt>
      <trkpt lat="46.00818" lon="6.61619">
        <ele>537.8</ele>
        <time>2020-08-16T14:38:57Z</time>
      </trkpt>
      <trkpt lat="46.00822" lon="6.61618">
        <ele>538</ele>
        <time>2020-08-16T14:38:58Z</time>
      </trkpt>
      <trkpt lat="46.00825" lon="6.61617">
        <ele>538.2</ele>
        <time>2020-08-16T14:38:59Z</time>
      </trkpt>
      <trkpt lat="46.00828" lon="6.61616">
        <ele>538.4</ele>
        <time>2020-08-16T14:39:00Z</time>
      </trkpt>
      <trkpt lat="46.00831" lon="6.61614">
        <ele>538.4</ele>
        <time>2020-08-16T14:39:01Z</time>
      </trkpt>
      <trkpt lat="46.00834" lon="6.61613">
        <ele>538.6</ele>
        <time>2020-08-16T14:39:02Z</time>
      </trkpt>
      <trkpt lat="46.00837" lon="6.61612">
        <ele>538.8</ele>
        <time>2020-08-16T14:39:03Z</time>
      </trkpt>
      <trkpt lat="46.0084" lon="6.61611">
        <ele>539</ele>
        <time>2020-08-16T14:39:04Z</time>
      </trkpt>
      <trkpt lat="46.00843" lon="6.6161">
        <ele>539.2</ele>
        <time>2020-08-16T14:39:05Z</time>
      </trkpt>
      <trkpt lat="46.00847" lon="6.61608">
        <ele>539.4</ele>
        <time>2020-08-16T14:39:06Z</time>
      </trkpt>
      <trkpt lat="46.0085" lon="6.61607">
        <ele>539.4</ele>
        <time>2020-08-16T14:39:07Z</time>
      </trkpt>
      <trkpt lat="46.00853" lon="6.61606">
        <ele>539.6</ele>
        <time>2020-08-16T14:39:08Z</time>
      </trkpt>
      <trkpt lat="46.00856" lon="6.61605">
        <ele>539.8</ele>
        <time>2020-08-16T14:39:09Z</time>
      </trkpt>
      <trkpt lat="46.00859" lon="6.61604">
        <ele>540</ele>
        <time>2020-08-16T14:39:10Z</time>
      </trkpt>
      <trkpt lat="46.00861" lon="6.61603">
        <ele>540</ele>
        <time>2020-08-16T14:39:11Z</time>
      </trkpt>
      <trkpt lat="46.00864" lon="6.61601">
        <ele>540.2</ele>
        <time>2020-08-16T14:39:12Z</time>
      </trkpt>
      <trkpt lat="46.00866" lon="6.616">
        <ele>540.4</ele>
        <time>2020-08-16T14:39:13Z</time>
      </trkpt>
      <trkpt lat="46.00869" lon="6.61599">
        <ele>540.6</ele>
        <time>2020-08-16T14:39:14Z</time>
      </trkpt>
      <trkpt lat="46.00872" lon="6.61598">
        <ele>540.8</ele>
        <time>2020-08-16T14:39:15Z</time>
      </trkpt>
      <trkpt lat="46.00874" lon="6.61598">
        <ele>540.8</ele>
        <time>2020-08-16T14:39:16Z</time>
      </trkpt>
      <trkpt lat="46.00877" lon="6.61597">
        <ele>541</ele>
        <time>2020-08-16T14:39:17Z</time>
      </trkpt>
      <trkpt lat="46.00881" lon="6.61597">
        <ele>541</ele>
        <time>2020-08-16T14:39:18Z</time>
      </trkpt>
      <trkpt lat="46.00884" lon="6.61597">
        <ele>541</ele>
        <time>2020-08-16T14:39:19Z</time>
      </trkpt>
      <trkpt lat="46.00887" lon="6.61597">
        <ele>541</ele>
        <time>2020-08-16T14:39:20Z</time>
      </trkpt>
      <trkpt lat="46.00891" lon="6.61597">
        <ele>541</ele>
        <time>2020-08-16T14:39:21Z</time>
      </trkpt>
      <trkpt lat="46.00894" lon="6.61597">
        <ele>541</ele>
        <time>2020-08-16T14:39:22Z</time>
      </trkpt>
      <trkpt lat="46.00898" lon="6.61597">
        <ele>540.8</ele>
        <time>2020-08-16T14:39:23Z</time>
      </trkpt>
      <trkpt lat="46.00903" lon="6.61596">
        <ele>540.8</ele>
        <time>2020-08-16T14:39:24Z</time>
      </trkpt>
      <trkpt lat="46.00909" lon="6.61596">
        <ele>540.8</ele>
        <time>2020-08-16T14:39:25Z</time>
      </trkpt>
      <trkpt lat="46.00913" lon="6.61596">
        <ele>540.6</ele>
        <time>2020-08-16T14:39:26Z</time>
      </trkpt>
      <trkpt lat="46.00918" lon="6.61594">
        <ele>540.6</ele>
        <time>2020-08-16T14:39:27Z</time>
      </trkpt>
      <trkpt lat="46.00923" lon="6.61592">
        <ele>540.4</ele>
        <time>2020-08-16T14:39:28Z</time>
      </trkpt>
      <trkpt lat="46.00928" lon="6.61589">
        <ele>540.4</ele>
        <time>2020-08-16T14:39:29Z</time>
      </trkpt>
      <trkpt lat="46.00932" lon="6.61586">
        <ele>540.2</ele>
        <time>2020-08-16T14:39:30Z</time>
      </trkpt>
      <trkpt lat="46.00936" lon="6.61583">
        <ele>540.2</ele>
        <time>2020-08-16T14:39:31Z</time>
      </trkpt>
      <trkpt lat="46.00939" lon="6.61579">
        <ele>540</ele>
        <time>2020-08-16T14:39:32Z</time>
      </trkpt>
      <trkpt lat="46.00944" lon="6.61575">
        <ele>540</ele>
        <time>2020-08-16T14:39:33Z</time>
      </trkpt>
      <trkpt lat="46.00947" lon="6.6157">
        <ele>540</ele>
        <time>2020-08-16T14:39:34Z</time>
      </trkpt>
      <trkpt lat="46.00951" lon="6.61566">
        <ele>539.8</ele>
        <time>2020-08-16T14:39:35Z</time>
      </trkpt>
      <trkpt lat="46.00956" lon="6.61561">
        <ele>539.8</ele>
        <time>2020-08-16T14:39:36Z</time>
      </trkpt>
      <trkpt lat="46.00959" lon="6.61556">
        <ele>540</ele>
        <time>2020-08-16T14:39:37Z</time>
      </trkpt>
      <trkpt lat="46.00963" lon="6.61551">
        <ele>540</ele>
        <time>2020-08-16T14:39:38Z</time>
      </trkpt>
      <trkpt lat="46.00967" lon="6.61546">
        <ele>540.2</ele>
        <time>2020-08-16T14:39:39Z</time>
      </trkpt>
      <trkpt lat="46.00971" lon="6.61541">
        <ele>540.4</ele>
        <time>2020-08-16T14:39:40Z</time>
      </trkpt>
      <trkpt lat="46.00974" lon="6.61537">
        <ele>540.6</ele>
        <time>2020-08-16T14:39:41Z</time>
      </trkpt>
      <trkpt lat="46.00977" lon="6.61533">
        <ele>540.8</ele>
        <time>2020-08-16T14:39:42Z</time>
      </trkpt>
      <trkpt lat="46.0098" lon="6.61529">
        <ele>541</ele>
        <time>2020-08-16T14:39:43Z</time>
      </trkpt>
      <trkpt lat="46.00983" lon="6.61526">
        <ele>541</ele>
        <time>2020-08-16T14:39:44Z</time>
      </trkpt>
      <trkpt lat="46.00986" lon="6.61522">
        <ele>541.2</ele>
        <time>2020-08-16T14:39:45Z</time>
      </trkpt>
      <trkpt lat="46.00989" lon="6.61518">
        <ele>541.2</ele>
        <time>2020-08-16T14:39:46Z</time>
      </trkpt>
      <trkpt lat="46.00992" lon="6.61514">
        <ele>541.2</ele>
        <time>2020-08-16T14:39:47Z</time>
      </trkpt>
      <trkpt lat="46.00995" lon="6.6151">
        <ele>541.4</ele>
        <time>2020-08-16T14:39:48Z</time>
      </trkpt>
      <trkpt lat="46.00998" lon="6.61507">
        <ele>541.2</ele>
        <time>2020-08-16T14:39:49Z</time>
      </trkpt>
      <trkpt lat="46.01002" lon="6.61504">
        <ele>541.2</ele>
        <time>2020-08-16T14:39:50Z</time>
      </trkpt>
      <trkpt lat="46.01005" lon="6.61502">
        <ele>541.2</ele>
        <time>2020-08-16T14:39:51Z</time>
      </trkpt>
      <trkpt lat="46.01009" lon="6.61499">
        <ele>541</ele>
        <time>2020-08-16T14:39:52Z</time>
      </trkpt>
      <trkpt lat="46.01013" lon="6.61497">
        <ele>540.8</ele>
        <time>2020-08-16T14:39:53Z</time>
      </trkpt>
      <trkpt lat="46.01018" lon="6.61495">
        <ele>540.6</ele>
        <time>2020-08-16T14:39:54Z</time>
      </trkpt>
      <trkpt lat="46.01023" lon="6.61494">
        <ele>540.4</ele>
        <time>2020-08-16T14:39:55Z</time>
      </trkpt>
      <trkpt lat="46.01028" lon="6.61493">
        <ele>540.2</ele>
        <time>2020-08-16T14:39:56Z</time>
      </trkpt>
      <trkpt lat="46.01034" lon="6.61493">
        <ele>539.8</ele>
        <time>2020-08-16T14:39:57Z</time>
      </trkpt>
      <trkpt lat="46.0104" lon="6.61492">
        <ele>539.4</ele>
        <time>2020-08-16T14:39:58Z</time>
      </trkpt>
      <trkpt lat="46.01047" lon="6.61492">
        <ele>539</ele>
        <time>2020-08-16T14:39:59Z</time>
      </trkpt>
      <trkpt lat="46.01053" lon="6.61492">
        <ele>538.6</ele>
        <time>2020-08-16T14:40:00Z</time>
      </trkpt>
      <trkpt lat="46.01061" lon="6.61491">
        <ele>538</ele>
        <time>2020-08-16T14:40:01Z</time>
      </trkpt>
      <trkpt lat="46.01069" lon="6.61491">
        <ele>537.4</ele>
        <time>2020-08-16T14:40:02Z</time>
      </trkpt>
      <trkpt lat="46.01077" lon="6.6149">
        <ele>537</ele>
        <time>2020-08-16T14:40:03Z</time>
      </trkpt>
      <trkpt lat="46.01085" lon="6.6149">
        <ele>536.4</ele>
        <time>2020-08-16T14:40:04Z</time>
      </trkpt>
      <trkpt lat="46.01094" lon="6.6149">
        <ele>535.8</ele>
        <time>2020-08-16T14:40:05Z</time>
      </trkpt>
      <trkpt lat="46.01103" lon="6.6149">
        <ele>535</ele>
        <time>2020-08-16T14:40:06Z</time>
      </trkpt>
      <trkpt lat="46.01112" lon="6.61489">
        <ele>534.2</ele>
        <time>2020-08-16T14:40:07Z</time>
      </trkpt>
      <trkpt lat="46.01122" lon="6.61488">
        <ele>533.4</ele>
        <time>2020-08-16T14:40:08Z</time>
      </trkpt>
      <trkpt lat="46.01131" lon="6.61486">
        <ele>532.8</ele>
        <time>2020-08-16T14:40:09Z</time>
      </trkpt>
      <trkpt lat="46.01141" lon="6.61483">
        <ele>532.4</ele>
        <time>2020-08-16T14:40:10Z</time>
      </trkpt>
      <trkpt lat="46.0115" lon="6.6148">
        <ele>532</ele>
        <time>2020-08-16T14:40:11Z</time>
      </trkpt>
      <trkpt lat="46.01158" lon="6.61476">
        <ele>531.8</ele>
        <time>2020-08-16T14:40:12Z</time>
      </trkpt>
      <trkpt lat="46.01167" lon="6.61472">
        <ele>531.6</ele>
        <time>2020-08-16T14:40:13Z</time>
      </trkpt>
      <trkpt lat="46.01175" lon="6.6147">
        <ele>531.6</ele>
        <time>2020-08-16T14:40:14Z</time>
      </trkpt>
      <trkpt lat="46.01183" lon="6.61467">
        <ele>531.8</ele>
        <time>2020-08-16T14:40:15Z</time>
      </trkpt>
      <trkpt lat="46.0119" lon="6.61466">
        <ele>532</ele>
        <time>2020-08-16T14:40:16Z</time>
      </trkpt>
      <trkpt lat="46.01197" lon="6.61464">
        <ele>532.2</ele>
        <time>2020-08-16T14:40:17Z</time>
      </trkpt>
      <trkpt lat="46.01204" lon="6.61463">
        <ele>532</ele>
        <time>2020-08-16T14:40:18Z</time>
      </trkpt>
      <trkpt lat="46.01211" lon="6.61462">
        <ele>532</ele>
        <time>2020-08-16T14:40:19Z</time>
      </trkpt>
      <trkpt lat="46.01217" lon="6.6146">
        <ele>532</ele>
        <time>2020-08-16T14:40:20Z</time>
      </trkpt>
      <trkpt lat="46.01223" lon="6.61459">
        <ele>532</ele>
        <time>2020-08-16T14:40:21Z</time>
      </trkpt>
      <trkpt lat="46.01229" lon="6.61458">
        <ele>531.8</ele>
        <time>2020-08-16T14:40:22Z</time>
      </trkpt>
      <trkpt lat="46.01234" lon="6.61457">
        <ele>531.8</ele>
        <time>2020-08-16T14:40:23Z</time>
      </trkpt>
      <trkpt lat="46.0124" lon="6.61456">
        <ele>532</ele>
        <time>2020-08-16T14:40:24Z</time>
      </trkpt>
      <trkpt lat="46.01246" lon="6.61455">
        <ele>532.2</ele>
        <time>2020-08-16T14:40:25Z</time>
      </trkpt>
      <trkpt lat="46.01251" lon="6.61453">
        <ele>532.2</ele>
        <time>2020-08-16T14:40:26Z</time>
      </trkpt>
      <trkpt lat="46.01256" lon="6.61452">
        <ele>532.4</ele>
        <time>2020-08-16T14:40:27Z</time>
      </trkpt>
      <trkpt lat="46.0126" lon="6.6145">
        <ele>532.4</ele>
        <time>2020-08-16T14:40:28Z</time>
      </trkpt>
      <trkpt lat="46.01265" lon="6.61449">
        <ele>532.8</ele>
        <time>2020-08-16T14:40:29Z</time>
      </trkpt>
      <trkpt lat="46.01269" lon="6.61448">
        <ele>533</ele>
        <time>2020-08-16T14:40:30Z</time>
      </trkpt>
      <trkpt lat="46.01273" lon="6.61447">
        <ele>533.2</ele>
        <time>2020-08-16T14:40:31Z</time>
      </trkpt>
      <trkpt lat="46.01276" lon="6.61446">
        <ele>533.4</ele>
        <time>2020-08-16T14:40:32Z</time>
      </trkpt>
      <trkpt lat="46.0128" lon="6.61446">
        <ele>533.6</ele>
        <time>2020-08-16T14:40:33Z</time>
      </trkpt>
      <trkpt lat="46.01284" lon="6.61445">
        <ele>533.8</ele>
        <time>2020-08-16T14:40:34Z</time>
      </trkpt>
      <trkpt lat="46.01287" lon="6.61444">
        <ele>534</ele>
        <time>2020-08-16T14:40:35Z</time>
      </trkpt>
      <trkpt lat="46.01291" lon="6.61443">
        <ele>534.2</ele>
        <time>2020-08-16T14:40:36Z</time>
      </trkpt>
      <trkpt lat="46.01294" lon="6.61443">
        <ele>534.2</ele>
        <time>2020-08-16T14:40:37Z</time>
      </trkpt>
      <trkpt lat="46.01298" lon="6.61442">
        <ele>534.4</ele>
        <time>2020-08-16T14:40:38Z</time>
      </trkpt>
      <trkpt lat="46.01301" lon="6.61441">
        <ele>534.6</ele>
        <time>2020-08-16T14:40:39Z</time>
      </trkpt>
      <trkpt lat="46.01305" lon="6.61441">
        <ele>534.8</ele>
        <time>2020-08-16T14:40:40Z</time>
      </trkpt>
      <trkpt lat="46.01308" lon="6.6144">
        <ele>535</ele>
        <time>2020-08-16T14:40:41Z</time>
      </trkpt>
      <trkpt lat="46.01311" lon="6.61439">
        <ele>535</ele>
        <time>2020-08-16T14:40:42Z</time>
      </trkpt>
      <trkpt lat="46.01314" lon="6.61437">
        <ele>535.2</ele>
        <time>2020-08-16T14:40:43Z</time>
      </trkpt>
      <trkpt lat="46.01318" lon="6.61435">
        <ele>535.2</ele>
        <time>2020-08-16T14:40:44Z</time>
      </trkpt>
      <trkpt lat="46.01321" lon="6.61433">
        <ele>535.4</ele>
        <time>2020-08-16T14:40:45Z</time>
      </trkpt>
      <trkpt lat="46.01324" lon="6.61431">
        <ele>535.6</ele>
        <time>2020-08-16T14:40:46Z</time>
      </trkpt>
      <trkpt lat="46.01328" lon="6.6143">
        <ele>535.8</ele>
        <time>2020-08-16T14:40:47Z</time>
      </trkpt>
      <trkpt lat="46.01331" lon="6.61427">
        <ele>535.8</ele>
        <time>2020-08-16T14:40:48Z</time>
      </trkpt>
      <trkpt lat="46.01334" lon="6.61425">
        <ele>536</ele>
        <time>2020-08-16T14:40:49Z</time>
      </trkpt>
      <trkpt lat="46.01336" lon="6.61422">
        <ele>536</ele>
        <time>2020-08-16T14:40:50Z</time>
      </trkpt>
      <trkpt lat="46.01339" lon="6.6142">
        <ele>536.2</ele>
        <time>2020-08-16T14:40:51Z</time>
      </trkpt>
      <trkpt lat="46.01342" lon="6.61417">
        <ele>536.4</ele>
        <time>2020-08-16T14:40:52Z</time>
      </trkpt>
      <trkpt lat="46.01345" lon="6.61414">
        <ele>536.4</ele>
        <time>2020-08-16T14:40:53Z</time>
      </trkpt>
      <trkpt lat="46.01348" lon="6.61411">
        <ele>536.6</ele>
        <time>2020-08-16T14:40:54Z</time>
      </trkpt>
      <trkpt lat="46.0135" lon="6.61408">
        <ele>536.6</ele>
        <time>2020-08-16T14:40:55Z</time>
      </trkpt>
      <trkpt lat="46.01353" lon="6.61405">
        <ele>536.8</ele>
        <time>2020-08-16T14:40:56Z</time>
      </trkpt>
      <trkpt lat="46.01357" lon="6.61402">
        <ele>537</ele>
        <time>2020-08-16T14:40:57Z</time>
      </trkpt>
      <trkpt lat="46.0136" lon="6.61399">
        <ele>537.2</ele>
        <time>2020-08-16T14:40:58Z</time>
      </trkpt>
      <trkpt lat="46.01363" lon="6.61396">
        <ele>537.2</ele>
        <time>2020-08-16T14:40:59Z</time>
      </trkpt>
      <trkpt lat="46.01366" lon="6.61394">
        <ele>537.4</ele>
        <time>2020-08-16T14:41:00Z</time>
      </trkpt>
      <trkpt lat="46.01368" lon="6.61391">
        <ele>537.6</ele>
        <time>2020-08-16T14:41:01Z</time>
      </trkpt>
      <trkpt lat="46.01371" lon="6.61388">
        <ele>537.8</ele>
        <time>2020-08-16T14:41:02Z</time>
      </trkpt>
      <trkpt lat="46.01373" lon="6.61384">
        <ele>538</ele>
        <time>2020-08-16T14:41:03Z</time>
      </trkpt>
      <trkpt lat="46.01375" lon="6.61382">
        <ele>538.2</ele>
        <time>2020-08-16T14:41:04Z</time>
      </trkpt>
      <trkpt lat="46.01377" lon="6.61379">
        <ele>538.2</ele>
        <time>2020-08-16T14:41:05Z</time>
      </trkpt>
      <trkpt lat="46.01379" lon="6.61377">
        <ele>538.4</ele>
        <time>2020-08-16T14:41:06Z</time>
      </trkpt>
      <trkpt lat="46.01382" lon="6.61374">
        <ele>538.4</ele>
        <time>2020-08-16T14:41:07Z</time>
      </trkpt>
      <trkpt lat="46.01384" lon="6.61371">
        <ele>538.4</ele>
        <time>2020-08-16T14:41:08Z</time>
      </trkpt>
      <trkpt lat="46.01387" lon="6.61368">
        <ele>538.4</ele>
        <time>2020-08-16T14:41:09Z</time>
      </trkpt>
      <trkpt lat="46.01389" lon="6.61365">
        <ele>538.6</ele>
        <time>2020-08-16T14:41:10Z</time>
      </trkpt>
      <trkpt lat="46.01392" lon="6.61362">
        <ele>538.6</ele>
        <time>2020-08-16T14:41:11Z</time>
      </trkpt>
      <trkpt lat="46.01394" lon="6.61359">
        <ele>538.8</ele>
        <time>2020-08-16T14:41:12Z</time>
      </trkpt>
      <trkpt lat="46.01397" lon="6.61356">
        <ele>538.8</ele>
        <time>2020-08-16T14:41:13Z</time>
      </trkpt>
      <trkpt lat="46.014" lon="6.61353">
        <ele>539</ele>
        <time>2020-08-16T14:41:14Z</time>
      </trkpt>
      <trkpt lat="46.01402" lon="6.61351">
        <ele>539.2</ele>
        <time>2020-08-16T14:41:15Z</time>
      </trkpt>
      <trkpt lat="46.01405" lon="6.61348">
        <ele>539.2</ele>
        <time>2020-08-16T14:41:16Z</time>
      </trkpt>
      <trkpt lat="46.01407" lon="6.61346">
        <ele>539.4</ele>
        <time>2020-08-16T14:41:17Z</time>
      </trkpt>
      <trkpt lat="46.0141" lon="6.61343">
        <ele>539.6</ele>
        <time>2020-08-16T14:41:18Z</time>
      </trkpt>
      <trkpt lat="46.01413" lon="6.61341">
        <ele>539.6</ele>
        <time>2020-08-16T14:41:19Z</time>
      </trkpt>
      <trkpt lat="46.01415" lon="6.61338">
        <ele>539.8</ele>
        <time>2020-08-16T14:41:20Z</time>
      </trkpt>
      <trkpt lat="46.01418" lon="6.61336">
        <ele>539.8</ele>
        <time>2020-08-16T14:41:21Z</time>
      </trkpt>
      <trkpt lat="46.0142" lon="6.61334">
        <ele>540</ele>
        <time>2020-08-16T14:41:22Z</time>
      </trkpt>
      <trkpt lat="46.01423" lon="6.61331">
        <ele>540</ele>
        <time>2020-08-16T14:41:23Z</time>
      </trkpt>
      <trkpt lat="46.01425" lon="6.61329">
        <ele>540.2</ele>
        <time>2020-08-16T14:41:24Z</time>
      </trkpt>
      <trkpt lat="46.01428" lon="6.61327">
        <ele>540.2</ele>
        <time>2020-08-16T14:41:25Z</time>
      </trkpt>
      <trkpt lat="46.0143" lon="6.61325">
        <ele>540.4</ele>
        <time>2020-08-16T14:41:26Z</time>
      </trkpt>
      <trkpt lat="46.01432" lon="6.61322">
        <ele>540.4</ele>
        <time>2020-08-16T14:41:27Z</time>
      </trkpt>
      <trkpt lat="46.01433" lon="6.61319">
        <ele>540.4</ele>
        <time>2020-08-16T14:41:28Z</time>
      </trkpt>
      <trkpt lat="46.01435" lon="6.61317">
        <ele>540.4</ele>
        <time>2020-08-16T14:41:29Z</time>
      </trkpt>
      <trkpt lat="46.01437" lon="6.61316">
        <ele>540.4</ele>
        <time>2020-08-16T14:41:30Z</time>
      </trkpt>
      <trkpt lat="46.01439" lon="6.61315">
        <ele>540.4</ele>
        <time>2020-08-16T14:41:31Z</time>
      </trkpt>
      <trkpt lat="46.01441" lon="6.61313">
        <ele>540.4</ele>
        <time>2020-08-16T14:41:32Z</time>
      </trkpt>
      <trkpt lat="46.01443" lon="6.61311">
        <ele>540.4</ele>
        <time>2020-08-16T14:41:33Z</time>
      </trkpt>
      <trkpt lat="46.01445" lon="6.6131">
        <ele>540.4</ele>
        <time>2020-08-16T14:41:34Z</time>
      </trkpt>
      <trkpt lat="46.01447" lon="6.61308">
        <ele>540.4</ele>
        <time>2020-08-16T14:41:35Z</time>
      </trkpt>
      <trkpt lat="46.01449" lon="6.61307">
        <ele>540.4</ele>
        <time>2020-08-16T14:41:36Z</time>
      </trkpt>
      <trkpt lat="46.01451" lon="6.61305">
        <ele>540.6</ele>
        <time>2020-08-16T14:41:37Z</time>
      </trkpt>
      <trkpt lat="46.01453" lon="6.61303">
        <ele>540.6</ele>
        <time>2020-08-16T14:41:38Z</time>
      </trkpt>
      <trkpt lat="46.01455" lon="6.61302">
        <ele>540.6</ele>
        <time>2020-08-16T14:41:39Z</time>
      </trkpt>
      <trkpt lat="46.01457" lon="6.61301">
        <ele>540.6</ele>
        <time>2020-08-16T14:41:40Z</time>
      </trkpt>
      <trkpt lat="46.01459" lon="6.613">
        <ele>540.4</ele>
        <time>2020-08-16T14:41:41Z</time>
      </trkpt>
      <trkpt lat="46.01461" lon="6.61298">
        <ele>540.4</ele>
        <time>2020-08-16T14:41:42Z</time>
      </trkpt>
      <trkpt lat="46.01463" lon="6.61296">
        <ele>540.2</ele>
        <time>2020-08-16T14:41:43Z</time>
      </trkpt>
      <trkpt lat="46.01465" lon="6.61295">
        <ele>540.2</ele>
        <time>2020-08-16T14:41:44Z</time>
      </trkpt>
      <trkpt lat="46.01467" lon="6.61294">
        <ele>540</ele>
        <time>2020-08-16T14:41:45Z</time>
      </trkpt>
      <trkpt lat="46.01468" lon="6.61293">
        <ele>540</ele>
        <time>2020-08-16T14:41:46Z</time>
      </trkpt>
      <trkpt lat="46.0147" lon="6.61291">
        <ele>540</ele>
        <time>2020-08-16T14:41:47Z</time>
      </trkpt>
      <trkpt lat="46.01471" lon="6.6129">
        <ele>540</ele>
        <time>2020-08-16T14:41:48Z</time>
      </trkpt>
      <trkpt lat="46.01472" lon="6.6129">
        <ele>539.8</ele>
        <time>2020-08-16T14:41:49Z</time>
      </trkpt>
      <trkpt lat="46.01474" lon="6.61289">
        <ele>539.8</ele>
        <time>2020-08-16T14:41:50Z</time>
      </trkpt>
      <trkpt lat="46.01475" lon="6.61289">
        <ele>539.8</ele>
        <time>2020-08-16T14:41:51Z</time>
      </trkpt>
      <trkpt lat="46.01477" lon="6.6129">
        <ele>539.6</ele>
        <time>2020-08-16T14:41:52Z</time>
      </trkpt>
      <trkpt lat="46.01478" lon="6.6129">
        <ele>539.6</ele>
        <time>2020-08-16T14:41:53Z</time>
      </trkpt>
      <trkpt lat="46.0148" lon="6.61291">
        <ele>539.4</ele>
        <time>2020-08-16T14:41:54Z</time>
      </trkpt>
      <trkpt lat="46.01482" lon="6.61292">
        <ele>539.4</ele>
        <time>2020-08-16T14:41:55Z</time>
      </trkpt>
      <trkpt lat="46.01484" lon="6.61292">
        <ele>539.2</ele>
        <time>2020-08-16T14:41:56Z</time>
      </trkpt>
      <trkpt lat="46.01485" lon="6.61293">
        <ele>539.2</ele>
        <time>2020-08-16T14:41:57Z</time>
      </trkpt>
      <trkpt lat="46.01487" lon="6.61293">
        <ele>539</ele>
        <time>2020-08-16T14:41:58Z</time>
      </trkpt>
      <trkpt lat="46.01489" lon="6.61293">
        <ele>538.8</ele>
        <time>2020-08-16T14:41:59Z</time>
      </trkpt>
      <trkpt lat="46.01491" lon="6.61294">
        <ele>538.8</ele>
        <time>2020-08-16T14:42:00Z</time>
      </trkpt>
      <trkpt lat="46.01493" lon="6.61294">
        <ele>538.6</ele>
        <time>2020-08-16T14:42:01Z</time>
      </trkpt>
      <trkpt lat="46.01495" lon="6.61294">
        <ele>538.4</ele>
        <time>2020-08-16T14:42:02Z</time>
      </trkpt>
      <trkpt lat="46.01497" lon="6.61294">
        <ele>538.2</ele>
        <time>2020-08-16T14:42:03Z</time>
      </trkpt>
      <trkpt lat="46.01499" lon="6.61294">
        <ele>538</ele>
        <time>2020-08-16T14:42:04Z</time>
      </trkpt>
      <trkpt lat="46.01501" lon="6.61293">
        <ele>537.8</ele>
        <time>2020-08-16T14:42:05Z</time>
      </trkpt>
      <trkpt lat="46.01502" lon="6.61292">
        <ele>537.8</ele>
        <time>2020-08-16T14:42:06Z</time>
      </trkpt>
      <trkpt lat="46.01503" lon="6.61291">
        <ele>537.8</ele>
        <time>2020-08-16T14:42:07Z</time>
      </trkpt>
      <trkpt lat="46.01505" lon="6.61291">
        <ele>537.6</ele>
        <time>2020-08-16T14:42:08Z</time>
      </trkpt>
      <trkpt lat="46.01506" lon="6.6129">
        <ele>537.4</ele>
        <time>2020-08-16T14:42:09Z</time>
      </trkpt>
      <trkpt lat="46.01508" lon="6.61289">
        <ele>537.4</ele>
        <time>2020-08-16T14:42:10Z</time>
      </trkpt>
      <trkpt lat="46.01509" lon="6.61288">
        <ele>537.2</ele>
        <time>2020-08-16T14:42:11Z</time>
      </trkpt>
      <trkpt lat="46.0151" lon="6.61288">
        <ele>537.2</ele>
        <time>2020-08-16T14:42:12Z</time>
      </trkpt>
      <trkpt lat="46.01511" lon="6.61287">
        <ele>537</ele>
        <time>2020-08-16T14:42:13Z</time>
      </trkpt>
      <trkpt lat="46.01512" lon="6.61287">
        <ele>537</ele>
        <time>2020-08-16T14:42:14Z</time>
      </trkpt>
      <trkpt lat="46.01514" lon="6.61286">
        <ele>537</ele>
        <time>2020-08-16T14:42:15Z</time>
      </trkpt>
      <trkpt lat="46.01516" lon="6.61285">
        <ele>536.8</ele>
        <time>2020-08-16T14:42:16Z</time>
      </trkpt>
      <trkpt lat="46.01517" lon="6.61285">
        <ele>536.6</ele>
        <time>2020-08-16T14:42:17Z</time>
      </trkpt>
      <trkpt lat="46.01519" lon="6.61284">
        <ele>536.6</ele>
        <time>2020-08-16T14:42:18Z</time>
      </trkpt>
      <trkpt lat="46.0152" lon="6.61283">
        <ele>536.6</ele>
        <time>2020-08-16T14:42:19Z</time>
      </trkpt>
      <trkpt lat="46.01521" lon="6.61281">
        <ele>536.4</ele>
        <time>2020-08-16T14:42:20Z</time>
      </trkpt>
      <trkpt lat="46.01523" lon="6.6128">
        <ele>536.4</ele>
        <time>2020-08-16T14:42:21Z</time>
      </trkpt>
      <trkpt lat="46.01526" lon="6.61278">
        <ele>536</ele>
        <time>2020-08-16T14:42:22Z</time>
      </trkpt>
      <trkpt lat="46.01529" lon="6.61276">
        <ele>535.8</ele>
        <time>2020-08-16T14:42:23Z</time>
      </trkpt>
      <trkpt lat="46.01532" lon="6.61274">
        <ele>535.6</ele>
        <time>2020-08-16T14:42:24Z</time>
      </trkpt>
      <trkpt lat="46.01536" lon="6.61272">
        <ele>535.2</ele>
        <time>2020-08-16T14:42:25Z</time>
      </trkpt>
      <trkpt lat="46.01541" lon="6.6127">
        <ele>535</ele>
        <time>2020-08-16T14:42:26Z</time>
      </trkpt>
      <trkpt lat="46.01546" lon="6.61268">
        <ele>534.6</ele>
        <time>2020-08-16T14:42:27Z</time>
      </trkpt>
      <trkpt lat="46.01552" lon="6.61265">
        <ele>534</ele>
        <time>2020-08-16T14:42:28Z</time>
      </trkpt>
      <trkpt lat="46.01558" lon="6.61263">
        <ele>533.4</ele>
        <time>2020-08-16T14:42:29Z</time>
      </trkpt>
      <trkpt lat="46.01565" lon="6.6126">
        <ele>533.2</ele>
        <time>2020-08-16T14:42:30Z</time>
      </trkpt>
      <trkpt lat="46.01571" lon="6.61257">
        <ele>532.4</ele>
        <time>2020-08-16T14:42:31Z</time>
      </trkpt>
      <trkpt lat="46.01577" lon="6.61254">
        <ele>531.8</ele>
        <time>2020-08-16T14:42:32Z</time>
      </trkpt>
      <trkpt lat="46.01583" lon="6.6125">
        <ele>531.4</ele>
        <time>2020-08-16T14:42:33Z</time>
      </trkpt>
      <trkpt lat="46.01588" lon="6.61244">
        <ele>530.8</ele>
        <time>2020-08-16T14:42:34Z</time>
      </trkpt>
      <trkpt lat="46.01593" lon="6.61238">
        <ele>530.2</ele>
        <time>2020-08-16T14:42:35Z</time>
      </trkpt>
      <trkpt lat="46.01599" lon="6.6123">
        <ele>529.6</ele>
        <time>2020-08-16T14:42:36Z</time>
      </trkpt>
      <trkpt lat="46.01603" lon="6.61222">
        <ele>529</ele>
        <time>2020-08-16T14:42:37Z</time>
      </trkpt>
      <trkpt lat="46.01607" lon="6.61215">
        <ele>528.4</ele>
        <time>2020-08-16T14:42:38Z</time>
      </trkpt>
      <trkpt lat="46.01612" lon="6.61208">
        <ele>528</ele>
        <time>2020-08-16T14:42:39Z</time>
      </trkpt>
      <trkpt lat="46.01617" lon="6.61201">
        <ele>527.6</ele>
        <time>2020-08-16T14:42:40Z</time>
      </trkpt>
      <trkpt lat="46.01621" lon="6.61193">
        <ele>527</ele>
        <time>2020-08-16T14:42:41Z</time>
      </trkpt>
      <trkpt lat="46.01626" lon="6.61186">
        <ele>526.6</ele>
        <time>2020-08-16T14:42:42Z</time>
      </trkpt>
      <trkpt lat="46.0163" lon="6.6118">
        <ele>526</ele>
        <time>2020-08-16T14:42:43Z</time>
      </trkpt>
      <trkpt lat="46.01635" lon="6.61175">
        <ele>525.2</ele>
        <time>2020-08-16T14:42:44Z</time>
      </trkpt>
      <trkpt lat="46.01641" lon="6.61172">
        <ele>524.8</ele>
        <time>2020-08-16T14:42:45Z</time>
      </trkpt>
      <trkpt lat="46.01647" lon="6.61173">
        <ele>524.4</ele>
        <time>2020-08-16T14:42:46Z</time>
      </trkpt>
      <trkpt lat="46.01652" lon="6.61177">
        <ele>523.8</ele>
        <time>2020-08-16T14:42:47Z</time>
      </trkpt>
      <trkpt lat="46.01655" lon="6.61185">
        <ele>523.2</ele>
        <time>2020-08-16T14:42:48Z</time>
      </trkpt>
      <trkpt lat="46.01655" lon="6.61194">
        <ele>523</ele>
        <time>2020-08-16T14:42:49Z</time>
      </trkpt>
      <trkpt lat="46.01652" lon="6.61202">
        <ele>522.2</ele>
        <time>2020-08-16T14:42:50Z</time>
      </trkpt>
      <trkpt lat="46.01648" lon="6.61208">
        <ele>521.8</ele>
        <time>2020-08-16T14:42:51Z</time>
      </trkpt>
      <trkpt lat="46.01644" lon="6.61215">
        <ele>521.2</ele>
        <time>2020-08-16T14:42:52Z</time>
      </trkpt>
      <trkpt lat="46.0164" lon="6.61222">
        <ele>521</ele>
        <time>2020-08-16T14:42:53Z</time>
      </trkpt>
      <trkpt lat="46.01636" lon="6.6123">
        <ele>520.6</ele>
        <time>2020-08-16T14:42:54Z</time>
      </trkpt>
      <trkpt lat="46.01633" lon="6.61238">
        <ele>520.4</ele>
        <time>2020-08-16T14:42:55Z</time>
      </trkpt>
      <trkpt lat="46.01631" lon="6.61247">
        <ele>520.2</ele>
        <time>2020-08-16T14:42:56Z</time>
      </trkpt>
      <trkpt lat="46.0163" lon="6.61256">
        <ele>519.8</ele>
        <time>2020-08-16T14:42:57Z</time>
      </trkpt>
      <trkpt lat="46.01629" lon="6.61266">
        <ele>519.4</ele>
        <time>2020-08-16T14:42:58Z</time>
      </trkpt>
      <trkpt lat="46.01628" lon="6.61275">
        <ele>519.4</ele>
        <time>2020-08-16T14:42:59Z</time>
      </trkpt>
      <trkpt lat="46.01628" lon="6.61284">
        <ele>519.4</ele>
        <time>2020-08-16T14:43:00Z</time>
      </trkpt>
      <trkpt lat="46.01629" lon="6.61293">
        <ele>519.2</ele>
        <time>2020-08-16T14:43:01Z</time>
      </trkpt>
      <trkpt lat="46.01629" lon="6.61302">
        <ele>519</ele>
        <time>2020-08-16T14:43:02Z</time>
      </trkpt>
      <trkpt lat="46.0163" lon="6.61309">
        <ele>518.8</ele>
        <time>2020-08-16T14:43:03Z</time>
      </trkpt>
      <trkpt lat="46.01631" lon="6.61315">
        <ele>518.6</ele>
        <time>2020-08-16T14:43:04Z</time>
      </trkpt>
      <trkpt lat="46.01631" lon="6.6132">
        <ele>518.2</ele>
        <time>2020-08-16T14:43:05Z</time>
      </trkpt>
      <trkpt lat="46.01631" lon="6.61323">
        <ele>518.2</ele>
        <time>2020-08-16T14:43:06Z</time>
      </trkpt>
      <trkpt lat="46.01631" lon="6.61326">
        <ele>518.2</ele>
        <time>2020-08-16T14:43:07Z</time>
      </trkpt>
      <trkpt lat="46.01632" lon="6.61328">
        <ele>518</ele>
        <time>2020-08-16T14:43:08Z</time>
      </trkpt>
      <trkpt lat="46.01633" lon="6.6133">
        <ele>518</ele>
        <time>2020-08-16T14:43:09Z</time>
      </trkpt>
      <trkpt lat="46.01636" lon="6.6133">
        <ele>518</ele>
        <time>2020-08-16T14:43:10Z</time>
      </trkpt>
      <trkpt lat="46.01639" lon="6.61329">
        <ele>517.8</ele>
        <time>2020-08-16T14:43:11Z</time>
      </trkpt>
      <trkpt lat="46.01642" lon="6.61328">
        <ele>517.4</ele>
        <time>2020-08-16T14:43:12Z</time>
      </trkpt>
      <trkpt lat="46.01647" lon="6.61328">
        <ele>517.2</ele>
        <time>2020-08-16T14:43:13Z</time>
      </trkpt>
      <trkpt lat="46.01652" lon="6.6133">
        <ele>516.8</ele>
        <time>2020-08-16T14:43:14Z</time>
      </trkpt>
      <trkpt lat="46.01657" lon="6.61334">
        <ele>516.6</ele>
        <time>2020-08-16T14:43:15Z</time>
      </trkpt>
      <trkpt lat="46.01663" lon="6.61338">
        <ele>516.2</ele>
        <time>2020-08-16T14:43:16Z</time>
      </trkpt>
      <trkpt lat="46.01668" lon="6.61341">
        <ele>516</ele>
        <time>2020-08-16T14:43:17Z</time>
      </trkpt>
      <trkpt lat="46.01674" lon="6.61344">
        <ele>515.8</ele>
        <time>2020-08-16T14:43:18Z</time>
      </trkpt>
      <trkpt lat="46.01679" lon="6.61348">
        <ele>515.4</ele>
        <time>2020-08-16T14:43:19Z</time>
      </trkpt>
      <trkpt lat="46.01685" lon="6.6135">
        <ele>515.4</ele>
        <time>2020-08-16T14:43:20Z</time>
      </trkpt>
      <trkpt lat="46.01691" lon="6.61353">
        <ele>515.2</ele>
        <time>2020-08-16T14:43:21Z</time>
      </trkpt>
      <trkpt lat="46.01697" lon="6.61354">
        <ele>515.2</ele>
        <time>2020-08-16T14:43:22Z</time>
      </trkpt>
      <trkpt lat="46.01703" lon="6.61356">
        <ele>515</ele>
        <time>2020-08-16T14:43:23Z</time>
      </trkpt>
      <trkpt lat="46.0171" lon="6.61357">
        <ele>514.8</ele>
        <time>2020-08-16T14:43:24Z</time>
      </trkpt>
      <trkpt lat="46.01715" lon="6.61358">
        <ele>514.8</ele>
        <time>2020-08-16T14:43:25Z</time>
      </trkpt>
      <trkpt lat="46.01721" lon="6.6136">
        <ele>514.8</ele>
        <time>2020-08-16T14:43:26Z</time>
      </trkpt>
      <trkpt lat="46.01727" lon="6.61361">
        <ele>514.8</ele>
        <time>2020-08-16T14:43:27Z</time>
      </trkpt>
      <trkpt lat="46.01733" lon="6.61362">
        <ele>514.8</ele>
        <time>2020-08-16T14:43:28Z</time>
      </trkpt>
      <trkpt lat="46.01739" lon="6.61363">
        <ele>514.8</ele>
        <time>2020-08-16T14:43:29Z</time>
      </trkpt>
      <trkpt lat="46.01745" lon="6.61364">
        <ele>514.6</ele>
        <time>2020-08-16T14:43:30Z</time>
      </trkpt>
      <trkpt lat="46.0175" lon="6.61365">
        <ele>514.6</ele>
        <time>2020-08-16T14:43:31Z</time>
      </trkpt>
      <trkpt lat="46.01756" lon="6.61365">
        <ele>514.6</ele>
        <time>2020-08-16T14:43:32Z</time>
      </trkpt>
      <trkpt lat="46.01761" lon="6.61366">
        <ele>514.6</ele>
        <time>2020-08-16T14:43:33Z</time>
      </trkpt>
      <trkpt lat="46.01766" lon="6.61368">
        <ele>514.8</ele>
        <time>2020-08-16T14:43:34Z</time>
      </trkpt>
      <trkpt lat="46.0177" lon="6.6137">
        <ele>514.6</ele>
        <time>2020-08-16T14:43:35Z</time>
      </trkpt>
      <trkpt lat="46.01775" lon="6.61371">
        <ele>514.6</ele>
        <time>2020-08-16T14:43:36Z</time>
      </trkpt>
      <trkpt lat="46.01779" lon="6.61372">
        <ele>514.6</ele>
        <time>2020-08-16T14:43:37Z</time>
      </trkpt>
      <trkpt lat="46.01784" lon="6.61373">
        <ele>514.6</ele>
        <time>2020-08-16T14:43:38Z</time>
      </trkpt>
      <trkpt lat="46.01788" lon="6.61374">
        <ele>514.6</ele>
        <time>2020-08-16T14:43:39Z</time>
      </trkpt>
      <trkpt lat="46.01792" lon="6.61375">
        <ele>514.6</ele>
        <time>2020-08-16T14:43:40Z</time>
      </trkpt>
      <trkpt lat="46.01796" lon="6.61376">
        <ele>514.6</ele>
        <time>2020-08-16T14:43:41Z</time>
      </trkpt>
      <trkpt lat="46.018" lon="6.61377">
        <ele>514.4</ele>
        <time>2020-08-16T14:43:42Z</time>
      </trkpt>
      <trkpt lat="46.01804" lon="6.61378">
        <ele>514.4</ele>
        <time>2020-08-16T14:43:43Z</time>
      </trkpt>
      <trkpt lat="46.01809" lon="6.61379">
        <ele>514.4</ele>
        <time>2020-08-16T14:43:44Z</time>
      </trkpt>
      <trkpt lat="46.01813" lon="6.6138">
        <ele>514.6</ele>
        <time>2020-08-16T14:43:45Z</time>
      </trkpt>
      <trkpt lat="46.01817" lon="6.61381">
        <ele>514.6</ele>
        <time>2020-08-16T14:43:46Z</time>
      </trkpt>
      <trkpt lat="46.01822" lon="6.61382">
        <ele>514.6</ele>
        <time>2020-08-16T14:43:47Z</time>
      </trkpt>
      <trkpt lat="46.01826" lon="6.61383">
        <ele>514.6</ele>
        <time>2020-08-16T14:43:48Z</time>
      </trkpt>
      <trkpt lat="46.01831" lon="6.61384">
        <ele>514.8</ele>
        <time>2020-08-16T14:43:49Z</time>
      </trkpt>
      <trkpt lat="46.01835" lon="6.61385">
        <ele>514.8</ele>
        <time>2020-08-16T14:43:50Z</time>
      </trkpt>
      <trkpt lat="46.01839" lon="6.61386">
        <ele>514.6</ele>
        <time>2020-08-16T14:43:51Z</time>
      </trkpt>
      <trkpt lat="46.01844" lon="6.61387">
        <ele>514.6</ele>
        <time>2020-08-16T14:43:52Z</time>
      </trkpt>
      <trkpt lat="46.01848" lon="6.61388">
        <ele>514.6</ele>
        <time>2020-08-16T14:43:53Z</time>
      </trkpt>
      <trkpt lat="46.01852" lon="6.61389">
        <ele>514.6</ele>
        <time>2020-08-16T14:43:54Z</time>
      </trkpt>
      <trkpt lat="46.01856" lon="6.6139">
        <ele>514.6</ele>
        <time>2020-08-16T14:43:55Z</time>
      </trkpt>
      <trkpt lat="46.01861" lon="6.6139">
        <ele>514.8</ele>
        <time>2020-08-16T14:43:56Z</time>
      </trkpt>
      <trkpt lat="46.01865" lon="6.6139">
        <ele>514.8</ele>
        <time>2020-08-16T14:43:57Z</time>
      </trkpt>
      <trkpt lat="46.01869" lon="6.61391">
        <ele>514.8</ele>
        <time>2020-08-16T14:43:58Z</time>
      </trkpt>
      <trkpt lat="46.01873" lon="6.61391">
        <ele>514.8</ele>
        <time>2020-08-16T14:43:59Z</time>
      </trkpt>
      <trkpt lat="46.01876" lon="6.61391">
        <ele>514.8</ele>
        <time>2020-08-16T14:44:00Z</time>
      </trkpt>
      <trkpt lat="46.0188" lon="6.61391">
        <ele>515</ele>
        <time>2020-08-16T14:44:01Z</time>
      </trkpt>
      <trkpt lat="46.01883" lon="6.6139">
        <ele>515.2</ele>
        <time>2020-08-16T14:44:02Z</time>
      </trkpt>
      <trkpt lat="46.01886" lon="6.6139">
        <ele>515.6</ele>
        <time>2020-08-16T14:44:03Z</time>
      </trkpt>
      <trkpt lat="46.01889" lon="6.61389">
        <ele>515.8</ele>
        <time>2020-08-16T14:44:04Z</time>
      </trkpt>
      <trkpt lat="46.01892" lon="6.61388">
        <ele>516</ele>
        <time>2020-08-16T14:44:05Z</time>
      </trkpt>
      <trkpt lat="46.01895" lon="6.61387">
        <ele>516</ele>
        <time>2020-08-16T14:44:06Z</time>
      </trkpt>
      <trkpt lat="46.01898" lon="6.61387">
        <ele>516.2</ele>
        <time>2020-08-16T14:44:07Z</time>
      </trkpt>
      <trkpt lat="46.019" lon="6.61386">
        <ele>516.4</ele>
        <time>2020-08-16T14:44:08Z</time>
      </trkpt>
      <trkpt lat="46.01903" lon="6.61385">
        <ele>516.6</ele>
        <time>2020-08-16T14:44:09Z</time>
      </trkpt>
      <trkpt lat="46.01905" lon="6.61385">
        <ele>516.6</ele>
        <time>2020-08-16T14:44:10Z</time>
      </trkpt>
      <trkpt lat="46.01907" lon="6.61385">
        <ele>516.8</ele>
        <time>2020-08-16T14:44:11Z</time>
      </trkpt>
      <trkpt lat="46.01909" lon="6.61384">
        <ele>517</ele>
        <time>2020-08-16T14:44:12Z</time>
      </trkpt>
      <trkpt lat="46.01912" lon="6.61384">
        <ele>517</ele>
        <time>2020-08-16T14:44:13Z</time>
      </trkpt>
      <trkpt lat="46.01913" lon="6.61384">
        <ele>517.4</ele>
        <time>2020-08-16T14:44:14Z</time>
      </trkpt>
      <trkpt lat="46.01915" lon="6.61384">
        <ele>517.6</ele>
        <time>2020-08-16T14:44:15Z</time>
      </trkpt>
      <trkpt lat="46.01917" lon="6.61383">
        <ele>517.8</ele>
        <time>2020-08-16T14:44:16Z</time>
      </trkpt>
      <trkpt lat="46.01919" lon="6.61383">
        <ele>517.8</ele>
        <time>2020-08-16T14:44:17Z</time>
      </trkpt>
      <trkpt lat="46.0192" lon="6.61384">
        <ele>517.8</ele>
        <time>2020-08-16T14:44:18Z</time>
      </trkpt>
      <trkpt lat="46.01922" lon="6.61384">
        <ele>517.8</ele>
        <time>2020-08-16T14:44:19Z</time>
      </trkpt>
      <trkpt lat="46.01923" lon="6.61384">
        <ele>517.8</ele>
        <time>2020-08-16T14:44:20Z</time>
      </trkpt>
      <trkpt lat="46.01925" lon="6.61385">
        <ele>517.8</ele>
        <time>2020-08-16T14:44:21Z</time>
      </trkpt>
      <trkpt lat="46.01927" lon="6.61385">
        <ele>517.8</ele>
        <time>2020-08-16T14:44:22Z</time>
      </trkpt>
      <trkpt lat="46.01929" lon="6.61385">
        <ele>517.8</ele>
        <time>2020-08-16T14:44:23Z</time>
      </trkpt>
      <trkpt lat="46.0193" lon="6.61386">
        <ele>517.6</ele>
        <time>2020-08-16T14:44:24Z</time>
      </trkpt>
      <trkpt lat="46.01933" lon="6.61386">
        <ele>517.6</ele>
        <time>2020-08-16T14:44:25Z</time>
      </trkpt>
      <trkpt lat="46.01936" lon="6.61386">
        <ele>517.4</ele>
        <time>2020-08-16T14:44:26Z</time>
      </trkpt>
      <trkpt lat="46.0194" lon="6.61386">
        <ele>517.2</ele>
        <time>2020-08-16T14:44:27Z</time>
      </trkpt>
      <trkpt lat="46.01944" lon="6.61388">
        <ele>517</ele>
        <time>2020-08-16T14:44:28Z</time>
      </trkpt>
      <trkpt lat="46.01948" lon="6.61389">
        <ele>516.6</ele>
        <time>2020-08-16T14:44:29Z</time>
      </trkpt>
      <trkpt lat="46.01952" lon="6.61391">
        <ele>516.4</ele>
        <time>2020-08-16T14:44:30Z</time>
      </trkpt>
      <trkpt lat="46.01956" lon="6.61393">
        <ele>516.2</ele>
        <time>2020-08-16T14:44:31Z</time>
      </trkpt>
      <trkpt lat="46.0196" lon="6.61396">
        <ele>516</ele>
        <time>2020-08-16T14:44:32Z</time>
      </trkpt>
      <trkpt lat="46.01965" lon="6.61401">
        <ele>515.6</ele>
        <time>2020-08-16T14:44:33Z</time>
      </trkpt>
      <trkpt lat="46.01969" lon="6.61405">
        <ele>515.2</ele>
        <time>2020-08-16T14:44:34Z</time>
      </trkpt>
      <trkpt lat="46.01974" lon="6.61409">
        <ele>515.4</ele>
        <time>2020-08-16T14:44:35Z</time>
      </trkpt>
      <trkpt lat="46.01978" lon="6.61412">
        <ele>515.2</ele>
        <time>2020-08-16T14:44:36Z</time>
      </trkpt>
      <trkpt lat="46.01983" lon="6.61415">
        <ele>515</ele>
        <time>2020-08-16T14:44:37Z</time>
      </trkpt>
      <trkpt lat="46.01988" lon="6.61416">
        <ele>515</ele>
        <time>2020-08-16T14:44:38Z</time>
      </trkpt>
      <trkpt lat="46.01993" lon="6.61417">
        <ele>514.8</ele>
        <time>2020-08-16T14:44:39Z</time>
      </trkpt>
      <trkpt lat="46.01998" lon="6.61417">
        <ele>514.6</ele>
        <time>2020-08-16T14:44:40Z</time>
      </trkpt>
      <trkpt lat="46.02003" lon="6.61417">
        <ele>514.6</ele>
        <time>2020-08-16T14:44:41Z</time>
      </trkpt>
      <trkpt lat="46.02008" lon="6.61417">
        <ele>514.6</ele>
        <time>2020-08-16T14:44:42Z</time>
      </trkpt>
      <trkpt lat="46.02012" lon="6.61416">
        <ele>514.6</ele>
        <time>2020-08-16T14:44:43Z</time>
      </trkpt>
      <trkpt lat="46.02017" lon="6.61415">
        <ele>514.6</ele>
        <time>2020-08-16T14:44:44Z</time>
      </trkpt>
      <trkpt lat="46.02022" lon="6.61414">
        <ele>514.8</ele>
        <time>2020-08-16T14:44:45Z</time>
      </trkpt>
      <trkpt lat="46.02026" lon="6.61412">
        <ele>514.8</ele>
        <time>2020-08-16T14:44:46Z</time>
      </trkpt>
      <trkpt lat="46.02031" lon="6.6141">
        <ele>514.6</ele>
        <time>2020-08-16T14:44:47Z</time>
      </trkpt>
      <trkpt lat="46.02035" lon="6.61407">
        <ele>514.4</ele>
        <time>2020-08-16T14:44:48Z</time>
      </trkpt>
      <trkpt lat="46.0204" lon="6.61405">
        <ele>514.6</ele>
        <time>2020-08-16T14:44:49Z</time>
      </trkpt>
      <trkpt lat="46.02044" lon="6.61402">
        <ele>514.6</ele>
        <time>2020-08-16T14:44:50Z</time>
      </trkpt>
      <trkpt lat="46.02048" lon="6.61399">
        <ele>514.4</ele>
        <time>2020-08-16T14:44:51Z</time>
      </trkpt>
      <trkpt lat="46.02052" lon="6.61396">
        <ele>514.6</ele>
        <time>2020-08-16T14:44:52Z</time>
      </trkpt>
      <trkpt lat="46.02057" lon="6.61392">
        <ele>514.4</ele>
        <time>2020-08-16T14:44:53Z</time>
      </trkpt>
      <trkpt lat="46.02061" lon="6.61389">
        <ele>514.4</ele>
        <time>2020-08-16T14:44:54Z</time>
      </trkpt>
      <trkpt lat="46.02064" lon="6.61384">
        <ele>514.4</ele>
        <time>2020-08-16T14:44:55Z</time>
      </trkpt>
      <trkpt lat="46.02067" lon="6.6138">
        <ele>514.6</ele>
        <time>2020-08-16T14:44:56Z</time>
      </trkpt>
      <trkpt lat="46.0207" lon="6.61375">
        <ele>514.6</ele>
        <time>2020-08-16T14:44:57Z</time>
      </trkpt>
      <trkpt lat="46.02072" lon="6.6137">
        <ele>514.4</ele>
        <time>2020-08-16T14:44:58Z</time>
      </trkpt>
      <trkpt lat="46.02074" lon="6.61365">
        <ele>514.4</ele>
        <time>2020-08-16T14:44:59Z</time>
      </trkpt>
      <trkpt lat="46.02077" lon="6.6136">
        <ele>514.4</ele>
        <time>2020-08-16T14:45:00Z</time>
      </trkpt>
      <trkpt lat="46.02079" lon="6.61356">
        <ele>514.4</ele>
        <time>2020-08-16T14:45:01Z</time>
      </trkpt>
      <trkpt lat="46.02082" lon="6.61352">
        <ele>514.4</ele>
        <time>2020-08-16T14:45:02Z</time>
      </trkpt>
      <trkpt lat="46.02085" lon="6.61348">
        <ele>514.4</ele>
        <time>2020-08-16T14:45:03Z</time>
      </trkpt>
      <trkpt lat="46.02088" lon="6.61345">
        <ele>514.4</ele>
        <time>2020-08-16T14:45:04Z</time>
      </trkpt>
      <trkpt lat="46.0209" lon="6.61342">
        <ele>514.4</ele>
        <time>2020-08-16T14:45:05Z</time>
      </trkpt>
      <trkpt lat="46.02093" lon="6.6134">
        <ele>514.4</ele>
        <time>2020-08-16T14:45:06Z</time>
      </trkpt>
      <trkpt lat="46.02096" lon="6.61338">
        <ele>514.6</ele>
        <time>2020-08-16T14:45:07Z</time>
      </trkpt>
      <trkpt lat="46.02099" lon="6.61336">
        <ele>514.6</ele>
        <time>2020-08-16T14:45:08Z</time>
      </trkpt>
      <trkpt lat="46.02102" lon="6.61334">
        <ele>514.6</ele>
        <time>2020-08-16T14:45:09Z</time>
      </trkpt>
      <trkpt lat="46.02106" lon="6.61332">
        <ele>514.6</ele>
        <time>2020-08-16T14:45:10Z</time>
      </trkpt>
      <trkpt lat="46.02109" lon="6.61331">
        <ele>514.8</ele>
        <time>2020-08-16T14:45:11Z</time>
      </trkpt>
      <trkpt lat="46.02112" lon="6.61329">
        <ele>514.8</ele>
        <time>2020-08-16T14:45:12Z</time>
      </trkpt>
      <trkpt lat="46.02115" lon="6.61327">
        <ele>515</ele>
        <time>2020-08-16T14:45:13Z</time>
      </trkpt>
      <trkpt lat="46.02118" lon="6.61324">
        <ele>515</ele>
        <time>2020-08-16T14:45:14Z</time>
      </trkpt>
      <trkpt lat="46.0212" lon="6.61322">
        <ele>515.2</ele>
        <time>2020-08-16T14:45:15Z</time>
      </trkpt>
      <trkpt lat="46.02123" lon="6.6132">
        <ele>515.2</ele>
        <time>2020-08-16T14:45:16Z</time>
      </trkpt>
      <trkpt lat="46.02126" lon="6.61317">
        <ele>515.2</ele>
        <time>2020-08-16T14:45:17Z</time>
      </trkpt>
      <trkpt lat="46.02129" lon="6.61315">
        <ele>515.4</ele>
        <time>2020-08-16T14:45:18Z</time>
      </trkpt>
      <trkpt lat="46.02131" lon="6.61312">
        <ele>515.4</ele>
        <time>2020-08-16T14:45:19Z</time>
      </trkpt>
      <trkpt lat="46.02134" lon="6.6131">
        <ele>515.2</ele>
        <time>2020-08-16T14:45:20Z</time>
      </trkpt>
      <trkpt lat="46.02137" lon="6.61307">
        <ele>515.4</ele>
        <time>2020-08-16T14:45:21Z</time>
      </trkpt>
      <trkpt lat="46.02139" lon="6.61305">
        <ele>515.4</ele>
        <time>2020-08-16T14:45:22Z</time>
      </trkpt>
      <trkpt lat="46.02142" lon="6.61302">
        <ele>515.4</ele>
        <time>2020-08-16T14:45:23Z</time>
      </trkpt>
      <trkpt lat="46.02145" lon="6.61299">
        <ele>515.4</ele>
        <time>2020-08-16T14:45:24Z</time>
      </trkpt>
      <trkpt lat="46.02148" lon="6.61296">
        <ele>515.4</ele>
        <time>2020-08-16T14:45:25Z</time>
      </trkpt>
      <trkpt lat="46.02151" lon="6.61293">
        <ele>515.4</ele>
        <time>2020-08-16T14:45:26Z</time>
      </trkpt>
      <trkpt lat="46.02154" lon="6.6129">
        <ele>515.6</ele>
        <time>2020-08-16T14:45:27Z</time>
      </trkpt>
      <trkpt lat="46.02157" lon="6.61288">
        <ele>515.6</ele>
        <time>2020-08-16T14:45:28Z</time>
      </trkpt>
      <trkpt lat="46.02159" lon="6.61285">
        <ele>515.6</ele>
        <time>2020-08-16T14:45:29Z</time>
      </trkpt>
      <trkpt lat="46.02162" lon="6.61282">
        <ele>515.6</ele>
        <time>2020-08-16T14:45:30Z</time>
      </trkpt>
      <trkpt lat="46.02164" lon="6.61279">
        <ele>515.6</ele>
        <time>2020-08-16T14:45:31Z</time>
      </trkpt>
      <trkpt lat="46.02167" lon="6.61275">
        <ele>515.6</ele>
        <time>2020-08-16T14:45:32Z</time>
      </trkpt>
      <trkpt lat="46.0217" lon="6.61272">
        <ele>515.4</ele>
        <time>2020-08-16T14:45:33Z</time>
      </trkpt>
      <trkpt lat="46.02173" lon="6.61269">
        <ele>515.4</ele>
        <time>2020-08-16T14:45:34Z</time>
      </trkpt>
      <trkpt lat="46.02176" lon="6.61266">
        <ele>515.4</ele>
        <time>2020-08-16T14:45:35Z</time>
      </trkpt>
      <trkpt lat="46.02179" lon="6.61263">
        <ele>515.2</ele>
        <time>2020-08-16T14:45:36Z</time>
      </trkpt>
      <trkpt lat="46.02183" lon="6.6126">
        <ele>515</ele>
        <time>2020-08-16T14:45:37Z</time>
      </trkpt>
      <trkpt lat="46.02187" lon="6.61257">
        <ele>515</ele>
        <time>2020-08-16T14:45:38Z</time>
      </trkpt>
      <trkpt lat="46.02191" lon="6.61255">
        <ele>515</ele>
        <time>2020-08-16T14:45:39Z</time>
      </trkpt>
      <trkpt lat="46.02195" lon="6.61252">
        <ele>515</ele>
        <time>2020-08-16T14:45:40Z</time>
      </trkpt>
      <trkpt lat="46.02199" lon="6.61249">
        <ele>514.8</ele>
        <time>2020-08-16T14:45:41Z</time>
      </trkpt>
      <trkpt lat="46.02203" lon="6.61246">
        <ele>514.6</ele>
        <time>2020-08-16T14:45:42Z</time>
      </trkpt>
      <trkpt lat="46.02207" lon="6.61243">
        <ele>514.6</ele>
        <time>2020-08-16T14:45:43Z</time>
      </trkpt>
      <trkpt lat="46.02211" lon="6.6124">
        <ele>514.6</ele>
        <time>2020-08-16T14:45:44Z</time>
      </trkpt>
      <trkpt lat="46.02215" lon="6.61236">
        <ele>514.6</ele>
        <time>2020-08-16T14:45:45Z</time>
      </trkpt>
      <trkpt lat="46.02218" lon="6.61231">
        <ele>514.6</ele>
        <time>2020-08-16T14:45:46Z</time>
      </trkpt>
      <trkpt lat="46.02222" lon="6.61226">
        <ele>514.6</ele>
        <time>2020-08-16T14:45:47Z</time>
      </trkpt>
      <trkpt lat="46.02225" lon="6.61221">
        <ele>514.4</ele>
        <time>2020-08-16T14:45:48Z</time>
      </trkpt>
      <trkpt lat="46.02228" lon="6.61215">
        <ele>514.4</ele>
        <time>2020-08-16T14:45:49Z</time>
      </trkpt>
      <trkpt lat="46.02232" lon="6.61209">
        <ele>514.4</ele>
        <time>2020-08-16T14:45:50Z</time>
      </trkpt>
      <trkpt lat="46.02234" lon="6.61203">
        <ele>514.4</ele>
        <time>2020-08-16T14:45:51Z</time>
      </trkpt>
      <trkpt lat="46.02237" lon="6.61197">
        <ele>514.2</ele>
        <time>2020-08-16T14:45:52Z</time>
      </trkpt>
      <trkpt lat="46.0224" lon="6.61192">
        <ele>514.2</ele>
        <time>2020-08-16T14:45:53Z</time>
      </trkpt>
      <trkpt lat="46.02242" lon="6.61187">
        <ele>514</ele>
        <time>2020-08-16T14:45:54Z</time>
      </trkpt>
      <trkpt lat="46.02246" lon="6.61181">
        <ele>514</ele>
        <time>2020-08-16T14:45:55Z</time>
      </trkpt>
      <trkpt lat="46.02249" lon="6.61176">
        <ele>513.8</ele>
        <time>2020-08-16T14:45:56Z</time>
      </trkpt>
      <trkpt lat="46.02253" lon="6.61172">
        <ele>513.8</ele>
        <time>2020-08-16T14:45:57Z</time>
      </trkpt>
      <trkpt lat="46.02257" lon="6.61169">
        <ele>513.8</ele>
        <time>2020-08-16T14:45:58Z</time>
      </trkpt>
      <trkpt lat="46.02261" lon="6.61165">
        <ele>513.8</ele>
        <time>2020-08-16T14:45:59Z</time>
      </trkpt>
      <trkpt lat="46.02265" lon="6.61162">
        <ele>513.6</ele>
        <time>2020-08-16T14:46:00Z</time>
      </trkpt>
      <trkpt lat="46.0227" lon="6.6116">
        <ele>513.6</ele>
        <time>2020-08-16T14:46:01Z</time>
      </trkpt>
      <trkpt lat="46.02275" lon="6.61157">
        <ele>513.6</ele>
        <time>2020-08-16T14:46:02Z</time>
      </trkpt>
      <trkpt lat="46.02279" lon="6.61155">
        <ele>513.6</ele>
        <time>2020-08-16T14:46:03Z</time>
      </trkpt>
      <trkpt lat="46.02284" lon="6.61151">
        <ele>513.6</ele>
        <time>2020-08-16T14:46:04Z</time>
      </trkpt>
      <trkpt lat="46.02288" lon="6.61148">
        <ele>513.6</ele>
        <time>2020-08-16T14:46:05Z</time>
      </trkpt>
      <trkpt lat="46.02291" lon="6.61145">
        <ele>513.6</ele>
        <time>2020-08-16T14:46:06Z</time>
      </trkpt>
      <trkpt lat="46.02295" lon="6.61142">
        <ele>513.8</ele>
        <time>2020-08-16T14:46:07Z</time>
      </trkpt>
      <trkpt lat="46.02298" lon="6.61139">
        <ele>514</ele>
        <time>2020-08-16T14:46:08Z</time>
      </trkpt>
      <trkpt lat="46.02301" lon="6.61137">
        <ele>514</ele>
        <time>2020-08-16T14:46:09Z</time>
      </trkpt>
      <trkpt lat="46.02305" lon="6.61136">
        <ele>514</ele>
        <time>2020-08-16T14:46:10Z</time>
      </trkpt>
      <trkpt lat="46.02308" lon="6.61134">
        <ele>514</ele>
        <time>2020-08-16T14:46:11Z</time>
      </trkpt>
      <trkpt lat="46.02312" lon="6.61132">
        <ele>514</ele>
        <time>2020-08-16T14:46:12Z</time>
      </trkpt>
      <trkpt lat="46.02316" lon="6.6113">
        <ele>513.8</ele>
        <time>2020-08-16T14:46:13Z</time>
      </trkpt>
      <trkpt lat="46.0232" lon="6.61129">
        <ele>513.8</ele>
        <time>2020-08-16T14:46:14Z</time>
      </trkpt>
      <trkpt lat="46.02325" lon="6.61127">
        <ele>513.8</ele>
        <time>2020-08-16T14:46:15Z</time>
      </trkpt>
      <trkpt lat="46.0233" lon="6.61126">
        <ele>513.6</ele>
        <time>2020-08-16T14:46:16Z</time>
      </trkpt>
      <trkpt lat="46.02335" lon="6.61125">
        <ele>513.2</ele>
        <time>2020-08-16T14:46:17Z</time>
      </trkpt>
      <trkpt lat="46.0234" lon="6.61123">
        <ele>513</ele>
        <time>2020-08-16T14:46:18Z</time>
      </trkpt>
      <trkpt lat="46.02345" lon="6.61122">
        <ele>512.8</ele>
        <time>2020-08-16T14:46:19Z</time>
      </trkpt>
      <trkpt lat="46.0235" lon="6.6112">
        <ele>512.6</ele>
        <time>2020-08-16T14:46:20Z</time>
      </trkpt>
      <trkpt lat="46.02355" lon="6.61121">
        <ele>512.6</ele>
        <time>2020-08-16T14:46:21Z</time>
      </trkpt>
      <trkpt lat="46.02359" lon="6.61122">
        <ele>512.6</ele>
        <time>2020-08-16T14:46:22Z</time>
      </trkpt>
      <trkpt lat="46.02363" lon="6.61124">
        <ele>512.6</ele>
        <time>2020-08-16T14:46:23Z</time>
      </trkpt>
      <trkpt lat="46.02364" lon="6.61127">
        <ele>512.4</ele>
        <time>2020-08-16T14:46:24Z</time>
      </trkpt>
      <trkpt lat="46.02365" lon="6.6113">
        <ele>512.6</ele>
        <time>2020-08-16T14:46:25Z</time>
      </trkpt>
      <trkpt lat="46.02366" lon="6.61132">
        <ele>512.6</ele>
        <time>2020-08-16T14:46:26Z</time>
      </trkpt>
      <trkpt lat="46.02367" lon="6.61134">
        <ele>512.6</ele>
        <time>2020-08-16T14:46:27Z</time>
      </trkpt>
      <trkpt lat="46.02368" lon="6.61136">
        <ele>512.6</ele>
        <time>2020-08-16T14:46:28Z</time>
      </trkpt>
      <trkpt lat="46.02369" lon="6.61137">
        <ele>512.8</ele>
        <time>2020-08-16T14:46:29Z</time>
      </trkpt>
      <trkpt lat="46.0237" lon="6.61138">
        <ele>512.8</ele>
        <time>2020-08-16T14:46:30Z</time>
      </trkpt>
      <trkpt lat="46.02372" lon="6.61136">
        <ele>512.8</ele>
        <time>2020-08-16T14:46:31Z</time>
      </trkpt>
      <trkpt lat="46.02372" lon="6.61133">
        <ele>512.8</ele>
        <time>2020-08-16T14:46:32Z</time>
      </trkpt>
      <trkpt lat="46.02371" lon="6.61129">
        <ele>512.8</ele>
        <time>2020-08-16T14:46:33Z</time>
      </trkpt>
      <trkpt lat="46.02369" lon="6.61124">
        <ele>512.6</ele>
        <time>2020-08-16T14:46:34Z</time>
      </trkpt>
      <trkpt lat="46.02368" lon="6.61119">
        <ele>512.6</ele>
        <time>2020-08-16T14:46:35Z</time>
      </trkpt>
      <trkpt lat="46.02368" lon="6.61113">
        <ele>512.6</ele>
        <time>2020-08-16T14:46:36Z</time>
      </trkpt>
      <trkpt lat="46.02369" lon="6.61107">
        <ele>512.4</ele>
        <time>2020-08-16T14:46:37Z</time>
      </trkpt>
      <trkpt lat="46.02371" lon="6.61101">
        <ele>512.4</ele>
        <time>2020-08-16T14:46:38Z</time>
      </trkpt>
      <trkpt lat="46.02375" lon="6.61096">
        <ele>512.2</ele>
        <time>2020-08-16T14:46:39Z</time>
      </trkpt>
      <trkpt lat="46.02379" lon="6.61092">
        <ele>512.2</ele>
        <time>2020-08-16T14:46:40Z</time>
      </trkpt>
      <trkpt lat="46.02383" lon="6.61088">
        <ele>512.2</ele>
        <time>2020-08-16T14:46:41Z</time>
      </trkpt>
      <trkpt lat="46.02388" lon="6.61085">
        <ele>512</ele>
        <time>2020-08-16T14:46:42Z</time>
      </trkpt>
      <trkpt lat="46.02392" lon="6.6108">
        <ele>512</ele>
        <time>2020-08-16T14:46:43Z</time>
      </trkpt>
      <trkpt lat="46.02396" lon="6.61076">
        <ele>512</ele>
        <time>2020-08-16T14:46:44Z</time>
      </trkpt>
      <trkpt lat="46.02401" lon="6.61073">
        <ele>512</ele>
        <time>2020-08-16T14:46:45Z</time>
      </trkpt>
      <trkpt lat="46.02405" lon="6.61069">
        <ele>512</ele>
        <time>2020-08-16T14:46:46Z</time>
      </trkpt>
      <trkpt lat="46.0241" lon="6.61065">
        <ele>512</ele>
        <time>2020-08-16T14:46:47Z</time>
      </trkpt>
      <trkpt lat="46.02414" lon="6.61061">
        <ele>512</ele>
        <time>2020-08-16T14:46:48Z</time>
      </trkpt>
      <trkpt lat="46.02418" lon="6.61057">
        <ele>512</ele>
        <time>2020-08-16T14:46:49Z</time>
      </trkpt>
      <trkpt lat="46.02422" lon="6.61053">
        <ele>512.2</ele>
        <time>2020-08-16T14:46:50Z</time>
      </trkpt>
      <trkpt lat="46.02426" lon="6.61049">
        <ele>512.2</ele>
        <time>2020-08-16T14:46:51Z</time>
      </trkpt>
      <trkpt lat="46.0243" lon="6.61046">
        <ele>512.2</ele>
        <time>2020-08-16T14:46:52Z</time>
      </trkpt>
      <trkpt lat="46.02434" lon="6.61043">
        <ele>512.2</ele>
        <time>2020-08-16T14:46:53Z</time>
      </trkpt>
      <trkpt lat="46.02437" lon="6.61039">
        <ele>512.2</ele>
        <time>2020-08-16T14:46:54Z</time>
      </trkpt>
      <trkpt lat="46.02441" lon="6.61036">
        <ele>512.2</ele>
        <time>2020-08-16T14:46:55Z</time>
      </trkpt>
      <trkpt lat="46.02445" lon="6.61033">
        <ele>512.2</ele>
        <time>2020-08-16T14:46:56Z</time>
      </trkpt>
      <trkpt lat="46.02448" lon="6.61029">
        <ele>512.4</ele>
        <time>2020-08-16T14:46:57Z</time>
      </trkpt>
      <trkpt lat="46.02452" lon="6.61026">
        <ele>512.4</ele>
        <time>2020-08-16T14:46:58Z</time>
      </trkpt>
      <trkpt lat="46.02454" lon="6.61024">
        <ele>512.4</ele>
        <time>2020-08-16T14:46:59Z</time>
      </trkpt>
      <trkpt lat="46.02458" lon="6.61022">
        <ele>512.4</ele>
        <time>2020-08-16T14:47:00Z</time>
      </trkpt>
      <trkpt lat="46.02461" lon="6.61021">
        <ele>512.4</ele>
        <time>2020-08-16T14:47:01Z</time>
      </trkpt>
      <trkpt lat="46.02465" lon="6.6102">
        <ele>512.4</ele>
        <time>2020-08-16T14:47:02Z</time>
      </trkpt>
      <trkpt lat="46.02468" lon="6.6102">
        <ele>512.4</ele>
        <time>2020-08-16T14:47:03Z</time>
      </trkpt>
      <trkpt lat="46.02471" lon="6.61019">
        <ele>512.4</ele>
        <time>2020-08-16T14:47:04Z</time>
      </trkpt>
      <trkpt lat="46.02474" lon="6.61018">
        <ele>512.6</ele>
        <time>2020-08-16T14:47:05Z</time>
      </trkpt>
      <trkpt lat="46.02477" lon="6.61016">
        <ele>512.6</ele>
        <time>2020-08-16T14:47:06Z</time>
      </trkpt>
      <trkpt lat="46.0248" lon="6.61015">
        <ele>512.6</ele>
        <time>2020-08-16T14:47:07Z</time>
      </trkpt>
      <trkpt lat="46.02485" lon="6.61015">
        <ele>512.6</ele>
        <time>2020-08-16T14:47:08Z</time>
      </trkpt>
      <trkpt lat="46.0249" lon="6.61013">
        <ele>512.8</ele>
        <time>2020-08-16T14:47:09Z</time>
      </trkpt>
      <trkpt lat="46.02496" lon="6.61011">
        <ele>512.8</ele>
        <time>2020-08-16T14:47:10Z</time>
      </trkpt>
      <trkpt lat="46.025" lon="6.61009">
        <ele>513</ele>
        <time>2020-08-16T14:47:11Z</time>
      </trkpt>
      <trkpt lat="46.02504" lon="6.61008">
        <ele>513.2</ele>
        <time>2020-08-16T14:47:12Z</time>
      </trkpt>
      <trkpt lat="46.02509" lon="6.61007">
        <ele>513.4</ele>
        <time>2020-08-16T14:47:13Z</time>
      </trkpt>
      <trkpt lat="46.02513" lon="6.61006">
        <ele>513.4</ele>
        <time>2020-08-16T14:47:14Z</time>
      </trkpt>
      <trkpt lat="46.02517" lon="6.61006">
        <ele>513.6</ele>
        <time>2020-08-16T14:47:15Z</time>
      </trkpt>
      <trkpt lat="46.0252" lon="6.61006">
        <ele>513.6</ele>
        <time>2020-08-16T14:47:16Z</time>
      </trkpt>
      <trkpt lat="46.02523" lon="6.61007">
        <ele>513.8</ele>
        <time>2020-08-16T14:47:17Z</time>
      </trkpt>
      <trkpt lat="46.02526" lon="6.61008">
        <ele>513.8</ele>
        <time>2020-08-16T14:47:18Z</time>
      </trkpt>
      <trkpt lat="46.02529" lon="6.61009">
        <ele>514</ele>
        <time>2020-08-16T14:47:19Z</time>
      </trkpt>
      <trkpt lat="46.02532" lon="6.6101">
        <ele>514.2</ele>
        <time>2020-08-16T14:47:20Z</time>
      </trkpt>
      <trkpt lat="46.02535" lon="6.61012">
        <ele>514.4</ele>
        <time>2020-08-16T14:47:21Z</time>
      </trkpt>
      <trkpt lat="46.02539" lon="6.61013">
        <ele>514.4</ele>
        <time>2020-08-16T14:47:22Z</time>
      </trkpt>
      <trkpt lat="46.02541" lon="6.61015">
        <ele>514.6</ele>
        <time>2020-08-16T14:47:23Z</time>
      </trkpt>
      <trkpt lat="46.02544" lon="6.61016">
        <ele>514.8</ele>
        <time>2020-08-16T14:47:24Z</time>
      </trkpt>
      <trkpt lat="46.02547" lon="6.61017">
        <ele>515</ele>
        <time>2020-08-16T14:47:25Z</time>
      </trkpt>
      <trkpt lat="46.0255" lon="6.61019">
        <ele>515.2</ele>
        <time>2020-08-16T14:47:26Z</time>
      </trkpt>
      <trkpt lat="46.02553" lon="6.61019">
        <ele>515.2</ele>
        <time>2020-08-16T14:47:27Z</time>
      </trkpt>
      <trkpt lat="46.02555" lon="6.6102">
        <ele>515.4</ele>
        <time>2020-08-16T14:47:28Z</time>
      </trkpt>
      <trkpt lat="46.02558" lon="6.61021">
        <ele>515.6</ele>
        <time>2020-08-16T14:47:29Z</time>
      </trkpt>
      <trkpt lat="46.02561" lon="6.61022">
        <ele>515.6</ele>
        <time>2020-08-16T14:47:30Z</time>
      </trkpt>
      <trkpt lat="46.02563" lon="6.61023">
        <ele>515.8</ele>
        <time>2020-08-16T14:47:31Z</time>
      </trkpt>
      <trkpt lat="46.02566" lon="6.61024">
        <ele>516</ele>
        <time>2020-08-16T14:47:32Z</time>
      </trkpt>
      <trkpt lat="46.02568" lon="6.61025">
        <ele>516.2</ele>
        <time>2020-08-16T14:47:33Z</time>
      </trkpt>
      <trkpt lat="46.02571" lon="6.61026">
        <ele>516.4</ele>
        <time>2020-08-16T14:47:34Z</time>
      </trkpt>
      <trkpt lat="46.02574" lon="6.61028">
        <ele>516.4</ele>
        <time>2020-08-16T14:47:35Z</time>
      </trkpt>
      <trkpt lat="46.02576" lon="6.61029">
        <ele>516.6</ele>
        <time>2020-08-16T14:47:36Z</time>
      </trkpt>
      <trkpt lat="46.02579" lon="6.6103">
        <ele>516.6</ele>
        <time>2020-08-16T14:47:37Z</time>
      </trkpt>
      <trkpt lat="46.02582" lon="6.61032">
        <ele>516.8</ele>
        <time>2020-08-16T14:47:38Z</time>
      </trkpt>
      <trkpt lat="46.02584" lon="6.61033">
        <ele>516.8</ele>
        <time>2020-08-16T14:47:39Z</time>
      </trkpt>
      <trkpt lat="46.02587" lon="6.61035">
        <ele>517</ele>
        <time>2020-08-16T14:47:40Z</time>
      </trkpt>
      <trkpt lat="46.0259" lon="6.61037">
        <ele>517</ele>
        <time>2020-08-16T14:47:41Z</time>
      </trkpt>
      <trkpt lat="46.02593" lon="6.61039">
        <ele>517</ele>
        <time>2020-08-16T14:47:42Z</time>
      </trkpt>
      <trkpt lat="46.02595" lon="6.6104">
        <ele>517</ele>
        <time>2020-08-16T14:47:43Z</time>
      </trkpt>
      <trkpt lat="46.02598" lon="6.61042">
        <ele>517</ele>
        <time>2020-08-16T14:47:44Z</time>
      </trkpt>
      <trkpt lat="46.02601" lon="6.61042">
        <ele>517.2</ele>
        <time>2020-08-16T14:47:45Z</time>
      </trkpt>
      <trkpt lat="46.02603" lon="6.61045">
        <ele>517</ele>
        <time>2020-08-16T14:47:46Z</time>
      </trkpt>
      <trkpt lat="46.02605" lon="6.61047">
        <ele>517</ele>
        <time>2020-08-16T14:47:47Z</time>
      </trkpt>
      <trkpt lat="46.02609" lon="6.61048">
        <ele>516.8</ele>
        <time>2020-08-16T14:47:48Z</time>
      </trkpt>
      <trkpt lat="46.02612" lon="6.6105">
        <ele>516.8</ele>
        <time>2020-08-16T14:47:49Z</time>
      </trkpt>
      <trkpt lat="46.02616" lon="6.61051">
        <ele>516.8</ele>
        <time>2020-08-16T14:47:50Z</time>
      </trkpt>
      <trkpt lat="46.02619" lon="6.61052">
        <ele>516.6</ele>
        <time>2020-08-16T14:47:51Z</time>
      </trkpt>
      <trkpt lat="46.02622" lon="6.61054">
        <ele>516.6</ele>
        <time>2020-08-16T14:47:52Z</time>
      </trkpt>
      <trkpt lat="46.02625" lon="6.61055">
        <ele>516.4</ele>
        <time>2020-08-16T14:47:53Z</time>
      </trkpt>
      <trkpt lat="46.02628" lon="6.61056">
        <ele>516.2</ele>
        <time>2020-08-16T14:47:54Z</time>
      </trkpt>
      <trkpt lat="46.02632" lon="6.61058">
        <ele>516.2</ele>
        <time>2020-08-16T14:47:55Z</time>
      </trkpt>
      <trkpt lat="46.02636" lon="6.61059">
        <ele>516</ele>
        <time>2020-08-16T14:47:56Z</time>
      </trkpt>
      <trkpt lat="46.0264" lon="6.61059">
        <ele>515.8</ele>
        <time>2020-08-16T14:47:57Z</time>
      </trkpt>
      <trkpt lat="46.02644" lon="6.61059">
        <ele>515.6</ele>
        <time>2020-08-16T14:47:58Z</time>
      </trkpt>
      <trkpt lat="46.02648" lon="6.6106">
        <ele>515.4</ele>
        <time>2020-08-16T14:47:59Z</time>
      </trkpt>
      <trkpt lat="46.02652" lon="6.6106">
        <ele>515</ele>
        <time>2020-08-16T14:48:00Z</time>
      </trkpt>
      <trkpt lat="46.02657" lon="6.61061">
        <ele>514.8</ele>
        <time>2020-08-16T14:48:01Z</time>
      </trkpt>
      <trkpt lat="46.02662" lon="6.61061">
        <ele>514.4</ele>
        <time>2020-08-16T14:48:02Z</time>
      </trkpt>
      <trkpt lat="46.02668" lon="6.61061">
        <ele>514.2</ele>
        <time>2020-08-16T14:48:03Z</time>
      </trkpt>
      <trkpt lat="46.02675" lon="6.61061">
        <ele>514</ele>
        <time>2020-08-16T14:48:04Z</time>
      </trkpt>
      <trkpt lat="46.02682" lon="6.61062">
        <ele>513.6</ele>
        <time>2020-08-16T14:48:05Z</time>
      </trkpt>
      <trkpt lat="46.02689" lon="6.61062">
        <ele>513.4</ele>
        <time>2020-08-16T14:48:06Z</time>
      </trkpt>
      <trkpt lat="46.02696" lon="6.61061">
        <ele>513.2</ele>
        <time>2020-08-16T14:48:07Z</time>
      </trkpt>
      <trkpt lat="46.02703" lon="6.61061">
        <ele>513</ele>
        <time>2020-08-16T14:48:08Z</time>
      </trkpt>
      <trkpt lat="46.0271" lon="6.61061">
        <ele>512.8</ele>
        <time>2020-08-16T14:48:09Z</time>
      </trkpt>
      <trkpt lat="46.02718" lon="6.6106">
        <ele>512.6</ele>
        <time>2020-08-16T14:48:10Z</time>
      </trkpt>
      <trkpt lat="46.02725" lon="6.61061">
        <ele>512.6</ele>
        <time>2020-08-16T14:48:11Z</time>
      </trkpt>
      <trkpt lat="46.02732" lon="6.61061">
        <ele>512.6</ele>
        <time>2020-08-16T14:48:12Z</time>
      </trkpt>
      <trkpt lat="46.0274" lon="6.61062">
        <ele>512.4</ele>
        <time>2020-08-16T14:48:13Z</time>
      </trkpt>
      <trkpt lat="46.02746" lon="6.61063">
        <ele>512.4</ele>
        <time>2020-08-16T14:48:14Z</time>
      </trkpt>
      <trkpt lat="46.02753" lon="6.61064">
        <ele>512.4</ele>
        <time>2020-08-16T14:48:15Z</time>
      </trkpt>
      <trkpt lat="46.02759" lon="6.61065">
        <ele>512.4</ele>
        <time>2020-08-16T14:48:16Z</time>
      </trkpt>
      <trkpt lat="46.02765" lon="6.61066">
        <ele>512.6</ele>
        <time>2020-08-16T14:48:17Z</time>
      </trkpt>
      <trkpt lat="46.02769" lon="6.61068">
        <ele>512.4</ele>
        <time>2020-08-16T14:48:18Z</time>
      </trkpt>
      <trkpt lat="46.02774" lon="6.6107">
        <ele>512.4</ele>
        <time>2020-08-16T14:48:19Z</time>
      </trkpt>
      <trkpt lat="46.0278" lon="6.61071">
        <ele>512.4</ele>
        <time>2020-08-16T14:48:20Z</time>
      </trkpt>
      <trkpt lat="46.02786" lon="6.61072">
        <ele>512.4</ele>
        <time>2020-08-16T14:48:21Z</time>
      </trkpt>
      <trkpt lat="46.02791" lon="6.61073">
        <ele>512.4</ele>
        <time>2020-08-16T14:48:22Z</time>
      </trkpt>
      <trkpt lat="46.02797" lon="6.61074">
        <ele>512.2</ele>
        <time>2020-08-16T14:48:23Z</time>
      </trkpt>
      <trkpt lat="46.02803" lon="6.61075">
        <ele>512.2</ele>
        <time>2020-08-16T14:48:24Z</time>
      </trkpt>
      <trkpt lat="46.02808" lon="6.61075">
        <ele>512.4</ele>
        <time>2020-08-16T14:48:25Z</time>
      </trkpt>
      <trkpt lat="46.02814" lon="6.61076">
        <ele>512.4</ele>
        <time>2020-08-16T14:48:26Z</time>
      </trkpt>
      <trkpt lat="46.02819" lon="6.61076">
        <ele>512.2</ele>
        <time>2020-08-16T14:48:27Z</time>
      </trkpt>
      <trkpt lat="46.02825" lon="6.61077">
        <ele>512.2</ele>
        <time>2020-08-16T14:48:28Z</time>
      </trkpt>
      <trkpt lat="46.02829" lon="6.61078">
        <ele>512.2</ele>
        <time>2020-08-16T14:48:29Z</time>
      </trkpt>
      <trkpt lat="46.02834" lon="6.61078">
        <ele>512.2</ele>
        <time>2020-08-16T14:48:30Z</time>
      </trkpt>
      <trkpt lat="46.02839" lon="6.61078">
        <ele>512.2</ele>
        <time>2020-08-16T14:48:31Z</time>
      </trkpt>
      <trkpt lat="46.02844" lon="6.61079">
        <ele>512</ele>
        <time>2020-08-16T14:48:32Z</time>
      </trkpt>
      <trkpt lat="46.02848" lon="6.61079">
        <ele>512</ele>
        <time>2020-08-16T14:48:33Z</time>
      </trkpt>
      <trkpt lat="46.02852" lon="6.6108">
        <ele>512.2</ele>
        <time>2020-08-16T14:48:34Z</time>
      </trkpt>
      <trkpt lat="46.02857" lon="6.6108">
        <ele>512.2</ele>
        <time>2020-08-16T14:48:35Z</time>
      </trkpt>
      <trkpt lat="46.02861" lon="6.61081">
        <ele>512.2</ele>
        <time>2020-08-16T14:48:36Z</time>
      </trkpt>
      <trkpt lat="46.02865" lon="6.61082">
        <ele>512.4</ele>
        <time>2020-08-16T14:48:37Z</time>
      </trkpt>
      <trkpt lat="46.02869" lon="6.61082">
        <ele>512.4</ele>
        <time>2020-08-16T14:48:38Z</time>
      </trkpt>
      <trkpt lat="46.02873" lon="6.61083">
        <ele>512.4</ele>
        <time>2020-08-16T14:48:39Z</time>
      </trkpt>
      <trkpt lat="46.02877" lon="6.61083">
        <ele>512.4</ele>
        <time>2020-08-16T14:48:40Z</time>
      </trkpt>
      <trkpt lat="46.02881" lon="6.61083">
        <ele>512.4</ele>
        <time>2020-08-16T14:48:41Z</time>
      </trkpt>
      <trkpt lat="46.02885" lon="6.61082">
        <ele>512.4</ele>
        <time>2020-08-16T14:48:42Z</time>
      </trkpt>
      <trkpt lat="46.0289" lon="6.61082">
        <ele>512.4</ele>
        <time>2020-08-16T14:48:43Z</time>
      </trkpt>
      <trkpt lat="46.02894" lon="6.61082">
        <ele>512.6</ele>
        <time>2020-08-16T14:48:44Z</time>
      </trkpt>
      <trkpt lat="46.02898" lon="6.61082">
        <ele>512.6</ele>
        <time>2020-08-16T14:48:45Z</time>
      </trkpt>
      <trkpt lat="46.02902" lon="6.61082">
        <ele>512.6</ele>
        <time>2020-08-16T14:48:46Z</time>
      </trkpt>
      <trkpt lat="46.02906" lon="6.61082">
        <ele>512.8</ele>
        <time>2020-08-16T14:48:47Z</time>
      </trkpt>
      <trkpt lat="46.0291" lon="6.61083">
        <ele>512.8</ele>
        <time>2020-08-16T14:48:48Z</time>
      </trkpt>
      <trkpt lat="46.02914" lon="6.61084">
        <ele>513</ele>
        <time>2020-08-16T14:48:49Z</time>
      </trkpt>
      <trkpt lat="46.02918" lon="6.61086">
        <ele>513</ele>
        <time>2020-08-16T14:48:50Z</time>
      </trkpt>
      <trkpt lat="46.02921" lon="6.61089">
        <ele>513</ele>
        <time>2020-08-16T14:48:51Z</time>
      </trkpt>
      <trkpt lat="46.02924" lon="6.61092">
        <ele>513</ele>
        <time>2020-08-16T14:48:52Z</time>
      </trkpt>
      <trkpt lat="46.02927" lon="6.61095">
        <ele>513</ele>
        <time>2020-08-16T14:48:53Z</time>
      </trkpt>
      <trkpt lat="46.0293" lon="6.61098">
        <ele>513.2</ele>
        <time>2020-08-16T14:48:54Z</time>
      </trkpt>
      <trkpt lat="46.02933" lon="6.61101">
        <ele>513.2</ele>
        <time>2020-08-16T14:48:55Z</time>
      </trkpt>
      <trkpt lat="46.02937" lon="6.61105">
        <ele>513.2</ele>
        <time>2020-08-16T14:48:56Z</time>
      </trkpt>
      <trkpt lat="46.0294" lon="6.61108">
        <ele>513.2</ele>
        <time>2020-08-16T14:48:57Z</time>
      </trkpt>
      <trkpt lat="46.02943" lon="6.61111">
        <ele>513.2</ele>
        <time>2020-08-16T14:48:58Z</time>
      </trkpt>
      <trkpt lat="46.02946" lon="6.61114">
        <ele>513.4</ele>
        <time>2020-08-16T14:48:59Z</time>
      </trkpt>
      <trkpt lat="46.02949" lon="6.61118">
        <ele>513.4</ele>
        <time>2020-08-16T14:49:00Z</time>
      </trkpt>
      <trkpt lat="46.02952" lon="6.61121">
        <ele>513.6</ele>
        <time>2020-08-16T14:49:01Z</time>
      </trkpt>
      <trkpt lat="46.02955" lon="6.61124">
        <ele>513.6</ele>
        <time>2020-08-16T14:49:02Z</time>
      </trkpt>
      <trkpt lat="46.02958" lon="6.61127">
        <ele>513.6</ele>
        <time>2020-08-16T14:49:03Z</time>
      </trkpt>
      <trkpt lat="46.02961" lon="6.6113">
        <ele>513.8</ele>
        <time>2020-08-16T14:49:04Z</time>
      </trkpt>
      <trkpt lat="46.02963" lon="6.61132">
        <ele>513.8</ele>
        <time>2020-08-16T14:49:05Z</time>
      </trkpt>
      <trkpt lat="46.02966" lon="6.61135">
        <ele>513.8</ele>
        <time>2020-08-16T14:49:06Z</time>
      </trkpt>
      <trkpt lat="46.02969" lon="6.61137">
        <ele>514</ele>
        <time>2020-08-16T14:49:07Z</time>
      </trkpt>
      <trkpt lat="46.02971" lon="6.6114">
        <ele>514.2</ele>
        <time>2020-08-16T14:49:08Z</time>
      </trkpt>
      <trkpt lat="46.02974" lon="6.61143">
        <ele>514.2</ele>
        <time>2020-08-16T14:49:09Z</time>
      </trkpt>
      <trkpt lat="46.02976" lon="6.61146">
        <ele>514.4</ele>
        <time>2020-08-16T14:49:10Z</time>
      </trkpt>
      <trkpt lat="46.02979" lon="6.61148">
        <ele>514.6</ele>
        <time>2020-08-16T14:49:11Z</time>
      </trkpt>
      <trkpt lat="46.02981" lon="6.6115">
        <ele>514.4</ele>
        <time>2020-08-16T14:49:12Z</time>
      </trkpt>
      <trkpt lat="46.02984" lon="6.61152">
        <ele>514.2</ele>
        <time>2020-08-16T14:49:13Z</time>
      </trkpt>
      <trkpt lat="46.02987" lon="6.61154">
        <ele>514.2</ele>
        <time>2020-08-16T14:49:14Z</time>
      </trkpt>
      <trkpt lat="46.02989" lon="6.61156">
        <ele>514.2</ele>
        <time>2020-08-16T14:49:15Z</time>
      </trkpt>
      <trkpt lat="46.02993" lon="6.61158">
        <ele>514.2</ele>
        <time>2020-08-16T14:49:16Z</time>
      </trkpt>
      <trkpt lat="46.02996" lon="6.6116">
        <ele>514.2</ele>
        <time>2020-08-16T14:49:17Z</time>
      </trkpt>
      <trkpt lat="46.03" lon="6.61161">
        <ele>514.2</ele>
        <time>2020-08-16T14:49:18Z</time>
      </trkpt>
      <trkpt lat="46.03004" lon="6.61161">
        <ele>514</ele>
        <time>2020-08-16T14:49:19Z</time>
      </trkpt>
      <trkpt lat="46.03008" lon="6.61162">
        <ele>514</ele>
        <time>2020-08-16T14:49:20Z</time>
      </trkpt>
      <trkpt lat="46.03012" lon="6.61163">
        <ele>513.8</ele>
        <time>2020-08-16T14:49:21Z</time>
      </trkpt>
      <trkpt lat="46.03016" lon="6.61163">
        <ele>513.8</ele>
        <time>2020-08-16T14:49:22Z</time>
      </trkpt>
      <trkpt lat="46.0302" lon="6.61164">
        <ele>513.6</ele>
        <time>2020-08-16T14:49:23Z</time>
      </trkpt>
      <trkpt lat="46.03024" lon="6.61165">
        <ele>513.6</ele>
        <time>2020-08-16T14:49:24Z</time>
      </trkpt>
      <trkpt lat="46.03028" lon="6.61166">
        <ele>513.6</ele>
        <time>2020-08-16T14:49:25Z</time>
      </trkpt>
      <trkpt lat="46.03031" lon="6.61168">
        <ele>513.6</ele>
        <time>2020-08-16T14:49:26Z</time>
      </trkpt>
      <trkpt lat="46.03034" lon="6.6117">
        <ele>513.6</ele>
        <time>2020-08-16T14:49:27Z</time>
      </trkpt>
      <trkpt lat="46.03037" lon="6.61172">
        <ele>513.4</ele>
        <time>2020-08-16T14:49:28Z</time>
      </trkpt>
      <trkpt lat="46.0304" lon="6.61175">
        <ele>513.2</ele>
        <time>2020-08-16T14:49:29Z</time>
      </trkpt>
      <trkpt lat="46.03044" lon="6.61178">
        <ele>513.2</ele>
        <time>2020-08-16T14:49:30Z</time>
      </trkpt>
      <trkpt lat="46.03048" lon="6.6118">
        <ele>513.2</ele>
        <time>2020-08-16T14:49:31Z</time>
      </trkpt>
      <trkpt lat="46.03052" lon="6.61182">
        <ele>513</ele>
        <time>2020-08-16T14:49:32Z</time>
      </trkpt>
      <trkpt lat="46.03056" lon="6.61184">
        <ele>513</ele>
        <time>2020-08-16T14:49:33Z</time>
      </trkpt>
      <trkpt lat="46.0306" lon="6.61186">
        <ele>512.8</ele>
        <time>2020-08-16T14:49:34Z</time>
      </trkpt>
      <trkpt lat="46.03064" lon="6.61188">
        <ele>512.8</ele>
        <time>2020-08-16T14:49:35Z</time>
      </trkpt>
      <trkpt lat="46.03067" lon="6.6119">
        <ele>512.6</ele>
        <time>2020-08-16T14:49:36Z</time>
      </trkpt>
      <trkpt lat="46.03071" lon="6.61193">
        <ele>512.6</ele>
        <time>2020-08-16T14:49:37Z</time>
      </trkpt>
      <trkpt lat="46.03076" lon="6.61196">
        <ele>512.4</ele>
        <time>2020-08-16T14:49:38Z</time>
      </trkpt>
      <trkpt lat="46.0308" lon="6.61198">
        <ele>512.4</ele>
        <time>2020-08-16T14:49:39Z</time>
      </trkpt>
      <trkpt lat="46.03084" lon="6.61201">
        <ele>512.4</ele>
        <time>2020-08-16T14:49:40Z</time>
      </trkpt>
      <trkpt lat="46.03088" lon="6.61204">
        <ele>512.4</ele>
        <time>2020-08-16T14:49:41Z</time>
      </trkpt>
      <trkpt lat="46.03092" lon="6.61206">
        <ele>512.4</ele>
        <time>2020-08-16T14:49:42Z</time>
      </trkpt>
      <trkpt lat="46.03096" lon="6.61209">
        <ele>512.4</ele>
        <time>2020-08-16T14:49:43Z</time>
      </trkpt>
      <trkpt lat="46.031" lon="6.61211">
        <ele>512.4</ele>
        <time>2020-08-16T14:49:44Z</time>
      </trkpt>
      <trkpt lat="46.03104" lon="6.61213">
        <ele>512.2</ele>
        <time>2020-08-16T14:49:45Z</time>
      </trkpt>
      <trkpt lat="46.03109" lon="6.61214">
        <ele>512</ele>
        <time>2020-08-16T14:49:46Z</time>
      </trkpt>
      <trkpt lat="46.03114" lon="6.61215">
        <ele>512</ele>
        <time>2020-08-16T14:49:47Z</time>
      </trkpt>
      <trkpt lat="46.03118" lon="6.61215">
        <ele>512</ele>
        <time>2020-08-16T14:49:48Z</time>
      </trkpt>
      <trkpt lat="46.03123" lon="6.61215">
        <ele>511.8</ele>
        <time>2020-08-16T14:49:49Z</time>
      </trkpt>
      <trkpt lat="46.03128" lon="6.61215">
        <ele>512</ele>
        <time>2020-08-16T14:49:50Z</time>
      </trkpt>
      <trkpt lat="46.03132" lon="6.61214">
        <ele>511.8</ele>
        <time>2020-08-16T14:49:51Z</time>
      </trkpt>
      <trkpt lat="46.03137" lon="6.61214">
        <ele>511.8</ele>
        <time>2020-08-16T14:49:52Z</time>
      </trkpt>
      <trkpt lat="46.03141" lon="6.61212">
        <ele>511.8</ele>
        <time>2020-08-16T14:49:53Z</time>
      </trkpt>
      <trkpt lat="46.03144" lon="6.61211">
        <ele>511.8</ele>
        <time>2020-08-16T14:49:54Z</time>
      </trkpt>
      <trkpt lat="46.03148" lon="6.61209">
        <ele>512</ele>
        <time>2020-08-16T14:49:55Z</time>
      </trkpt>
      <trkpt lat="46.03152" lon="6.61208">
        <ele>512</ele>
        <time>2020-08-16T14:49:56Z</time>
      </trkpt>
      <trkpt lat="46.03155" lon="6.61207">
        <ele>512</ele>
        <time>2020-08-16T14:49:57Z</time>
      </trkpt>
      <trkpt lat="46.03159" lon="6.61205">
        <ele>512</ele>
        <time>2020-08-16T14:49:58Z</time>
      </trkpt>
      <trkpt lat="46.03163" lon="6.61204">
        <ele>512</ele>
        <time>2020-08-16T14:49:59Z</time>
      </trkpt>
      <trkpt lat="46.03166" lon="6.61203">
        <ele>512</ele>
        <time>2020-08-16T14:50:00Z</time>
      </trkpt>
      <trkpt lat="46.0317" lon="6.61203">
        <ele>512</ele>
        <time>2020-08-16T14:50:01Z</time>
      </trkpt>
      <trkpt lat="46.03174" lon="6.61203">
        <ele>512</ele>
        <time>2020-08-16T14:50:02Z</time>
      </trkpt>
      <trkpt lat="46.03178" lon="6.61203">
        <ele>512</ele>
        <time>2020-08-16T14:50:03Z</time>
      </trkpt>
      <trkpt lat="46.03182" lon="6.61202">
        <ele>511.8</ele>
        <time>2020-08-16T14:50:04Z</time>
      </trkpt>
      <trkpt lat="46.03186" lon="6.61201">
        <ele>511.8</ele>
        <time>2020-08-16T14:50:05Z</time>
      </trkpt>
      <trkpt lat="46.0319" lon="6.612">
        <ele>511.8</ele>
        <time>2020-08-16T14:50:06Z</time>
      </trkpt>
      <trkpt lat="46.03194" lon="6.61199">
        <ele>511.8</ele>
        <time>2020-08-16T14:50:07Z</time>
      </trkpt>
      <trkpt lat="46.03198" lon="6.61198">
        <ele>512</ele>
        <time>2020-08-16T14:50:08Z</time>
      </trkpt>
      <trkpt lat="46.03201" lon="6.61197">
        <ele>511.8</ele>
        <time>2020-08-16T14:50:09Z</time>
      </trkpt>
      <trkpt lat="46.03205" lon="6.61196">
        <ele>511.8</ele>
        <time>2020-08-16T14:50:10Z</time>
      </trkpt>
      <trkpt lat="46.03208" lon="6.61196">
        <ele>511.8</ele>
        <time>2020-08-16T14:50:11Z</time>
      </trkpt>
      <trkpt lat="46.03212" lon="6.61195">
        <ele>511.8</ele>
        <time>2020-08-16T14:50:12Z</time>
      </trkpt>
      <trkpt lat="46.03215" lon="6.61194">
        <ele>511.8</ele>
        <time>2020-08-16T14:50:13Z</time>
      </trkpt>
      <trkpt lat="46.0322" lon="6.61193">
        <ele>511.8</ele>
        <time>2020-08-16T14:50:14Z</time>
      </trkpt>
      <trkpt lat="46.03224" lon="6.61191">
        <ele>511.8</ele>
        <time>2020-08-16T14:50:15Z</time>
      </trkpt>
      <trkpt lat="46.03228" lon="6.61189">
        <ele>511.6</ele>
        <time>2020-08-16T14:50:16Z</time>
      </trkpt>
      <trkpt lat="46.03232" lon="6.61188">
        <ele>511.6</ele>
        <time>2020-08-16T14:50:17Z</time>
      </trkpt>
      <trkpt lat="46.03237" lon="6.61186">
        <ele>511.4</ele>
        <time>2020-08-16T14:50:18Z</time>
      </trkpt>
      <trkpt lat="46.03242" lon="6.61185">
        <ele>511.4</ele>
        <time>2020-08-16T14:50:19Z</time>
      </trkpt>
      <trkpt lat="46.03246" lon="6.61182">
        <ele>511.4</ele>
        <time>2020-08-16T14:50:20Z</time>
      </trkpt>
      <trkpt lat="46.0325" lon="6.6118">
        <ele>511.4</ele>
        <time>2020-08-16T14:50:21Z</time>
      </trkpt>
      <trkpt lat="46.03255" lon="6.61179">
        <ele>511.4</ele>
        <time>2020-08-16T14:50:22Z</time>
      </trkpt>
      <trkpt lat="46.0326" lon="6.61178">
        <ele>511.2</ele>
        <time>2020-08-16T14:50:23Z</time>
      </trkpt>
      <trkpt lat="46.03264" lon="6.61178">
        <ele>511.2</ele>
        <time>2020-08-16T14:50:24Z</time>
      </trkpt>
      <trkpt lat="46.0327" lon="6.61178">
        <ele>511</ele>
        <time>2020-08-16T14:50:25Z</time>
      </trkpt>
      <trkpt lat="46.03275" lon="6.61178">
        <ele>510.8</ele>
        <time>2020-08-16T14:50:26Z</time>
      </trkpt>
      <trkpt lat="46.03281" lon="6.61179">
        <ele>510.8</ele>
        <time>2020-08-16T14:50:27Z</time>
      </trkpt>
      <trkpt lat="46.03286" lon="6.6118">
        <ele>510.6</ele>
        <time>2020-08-16T14:50:28Z</time>
      </trkpt>
      <trkpt lat="46.03292" lon="6.61181">
        <ele>510.4</ele>
        <time>2020-08-16T14:50:29Z</time>
      </trkpt>
      <trkpt lat="46.03298" lon="6.61182">
        <ele>510.2</ele>
        <time>2020-08-16T14:50:30Z</time>
      </trkpt>
      <trkpt lat="46.03304" lon="6.61183">
        <ele>510</ele>
        <time>2020-08-16T14:50:31Z</time>
      </trkpt>
      <trkpt lat="46.0331" lon="6.61184">
        <ele>509.8</ele>
        <time>2020-08-16T14:50:32Z</time>
      </trkpt>
      <trkpt lat="46.03316" lon="6.61186">
        <ele>509.6</ele>
        <time>2020-08-16T14:50:33Z</time>
      </trkpt>
      <trkpt lat="46.03322" lon="6.61188">
        <ele>509.4</ele>
        <time>2020-08-16T14:50:34Z</time>
      </trkpt>
      <trkpt lat="46.03329" lon="6.61189">
        <ele>509.2</ele>
        <time>2020-08-16T14:50:35Z</time>
      </trkpt>
      <trkpt lat="46.03335" lon="6.6119">
        <ele>509</ele>
        <time>2020-08-16T14:50:36Z</time>
      </trkpt>
      <trkpt lat="46.03341" lon="6.6119">
        <ele>509</ele>
        <time>2020-08-16T14:50:37Z</time>
      </trkpt>
      <trkpt lat="46.03347" lon="6.61189">
        <ele>508.8</ele>
        <time>2020-08-16T14:50:38Z</time>
      </trkpt>
      <trkpt lat="46.03353" lon="6.61189">
        <ele>508.6</ele>
        <time>2020-08-16T14:50:39Z</time>
      </trkpt>
      <trkpt lat="46.0336" lon="6.61188">
        <ele>508.4</ele>
        <time>2020-08-16T14:50:40Z</time>
      </trkpt>
      <trkpt lat="46.03366" lon="6.61187">
        <ele>508</ele>
        <time>2020-08-16T14:50:41Z</time>
      </trkpt>
      <trkpt lat="46.03372" lon="6.61185">
        <ele>508</ele>
        <time>2020-08-16T14:50:42Z</time>
      </trkpt>
      <trkpt lat="46.03378" lon="6.61184">
        <ele>507.6</ele>
        <time>2020-08-16T14:50:43Z</time>
      </trkpt>
      <trkpt lat="46.03385" lon="6.61182">
        <ele>507.4</ele>
        <time>2020-08-16T14:50:44Z</time>
      </trkpt>
      <trkpt lat="46.03391" lon="6.6118">
        <ele>507.2</ele>
        <time>2020-08-16T14:50:45Z</time>
      </trkpt>
      <trkpt lat="46.03396" lon="6.61177">
        <ele>507.2</ele>
        <time>2020-08-16T14:50:46Z</time>
      </trkpt>
      <trkpt lat="46.03402" lon="6.61174">
        <ele>507</ele>
        <time>2020-08-16T14:50:47Z</time>
      </trkpt>
      <trkpt lat="46.03407" lon="6.6117">
        <ele>506.6</ele>
        <time>2020-08-16T14:50:48Z</time>
      </trkpt>
      <trkpt lat="46.03412" lon="6.61166">
        <ele>506.4</ele>
        <time>2020-08-16T14:50:49Z</time>
      </trkpt>
      <trkpt lat="46.03417" lon="6.61163">
        <ele>506.2</ele>
        <time>2020-08-16T14:50:50Z</time>
      </trkpt>
      <trkpt lat="46.03421" lon="6.6116">
        <ele>506.2</ele>
        <time>2020-08-16T14:50:51Z</time>
      </trkpt>
      <trkpt lat="46.03426" lon="6.61157">
        <ele>506.2</ele>
        <time>2020-08-16T14:50:52Z</time>
      </trkpt>
      <trkpt lat="46.0343" lon="6.61153">
        <ele>506</ele>
        <time>2020-08-16T14:50:53Z</time>
      </trkpt>
      <trkpt lat="46.03434" lon="6.6115">
        <ele>506</ele>
        <time>2020-08-16T14:50:54Z</time>
      </trkpt>
      <trkpt lat="46.03438" lon="6.61147">
        <ele>505.8</ele>
        <time>2020-08-16T14:50:55Z</time>
      </trkpt>
      <trkpt lat="46.03443" lon="6.61143">
        <ele>505.8</ele>
        <time>2020-08-16T14:50:56Z</time>
      </trkpt>
      <trkpt lat="46.03447" lon="6.61139">
        <ele>505.8</ele>
        <time>2020-08-16T14:50:57Z</time>
      </trkpt>
      <trkpt lat="46.03451" lon="6.61136">
        <ele>505.8</ele>
        <time>2020-08-16T14:50:58Z</time>
      </trkpt>
      <trkpt lat="46.03455" lon="6.61133">
        <ele>505.8</ele>
        <time>2020-08-16T14:50:59Z</time>
      </trkpt>
      <trkpt lat="46.03459" lon="6.61129">
        <ele>505.6</ele>
        <time>2020-08-16T14:51:00Z</time>
      </trkpt>
      <trkpt lat="46.03463" lon="6.61126">
        <ele>505.6</ele>
        <time>2020-08-16T14:51:01Z</time>
      </trkpt>
      <trkpt lat="46.03467" lon="6.61122">
        <ele>505.6</ele>
        <time>2020-08-16T14:51:02Z</time>
      </trkpt>
      <trkpt lat="46.03471" lon="6.61118">
        <ele>505.8</ele>
        <time>2020-08-16T14:51:03Z</time>
      </trkpt>
      <trkpt lat="46.03475" lon="6.61114">
        <ele>505.8</ele>
        <time>2020-08-16T14:51:04Z</time>
      </trkpt>
      <trkpt lat="46.03478" lon="6.61109">
        <ele>506</ele>
        <time>2020-08-16T14:51:05Z</time>
      </trkpt>
      <trkpt lat="46.03481" lon="6.61104">
        <ele>506</ele>
        <time>2020-08-16T14:51:06Z</time>
      </trkpt>
      <trkpt lat="46.03484" lon="6.61099">
        <ele>506</ele>
        <time>2020-08-16T14:51:07Z</time>
      </trkpt>
      <trkpt lat="46.03486" lon="6.61093">
        <ele>506</ele>
        <time>2020-08-16T14:51:08Z</time>
      </trkpt>
      <trkpt lat="46.03488" lon="6.61087">
        <ele>506</ele>
        <time>2020-08-16T14:51:09Z</time>
      </trkpt>
      <trkpt lat="46.03489" lon="6.61081">
        <ele>506</ele>
        <time>2020-08-16T14:51:10Z</time>
      </trkpt>
      <trkpt lat="46.03491" lon="6.61075">
        <ele>505.8</ele>
        <time>2020-08-16T14:51:11Z</time>
      </trkpt>
      <trkpt lat="46.03492" lon="6.61068">
        <ele>505.8</ele>
        <time>2020-08-16T14:51:12Z</time>
      </trkpt>
      <trkpt lat="46.03492" lon="6.61062">
        <ele>506</ele>
        <time>2020-08-16T14:51:13Z</time>
      </trkpt>
      <trkpt lat="46.03493" lon="6.61055">
        <ele>506</ele>
        <time>2020-08-16T14:51:14Z</time>
      </trkpt>
      <trkpt lat="46.03493" lon="6.61048">
        <ele>505.8</ele>
        <time>2020-08-16T14:51:15Z</time>
      </trkpt>
      <trkpt lat="46.03494" lon="6.61042">
        <ele>505.8</ele>
        <time>2020-08-16T14:51:16Z</time>
      </trkpt>
      <trkpt lat="46.03494" lon="6.61036">
        <ele>505.8</ele>
        <time>2020-08-16T14:51:17Z</time>
      </trkpt>
      <trkpt lat="46.03494" lon="6.61031">
        <ele>505.8</ele>
        <time>2020-08-16T14:51:18Z</time>
      </trkpt>
      <trkpt lat="46.03496" lon="6.61026">
        <ele>505.6</ele>
        <time>2020-08-16T14:51:19Z</time>
      </trkpt>
      <trkpt lat="46.03498" lon="6.61023">
        <ele>505.8</ele>
        <time>2020-08-16T14:51:20Z</time>
      </trkpt>
      <trkpt lat="46.035" lon="6.6102">
        <ele>505.6</ele>
        <time>2020-08-16T14:51:21Z</time>
      </trkpt>
      <trkpt lat="46.03501" lon="6.61017">
        <ele>505.6</ele>
        <time>2020-08-16T14:51:22Z</time>
      </trkpt>
      <trkpt lat="46.03504" lon="6.61014">
        <ele>506</ele>
        <time>2020-08-16T14:51:23Z</time>
      </trkpt>
      <trkpt lat="46.03507" lon="6.61013">
        <ele>506</ele>
        <time>2020-08-16T14:51:24Z</time>
      </trkpt>
      <trkpt lat="46.0351" lon="6.61012">
        <ele>506</ele>
        <time>2020-08-16T14:51:25Z</time>
      </trkpt>
      <trkpt lat="46.03514" lon="6.61011">
        <ele>506</ele>
        <time>2020-08-16T14:51:26Z</time>
      </trkpt>
      <trkpt lat="46.03518" lon="6.6101">
        <ele>506</ele>
        <time>2020-08-16T14:51:27Z</time>
      </trkpt>
      <trkpt lat="46.03522" lon="6.61008">
        <ele>506.2</ele>
        <time>2020-08-16T14:51:28Z</time>
      </trkpt>
      <trkpt lat="46.03526" lon="6.61006">
        <ele>506.2</ele>
        <time>2020-08-16T14:51:29Z</time>
      </trkpt>
      <trkpt lat="46.0353" lon="6.61005">
        <ele>506.2</ele>
        <time>2020-08-16T14:51:30Z</time>
      </trkpt>
      <trkpt lat="46.03534" lon="6.61003">
        <ele>506.2</ele>
        <time>2020-08-16T14:51:31Z</time>
      </trkpt>
      <trkpt lat="46.03538" lon="6.61001">
        <ele>506.2</ele>
        <time>2020-08-16T14:51:32Z</time>
      </trkpt>
      <trkpt lat="46.03542" lon="6.60999">
        <ele>506.2</ele>
        <time>2020-08-16T14:51:33Z</time>
      </trkpt>
      <trkpt lat="46.03547" lon="6.60998">
        <ele>506.2</ele>
        <time>2020-08-16T14:51:34Z</time>
      </trkpt>
      <trkpt lat="46.03551" lon="6.60996">
        <ele>506.4</ele>
        <time>2020-08-16T14:51:35Z</time>
      </trkpt>
      <trkpt lat="46.03556" lon="6.60994">
        <ele>506.4</ele>
        <time>2020-08-16T14:51:36Z</time>
      </trkpt>
      <trkpt lat="46.0356" lon="6.60992">
        <ele>506.2</ele>
        <time>2020-08-16T14:51:37Z</time>
      </trkpt>
      <trkpt lat="46.03565" lon="6.6099">
        <ele>506.2</ele>
        <time>2020-08-16T14:51:38Z</time>
      </trkpt>
      <trkpt lat="46.03569" lon="6.60988">
        <ele>506.4</ele>
        <time>2020-08-16T14:51:39Z</time>
      </trkpt>
      <trkpt lat="46.03574" lon="6.60986">
        <ele>506.2</ele>
        <time>2020-08-16T14:51:40Z</time>
      </trkpt>
      <trkpt lat="46.03579" lon="6.60984">
        <ele>506.2</ele>
        <time>2020-08-16T14:51:41Z</time>
      </trkpt>
      <trkpt lat="46.03583" lon="6.60983">
        <ele>506.2</ele>
        <time>2020-08-16T14:51:42Z</time>
      </trkpt>
      <trkpt lat="46.03588" lon="6.60981">
        <ele>506.4</ele>
        <time>2020-08-16T14:51:43Z</time>
      </trkpt>
      <trkpt lat="46.03593" lon="6.60979">
        <ele>506.4</ele>
        <time>2020-08-16T14:51:44Z</time>
      </trkpt>
      <trkpt lat="46.03597" lon="6.60977">
        <ele>506.2</ele>
        <time>2020-08-16T14:51:45Z</time>
      </trkpt>
      <trkpt lat="46.03602" lon="6.60975">
        <ele>506.4</ele>
        <time>2020-08-16T14:51:46Z</time>
      </trkpt>
      <trkpt lat="46.03606" lon="6.60973">
        <ele>506.4</ele>
        <time>2020-08-16T14:51:47Z</time>
      </trkpt>
      <trkpt lat="46.03611" lon="6.60971">
        <ele>506.4</ele>
        <time>2020-08-16T14:51:48Z</time>
      </trkpt>
      <trkpt lat="46.03615" lon="6.6097">
        <ele>506.2</ele>
        <time>2020-08-16T14:51:49Z</time>
      </trkpt>
      <trkpt lat="46.0362" lon="6.60968">
        <ele>506.2</ele>
        <time>2020-08-16T14:51:50Z</time>
      </trkpt>
      <trkpt lat="46.03625" lon="6.60966">
        <ele>506.4</ele>
        <time>2020-08-16T14:51:51Z</time>
      </trkpt>
      <trkpt lat="46.03629" lon="6.60964">
        <ele>506.4</ele>
        <time>2020-08-16T14:51:52Z</time>
      </trkpt>
      <trkpt lat="46.03634" lon="6.60962">
        <ele>506.4</ele>
        <time>2020-08-16T14:51:53Z</time>
      </trkpt>
      <trkpt lat="46.03638" lon="6.6096">
        <ele>506.4</ele>
        <time>2020-08-16T14:51:54Z</time>
      </trkpt>
      <trkpt lat="46.03642" lon="6.60959">
        <ele>506.4</ele>
        <time>2020-08-16T14:51:55Z</time>
      </trkpt>
      <trkpt lat="46.03647" lon="6.60957">
        <ele>506.4</ele>
        <time>2020-08-16T14:51:56Z</time>
      </trkpt>
      <trkpt lat="46.03651" lon="6.60955">
        <ele>506.4</ele>
        <time>2020-08-16T14:51:57Z</time>
      </trkpt>
      <trkpt lat="46.03656" lon="6.60953">
        <ele>506.4</ele>
        <time>2020-08-16T14:51:58Z</time>
      </trkpt>
      <trkpt lat="46.0366" lon="6.60951">
        <ele>506.4</ele>
        <time>2020-08-16T14:51:59Z</time>
      </trkpt>
      <trkpt lat="46.03664" lon="6.60948">
        <ele>506.6</ele>
        <time>2020-08-16T14:52:00Z</time>
      </trkpt>
      <trkpt lat="46.03667" lon="6.60944">
        <ele>506.6</ele>
        <time>2020-08-16T14:52:01Z</time>
      </trkpt>
      <trkpt lat="46.0367" lon="6.60939">
        <ele>506.6</ele>
        <time>2020-08-16T14:52:02Z</time>
      </trkpt>
      <trkpt lat="46.03673" lon="6.60934">
        <ele>506.4</ele>
        <time>2020-08-16T14:52:03Z</time>
      </trkpt>
      <trkpt lat="46.03675" lon="6.60928">
        <ele>506.4</ele>
        <time>2020-08-16T14:52:04Z</time>
      </trkpt>
      <trkpt lat="46.03676" lon="6.60922">
        <ele>506.4</ele>
        <time>2020-08-16T14:52:05Z</time>
      </trkpt>
      <trkpt lat="46.03677" lon="6.60916">
        <ele>506.4</ele>
        <time>2020-08-16T14:52:06Z</time>
      </trkpt>
      <trkpt lat="46.03678" lon="6.60909">
        <ele>506.4</ele>
        <time>2020-08-16T14:52:07Z</time>
      </trkpt>
      <trkpt lat="46.03678" lon="6.60902">
        <ele>506.4</ele>
        <time>2020-08-16T14:52:08Z</time>
      </trkpt>
      <trkpt lat="46.03678" lon="6.60895">
        <ele>506.4</ele>
        <time>2020-08-16T14:52:09Z</time>
      </trkpt>
      <trkpt lat="46.03678" lon="6.60888">
        <ele>506.6</ele>
        <time>2020-08-16T14:52:10Z</time>
      </trkpt>
      <trkpt lat="46.03678" lon="6.60882">
        <ele>506.6</ele>
        <time>2020-08-16T14:52:11Z</time>
      </trkpt>
      <trkpt lat="46.03679" lon="6.60876">
        <ele>506.8</ele>
        <time>2020-08-16T14:52:12Z</time>
      </trkpt>
      <trkpt lat="46.03679" lon="6.60871">
        <ele>507</ele>
        <time>2020-08-16T14:52:13Z</time>
      </trkpt>
      <trkpt lat="46.03679" lon="6.60865">
        <ele>507.2</ele>
        <time>2020-08-16T14:52:14Z</time>
      </trkpt>
      <trkpt lat="46.03679" lon="6.6086">
        <ele>507.4</ele>
        <time>2020-08-16T14:52:15Z</time>
      </trkpt>
      <trkpt lat="46.03679" lon="6.60855">
        <ele>507.4</ele>
        <time>2020-08-16T14:52:16Z</time>
      </trkpt>
      <trkpt lat="46.0368" lon="6.60849">
        <ele>507.4</ele>
        <time>2020-08-16T14:52:17Z</time>
      </trkpt>
      <trkpt lat="46.0368" lon="6.60845">
        <ele>507.6</ele>
        <time>2020-08-16T14:52:18Z</time>
      </trkpt>
      <trkpt lat="46.0368" lon="6.6084">
        <ele>507.6</ele>
        <time>2020-08-16T14:52:19Z</time>
      </trkpt>
      <trkpt lat="46.03681" lon="6.60835">
        <ele>507.6</ele>
        <time>2020-08-16T14:52:20Z</time>
      </trkpt>
      <trkpt lat="46.03681" lon="6.60832">
        <ele>507.6</ele>
        <time>2020-08-16T14:52:21Z</time>
      </trkpt>
      <trkpt lat="46.03681" lon="6.60828">
        <ele>507.8</ele>
        <time>2020-08-16T14:52:22Z</time>
      </trkpt>
      <trkpt lat="46.03682" lon="6.60825">
        <ele>507.8</ele>
        <time>2020-08-16T14:52:23Z</time>
      </trkpt>
      <trkpt lat="46.03684" lon="6.60824">
        <ele>508</ele>
        <time>2020-08-16T14:52:24Z</time>
      </trkpt>
      <trkpt lat="46.03687" lon="6.60824">
        <ele>508</ele>
        <time>2020-08-16T14:52:25Z</time>
      </trkpt>
      <trkpt lat="46.03689" lon="6.60824">
        <ele>508</ele>
        <time>2020-08-16T14:52:26Z</time>
      </trkpt>
      <trkpt lat="46.03692" lon="6.60824">
        <ele>508</ele>
        <time>2020-08-16T14:52:27Z</time>
      </trkpt>
      <trkpt lat="46.03695" lon="6.60824">
        <ele>508</ele>
        <time>2020-08-16T14:52:28Z</time>
      </trkpt>
      <trkpt lat="46.03699" lon="6.60825">
        <ele>508</ele>
        <time>2020-08-16T14:52:29Z</time>
      </trkpt>
      <trkpt lat="46.03702" lon="6.60825">
        <ele>508</ele>
        <time>2020-08-16T14:52:30Z</time>
      </trkpt>
      <trkpt lat="46.03705" lon="6.60825">
        <ele>508</ele>
        <time>2020-08-16T14:52:31Z</time>
      </trkpt>
      <trkpt lat="46.03708" lon="6.60826">
        <ele>508</ele>
        <time>2020-08-16T14:52:32Z</time>
      </trkpt>
      <trkpt lat="46.03711" lon="6.60826">
        <ele>507.8</ele>
        <time>2020-08-16T14:52:33Z</time>
      </trkpt>
      <trkpt lat="46.03713" lon="6.60826">
        <ele>507.8</ele>
        <time>2020-08-16T14:52:34Z</time>
      </trkpt>
      <trkpt lat="46.03716" lon="6.60826">
        <ele>507.8</ele>
        <time>2020-08-16T14:52:35Z</time>
      </trkpt>
      <trkpt lat="46.0372" lon="6.60827">
        <ele>507.8</ele>
        <time>2020-08-16T14:52:36Z</time>
      </trkpt>
      <trkpt lat="46.03724" lon="6.60827">
        <ele>507.6</ele>
        <time>2020-08-16T14:52:37Z</time>
      </trkpt>
      <trkpt lat="46.03727" lon="6.60827">
        <ele>507.6</ele>
        <time>2020-08-16T14:52:38Z</time>
      </trkpt>
      <trkpt lat="46.03731" lon="6.60828">
        <ele>507.6</ele>
        <time>2020-08-16T14:52:39Z</time>
      </trkpt>
      <trkpt lat="46.03734" lon="6.60827">
        <ele>507.6</ele>
        <time>2020-08-16T14:52:40Z</time>
      </trkpt>
      <trkpt lat="46.03737" lon="6.60826">
        <ele>507.6</ele>
        <time>2020-08-16T14:52:41Z</time>
      </trkpt>
      <trkpt lat="46.03739" lon="6.60823">
        <ele>507.6</ele>
        <time>2020-08-16T14:52:42Z</time>
      </trkpt>
      <trkpt lat="46.03741" lon="6.60818">
        <ele>507.6</ele>
        <time>2020-08-16T14:52:43Z</time>
      </trkpt>
      <trkpt lat="46.03742" lon="6.60814">
        <ele>507.6</ele>
        <time>2020-08-16T14:52:44Z</time>
      </trkpt>
      <trkpt lat="46.03742" lon="6.60808">
        <ele>507.4</ele>
        <time>2020-08-16T14:52:45Z</time>
      </trkpt>
      <trkpt lat="46.03743" lon="6.60803">
        <ele>507.4</ele>
        <time>2020-08-16T14:52:46Z</time>
      </trkpt>
      <trkpt lat="46.03743" lon="6.60797">
        <ele>507.4</ele>
        <time>2020-08-16T14:52:47Z</time>
      </trkpt>
      <trkpt lat="46.03744" lon="6.60791">
        <ele>507.4</ele>
        <time>2020-08-16T14:52:48Z</time>
      </trkpt>
      <trkpt lat="46.03744" lon="6.60785">
        <ele>507.4</ele>
        <time>2020-08-16T14:52:49Z</time>
      </trkpt>
      <trkpt lat="46.03745" lon="6.6078">
        <ele>507.4</ele>
        <time>2020-08-16T14:52:50Z</time>
      </trkpt>
      <trkpt lat="46.03745" lon="6.60774">
        <ele>507.4</ele>
        <time>2020-08-16T14:52:51Z</time>
      </trkpt>
      <trkpt lat="46.03746" lon="6.60769">
        <ele>507.2</ele>
        <time>2020-08-16T14:52:52Z</time>
      </trkpt>
      <trkpt lat="46.03747" lon="6.60764">
        <ele>507.2</ele>
        <time>2020-08-16T14:52:53Z</time>
      </trkpt>
      <trkpt lat="46.03747" lon="6.60759">
        <ele>507.2</ele>
        <time>2020-08-16T14:52:54Z</time>
      </trkpt>
      <trkpt lat="46.03748" lon="6.60754">
        <ele>507.2</ele>
        <time>2020-08-16T14:52:55Z</time>
      </trkpt>
      <trkpt lat="46.03748" lon="6.60749">
        <ele>507.2</ele>
        <time>2020-08-16T14:52:56Z</time>
      </trkpt>
      <trkpt lat="46.03749" lon="6.60744">
        <ele>507.2</ele>
        <time>2020-08-16T14:52:57Z</time>
      </trkpt>
      <trkpt lat="46.0375" lon="6.60738">
        <ele>507.2</ele>
        <time>2020-08-16T14:52:58Z</time>
      </trkpt>
      <trkpt lat="46.0375" lon="6.60733">
        <ele>507.2</ele>
        <time>2020-08-16T14:52:59Z</time>
      </trkpt>
      <trkpt lat="46.03751" lon="6.60727">
        <ele>507.2</ele>
        <time>2020-08-16T14:53:00Z</time>
      </trkpt>
      <trkpt lat="46.03752" lon="6.60721">
        <ele>507.2</ele>
        <time>2020-08-16T14:53:01Z</time>
      </trkpt>
      <trkpt lat="46.03753" lon="6.60715">
        <ele>507.2</ele>
        <time>2020-08-16T14:53:02Z</time>
      </trkpt>
      <trkpt lat="46.03754" lon="6.6071">
        <ele>507.2</ele>
        <time>2020-08-16T14:53:03Z</time>
      </trkpt>
      <trkpt lat="46.03756" lon="6.60704">
        <ele>507.2</ele>
        <time>2020-08-16T14:53:04Z</time>
      </trkpt>
      <trkpt lat="46.03757" lon="6.60699">
        <ele>507.2</ele>
        <time>2020-08-16T14:53:05Z</time>
      </trkpt>
      <trkpt lat="46.03759" lon="6.60693">
        <ele>507.2</ele>
        <time>2020-08-16T14:53:06Z</time>
      </trkpt>
      <trkpt lat="46.0376" lon="6.60688">
        <ele>507</ele>
        <time>2020-08-16T14:53:07Z</time>
      </trkpt>
      <trkpt lat="46.03762" lon="6.60683">
        <ele>507.2</ele>
        <time>2020-08-16T14:53:08Z</time>
      </trkpt>
      <trkpt lat="46.03763" lon="6.60678">
        <ele>507</ele>
        <time>2020-08-16T14:53:09Z</time>
      </trkpt>
      <trkpt lat="46.03765" lon="6.60674">
        <ele>507</ele>
        <time>2020-08-16T14:53:10Z</time>
      </trkpt>
      <trkpt lat="46.03767" lon="6.6067">
        <ele>507</ele>
        <time>2020-08-16T14:53:11Z</time>
      </trkpt>
      <trkpt lat="46.03769" lon="6.60666">
        <ele>507</ele>
        <time>2020-08-16T14:53:12Z</time>
      </trkpt>
      <trkpt lat="46.03771" lon="6.60662">
        <ele>507</ele>
        <time>2020-08-16T14:53:13Z</time>
      </trkpt>
      <trkpt lat="46.03773" lon="6.60658">
        <ele>507</ele>
        <time>2020-08-16T14:53:14Z</time>
      </trkpt>
      <trkpt lat="46.03775" lon="6.60654">
        <ele>507</ele>
        <time>2020-08-16T14:53:15Z</time>
      </trkpt>
      <trkpt lat="46.03778" lon="6.60649">
        <ele>506.8</ele>
        <time>2020-08-16T14:53:16Z</time>
      </trkpt>
      <trkpt lat="46.0378" lon="6.60644">
        <ele>506.8</ele>
        <time>2020-08-16T14:53:17Z</time>
      </trkpt>
      <trkpt lat="46.03783" lon="6.60639">
        <ele>506.8</ele>
        <time>2020-08-16T14:53:18Z</time>
      </trkpt>
      <trkpt lat="46.03787" lon="6.60634">
        <ele>506.6</ele>
        <time>2020-08-16T14:53:19Z</time>
      </trkpt>
      <trkpt lat="46.0379" lon="6.6063">
        <ele>506.6</ele>
        <time>2020-08-16T14:53:20Z</time>
      </trkpt>
      <trkpt lat="46.03793" lon="6.60626">
        <ele>506.6</ele>
        <time>2020-08-16T14:53:21Z</time>
      </trkpt>
      <trkpt lat="46.03796" lon="6.60622">
        <ele>506.6</ele>
        <time>2020-08-16T14:53:22Z</time>
      </trkpt>
      <trkpt lat="46.03799" lon="6.60619">
        <ele>506.8</ele>
        <time>2020-08-16T14:53:23Z</time>
      </trkpt>
      <trkpt lat="46.03802" lon="6.60616">
        <ele>506.8</ele>
        <time>2020-08-16T14:53:24Z</time>
      </trkpt>
      <trkpt lat="46.03805" lon="6.60613">
        <ele>506.8</ele>
        <time>2020-08-16T14:53:25Z</time>
      </trkpt>
      <trkpt lat="46.03808" lon="6.60611">
        <ele>506.8</ele>
        <time>2020-08-16T14:53:26Z</time>
      </trkpt>
      <trkpt lat="46.03812" lon="6.60608">
        <ele>506.8</ele>
        <time>2020-08-16T14:53:27Z</time>
      </trkpt>
      <trkpt lat="46.03816" lon="6.60605">
        <ele>506.8</ele>
        <time>2020-08-16T14:53:28Z</time>
      </trkpt>
      <trkpt lat="46.03819" lon="6.60603">
        <ele>506.8</ele>
        <time>2020-08-16T14:53:29Z</time>
      </trkpt>
      <trkpt lat="46.03823" lon="6.606">
        <ele>506.8</ele>
        <time>2020-08-16T14:53:30Z</time>
      </trkpt>
      <trkpt lat="46.03827" lon="6.60597">
        <ele>506.8</ele>
        <time>2020-08-16T14:53:31Z</time>
      </trkpt>
      <trkpt lat="46.03831" lon="6.60594">
        <ele>506.8</ele>
        <time>2020-08-16T14:53:32Z</time>
      </trkpt>
      <trkpt lat="46.03835" lon="6.60592">
        <ele>506.8</ele>
        <time>2020-08-16T14:53:33Z</time>
      </trkpt>
      <trkpt lat="46.0384" lon="6.60589">
        <ele>506.8</ele>
        <time>2020-08-16T14:53:34Z</time>
      </trkpt>
      <trkpt lat="46.03844" lon="6.60586">
        <ele>506.8</ele>
        <time>2020-08-16T14:53:35Z</time>
      </trkpt>
      <trkpt lat="46.03848" lon="6.60584">
        <ele>506.8</ele>
        <time>2020-08-16T14:53:36Z</time>
      </trkpt>
      <trkpt lat="46.03853" lon="6.60581">
        <ele>506.6</ele>
        <time>2020-08-16T14:53:37Z</time>
      </trkpt>
      <trkpt lat="46.03857" lon="6.60578">
        <ele>506.6</ele>
        <time>2020-08-16T14:53:38Z</time>
      </trkpt>
      <trkpt lat="46.03862" lon="6.60576">
        <ele>506.4</ele>
        <time>2020-08-16T14:53:39Z</time>
      </trkpt>
      <trkpt lat="46.03867" lon="6.60573">
        <ele>506.4</ele>
        <time>2020-08-16T14:53:40Z</time>
      </trkpt>
      <trkpt lat="46.03871" lon="6.60571">
        <ele>506.2</ele>
        <time>2020-08-16T14:53:41Z</time>
      </trkpt>
      <trkpt lat="46.03876" lon="6.60569">
        <ele>506</ele>
        <time>2020-08-16T14:53:42Z</time>
      </trkpt>
      <trkpt lat="46.03881" lon="6.60566">
        <ele>505.8</ele>
        <time>2020-08-16T14:53:43Z</time>
      </trkpt>
      <trkpt lat="46.03886" lon="6.60564">
        <ele>505.6</ele>
        <time>2020-08-16T14:53:44Z</time>
      </trkpt>
      <trkpt lat="46.03891" lon="6.60562">
        <ele>505.4</ele>
        <time>2020-08-16T14:53:45Z</time>
      </trkpt>
      <trkpt lat="46.03897" lon="6.6056">
        <ele>505</ele>
        <time>2020-08-16T14:53:46Z</time>
      </trkpt>
      <trkpt lat="46.03902" lon="6.60559">
        <ele>505</ele>
        <time>2020-08-16T14:53:47Z</time>
      </trkpt>
      <trkpt lat="46.03908" lon="6.60558">
        <ele>504.8</ele>
        <time>2020-08-16T14:53:48Z</time>
      </trkpt>
      <trkpt lat="46.03914" lon="6.60558">
        <ele>504.6</ele>
        <time>2020-08-16T14:53:49Z</time>
      </trkpt>
      <trkpt lat="46.0392" lon="6.60559">
        <ele>504.6</ele>
        <time>2020-08-16T14:53:50Z</time>
      </trkpt>
      <trkpt lat="46.03926" lon="6.60561">
        <ele>504.4</ele>
        <time>2020-08-16T14:53:51Z</time>
      </trkpt>
      <trkpt lat="46.03931" lon="6.60563">
        <ele>504.4</ele>
        <time>2020-08-16T14:53:52Z</time>
      </trkpt>
      <trkpt lat="46.03937" lon="6.60565">
        <ele>504.4</ele>
        <time>2020-08-16T14:53:53Z</time>
      </trkpt>
      <trkpt lat="46.03942" lon="6.60568">
        <ele>504.4</ele>
        <time>2020-08-16T14:53:54Z</time>
      </trkpt>
      <trkpt lat="46.03947" lon="6.60571">
        <ele>504.2</ele>
        <time>2020-08-16T14:53:55Z</time>
      </trkpt>
      <trkpt lat="46.03952" lon="6.60575">
        <ele>504.2</ele>
        <time>2020-08-16T14:53:56Z</time>
      </trkpt>
      <trkpt lat="46.03957" lon="6.60578">
        <ele>504.2</ele>
        <time>2020-08-16T14:53:57Z</time>
      </trkpt>
      <trkpt lat="46.03962" lon="6.60581">
        <ele>504.2</ele>
        <time>2020-08-16T14:53:58Z</time>
      </trkpt>
      <trkpt lat="46.03967" lon="6.60584">
        <ele>504.2</ele>
        <time>2020-08-16T14:53:59Z</time>
      </trkpt>
      <trkpt lat="46.03971" lon="6.60588">
        <ele>504.2</ele>
        <time>2020-08-16T14:54:00Z</time>
      </trkpt>
      <trkpt lat="46.03976" lon="6.60591">
        <ele>504.4</ele>
        <time>2020-08-16T14:54:01Z</time>
      </trkpt>
      <trkpt lat="46.03981" lon="6.60594">
        <ele>504.4</ele>
        <time>2020-08-16T14:54:02Z</time>
      </trkpt>
      <trkpt lat="46.03986" lon="6.60597">
        <ele>504.4</ele>
        <time>2020-08-16T14:54:03Z</time>
      </trkpt>
      <trkpt lat="46.0399" lon="6.606">
        <ele>504.2</ele>
        <time>2020-08-16T14:54:04Z</time>
      </trkpt>
      <trkpt lat="46.03995" lon="6.60603">
        <ele>504.2</ele>
        <time>2020-08-16T14:54:05Z</time>
      </trkpt>
      <trkpt lat="46.04" lon="6.60606">
        <ele>504.2</ele>
        <time>2020-08-16T14:54:06Z</time>
      </trkpt>
      <trkpt lat="46.04004" lon="6.60609">
        <ele>504.2</ele>
        <time>2020-08-16T14:54:07Z</time>
      </trkpt>
      <trkpt lat="46.04009" lon="6.60613">
        <ele>504.2</ele>
        <time>2020-08-16T14:54:08Z</time>
      </trkpt>
      <trkpt lat="46.04013" lon="6.60617">
        <ele>504.2</ele>
        <time>2020-08-16T14:54:09Z</time>
      </trkpt>
      <trkpt lat="46.04018" lon="6.60622">
        <ele>504.2</ele>
        <time>2020-08-16T14:54:10Z</time>
      </trkpt>
      <trkpt lat="46.04022" lon="6.60626">
        <ele>504.2</ele>
        <time>2020-08-16T14:54:11Z</time>
      </trkpt>
      <trkpt lat="46.04026" lon="6.60631">
        <ele>504.2</ele>
        <time>2020-08-16T14:54:12Z</time>
      </trkpt>
      <trkpt lat="46.04031" lon="6.60635">
        <ele>504</ele>
        <time>2020-08-16T14:54:13Z</time>
      </trkpt>
      <trkpt lat="46.04035" lon="6.60639">
        <ele>504</ele>
        <time>2020-08-16T14:54:14Z</time>
      </trkpt>
      <trkpt lat="46.0404" lon="6.60643">
        <ele>504</ele>
        <time>2020-08-16T14:54:15Z</time>
      </trkpt>
      <trkpt lat="46.04044" lon="6.60648">
        <ele>504</ele>
        <time>2020-08-16T14:54:16Z</time>
      </trkpt>
      <trkpt lat="46.04048" lon="6.60652">
        <ele>504</ele>
        <time>2020-08-16T14:54:17Z</time>
      </trkpt>
      <trkpt lat="46.04052" lon="6.60657">
        <ele>504</ele>
        <time>2020-08-16T14:54:18Z</time>
      </trkpt>
      <trkpt lat="46.04056" lon="6.60662">
        <ele>503.8</ele>
        <time>2020-08-16T14:54:19Z</time>
      </trkpt>
      <trkpt lat="46.0406" lon="6.60667">
        <ele>504</ele>
        <time>2020-08-16T14:54:20Z</time>
      </trkpt>
      <trkpt lat="46.04063" lon="6.60672">
        <ele>504</ele>
        <time>2020-08-16T14:54:21Z</time>
      </trkpt>
      <trkpt lat="46.04067" lon="6.60677">
        <ele>504</ele>
        <time>2020-08-16T14:54:22Z</time>
      </trkpt>
      <trkpt lat="46.04072" lon="6.6068">
        <ele>504.2</ele>
        <time>2020-08-16T14:54:23Z</time>
      </trkpt>
      <trkpt lat="46.04076" lon="6.60683">
        <ele>504.2</ele>
        <time>2020-08-16T14:54:24Z</time>
      </trkpt>
      <trkpt lat="46.04081" lon="6.60685">
        <ele>504.2</ele>
        <time>2020-08-16T14:54:25Z</time>
      </trkpt>
      <trkpt lat="46.04085" lon="6.60686">
        <ele>504.2</ele>
        <time>2020-08-16T14:54:26Z</time>
      </trkpt>
      <trkpt lat="46.0409" lon="6.60685">
        <ele>504.2</ele>
        <time>2020-08-16T14:54:27Z</time>
      </trkpt>
      <trkpt lat="46.04095" lon="6.60684">
        <ele>504.2</ele>
        <time>2020-08-16T14:54:28Z</time>
      </trkpt>
      <trkpt lat="46.041" lon="6.60682">
        <ele>504.2</ele>
        <time>2020-08-16T14:54:29Z</time>
      </trkpt>
      <trkpt lat="46.04105" lon="6.60681">
        <ele>504.2</ele>
        <time>2020-08-16T14:54:30Z</time>
      </trkpt>
      <trkpt lat="46.04109" lon="6.60679">
        <ele>504.2</ele>
        <time>2020-08-16T14:54:31Z</time>
      </trkpt>
      <trkpt lat="46.04114" lon="6.60678">
        <ele>504.2</ele>
        <time>2020-08-16T14:54:32Z</time>
      </trkpt>
      <trkpt lat="46.04118" lon="6.60676">
        <ele>504</ele>
        <time>2020-08-16T14:54:33Z</time>
      </trkpt>
      <trkpt lat="46.04122" lon="6.60675">
        <ele>504</ele>
        <time>2020-08-16T14:54:34Z</time>
      </trkpt>
      <trkpt lat="46.04125" lon="6.60673">
        <ele>504</ele>
        <time>2020-08-16T14:54:35Z</time>
      </trkpt>
      <trkpt lat="46.04129" lon="6.60672">
        <ele>504</ele>
        <time>2020-08-16T14:54:36Z</time>
      </trkpt>
      <trkpt lat="46.04132" lon="6.6067">
        <ele>503.8</ele>
        <time>2020-08-16T14:54:37Z</time>
      </trkpt>
      <trkpt lat="46.04136" lon="6.60669">
        <ele>503.8</ele>
        <time>2020-08-16T14:54:38Z</time>
      </trkpt>
      <trkpt lat="46.04139" lon="6.60668">
        <ele>503.8</ele>
        <time>2020-08-16T14:54:39Z</time>
      </trkpt>
      <trkpt lat="46.04142" lon="6.60666">
        <ele>503.8</ele>
        <time>2020-08-16T14:54:40Z</time>
      </trkpt>
      <trkpt lat="46.04146" lon="6.60665">
        <ele>503.8</ele>
        <time>2020-08-16T14:54:41Z</time>
      </trkpt>
      <trkpt lat="46.04148" lon="6.60664">
        <ele>503.6</ele>
        <time>2020-08-16T14:54:42Z</time>
      </trkpt>
      <trkpt lat="46.0415" lon="6.60663">
        <ele>503.6</ele>
        <time>2020-08-16T14:54:43Z</time>
      </trkpt>
      <trkpt lat="46.04153" lon="6.60662">
        <ele>503.6</ele>
        <time>2020-08-16T14:54:44Z</time>
      </trkpt>
      <trkpt lat="46.04155" lon="6.60661">
        <ele>503.6</ele>
        <time>2020-08-16T14:54:45Z</time>
      </trkpt>
      <trkpt lat="46.04158" lon="6.60661">
        <ele>503.6</ele>
        <time>2020-08-16T14:54:46Z</time>
      </trkpt>
      <trkpt lat="46.0416" lon="6.6066">
        <ele>503.6</ele>
        <time>2020-08-16T14:54:47Z</time>
      </trkpt>
      <trkpt lat="46.04164" lon="6.60659">
        <ele>503.6</ele>
        <time>2020-08-16T14:54:48Z</time>
      </trkpt>
      <trkpt lat="46.04167" lon="6.60657">
        <ele>503.6</ele>
        <time>2020-08-16T14:54:49Z</time>
      </trkpt>
      <trkpt lat="46.0417" lon="6.60656">
        <ele>503.6</ele>
        <time>2020-08-16T14:54:50Z</time>
      </trkpt>
      <trkpt lat="46.04172" lon="6.60655">
        <ele>503.6</ele>
        <time>2020-08-16T14:54:51Z</time>
      </trkpt>
      <trkpt lat="46.04174" lon="6.60654">
        <ele>503.6</ele>
        <time>2020-08-16T14:54:52Z</time>
      </trkpt>
      <trkpt lat="46.04175" lon="6.60653">
        <ele>503.6</ele>
        <time>2020-08-16T14:54:53Z</time>
      </trkpt>
      <trkpt lat="46.04175" lon="6.60653">
        <ele>503.6</ele>
        <time>2020-08-16T14:54:54Z</time>
      </trkpt>
      <trkpt lat="46.04176" lon="6.60653">
        <ele>503.6</ele>
        <time>2020-08-16T14:54:55Z</time>
      </trkpt>
      <trkpt lat="46.04176" lon="6.60652">
        <ele>503.6</ele>
        <time>2020-08-16T14:54:56Z</time>
      </trkpt>
      <trkpt lat="46.04176" lon="6.60653">
        <ele>503.6</ele>
        <time>2020-08-16T14:54:57Z</time>
      </trkpt>
      <trkpt lat="46.04176" lon="6.60652">
        <ele>503.6</ele>
        <time>2020-08-16T14:54:58Z</time>
      </trkpt>
      <trkpt lat="46.04176" lon="6.60652">
        <ele>503.4</ele>
        <time>2020-08-16T14:54:59Z</time>
      </trkpt>
      <trkpt lat="46.04176" lon="6.60652">
        <ele>503.6</ele>
        <time>2020-08-16T14:55:00Z</time>
      </trkpt>
      <trkpt lat="46.04176" lon="6.60652">
        <ele>503.6</ele>
        <time>2020-08-16T14:55:01Z</time>
      </trkpt>
      <trkpt lat="46.04157" lon="6.60661">
        <ele>503.4</ele>
        <time>2020-08-16T14:56:25Z</time>
      </trkpt>
      <trkpt lat="46.04154" lon="6.60662">
        <ele>503.4</ele>
        <time>2020-08-16T14:56:26Z</time>
      </trkpt>
      <trkpt lat="46.0415" lon="6.60663">
        <ele>503.4</ele>
        <time>2020-08-16T14:56:27Z</time>
      </trkpt>
      <trkpt lat="46.04145" lon="6.60664">
        <ele>503.4</ele>
        <time>2020-08-16T14:56:28Z</time>
      </trkpt>
      <trkpt lat="46.04141" lon="6.60666">
        <ele>503.6</ele>
        <time>2020-08-16T14:56:29Z</time>
      </trkpt>
      <trkpt lat="46.04137" lon="6.60667">
        <ele>503.6</ele>
        <time>2020-08-16T14:56:30Z</time>
      </trkpt>
      <trkpt lat="46.04132" lon="6.60669">
        <ele>503.6</ele>
        <time>2020-08-16T14:56:31Z</time>
      </trkpt>
      <trkpt lat="46.04128" lon="6.6067">
        <ele>503.6</ele>
        <time>2020-08-16T14:56:32Z</time>
      </trkpt>
      <trkpt lat="46.04124" lon="6.60672">
        <ele>503.6</ele>
        <time>2020-08-16T14:56:33Z</time>
      </trkpt>
      <trkpt lat="46.04119" lon="6.60673">
        <ele>503.6</ele>
        <time>2020-08-16T14:56:34Z</time>
      </trkpt>
      <trkpt lat="46.04115" lon="6.60675">
        <ele>503.8</ele>
        <time>2020-08-16T14:56:35Z</time>
      </trkpt>
      <trkpt lat="46.04111" lon="6.60676">
        <ele>503.8</ele>
        <time>2020-08-16T14:56:36Z</time>
      </trkpt>
      <trkpt lat="46.04106" lon="6.60677">
        <ele>503.8</ele>
        <time>2020-08-16T14:56:37Z</time>
      </trkpt>
      <trkpt lat="46.04102" lon="6.60679">
        <ele>503.8</ele>
        <time>2020-08-16T14:56:38Z</time>
      </trkpt>
      <trkpt lat="46.04097" lon="6.6068">
        <ele>503.8</ele>
        <time>2020-08-16T14:56:39Z</time>
      </trkpt>
      <trkpt lat="46.04093" lon="6.60681">
        <ele>503.8</ele>
        <time>2020-08-16T14:56:40Z</time>
      </trkpt>
      <trkpt lat="46.04088" lon="6.60683">
        <ele>503.8</ele>
        <time>2020-08-16T14:56:41Z</time>
      </trkpt>
      <trkpt lat="46.04083" lon="6.60683">
        <ele>503.8</ele>
        <time>2020-08-16T14:56:42Z</time>
      </trkpt>
      <trkpt lat="46.04078" lon="6.60681">
        <ele>503.8</ele>
        <time>2020-08-16T14:56:43Z</time>
      </trkpt>
      <trkpt lat="46.04074" lon="6.60678">
        <ele>503.8</ele>
        <time>2020-08-16T14:56:44Z</time>
      </trkpt>
      <trkpt lat="46.04069" lon="6.60675">
        <ele>503.8</ele>
        <time>2020-08-16T14:56:45Z</time>
      </trkpt>
      <trkpt lat="46.04065" lon="6.6067">
        <ele>503.6</ele>
        <time>2020-08-16T14:56:46Z</time>
      </trkpt>
      <trkpt lat="46.04061" lon="6.60665">
        <ele>503.8</ele>
        <time>2020-08-16T14:56:47Z</time>
      </trkpt>
      <trkpt lat="46.04057" lon="6.6066">
        <ele>503.6</ele>
        <time>2020-08-16T14:56:48Z</time>
      </trkpt>
      <trkpt lat="46.04053" lon="6.60655">
        <ele>503.6</ele>
        <time>2020-08-16T14:56:49Z</time>
      </trkpt>
      <trkpt lat="46.04049" lon="6.6065">
        <ele>503.8</ele>
        <time>2020-08-16T14:56:50Z</time>
      </trkpt>
      <trkpt lat="46.04045" lon="6.60646">
        <ele>503.8</ele>
        <time>2020-08-16T14:56:51Z</time>
      </trkpt>
      <trkpt lat="46.04041" lon="6.60641">
        <ele>503.6</ele>
        <time>2020-08-16T14:56:52Z</time>
      </trkpt>
      <trkpt lat="46.04037" lon="6.60637">
        <ele>503.6</ele>
        <time>2020-08-16T14:56:53Z</time>
      </trkpt>
      <trkpt lat="46.04033" lon="6.60633">
        <ele>503.6</ele>
        <time>2020-08-16T14:56:54Z</time>
      </trkpt>
      <trkpt lat="46.04029" lon="6.60629">
        <ele>503.6</ele>
        <time>2020-08-16T14:56:55Z</time>
      </trkpt>
      <trkpt lat="46.04024" lon="6.60625">
        <ele>503.8</ele>
        <time>2020-08-16T14:56:56Z</time>
      </trkpt>
      <trkpt lat="46.0402" lon="6.60621">
        <ele>503.8</ele>
        <time>2020-08-16T14:56:57Z</time>
      </trkpt>
      <trkpt lat="46.04016" lon="6.60617">
        <ele>503.8</ele>
        <time>2020-08-16T14:56:58Z</time>
      </trkpt>
      <trkpt lat="46.04012" lon="6.60613">
        <ele>503.8</ele>
        <time>2020-08-16T14:56:59Z</time>
      </trkpt>
      <trkpt lat="46.04008" lon="6.60609">
        <ele>504</ele>
        <time>2020-08-16T14:57:00Z</time>
      </trkpt>
      <trkpt lat="46.04004" lon="6.60606">
        <ele>503.8</ele>
        <time>2020-08-16T14:57:01Z</time>
      </trkpt>
      <trkpt lat="46.03999" lon="6.60603">
        <ele>503.8</ele>
        <time>2020-08-16T14:57:02Z</time>
      </trkpt>
      <trkpt lat="46.03995" lon="6.60599">
        <ele>503.8</ele>
        <time>2020-08-16T14:57:03Z</time>
      </trkpt>
      <trkpt lat="46.0399" lon="6.60597">
        <ele>503.8</ele>
        <time>2020-08-16T14:57:04Z</time>
      </trkpt>
      <trkpt lat="46.03986" lon="6.60593">
        <ele>503.8</ele>
        <time>2020-08-16T14:57:05Z</time>
      </trkpt>
      <trkpt lat="46.03981" lon="6.60591">
        <ele>504</ele>
        <time>2020-08-16T14:57:06Z</time>
      </trkpt>
      <trkpt lat="46.03977" lon="6.60588">
        <ele>504</ele>
        <time>2020-08-16T14:57:07Z</time>
      </trkpt>
      <trkpt lat="46.03972" lon="6.60585">
        <ele>504</ele>
        <time>2020-08-16T14:57:08Z</time>
      </trkpt>
      <trkpt lat="46.03968" lon="6.60582">
        <ele>504</ele>
        <time>2020-08-16T14:57:09Z</time>
      </trkpt>
      <trkpt lat="46.03963" lon="6.60579">
        <ele>504</ele>
        <time>2020-08-16T14:57:10Z</time>
      </trkpt>
      <trkpt lat="46.03958" lon="6.60576">
        <ele>504</ele>
        <time>2020-08-16T14:57:11Z</time>
      </trkpt>
      <trkpt lat="46.03954" lon="6.60573">
        <ele>504</ele>
        <time>2020-08-16T14:57:12Z</time>
      </trkpt>
      <trkpt lat="46.03949" lon="6.6057">
        <ele>504</ele>
        <time>2020-08-16T14:57:13Z</time>
      </trkpt>
      <trkpt lat="46.03944" lon="6.60567">
        <ele>504</ele>
        <time>2020-08-16T14:57:14Z</time>
      </trkpt>
      <trkpt lat="46.03939" lon="6.60565">
        <ele>504</ele>
        <time>2020-08-16T14:57:15Z</time>
      </trkpt>
      <trkpt lat="46.03934" lon="6.60562">
        <ele>504.2</ele>
        <time>2020-08-16T14:57:16Z</time>
      </trkpt>
      <trkpt lat="46.0393" lon="6.60559">
        <ele>504.2</ele>
        <time>2020-08-16T14:57:17Z</time>
      </trkpt>
      <trkpt lat="46.03925" lon="6.60558">
        <ele>504.2</ele>
        <time>2020-08-16T14:57:18Z</time>
      </trkpt>
      <trkpt lat="46.0392" lon="6.60556">
        <ele>504.2</ele>
        <time>2020-08-16T14:57:19Z</time>
      </trkpt>
      <trkpt lat="46.03915" lon="6.60556">
        <ele>504.2</ele>
        <time>2020-08-16T14:57:20Z</time>
      </trkpt>
      <trkpt lat="46.0391" lon="6.60556">
        <ele>504.4</ele>
        <time>2020-08-16T14:57:21Z</time>
      </trkpt>
      <trkpt lat="46.03905" lon="6.60556">
        <ele>504.4</ele>
        <time>2020-08-16T14:57:22Z</time>
      </trkpt>
      <trkpt lat="46.039" lon="6.60558">
        <ele>504.6</ele>
        <time>2020-08-16T14:57:23Z</time>
      </trkpt>
      <trkpt lat="46.03896" lon="6.60559">
        <ele>504.8</ele>
        <time>2020-08-16T14:57:24Z</time>
      </trkpt>
      <trkpt lat="46.03891" lon="6.60561">
        <ele>505</ele>
        <time>2020-08-16T14:57:25Z</time>
      </trkpt>
      <trkpt lat="46.03887" lon="6.60562">
        <ele>505.2</ele>
        <time>2020-08-16T14:57:26Z</time>
      </trkpt>
      <trkpt lat="46.03884" lon="6.60564">
        <ele>505.4</ele>
        <time>2020-08-16T14:57:27Z</time>
      </trkpt>
      <trkpt lat="46.0388" lon="6.60566">
        <ele>505.4</ele>
        <time>2020-08-16T14:57:28Z</time>
      </trkpt>
      <trkpt lat="46.03876" lon="6.60567">
        <ele>505.6</ele>
        <time>2020-08-16T14:57:29Z</time>
      </trkpt>
      <trkpt lat="46.03873" lon="6.60569">
        <ele>505.8</ele>
        <time>2020-08-16T14:57:30Z</time>
      </trkpt>
      <trkpt lat="46.03869" lon="6.60571">
        <ele>506</ele>
        <time>2020-08-16T14:57:31Z</time>
      </trkpt>
      <trkpt lat="46.03866" lon="6.60573">
        <ele>506</ele>
        <time>2020-08-16T14:57:32Z</time>
      </trkpt>
      <trkpt lat="46.03862" lon="6.60575">
        <ele>506.2</ele>
        <time>2020-08-16T14:57:33Z</time>
      </trkpt>
      <trkpt lat="46.03859" lon="6.60577">
        <ele>506.2</ele>
        <time>2020-08-16T14:57:34Z</time>
      </trkpt>
      <trkpt lat="46.03855" lon="6.60579">
        <ele>506.2</ele>
        <time>2020-08-16T14:57:35Z</time>
      </trkpt>
      <trkpt lat="46.03852" lon="6.60581">
        <ele>506.4</ele>
        <time>2020-08-16T14:57:36Z</time>
      </trkpt>
      <trkpt lat="46.03848" lon="6.60584">
        <ele>506.4</ele>
        <time>2020-08-16T14:57:37Z</time>
      </trkpt>
      <trkpt lat="46.03844" lon="6.60586">
        <ele>506.4</ele>
        <time>2020-08-16T14:57:38Z</time>
      </trkpt>
      <trkpt lat="46.0384" lon="6.60588">
        <ele>506.4</ele>
        <time>2020-08-16T14:57:39Z</time>
      </trkpt>
      <trkpt lat="46.03837" lon="6.60591">
        <ele>506.4</ele>
        <time>2020-08-16T14:57:40Z</time>
      </trkpt>
      <trkpt lat="46.03833" lon="6.60594">
        <ele>506.6</ele>
        <time>2020-08-16T14:57:41Z</time>
      </trkpt>
      <trkpt lat="46.03829" lon="6.60597">
        <ele>506.6</ele>
        <time>2020-08-16T14:57:42Z</time>
      </trkpt>
      <trkpt lat="46.03825" lon="6.606">
        <ele>506.6</ele>
        <time>2020-08-16T14:57:43Z</time>
      </trkpt>
      <trkpt lat="46.03821" lon="6.60603">
        <ele>506.6</ele>
        <time>2020-08-16T14:57:44Z</time>
      </trkpt>
      <trkpt lat="46.03817" lon="6.60606">
        <ele>506.6</ele>
        <time>2020-08-16T14:57:45Z</time>
      </trkpt>
      <trkpt lat="46.03813" lon="6.60609">
        <ele>506.6</ele>
        <time>2020-08-16T14:57:46Z</time>
      </trkpt>
      <trkpt lat="46.03809" lon="6.60613">
        <ele>506.6</ele>
        <time>2020-08-16T14:57:47Z</time>
      </trkpt>
      <trkpt lat="46.03806" lon="6.60616">
        <ele>506.6</ele>
        <time>2020-08-16T14:57:48Z</time>
      </trkpt>
      <trkpt lat="46.03802" lon="6.60621">
        <ele>506.6</ele>
        <time>2020-08-16T14:57:49Z</time>
      </trkpt>
      <trkpt lat="46.03798" lon="6.60625">
        <ele>506.6</ele>
        <time>2020-08-16T14:57:50Z</time>
      </trkpt>
      <trkpt lat="46.03794" lon="6.60629">
        <ele>506.6</ele>
        <time>2020-08-16T14:57:51Z</time>
      </trkpt>
      <trkpt lat="46.03791" lon="6.60634">
        <ele>506.6</ele>
        <time>2020-08-16T14:57:52Z</time>
      </trkpt>
      <trkpt lat="46.03787" lon="6.60639">
        <ele>506.6</ele>
        <time>2020-08-16T14:57:53Z</time>
      </trkpt>
      <trkpt lat="46.03784" lon="6.60644">
        <ele>506.8</ele>
        <time>2020-08-16T14:57:54Z</time>
      </trkpt>
      <trkpt lat="46.03781" lon="6.60649">
        <ele>506.8</ele>
        <time>2020-08-16T14:57:55Z</time>
      </trkpt>
      <trkpt lat="46.03778" lon="6.60654">
        <ele>506.8</ele>
        <time>2020-08-16T14:57:56Z</time>
      </trkpt>
      <trkpt lat="46.03775" lon="6.60659">
        <ele>506.8</ele>
        <time>2020-08-16T14:57:57Z</time>
      </trkpt>
      <trkpt lat="46.03772" lon="6.60664">
        <ele>506.8</ele>
        <time>2020-08-16T14:57:58Z</time>
      </trkpt>
      <trkpt lat="46.0377" lon="6.6067">
        <ele>506.8</ele>
        <time>2020-08-16T14:57:59Z</time>
      </trkpt>
      <trkpt lat="46.03768" lon="6.60676">
        <ele>506.8</ele>
        <time>2020-08-16T14:58:00Z</time>
      </trkpt>
      <trkpt lat="46.03766" lon="6.60682">
        <ele>506.8</ele>
        <time>2020-08-16T14:58:01Z</time>
      </trkpt>
      <trkpt lat="46.03763" lon="6.60688">
        <ele>507</ele>
        <time>2020-08-16T14:58:02Z</time>
      </trkpt>
      <trkpt lat="46.03761" lon="6.60694">
        <ele>507</ele>
        <time>2020-08-16T14:58:03Z</time>
      </trkpt>
      <trkpt lat="46.0376" lon="6.607">
        <ele>507</ele>
        <time>2020-08-16T14:58:04Z</time>
      </trkpt>
      <trkpt lat="46.03758" lon="6.60706">
        <ele>507</ele>
        <time>2020-08-16T14:58:05Z</time>
      </trkpt>
      <trkpt lat="46.03757" lon="6.60713">
        <ele>507</ele>
        <time>2020-08-16T14:58:06Z</time>
      </trkpt>
      <trkpt lat="46.03756" lon="6.60719">
        <ele>506.8</ele>
        <time>2020-08-16T14:58:07Z</time>
      </trkpt>
      <trkpt lat="46.03755" lon="6.60726">
        <ele>507</ele>
        <time>2020-08-16T14:58:08Z</time>
      </trkpt>
      <trkpt lat="46.03754" lon="6.60732">
        <ele>507</ele>
        <time>2020-08-16T14:58:09Z</time>
      </trkpt>
      <trkpt lat="46.03753" lon="6.60739">
        <ele>507</ele>
        <time>2020-08-16T14:58:10Z</time>
      </trkpt>
      <trkpt lat="46.03752" lon="6.60745">
        <ele>507.2</ele>
        <time>2020-08-16T14:58:11Z</time>
      </trkpt>
      <trkpt lat="46.03751" lon="6.60752">
        <ele>507.2</ele>
        <time>2020-08-16T14:58:12Z</time>
      </trkpt>
      <trkpt lat="46.0375" lon="6.60758">
        <ele>507</ele>
        <time>2020-08-16T14:58:13Z</time>
      </trkpt>
      <trkpt lat="46.03749" lon="6.60765">
        <ele>507.2</ele>
        <time>2020-08-16T14:58:14Z</time>
      </trkpt>
      <trkpt lat="46.03749" lon="6.60772">
        <ele>507.2</ele>
        <time>2020-08-16T14:58:15Z</time>
      </trkpt>
      <trkpt lat="46.03748" lon="6.60778">
        <ele>507.2</ele>
        <time>2020-08-16T14:58:16Z</time>
      </trkpt>
      <trkpt lat="46.03747" lon="6.60785">
        <ele>507.2</ele>
        <time>2020-08-16T14:58:17Z</time>
      </trkpt>
      <trkpt lat="46.03747" lon="6.60791">
        <ele>507.2</ele>
        <time>2020-08-16T14:58:18Z</time>
      </trkpt>
      <trkpt lat="46.03747" lon="6.60798">
        <ele>507.2</ele>
        <time>2020-08-16T14:58:19Z</time>
      </trkpt>
      <trkpt lat="46.03747" lon="6.60804">
        <ele>507.4</ele>
        <time>2020-08-16T14:58:20Z</time>
      </trkpt>
      <trkpt lat="46.03747" lon="6.6081">
        <ele>507.4</ele>
        <time>2020-08-16T14:58:21Z</time>
      </trkpt>
      <trkpt lat="46.03747" lon="6.60816">
        <ele>507.2</ele>
        <time>2020-08-16T14:58:22Z</time>
      </trkpt>
      <trkpt lat="46.03744" lon="6.60822">
        <ele>507.2</ele>
        <time>2020-08-16T14:58:23Z</time>
      </trkpt>
      <trkpt lat="46.03741" lon="6.60824">
        <ele>507.2</ele>
        <time>2020-08-16T14:58:24Z</time>
      </trkpt>
      <trkpt lat="46.03736" lon="6.60825">
        <ele>507.2</ele>
        <time>2020-08-16T14:58:25Z</time>
      </trkpt>
      <trkpt lat="46.03732" lon="6.60825">
        <ele>507.2</ele>
        <time>2020-08-16T14:58:26Z</time>
      </trkpt>
      <trkpt lat="46.03728" lon="6.60824">
        <ele>507.4</ele>
        <time>2020-08-16T14:58:27Z</time>
      </trkpt>
      <trkpt lat="46.03724" lon="6.60824">
        <ele>507.4</ele>
        <time>2020-08-16T14:58:28Z</time>
      </trkpt>
      <trkpt lat="46.0372" lon="6.60824">
        <ele>507.4</ele>
        <time>2020-08-16T14:58:29Z</time>
      </trkpt>
      <trkpt lat="46.03716" lon="6.60825">
        <ele>507.4</ele>
        <time>2020-08-16T14:58:30Z</time>
      </trkpt>
      <trkpt lat="46.03712" lon="6.60825">
        <ele>507.4</ele>
        <time>2020-08-16T14:58:31Z</time>
      </trkpt>
      <trkpt lat="46.03708" lon="6.60824">
        <ele>507.6</ele>
        <time>2020-08-16T14:58:32Z</time>
      </trkpt>
      <trkpt lat="46.03704" lon="6.60824">
        <ele>507.6</ele>
        <time>2020-08-16T14:58:33Z</time>
      </trkpt>
      <trkpt lat="46.037" lon="6.60824">
        <ele>507.8</ele>
        <time>2020-08-16T14:58:34Z</time>
      </trkpt>
      <trkpt lat="46.03695" lon="6.60824">
        <ele>507.8</ele>
        <time>2020-08-16T14:58:35Z</time>
      </trkpt>
      <trkpt lat="46.03692" lon="6.60823">
        <ele>507.8</ele>
        <time>2020-08-16T14:58:36Z</time>
      </trkpt>
      <trkpt lat="46.03688" lon="6.60823">
        <ele>507.8</ele>
        <time>2020-08-16T14:58:37Z</time>
      </trkpt>
      <trkpt lat="46.03685" lon="6.60825">
        <ele>507.6</ele>
        <time>2020-08-16T14:58:38Z</time>
      </trkpt>
      <trkpt lat="46.03683" lon="6.6083">
        <ele>507.6</ele>
        <time>2020-08-16T14:58:39Z</time>
      </trkpt>
      <trkpt lat="46.03682" lon="6.60836">
        <ele>507.4</ele>
        <time>2020-08-16T14:58:40Z</time>
      </trkpt>
      <trkpt lat="46.03682" lon="6.60842">
        <ele>507.4</ele>
        <time>2020-08-16T14:58:41Z</time>
      </trkpt>
      <trkpt lat="46.03682" lon="6.60849">
        <ele>507.2</ele>
        <time>2020-08-16T14:58:42Z</time>
      </trkpt>
      <trkpt lat="46.03681" lon="6.60856">
        <ele>507.2</ele>
        <time>2020-08-16T14:58:43Z</time>
      </trkpt>
      <trkpt lat="46.03681" lon="6.60864">
        <ele>507</ele>
        <time>2020-08-16T14:58:44Z</time>
      </trkpt>
      <trkpt lat="46.03681" lon="6.60872">
        <ele>506.8</ele>
        <time>2020-08-16T14:58:45Z</time>
      </trkpt>
      <trkpt lat="46.0368" lon="6.6088">
        <ele>506.6</ele>
        <time>2020-08-16T14:58:46Z</time>
      </trkpt>
      <trkpt lat="46.0368" lon="6.60889">
        <ele>506.2</ele>
        <time>2020-08-16T14:58:47Z</time>
      </trkpt>
      <trkpt lat="46.0368" lon="6.60898">
        <ele>506.2</ele>
        <time>2020-08-16T14:58:48Z</time>
      </trkpt>
      <trkpt lat="46.0368" lon="6.60908">
        <ele>506</ele>
        <time>2020-08-16T14:58:49Z</time>
      </trkpt>
      <trkpt lat="46.03679" lon="6.60917">
        <ele>506</ele>
        <time>2020-08-16T14:58:50Z</time>
      </trkpt>
      <trkpt lat="46.03676" lon="6.60925">
        <ele>506</ele>
        <time>2020-08-16T14:58:51Z</time>
      </trkpt>
      <trkpt lat="46.03673" lon="6.60932">
        <ele>506</ele>
        <time>2020-08-16T14:58:52Z</time>
      </trkpt>
      <trkpt lat="46.0367" lon="6.60939">
        <ele>506</ele>
        <time>2020-08-16T14:58:53Z</time>
      </trkpt>
      <trkpt lat="46.03665" lon="6.60944">
        <ele>506.2</ele>
        <time>2020-08-16T14:58:54Z</time>
      </trkpt>
      <trkpt lat="46.03661" lon="6.60948">
        <ele>506.2</ele>
        <time>2020-08-16T14:58:55Z</time>
      </trkpt>
      <trkpt lat="46.03656" lon="6.60951">
        <ele>506.2</ele>
        <time>2020-08-16T14:58:56Z</time>
      </trkpt>
      <trkpt lat="46.0365" lon="6.60953">
        <ele>506</ele>
        <time>2020-08-16T14:58:57Z</time>
      </trkpt>
      <trkpt lat="46.03644" lon="6.60956">
        <ele>506</ele>
        <time>2020-08-16T14:58:58Z</time>
      </trkpt>
      <trkpt lat="46.03639" lon="6.60958">
        <ele>506</ele>
        <time>2020-08-16T14:58:59Z</time>
      </trkpt>
      <trkpt lat="46.03633" lon="6.6096">
        <ele>505.8</ele>
        <time>2020-08-16T14:59:00Z</time>
      </trkpt>
      <trkpt lat="46.03627" lon="6.60962">
        <ele>506</ele>
        <time>2020-08-16T14:59:01Z</time>
      </trkpt>
      <trkpt lat="46.03621" lon="6.60965">
        <ele>505.8</ele>
        <time>2020-08-16T14:59:02Z</time>
      </trkpt>
      <trkpt lat="46.03615" lon="6.60967">
        <ele>505.8</ele>
        <time>2020-08-16T14:59:03Z</time>
      </trkpt>
      <trkpt lat="46.03609" lon="6.60969">
        <ele>506</ele>
        <time>2020-08-16T14:59:04Z</time>
      </trkpt>
      <trkpt lat="46.03603" lon="6.60972">
        <ele>506</ele>
        <time>2020-08-16T14:59:05Z</time>
      </trkpt>
      <trkpt lat="46.03597" lon="6.60974">
        <ele>506</ele>
        <time>2020-08-16T14:59:06Z</time>
      </trkpt>
      <trkpt lat="46.03592" lon="6.60976">
        <ele>505.8</ele>
        <time>2020-08-16T14:59:07Z</time>
      </trkpt>
      <trkpt lat="46.03586" lon="6.60978">
        <ele>505.8</ele>
        <time>2020-08-16T14:59:08Z</time>
      </trkpt>
      <trkpt lat="46.0358" lon="6.60981">
        <ele>505.6</ele>
        <time>2020-08-16T14:59:09Z</time>
      </trkpt>
      <trkpt lat="46.03575" lon="6.60983">
        <ele>505.6</ele>
        <time>2020-08-16T14:59:10Z</time>
      </trkpt>
      <trkpt lat="46.0357" lon="6.60985">
        <ele>505.8</ele>
        <time>2020-08-16T14:59:11Z</time>
      </trkpt>
      <trkpt lat="46.03564" lon="6.60987">
        <ele>505.8</ele>
        <time>2020-08-16T14:59:12Z</time>
      </trkpt>
      <trkpt lat="46.03559" lon="6.60989">
        <ele>505.8</ele>
        <time>2020-08-16T14:59:13Z</time>
      </trkpt>
      <trkpt lat="46.03554" lon="6.60991">
        <ele>505.8</ele>
        <time>2020-08-16T14:59:14Z</time>
      </trkpt>
      <trkpt lat="46.03549" lon="6.60993">
        <ele>505.8</ele>
        <time>2020-08-16T14:59:15Z</time>
      </trkpt>
      <trkpt lat="46.03544" lon="6.60995">
        <ele>505.8</ele>
        <time>2020-08-16T14:59:16Z</time>
      </trkpt>
      <trkpt lat="46.0354" lon="6.60997">
        <ele>505.8</ele>
        <time>2020-08-16T14:59:17Z</time>
      </trkpt>
      <trkpt lat="46.03535" lon="6.60999">
        <ele>505.8</ele>
        <time>2020-08-16T14:59:18Z</time>
      </trkpt>
      <trkpt lat="46.0353" lon="6.61001">
        <ele>505.8</ele>
        <time>2020-08-16T14:59:19Z</time>
      </trkpt>
      <trkpt lat="46.03525" lon="6.61003">
        <ele>505.8</ele>
        <time>2020-08-16T14:59:20Z</time>
      </trkpt>
      <trkpt lat="46.03521" lon="6.61004">
        <ele>505.8</ele>
        <time>2020-08-16T14:59:21Z</time>
      </trkpt>
      <trkpt lat="46.03516" lon="6.61006">
        <ele>505.8</ele>
        <time>2020-08-16T14:59:22Z</time>
      </trkpt>
      <trkpt lat="46.03512" lon="6.61008">
        <ele>505.6</ele>
        <time>2020-08-16T14:59:23Z</time>
      </trkpt>
      <trkpt lat="46.03507" lon="6.6101">
        <ele>505.6</ele>
        <time>2020-08-16T14:59:24Z</time>
      </trkpt>
      <trkpt lat="46.03504" lon="6.61011">
        <ele>505.4</ele>
        <time>2020-08-16T14:59:25Z</time>
      </trkpt>
      <trkpt lat="46.03501" lon="6.61013">
        <ele>505.4</ele>
        <time>2020-08-16T14:59:26Z</time>
      </trkpt>
      <trkpt lat="46.03499" lon="6.61015">
        <ele>505.2</ele>
        <time>2020-08-16T14:59:27Z</time>
      </trkpt>
      <trkpt lat="46.03497" lon="6.61019">
        <ele>505.2</ele>
        <time>2020-08-16T14:59:28Z</time>
      </trkpt>
      <trkpt lat="46.03496" lon="6.61023">
        <ele>505.2</ele>
        <time>2020-08-16T14:59:29Z</time>
      </trkpt>
      <trkpt lat="46.03495" lon="6.61029">
        <ele>505.2</ele>
        <time>2020-08-16T14:59:30Z</time>
      </trkpt>
      <trkpt lat="46.03495" lon="6.61035">
        <ele>505.4</ele>
        <time>2020-08-16T14:59:31Z</time>
      </trkpt>
      <trkpt lat="46.03494" lon="6.61041">
        <ele>505.4</ele>
        <time>2020-08-16T14:59:32Z</time>
      </trkpt>
      <trkpt lat="46.03494" lon="6.61048">
        <ele>505.4</ele>
        <time>2020-08-16T14:59:33Z</time>
      </trkpt>
      <trkpt lat="46.03492" lon="6.61054">
        <ele>505.4</ele>
        <time>2020-08-16T14:59:34Z</time>
      </trkpt>
      <trkpt lat="46.03491" lon="6.61059">
        <ele>505.2</ele>
        <time>2020-08-16T14:59:35Z</time>
      </trkpt>
      <trkpt lat="46.0349" lon="6.61065">
        <ele>505.2</ele>
        <time>2020-08-16T14:59:36Z</time>
      </trkpt>
      <trkpt lat="46.03489" lon="6.61071">
        <ele>505.4</ele>
        <time>2020-08-16T14:59:37Z</time>
      </trkpt>
      <trkpt lat="46.03487" lon="6.61077">
        <ele>505.4</ele>
        <time>2020-08-16T14:59:38Z</time>
      </trkpt>
      <trkpt lat="46.03485" lon="6.61082">
        <ele>505.4</ele>
        <time>2020-08-16T14:59:39Z</time>
      </trkpt>
      <trkpt lat="46.03483" lon="6.61088">
        <ele>505.4</ele>
        <time>2020-08-16T14:59:40Z</time>
      </trkpt>
      <trkpt lat="46.0348" lon="6.61094">
        <ele>505.4</ele>
        <time>2020-08-16T14:59:41Z</time>
      </trkpt>
      <trkpt lat="46.03477" lon="6.61099">
        <ele>505.4</ele>
        <time>2020-08-16T14:59:42Z</time>
      </trkpt>
      <trkpt lat="46.03474" lon="6.61104">
        <ele>505.4</ele>
        <time>2020-08-16T14:59:43Z</time>
      </trkpt>
      <trkpt lat="46.0347" lon="6.6111">
        <ele>505.4</ele>
        <time>2020-08-16T14:59:44Z</time>
      </trkpt>
      <trkpt lat="46.03467" lon="6.61114">
        <ele>505.4</ele>
        <time>2020-08-16T14:59:45Z</time>
      </trkpt>
      <trkpt lat="46.03463" lon="6.61119">
        <ele>505.4</ele>
        <time>2020-08-16T14:59:46Z</time>
      </trkpt>
      <trkpt lat="46.03458" lon="6.61124">
        <ele>505.4</ele>
        <time>2020-08-16T14:59:47Z</time>
      </trkpt>
      <trkpt lat="46.03454" lon="6.61128">
        <ele>505.4</ele>
        <time>2020-08-16T14:59:48Z</time>
      </trkpt>
      <trkpt lat="46.0345" lon="6.61132">
        <ele>505.4</ele>
        <time>2020-08-16T14:59:49Z</time>
      </trkpt>
      <trkpt lat="46.03445" lon="6.61136">
        <ele>505.4</ele>
        <time>2020-08-16T14:59:50Z</time>
      </trkpt>
      <trkpt lat="46.03441" lon="6.61141">
        <ele>505.6</ele>
        <time>2020-08-16T14:59:51Z</time>
      </trkpt>
      <trkpt lat="46.03436" lon="6.61144">
        <ele>505.6</ele>
        <time>2020-08-16T14:59:52Z</time>
      </trkpt>
      <trkpt lat="46.03432" lon="6.61148">
        <ele>505.6</ele>
        <time>2020-08-16T14:59:53Z</time>
      </trkpt>
      <trkpt lat="46.03427" lon="6.61151">
        <ele>505.6</ele>
        <time>2020-08-16T14:59:54Z</time>
      </trkpt>
      <trkpt lat="46.03423" lon="6.61154">
        <ele>505.6</ele>
        <time>2020-08-16T14:59:55Z</time>
      </trkpt>
      <trkpt lat="46.03419" lon="6.61158">
        <ele>505.8</ele>
        <time>2020-08-16T14:59:56Z</time>
      </trkpt>
      <trkpt lat="46.03414" lon="6.61161">
        <ele>505.8</ele>
        <time>2020-08-16T14:59:57Z</time>
      </trkpt>
      <trkpt lat="46.0341" lon="6.61164">
        <ele>505.8</ele>
        <time>2020-08-16T14:59:58Z</time>
      </trkpt>
      <trkpt lat="46.03406" lon="6.61168">
        <ele>506</ele>
        <time>2020-08-16T14:59:59Z</time>
      </trkpt>
      <trkpt lat="46.03402" lon="6.61171">
        <ele>506</ele>
        <time>2020-08-16T15:00:00Z</time>
      </trkpt>
      <trkpt lat="46.03397" lon="6.61173">
        <ele>506.2</ele>
        <time>2020-08-16T15:00:01Z</time>
      </trkpt>
      <trkpt lat="46.03394" lon="6.61175">
        <ele>506.4</ele>
        <time>2020-08-16T15:00:02Z</time>
      </trkpt>
      <trkpt lat="46.03389" lon="6.61176">
        <ele>506.4</ele>
        <time>2020-08-16T15:00:03Z</time>
      </trkpt>
      <trkpt lat="46.03385" lon="6.61178">
        <ele>506.6</ele>
        <time>2020-08-16T15:00:04Z</time>
      </trkpt>
      <trkpt lat="46.03381" lon="6.61179">
        <ele>506.8</ele>
        <time>2020-08-16T15:00:05Z</time>
      </trkpt>
      <trkpt lat="46.03376" lon="6.6118">
        <ele>506.8</ele>
        <time>2020-08-16T15:00:06Z</time>
      </trkpt>
      <trkpt lat="46.03372" lon="6.61181">
        <ele>507</ele>
        <time>2020-08-16T15:00:07Z</time>
      </trkpt>
      <trkpt lat="46.03368" lon="6.61182">
        <ele>507.2</ele>
        <time>2020-08-16T15:00:08Z</time>
      </trkpt>
      <trkpt lat="46.03364" lon="6.61183">
        <ele>507.4</ele>
        <time>2020-08-16T15:00:09Z</time>
      </trkpt>
      <trkpt lat="46.0336" lon="6.61183">
        <ele>507.6</ele>
        <time>2020-08-16T15:00:10Z</time>
      </trkpt>
      <trkpt lat="46.03356" lon="6.61183">
        <ele>507.6</ele>
        <time>2020-08-16T15:00:11Z</time>
      </trkpt>
      <trkpt lat="46.03353" lon="6.61184">
        <ele>508</ele>
        <time>2020-08-16T15:00:12Z</time>
      </trkpt>
      <trkpt lat="46.03349" lon="6.61184">
        <ele>508</ele>
        <time>2020-08-16T15:00:13Z</time>
      </trkpt>
      <trkpt lat="46.03345" lon="6.61184">
        <ele>508.2</ele>
        <time>2020-08-16T15:00:14Z</time>
      </trkpt>
      <trkpt lat="46.03342" lon="6.61184">
        <ele>508.4</ele>
        <time>2020-08-16T15:00:15Z</time>
      </trkpt>
      <trkpt lat="46.03337" lon="6.61184">
        <ele>508.4</ele>
        <time>2020-08-16T15:00:16Z</time>
      </trkpt>
      <trkpt lat="46.03333" lon="6.61183">
        <ele>508.6</ele>
        <time>2020-08-16T15:00:17Z</time>
      </trkpt>
      <trkpt lat="46.0333" lon="6.61183">
        <ele>508.8</ele>
        <time>2020-08-16T15:00:18Z</time>
      </trkpt>
      <trkpt lat="46.03326" lon="6.61182">
        <ele>508.8</ele>
        <time>2020-08-16T15:00:19Z</time>
      </trkpt>
      <trkpt lat="46.03321" lon="6.61181">
        <ele>509</ele>
        <time>2020-08-16T15:00:20Z</time>
      </trkpt>
      <trkpt lat="46.03317" lon="6.6118">
        <ele>509.2</ele>
        <time>2020-08-16T15:00:21Z</time>
      </trkpt>
      <trkpt lat="46.03313" lon="6.61179">
        <ele>509.4</ele>
        <time>2020-08-16T15:00:22Z</time>
      </trkpt>
      <trkpt lat="46.03309" lon="6.61177">
        <ele>509.6</ele>
        <time>2020-08-16T15:00:23Z</time>
      </trkpt>
      <trkpt lat="46.03305" lon="6.61176">
        <ele>509.6</ele>
        <time>2020-08-16T15:00:24Z</time>
      </trkpt>
      <trkpt lat="46.03302" lon="6.61175">
        <ele>509.8</ele>
        <time>2020-08-16T15:00:25Z</time>
      </trkpt>
      <trkpt lat="46.03298" lon="6.61175">
        <ele>510</ele>
        <time>2020-08-16T15:00:26Z</time>
      </trkpt>
      <trkpt lat="46.03294" lon="6.61174">
        <ele>510</ele>
        <time>2020-08-16T15:00:27Z</time>
      </trkpt>
      <trkpt lat="46.0329" lon="6.61173">
        <ele>510.2</ele>
        <time>2020-08-16T15:00:28Z</time>
      </trkpt>
      <trkpt lat="46.03286" lon="6.61173">
        <ele>510.2</ele>
        <time>2020-08-16T15:00:29Z</time>
      </trkpt>
      <trkpt lat="46.03282" lon="6.61173">
        <ele>510.4</ele>
        <time>2020-08-16T15:00:30Z</time>
      </trkpt>
      <trkpt lat="46.03278" lon="6.61172">
        <ele>510.4</ele>
        <time>2020-08-16T15:00:31Z</time>
      </trkpt>
      <trkpt lat="46.03274" lon="6.61171">
        <ele>510.6</ele>
        <time>2020-08-16T15:00:32Z</time>
      </trkpt>
      <trkpt lat="46.03271" lon="6.61171">
        <ele>510.6</ele>
        <time>2020-08-16T15:00:33Z</time>
      </trkpt>
      <trkpt lat="46.03266" lon="6.6117">
        <ele>510.6</ele>
        <time>2020-08-16T15:00:34Z</time>
      </trkpt>
      <trkpt lat="46.03263" lon="6.61171">
        <ele>510.8</ele>
        <time>2020-08-16T15:00:35Z</time>
      </trkpt>
      <trkpt lat="46.03259" lon="6.61171">
        <ele>510.8</ele>
        <time>2020-08-16T15:00:36Z</time>
      </trkpt>
      <trkpt lat="46.03255" lon="6.61171">
        <ele>511</ele>
        <time>2020-08-16T15:00:37Z</time>
      </trkpt>
      <trkpt lat="46.03251" lon="6.61172">
        <ele>511</ele>
        <time>2020-08-16T15:00:38Z</time>
      </trkpt>
      <trkpt lat="46.03248" lon="6.61172">
        <ele>511</ele>
        <time>2020-08-16T15:00:39Z</time>
      </trkpt>
      <trkpt lat="46.03244" lon="6.61174">
        <ele>511.2</ele>
        <time>2020-08-16T15:00:40Z</time>
      </trkpt>
      <trkpt lat="46.0324" lon="6.61175">
        <ele>511.2</ele>
        <time>2020-08-16T15:00:41Z</time>
      </trkpt>
      <trkpt lat="46.03236" lon="6.61175">
        <ele>511.2</ele>
        <time>2020-08-16T15:00:42Z</time>
      </trkpt>
      <trkpt lat="46.03233" lon="6.61176">
        <ele>511.4</ele>
        <time>2020-08-16T15:00:43Z</time>
      </trkpt>
      <trkpt lat="46.03229" lon="6.61177">
        <ele>511.4</ele>
        <time>2020-08-16T15:00:44Z</time>
      </trkpt>
      <trkpt lat="46.03226" lon="6.61178">
        <ele>511.4</ele>
        <time>2020-08-16T15:00:45Z</time>
      </trkpt>
      <trkpt lat="46.03223" lon="6.6118">
        <ele>511.4</ele>
        <time>2020-08-16T15:00:46Z</time>
      </trkpt>
      <trkpt lat="46.0322" lon="6.61182">
        <ele>511.6</ele>
        <time>2020-08-16T15:00:47Z</time>
      </trkpt>
      <trkpt lat="46.03216" lon="6.61183">
        <ele>511.6</ele>
        <time>2020-08-16T15:00:48Z</time>
      </trkpt>
      <trkpt lat="46.03212" lon="6.61183">
        <ele>511.4</ele>
        <time>2020-08-16T15:00:49Z</time>
      </trkpt>
      <trkpt lat="46.03208" lon="6.61184">
        <ele>511.4</ele>
        <time>2020-08-16T15:00:50Z</time>
      </trkpt>
      <trkpt lat="46.03203" lon="6.61184">
        <ele>511.6</ele>
        <time>2020-08-16T15:00:51Z</time>
      </trkpt>
      <trkpt lat="46.03198" lon="6.61184">
        <ele>511.6</ele>
        <time>2020-08-16T15:00:52Z</time>
      </trkpt>
      <trkpt lat="46.03193" lon="6.61185">
        <ele>511.6</ele>
        <time>2020-08-16T15:00:53Z</time>
      </trkpt>
      <trkpt lat="46.03189" lon="6.61186">
        <ele>511.8</ele>
        <time>2020-08-16T15:00:54Z</time>
      </trkpt>
      <trkpt lat="46.03184" lon="6.61187">
        <ele>511.6</ele>
        <time>2020-08-16T15:00:55Z</time>
      </trkpt>
      <trkpt lat="46.03179" lon="6.61187">
        <ele>511.8</ele>
        <time>2020-08-16T15:00:56Z</time>
      </trkpt>
      <trkpt lat="46.03174" lon="6.61188">
        <ele>511.8</ele>
        <time>2020-08-16T15:00:57Z</time>
      </trkpt>
      <trkpt lat="46.0317" lon="6.6119">
        <ele>512</ele>
        <time>2020-08-16T15:00:58Z</time>
      </trkpt>
      <trkpt lat="46.03165" lon="6.61191">
        <ele>512</ele>
        <time>2020-08-16T15:00:59Z</time>
      </trkpt>
      <trkpt lat="46.0316" lon="6.61192">
        <ele>512</ele>
        <time>2020-08-16T15:01:00Z</time>
      </trkpt>
      <trkpt lat="46.03155" lon="6.61194">
        <ele>512</ele>
        <time>2020-08-16T15:01:01Z</time>
      </trkpt>
      <trkpt lat="46.03151" lon="6.61196">
        <ele>512</ele>
        <time>2020-08-16T15:01:02Z</time>
      </trkpt>
      <trkpt lat="46.03146" lon="6.61198">
        <ele>511.8</ele>
        <time>2020-08-16T15:01:03Z</time>
      </trkpt>
      <trkpt lat="46.03142" lon="6.61202">
        <ele>511.6</ele>
        <time>2020-08-16T15:01:04Z</time>
      </trkpt>
      <trkpt lat="46.03137" lon="6.61204">
        <ele>511.6</ele>
        <time>2020-08-16T15:01:05Z</time>
      </trkpt>
      <trkpt lat="46.03132" lon="6.61206">
        <ele>511.6</ele>
        <time>2020-08-16T15:01:06Z</time>
      </trkpt>
      <trkpt lat="46.03127" lon="6.61208">
        <ele>511.8</ele>
        <time>2020-08-16T15:01:07Z</time>
      </trkpt>
      <trkpt lat="46.03122" lon="6.61209">
        <ele>511.8</ele>
        <time>2020-08-16T15:01:08Z</time>
      </trkpt>
      <trkpt lat="46.03118" lon="6.61207">
        <ele>512</ele>
        <time>2020-08-16T15:01:09Z</time>
      </trkpt>
      <trkpt lat="46.03114" lon="6.61207">
        <ele>512</ele>
        <time>2020-08-16T15:01:10Z</time>
      </trkpt>
      <trkpt lat="46.0311" lon="6.61206">
        <ele>512.2</ele>
        <time>2020-08-16T15:01:11Z</time>
      </trkpt>
      <trkpt lat="46.03106" lon="6.61204">
        <ele>512.2</ele>
        <time>2020-08-16T15:01:12Z</time>
      </trkpt>
      <trkpt lat="46.03101" lon="6.61202">
        <ele>512.2</ele>
        <time>2020-08-16T15:01:13Z</time>
      </trkpt>
      <trkpt lat="46.03097" lon="6.61201">
        <ele>512.4</ele>
        <time>2020-08-16T15:01:14Z</time>
      </trkpt>
      <trkpt lat="46.03093" lon="6.61199">
        <ele>512.4</ele>
        <time>2020-08-16T15:01:15Z</time>
      </trkpt>
      <trkpt lat="46.03089" lon="6.61196">
        <ele>512.4</ele>
        <time>2020-08-16T15:01:16Z</time>
      </trkpt>
      <trkpt lat="46.03084" lon="6.61194">
        <ele>512.4</ele>
        <time>2020-08-16T15:01:17Z</time>
      </trkpt>
      <trkpt lat="46.0308" lon="6.61192">
        <ele>512.6</ele>
        <time>2020-08-16T15:01:18Z</time>
      </trkpt>
      <trkpt lat="46.03076" lon="6.6119">
        <ele>512.8</ele>
        <time>2020-08-16T15:01:19Z</time>
      </trkpt>
      <trkpt lat="46.03072" lon="6.61187">
        <ele>512.8</ele>
        <time>2020-08-16T15:01:20Z</time>
      </trkpt>
      <trkpt lat="46.03069" lon="6.61184">
        <ele>512.8</ele>
        <time>2020-08-16T15:01:21Z</time>
      </trkpt>
      <trkpt lat="46.03065" lon="6.61182">
        <ele>513</ele>
        <time>2020-08-16T15:01:22Z</time>
      </trkpt>
      <trkpt lat="46.03061" lon="6.6118">
        <ele>513</ele>
        <time>2020-08-16T15:01:23Z</time>
      </trkpt>
      <trkpt lat="46.03057" lon="6.61177">
        <ele>513</ele>
        <time>2020-08-16T15:01:24Z</time>
      </trkpt>
      <trkpt lat="46.03053" lon="6.61175">
        <ele>513.2</ele>
        <time>2020-08-16T15:01:25Z</time>
      </trkpt>
      <trkpt lat="46.03049" lon="6.61173">
        <ele>513.2</ele>
        <time>2020-08-16T15:01:26Z</time>
      </trkpt>
      <trkpt lat="46.03045" lon="6.6117">
        <ele>513.2</ele>
        <time>2020-08-16T15:01:27Z</time>
      </trkpt>
      <trkpt lat="46.03041" lon="6.61167">
        <ele>513.4</ele>
        <time>2020-08-16T15:01:28Z</time>
      </trkpt>
      <trkpt lat="46.03037" lon="6.61165">
        <ele>513.6</ele>
        <time>2020-08-16T15:01:29Z</time>
      </trkpt>
      <trkpt lat="46.03033" lon="6.61163">
        <ele>513.8</ele>
        <time>2020-08-16T15:01:30Z</time>
      </trkpt>
      <trkpt lat="46.03029" lon="6.61161">
        <ele>513.8</ele>
        <time>2020-08-16T15:01:31Z</time>
      </trkpt>
      <trkpt lat="46.03025" lon="6.6116">
        <ele>513.8</ele>
        <time>2020-08-16T15:01:32Z</time>
      </trkpt>
      <trkpt lat="46.03021" lon="6.61159">
        <ele>513.8</ele>
        <time>2020-08-16T15:01:33Z</time>
      </trkpt>
      <trkpt lat="46.03016" lon="6.6116">
        <ele>514</ele>
        <time>2020-08-16T15:01:34Z</time>
      </trkpt>
      <trkpt lat="46.03012" lon="6.61158">
        <ele>514</ele>
        <time>2020-08-16T15:01:35Z</time>
      </trkpt>
      <trkpt lat="46.03008" lon="6.61157">
        <ele>514.2</ele>
        <time>2020-08-16T15:01:36Z</time>
      </trkpt>
      <trkpt lat="46.03004" lon="6.61157">
        <ele>514.4</ele>
        <time>2020-08-16T15:01:37Z</time>
      </trkpt>
      <trkpt lat="46.03" lon="6.61156">
        <ele>514.4</ele>
        <time>2020-08-16T15:01:38Z</time>
      </trkpt>
      <trkpt lat="46.02996" lon="6.61155">
        <ele>514.6</ele>
        <time>2020-08-16T15:01:39Z</time>
      </trkpt>
      <trkpt lat="46.02992" lon="6.61153">
        <ele>514.6</ele>
        <time>2020-08-16T15:01:40Z</time>
      </trkpt>
      <trkpt lat="46.02988" lon="6.6115">
        <ele>514.8</ele>
        <time>2020-08-16T15:01:41Z</time>
      </trkpt>
      <trkpt lat="46.02985" lon="6.61147">
        <ele>514.8</ele>
        <time>2020-08-16T15:01:42Z</time>
      </trkpt>
      <trkpt lat="46.02981" lon="6.61144">
        <ele>514.8</ele>
        <time>2020-08-16T15:01:43Z</time>
      </trkpt>
      <trkpt lat="46.02978" lon="6.61141">
        <ele>514.8</ele>
        <time>2020-08-16T15:01:44Z</time>
      </trkpt>
      <trkpt lat="46.02974" lon="6.61138">
        <ele>514.8</ele>
        <time>2020-08-16T15:01:45Z</time>
      </trkpt>
      <trkpt lat="46.0297" lon="6.61134">
        <ele>514.8</ele>
        <time>2020-08-16T15:01:46Z</time>
      </trkpt>
      <trkpt lat="46.02966" lon="6.61131">
        <ele>514.6</ele>
        <time>2020-08-16T15:01:47Z</time>
      </trkpt>
      <trkpt lat="46.02962" lon="6.61128">
        <ele>514.6</ele>
        <time>2020-08-16T15:01:48Z</time>
      </trkpt>
      <trkpt lat="46.02958" lon="6.61124">
        <ele>514.6</ele>
        <time>2020-08-16T15:01:49Z</time>
      </trkpt>
      <trkpt lat="46.02954" lon="6.61119">
        <ele>514.4</ele>
        <time>2020-08-16T15:01:50Z</time>
      </trkpt>
      <trkpt lat="46.02949" lon="6.61115">
        <ele>514.4</ele>
        <time>2020-08-16T15:01:51Z</time>
      </trkpt>
      <trkpt lat="46.02945" lon="6.6111">
        <ele>514.2</ele>
        <time>2020-08-16T15:01:52Z</time>
      </trkpt>
      <trkpt lat="46.02942" lon="6.61107">
        <ele>514.2</ele>
        <time>2020-08-16T15:01:53Z</time>
      </trkpt>
      <trkpt lat="46.02938" lon="6.61102">
        <ele>514</ele>
        <time>2020-08-16T15:01:54Z</time>
      </trkpt>
      <trkpt lat="46.02934" lon="6.61097">
        <ele>514</ele>
        <time>2020-08-16T15:01:55Z</time>
      </trkpt>
      <trkpt lat="46.0293" lon="6.61093">
        <ele>513.8</ele>
        <time>2020-08-16T15:01:56Z</time>
      </trkpt>
      <trkpt lat="46.02927" lon="6.61089">
        <ele>513.8</ele>
        <time>2020-08-16T15:01:57Z</time>
      </trkpt>
      <trkpt lat="46.02923" lon="6.61086">
        <ele>513.8</ele>
        <time>2020-08-16T15:01:58Z</time>
      </trkpt>
      <trkpt lat="46.02918" lon="6.61083">
        <ele>513.8</ele>
        <time>2020-08-16T15:01:59Z</time>
      </trkpt>
      <trkpt lat="46.02914" lon="6.6108">
        <ele>513.6</ele>
        <time>2020-08-16T15:02:00Z</time>
      </trkpt>
      <trkpt lat="46.0291" lon="6.61079">
        <ele>513.6</ele>
        <time>2020-08-16T15:02:01Z</time>
      </trkpt>
      <trkpt lat="46.02905" lon="6.61078">
        <ele>513.6</ele>
        <time>2020-08-16T15:02:02Z</time>
      </trkpt>
      <trkpt lat="46.029" lon="6.61078">
        <ele>513.4</ele>
        <time>2020-08-16T15:02:03Z</time>
      </trkpt>
      <trkpt lat="46.02895" lon="6.61078">
        <ele>513.4</ele>
        <time>2020-08-16T15:02:04Z</time>
      </trkpt>
      <trkpt lat="46.0289" lon="6.61079">
        <ele>513.4</ele>
        <time>2020-08-16T15:02:05Z</time>
      </trkpt>
      <trkpt lat="46.02885" lon="6.61078">
        <ele>513.4</ele>
        <time>2020-08-16T15:02:06Z</time>
      </trkpt>
      <trkpt lat="46.0288" lon="6.61078">
        <ele>513.4</ele>
        <time>2020-08-16T15:02:07Z</time>
      </trkpt>
      <trkpt lat="46.02875" lon="6.61077">
        <ele>513.4</ele>
        <time>2020-08-16T15:02:08Z</time>
      </trkpt>
      <trkpt lat="46.0287" lon="6.61077">
        <ele>513.4</ele>
        <time>2020-08-16T15:02:09Z</time>
      </trkpt>
      <trkpt lat="46.02864" lon="6.61077">
        <ele>513.4</ele>
        <time>2020-08-16T15:02:10Z</time>
      </trkpt>
      <trkpt lat="46.02859" lon="6.61076">
        <ele>513.4</ele>
        <time>2020-08-16T15:02:11Z</time>
      </trkpt>
      <trkpt lat="46.02854" lon="6.61075">
        <ele>513.4</ele>
        <time>2020-08-16T15:02:12Z</time>
      </trkpt>
      <trkpt lat="46.02848" lon="6.61074">
        <ele>513.4</ele>
        <time>2020-08-16T15:02:13Z</time>
      </trkpt>
      <trkpt lat="46.02843" lon="6.61074">
        <ele>513.4</ele>
        <time>2020-08-16T15:02:14Z</time>
      </trkpt>
      <trkpt lat="46.02838" lon="6.61073">
        <ele>513.4</ele>
        <time>2020-08-16T15:02:15Z</time>
      </trkpt>
      <trkpt lat="46.02833" lon="6.61071">
        <ele>513.4</ele>
        <time>2020-08-16T15:02:16Z</time>
      </trkpt>
      <trkpt lat="46.02828" lon="6.6107">
        <ele>513.2</ele>
        <time>2020-08-16T15:02:17Z</time>
      </trkpt>
      <trkpt lat="46.02823" lon="6.61069">
        <ele>513.2</ele>
        <time>2020-08-16T15:02:18Z</time>
      </trkpt>
      <trkpt lat="46.02818" lon="6.61069">
        <ele>513.4</ele>
        <time>2020-08-16T15:02:19Z</time>
      </trkpt>
      <trkpt lat="46.02812" lon="6.61068">
        <ele>513.2</ele>
        <time>2020-08-16T15:02:20Z</time>
      </trkpt>
      <trkpt lat="46.02807" lon="6.61067">
        <ele>513.2</ele>
        <time>2020-08-16T15:02:21Z</time>
      </trkpt>
      <trkpt lat="46.02802" lon="6.61066">
        <ele>513.2</ele>
        <time>2020-08-16T15:02:22Z</time>
      </trkpt>
      <trkpt lat="46.02798" lon="6.61064">
        <ele>513.4</ele>
        <time>2020-08-16T15:02:23Z</time>
      </trkpt>
      <trkpt lat="46.02793" lon="6.61063">
        <ele>513.4</ele>
        <time>2020-08-16T15:02:24Z</time>
      </trkpt>
      <trkpt lat="46.02788" lon="6.61062">
        <ele>513.6</ele>
        <time>2020-08-16T15:02:25Z</time>
      </trkpt>
      <trkpt lat="46.02784" lon="6.61061">
        <ele>513.6</ele>
        <time>2020-08-16T15:02:26Z</time>
      </trkpt>
      <trkpt lat="46.0278" lon="6.61059">
        <ele>513.6</ele>
        <time>2020-08-16T15:02:27Z</time>
      </trkpt>
      <trkpt lat="46.02776" lon="6.61058">
        <ele>513.6</ele>
        <time>2020-08-16T15:02:28Z</time>
      </trkpt>
      <trkpt lat="46.02773" lon="6.61055">
        <ele>513.4</ele>
        <time>2020-08-16T15:02:29Z</time>
      </trkpt>
      <trkpt lat="46.0277" lon="6.61054">
        <ele>513.4</ele>
        <time>2020-08-16T15:02:30Z</time>
      </trkpt>
      <trkpt lat="46.02767" lon="6.61053">
        <ele>513.4</ele>
        <time>2020-08-16T15:02:31Z</time>
      </trkpt>
      <trkpt lat="46.02765" lon="6.61053">
        <ele>513.4</ele>
        <time>2020-08-16T15:02:32Z</time>
      </trkpt>
      <trkpt lat="46.02763" lon="6.61052">
        <ele>513.4</ele>
        <time>2020-08-16T15:02:33Z</time>
      </trkpt>
      <trkpt lat="46.02762" lon="6.61052">
        <ele>513.4</ele>
        <time>2020-08-16T15:02:34Z</time>
      </trkpt>
      <trkpt lat="46.02761" lon="6.61052">
        <ele>513.4</ele>
        <time>2020-08-16T15:02:35Z</time>
      </trkpt>
      <trkpt lat="46.0276" lon="6.61053">
        <ele>513.4</ele>
        <time>2020-08-16T15:02:36Z</time>
      </trkpt>
      <trkpt lat="46.02759" lon="6.61054">
        <ele>513.4</ele>
        <time>2020-08-16T15:02:37Z</time>
      </trkpt>
      <trkpt lat="46.02759" lon="6.61056">
        <ele>513.4</ele>
        <time>2020-08-16T15:02:38Z</time>
      </trkpt>
      <trkpt lat="46.0276" lon="6.61057">
        <ele>513.4</ele>
        <time>2020-08-16T15:02:39Z</time>
      </trkpt>
      <trkpt lat="46.0276" lon="6.61057">
        <ele>513.4</ele>
        <time>2020-08-16T15:02:40Z</time>
      </trkpt>
      <trkpt lat="46.0276" lon="6.61056">
        <ele>513.4</ele>
        <time>2020-08-16T15:02:41Z</time>
      </trkpt>
      <trkpt lat="46.02759" lon="6.61055">
        <ele>513.4</ele>
        <time>2020-08-16T15:02:42Z</time>
      </trkpt>
      <trkpt lat="46.02759" lon="6.61055">
        <ele>513.4</ele>
        <time>2020-08-16T15:02:43Z</time>
      </trkpt>
      <trkpt lat="46.02758" lon="6.61056">
        <ele>513.4</ele>
        <time>2020-08-16T15:02:44Z</time>
      </trkpt>
      <trkpt lat="46.02757" lon="6.61056">
        <ele>513.4</ele>
        <time>2020-08-16T15:02:45Z</time>
      </trkpt>
      <trkpt lat="46.02757" lon="6.61057">
        <ele>513.4</ele>
        <time>2020-08-16T15:02:46Z</time>
      </trkpt>
      <trkpt lat="46.02757" lon="6.61057">
        <ele>513.4</ele>
        <time>2020-08-16T15:02:47Z</time>
      </trkpt>
      <trkpt lat="46.02758" lon="6.61058">
        <ele>513.4</ele>
        <time>2020-08-16T15:02:48Z</time>
      </trkpt>
      <trkpt lat="46.02759" lon="6.61059">
        <ele>513.6</ele>
        <time>2020-08-16T15:02:49Z</time>
      </trkpt>
      <trkpt lat="46.0276" lon="6.61059">
        <ele>513.6</ele>
        <time>2020-08-16T15:02:50Z</time>
      </trkpt>
      <trkpt lat="46.02762" lon="6.6106">
        <ele>513.6</ele>
        <time>2020-08-16T15:02:51Z</time>
      </trkpt>
      <trkpt lat="46.02768" lon="6.61062">
        <ele>513.6</ele>
        <time>2020-08-16T15:02:56Z</time>
      </trkpt>
      <trkpt lat="46.02769" lon="6.61062">
        <ele>513.6</ele>
        <time>2020-08-16T15:02:57Z</time>
      </trkpt>
      <trkpt lat="46.0277" lon="6.61061">
        <ele>513.6</ele>
        <time>2020-08-16T15:02:58Z</time>
      </trkpt>
      <trkpt lat="46.02771" lon="6.61061">
        <ele>513.6</ele>
        <time>2020-08-16T15:02:59Z</time>
      </trkpt>
      <trkpt lat="46.02772" lon="6.6106">
        <ele>513.6</ele>
        <time>2020-08-16T15:03:00Z</time>
      </trkpt>
      <trkpt lat="46.02774" lon="6.61058">
        <ele>513.6</ele>
        <time>2020-08-16T15:03:01Z</time>
      </trkpt>
      <trkpt lat="46.02775" lon="6.61057">
        <ele>513.6</ele>
        <time>2020-08-16T15:03:02Z</time>
      </trkpt>
      <trkpt lat="46.02776" lon="6.61056">
        <ele>513.6</ele>
        <time>2020-08-16T15:03:03Z</time>
      </trkpt>
      <trkpt lat="46.02778" lon="6.61054">
        <ele>513.6</ele>
        <time>2020-08-16T15:03:04Z</time>
      </trkpt>
      <trkpt lat="46.02779" lon="6.61053">
        <ele>513.6</ele>
        <time>2020-08-16T15:03:05Z</time>
      </trkpt>
      <trkpt lat="46.02781" lon="6.61052">
        <ele>513.6</ele>
        <time>2020-08-16T15:03:06Z</time>
      </trkpt>
      <trkpt lat="46.02781" lon="6.61051">
        <ele>513.6</ele>
        <time>2020-08-16T15:03:07Z</time>
      </trkpt>
      <trkpt lat="46.02782" lon="6.61051">
        <ele>513.6</ele>
        <time>2020-08-16T15:03:08Z</time>
      </trkpt>
      <trkpt lat="46.02782" lon="6.61051">
        <ele>513.4</ele>
        <time>2020-08-16T15:03:09Z</time>
      </trkpt>
      <trkpt lat="46.02782" lon="6.61051">
        <ele>513.4</ele>
        <time>2020-08-16T15:03:10Z</time>
      </trkpt>
      <trkpt lat="46.02782" lon="6.61051">
        <ele>513.6</ele>
        <time>2020-08-16T15:03:11Z</time>
      </trkpt>
      <trkpt lat="46.02783" lon="6.61052">
        <ele>513.4</ele>
        <time>2020-08-16T15:03:12Z</time>
      </trkpt>
      <trkpt lat="46.02784" lon="6.61054">
        <ele>513.6</ele>
        <time>2020-08-16T15:03:13Z</time>
      </trkpt>
      <trkpt lat="46.02784" lon="6.61056">
        <ele>513.6</ele>
        <time>2020-08-16T15:03:14Z</time>
      </trkpt>
      <trkpt lat="46.02773" lon="6.61056">
        <ele>513.8</ele>
        <time>2020-08-16T15:03:20Z</time>
      </trkpt>
      <trkpt lat="46.02771" lon="6.61056">
        <ele>513.8</ele>
        <time>2020-08-16T15:03:21Z</time>
      </trkpt>
      <trkpt lat="46.02768" lon="6.61056">
        <ele>513.6</ele>
        <time>2020-08-16T15:03:22Z</time>
      </trkpt>
      <trkpt lat="46.02765" lon="6.61056">
        <ele>513.8</ele>
        <time>2020-08-16T15:03:23Z</time>
      </trkpt>
      <trkpt lat="46.02762" lon="6.61056">
        <ele>513.8</ele>
        <time>2020-08-16T15:03:24Z</time>
      </trkpt>
      <trkpt lat="46.02758" lon="6.61056">
        <ele>513.8</ele>
        <time>2020-08-16T15:03:25Z</time>
      </trkpt>
      <trkpt lat="46.02755" lon="6.61055">
        <ele>513.8</ele>
        <time>2020-08-16T15:03:26Z</time>
      </trkpt>
      <trkpt lat="46.02751" lon="6.61055">
        <ele>513.8</ele>
        <time>2020-08-16T15:03:27Z</time>
      </trkpt>
      <trkpt lat="46.02748" lon="6.61055">
        <ele>513.8</ele>
        <time>2020-08-16T15:03:28Z</time>
      </trkpt>
      <trkpt lat="46.02744" lon="6.61054">
        <ele>513.8</ele>
        <time>2020-08-16T15:03:29Z</time>
      </trkpt>
      <trkpt lat="46.0274" lon="6.61054">
        <ele>513.8</ele>
        <time>2020-08-16T15:03:30Z</time>
      </trkpt>
      <trkpt lat="46.02736" lon="6.61053">
        <ele>513.8</ele>
        <time>2020-08-16T15:03:31Z</time>
      </trkpt>
      <trkpt lat="46.02732" lon="6.61053">
        <ele>513.8</ele>
        <time>2020-08-16T15:03:32Z</time>
      </trkpt>
      <trkpt lat="46.02728" lon="6.61053">
        <ele>514</ele>
        <time>2020-08-16T15:03:33Z</time>
      </trkpt>
      <trkpt lat="46.02724" lon="6.61052">
        <ele>514</ele>
        <time>2020-08-16T15:03:34Z</time>
      </trkpt>
      <trkpt lat="46.0272" lon="6.61052">
        <ele>514</ele>
        <time>2020-08-16T15:03:35Z</time>
      </trkpt>
      <trkpt lat="46.02716" lon="6.61051">
        <ele>514.2</ele>
        <time>2020-08-16T15:03:36Z</time>
      </trkpt>
      <trkpt lat="46.02712" lon="6.61051">
        <ele>514.2</ele>
        <time>2020-08-16T15:03:37Z</time>
      </trkpt>
      <trkpt lat="46.02708" lon="6.61051">
        <ele>514.4</ele>
        <time>2020-08-16T15:03:38Z</time>
      </trkpt>
      <trkpt lat="46.02704" lon="6.61051">
        <ele>514.6</ele>
        <time>2020-08-16T15:03:39Z</time>
      </trkpt>
      <trkpt lat="46.027" lon="6.61051">
        <ele>514.6</ele>
        <time>2020-08-16T15:03:40Z</time>
      </trkpt>
      <trkpt lat="46.02697" lon="6.61052">
        <ele>514.8</ele>
        <time>2020-08-16T15:03:41Z</time>
      </trkpt>
      <trkpt lat="46.02693" lon="6.61052">
        <ele>515</ele>
        <time>2020-08-16T15:03:42Z</time>
      </trkpt>
      <trkpt lat="46.0269" lon="6.61052">
        <ele>515.2</ele>
        <time>2020-08-16T15:03:43Z</time>
      </trkpt>
      <trkpt lat="46.02686" lon="6.61052">
        <ele>515.4</ele>
        <time>2020-08-16T15:03:44Z</time>
      </trkpt>
      <trkpt lat="46.02683" lon="6.61052">
        <ele>515.4</ele>
        <time>2020-08-16T15:03:45Z</time>
      </trkpt>
      <trkpt lat="46.0268" lon="6.61052">
        <ele>515.6</ele>
        <time>2020-08-16T15:03:46Z</time>
      </trkpt>
      <trkpt lat="46.02677" lon="6.61053">
        <ele>515.8</ele>
        <time>2020-08-16T15:03:47Z</time>
      </trkpt>
      <trkpt lat="46.02675" lon="6.61052">
        <ele>516</ele>
        <time>2020-08-16T15:03:48Z</time>
      </trkpt>
      <trkpt lat="46.02673" lon="6.61051">
        <ele>516</ele>
        <time>2020-08-16T15:03:49Z</time>
      </trkpt>
      <trkpt lat="46.02671" lon="6.61051">
        <ele>516.2</ele>
        <time>2020-08-16T15:03:50Z</time>
      </trkpt>
      <trkpt lat="46.02668" lon="6.61051">
        <ele>516.4</ele>
        <time>2020-08-16T15:03:51Z</time>
      </trkpt>
      <trkpt lat="46.02666" lon="6.61051">
        <ele>516.6</ele>
        <time>2020-08-16T15:03:52Z</time>
      </trkpt>
      <trkpt lat="46.02664" lon="6.61051">
        <ele>516.8</ele>
        <time>2020-08-16T15:03:53Z</time>
      </trkpt>
      <trkpt lat="46.02661" lon="6.61051">
        <ele>517</ele>
        <time>2020-08-16T15:03:54Z</time>
      </trkpt>
      <trkpt lat="46.02658" lon="6.61051">
        <ele>517</ele>
        <time>2020-08-16T15:03:55Z</time>
      </trkpt>
      <trkpt lat="46.02655" lon="6.61047">
        <ele>517.2</ele>
        <time>2020-08-16T15:03:56Z</time>
      </trkpt>
      <trkpt lat="46.02652" lon="6.61046">
        <ele>517.4</ele>
        <time>2020-08-16T15:03:57Z</time>
      </trkpt>
      <trkpt lat="46.02648" lon="6.61046">
        <ele>517.4</ele>
        <time>2020-08-16T15:03:58Z</time>
      </trkpt>
      <trkpt lat="46.02644" lon="6.61045">
        <ele>517.6</ele>
        <time>2020-08-16T15:03:59Z</time>
      </trkpt>
      <trkpt lat="46.02641" lon="6.61044">
        <ele>517.8</ele>
        <time>2020-08-16T15:04:00Z</time>
      </trkpt>
      <trkpt lat="46.02637" lon="6.61043">
        <ele>517.8</ele>
        <time>2020-08-16T15:04:01Z</time>
      </trkpt>
      <trkpt lat="46.02634" lon="6.61042">
        <ele>518</ele>
        <time>2020-08-16T15:04:02Z</time>
      </trkpt>
      <trkpt lat="46.02629" lon="6.61042">
        <ele>518</ele>
        <time>2020-08-16T15:04:03Z</time>
      </trkpt>
      <trkpt lat="46.02626" lon="6.6104">
        <ele>518</ele>
        <time>2020-08-16T15:04:04Z</time>
      </trkpt>
      <trkpt lat="46.02622" lon="6.6104">
        <ele>518.2</ele>
        <time>2020-08-16T15:04:05Z</time>
      </trkpt>
      <trkpt lat="46.02618" lon="6.6104">
        <ele>518.2</ele>
        <time>2020-08-16T15:04:06Z</time>
      </trkpt>
      <trkpt lat="46.02614" lon="6.61039">
        <ele>518.4</ele>
        <time>2020-08-16T15:04:07Z</time>
      </trkpt>
      <trkpt lat="46.0261" lon="6.61038">
        <ele>518.6</ele>
        <time>2020-08-16T15:04:08Z</time>
      </trkpt>
      <trkpt lat="46.02606" lon="6.61036">
        <ele>518.6</ele>
        <time>2020-08-16T15:04:09Z</time>
      </trkpt>
      <trkpt lat="46.02602" lon="6.61034">
        <ele>518.6</ele>
        <time>2020-08-16T15:04:10Z</time>
      </trkpt>
      <trkpt lat="46.02598" lon="6.61032">
        <ele>518.6</ele>
        <time>2020-08-16T15:04:11Z</time>
      </trkpt>
      <trkpt lat="46.02595" lon="6.6103">
        <ele>518.6</ele>
        <time>2020-08-16T15:04:12Z</time>
      </trkpt>
      <trkpt lat="46.02591" lon="6.61027">
        <ele>518.6</ele>
        <time>2020-08-16T15:04:13Z</time>
      </trkpt>
      <trkpt lat="46.02587" lon="6.61025">
        <ele>518.6</ele>
        <time>2020-08-16T15:04:14Z</time>
      </trkpt>
      <trkpt lat="46.02583" lon="6.61022">
        <ele>518.4</ele>
        <time>2020-08-16T15:04:15Z</time>
      </trkpt>
      <trkpt lat="46.02579" lon="6.6102">
        <ele>518.4</ele>
        <time>2020-08-16T15:04:16Z</time>
      </trkpt>
      <trkpt lat="46.02575" lon="6.61017">
        <ele>518.2</ele>
        <time>2020-08-16T15:04:17Z</time>
      </trkpt>
      <trkpt lat="46.02572" lon="6.61016">
        <ele>518</ele>
        <time>2020-08-16T15:04:18Z</time>
      </trkpt>
      <trkpt lat="46.02567" lon="6.61014">
        <ele>517.8</ele>
        <time>2020-08-16T15:04:19Z</time>
      </trkpt>
      <trkpt lat="46.02562" lon="6.61012">
        <ele>517.6</ele>
        <time>2020-08-16T15:04:20Z</time>
      </trkpt>
      <trkpt lat="46.02557" lon="6.6101">
        <ele>517.4</ele>
        <time>2020-08-16T15:04:21Z</time>
      </trkpt>
      <trkpt lat="46.02551" lon="6.61008">
        <ele>517</ele>
        <time>2020-08-16T15:04:22Z</time>
      </trkpt>
      <trkpt lat="46.02545" lon="6.61006">
        <ele>516.6</ele>
        <time>2020-08-16T15:04:23Z</time>
      </trkpt>
      <trkpt lat="46.02539" lon="6.61003">
        <ele>516.4</ele>
        <time>2020-08-16T15:04:24Z</time>
      </trkpt>
      <trkpt lat="46.02533" lon="6.61">
        <ele>516</ele>
        <time>2020-08-16T15:04:25Z</time>
      </trkpt>
      <trkpt lat="46.02526" lon="6.60999">
        <ele>515.8</ele>
        <time>2020-08-16T15:04:26Z</time>
      </trkpt>
      <trkpt lat="46.02519" lon="6.60998">
        <ele>515.4</ele>
        <time>2020-08-16T15:04:27Z</time>
      </trkpt>
      <trkpt lat="46.02513" lon="6.61">
        <ele>515.2</ele>
        <time>2020-08-16T15:04:28Z</time>
      </trkpt>
      <trkpt lat="46.02506" lon="6.61003">
        <ele>515</ele>
        <time>2020-08-16T15:04:29Z</time>
      </trkpt>
      <trkpt lat="46.02499" lon="6.61006">
        <ele>514.8</ele>
        <time>2020-08-16T15:04:30Z</time>
      </trkpt>
      <trkpt lat="46.02492" lon="6.61008">
        <ele>514.6</ele>
        <time>2020-08-16T15:04:31Z</time>
      </trkpt>
      <trkpt lat="46.02486" lon="6.61011">
        <ele>514.4</ele>
        <time>2020-08-16T15:04:32Z</time>
      </trkpt>
      <trkpt lat="46.02479" lon="6.61013">
        <ele>514.4</ele>
        <time>2020-08-16T15:04:33Z</time>
      </trkpt>
      <trkpt lat="46.02473" lon="6.61014">
        <ele>514.2</ele>
        <time>2020-08-16T15:04:34Z</time>
      </trkpt>
      <trkpt lat="46.02468" lon="6.61016">
        <ele>514.2</ele>
        <time>2020-08-16T15:04:35Z</time>
      </trkpt>
      <trkpt lat="46.02462" lon="6.61017">
        <ele>514.2</ele>
        <time>2020-08-16T15:04:36Z</time>
      </trkpt>
      <trkpt lat="46.02459" lon="6.61018">
        <ele>514</ele>
        <time>2020-08-16T15:04:37Z</time>
      </trkpt>
      <trkpt lat="46.02455" lon="6.6102">
        <ele>514</ele>
        <time>2020-08-16T15:04:38Z</time>
      </trkpt>
      <trkpt lat="46.02454" lon="6.6102">
        <ele>514</ele>
        <time>2020-08-16T15:04:39Z</time>
      </trkpt>
      <trkpt lat="46.02452" lon="6.6102">
        <ele>514</ele>
        <time>2020-08-16T15:04:40Z</time>
      </trkpt>
      <trkpt lat="46.02451" lon="6.6102">
        <ele>514</ele>
        <time>2020-08-16T15:04:41Z</time>
      </trkpt>
      <trkpt lat="46.0245" lon="6.61021">
        <ele>513.8</ele>
        <time>2020-08-16T15:04:42Z</time>
      </trkpt>
      <trkpt lat="46.0245" lon="6.61021">
        <ele>513.8</ele>
        <time>2020-08-16T15:04:43Z</time>
      </trkpt>
      <trkpt lat="46.0245" lon="6.61021">
        <ele>513.8</ele>
        <time>2020-08-16T15:04:44Z</time>
      </trkpt>
      <trkpt lat="46.02449" lon="6.6102">
        <ele>513.8</ele>
        <time>2020-08-16T15:04:45Z</time>
      </trkpt>
      <trkpt lat="46.02449" lon="6.6102">
        <ele>513.8</ele>
        <time>2020-08-16T15:04:46Z</time>
      </trkpt>
      <trkpt lat="46.0245" lon="6.61021">
        <ele>513.8</ele>
        <time>2020-08-16T15:04:47Z</time>
      </trkpt>
      <trkpt lat="46.0245" lon="6.61022">
        <ele>513.8</ele>
        <time>2020-08-16T15:04:48Z</time>
      </trkpt>
      <trkpt lat="46.0245" lon="6.61022">
        <ele>513.8</ele>
        <time>2020-08-16T15:04:49Z</time>
      </trkpt>
      <trkpt lat="46.02434" lon="6.61035">
        <ele>514</ele>
        <time>2020-08-16T15:19:58Z</time>
      </trkpt>
      <trkpt lat="46.02432" lon="6.61038">
        <ele>514</ele>
        <time>2020-08-16T15:19:59Z</time>
      </trkpt>
      <trkpt lat="46.02429" lon="6.6104">
        <ele>514.2</ele>
        <time>2020-08-16T15:20:00Z</time>
      </trkpt>
      <trkpt lat="46.02427" lon="6.61041">
        <ele>514.2</ele>
        <time>2020-08-16T15:20:01Z</time>
      </trkpt>
      <trkpt lat="46.02424" lon="6.61043">
        <ele>514.2</ele>
        <time>2020-08-16T15:20:02Z</time>
      </trkpt>
      <trkpt lat="46.02421" lon="6.61045">
        <ele>514.2</ele>
        <time>2020-08-16T15:20:03Z</time>
      </trkpt>
      <trkpt lat="46.02418" lon="6.61047">
        <ele>514.2</ele>
        <time>2020-08-16T15:20:04Z</time>
      </trkpt>
      <trkpt lat="46.02415" lon="6.6105">
        <ele>514</ele>
        <time>2020-08-16T15:20:05Z</time>
      </trkpt>
      <trkpt lat="46.02411" lon="6.61054">
        <ele>514</ele>
        <time>2020-08-16T15:20:06Z</time>
      </trkpt>
      <trkpt lat="46.02408" lon="6.61058">
        <ele>514</ele>
        <time>2020-08-16T15:20:07Z</time>
      </trkpt>
      <trkpt lat="46.02403" lon="6.61061">
        <ele>514</ele>
        <time>2020-08-16T15:20:08Z</time>
      </trkpt>
      <trkpt lat="46.02399" lon="6.61064">
        <ele>514.2</ele>
        <time>2020-08-16T15:20:09Z</time>
      </trkpt>
      <trkpt lat="46.02395" lon="6.61067">
        <ele>514.2</ele>
        <time>2020-08-16T15:20:10Z</time>
      </trkpt>
      <trkpt lat="46.02391" lon="6.61071">
        <ele>514.2</ele>
        <time>2020-08-16T15:20:11Z</time>
      </trkpt>
      <trkpt lat="46.02388" lon="6.61076">
        <ele>514.2</ele>
        <time>2020-08-16T15:20:12Z</time>
      </trkpt>
      <trkpt lat="46.02384" lon="6.6108">
        <ele>514.2</ele>
        <time>2020-08-16T15:20:13Z</time>
      </trkpt>
      <trkpt lat="46.0238" lon="6.61084">
        <ele>514.2</ele>
        <time>2020-08-16T15:20:14Z</time>
      </trkpt>
      <trkpt lat="46.02377" lon="6.61087">
        <ele>514.2</ele>
        <time>2020-08-16T15:20:15Z</time>
      </trkpt>
      <trkpt lat="46.02373" lon="6.6109">
        <ele>514.2</ele>
        <time>2020-08-16T15:20:16Z</time>
      </trkpt>
      <trkpt lat="46.02369" lon="6.61093">
        <ele>514.2</ele>
        <time>2020-08-16T15:20:17Z</time>
      </trkpt>
      <trkpt lat="46.02366" lon="6.61096">
        <ele>514.2</ele>
        <time>2020-08-16T15:20:18Z</time>
      </trkpt>
      <trkpt lat="46.02363" lon="6.61099">
        <ele>514.2</ele>
        <time>2020-08-16T15:20:19Z</time>
      </trkpt>
      <trkpt lat="46.02361" lon="6.61102">
        <ele>514.4</ele>
        <time>2020-08-16T15:20:20Z</time>
      </trkpt>
      <trkpt lat="46.02359" lon="6.61106">
        <ele>514.4</ele>
        <time>2020-08-16T15:20:21Z</time>
      </trkpt>
      <trkpt lat="46.02357" lon="6.61109">
        <ele>514.6</ele>
        <time>2020-08-16T15:20:22Z</time>
      </trkpt>
      <trkpt lat="46.02356" lon="6.61112">
        <ele>514.6</ele>
        <time>2020-08-16T15:20:23Z</time>
      </trkpt>
      <trkpt lat="46.02355" lon="6.61114">
        <ele>514.8</ele>
        <time>2020-08-16T15:20:24Z</time>
      </trkpt>
      <trkpt lat="46.02355" lon="6.61117">
        <ele>514.8</ele>
        <time>2020-08-16T15:20:25Z</time>
      </trkpt>
      <trkpt lat="46.02356" lon="6.61119">
        <ele>514.8</ele>
        <time>2020-08-16T15:20:26Z</time>
      </trkpt>
      <trkpt lat="46.02357" lon="6.6112">
        <ele>514.8</ele>
        <time>2020-08-16T15:20:27Z</time>
      </trkpt>
      <trkpt lat="46.02358" lon="6.61121">
        <ele>514.8</ele>
        <time>2020-08-16T15:20:28Z</time>
      </trkpt>
      <trkpt lat="46.0236" lon="6.61121">
        <ele>514.8</ele>
        <time>2020-08-16T15:20:29Z</time>
      </trkpt>
      <trkpt lat="46.02361" lon="6.61119">
        <ele>514.8</ele>
        <time>2020-08-16T15:20:30Z</time>
      </trkpt>
      <trkpt lat="46.02361" lon="6.61117">
        <ele>514.8</ele>
        <time>2020-08-16T15:20:31Z</time>
      </trkpt>
      <trkpt lat="46.0236" lon="6.61115">
        <ele>514.8</ele>
        <time>2020-08-16T15:20:32Z</time>
      </trkpt>
      <trkpt lat="46.02358" lon="6.61114">
        <ele>514.8</ele>
        <time>2020-08-16T15:20:33Z</time>
      </trkpt>
      <trkpt lat="46.02356" lon="6.61114">
        <ele>514.8</ele>
        <time>2020-08-16T15:20:34Z</time>
      </trkpt>
      <trkpt lat="46.02354" lon="6.61114">
        <ele>514.8</ele>
        <time>2020-08-16T15:20:35Z</time>
      </trkpt>
      <trkpt lat="46.02352" lon="6.61114">
        <ele>514.8</ele>
        <time>2020-08-16T15:20:36Z</time>
      </trkpt>
      <trkpt lat="46.0235" lon="6.61114">
        <ele>514.8</ele>
        <time>2020-08-16T15:20:37Z</time>
      </trkpt>
      <trkpt lat="46.02347" lon="6.61115">
        <ele>514.8</ele>
        <time>2020-08-16T15:20:38Z</time>
      </trkpt>
      <trkpt lat="46.02344" lon="6.61115">
        <ele>515</ele>
        <time>2020-08-16T15:20:39Z</time>
      </trkpt>
      <trkpt lat="46.02342" lon="6.61116">
        <ele>515</ele>
        <time>2020-08-16T15:20:40Z</time>
      </trkpt>
      <trkpt lat="46.02338" lon="6.61117">
        <ele>515.2</ele>
        <time>2020-08-16T15:20:41Z</time>
      </trkpt>
      <trkpt lat="46.02335" lon="6.61118">
        <ele>515.4</ele>
        <time>2020-08-16T15:20:42Z</time>
      </trkpt>
      <trkpt lat="46.02332" lon="6.61119">
        <ele>515.4</ele>
        <time>2020-08-16T15:20:43Z</time>
      </trkpt>
      <trkpt lat="46.02328" lon="6.6112">
        <ele>515.6</ele>
        <time>2020-08-16T15:20:44Z</time>
      </trkpt>
      <trkpt lat="46.02325" lon="6.61121">
        <ele>515.8</ele>
        <time>2020-08-16T15:20:45Z</time>
      </trkpt>
      <trkpt lat="46.02321" lon="6.61121">
        <ele>515.8</ele>
        <time>2020-08-16T15:20:46Z</time>
      </trkpt>
      <trkpt lat="46.02317" lon="6.61123">
        <ele>516</ele>
        <time>2020-08-16T15:20:47Z</time>
      </trkpt>
      <trkpt lat="46.02313" lon="6.61124">
        <ele>516.2</ele>
        <time>2020-08-16T15:20:48Z</time>
      </trkpt>
      <trkpt lat="46.0231" lon="6.61126">
        <ele>516.2</ele>
        <time>2020-08-16T15:20:49Z</time>
      </trkpt>
      <trkpt lat="46.02308" lon="6.61127">
        <ele>516.4</ele>
        <time>2020-08-16T15:20:50Z</time>
      </trkpt>
      <trkpt lat="46.02304" lon="6.61128">
        <ele>516.4</ele>
        <time>2020-08-16T15:20:51Z</time>
      </trkpt>
      <trkpt lat="46.02302" lon="6.6113">
        <ele>516.4</ele>
        <time>2020-08-16T15:20:52Z</time>
      </trkpt>
      <trkpt lat="46.02298" lon="6.61132">
        <ele>516.6</ele>
        <time>2020-08-16T15:20:53Z</time>
      </trkpt>
      <trkpt lat="46.02295" lon="6.61134">
        <ele>516.6</ele>
        <time>2020-08-16T15:20:54Z</time>
      </trkpt>
      <trkpt lat="46.02292" lon="6.61136">
        <ele>516.6</ele>
        <time>2020-08-16T15:20:55Z</time>
      </trkpt>
      <trkpt lat="46.02289" lon="6.61138">
        <ele>516.4</ele>
        <time>2020-08-16T15:20:56Z</time>
      </trkpt>
      <trkpt lat="46.02286" lon="6.6114">
        <ele>516.2</ele>
        <time>2020-08-16T15:20:57Z</time>
      </trkpt>
      <trkpt lat="46.02282" lon="6.61144">
        <ele>516.4</ele>
        <time>2020-08-16T15:20:58Z</time>
      </trkpt>
      <trkpt lat="46.02278" lon="6.61147">
        <ele>516.2</ele>
        <time>2020-08-16T15:20:59Z</time>
      </trkpt>
      <trkpt lat="46.02274" lon="6.6115">
        <ele>516</ele>
        <time>2020-08-16T15:21:00Z</time>
      </trkpt>
      <trkpt lat="46.02269" lon="6.61152">
        <ele>516</ele>
        <time>2020-08-16T15:21:01Z</time>
      </trkpt>
      <trkpt lat="46.02265" lon="6.61154">
        <ele>516</ele>
        <time>2020-08-16T15:21:02Z</time>
      </trkpt>
      <trkpt lat="46.02261" lon="6.61157">
        <ele>516.2</ele>
        <time>2020-08-16T15:21:03Z</time>
      </trkpt>
      <trkpt lat="46.02258" lon="6.61159">
        <ele>516.2</ele>
        <time>2020-08-16T15:21:04Z</time>
      </trkpt>
      <trkpt lat="46.02254" lon="6.61162">
        <ele>516.4</ele>
        <time>2020-08-16T15:21:05Z</time>
      </trkpt>
      <trkpt lat="46.0225" lon="6.61165">
        <ele>516.4</ele>
        <time>2020-08-16T15:21:06Z</time>
      </trkpt>
      <trkpt lat="46.02246" lon="6.61168">
        <ele>516.4</ele>
        <time>2020-08-16T15:21:07Z</time>
      </trkpt>
      <trkpt lat="46.02242" lon="6.61172">
        <ele>516.4</ele>
        <time>2020-08-16T15:21:08Z</time>
      </trkpt>
      <trkpt lat="46.02239" lon="6.61177">
        <ele>516.6</ele>
        <time>2020-08-16T15:21:09Z</time>
      </trkpt>
      <trkpt lat="46.02236" lon="6.61181">
        <ele>516.6</ele>
        <time>2020-08-16T15:21:10Z</time>
      </trkpt>
      <trkpt lat="46.02233" lon="6.61186">
        <ele>516.6</ele>
        <time>2020-08-16T15:21:11Z</time>
      </trkpt>
      <trkpt lat="46.02231" lon="6.61191">
        <ele>516.6</ele>
        <time>2020-08-16T15:21:12Z</time>
      </trkpt>
      <trkpt lat="46.02229" lon="6.61196">
        <ele>516.8</ele>
        <time>2020-08-16T15:21:13Z</time>
      </trkpt>
      <trkpt lat="46.02227" lon="6.61201">
        <ele>516.8</ele>
        <time>2020-08-16T15:21:14Z</time>
      </trkpt>
      <trkpt lat="46.02224" lon="6.61206">
        <ele>516.8</ele>
        <time>2020-08-16T15:21:15Z</time>
      </trkpt>
      <trkpt lat="46.02221" lon="6.61211">
        <ele>517</ele>
        <time>2020-08-16T15:21:16Z</time>
      </trkpt>
      <trkpt lat="46.02218" lon="6.61216">
        <ele>517</ele>
        <time>2020-08-16T15:21:17Z</time>
      </trkpt>
      <trkpt lat="46.02215" lon="6.6122">
        <ele>517</ele>
        <time>2020-08-16T15:21:18Z</time>
      </trkpt>
      <trkpt lat="46.02211" lon="6.61225">
        <ele>517.2</ele>
        <time>2020-08-16T15:21:19Z</time>
      </trkpt>
      <trkpt lat="46.02208" lon="6.61229">
        <ele>517.2</ele>
        <time>2020-08-16T15:21:20Z</time>
      </trkpt>
      <trkpt lat="46.02204" lon="6.61233">
        <ele>517.2</ele>
        <time>2020-08-16T15:21:21Z</time>
      </trkpt>
      <trkpt lat="46.02201" lon="6.61236">
        <ele>517.4</ele>
        <time>2020-08-16T15:21:22Z</time>
      </trkpt>
      <trkpt lat="46.02197" lon="6.6124">
        <ele>517.4</ele>
        <time>2020-08-16T15:21:23Z</time>
      </trkpt>
      <trkpt lat="46.02193" lon="6.61243">
        <ele>517.6</ele>
        <time>2020-08-16T15:21:24Z</time>
      </trkpt>
      <trkpt lat="46.0219" lon="6.61245">
        <ele>517.6</ele>
        <time>2020-08-16T15:21:25Z</time>
      </trkpt>
      <trkpt lat="46.02186" lon="6.61248">
        <ele>517.8</ele>
        <time>2020-08-16T15:21:26Z</time>
      </trkpt>
      <trkpt lat="46.02183" lon="6.61251">
        <ele>517.8</ele>
        <time>2020-08-16T15:21:27Z</time>
      </trkpt>
      <trkpt lat="46.02179" lon="6.61253">
        <ele>517.8</ele>
        <time>2020-08-16T15:21:28Z</time>
      </trkpt>
      <trkpt lat="46.02176" lon="6.61256">
        <ele>517.8</ele>
        <time>2020-08-16T15:21:29Z</time>
      </trkpt>
      <trkpt lat="46.02173" lon="6.61259">
        <ele>518</ele>
        <time>2020-08-16T15:21:30Z</time>
      </trkpt>
      <trkpt lat="46.0217" lon="6.61262">
        <ele>518</ele>
        <time>2020-08-16T15:21:31Z</time>
      </trkpt>
      <trkpt lat="46.02166" lon="6.61266">
        <ele>518.2</ele>
        <time>2020-08-16T15:21:32Z</time>
      </trkpt>
      <trkpt lat="46.02163" lon="6.6127">
        <ele>518.2</ele>
        <time>2020-08-16T15:21:33Z</time>
      </trkpt>
      <trkpt lat="46.02159" lon="6.61274">
        <ele>518.4</ele>
        <time>2020-08-16T15:21:34Z</time>
      </trkpt>
      <trkpt lat="46.02155" lon="6.61278">
        <ele>518.4</ele>
        <time>2020-08-16T15:21:35Z</time>
      </trkpt>
      <trkpt lat="46.02151" lon="6.61282">
        <ele>518.4</ele>
        <time>2020-08-16T15:21:36Z</time>
      </trkpt>
      <trkpt lat="46.02148" lon="6.61285">
        <ele>518.4</ele>
        <time>2020-08-16T15:21:37Z</time>
      </trkpt>
      <trkpt lat="46.02145" lon="6.61287">
        <ele>518.4</ele>
        <time>2020-08-16T15:21:38Z</time>
      </trkpt>
      <trkpt lat="46.02142" lon="6.6129">
        <ele>518.2</ele>
        <time>2020-08-16T15:21:39Z</time>
      </trkpt>
      <trkpt lat="46.02138" lon="6.61293">
        <ele>518.2</ele>
        <time>2020-08-16T15:21:40Z</time>
      </trkpt>
      <trkpt lat="46.02134" lon="6.61298">
        <ele>518</ele>
        <time>2020-08-16T15:21:41Z</time>
      </trkpt>
      <trkpt lat="46.02129" lon="6.61302">
        <ele>518</ele>
        <time>2020-08-16T15:21:42Z</time>
      </trkpt>
      <trkpt lat="46.02124" lon="6.61308">
        <ele>517.8</ele>
        <time>2020-08-16T15:21:43Z</time>
      </trkpt>
      <trkpt lat="46.02119" lon="6.61313">
        <ele>517.8</ele>
        <time>2020-08-16T15:21:44Z</time>
      </trkpt>
      <trkpt lat="46.02113" lon="6.61317">
        <ele>517.8</ele>
        <time>2020-08-16T15:21:45Z</time>
      </trkpt>
      <trkpt lat="46.02107" lon="6.61322">
        <ele>517.6</ele>
        <time>2020-08-16T15:21:46Z</time>
      </trkpt>
      <trkpt lat="46.02101" lon="6.61326">
        <ele>517.4</ele>
        <time>2020-08-16T15:21:47Z</time>
      </trkpt>
      <trkpt lat="46.02095" lon="6.6133">
        <ele>517.4</ele>
        <time>2020-08-16T15:21:48Z</time>
      </trkpt>
      <trkpt lat="46.02089" lon="6.61334">
        <ele>517.4</ele>
        <time>2020-08-16T15:21:49Z</time>
      </trkpt>
      <trkpt lat="46.02084" lon="6.61338">
        <ele>517.2</ele>
        <time>2020-08-16T15:21:50Z</time>
      </trkpt>
      <trkpt lat="46.02079" lon="6.61344">
        <ele>517.2</ele>
        <time>2020-08-16T15:21:51Z</time>
      </trkpt>
      <trkpt lat="46.02075" lon="6.61349">
        <ele>517.2</ele>
        <time>2020-08-16T15:21:52Z</time>
      </trkpt>
      <trkpt lat="46.02071" lon="6.61356">
        <ele>517.2</ele>
        <time>2020-08-16T15:21:53Z</time>
      </trkpt>
      <trkpt lat="46.02068" lon="6.61364">
        <ele>517.2</ele>
        <time>2020-08-16T15:21:54Z</time>
      </trkpt>
      <trkpt lat="46.02064" lon="6.61371">
        <ele>517.4</ele>
        <time>2020-08-16T15:21:55Z</time>
      </trkpt>
      <trkpt lat="46.0206" lon="6.61377">
        <ele>517.4</ele>
        <time>2020-08-16T15:21:56Z</time>
      </trkpt>
      <trkpt lat="46.02055" lon="6.61383">
        <ele>517.4</ele>
        <time>2020-08-16T15:21:57Z</time>
      </trkpt>
      <trkpt lat="46.0205" lon="6.61388">
        <ele>517.2</ele>
        <time>2020-08-16T15:21:58Z</time>
      </trkpt>
      <trkpt lat="46.02045" lon="6.61392">
        <ele>517.2</ele>
        <time>2020-08-16T15:21:59Z</time>
      </trkpt>
      <trkpt lat="46.02039" lon="6.61396">
        <ele>517.2</ele>
        <time>2020-08-16T15:22:00Z</time>
      </trkpt>
      <trkpt lat="46.02033" lon="6.61399">
        <ele>517.2</ele>
        <time>2020-08-16T15:22:01Z</time>
      </trkpt>
      <trkpt lat="46.02028" lon="6.61403">
        <ele>517.2</ele>
        <time>2020-08-16T15:22:02Z</time>
      </trkpt>
      <trkpt lat="46.02022" lon="6.61405">
        <ele>517.2</ele>
        <time>2020-08-16T15:22:03Z</time>
      </trkpt>
      <trkpt lat="46.02017" lon="6.61408">
        <ele>517.2</ele>
        <time>2020-08-16T15:22:04Z</time>
      </trkpt>
      <trkpt lat="46.02011" lon="6.6141">
        <ele>517.2</ele>
        <time>2020-08-16T15:22:05Z</time>
      </trkpt>
      <trkpt lat="46.02005" lon="6.61411">
        <ele>517.4</ele>
        <time>2020-08-16T15:22:06Z</time>
      </trkpt>
      <trkpt lat="46.01999" lon="6.61411">
        <ele>517.4</ele>
        <time>2020-08-16T15:22:07Z</time>
      </trkpt>
      <trkpt lat="46.01993" lon="6.6141">
        <ele>517.4</ele>
        <time>2020-08-16T15:22:08Z</time>
      </trkpt>
      <trkpt lat="46.01988" lon="6.61409">
        <ele>517.4</ele>
        <time>2020-08-16T15:22:09Z</time>
      </trkpt>
      <trkpt lat="46.01982" lon="6.61406">
        <ele>517.4</ele>
        <time>2020-08-16T15:22:10Z</time>
      </trkpt>
      <trkpt lat="46.01977" lon="6.61403">
        <ele>517.4</ele>
        <time>2020-08-16T15:22:11Z</time>
      </trkpt>
      <trkpt lat="46.01972" lon="6.614">
        <ele>517.6</ele>
        <time>2020-08-16T15:22:12Z</time>
      </trkpt>
      <trkpt lat="46.01967" lon="6.61397">
        <ele>517.8</ele>
        <time>2020-08-16T15:22:13Z</time>
      </trkpt>
      <trkpt lat="46.01962" lon="6.61393">
        <ele>518</ele>
        <time>2020-08-16T15:22:14Z</time>
      </trkpt>
      <trkpt lat="46.01958" lon="6.6139">
        <ele>518</ele>
        <time>2020-08-16T15:22:15Z</time>
      </trkpt>
      <trkpt lat="46.01954" lon="6.61387">
        <ele>518.4</ele>
        <time>2020-08-16T15:22:16Z</time>
      </trkpt>
      <trkpt lat="46.0195" lon="6.61385">
        <ele>518.6</ele>
        <time>2020-08-16T15:22:17Z</time>
      </trkpt>
      <trkpt lat="46.01946" lon="6.61383">
        <ele>518.8</ele>
        <time>2020-08-16T15:22:18Z</time>
      </trkpt>
      <trkpt lat="46.01943" lon="6.61382">
        <ele>519</ele>
        <time>2020-08-16T15:22:19Z</time>
      </trkpt>
      <trkpt lat="46.01939" lon="6.61381">
        <ele>519.2</ele>
        <time>2020-08-16T15:22:20Z</time>
      </trkpt>
      <trkpt lat="46.01936" lon="6.6138">
        <ele>519.4</ele>
        <time>2020-08-16T15:22:21Z</time>
      </trkpt>
      <trkpt lat="46.01932" lon="6.6138">
        <ele>519.6</ele>
        <time>2020-08-16T15:22:22Z</time>
      </trkpt>
      <trkpt lat="46.01929" lon="6.6138">
        <ele>519.8</ele>
        <time>2020-08-16T15:22:23Z</time>
      </trkpt>
      <trkpt lat="46.01926" lon="6.6138">
        <ele>520</ele>
        <time>2020-08-16T15:22:24Z</time>
      </trkpt>
      <trkpt lat="46.01922" lon="6.61381">
        <ele>520.2</ele>
        <time>2020-08-16T15:22:25Z</time>
      </trkpt>
      <trkpt lat="46.0192" lon="6.61381">
        <ele>520.4</ele>
        <time>2020-08-16T15:22:26Z</time>
      </trkpt>
      <trkpt lat="46.01917" lon="6.61381">
        <ele>520.6</ele>
        <time>2020-08-16T15:22:27Z</time>
      </trkpt>
      <trkpt lat="46.01914" lon="6.6138">
        <ele>520.8</ele>
        <time>2020-08-16T15:22:28Z</time>
      </trkpt>
      <trkpt lat="46.01911" lon="6.6138">
        <ele>520.6</ele>
        <time>2020-08-16T15:22:29Z</time>
      </trkpt>
      <trkpt lat="46.01908" lon="6.61379">
        <ele>520.4</ele>
        <time>2020-08-16T15:22:30Z</time>
      </trkpt>
      <trkpt lat="46.01904" lon="6.61379">
        <ele>520.2</ele>
        <time>2020-08-16T15:22:31Z</time>
      </trkpt>
      <trkpt lat="46.019" lon="6.6138">
        <ele>520</ele>
        <time>2020-08-16T15:22:32Z</time>
      </trkpt>
      <trkpt lat="46.01895" lon="6.61381">
        <ele>519.6</ele>
        <time>2020-08-16T15:22:33Z</time>
      </trkpt>
      <trkpt lat="46.0189" lon="6.61382">
        <ele>519.4</ele>
        <time>2020-08-16T15:22:34Z</time>
      </trkpt>
      <trkpt lat="46.01885" lon="6.61384">
        <ele>519</ele>
        <time>2020-08-16T15:22:35Z</time>
      </trkpt>
      <trkpt lat="46.01879" lon="6.61385">
        <ele>518.6</ele>
        <time>2020-08-16T15:22:36Z</time>
      </trkpt>
      <trkpt lat="46.01873" lon="6.61386">
        <ele>518.4</ele>
        <time>2020-08-16T15:22:37Z</time>
      </trkpt>
      <trkpt lat="46.01866" lon="6.61387">
        <ele>518.2</ele>
        <time>2020-08-16T15:22:38Z</time>
      </trkpt>
      <trkpt lat="46.0186" lon="6.61387">
        <ele>518</ele>
        <time>2020-08-16T15:22:39Z</time>
      </trkpt>
      <trkpt lat="46.01854" lon="6.61387">
        <ele>517.8</ele>
        <time>2020-08-16T15:22:40Z</time>
      </trkpt>
      <trkpt lat="46.01847" lon="6.61386">
        <ele>517.8</ele>
        <time>2020-08-16T15:22:41Z</time>
      </trkpt>
      <trkpt lat="46.01841" lon="6.61385">
        <ele>517.8</ele>
        <time>2020-08-16T15:22:42Z</time>
      </trkpt>
      <trkpt lat="46.01836" lon="6.61382">
        <ele>517.8</ele>
        <time>2020-08-16T15:22:43Z</time>
      </trkpt>
      <trkpt lat="46.0183" lon="6.6138">
        <ele>517.6</ele>
        <time>2020-08-16T15:22:44Z</time>
      </trkpt>
      <trkpt lat="46.01824" lon="6.61379">
        <ele>517.4</ele>
        <time>2020-08-16T15:22:45Z</time>
      </trkpt>
      <trkpt lat="46.01819" lon="6.61377">
        <ele>517.4</ele>
        <time>2020-08-16T15:22:46Z</time>
      </trkpt>
      <trkpt lat="46.01813" lon="6.61376">
        <ele>517.4</ele>
        <time>2020-08-16T15:22:47Z</time>
      </trkpt>
      <trkpt lat="46.01808" lon="6.61375">
        <ele>517.4</ele>
        <time>2020-08-16T15:22:48Z</time>
      </trkpt>
      <trkpt lat="46.01803" lon="6.61374">
        <ele>517.4</ele>
        <time>2020-08-16T15:22:49Z</time>
      </trkpt>
      <trkpt lat="46.01798" lon="6.61374">
        <ele>517.4</ele>
        <time>2020-08-16T15:22:50Z</time>
      </trkpt>
      <trkpt lat="46.01793" lon="6.61373">
        <ele>517.4</ele>
        <time>2020-08-16T15:22:51Z</time>
      </trkpt>
      <trkpt lat="46.01789" lon="6.61372">
        <ele>517.4</ele>
        <time>2020-08-16T15:22:52Z</time>
      </trkpt>
      <trkpt lat="46.01784" lon="6.61371">
        <ele>517.4</ele>
        <time>2020-08-16T15:22:53Z</time>
      </trkpt>
      <trkpt lat="46.0178" lon="6.6137">
        <ele>517.4</ele>
        <time>2020-08-16T15:22:54Z</time>
      </trkpt>
      <trkpt lat="46.01776" lon="6.61369">
        <ele>517.4</ele>
        <time>2020-08-16T15:22:55Z</time>
      </trkpt>
      <trkpt lat="46.01772" lon="6.61368">
        <ele>517.4</ele>
        <time>2020-08-16T15:22:56Z</time>
      </trkpt>
      <trkpt lat="46.01767" lon="6.61366">
        <ele>517.6</ele>
        <time>2020-08-16T15:22:57Z</time>
      </trkpt>
      <trkpt lat="46.01763" lon="6.61365">
        <ele>517.6</ele>
        <time>2020-08-16T15:22:58Z</time>
      </trkpt>
      <trkpt lat="46.01758" lon="6.61364">
        <ele>517.6</ele>
        <time>2020-08-16T15:22:59Z</time>
      </trkpt>
      <trkpt lat="46.01754" lon="6.61363">
        <ele>517.6</ele>
        <time>2020-08-16T15:23:00Z</time>
      </trkpt>
      <trkpt lat="46.01749" lon="6.61362">
        <ele>517.6</ele>
        <time>2020-08-16T15:23:01Z</time>
      </trkpt>
      <trkpt lat="46.01745" lon="6.61361">
        <ele>517.4</ele>
        <time>2020-08-16T15:23:02Z</time>
      </trkpt>
      <trkpt lat="46.0174" lon="6.6136">
        <ele>517.4</ele>
        <time>2020-08-16T15:23:03Z</time>
      </trkpt>
      <trkpt lat="46.01735" lon="6.6136">
        <ele>517.6</ele>
        <time>2020-08-16T15:23:04Z</time>
      </trkpt>
      <trkpt lat="46.01731" lon="6.61358">
        <ele>517.8</ele>
        <time>2020-08-16T15:23:05Z</time>
      </trkpt>
      <trkpt lat="46.01726" lon="6.61357">
        <ele>517.8</ele>
        <time>2020-08-16T15:23:06Z</time>
      </trkpt>
      <trkpt lat="46.01722" lon="6.61356">
        <ele>517.8</ele>
        <time>2020-08-16T15:23:07Z</time>
      </trkpt>
      <trkpt lat="46.01717" lon="6.61354">
        <ele>517.8</ele>
        <time>2020-08-16T15:23:08Z</time>
      </trkpt>
      <trkpt lat="46.01713" lon="6.61353">
        <ele>517.8</ele>
        <time>2020-08-16T15:23:09Z</time>
      </trkpt>
      <trkpt lat="46.01708" lon="6.61352">
        <ele>517.8</ele>
        <time>2020-08-16T15:23:10Z</time>
      </trkpt>
      <trkpt lat="46.01704" lon="6.61352">
        <ele>517.8</ele>
        <time>2020-08-16T15:23:11Z</time>
      </trkpt>
      <trkpt lat="46.01699" lon="6.61351">
        <ele>517.6</ele>
        <time>2020-08-16T15:23:12Z</time>
      </trkpt>
      <trkpt lat="46.01695" lon="6.6135">
        <ele>517.6</ele>
        <time>2020-08-16T15:23:13Z</time>
      </trkpt>
      <trkpt lat="46.0169" lon="6.61349">
        <ele>517.6</ele>
        <time>2020-08-16T15:23:14Z</time>
      </trkpt>
      <trkpt lat="46.01686" lon="6.61347">
        <ele>517.6</ele>
        <time>2020-08-16T15:23:15Z</time>
      </trkpt>
      <trkpt lat="46.01681" lon="6.61346">
        <ele>517.6</ele>
        <time>2020-08-16T15:23:16Z</time>
      </trkpt>
      <trkpt lat="46.01677" lon="6.61343">
        <ele>517.8</ele>
        <time>2020-08-16T15:23:17Z</time>
      </trkpt>
      <trkpt lat="46.01673" lon="6.61341">
        <ele>518</ele>
        <time>2020-08-16T15:23:18Z</time>
      </trkpt>
      <trkpt lat="46.01669" lon="6.61338">
        <ele>518.2</ele>
        <time>2020-08-16T15:23:19Z</time>
      </trkpt>
      <trkpt lat="46.01665" lon="6.61335">
        <ele>518.4</ele>
        <time>2020-08-16T15:23:20Z</time>
      </trkpt>
      <trkpt lat="46.01662" lon="6.61333">
        <ele>518.6</ele>
        <time>2020-08-16T15:23:21Z</time>
      </trkpt>
      <trkpt lat="46.01658" lon="6.6133">
        <ele>518.8</ele>
        <time>2020-08-16T15:23:22Z</time>
      </trkpt>
      <trkpt lat="46.01655" lon="6.61328">
        <ele>519</ele>
        <time>2020-08-16T15:23:23Z</time>
      </trkpt>
      <trkpt lat="46.01652" lon="6.61325">
        <ele>519.2</ele>
        <time>2020-08-16T15:23:24Z</time>
      </trkpt>
      <trkpt lat="46.01649" lon="6.61323">
        <ele>519.4</ele>
        <time>2020-08-16T15:23:25Z</time>
      </trkpt>
      <trkpt lat="46.01646" lon="6.61321">
        <ele>519.6</ele>
        <time>2020-08-16T15:23:26Z</time>
      </trkpt>
      <trkpt lat="46.01643" lon="6.61321">
        <ele>520</ele>
        <time>2020-08-16T15:23:27Z</time>
      </trkpt>
      <trkpt lat="46.0164" lon="6.61322">
        <ele>520.2</ele>
        <time>2020-08-16T15:23:28Z</time>
      </trkpt>
      <trkpt lat="46.01638" lon="6.61323">
        <ele>520.4</ele>
        <time>2020-08-16T15:23:29Z</time>
      </trkpt>
      <trkpt lat="46.01636" lon="6.61326">
        <ele>520.6</ele>
        <time>2020-08-16T15:23:30Z</time>
      </trkpt>
      <trkpt lat="46.01634" lon="6.61329">
        <ele>520.8</ele>
        <time>2020-08-16T15:23:31Z</time>
      </trkpt>
      <trkpt lat="46.01632" lon="6.61331">
        <ele>520.8</ele>
        <time>2020-08-16T15:23:32Z</time>
      </trkpt>
      <trkpt lat="46.0163" lon="6.61334">
        <ele>520.8</ele>
        <time>2020-08-16T15:23:33Z</time>
      </trkpt>
      <trkpt lat="46.01628" lon="6.61337">
        <ele>520.8</ele>
        <time>2020-08-16T15:23:34Z</time>
      </trkpt>
      <trkpt lat="46.01625" lon="6.61341">
        <ele>520.8</ele>
        <time>2020-08-16T15:23:35Z</time>
      </trkpt>
      <trkpt lat="46.01623" lon="6.61345">
        <ele>520.8</ele>
        <time>2020-08-16T15:23:36Z</time>
      </trkpt>
      <trkpt lat="46.0162" lon="6.61349">
        <ele>520.6</ele>
        <time>2020-08-16T15:23:37Z</time>
      </trkpt>
      <trkpt lat="46.01616" lon="6.61353">
        <ele>520.6</ele>
        <time>2020-08-16T15:23:38Z</time>
      </trkpt>
      <trkpt lat="46.01613" lon="6.61356">
        <ele>520.6</ele>
        <time>2020-08-16T15:23:39Z</time>
      </trkpt>
      <trkpt lat="46.0161" lon="6.6136">
        <ele>520.8</ele>
        <time>2020-08-16T15:23:40Z</time>
      </trkpt>
      <trkpt lat="46.01607" lon="6.61364">
        <ele>520.8</ele>
        <time>2020-08-16T15:23:41Z</time>
      </trkpt>
      <trkpt lat="46.01604" lon="6.61368">
        <ele>520.8</ele>
        <time>2020-08-16T15:23:42Z</time>
      </trkpt>
      <trkpt lat="46.016" lon="6.61372">
        <ele>520.8</ele>
        <time>2020-08-16T15:23:43Z</time>
      </trkpt>
      <trkpt lat="46.01597" lon="6.61376">
        <ele>520.6</ele>
        <time>2020-08-16T15:23:44Z</time>
      </trkpt>
      <trkpt lat="46.01594" lon="6.61379">
        <ele>520.6</ele>
        <time>2020-08-16T15:23:45Z</time>
      </trkpt>
      <trkpt lat="46.01591" lon="6.61383">
        <ele>520.4</ele>
        <time>2020-08-16T15:23:46Z</time>
      </trkpt>
      <trkpt lat="46.01588" lon="6.61386">
        <ele>520.4</ele>
        <time>2020-08-16T15:23:47Z</time>
      </trkpt>
      <trkpt lat="46.01584" lon="6.61389">
        <ele>520.4</ele>
        <time>2020-08-16T15:23:48Z</time>
      </trkpt>
      <trkpt lat="46.0158" lon="6.61392">
        <ele>520.2</ele>
        <time>2020-08-16T15:23:49Z</time>
      </trkpt>
      <trkpt lat="46.01577" lon="6.61396">
        <ele>520.2</ele>
        <time>2020-08-16T15:23:50Z</time>
      </trkpt>
      <trkpt lat="46.01573" lon="6.61399">
        <ele>520.2</ele>
        <time>2020-08-16T15:23:51Z</time>
      </trkpt>
      <trkpt lat="46.01569" lon="6.61402">
        <ele>520.2</ele>
        <time>2020-08-16T15:23:52Z</time>
      </trkpt>
      <trkpt lat="46.01565" lon="6.61404">
        <ele>520.2</ele>
        <time>2020-08-16T15:23:53Z</time>
      </trkpt>
      <trkpt lat="46.01562" lon="6.61408">
        <ele>520.2</ele>
        <time>2020-08-16T15:23:54Z</time>
      </trkpt>
      <trkpt lat="46.01558" lon="6.61412">
        <ele>520.2</ele>
        <time>2020-08-16T15:23:55Z</time>
      </trkpt>
      <trkpt lat="46.01554" lon="6.61417">
        <ele>520.2</ele>
        <time>2020-08-16T15:23:56Z</time>
      </trkpt>
      <trkpt lat="46.0155" lon="6.61423">
        <ele>520.4</ele>
        <time>2020-08-16T15:23:57Z</time>
      </trkpt>
      <trkpt lat="46.01548" lon="6.61429">
        <ele>520.4</ele>
        <time>2020-08-16T15:23:58Z</time>
      </trkpt>
      <trkpt lat="46.01546" lon="6.61436">
        <ele>520.6</ele>
        <time>2020-08-16T15:23:59Z</time>
      </trkpt>
      <trkpt lat="46.01546" lon="6.61444">
        <ele>520.8</ele>
        <time>2020-08-16T15:24:00Z</time>
      </trkpt>
      <trkpt lat="46.01546" lon="6.61452">
        <ele>521</ele>
        <time>2020-08-16T15:24:01Z</time>
      </trkpt>
      <trkpt lat="46.01547" lon="6.61459">
        <ele>521</ele>
        <time>2020-08-16T15:24:02Z</time>
      </trkpt>
      <trkpt lat="46.01547" lon="6.61466">
        <ele>521</ele>
        <time>2020-08-16T15:24:03Z</time>
      </trkpt>
      <trkpt lat="46.01549" lon="6.61472">
        <ele>521</ele>
        <time>2020-08-16T15:24:04Z</time>
      </trkpt>
      <trkpt lat="46.01549" lon="6.61478">
        <ele>521</ele>
        <time>2020-08-16T15:24:05Z</time>
      </trkpt>
      <trkpt lat="46.0155" lon="6.61484">
        <ele>521.2</ele>
        <time>2020-08-16T15:24:06Z</time>
      </trkpt>
      <trkpt lat="46.01551" lon="6.61489">
        <ele>521.4</ele>
        <time>2020-08-16T15:24:07Z</time>
      </trkpt>
      <trkpt lat="46.01552" lon="6.61494">
        <ele>521.4</ele>
        <time>2020-08-16T15:24:08Z</time>
      </trkpt>
      <trkpt lat="46.01553" lon="6.61499">
        <ele>521.4</ele>
        <time>2020-08-16T15:24:09Z</time>
      </trkpt>
      <trkpt lat="46.01554" lon="6.61505">
        <ele>521.2</ele>
        <time>2020-08-16T15:24:10Z</time>
      </trkpt>
      <trkpt lat="46.01555" lon="6.61511">
        <ele>521</ele>
        <time>2020-08-16T15:24:11Z</time>
      </trkpt>
      <trkpt lat="46.01557" lon="6.61517">
        <ele>521.2</ele>
        <time>2020-08-16T15:24:12Z</time>
      </trkpt>
      <trkpt lat="46.01558" lon="6.61523">
        <ele>521</ele>
        <time>2020-08-16T15:24:13Z</time>
      </trkpt>
      <trkpt lat="46.01559" lon="6.61529">
        <ele>520.8</ele>
        <time>2020-08-16T15:24:14Z</time>
      </trkpt>
      <trkpt lat="46.0156" lon="6.61536">
        <ele>520.6</ele>
        <time>2020-08-16T15:24:15Z</time>
      </trkpt>
      <trkpt lat="46.01561" lon="6.61543">
        <ele>520.4</ele>
        <time>2020-08-16T15:24:16Z</time>
      </trkpt>
      <trkpt lat="46.01562" lon="6.6155">
        <ele>520.2</ele>
        <time>2020-08-16T15:24:17Z</time>
      </trkpt>
      <trkpt lat="46.01563" lon="6.61558">
        <ele>520</ele>
        <time>2020-08-16T15:24:18Z</time>
      </trkpt>
      <trkpt lat="46.01565" lon="6.61565">
        <ele>519.6</ele>
        <time>2020-08-16T15:24:19Z</time>
      </trkpt>
      <trkpt lat="46.01567" lon="6.61573">
        <ele>519.2</ele>
        <time>2020-08-16T15:24:20Z</time>
      </trkpt>
      <trkpt lat="46.0157" lon="6.6158">
        <ele>519</ele>
        <time>2020-08-16T15:24:21Z</time>
      </trkpt>
      <trkpt lat="46.01573" lon="6.61588">
        <ele>518.8</ele>
        <time>2020-08-16T15:24:22Z</time>
      </trkpt>
      <trkpt lat="46.01577" lon="6.61595">
        <ele>518.6</ele>
        <time>2020-08-16T15:24:23Z</time>
      </trkpt>
      <trkpt lat="46.01582" lon="6.61601">
        <ele>518.4</ele>
        <time>2020-08-16T15:24:24Z</time>
      </trkpt>
      <trkpt lat="46.01586" lon="6.61608">
        <ele>518.2</ele>
        <time>2020-08-16T15:24:25Z</time>
      </trkpt>
      <trkpt lat="46.0159" lon="6.61614">
        <ele>518</ele>
        <time>2020-08-16T15:24:26Z</time>
      </trkpt>
      <trkpt lat="46.01594" lon="6.61621">
        <ele>517.8</ele>
        <time>2020-08-16T15:24:27Z</time>
      </trkpt>
      <trkpt lat="46.01599" lon="6.61628">
        <ele>517.6</ele>
        <time>2020-08-16T15:24:28Z</time>
      </trkpt>
      <trkpt lat="46.01604" lon="6.61634">
        <ele>517.6</ele>
        <time>2020-08-16T15:24:29Z</time>
      </trkpt>
      <trkpt lat="46.01608" lon="6.61641">
        <ele>517.6</ele>
        <time>2020-08-16T15:24:30Z</time>
      </trkpt>
      <trkpt lat="46.01612" lon="6.61647">
        <ele>517.4</ele>
        <time>2020-08-16T15:24:31Z</time>
      </trkpt>
      <trkpt lat="46.01616" lon="6.61653">
        <ele>517.4</ele>
        <time>2020-08-16T15:24:32Z</time>
      </trkpt>
      <trkpt lat="46.0162" lon="6.61659">
        <ele>517.4</ele>
        <time>2020-08-16T15:24:33Z</time>
      </trkpt>
      <trkpt lat="46.01624" lon="6.61665">
        <ele>517.4</ele>
        <time>2020-08-16T15:24:34Z</time>
      </trkpt>
      <trkpt lat="46.01628" lon="6.61671">
        <ele>517.4</ele>
        <time>2020-08-16T15:24:35Z</time>
      </trkpt>
      <trkpt lat="46.01632" lon="6.61676">
        <ele>517.4</ele>
        <time>2020-08-16T15:24:36Z</time>
      </trkpt>
      <trkpt lat="46.01636" lon="6.61682">
        <ele>517.2</ele>
        <time>2020-08-16T15:24:37Z</time>
      </trkpt>
      <trkpt lat="46.0164" lon="6.61688">
        <ele>517.2</ele>
        <time>2020-08-16T15:24:38Z</time>
      </trkpt>
      <trkpt lat="46.01644" lon="6.61694">
        <ele>517.2</ele>
        <time>2020-08-16T15:24:39Z</time>
      </trkpt>
      <trkpt lat="46.01647" lon="6.617">
        <ele>517.2</ele>
        <time>2020-08-16T15:24:40Z</time>
      </trkpt>
      <trkpt lat="46.01651" lon="6.61706">
        <ele>517.2</ele>
        <time>2020-08-16T15:24:41Z</time>
      </trkpt>
      <trkpt lat="46.01655" lon="6.61711">
        <ele>517.2</ele>
        <time>2020-08-16T15:24:42Z</time>
      </trkpt>
      <trkpt lat="46.01659" lon="6.61717">
        <ele>517.2</ele>
        <time>2020-08-16T15:24:43Z</time>
      </trkpt>
      <trkpt lat="46.01663" lon="6.61723">
        <ele>517.2</ele>
        <time>2020-08-16T15:24:44Z</time>
      </trkpt>
      <trkpt lat="46.01666" lon="6.61728">
        <ele>517.2</ele>
        <time>2020-08-16T15:24:45Z</time>
      </trkpt>
      <trkpt lat="46.0167" lon="6.61734">
        <ele>517</ele>
        <time>2020-08-16T15:24:46Z</time>
      </trkpt>
      <trkpt lat="46.01673" lon="6.61739">
        <ele>517</ele>
        <time>2020-08-16T15:24:47Z</time>
      </trkpt>
      <trkpt lat="46.01677" lon="6.61745">
        <ele>517</ele>
        <time>2020-08-16T15:24:48Z</time>
      </trkpt>
      <trkpt lat="46.01681" lon="6.6175">
        <ele>517</ele>
        <time>2020-08-16T15:24:49Z</time>
      </trkpt>
      <trkpt lat="46.01685" lon="6.61756">
        <ele>517</ele>
        <time>2020-08-16T15:24:50Z</time>
      </trkpt>
      <trkpt lat="46.01688" lon="6.61762">
        <ele>517</ele>
        <time>2020-08-16T15:24:51Z</time>
      </trkpt>
      <trkpt lat="46.01692" lon="6.61767">
        <ele>517</ele>
        <time>2020-08-16T15:24:52Z</time>
      </trkpt>
      <trkpt lat="46.01696" lon="6.61773">
        <ele>517</ele>
        <time>2020-08-16T15:24:53Z</time>
      </trkpt>
      <trkpt lat="46.017" lon="6.61778">
        <ele>517</ele>
        <time>2020-08-16T15:24:54Z</time>
      </trkpt>
      <trkpt lat="46.01703" lon="6.61784">
        <ele>516.8</ele>
        <time>2020-08-16T15:24:55Z</time>
      </trkpt>
      <trkpt lat="46.01707" lon="6.61789">
        <ele>516.8</ele>
        <time>2020-08-16T15:24:56Z</time>
      </trkpt>
      <trkpt lat="46.01711" lon="6.61795">
        <ele>516.8</ele>
        <time>2020-08-16T15:24:57Z</time>
      </trkpt>
      <trkpt lat="46.01714" lon="6.618">
        <ele>516.8</ele>
        <time>2020-08-16T15:24:58Z</time>
      </trkpt>
      <trkpt lat="46.01718" lon="6.61806">
        <ele>516.8</ele>
        <time>2020-08-16T15:24:59Z</time>
      </trkpt>
      <trkpt lat="46.01721" lon="6.61811">
        <ele>516.8</ele>
        <time>2020-08-16T15:25:00Z</time>
      </trkpt>
      <trkpt lat="46.01724" lon="6.61816">
        <ele>516.8</ele>
        <time>2020-08-16T15:25:01Z</time>
      </trkpt>
      <trkpt lat="46.01728" lon="6.61822">
        <ele>516.8</ele>
        <time>2020-08-16T15:25:02Z</time>
      </trkpt>
      <trkpt lat="46.01729" lon="6.61828">
        <ele>516.8</ele>
        <time>2020-08-16T15:25:03Z</time>
      </trkpt>
      <trkpt lat="46.01729" lon="6.61835">
        <ele>517</ele>
        <time>2020-08-16T15:25:04Z</time>
      </trkpt>
      <trkpt lat="46.01727" lon="6.61841">
        <ele>517</ele>
        <time>2020-08-16T15:25:05Z</time>
      </trkpt>
      <trkpt lat="46.01724" lon="6.61845">
        <ele>517</ele>
        <time>2020-08-16T15:25:06Z</time>
      </trkpt>
      <trkpt lat="46.01721" lon="6.61849">
        <ele>517</ele>
        <time>2020-08-16T15:25:07Z</time>
      </trkpt>
      <trkpt lat="46.01717" lon="6.61853">
        <ele>517.2</ele>
        <time>2020-08-16T15:25:08Z</time>
      </trkpt>
      <trkpt lat="46.01712" lon="6.61856">
        <ele>517.2</ele>
        <time>2020-08-16T15:25:09Z</time>
      </trkpt>
      <trkpt lat="46.01707" lon="6.61858">
        <ele>517.2</ele>
        <time>2020-08-16T15:25:10Z</time>
      </trkpt>
      <trkpt lat="46.01703" lon="6.61861">
        <ele>517.2</ele>
        <time>2020-08-16T15:25:11Z</time>
      </trkpt>
      <trkpt lat="46.01699" lon="6.61864">
        <ele>517.2</ele>
        <time>2020-08-16T15:25:12Z</time>
      </trkpt>
      <trkpt lat="46.01694" lon="6.61867">
        <ele>517.2</ele>
        <time>2020-08-16T15:25:13Z</time>
      </trkpt>
      <trkpt lat="46.01689" lon="6.61869">
        <ele>517.4</ele>
        <time>2020-08-16T15:25:14Z</time>
      </trkpt>
      <trkpt lat="46.01685" lon="6.61872">
        <ele>517.2</ele>
        <time>2020-08-16T15:25:15Z</time>
      </trkpt>
      <trkpt lat="46.0168" lon="6.61875">
        <ele>517.2</ele>
        <time>2020-08-16T15:25:16Z</time>
      </trkpt>
      <trkpt lat="46.01675" lon="6.61878">
        <ele>517.2</ele>
        <time>2020-08-16T15:25:17Z</time>
      </trkpt>
      <trkpt lat="46.01671" lon="6.61881">
        <ele>517.2</ele>
        <time>2020-08-16T15:25:18Z</time>
      </trkpt>
      <trkpt lat="46.01666" lon="6.61884">
        <ele>517.2</ele>
        <time>2020-08-16T15:25:19Z</time>
      </trkpt>
      <trkpt lat="46.01662" lon="6.61888">
        <ele>517.2</ele>
        <time>2020-08-16T15:25:20Z</time>
      </trkpt>
      <trkpt lat="46.01657" lon="6.6189">
        <ele>517.2</ele>
        <time>2020-08-16T15:25:21Z</time>
      </trkpt>
      <trkpt lat="46.01653" lon="6.61893">
        <ele>517.2</ele>
        <time>2020-08-16T15:25:22Z</time>
      </trkpt>
      <trkpt lat="46.01648" lon="6.61896">
        <ele>517.2</ele>
        <time>2020-08-16T15:25:23Z</time>
      </trkpt>
      <trkpt lat="46.01644" lon="6.61899">
        <ele>517</ele>
        <time>2020-08-16T15:25:24Z</time>
      </trkpt>
      <trkpt lat="46.01639" lon="6.61903">
        <ele>516.8</ele>
        <time>2020-08-16T15:25:25Z</time>
      </trkpt>
      <trkpt lat="46.01634" lon="6.61906">
        <ele>517</ele>
        <time>2020-08-16T15:25:26Z</time>
      </trkpt>
      <trkpt lat="46.01629" lon="6.61909">
        <ele>516.8</ele>
        <time>2020-08-16T15:25:27Z</time>
      </trkpt>
      <trkpt lat="46.01624" lon="6.61913">
        <ele>516.8</ele>
        <time>2020-08-16T15:25:28Z</time>
      </trkpt>
      <trkpt lat="46.01619" lon="6.61916">
        <ele>516.8</ele>
        <time>2020-08-16T15:25:29Z</time>
      </trkpt>
      <trkpt lat="46.01614" lon="6.61919">
        <ele>516.8</ele>
        <time>2020-08-16T15:25:30Z</time>
      </trkpt>
      <trkpt lat="46.01609" lon="6.61922">
        <ele>517</ele>
        <time>2020-08-16T15:25:31Z</time>
      </trkpt>
      <trkpt lat="46.01603" lon="6.61925">
        <ele>517</ele>
        <time>2020-08-16T15:25:32Z</time>
      </trkpt>
      <trkpt lat="46.01599" lon="6.61929">
        <ele>517</ele>
        <time>2020-08-16T15:25:33Z</time>
      </trkpt>
      <trkpt lat="46.01594" lon="6.61932">
        <ele>517</ele>
        <time>2020-08-16T15:25:34Z</time>
      </trkpt>
      <trkpt lat="46.01589" lon="6.61935">
        <ele>516.8</ele>
        <time>2020-08-16T15:25:35Z</time>
      </trkpt>
      <trkpt lat="46.01584" lon="6.61938">
        <ele>516.8</ele>
        <time>2020-08-16T15:25:36Z</time>
      </trkpt>
      <trkpt lat="46.01579" lon="6.61942">
        <ele>516.8</ele>
        <time>2020-08-16T15:25:37Z</time>
      </trkpt>
      <trkpt lat="46.01574" lon="6.61945">
        <ele>517</ele>
        <time>2020-08-16T15:25:38Z</time>
      </trkpt>
      <trkpt lat="46.01568" lon="6.61948">
        <ele>517</ele>
        <time>2020-08-16T15:25:39Z</time>
      </trkpt>
      <trkpt lat="46.01563" lon="6.61951">
        <ele>517</ele>
        <time>2020-08-16T15:25:40Z</time>
      </trkpt>
      <trkpt lat="46.01558" lon="6.61955">
        <ele>516.8</ele>
        <time>2020-08-16T15:25:41Z</time>
      </trkpt>
      <trkpt lat="46.01554" lon="6.61959">
        <ele>517</ele>
        <time>2020-08-16T15:25:42Z</time>
      </trkpt>
      <trkpt lat="46.01549" lon="6.61963">
        <ele>517</ele>
        <time>2020-08-16T15:25:43Z</time>
      </trkpt>
      <trkpt lat="46.01544" lon="6.61965">
        <ele>517</ele>
        <time>2020-08-16T15:25:44Z</time>
      </trkpt>
      <trkpt lat="46.01539" lon="6.61969">
        <ele>517</ele>
        <time>2020-08-16T15:25:45Z</time>
      </trkpt>
      <trkpt lat="46.01534" lon="6.61973">
        <ele>517</ele>
        <time>2020-08-16T15:25:46Z</time>
      </trkpt>
      <trkpt lat="46.01529" lon="6.61976">
        <ele>517</ele>
        <time>2020-08-16T15:25:47Z</time>
      </trkpt>
      <trkpt lat="46.01524" lon="6.61979">
        <ele>517.2</ele>
        <time>2020-08-16T15:25:48Z</time>
      </trkpt>
      <trkpt lat="46.01519" lon="6.61983">
        <ele>517.2</ele>
        <time>2020-08-16T15:25:49Z</time>
      </trkpt>
      <trkpt lat="46.01514" lon="6.61986">
        <ele>517.2</ele>
        <time>2020-08-16T15:25:50Z</time>
      </trkpt>
      <trkpt lat="46.01509" lon="6.6199">
        <ele>517.2</ele>
        <time>2020-08-16T15:25:51Z</time>
      </trkpt>
      <trkpt lat="46.01503" lon="6.61994">
        <ele>517.2</ele>
        <time>2020-08-16T15:25:52Z</time>
      </trkpt>
      <trkpt lat="46.01498" lon="6.61997">
        <ele>517.2</ele>
        <time>2020-08-16T15:25:53Z</time>
      </trkpt>
      <trkpt lat="46.01492" lon="6.62">
        <ele>517.2</ele>
        <time>2020-08-16T15:25:54Z</time>
      </trkpt>
      <trkpt lat="46.01487" lon="6.62004">
        <ele>517.2</ele>
        <time>2020-08-16T15:25:55Z</time>
      </trkpt>
      <trkpt lat="46.01482" lon="6.62007">
        <ele>517.4</ele>
        <time>2020-08-16T15:25:56Z</time>
      </trkpt>
      <trkpt lat="46.01477" lon="6.6201">
        <ele>517.4</ele>
        <time>2020-08-16T15:25:57Z</time>
      </trkpt>
      <trkpt lat="46.01472" lon="6.62013">
        <ele>517.4</ele>
        <time>2020-08-16T15:25:58Z</time>
      </trkpt>
      <trkpt lat="46.01467" lon="6.62017">
        <ele>517.6</ele>
        <time>2020-08-16T15:25:59Z</time>
      </trkpt>
      <trkpt lat="46.01462" lon="6.6202">
        <ele>517.4</ele>
        <time>2020-08-16T15:26:00Z</time>
      </trkpt>
      <trkpt lat="46.01456" lon="6.62023">
        <ele>517.4</ele>
        <time>2020-08-16T15:26:01Z</time>
      </trkpt>
      <trkpt lat="46.01451" lon="6.62026">
        <ele>517.4</ele>
        <time>2020-08-16T15:26:02Z</time>
      </trkpt>
      <trkpt lat="46.01446" lon="6.6203">
        <ele>517.4</ele>
        <time>2020-08-16T15:26:03Z</time>
      </trkpt>
      <trkpt lat="46.01441" lon="6.62034">
        <ele>517.6</ele>
        <time>2020-08-16T15:26:04Z</time>
      </trkpt>
      <trkpt lat="46.01435" lon="6.62037">
        <ele>517.6</ele>
        <time>2020-08-16T15:26:05Z</time>
      </trkpt>
      <trkpt lat="46.0143" lon="6.6204">
        <ele>517.6</ele>
        <time>2020-08-16T15:26:06Z</time>
      </trkpt>
      <trkpt lat="46.01425" lon="6.62044">
        <ele>517.6</ele>
        <time>2020-08-16T15:26:07Z</time>
      </trkpt>
      <trkpt lat="46.01419" lon="6.62047">
        <ele>517.6</ele>
        <time>2020-08-16T15:26:08Z</time>
      </trkpt>
      <trkpt lat="46.01414" lon="6.62051">
        <ele>517.6</ele>
        <time>2020-08-16T15:26:09Z</time>
      </trkpt>
      <trkpt lat="46.01409" lon="6.62054">
        <ele>517.4</ele>
        <time>2020-08-16T15:26:10Z</time>
      </trkpt>
      <trkpt lat="46.01403" lon="6.62057">
        <ele>517.4</ele>
        <time>2020-08-16T15:26:11Z</time>
      </trkpt>
      <trkpt lat="46.01397" lon="6.62061">
        <ele>517.6</ele>
        <time>2020-08-16T15:26:12Z</time>
      </trkpt>
      <trkpt lat="46.01392" lon="6.62064">
        <ele>517.6</ele>
        <time>2020-08-16T15:26:13Z</time>
      </trkpt>
      <trkpt lat="46.01387" lon="6.62068">
        <ele>517.4</ele>
        <time>2020-08-16T15:26:14Z</time>
      </trkpt>
      <trkpt lat="46.01382" lon="6.62072">
        <ele>517.4</ele>
        <time>2020-08-16T15:26:15Z</time>
      </trkpt>
      <trkpt lat="46.01378" lon="6.62078">
        <ele>517.4</ele>
        <time>2020-08-16T15:26:16Z</time>
      </trkpt>
      <trkpt lat="46.01374" lon="6.62084">
        <ele>517.6</ele>
        <time>2020-08-16T15:26:17Z</time>
      </trkpt>
      <trkpt lat="46.0137" lon="6.6209">
        <ele>517.4</ele>
        <time>2020-08-16T15:26:18Z</time>
      </trkpt>
      <trkpt lat="46.01366" lon="6.62096">
        <ele>517.4</ele>
        <time>2020-08-16T15:26:19Z</time>
      </trkpt>
      <trkpt lat="46.01363" lon="6.62102">
        <ele>517.6</ele>
        <time>2020-08-16T15:26:20Z</time>
      </trkpt>
      <trkpt lat="46.01359" lon="6.62108">
        <ele>517.6</ele>
        <time>2020-08-16T15:26:21Z</time>
      </trkpt>
      <trkpt lat="46.01355" lon="6.62114">
        <ele>517.6</ele>
        <time>2020-08-16T15:26:22Z</time>
      </trkpt>
      <trkpt lat="46.01352" lon="6.62121">
        <ele>517.6</ele>
        <time>2020-08-16T15:26:23Z</time>
      </trkpt>
      <trkpt lat="46.01348" lon="6.62127">
        <ele>517.8</ele>
        <time>2020-08-16T15:26:24Z</time>
      </trkpt>
      <trkpt lat="46.01344" lon="6.62134">
        <ele>517.8</ele>
        <time>2020-08-16T15:26:25Z</time>
      </trkpt>
      <trkpt lat="46.0134" lon="6.6214">
        <ele>517.8</ele>
        <time>2020-08-16T15:26:26Z</time>
      </trkpt>
      <trkpt lat="46.01335" lon="6.62146">
        <ele>517.6</ele>
        <time>2020-08-16T15:26:27Z</time>
      </trkpt>
      <trkpt lat="46.01331" lon="6.62152">
        <ele>517.6</ele>
        <time>2020-08-16T15:26:28Z</time>
      </trkpt>
      <trkpt lat="46.01326" lon="6.62158">
        <ele>517.8</ele>
        <time>2020-08-16T15:26:29Z</time>
      </trkpt>
      <trkpt lat="46.01321" lon="6.62163">
        <ele>517.8</ele>
        <time>2020-08-16T15:26:30Z</time>
      </trkpt>
      <trkpt lat="46.01315" lon="6.62167">
        <ele>517.8</ele>
        <time>2020-08-16T15:26:31Z</time>
      </trkpt>
      <trkpt lat="46.0131" lon="6.6217">
        <ele>518</ele>
        <time>2020-08-16T15:26:32Z</time>
      </trkpt>
      <trkpt lat="46.01305" lon="6.62173">
        <ele>518</ele>
        <time>2020-08-16T15:26:33Z</time>
      </trkpt>
      <trkpt lat="46.013" lon="6.62177">
        <ele>518</ele>
        <time>2020-08-16T15:26:34Z</time>
      </trkpt>
      <trkpt lat="46.01294" lon="6.62181">
        <ele>517.8</ele>
        <time>2020-08-16T15:26:35Z</time>
      </trkpt>
      <trkpt lat="46.01289" lon="6.62185">
        <ele>517.8</ele>
        <time>2020-08-16T15:26:36Z</time>
      </trkpt>
      <trkpt lat="46.01284" lon="6.62188">
        <ele>517.8</ele>
        <time>2020-08-16T15:26:37Z</time>
      </trkpt>
      <trkpt lat="46.01279" lon="6.62192">
        <ele>518</ele>
        <time>2020-08-16T15:26:38Z</time>
      </trkpt>
      <trkpt lat="46.01273" lon="6.62196">
        <ele>518</ele>
        <time>2020-08-16T15:26:39Z</time>
      </trkpt>
      <trkpt lat="46.01268" lon="6.62199">
        <ele>518</ele>
        <time>2020-08-16T15:26:40Z</time>
      </trkpt>
      <trkpt lat="46.01263" lon="6.62202">
        <ele>518.2</ele>
        <time>2020-08-16T15:26:41Z</time>
      </trkpt>
      <trkpt lat="46.01258" lon="6.62205">
        <ele>518.2</ele>
        <time>2020-08-16T15:26:42Z</time>
      </trkpt>
      <trkpt lat="46.01253" lon="6.62209">
        <ele>518.2</ele>
        <time>2020-08-16T15:26:43Z</time>
      </trkpt>
      <trkpt lat="46.01248" lon="6.62212">
        <ele>518</ele>
        <time>2020-08-16T15:26:44Z</time>
      </trkpt>
      <trkpt lat="46.01243" lon="6.62216">
        <ele>518</ele>
        <time>2020-08-16T15:26:45Z</time>
      </trkpt>
      <trkpt lat="46.01238" lon="6.62219">
        <ele>518</ele>
        <time>2020-08-16T15:26:46Z</time>
      </trkpt>
      <trkpt lat="46.01233" lon="6.62222">
        <ele>518</ele>
        <time>2020-08-16T15:26:47Z</time>
      </trkpt>
      <trkpt lat="46.01228" lon="6.62225">
        <ele>518</ele>
        <time>2020-08-16T15:26:48Z</time>
      </trkpt>
      <trkpt lat="46.01223" lon="6.62229">
        <ele>518</ele>
        <time>2020-08-16T15:26:49Z</time>
      </trkpt>
      <trkpt lat="46.01217" lon="6.62233">
        <ele>518</ele>
        <time>2020-08-16T15:26:50Z</time>
      </trkpt>
      <trkpt lat="46.01212" lon="6.62236">
        <ele>518</ele>
        <time>2020-08-16T15:26:51Z</time>
      </trkpt>
      <trkpt lat="46.01207" lon="6.62239">
        <ele>518</ele>
        <time>2020-08-16T15:26:52Z</time>
      </trkpt>
      <trkpt lat="46.01202" lon="6.62243">
        <ele>518</ele>
        <time>2020-08-16T15:26:53Z</time>
      </trkpt>
      <trkpt lat="46.01196" lon="6.62246">
        <ele>518</ele>
        <time>2020-08-16T15:26:54Z</time>
      </trkpt>
      <trkpt lat="46.01191" lon="6.6225">
        <ele>518.2</ele>
        <time>2020-08-16T15:26:55Z</time>
      </trkpt>
      <trkpt lat="46.01186" lon="6.62254">
        <ele>518.4</ele>
        <time>2020-08-16T15:26:56Z</time>
      </trkpt>
      <trkpt lat="46.01182" lon="6.62258">
        <ele>518.6</ele>
        <time>2020-08-16T15:26:57Z</time>
      </trkpt>
      <trkpt lat="46.01177" lon="6.62262">
        <ele>518.8</ele>
        <time>2020-08-16T15:26:58Z</time>
      </trkpt>
      <trkpt lat="46.01173" lon="6.62265">
        <ele>519</ele>
        <time>2020-08-16T15:26:59Z</time>
      </trkpt>
      <trkpt lat="46.01169" lon="6.62268">
        <ele>519.2</ele>
        <time>2020-08-16T15:27:00Z</time>
      </trkpt>
      <trkpt lat="46.01165" lon="6.62272">
        <ele>519.4</ele>
        <time>2020-08-16T15:27:01Z</time>
      </trkpt>
      <trkpt lat="46.01163" lon="6.62277">
        <ele>519.8</ele>
        <time>2020-08-16T15:27:02Z</time>
      </trkpt>
      <trkpt lat="46.01161" lon="6.62282">
        <ele>520</ele>
        <time>2020-08-16T15:27:03Z</time>
      </trkpt>
      <trkpt lat="46.01161" lon="6.62288">
        <ele>520</ele>
        <time>2020-08-16T15:27:04Z</time>
      </trkpt>
      <trkpt lat="46.01164" lon="6.62294">
        <ele>520</ele>
        <time>2020-08-16T15:27:05Z</time>
      </trkpt>
      <trkpt lat="46.01166" lon="6.62301">
        <ele>519.8</ele>
        <time>2020-08-16T15:27:06Z</time>
      </trkpt>
      <trkpt lat="46.01169" lon="6.62307">
        <ele>519.4</ele>
        <time>2020-08-16T15:27:07Z</time>
      </trkpt>
      <trkpt lat="46.01171" lon="6.62315">
        <ele>519.2</ele>
        <time>2020-08-16T15:27:08Z</time>
      </trkpt>
      <trkpt lat="46.01173" lon="6.62323">
        <ele>518.8</ele>
        <time>2020-08-16T15:27:09Z</time>
      </trkpt>
      <trkpt lat="46.01176" lon="6.62331">
        <ele>518.4</ele>
        <time>2020-08-16T15:27:10Z</time>
      </trkpt>
      <trkpt lat="46.01178" lon="6.6234">
        <ele>518.2</ele>
        <time>2020-08-16T15:27:11Z</time>
      </trkpt>
      <trkpt lat="46.01179" lon="6.62349">
        <ele>518</ele>
        <time>2020-08-16T15:27:12Z</time>
      </trkpt>
      <trkpt lat="46.01179" lon="6.62358">
        <ele>517.8</ele>
        <time>2020-08-16T15:27:13Z</time>
      </trkpt>
      <trkpt lat="46.01177" lon="6.62367">
        <ele>517.8</ele>
        <time>2020-08-16T15:27:14Z</time>
      </trkpt>
      <trkpt lat="46.01174" lon="6.62375">
        <ele>517.8</ele>
        <time>2020-08-16T15:27:15Z</time>
      </trkpt>
      <trkpt lat="46.0117" lon="6.62382">
        <ele>517.8</ele>
        <time>2020-08-16T15:27:16Z</time>
      </trkpt>
      <trkpt lat="46.01166" lon="6.62388">
        <ele>517.8</ele>
        <time>2020-08-16T15:27:17Z</time>
      </trkpt>
      <trkpt lat="46.01161" lon="6.62393">
        <ele>517.8</ele>
        <time>2020-08-16T15:27:18Z</time>
      </trkpt>
      <trkpt lat="46.01156" lon="6.62397">
        <ele>518</ele>
        <time>2020-08-16T15:27:19Z</time>
      </trkpt>
      <trkpt lat="46.0115" lon="6.62401">
        <ele>518</ele>
        <time>2020-08-16T15:27:20Z</time>
      </trkpt>
      <trkpt lat="46.01145" lon="6.62404">
        <ele>518</ele>
        <time>2020-08-16T15:27:21Z</time>
      </trkpt>
      <trkpt lat="46.0114" lon="6.62408">
        <ele>518</ele>
        <time>2020-08-16T15:27:22Z</time>
      </trkpt>
      <trkpt lat="46.01134" lon="6.62411">
        <ele>518</ele>
        <time>2020-08-16T15:27:23Z</time>
      </trkpt>
      <trkpt lat="46.01129" lon="6.62415">
        <ele>518</ele>
        <time>2020-08-16T15:27:24Z</time>
      </trkpt>
      <trkpt lat="46.01124" lon="6.62418">
        <ele>518</ele>
        <time>2020-08-16T15:27:25Z</time>
      </trkpt>
      <trkpt lat="46.01119" lon="6.62422">
        <ele>518</ele>
        <time>2020-08-16T15:27:26Z</time>
      </trkpt>
      <trkpt lat="46.01114" lon="6.62425">
        <ele>518</ele>
        <time>2020-08-16T15:27:27Z</time>
      </trkpt>
      <trkpt lat="46.01108" lon="6.62429">
        <ele>518.2</ele>
        <time>2020-08-16T15:27:28Z</time>
      </trkpt>
      <trkpt lat="46.01103" lon="6.62432">
        <ele>518.2</ele>
        <time>2020-08-16T15:27:29Z</time>
      </trkpt>
      <trkpt lat="46.01098" lon="6.62436">
        <ele>518.2</ele>
        <time>2020-08-16T15:27:30Z</time>
      </trkpt>
      <trkpt lat="46.01093" lon="6.62439">
        <ele>518.2</ele>
        <time>2020-08-16T15:27:31Z</time>
      </trkpt>
      <trkpt lat="46.01088" lon="6.62442">
        <ele>518.2</ele>
        <time>2020-08-16T15:27:32Z</time>
      </trkpt>
      <trkpt lat="46.01083" lon="6.62446">
        <ele>518.2</ele>
        <time>2020-08-16T15:27:33Z</time>
      </trkpt>
      <trkpt lat="46.01077" lon="6.62449">
        <ele>518.2</ele>
        <time>2020-08-16T15:27:34Z</time>
      </trkpt>
      <trkpt lat="46.01072" lon="6.62453">
        <ele>518.4</ele>
        <time>2020-08-16T15:27:35Z</time>
      </trkpt>
      <trkpt lat="46.01067" lon="6.62456">
        <ele>518.4</ele>
        <time>2020-08-16T15:27:36Z</time>
      </trkpt>
      <trkpt lat="46.01062" lon="6.62459">
        <ele>518.4</ele>
        <time>2020-08-16T15:27:37Z</time>
      </trkpt>
      <trkpt lat="46.01057" lon="6.62462">
        <ele>518.4</ele>
        <time>2020-08-16T15:27:38Z</time>
      </trkpt>
      <trkpt lat="46.01052" lon="6.62465">
        <ele>518.4</ele>
        <time>2020-08-16T15:27:39Z</time>
      </trkpt>
      <trkpt lat="46.01047" lon="6.62468">
        <ele>518.6</ele>
        <time>2020-08-16T15:27:40Z</time>
      </trkpt>
      <trkpt lat="46.01042" lon="6.62472">
        <ele>518.6</ele>
        <time>2020-08-16T15:27:41Z</time>
      </trkpt>
      <trkpt lat="46.01037" lon="6.62475">
        <ele>518.6</ele>
        <time>2020-08-16T15:27:42Z</time>
      </trkpt>
      <trkpt lat="46.01032" lon="6.62479">
        <ele>518.6</ele>
        <time>2020-08-16T15:27:43Z</time>
      </trkpt>
      <trkpt lat="46.01026" lon="6.62483">
        <ele>518.6</ele>
        <time>2020-08-16T15:27:44Z</time>
      </trkpt>
      <trkpt lat="46.01021" lon="6.62486">
        <ele>518.8</ele>
        <time>2020-08-16T15:27:45Z</time>
      </trkpt>
      <trkpt lat="46.01016" lon="6.6249">
        <ele>518.8</ele>
        <time>2020-08-16T15:27:46Z</time>
      </trkpt>
      <trkpt lat="46.01011" lon="6.62493">
        <ele>518.8</ele>
        <time>2020-08-16T15:27:47Z</time>
      </trkpt>
      <trkpt lat="46.01007" lon="6.62496">
        <ele>519</ele>
        <time>2020-08-16T15:27:48Z</time>
      </trkpt>
      <trkpt lat="46.01002" lon="6.625">
        <ele>519</ele>
        <time>2020-08-16T15:27:49Z</time>
      </trkpt>
      <trkpt lat="46.00997" lon="6.62503">
        <ele>519.4</ele>
        <time>2020-08-16T15:27:50Z</time>
      </trkpt>
      <trkpt lat="46.00993" lon="6.62506">
        <ele>519.6</ele>
        <time>2020-08-16T15:27:51Z</time>
      </trkpt>
      <trkpt lat="46.00989" lon="6.62509">
        <ele>520</ele>
        <time>2020-08-16T15:27:52Z</time>
      </trkpt>
      <trkpt lat="46.00985" lon="6.62512">
        <ele>520.2</ele>
        <time>2020-08-16T15:27:53Z</time>
      </trkpt>
      <trkpt lat="46.00981" lon="6.62514">
        <ele>520.6</ele>
        <time>2020-08-16T15:27:54Z</time>
      </trkpt>
      <trkpt lat="46.00979" lon="6.62516">
        <ele>520.8</ele>
        <time>2020-08-16T15:27:55Z</time>
      </trkpt>
      <trkpt lat="46.00975" lon="6.62519">
        <ele>521</ele>
        <time>2020-08-16T15:27:56Z</time>
      </trkpt>
      <trkpt lat="46.00972" lon="6.62521">
        <ele>521.2</ele>
        <time>2020-08-16T15:27:57Z</time>
      </trkpt>
      <trkpt lat="46.00969" lon="6.62523">
        <ele>521.2</ele>
        <time>2020-08-16T15:27:58Z</time>
      </trkpt>
      <trkpt lat="46.00965" lon="6.62525">
        <ele>521.2</ele>
        <time>2020-08-16T15:27:59Z</time>
      </trkpt>
      <trkpt lat="46.00961" lon="6.62527">
        <ele>521.2</ele>
        <time>2020-08-16T15:28:00Z</time>
      </trkpt>
      <trkpt lat="46.00957" lon="6.6253">
        <ele>521.4</ele>
        <time>2020-08-16T15:28:01Z</time>
      </trkpt>
      <trkpt lat="46.00954" lon="6.62532">
        <ele>521.4</ele>
        <time>2020-08-16T15:28:02Z</time>
      </trkpt>
      <trkpt lat="46.0095" lon="6.62535">
        <ele>521.4</ele>
        <time>2020-08-16T15:28:03Z</time>
      </trkpt>
      <trkpt lat="46.00946" lon="6.62538">
        <ele>521.6</ele>
        <time>2020-08-16T15:28:04Z</time>
      </trkpt>
      <trkpt lat="46.00942" lon="6.62541">
        <ele>521.6</ele>
        <time>2020-08-16T15:28:05Z</time>
      </trkpt>
      <trkpt lat="46.00938" lon="6.62543">
        <ele>521.6</ele>
        <time>2020-08-16T15:28:06Z</time>
      </trkpt>
      <trkpt lat="46.00933" lon="6.62546">
        <ele>521.6</ele>
        <time>2020-08-16T15:28:07Z</time>
      </trkpt>
      <trkpt lat="46.00929" lon="6.62549">
        <ele>521.6</ele>
        <time>2020-08-16T15:28:08Z</time>
      </trkpt>
      <trkpt lat="46.00924" lon="6.62551">
        <ele>521.6</ele>
        <time>2020-08-16T15:28:09Z</time>
      </trkpt>
      <trkpt lat="46.0092" lon="6.62555">
        <ele>521.6</ele>
        <time>2020-08-16T15:28:10Z</time>
      </trkpt>
      <trkpt lat="46.00915" lon="6.62558">
        <ele>521.6</ele>
        <time>2020-08-16T15:28:11Z</time>
      </trkpt>
      <trkpt lat="46.00911" lon="6.6256">
        <ele>521.6</ele>
        <time>2020-08-16T15:28:12Z</time>
      </trkpt>
      <trkpt lat="46.00907" lon="6.62563">
        <ele>521.6</ele>
        <time>2020-08-16T15:28:13Z</time>
      </trkpt>
      <trkpt lat="46.00902" lon="6.62566">
        <ele>521.8</ele>
        <time>2020-08-16T15:28:14Z</time>
      </trkpt>
      <trkpt lat="46.00898" lon="6.62569">
        <ele>521.8</ele>
        <time>2020-08-16T15:28:15Z</time>
      </trkpt>
      <trkpt lat="46.00893" lon="6.62572">
        <ele>521.8</ele>
        <time>2020-08-16T15:28:16Z</time>
      </trkpt>
      <trkpt lat="46.00889" lon="6.62575">
        <ele>521.8</ele>
        <time>2020-08-16T15:28:17Z</time>
      </trkpt>
      <trkpt lat="46.00884" lon="6.62578">
        <ele>521.8</ele>
        <time>2020-08-16T15:28:18Z</time>
      </trkpt>
      <trkpt lat="46.0088" lon="6.62581">
        <ele>521.8</ele>
        <time>2020-08-16T15:28:19Z</time>
      </trkpt>
      <trkpt lat="46.00875" lon="6.62584">
        <ele>521.8</ele>
        <time>2020-08-16T15:28:20Z</time>
      </trkpt>
      <trkpt lat="46.00871" lon="6.62587">
        <ele>521.8</ele>
        <time>2020-08-16T15:28:21Z</time>
      </trkpt>
      <trkpt lat="46.00866" lon="6.6259">
        <ele>521.6</ele>
        <time>2020-08-16T15:28:22Z</time>
      </trkpt>
      <trkpt lat="46.0086" lon="6.62594">
        <ele>521.4</ele>
        <time>2020-08-16T15:28:23Z</time>
      </trkpt>
      <trkpt lat="46.00855" lon="6.62597">
        <ele>521.2</ele>
        <time>2020-08-16T15:28:24Z</time>
      </trkpt>
      <trkpt lat="46.0085" lon="6.62601">
        <ele>521.2</ele>
        <time>2020-08-16T15:28:25Z</time>
      </trkpt>
      <trkpt lat="46.00843" lon="6.62605">
        <ele>521.2</ele>
        <time>2020-08-16T15:28:26Z</time>
      </trkpt>
      <trkpt lat="46.00837" lon="6.62609">
        <ele>521.2</ele>
        <time>2020-08-16T15:28:27Z</time>
      </trkpt>
      <trkpt lat="46.00831" lon="6.62613">
        <ele>521</ele>
        <time>2020-08-16T15:28:28Z</time>
      </trkpt>
      <trkpt lat="46.00825" lon="6.62617">
        <ele>521</ele>
        <time>2020-08-16T15:28:29Z</time>
      </trkpt>
      <trkpt lat="46.0082" lon="6.62621">
        <ele>521</ele>
        <time>2020-08-16T15:28:30Z</time>
      </trkpt>
      <trkpt lat="46.00813" lon="6.62624">
        <ele>520.8</ele>
        <time>2020-08-16T15:28:31Z</time>
      </trkpt>
      <trkpt lat="46.00807" lon="6.62628">
        <ele>520.8</ele>
        <time>2020-08-16T15:28:32Z</time>
      </trkpt>
      <trkpt lat="46.00802" lon="6.62631">
        <ele>521</ele>
        <time>2020-08-16T15:28:33Z</time>
      </trkpt>
      <trkpt lat="46.00796" lon="6.62634">
        <ele>521</ele>
        <time>2020-08-16T15:28:34Z</time>
      </trkpt>
      <trkpt lat="46.0079" lon="6.62637">
        <ele>520.8</ele>
        <time>2020-08-16T15:28:35Z</time>
      </trkpt>
      <trkpt lat="46.00785" lon="6.6264">
        <ele>520.8</ele>
        <time>2020-08-16T15:28:36Z</time>
      </trkpt>
      <trkpt lat="46.00779" lon="6.62643">
        <ele>521</ele>
        <time>2020-08-16T15:28:37Z</time>
      </trkpt>
      <trkpt lat="46.00773" lon="6.62646">
        <ele>521</ele>
        <time>2020-08-16T15:28:38Z</time>
      </trkpt>
      <trkpt lat="46.00767" lon="6.62649">
        <ele>521</ele>
        <time>2020-08-16T15:28:39Z</time>
      </trkpt>
      <trkpt lat="46.00762" lon="6.62652">
        <ele>521</ele>
        <time>2020-08-16T15:28:40Z</time>
      </trkpt>
      <trkpt lat="46.00757" lon="6.62655">
        <ele>521.2</ele>
        <time>2020-08-16T15:28:41Z</time>
      </trkpt>
      <trkpt lat="46.00751" lon="6.62657">
        <ele>521.2</ele>
        <time>2020-08-16T15:28:42Z</time>
      </trkpt>
      <trkpt lat="46.00746" lon="6.6266">
        <ele>521.2</ele>
        <time>2020-08-16T15:28:43Z</time>
      </trkpt>
      <trkpt lat="46.00741" lon="6.62663">
        <ele>521.2</ele>
        <time>2020-08-16T15:28:44Z</time>
      </trkpt>
      <trkpt lat="46.00735" lon="6.62665">
        <ele>521.2</ele>
        <time>2020-08-16T15:28:45Z</time>
      </trkpt>
      <trkpt lat="46.0073" lon="6.62668">
        <ele>521.4</ele>
        <time>2020-08-16T15:28:46Z</time>
      </trkpt>
      <trkpt lat="46.00725" lon="6.6267">
        <ele>521.2</ele>
        <time>2020-08-16T15:28:47Z</time>
      </trkpt>
      <trkpt lat="46.0072" lon="6.62673">
        <ele>521.2</ele>
        <time>2020-08-16T15:28:48Z</time>
      </trkpt>
      <trkpt lat="46.00715" lon="6.62676">
        <ele>521.2</ele>
        <time>2020-08-16T15:28:49Z</time>
      </trkpt>
      <trkpt lat="46.00709" lon="6.62678">
        <ele>521.2</ele>
        <time>2020-08-16T15:28:50Z</time>
      </trkpt>
      <trkpt lat="46.00704" lon="6.6268">
        <ele>521.2</ele>
        <time>2020-08-16T15:28:51Z</time>
      </trkpt>
      <trkpt lat="46.00698" lon="6.62683">
        <ele>521.4</ele>
        <time>2020-08-16T15:28:52Z</time>
      </trkpt>
      <trkpt lat="46.00693" lon="6.62685">
        <ele>521.4</ele>
        <time>2020-08-16T15:28:53Z</time>
      </trkpt>
      <trkpt lat="46.00688" lon="6.62687">
        <ele>521.4</ele>
        <time>2020-08-16T15:28:54Z</time>
      </trkpt>
      <trkpt lat="46.00682" lon="6.62689">
        <ele>521.4</ele>
        <time>2020-08-16T15:28:55Z</time>
      </trkpt>
      <trkpt lat="46.00677" lon="6.62692">
        <ele>521.4</ele>
        <time>2020-08-16T15:28:56Z</time>
      </trkpt>
      <trkpt lat="46.00671" lon="6.62694">
        <ele>521.4</ele>
        <time>2020-08-16T15:28:57Z</time>
      </trkpt>
      <trkpt lat="46.00665" lon="6.62696">
        <ele>521.4</ele>
        <time>2020-08-16T15:28:58Z</time>
      </trkpt>
      <trkpt lat="46.0066" lon="6.62698">
        <ele>521.4</ele>
        <time>2020-08-16T15:28:59Z</time>
      </trkpt>
      <trkpt lat="46.00654" lon="6.62701">
        <ele>521.4</ele>
        <time>2020-08-16T15:29:00Z</time>
      </trkpt>
      <trkpt lat="46.00648" lon="6.62703">
        <ele>521.4</ele>
        <time>2020-08-16T15:29:01Z</time>
      </trkpt>
      <trkpt lat="46.00642" lon="6.62705">
        <ele>521.4</ele>
        <time>2020-08-16T15:29:02Z</time>
      </trkpt>
      <trkpt lat="46.00637" lon="6.62707">
        <ele>521.4</ele>
        <time>2020-08-16T15:29:03Z</time>
      </trkpt>
      <trkpt lat="46.00631" lon="6.62709">
        <ele>521.4</ele>
        <time>2020-08-16T15:29:04Z</time>
      </trkpt>
      <trkpt lat="46.00625" lon="6.62711">
        <ele>521.4</ele>
        <time>2020-08-16T15:29:05Z</time>
      </trkpt>
      <trkpt lat="46.00619" lon="6.62713">
        <ele>521.4</ele>
        <time>2020-08-16T15:29:06Z</time>
      </trkpt>
      <trkpt lat="46.00613" lon="6.62715">
        <ele>521.4</ele>
        <time>2020-08-16T15:29:07Z</time>
      </trkpt>
      <trkpt lat="46.00608" lon="6.62717">
        <ele>521.6</ele>
        <time>2020-08-16T15:29:08Z</time>
      </trkpt>
      <trkpt lat="46.00603" lon="6.62719">
        <ele>521.6</ele>
        <time>2020-08-16T15:29:09Z</time>
      </trkpt>
      <trkpt lat="46.00597" lon="6.6272">
        <ele>521.8</ele>
        <time>2020-08-16T15:29:10Z</time>
      </trkpt>
      <trkpt lat="46.00592" lon="6.62722">
        <ele>521.6</ele>
        <time>2020-08-16T15:29:11Z</time>
      </trkpt>
      <trkpt lat="46.00586" lon="6.62724">
        <ele>521.8</ele>
        <time>2020-08-16T15:29:12Z</time>
      </trkpt>
      <trkpt lat="46.00581" lon="6.62725">
        <ele>521.8</ele>
        <time>2020-08-16T15:29:13Z</time>
      </trkpt>
      <trkpt lat="46.00576" lon="6.62726">
        <ele>521.6</ele>
        <time>2020-08-16T15:29:14Z</time>
      </trkpt>
      <trkpt lat="46.0057" lon="6.62727">
        <ele>521.8</ele>
        <time>2020-08-16T15:29:15Z</time>
      </trkpt>
      <trkpt lat="46.00564" lon="6.62729">
        <ele>521.6</ele>
        <time>2020-08-16T15:29:16Z</time>
      </trkpt>
      <trkpt lat="46.00558" lon="6.6273">
        <ele>521.6</ele>
        <time>2020-08-16T15:29:17Z</time>
      </trkpt>
      <trkpt lat="46.00553" lon="6.62731">
        <ele>521.6</ele>
        <time>2020-08-16T15:29:18Z</time>
      </trkpt>
      <trkpt lat="46.00547" lon="6.62733">
        <ele>521.6</ele>
        <time>2020-08-16T15:29:19Z</time>
      </trkpt>
      <trkpt lat="46.00541" lon="6.62734">
        <ele>521.6</ele>
        <time>2020-08-16T15:29:20Z</time>
      </trkpt>
      <trkpt lat="46.00535" lon="6.62735">
        <ele>521.6</ele>
        <time>2020-08-16T15:29:21Z</time>
      </trkpt>
      <trkpt lat="46.00528" lon="6.62736">
        <ele>521.6</ele>
        <time>2020-08-16T15:29:22Z</time>
      </trkpt>
      <trkpt lat="46.00522" lon="6.62738">
        <ele>521.4</ele>
        <time>2020-08-16T15:29:23Z</time>
      </trkpt>
      <trkpt lat="46.00514" lon="6.62741">
        <ele>521.4</ele>
        <time>2020-08-16T15:29:24Z</time>
      </trkpt>
      <trkpt lat="46.00507" lon="6.62743">
        <ele>521.4</ele>
        <time>2020-08-16T15:29:25Z</time>
      </trkpt>
      <trkpt lat="46.005" lon="6.62745">
        <ele>521.2</ele>
        <time>2020-08-16T15:29:26Z</time>
      </trkpt>
      <trkpt lat="46.00493" lon="6.62746">
        <ele>521.2</ele>
        <time>2020-08-16T15:29:27Z</time>
      </trkpt>
      <trkpt lat="46.00486" lon="6.62748">
        <ele>521</ele>
        <time>2020-08-16T15:29:28Z</time>
      </trkpt>
      <trkpt lat="46.00479" lon="6.62751">
        <ele>521.2</ele>
        <time>2020-08-16T15:29:29Z</time>
      </trkpt>
      <trkpt lat="46.00473" lon="6.62753">
        <ele>521.2</ele>
        <time>2020-08-16T15:29:30Z</time>
      </trkpt>
      <trkpt lat="46.00466" lon="6.62754">
        <ele>521.4</ele>
        <time>2020-08-16T15:29:31Z</time>
      </trkpt>
      <trkpt lat="46.0046" lon="6.62756">
        <ele>521.4</ele>
        <time>2020-08-16T15:29:32Z</time>
      </trkpt>
      <trkpt lat="46.00453" lon="6.62758">
        <ele>521.4</ele>
        <time>2020-08-16T15:29:33Z</time>
      </trkpt>
      <trkpt lat="46.00447" lon="6.6276">
        <ele>521.4</ele>
        <time>2020-08-16T15:29:34Z</time>
      </trkpt>
      <trkpt lat="46.00441" lon="6.62761">
        <ele>521.6</ele>
        <time>2020-08-16T15:29:35Z</time>
      </trkpt>
      <trkpt lat="46.00435" lon="6.62763">
        <ele>521.6</ele>
        <time>2020-08-16T15:29:36Z</time>
      </trkpt>
      <trkpt lat="46.00429" lon="6.62764">
        <ele>521.6</ele>
        <time>2020-08-16T15:29:37Z</time>
      </trkpt>
      <trkpt lat="46.00423" lon="6.62766">
        <ele>521.6</ele>
        <time>2020-08-16T15:29:38Z</time>
      </trkpt>
      <trkpt lat="46.00417" lon="6.62768">
        <ele>521.8</ele>
        <time>2020-08-16T15:29:39Z</time>
      </trkpt>
      <trkpt lat="46.00411" lon="6.62769">
        <ele>521.8</ele>
        <time>2020-08-16T15:29:40Z</time>
      </trkpt>
      <trkpt lat="46.00405" lon="6.6277">
        <ele>521.8</ele>
        <time>2020-08-16T15:29:41Z</time>
      </trkpt>
      <trkpt lat="46.00398" lon="6.62772">
        <ele>521.6</ele>
        <time>2020-08-16T15:29:42Z</time>
      </trkpt>
      <trkpt lat="46.00392" lon="6.62774">
        <ele>521.6</ele>
        <time>2020-08-16T15:29:43Z</time>
      </trkpt>
      <trkpt lat="46.00386" lon="6.62775">
        <ele>521.6</ele>
        <time>2020-08-16T15:29:44Z</time>
      </trkpt>
      <trkpt lat="46.00379" lon="6.62777">
        <ele>521.4</ele>
        <time>2020-08-16T15:29:45Z</time>
      </trkpt>
      <trkpt lat="46.00373" lon="6.62778">
        <ele>521.4</ele>
        <time>2020-08-16T15:29:46Z</time>
      </trkpt>
      <trkpt lat="46.00366" lon="6.6278">
        <ele>521.4</ele>
        <time>2020-08-16T15:29:47Z</time>
      </trkpt>
      <trkpt lat="46.0036" lon="6.62782">
        <ele>521.4</ele>
        <time>2020-08-16T15:29:48Z</time>
      </trkpt>
      <trkpt lat="46.00354" lon="6.62783">
        <ele>521.4</ele>
        <time>2020-08-16T15:29:49Z</time>
      </trkpt>
      <trkpt lat="46.00347" lon="6.62784">
        <ele>521.4</ele>
        <time>2020-08-16T15:29:50Z</time>
      </trkpt>
      <trkpt lat="46.0034" lon="6.62785">
        <ele>521.4</ele>
        <time>2020-08-16T15:29:51Z</time>
      </trkpt>
      <trkpt lat="46.00334" lon="6.62787">
        <ele>521.4</ele>
        <time>2020-08-16T15:29:52Z</time>
      </trkpt>
      <trkpt lat="46.00327" lon="6.62788">
        <ele>521.4</ele>
        <time>2020-08-16T15:29:53Z</time>
      </trkpt>
      <trkpt lat="46.00321" lon="6.6279">
        <ele>521.2</ele>
        <time>2020-08-16T15:29:54Z</time>
      </trkpt>
      <trkpt lat="46.00314" lon="6.62791">
        <ele>521.4</ele>
        <time>2020-08-16T15:29:55Z</time>
      </trkpt>
      <trkpt lat="46.00308" lon="6.62792">
        <ele>521.4</ele>
        <time>2020-08-16T15:29:56Z</time>
      </trkpt>
      <trkpt lat="46.00301" lon="6.62793">
        <ele>521.4</ele>
        <time>2020-08-16T15:29:57Z</time>
      </trkpt>
      <trkpt lat="46.00294" lon="6.62795">
        <ele>521.4</ele>
        <time>2020-08-16T15:29:58Z</time>
      </trkpt>
      <trkpt lat="46.00287" lon="6.62796">
        <ele>521.6</ele>
        <time>2020-08-16T15:29:59Z</time>
      </trkpt>
      <trkpt lat="46.0028" lon="6.62797">
        <ele>521.4</ele>
        <time>2020-08-16T15:30:00Z</time>
      </trkpt>
      <trkpt lat="46.00273" lon="6.62798">
        <ele>521.4</ele>
        <time>2020-08-16T15:30:01Z</time>
      </trkpt>
      <trkpt lat="46.00266" lon="6.628">
        <ele>521.4</ele>
        <time>2020-08-16T15:30:02Z</time>
      </trkpt>
      <trkpt lat="46.00259" lon="6.62801">
        <ele>521.6</ele>
        <time>2020-08-16T15:30:03Z</time>
      </trkpt>
      <trkpt lat="46.00252" lon="6.62802">
        <ele>521.6</ele>
        <time>2020-08-16T15:30:04Z</time>
      </trkpt>
      <trkpt lat="46.00246" lon="6.62804">
        <ele>521.4</ele>
        <time>2020-08-16T15:30:05Z</time>
      </trkpt>
      <trkpt lat="46.00239" lon="6.62805">
        <ele>521.4</ele>
        <time>2020-08-16T15:30:06Z</time>
      </trkpt>
      <trkpt lat="46.00232" lon="6.62807">
        <ele>521.6</ele>
        <time>2020-08-16T15:30:07Z</time>
      </trkpt>
      <trkpt lat="46.00225" lon="6.62808">
        <ele>521.6</ele>
        <time>2020-08-16T15:30:08Z</time>
      </trkpt>
      <trkpt lat="46.00219" lon="6.62809">
        <ele>521.6</ele>
        <time>2020-08-16T15:30:09Z</time>
      </trkpt>
      <trkpt lat="46.00212" lon="6.6281">
        <ele>521.8</ele>
        <time>2020-08-16T15:30:10Z</time>
      </trkpt>
      <trkpt lat="46.00206" lon="6.62811">
        <ele>521.8</ele>
        <time>2020-08-16T15:30:11Z</time>
      </trkpt>
      <trkpt lat="46.00199" lon="6.62812">
        <ele>521.8</ele>
        <time>2020-08-16T15:30:12Z</time>
      </trkpt>
      <trkpt lat="46.00193" lon="6.62813">
        <ele>521.8</ele>
        <time>2020-08-16T15:30:13Z</time>
      </trkpt>
      <trkpt lat="46.00186" lon="6.62815">
        <ele>521.8</ele>
        <time>2020-08-16T15:30:14Z</time>
      </trkpt>
      <trkpt lat="46.00179" lon="6.62816">
        <ele>521.8</ele>
        <time>2020-08-16T15:30:15Z</time>
      </trkpt>
      <trkpt lat="46.00173" lon="6.62817">
        <ele>521.8</ele>
        <time>2020-08-16T15:30:16Z</time>
      </trkpt>
      <trkpt lat="46.00166" lon="6.62818">
        <ele>521.8</ele>
        <time>2020-08-16T15:30:17Z</time>
      </trkpt>
      <trkpt lat="46.00159" lon="6.6282">
        <ele>521.8</ele>
        <time>2020-08-16T15:30:18Z</time>
      </trkpt>
      <trkpt lat="46.00152" lon="6.62821">
        <ele>521.8</ele>
        <time>2020-08-16T15:30:19Z</time>
      </trkpt>
      <trkpt lat="46.00146" lon="6.62822">
        <ele>521.6</ele>
        <time>2020-08-16T15:30:20Z</time>
      </trkpt>
      <trkpt lat="46.00139" lon="6.62824">
        <ele>521.6</ele>
        <time>2020-08-16T15:30:21Z</time>
      </trkpt>
      <trkpt lat="46.00132" lon="6.62825">
        <ele>521.6</ele>
        <time>2020-08-16T15:30:22Z</time>
      </trkpt>
      <trkpt lat="46.00126" lon="6.62826">
        <ele>521.6</ele>
        <time>2020-08-16T15:30:23Z</time>
      </trkpt>
      <trkpt lat="46.00119" lon="6.62827">
        <ele>521.6</ele>
        <time>2020-08-16T15:30:24Z</time>
      </trkpt>
      <trkpt lat="46.00113" lon="6.62828">
        <ele>521.6</ele>
        <time>2020-08-16T15:30:25Z</time>
      </trkpt>
      <trkpt lat="46.00107" lon="6.6283">
        <ele>521.6</ele>
        <time>2020-08-16T15:30:26Z</time>
      </trkpt>
      <trkpt lat="46.001" lon="6.62831">
        <ele>521.8</ele>
        <time>2020-08-16T15:30:27Z</time>
      </trkpt>
      <trkpt lat="46.00094" lon="6.62833">
        <ele>521.8</ele>
        <time>2020-08-16T15:30:28Z</time>
      </trkpt>
      <trkpt lat="46.00088" lon="6.62834">
        <ele>521.8</ele>
        <time>2020-08-16T15:30:29Z</time>
      </trkpt>
      <trkpt lat="46.00082" lon="6.62835">
        <ele>521.8</ele>
        <time>2020-08-16T15:30:30Z</time>
      </trkpt>
      <trkpt lat="46.00076" lon="6.62836">
        <ele>521.8</ele>
        <time>2020-08-16T15:30:31Z</time>
      </trkpt>
      <trkpt lat="46.0007" lon="6.62837">
        <ele>521.8</ele>
        <time>2020-08-16T15:30:32Z</time>
      </trkpt>
      <trkpt lat="46.00064" lon="6.62838">
        <ele>521.8</ele>
        <time>2020-08-16T15:30:33Z</time>
      </trkpt>
      <trkpt lat="46.00058" lon="6.62839">
        <ele>522</ele>
        <time>2020-08-16T15:30:34Z</time>
      </trkpt>
      <trkpt lat="46.00052" lon="6.62841">
        <ele>521.8</ele>
        <time>2020-08-16T15:30:35Z</time>
      </trkpt>
      <trkpt lat="46.00045" lon="6.62842">
        <ele>522</ele>
        <time>2020-08-16T15:30:36Z</time>
      </trkpt>
      <trkpt lat="46.00039" lon="6.62843">
        <ele>522</ele>
        <time>2020-08-16T15:30:37Z</time>
      </trkpt>
      <trkpt lat="46.00033" lon="6.62844">
        <ele>522</ele>
        <time>2020-08-16T15:30:38Z</time>
      </trkpt>
      <trkpt lat="46.00027" lon="6.62845">
        <ele>522</ele>
        <time>2020-08-16T15:30:39Z</time>
      </trkpt>
      <trkpt lat="46.00021" lon="6.62846">
        <ele>522</ele>
        <time>2020-08-16T15:30:40Z</time>
      </trkpt>
      <trkpt lat="46.00014" lon="6.62847">
        <ele>522</ele>
        <time>2020-08-16T15:30:41Z</time>
      </trkpt>
      <trkpt lat="46.00008" lon="6.62849">
        <ele>522</ele>
        <time>2020-08-16T15:30:42Z</time>
      </trkpt>
      <trkpt lat="46.00002" lon="6.6285">
        <ele>522</ele>
        <time>2020-08-16T15:30:43Z</time>
      </trkpt>
      <trkpt lat="45.99995" lon="6.62852">
        <ele>522</ele>
        <time>2020-08-16T15:30:44Z</time>
      </trkpt>
      <trkpt lat="45.99989" lon="6.62853">
        <ele>522</ele>
        <time>2020-08-16T15:30:45Z</time>
      </trkpt>
      <trkpt lat="45.99983" lon="6.62854">
        <ele>522.2</ele>
        <time>2020-08-16T15:30:46Z</time>
      </trkpt>
      <trkpt lat="45.99977" lon="6.62855">
        <ele>522.2</ele>
        <time>2020-08-16T15:30:47Z</time>
      </trkpt>
      <trkpt lat="45.9997" lon="6.62856">
        <ele>522.2</ele>
        <time>2020-08-16T15:30:48Z</time>
      </trkpt>
      <trkpt lat="45.99964" lon="6.62858">
        <ele>522.2</ele>
        <time>2020-08-16T15:30:49Z</time>
      </trkpt>
      <trkpt lat="45.99958" lon="6.62859">
        <ele>522.2</ele>
        <time>2020-08-16T15:30:50Z</time>
      </trkpt>
      <trkpt lat="45.99951" lon="6.6286">
        <ele>522.2</ele>
        <time>2020-08-16T15:30:51Z</time>
      </trkpt>
      <trkpt lat="45.99945" lon="6.62861">
        <ele>522.4</ele>
        <time>2020-08-16T15:30:52Z</time>
      </trkpt>
      <trkpt lat="45.99938" lon="6.62863">
        <ele>522.4</ele>
        <time>2020-08-16T15:30:53Z</time>
      </trkpt>
      <trkpt lat="45.99932" lon="6.62865">
        <ele>522.4</ele>
        <time>2020-08-16T15:30:54Z</time>
      </trkpt>
      <trkpt lat="45.99925" lon="6.62866">
        <ele>522.4</ele>
        <time>2020-08-16T15:30:55Z</time>
      </trkpt>
      <trkpt lat="45.99919" lon="6.62867">
        <ele>522.6</ele>
        <time>2020-08-16T15:30:56Z</time>
      </trkpt>
      <trkpt lat="45.99913" lon="6.62869">
        <ele>522.6</ele>
        <time>2020-08-16T15:30:57Z</time>
      </trkpt>
      <trkpt lat="45.99906" lon="6.6287">
        <ele>522.6</ele>
        <time>2020-08-16T15:30:58Z</time>
      </trkpt>
      <trkpt lat="45.999" lon="6.62872">
        <ele>522.8</ele>
        <time>2020-08-16T15:30:59Z</time>
      </trkpt>
      <trkpt lat="45.99894" lon="6.62873">
        <ele>522.8</ele>
        <time>2020-08-16T15:31:00Z</time>
      </trkpt>
      <trkpt lat="45.99888" lon="6.62874">
        <ele>522.8</ele>
        <time>2020-08-16T15:31:01Z</time>
      </trkpt>
      <trkpt lat="45.99881" lon="6.62875">
        <ele>522.8</ele>
        <time>2020-08-16T15:31:02Z</time>
      </trkpt>
      <trkpt lat="45.99875" lon="6.62877">
        <ele>522.8</ele>
        <time>2020-08-16T15:31:03Z</time>
      </trkpt>
      <trkpt lat="45.99869" lon="6.62878">
        <ele>522.8</ele>
        <time>2020-08-16T15:31:04Z</time>
      </trkpt>
      <trkpt lat="45.99863" lon="6.62879">
        <ele>523</ele>
        <time>2020-08-16T15:31:05Z</time>
      </trkpt>
      <trkpt lat="45.99857" lon="6.6288">
        <ele>522.8</ele>
        <time>2020-08-16T15:31:06Z</time>
      </trkpt>
      <trkpt lat="45.9985" lon="6.62882">
        <ele>522.8</ele>
        <time>2020-08-16T15:31:07Z</time>
      </trkpt>
      <trkpt lat="45.99844" lon="6.62883">
        <ele>523</ele>
        <time>2020-08-16T15:31:08Z</time>
      </trkpt>
      <trkpt lat="45.99838" lon="6.62885">
        <ele>523</ele>
        <time>2020-08-16T15:31:09Z</time>
      </trkpt>
      <trkpt lat="45.99831" lon="6.62886">
        <ele>523</ele>
        <time>2020-08-16T15:31:10Z</time>
      </trkpt>
      <trkpt lat="45.99825" lon="6.62887">
        <ele>523</ele>
        <time>2020-08-16T15:31:11Z</time>
      </trkpt>
      <trkpt lat="45.99819" lon="6.62888">
        <ele>523</ele>
        <time>2020-08-16T15:31:12Z</time>
      </trkpt>
      <trkpt lat="45.99813" lon="6.62889">
        <ele>523.2</ele>
        <time>2020-08-16T15:31:13Z</time>
      </trkpt>
      <trkpt lat="45.99807" lon="6.6289">
        <ele>523.2</ele>
        <time>2020-08-16T15:31:14Z</time>
      </trkpt>
      <trkpt lat="45.99801" lon="6.62891">
        <ele>523.2</ele>
        <time>2020-08-16T15:31:15Z</time>
      </trkpt>
      <trkpt lat="45.99795" lon="6.62892">
        <ele>523.4</ele>
        <time>2020-08-16T15:31:16Z</time>
      </trkpt>
      <trkpt lat="45.99789" lon="6.62893">
        <ele>523.2</ele>
        <time>2020-08-16T15:31:17Z</time>
      </trkpt>
      <trkpt lat="45.99783" lon="6.62894">
        <ele>523.2</ele>
        <time>2020-08-16T15:31:18Z</time>
      </trkpt>
      <trkpt lat="45.99777" lon="6.62895">
        <ele>523.4</ele>
        <time>2020-08-16T15:31:19Z</time>
      </trkpt>
      <trkpt lat="45.99771" lon="6.62896">
        <ele>523.4</ele>
        <time>2020-08-16T15:31:20Z</time>
      </trkpt>
      <trkpt lat="45.99764" lon="6.62897">
        <ele>523.4</ele>
        <time>2020-08-16T15:31:21Z</time>
      </trkpt>
      <trkpt lat="45.99758" lon="6.62898">
        <ele>523.4</ele>
        <time>2020-08-16T15:31:22Z</time>
      </trkpt>
      <trkpt lat="45.99752" lon="6.62899">
        <ele>523.4</ele>
        <time>2020-08-16T15:31:23Z</time>
      </trkpt>
      <trkpt lat="45.99746" lon="6.629">
        <ele>523.4</ele>
        <time>2020-08-16T15:31:24Z</time>
      </trkpt>
      <trkpt lat="45.99739" lon="6.62902">
        <ele>523.4</ele>
        <time>2020-08-16T15:31:25Z</time>
      </trkpt>
      <trkpt lat="45.99733" lon="6.62903">
        <ele>523.4</ele>
        <time>2020-08-16T15:31:26Z</time>
      </trkpt>
      <trkpt lat="45.99727" lon="6.62904">
        <ele>523.6</ele>
        <time>2020-08-16T15:31:27Z</time>
      </trkpt>
      <trkpt lat="45.9972" lon="6.62905">
        <ele>523.6</ele>
        <time>2020-08-16T15:31:28Z</time>
      </trkpt>
      <trkpt lat="45.99713" lon="6.62907">
        <ele>523.6</ele>
        <time>2020-08-16T15:31:29Z</time>
      </trkpt>
      <trkpt lat="45.99707" lon="6.62908">
        <ele>523.6</ele>
        <time>2020-08-16T15:31:30Z</time>
      </trkpt>
      <trkpt lat="45.997" lon="6.62909">
        <ele>523.8</ele>
        <time>2020-08-16T15:31:31Z</time>
      </trkpt>
      <trkpt lat="45.99694" lon="6.6291">
        <ele>523.8</ele>
        <time>2020-08-16T15:31:32Z</time>
      </trkpt>
      <trkpt lat="45.99688" lon="6.62911">
        <ele>523.8</ele>
        <time>2020-08-16T15:31:33Z</time>
      </trkpt>
      <trkpt lat="45.99681" lon="6.62912">
        <ele>523.8</ele>
        <time>2020-08-16T15:31:34Z</time>
      </trkpt>
      <trkpt lat="45.99675" lon="6.62914">
        <ele>523.8</ele>
        <time>2020-08-16T15:31:35Z</time>
      </trkpt>
      <trkpt lat="45.99669" lon="6.62915">
        <ele>524</ele>
        <time>2020-08-16T15:31:36Z</time>
      </trkpt>
      <trkpt lat="45.99663" lon="6.62916">
        <ele>524</ele>
        <time>2020-08-16T15:31:37Z</time>
      </trkpt>
      <trkpt lat="45.99657" lon="6.62917">
        <ele>524</ele>
        <time>2020-08-16T15:31:38Z</time>
      </trkpt>
      <trkpt lat="45.9965" lon="6.62918">
        <ele>524</ele>
        <time>2020-08-16T15:31:39Z</time>
      </trkpt>
      <trkpt lat="45.99644" lon="6.62919">
        <ele>524</ele>
        <time>2020-08-16T15:31:40Z</time>
      </trkpt>
      <trkpt lat="45.99638" lon="6.6292">
        <ele>524</ele>
        <time>2020-08-16T15:31:41Z</time>
      </trkpt>
      <trkpt lat="45.99632" lon="6.62921">
        <ele>524</ele>
        <time>2020-08-16T15:31:42Z</time>
      </trkpt>
      <trkpt lat="45.99625" lon="6.62922">
        <ele>524</ele>
        <time>2020-08-16T15:31:43Z</time>
      </trkpt>
      <trkpt lat="45.99619" lon="6.62923">
        <ele>524</ele>
        <time>2020-08-16T15:31:44Z</time>
      </trkpt>
      <trkpt lat="45.99613" lon="6.62924">
        <ele>524</ele>
        <time>2020-08-16T15:31:45Z</time>
      </trkpt>
      <trkpt lat="45.99607" lon="6.62925">
        <ele>524</ele>
        <time>2020-08-16T15:31:46Z</time>
      </trkpt>
      <trkpt lat="45.996" lon="6.62926">
        <ele>524</ele>
        <time>2020-08-16T15:31:47Z</time>
      </trkpt>
      <trkpt lat="45.99594" lon="6.62928">
        <ele>524.2</ele>
        <time>2020-08-16T15:31:48Z</time>
      </trkpt>
      <trkpt lat="45.99588" lon="6.62929">
        <ele>524.2</ele>
        <time>2020-08-16T15:31:49Z</time>
      </trkpt>
      <trkpt lat="45.99581" lon="6.6293">
        <ele>524.2</ele>
        <time>2020-08-16T15:31:50Z</time>
      </trkpt>
      <trkpt lat="45.99575" lon="6.62931">
        <ele>524.2</ele>
        <time>2020-08-16T15:31:51Z</time>
      </trkpt>
      <trkpt lat="45.99569" lon="6.62932">
        <ele>524.2</ele>
        <time>2020-08-16T15:31:52Z</time>
      </trkpt>
      <trkpt lat="45.99563" lon="6.62933">
        <ele>524.2</ele>
        <time>2020-08-16T15:31:53Z</time>
      </trkpt>
      <trkpt lat="45.99557" lon="6.62934">
        <ele>524.2</ele>
        <time>2020-08-16T15:31:54Z</time>
      </trkpt>
      <trkpt lat="45.99552" lon="6.62935">
        <ele>524.2</ele>
        <time>2020-08-16T15:31:55Z</time>
      </trkpt>
      <trkpt lat="45.99547" lon="6.62935">
        <ele>524.4</ele>
        <time>2020-08-16T15:31:56Z</time>
      </trkpt>
      <trkpt lat="45.99541" lon="6.62936">
        <ele>524.4</ele>
        <time>2020-08-16T15:31:57Z</time>
      </trkpt>
      <trkpt lat="45.99536" lon="6.62937">
        <ele>524.6</ele>
        <time>2020-08-16T15:31:58Z</time>
      </trkpt>
      <trkpt lat="45.99531" lon="6.62937">
        <ele>524.6</ele>
        <time>2020-08-16T15:31:59Z</time>
      </trkpt>
      <trkpt lat="45.99527" lon="6.62938">
        <ele>524.6</ele>
        <time>2020-08-16T15:32:00Z</time>
      </trkpt>
      <trkpt lat="45.99522" lon="6.62938">
        <ele>524.6</ele>
        <time>2020-08-16T15:32:01Z</time>
      </trkpt>
      <trkpt lat="45.99518" lon="6.62939">
        <ele>524.6</ele>
        <time>2020-08-16T15:32:02Z</time>
      </trkpt>
      <trkpt lat="45.99515" lon="6.62941">
        <ele>524.6</ele>
        <time>2020-08-16T15:32:03Z</time>
      </trkpt>
      <trkpt lat="45.99512" lon="6.62943">
        <ele>524.6</ele>
        <time>2020-08-16T15:32:04Z</time>
      </trkpt>
      <trkpt lat="45.99511" lon="6.62947">
        <ele>524.6</ele>
        <time>2020-08-16T15:32:05Z</time>
      </trkpt>
      <trkpt lat="45.99511" lon="6.62951">
        <ele>524.6</ele>
        <time>2020-08-16T15:32:06Z</time>
      </trkpt>
      <trkpt lat="45.9951" lon="6.62956">
        <ele>524.4</ele>
        <time>2020-08-16T15:32:07Z</time>
      </trkpt>
      <trkpt lat="45.9951" lon="6.62961">
        <ele>524.6</ele>
        <time>2020-08-16T15:32:08Z</time>
      </trkpt>
      <trkpt lat="45.99511" lon="6.62967">
        <ele>524.4</ele>
        <time>2020-08-16T15:32:09Z</time>
      </trkpt>
      <trkpt lat="45.99512" lon="6.62973">
        <ele>524.4</ele>
        <time>2020-08-16T15:32:10Z</time>
      </trkpt>
      <trkpt lat="45.99513" lon="6.62981">
        <ele>524.4</ele>
        <time>2020-08-16T15:32:11Z</time>
      </trkpt>
      <trkpt lat="45.99512" lon="6.62986">
        <ele>524.4</ele>
        <time>2020-08-16T15:32:12Z</time>
      </trkpt>
      <trkpt lat="45.99513" lon="6.62991">
        <ele>524.4</ele>
        <time>2020-08-16T15:32:13Z</time>
      </trkpt>
      <trkpt lat="45.99513" lon="6.62998">
        <ele>524.4</ele>
        <time>2020-08-16T15:32:14Z</time>
      </trkpt>
      <trkpt lat="45.99513" lon="6.63005">
        <ele>524.6</ele>
        <time>2020-08-16T15:32:15Z</time>
      </trkpt>
      <trkpt lat="45.99514" lon="6.63011">
        <ele>524.8</ele>
        <time>2020-08-16T15:32:16Z</time>
      </trkpt>
      <trkpt lat="45.99515" lon="6.63017">
        <ele>524.8</ele>
        <time>2020-08-16T15:32:17Z</time>
      </trkpt>
      <trkpt lat="45.99516" lon="6.63023">
        <ele>524.8</ele>
        <time>2020-08-16T15:32:18Z</time>
      </trkpt>
      <trkpt lat="45.99517" lon="6.6303">
        <ele>524.8</ele>
        <time>2020-08-16T15:32:19Z</time>
      </trkpt>
      <trkpt lat="45.99516" lon="6.63035">
        <ele>525</ele>
        <time>2020-08-16T15:32:20Z</time>
      </trkpt>
      <trkpt lat="45.99515" lon="6.63039">
        <ele>525</ele>
        <time>2020-08-16T15:32:21Z</time>
      </trkpt>
      <trkpt lat="45.99512" lon="6.63041">
        <ele>525.2</ele>
        <time>2020-08-16T15:32:22Z</time>
      </trkpt>
      <trkpt lat="45.99509" lon="6.63043">
        <ele>525.2</ele>
        <time>2020-08-16T15:32:23Z</time>
      </trkpt>
      <trkpt lat="45.99505" lon="6.63044">
        <ele>525.4</ele>
        <time>2020-08-16T15:32:24Z</time>
      </trkpt>
      <trkpt lat="45.99502" lon="6.63044">
        <ele>525.6</ele>
        <time>2020-08-16T15:32:25Z</time>
      </trkpt>
      <trkpt lat="45.99499" lon="6.63042">
        <ele>525.6</ele>
        <time>2020-08-16T15:32:26Z</time>
      </trkpt>
      <trkpt lat="45.99495" lon="6.6304">
        <ele>525.6</ele>
        <time>2020-08-16T15:32:27Z</time>
      </trkpt>
      <trkpt lat="45.99491" lon="6.63038">
        <ele>525.6</ele>
        <time>2020-08-16T15:32:28Z</time>
      </trkpt>
      <trkpt lat="45.99487" lon="6.63038">
        <ele>525.6</ele>
        <time>2020-08-16T15:32:29Z</time>
      </trkpt>
      <trkpt lat="45.99482" lon="6.63038">
        <ele>525.8</ele>
        <time>2020-08-16T15:32:30Z</time>
      </trkpt>
      <trkpt lat="45.99478" lon="6.63037">
        <ele>525.8</ele>
        <time>2020-08-16T15:32:31Z</time>
      </trkpt>
      <trkpt lat="45.99474" lon="6.63038">
        <ele>526</ele>
        <time>2020-08-16T15:32:32Z</time>
      </trkpt>
      <trkpt lat="45.99469" lon="6.63038">
        <ele>526</ele>
        <time>2020-08-16T15:32:33Z</time>
      </trkpt>
      <trkpt lat="45.99465" lon="6.63039">
        <ele>526.2</ele>
        <time>2020-08-16T15:32:34Z</time>
      </trkpt>
      <trkpt lat="45.99461" lon="6.63041">
        <ele>526.4</ele>
        <time>2020-08-16T15:32:35Z</time>
      </trkpt>
      <trkpt lat="45.99457" lon="6.63042">
        <ele>526.6</ele>
        <time>2020-08-16T15:32:36Z</time>
      </trkpt>
      <trkpt lat="45.99453" lon="6.63043">
        <ele>526.8</ele>
        <time>2020-08-16T15:32:37Z</time>
      </trkpt>
      <trkpt lat="45.99449" lon="6.63044">
        <ele>527</ele>
        <time>2020-08-16T15:32:38Z</time>
      </trkpt>
      <trkpt lat="45.99445" lon="6.63045">
        <ele>527.2</ele>
        <time>2020-08-16T15:32:39Z</time>
      </trkpt>
      <trkpt lat="45.99441" lon="6.63046">
        <ele>527.2</ele>
        <time>2020-08-16T15:32:40Z</time>
      </trkpt>
      <trkpt lat="45.99437" lon="6.63046">
        <ele>527.4</ele>
        <time>2020-08-16T15:32:41Z</time>
      </trkpt>
      <trkpt lat="45.99433" lon="6.63047">
        <ele>527.6</ele>
        <time>2020-08-16T15:32:42Z</time>
      </trkpt>
      <trkpt lat="45.9943" lon="6.63048">
        <ele>527.6</ele>
        <time>2020-08-16T15:32:43Z</time>
      </trkpt>
      <trkpt lat="45.99426" lon="6.63049">
        <ele>528</ele>
        <time>2020-08-16T15:32:44Z</time>
      </trkpt>
      <trkpt lat="45.99422" lon="6.63051">
        <ele>528</ele>
        <time>2020-08-16T15:32:45Z</time>
      </trkpt>
      <trkpt lat="45.99418" lon="6.63052">
        <ele>528.2</ele>
        <time>2020-08-16T15:32:46Z</time>
      </trkpt>
      <trkpt lat="45.99414" lon="6.63053">
        <ele>528.4</ele>
        <time>2020-08-16T15:32:47Z</time>
      </trkpt>
      <trkpt lat="45.9941" lon="6.63054">
        <ele>528.6</ele>
        <time>2020-08-16T15:32:48Z</time>
      </trkpt>
      <trkpt lat="45.99407" lon="6.63055">
        <ele>528.6</ele>
        <time>2020-08-16T15:32:49Z</time>
      </trkpt>
      <trkpt lat="45.99403" lon="6.63056">
        <ele>528.8</ele>
        <time>2020-08-16T15:32:50Z</time>
      </trkpt>
      <trkpt lat="45.99399" lon="6.63057">
        <ele>528.8</ele>
        <time>2020-08-16T15:32:51Z</time>
      </trkpt>
      <trkpt lat="45.99395" lon="6.63058">
        <ele>529</ele>
        <time>2020-08-16T15:32:52Z</time>
      </trkpt>
      <trkpt lat="45.99391" lon="6.63059">
        <ele>529</ele>
        <time>2020-08-16T15:32:53Z</time>
      </trkpt>
      <trkpt lat="45.99387" lon="6.63061">
        <ele>529</ele>
        <time>2020-08-16T15:32:54Z</time>
      </trkpt>
      <trkpt lat="45.99382" lon="6.63062">
        <ele>529</ele>
        <time>2020-08-16T15:32:55Z</time>
      </trkpt>
      <trkpt lat="45.99378" lon="6.63063">
        <ele>529.2</ele>
        <time>2020-08-16T15:32:56Z</time>
      </trkpt>
      <trkpt lat="45.99373" lon="6.63064">
        <ele>529.2</ele>
        <time>2020-08-16T15:32:57Z</time>
      </trkpt>
      <trkpt lat="45.99369" lon="6.63065">
        <ele>529.2</ele>
        <time>2020-08-16T15:32:58Z</time>
      </trkpt>
      <trkpt lat="45.99364" lon="6.63066">
        <ele>529.2</ele>
        <time>2020-08-16T15:32:59Z</time>
      </trkpt>
      <trkpt lat="45.99359" lon="6.63067">
        <ele>529.2</ele>
        <time>2020-08-16T15:33:00Z</time>
      </trkpt>
      <trkpt lat="45.99354" lon="6.63067">
        <ele>529.4</ele>
        <time>2020-08-16T15:33:01Z</time>
      </trkpt>
      <trkpt lat="45.9935" lon="6.63068">
        <ele>529.4</ele>
        <time>2020-08-16T15:33:02Z</time>
      </trkpt>
      <trkpt lat="45.99345" lon="6.63069">
        <ele>529.6</ele>
        <time>2020-08-16T15:33:03Z</time>
      </trkpt>
      <trkpt lat="45.9934" lon="6.63069">
        <ele>529.8</ele>
        <time>2020-08-16T15:33:04Z</time>
      </trkpt>
      <trkpt lat="45.99337" lon="6.6307">
        <ele>530</ele>
        <time>2020-08-16T15:33:05Z</time>
      </trkpt>
      <trkpt lat="45.99333" lon="6.63072">
        <ele>530.2</ele>
        <time>2020-08-16T15:33:06Z</time>
      </trkpt>
      <trkpt lat="45.99329" lon="6.63073">
        <ele>530.4</ele>
        <time>2020-08-16T15:33:07Z</time>
      </trkpt>
      <trkpt lat="45.99325" lon="6.63074">
        <ele>530.6</ele>
        <time>2020-08-16T15:33:08Z</time>
      </trkpt>
      <trkpt lat="45.99321" lon="6.63075">
        <ele>530.8</ele>
        <time>2020-08-16T15:33:09Z</time>
      </trkpt>
      <trkpt lat="45.99317" lon="6.63077">
        <ele>531</ele>
        <time>2020-08-16T15:33:10Z</time>
      </trkpt>
      <trkpt lat="45.99313" lon="6.63078">
        <ele>531.2</ele>
        <time>2020-08-16T15:33:11Z</time>
      </trkpt>
      <trkpt lat="45.99309" lon="6.63079">
        <ele>531.4</ele>
        <time>2020-08-16T15:33:12Z</time>
      </trkpt>
      <trkpt lat="45.99305" lon="6.6308">
        <ele>531.4</ele>
        <time>2020-08-16T15:33:13Z</time>
      </trkpt>
      <trkpt lat="45.99301" lon="6.63081">
        <ele>531.4</ele>
        <time>2020-08-16T15:33:14Z</time>
      </trkpt>
      <trkpt lat="45.99297" lon="6.63081">
        <ele>531.6</ele>
        <time>2020-08-16T15:33:15Z</time>
      </trkpt>
      <trkpt lat="45.99292" lon="6.63082">
        <ele>531.6</ele>
        <time>2020-08-16T15:33:16Z</time>
      </trkpt>
      <trkpt lat="45.99288" lon="6.63083">
        <ele>531.6</ele>
        <time>2020-08-16T15:33:17Z</time>
      </trkpt>
      <trkpt lat="45.99284" lon="6.63083">
        <ele>531.6</ele>
        <time>2020-08-16T15:33:18Z</time>
      </trkpt>
      <trkpt lat="45.99279" lon="6.63084">
        <ele>531.6</ele>
        <time>2020-08-16T15:33:19Z</time>
      </trkpt>
      <trkpt lat="45.99275" lon="6.63085">
        <ele>531.4</ele>
        <time>2020-08-16T15:33:20Z</time>
      </trkpt>
      <trkpt lat="45.9927" lon="6.63085">
        <ele>531.4</ele>
        <time>2020-08-16T15:33:21Z</time>
      </trkpt>
      <trkpt lat="45.99266" lon="6.63086">
        <ele>531.2</ele>
        <time>2020-08-16T15:33:22Z</time>
      </trkpt>
      <trkpt lat="45.99261" lon="6.63086">
        <ele>531.2</ele>
        <time>2020-08-16T15:33:23Z</time>
      </trkpt>
      <trkpt lat="45.99256" lon="6.63087">
        <ele>531</ele>
        <time>2020-08-16T15:33:24Z</time>
      </trkpt>
      <trkpt lat="45.99251" lon="6.63088">
        <ele>531</ele>
        <time>2020-08-16T15:33:25Z</time>
      </trkpt>
      <trkpt lat="45.99246" lon="6.63089">
        <ele>530.8</ele>
        <time>2020-08-16T15:33:26Z</time>
      </trkpt>
      <trkpt lat="45.99241" lon="6.63089">
        <ele>530.6</ele>
        <time>2020-08-16T15:33:27Z</time>
      </trkpt>
      <trkpt lat="45.99235" lon="6.6309">
        <ele>530.4</ele>
        <time>2020-08-16T15:33:28Z</time>
      </trkpt>
      <trkpt lat="45.9923" lon="6.63091">
        <ele>530.4</ele>
        <time>2020-08-16T15:33:29Z</time>
      </trkpt>
      <trkpt lat="45.99224" lon="6.63091">
        <ele>530</ele>
        <time>2020-08-16T15:33:30Z</time>
      </trkpt>
      <trkpt lat="45.99218" lon="6.63091">
        <ele>529.8</ele>
        <time>2020-08-16T15:33:31Z</time>
      </trkpt>
      <trkpt lat="45.99213" lon="6.63091">
        <ele>529.8</ele>
        <time>2020-08-16T15:33:32Z</time>
      </trkpt>
      <trkpt lat="45.99206" lon="6.63091">
        <ele>529.4</ele>
        <time>2020-08-16T15:33:33Z</time>
      </trkpt>
      <trkpt lat="45.992" lon="6.63091">
        <ele>529.2</ele>
        <time>2020-08-16T15:33:34Z</time>
      </trkpt>
      <trkpt lat="45.99193" lon="6.63091">
        <ele>529</ele>
        <time>2020-08-16T15:33:35Z</time>
      </trkpt>
      <trkpt lat="45.99186" lon="6.63092">
        <ele>528.8</ele>
        <time>2020-08-16T15:33:36Z</time>
      </trkpt>
      <trkpt lat="45.9918" lon="6.63093">
        <ele>528.6</ele>
        <time>2020-08-16T15:33:37Z</time>
      </trkpt>
      <trkpt lat="45.99174" lon="6.63095">
        <ele>528.4</ele>
        <time>2020-08-16T15:33:38Z</time>
      </trkpt>
      <trkpt lat="45.99169" lon="6.63096">
        <ele>528.2</ele>
        <time>2020-08-16T15:33:39Z</time>
      </trkpt>
      <trkpt lat="45.99166" lon="6.63096">
        <ele>528.2</ele>
        <time>2020-08-16T15:33:40Z</time>
      </trkpt>
      <trkpt lat="45.99163" lon="6.63096">
        <ele>528</ele>
        <time>2020-08-16T15:33:41Z</time>
      </trkpt>
      <trkpt lat="45.9916" lon="6.63097">
        <ele>528</ele>
        <time>2020-08-16T15:33:42Z</time>
      </trkpt>
      <trkpt lat="45.99157" lon="6.631">
        <ele>528</ele>
        <time>2020-08-16T15:33:43Z</time>
      </trkpt>
      <trkpt lat="45.99156" lon="6.63104">
        <ele>528</ele>
        <time>2020-08-16T15:33:44Z</time>
      </trkpt>
      <trkpt lat="45.99155" lon="6.63109">
        <ele>528</ele>
        <time>2020-08-16T15:33:45Z</time>
      </trkpt>
      <trkpt lat="45.99156" lon="6.63113">
        <ele>528.2</ele>
        <time>2020-08-16T15:33:46Z</time>
      </trkpt>
      <trkpt lat="45.99156" lon="6.63119">
        <ele>528.2</ele>
        <time>2020-08-16T15:33:47Z</time>
      </trkpt>
      <trkpt lat="45.99156" lon="6.63125">
        <ele>528.2</ele>
        <time>2020-08-16T15:33:48Z</time>
      </trkpt>
      <trkpt lat="45.99158" lon="6.6313">
        <ele>528.4</ele>
        <time>2020-08-16T15:33:49Z</time>
      </trkpt>
      <trkpt lat="45.99157" lon="6.63133">
        <ele>528.6</ele>
        <time>2020-08-16T15:33:50Z</time>
      </trkpt>
      <trkpt lat="45.99157" lon="6.63137">
        <ele>528.6</ele>
        <time>2020-08-16T15:33:51Z</time>
      </trkpt>
      <trkpt lat="45.99156" lon="6.6314">
        <ele>528.8</ele>
        <time>2020-08-16T15:33:52Z</time>
      </trkpt>
      <trkpt lat="45.99155" lon="6.63142">
        <ele>529</ele>
        <time>2020-08-16T15:33:53Z</time>
      </trkpt>
      <trkpt lat="45.99153" lon="6.63143">
        <ele>529</ele>
        <time>2020-08-16T15:33:54Z</time>
      </trkpt>
      <trkpt lat="45.9915" lon="6.63144">
        <ele>529</ele>
        <time>2020-08-16T15:33:55Z</time>
      </trkpt>
      <trkpt lat="45.99146" lon="6.63145">
        <ele>529</ele>
        <time>2020-08-16T15:33:56Z</time>
      </trkpt>
      <trkpt lat="45.99143" lon="6.63145">
        <ele>529.2</ele>
        <time>2020-08-16T15:33:57Z</time>
      </trkpt>
      <trkpt lat="45.99139" lon="6.63146">
        <ele>529.2</ele>
        <time>2020-08-16T15:33:58Z</time>
      </trkpt>
      <trkpt lat="45.99134" lon="6.63147">
        <ele>529.2</ele>
        <time>2020-08-16T15:33:59Z</time>
      </trkpt>
      <trkpt lat="45.9913" lon="6.63147">
        <ele>529</ele>
        <time>2020-08-16T15:34:00Z</time>
      </trkpt>
      <trkpt lat="45.99126" lon="6.63148">
        <ele>529</ele>
        <time>2020-08-16T15:34:01Z</time>
      </trkpt>
      <trkpt lat="45.99121" lon="6.63149">
        <ele>529</ele>
        <time>2020-08-16T15:34:02Z</time>
      </trkpt>
      <trkpt lat="45.99116" lon="6.6315">
        <ele>529.2</ele>
        <time>2020-08-16T15:34:03Z</time>
      </trkpt>
      <trkpt lat="45.99111" lon="6.63152">
        <ele>529.2</ele>
        <time>2020-08-16T15:34:04Z</time>
      </trkpt>
      <trkpt lat="45.99106" lon="6.63154">
        <ele>529.2</ele>
        <time>2020-08-16T15:34:05Z</time>
      </trkpt>
      <trkpt lat="45.99101" lon="6.63156">
        <ele>529.2</ele>
        <time>2020-08-16T15:34:06Z</time>
      </trkpt>
      <trkpt lat="45.99096" lon="6.63158">
        <ele>529.4</ele>
        <time>2020-08-16T15:34:07Z</time>
      </trkpt>
      <trkpt lat="45.99091" lon="6.63159">
        <ele>529.4</ele>
        <time>2020-08-16T15:34:08Z</time>
      </trkpt>
      <trkpt lat="45.99084" lon="6.63161">
        <ele>529.4</ele>
        <time>2020-08-16T15:34:09Z</time>
      </trkpt>
      <trkpt lat="45.99079" lon="6.63163">
        <ele>529.6</ele>
        <time>2020-08-16T15:34:10Z</time>
      </trkpt>
      <trkpt lat="45.99074" lon="6.63165">
        <ele>529.8</ele>
        <time>2020-08-16T15:34:11Z</time>
      </trkpt>
      <trkpt lat="45.99069" lon="6.63167">
        <ele>529.8</ele>
        <time>2020-08-16T15:34:12Z</time>
      </trkpt>
      <trkpt lat="45.99064" lon="6.63169">
        <ele>530</ele>
        <time>2020-08-16T15:34:13Z</time>
      </trkpt>
      <trkpt lat="45.99058" lon="6.63171">
        <ele>530.2</ele>
        <time>2020-08-16T15:34:14Z</time>
      </trkpt>
      <trkpt lat="45.99054" lon="6.63173">
        <ele>530.4</ele>
        <time>2020-08-16T15:34:15Z</time>
      </trkpt>
      <trkpt lat="45.99049" lon="6.63175">
        <ele>530.6</ele>
        <time>2020-08-16T15:34:16Z</time>
      </trkpt>
      <trkpt lat="45.99045" lon="6.63177">
        <ele>530.8</ele>
        <time>2020-08-16T15:34:17Z</time>
      </trkpt>
      <trkpt lat="45.99041" lon="6.63178">
        <ele>531</ele>
        <time>2020-08-16T15:34:18Z</time>
      </trkpt>
      <trkpt lat="45.99038" lon="6.6318">
        <ele>531.2</ele>
        <time>2020-08-16T15:34:19Z</time>
      </trkpt>
      <trkpt lat="45.99034" lon="6.63182">
        <ele>531.2</ele>
        <time>2020-08-16T15:34:20Z</time>
      </trkpt>
      <trkpt lat="45.9903" lon="6.63183">
        <ele>531.2</ele>
        <time>2020-08-16T15:34:21Z</time>
      </trkpt>
      <trkpt lat="45.99027" lon="6.63185">
        <ele>531.4</ele>
        <time>2020-08-16T15:34:22Z</time>
      </trkpt>
      <trkpt lat="45.99023" lon="6.63187">
        <ele>531.4</ele>
        <time>2020-08-16T15:34:23Z</time>
      </trkpt>
      <trkpt lat="45.9902" lon="6.63189">
        <ele>531.6</ele>
        <time>2020-08-16T15:34:24Z</time>
      </trkpt>
      <trkpt lat="45.99017" lon="6.63191">
        <ele>531.6</ele>
        <time>2020-08-16T15:34:25Z</time>
      </trkpt>
      <trkpt lat="45.99014" lon="6.63192">
        <ele>531.8</ele>
        <time>2020-08-16T15:34:26Z</time>
      </trkpt>
      <trkpt lat="45.99011" lon="6.63194">
        <ele>532</ele>
        <time>2020-08-16T15:34:27Z</time>
      </trkpt>
      <trkpt lat="45.99008" lon="6.63195">
        <ele>532.2</ele>
        <time>2020-08-16T15:34:28Z</time>
      </trkpt>
      <trkpt lat="45.99005" lon="6.63197">
        <ele>532.2</ele>
        <time>2020-08-16T15:34:29Z</time>
      </trkpt>
      <trkpt lat="45.99001" lon="6.63199">
        <ele>532.4</ele>
        <time>2020-08-16T15:34:30Z</time>
      </trkpt>
      <trkpt lat="45.98999" lon="6.632">
        <ele>532.6</ele>
        <time>2020-08-16T15:34:31Z</time>
      </trkpt>
      <trkpt lat="45.98996" lon="6.632">
        <ele>532.8</ele>
        <time>2020-08-16T15:34:32Z</time>
      </trkpt>
      <trkpt lat="45.98994" lon="6.632">
        <ele>533</ele>
        <time>2020-08-16T15:34:33Z</time>
      </trkpt>
      <trkpt lat="45.98992" lon="6.632">
        <ele>533.2</ele>
        <time>2020-08-16T15:34:34Z</time>
      </trkpt>
      <trkpt lat="45.9899" lon="6.63201">
        <ele>533.4</ele>
        <time>2020-08-16T15:34:35Z</time>
      </trkpt>
      <trkpt lat="45.98987" lon="6.63201">
        <ele>533.6</ele>
        <time>2020-08-16T15:34:36Z</time>
      </trkpt>
      <trkpt lat="45.98985" lon="6.63202">
        <ele>533.8</ele>
        <time>2020-08-16T15:34:37Z</time>
      </trkpt>
      <trkpt lat="45.98983" lon="6.63202">
        <ele>534.2</ele>
        <time>2020-08-16T15:34:38Z</time>
      </trkpt>
      <trkpt lat="45.98981" lon="6.63203">
        <ele>534.2</ele>
        <time>2020-08-16T15:34:39Z</time>
      </trkpt>
      <trkpt lat="45.98978" lon="6.63204">
        <ele>534.6</ele>
        <time>2020-08-16T15:34:40Z</time>
      </trkpt>
      <trkpt lat="45.98976" lon="6.63205">
        <ele>534.8</ele>
        <time>2020-08-16T15:34:41Z</time>
      </trkpt>
      <trkpt lat="45.98974" lon="6.63205">
        <ele>535</ele>
        <time>2020-08-16T15:34:42Z</time>
      </trkpt>
      <trkpt lat="45.98971" lon="6.63206">
        <ele>535.2</ele>
        <time>2020-08-16T15:34:43Z</time>
      </trkpt>
      <trkpt lat="45.98969" lon="6.63207">
        <ele>535.4</ele>
        <time>2020-08-16T15:34:44Z</time>
      </trkpt>
      <trkpt lat="45.98967" lon="6.63207">
        <ele>535.6</ele>
        <time>2020-08-16T15:34:45Z</time>
      </trkpt>
      <trkpt lat="45.98965" lon="6.63208">
        <ele>535.8</ele>
        <time>2020-08-16T15:34:46Z</time>
      </trkpt>
      <trkpt lat="45.98963" lon="6.63209">
        <ele>536.2</ele>
        <time>2020-08-16T15:34:47Z</time>
      </trkpt>
      <trkpt lat="45.98961" lon="6.63209">
        <ele>536.4</ele>
        <time>2020-08-16T15:34:48Z</time>
      </trkpt>
      <trkpt lat="45.98959" lon="6.6321">
        <ele>536.6</ele>
        <time>2020-08-16T15:34:49Z</time>
      </trkpt>
      <trkpt lat="45.98957" lon="6.63211">
        <ele>536.8</ele>
        <time>2020-08-16T15:34:50Z</time>
      </trkpt>
      <trkpt lat="45.98954" lon="6.63212">
        <ele>537</ele>
        <time>2020-08-16T15:34:51Z</time>
      </trkpt>
      <trkpt lat="45.98952" lon="6.63213">
        <ele>537.2</ele>
        <time>2020-08-16T15:34:52Z</time>
      </trkpt>
      <trkpt lat="45.9895" lon="6.63214">
        <ele>537.6</ele>
        <time>2020-08-16T15:34:53Z</time>
      </trkpt>
      <trkpt lat="45.98947" lon="6.63214">
        <ele>537.8</ele>
        <time>2020-08-16T15:34:54Z</time>
      </trkpt>
      <trkpt lat="45.98945" lon="6.63215">
        <ele>538</ele>
        <time>2020-08-16T15:34:55Z</time>
      </trkpt>
      <trkpt lat="45.98942" lon="6.63215">
        <ele>538.2</ele>
        <time>2020-08-16T15:34:56Z</time>
      </trkpt>
      <trkpt lat="45.9894" lon="6.63215">
        <ele>538.4</ele>
        <time>2020-08-16T15:34:57Z</time>
      </trkpt>
      <trkpt lat="45.98938" lon="6.63216">
        <ele>538.6</ele>
        <time>2020-08-16T15:34:58Z</time>
      </trkpt>
      <trkpt lat="45.98935" lon="6.63216">
        <ele>538.6</ele>
        <time>2020-08-16T15:34:59Z</time>
      </trkpt>
      <trkpt lat="45.98932" lon="6.63216">
        <ele>538.4</ele>
        <time>2020-08-16T15:35:00Z</time>
      </trkpt>
      <trkpt lat="45.9893" lon="6.63217">
        <ele>538.4</ele>
        <time>2020-08-16T15:35:01Z</time>
      </trkpt>
      <trkpt lat="45.98927" lon="6.63217">
        <ele>538.4</ele>
        <time>2020-08-16T15:35:02Z</time>
      </trkpt>
      <trkpt lat="45.98925" lon="6.63218">
        <ele>538.4</ele>
        <time>2020-08-16T15:35:03Z</time>
      </trkpt>
      <trkpt lat="45.98922" lon="6.63218">
        <ele>538.4</ele>
        <time>2020-08-16T15:35:04Z</time>
      </trkpt>
      <trkpt lat="45.98919" lon="6.63219">
        <ele>538.6</ele>
        <time>2020-08-16T15:35:05Z</time>
      </trkpt>
      <trkpt lat="45.98915" lon="6.6322">
        <ele>538.6</ele>
        <time>2020-08-16T15:35:06Z</time>
      </trkpt>
      <trkpt lat="45.98911" lon="6.63221">
        <ele>538.8</ele>
        <time>2020-08-16T15:35:07Z</time>
      </trkpt>
      <trkpt lat="45.98908" lon="6.63222">
        <ele>538.8</ele>
        <time>2020-08-16T15:35:08Z</time>
      </trkpt>
      <trkpt lat="45.98904" lon="6.63222">
        <ele>538.8</ele>
        <time>2020-08-16T15:35:09Z</time>
      </trkpt>
      <trkpt lat="45.98901" lon="6.63223">
        <ele>538.8</ele>
        <time>2020-08-16T15:35:10Z</time>
      </trkpt>
      <trkpt lat="45.98898" lon="6.63223">
        <ele>538.8</ele>
        <time>2020-08-16T15:35:11Z</time>
      </trkpt>
      <trkpt lat="45.98895" lon="6.63223">
        <ele>538.8</ele>
        <time>2020-08-16T15:35:12Z</time>
      </trkpt>
      <trkpt lat="45.98893" lon="6.63223">
        <ele>539</ele>
        <time>2020-08-16T15:35:13Z</time>
      </trkpt>
      <trkpt lat="45.9889" lon="6.63223">
        <ele>539</ele>
        <time>2020-08-16T15:35:14Z</time>
      </trkpt>
      <trkpt lat="45.98887" lon="6.63224">
        <ele>539.2</ele>
        <time>2020-08-16T15:35:15Z</time>
      </trkpt>
      <trkpt lat="45.98885" lon="6.63224">
        <ele>539.2</ele>
        <time>2020-08-16T15:35:16Z</time>
      </trkpt>
      <trkpt lat="45.98882" lon="6.63225">
        <ele>539.2</ele>
        <time>2020-08-16T15:35:17Z</time>
      </trkpt>
      <trkpt lat="45.98879" lon="6.63226">
        <ele>539.2</ele>
        <time>2020-08-16T15:35:18Z</time>
      </trkpt>
      <trkpt lat="45.98876" lon="6.63226">
        <ele>539.4</ele>
        <time>2020-08-16T15:35:19Z</time>
      </trkpt>
      <trkpt lat="45.98873" lon="6.63226">
        <ele>539.4</ele>
        <time>2020-08-16T15:35:20Z</time>
      </trkpt>
      <trkpt lat="45.9887" lon="6.63227">
        <ele>539.4</ele>
        <time>2020-08-16T15:35:21Z</time>
      </trkpt>
      <trkpt lat="45.98867" lon="6.63227">
        <ele>539.4</ele>
        <time>2020-08-16T15:35:22Z</time>
      </trkpt>
      <trkpt lat="45.98864" lon="6.63227">
        <ele>539.4</ele>
        <time>2020-08-16T15:35:23Z</time>
      </trkpt>
      <trkpt lat="45.98861" lon="6.63228">
        <ele>539.4</ele>
        <time>2020-08-16T15:35:24Z</time>
      </trkpt>
      <trkpt lat="45.98858" lon="6.63229">
        <ele>539.4</ele>
        <time>2020-08-16T15:35:25Z</time>
      </trkpt>
      <trkpt lat="45.98855" lon="6.6323">
        <ele>539.4</ele>
        <time>2020-08-16T15:35:26Z</time>
      </trkpt>
      <trkpt lat="45.98852" lon="6.6323">
        <ele>539.2</ele>
        <time>2020-08-16T15:35:27Z</time>
      </trkpt>
      <trkpt lat="45.98849" lon="6.6323">
        <ele>539.2</ele>
        <time>2020-08-16T15:35:28Z</time>
      </trkpt>
      <trkpt lat="45.98845" lon="6.63231">
        <ele>539.4</ele>
        <time>2020-08-16T15:35:29Z</time>
      </trkpt>
      <trkpt lat="45.98843" lon="6.63231">
        <ele>539.2</ele>
        <time>2020-08-16T15:35:30Z</time>
      </trkpt>
      <trkpt lat="45.9884" lon="6.63232">
        <ele>539.4</ele>
        <time>2020-08-16T15:35:31Z</time>
      </trkpt>
      <trkpt lat="45.98837" lon="6.63232">
        <ele>539.4</ele>
        <time>2020-08-16T15:35:32Z</time>
      </trkpt>
      <trkpt lat="45.98835" lon="6.63232">
        <ele>539.6</ele>
        <time>2020-08-16T15:35:33Z</time>
      </trkpt>
      <trkpt lat="45.98832" lon="6.63233">
        <ele>539.6</ele>
        <time>2020-08-16T15:35:34Z</time>
      </trkpt>
      <trkpt lat="45.9883" lon="6.63233">
        <ele>539.6</ele>
        <time>2020-08-16T15:35:35Z</time>
      </trkpt>
      <trkpt lat="45.98827" lon="6.63234">
        <ele>539.4</ele>
        <time>2020-08-16T15:35:36Z</time>
      </trkpt>
      <trkpt lat="45.98824" lon="6.63234">
        <ele>539.2</ele>
        <time>2020-08-16T15:35:37Z</time>
      </trkpt>
      <trkpt lat="45.98821" lon="6.63234">
        <ele>539</ele>
        <time>2020-08-16T15:35:38Z</time>
      </trkpt>
      <trkpt lat="45.98817" lon="6.63235">
        <ele>538.8</ele>
        <time>2020-08-16T15:35:39Z</time>
      </trkpt>
      <trkpt lat="45.98813" lon="6.63236">
        <ele>538.4</ele>
        <time>2020-08-16T15:35:40Z</time>
      </trkpt>
      <trkpt lat="45.98808" lon="6.63237">
        <ele>538.2</ele>
        <time>2020-08-16T15:35:41Z</time>
      </trkpt>
      <trkpt lat="45.98804" lon="6.63238">
        <ele>538</ele>
        <time>2020-08-16T15:35:42Z</time>
      </trkpt>
      <trkpt lat="45.98799" lon="6.63238">
        <ele>537.6</ele>
        <time>2020-08-16T15:35:43Z</time>
      </trkpt>
      <trkpt lat="45.98794" lon="6.63239">
        <ele>537.6</ele>
        <time>2020-08-16T15:35:44Z</time>
      </trkpt>
      <trkpt lat="45.98791" lon="6.63239">
        <ele>537.6</ele>
        <time>2020-08-16T15:35:45Z</time>
      </trkpt>
      <trkpt lat="45.9879" lon="6.63238">
        <ele>537.6</ele>
        <time>2020-08-16T15:35:46Z</time>
      </trkpt>
      <trkpt lat="45.98789" lon="6.63238">
        <ele>537.6</ele>
        <time>2020-08-16T15:35:47Z</time>
      </trkpt>
      <trkpt lat="45.98788" lon="6.63238">
        <ele>537.4</ele>
        <time>2020-08-16T15:35:48Z</time>
      </trkpt>
      <trkpt lat="45.98786" lon="6.63239">
        <ele>537.4</ele>
        <time>2020-08-16T15:35:49Z</time>
      </trkpt>
      <trkpt lat="45.98783" lon="6.6324">
        <ele>537.4</ele>
        <time>2020-08-16T15:35:50Z</time>
      </trkpt>
      <trkpt lat="45.9878" lon="6.63241">
        <ele>537.4</ele>
        <time>2020-08-16T15:35:51Z</time>
      </trkpt>
      <trkpt lat="45.98776" lon="6.63243">
        <ele>537.6</ele>
        <time>2020-08-16T15:35:52Z</time>
      </trkpt>
      <trkpt lat="45.98773" lon="6.63244">
        <ele>537.6</ele>
        <time>2020-08-16T15:35:53Z</time>
      </trkpt>
      <trkpt lat="45.9877" lon="6.63244">
        <ele>537.6</ele>
        <time>2020-08-16T15:35:54Z</time>
      </trkpt>
      <trkpt lat="45.98766" lon="6.63245">
        <ele>537.6</ele>
        <time>2020-08-16T15:35:55Z</time>
      </trkpt>
      <trkpt lat="45.98762" lon="6.63246">
        <ele>537.6</ele>
        <time>2020-08-16T15:35:56Z</time>
      </trkpt>
      <trkpt lat="45.98758" lon="6.63247">
        <ele>537.6</ele>
        <time>2020-08-16T15:35:57Z</time>
      </trkpt>
      <trkpt lat="45.98754" lon="6.63248">
        <ele>537.8</ele>
        <time>2020-08-16T15:35:58Z</time>
      </trkpt>
      <trkpt lat="45.9875" lon="6.63248">
        <ele>538.4</ele>
        <time>2020-08-16T15:35:59Z</time>
      </trkpt>
      <trkpt lat="45.98746" lon="6.63249">
        <ele>538.4</ele>
        <time>2020-08-16T15:36:00Z</time>
      </trkpt>
      <trkpt lat="45.98742" lon="6.6325">
        <ele>538.4</ele>
        <time>2020-08-16T15:36:01Z</time>
      </trkpt>
      <trkpt lat="45.98738" lon="6.6325">
        <ele>538.2</ele>
        <time>2020-08-16T15:36:02Z</time>
      </trkpt>
      <trkpt lat="45.98735" lon="6.63251">
        <ele>538.4</ele>
        <time>2020-08-16T15:36:03Z</time>
      </trkpt>
      <trkpt lat="45.98731" lon="6.63252">
        <ele>538.4</ele>
        <time>2020-08-16T15:36:04Z</time>
      </trkpt>
      <trkpt lat="45.98728" lon="6.63252">
        <ele>538.6</ele>
        <time>2020-08-16T15:36:05Z</time>
      </trkpt>
      <trkpt lat="45.98724" lon="6.63253">
        <ele>538.6</ele>
        <time>2020-08-16T15:36:06Z</time>
      </trkpt>
      <trkpt lat="45.9872" lon="6.63253">
        <ele>538.8</ele>
        <time>2020-08-16T15:36:07Z</time>
      </trkpt>
      <trkpt lat="45.98716" lon="6.63254">
        <ele>538.8</ele>
        <time>2020-08-16T15:36:08Z</time>
      </trkpt>
      <trkpt lat="45.98712" lon="6.63254">
        <ele>538.8</ele>
        <time>2020-08-16T15:36:09Z</time>
      </trkpt>
      <trkpt lat="45.98708" lon="6.63255">
        <ele>538.8</ele>
        <time>2020-08-16T15:36:10Z</time>
      </trkpt>
      <trkpt lat="45.98704" lon="6.63256">
        <ele>538.8</ele>
        <time>2020-08-16T15:36:11Z</time>
      </trkpt>
      <trkpt lat="45.987" lon="6.63256">
        <ele>539</ele>
        <time>2020-08-16T15:36:12Z</time>
      </trkpt>
      <trkpt lat="45.98697" lon="6.63256">
        <ele>539.2</ele>
        <time>2020-08-16T15:36:13Z</time>
      </trkpt>
      <trkpt lat="45.98693" lon="6.63257">
        <ele>539.2</ele>
        <time>2020-08-16T15:36:14Z</time>
      </trkpt>
      <trkpt lat="45.98689" lon="6.63258">
        <ele>539.4</ele>
        <time>2020-08-16T15:36:15Z</time>
      </trkpt>
      <trkpt lat="45.98685" lon="6.63258">
        <ele>539.4</ele>
        <time>2020-08-16T15:36:16Z</time>
      </trkpt>
      <trkpt lat="45.98681" lon="6.63259">
        <ele>539.4</ele>
        <time>2020-08-16T15:36:17Z</time>
      </trkpt>
      <trkpt lat="45.98677" lon="6.63259">
        <ele>539.6</ele>
        <time>2020-08-16T15:36:18Z</time>
      </trkpt>
      <trkpt lat="45.98673" lon="6.6326">
        <ele>539.6</ele>
        <time>2020-08-16T15:36:19Z</time>
      </trkpt>
      <trkpt lat="45.98669" lon="6.63261">
        <ele>539.6</ele>
        <time>2020-08-16T15:36:20Z</time>
      </trkpt>
      <trkpt lat="45.98665" lon="6.63261">
        <ele>539.8</ele>
        <time>2020-08-16T15:36:21Z</time>
      </trkpt>
      <trkpt lat="45.98661" lon="6.63262">
        <ele>540</ele>
        <time>2020-08-16T15:36:22Z</time>
      </trkpt>
      <trkpt lat="45.98657" lon="6.63263">
        <ele>540.2</ele>
        <time>2020-08-16T15:36:23Z</time>
      </trkpt>
      <trkpt lat="45.98653" lon="6.63264">
        <ele>540.4</ele>
        <time>2020-08-16T15:36:24Z</time>
      </trkpt>
      <trkpt lat="45.9865" lon="6.63264">
        <ele>540.8</ele>
        <time>2020-08-16T15:36:25Z</time>
      </trkpt>
      <trkpt lat="45.98646" lon="6.63265">
        <ele>540.8</ele>
        <time>2020-08-16T15:36:26Z</time>
      </trkpt>
      <trkpt lat="45.98643" lon="6.63266">
        <ele>540.8</ele>
        <time>2020-08-16T15:36:27Z</time>
      </trkpt>
      <trkpt lat="45.98639" lon="6.63266">
        <ele>541</ele>
        <time>2020-08-16T15:36:28Z</time>
      </trkpt>
      <trkpt lat="45.98636" lon="6.63267">
        <ele>541.4</ele>
        <time>2020-08-16T15:36:29Z</time>
      </trkpt>
      <trkpt lat="45.98632" lon="6.63267">
        <ele>541.6</ele>
        <time>2020-08-16T15:36:30Z</time>
      </trkpt>
      <trkpt lat="45.98629" lon="6.63267">
        <ele>541.6</ele>
        <time>2020-08-16T15:36:31Z</time>
      </trkpt>
      <trkpt lat="45.98626" lon="6.63267">
        <ele>542</ele>
        <time>2020-08-16T15:36:32Z</time>
      </trkpt>
      <trkpt lat="45.98622" lon="6.63268">
        <ele>542.2</ele>
        <time>2020-08-16T15:36:33Z</time>
      </trkpt>
      <trkpt lat="45.98619" lon="6.63269">
        <ele>542.2</ele>
        <time>2020-08-16T15:36:34Z</time>
      </trkpt>
      <trkpt lat="45.98616" lon="6.63269">
        <ele>542.4</ele>
        <time>2020-08-16T15:36:35Z</time>
      </trkpt>
      <trkpt lat="45.98614" lon="6.6327">
        <ele>542.8</ele>
        <time>2020-08-16T15:36:36Z</time>
      </trkpt>
      <trkpt lat="45.98611" lon="6.6327">
        <ele>543.2</ele>
        <time>2020-08-16T15:36:37Z</time>
      </trkpt>
      <trkpt lat="45.98608" lon="6.6327">
        <ele>543.4</ele>
        <time>2020-08-16T15:36:38Z</time>
      </trkpt>
      <trkpt lat="45.98605" lon="6.6327">
        <ele>543.4</ele>
        <time>2020-08-16T15:36:39Z</time>
      </trkpt>
      <trkpt lat="45.98602" lon="6.63269">
        <ele>543.4</ele>
        <time>2020-08-16T15:36:40Z</time>
      </trkpt>
      <trkpt lat="45.98599" lon="6.63269">
        <ele>543.4</ele>
        <time>2020-08-16T15:36:41Z</time>
      </trkpt>
      <trkpt lat="45.98596" lon="6.6327">
        <ele>543.6</ele>
        <time>2020-08-16T15:36:42Z</time>
      </trkpt>
      <trkpt lat="45.98593" lon="6.63269">
        <ele>543.6</ele>
        <time>2020-08-16T15:36:43Z</time>
      </trkpt>
      <trkpt lat="45.9859" lon="6.63269">
        <ele>543.6</ele>
        <time>2020-08-16T15:36:44Z</time>
      </trkpt>
      <trkpt lat="45.98587" lon="6.63269">
        <ele>543.6</ele>
        <time>2020-08-16T15:36:45Z</time>
      </trkpt>
      <trkpt lat="45.98584" lon="6.63269">
        <ele>543.8</ele>
        <time>2020-08-16T15:36:46Z</time>
      </trkpt>
      <trkpt lat="45.98581" lon="6.63269">
        <ele>544</ele>
        <time>2020-08-16T15:36:47Z</time>
      </trkpt>
      <trkpt lat="45.98578" lon="6.63269">
        <ele>544.2</ele>
        <time>2020-08-16T15:36:48Z</time>
      </trkpt>
      <trkpt lat="45.98575" lon="6.63269">
        <ele>544.2</ele>
        <time>2020-08-16T15:36:49Z</time>
      </trkpt>
      <trkpt lat="45.98571" lon="6.63269">
        <ele>544.4</ele>
        <time>2020-08-16T15:36:50Z</time>
      </trkpt>
      <trkpt lat="45.98568" lon="6.63269">
        <ele>544.4</ele>
        <time>2020-08-16T15:36:51Z</time>
      </trkpt>
      <trkpt lat="45.98565" lon="6.63269">
        <ele>544.4</ele>
        <time>2020-08-16T15:36:52Z</time>
      </trkpt>
      <trkpt lat="45.98561" lon="6.63269">
        <ele>544.6</ele>
        <time>2020-08-16T15:36:53Z</time>
      </trkpt>
      <trkpt lat="45.98558" lon="6.63269">
        <ele>544.6</ele>
        <time>2020-08-16T15:36:54Z</time>
      </trkpt>
      <trkpt lat="45.98554" lon="6.63269">
        <ele>544.8</ele>
        <time>2020-08-16T15:36:55Z</time>
      </trkpt>
      <trkpt lat="45.98551" lon="6.63269">
        <ele>544.8</ele>
        <time>2020-08-16T15:36:56Z</time>
      </trkpt>
      <trkpt lat="45.98548" lon="6.63269">
        <ele>544.8</ele>
        <time>2020-08-16T15:36:57Z</time>
      </trkpt>
      <trkpt lat="45.98544" lon="6.63268">
        <ele>545</ele>
        <time>2020-08-16T15:36:58Z</time>
      </trkpt>
      <trkpt lat="45.98541" lon="6.63268">
        <ele>545</ele>
        <time>2020-08-16T15:36:59Z</time>
      </trkpt>
      <trkpt lat="45.98537" lon="6.63268">
        <ele>545.2</ele>
        <time>2020-08-16T15:37:00Z</time>
      </trkpt>
      <trkpt lat="45.98534" lon="6.63268">
        <ele>545.2</ele>
        <time>2020-08-16T15:37:01Z</time>
      </trkpt>
      <trkpt lat="45.9853" lon="6.63268">
        <ele>545.4</ele>
        <time>2020-08-16T15:37:02Z</time>
      </trkpt>
      <trkpt lat="45.98527" lon="6.63268">
        <ele>545.4</ele>
        <time>2020-08-16T15:37:03Z</time>
      </trkpt>
      <trkpt lat="45.98524" lon="6.63268">
        <ele>545.6</ele>
        <time>2020-08-16T15:37:04Z</time>
      </trkpt>
      <trkpt lat="45.9852" lon="6.63267">
        <ele>545.6</ele>
        <time>2020-08-16T15:37:05Z</time>
      </trkpt>
      <trkpt lat="45.98517" lon="6.63267">
        <ele>545.8</ele>
        <time>2020-08-16T15:37:06Z</time>
      </trkpt>
      <trkpt lat="45.98514" lon="6.63267">
        <ele>545.8</ele>
        <time>2020-08-16T15:37:07Z</time>
      </trkpt>
      <trkpt lat="45.98511" lon="6.63267">
        <ele>546</ele>
        <time>2020-08-16T15:37:08Z</time>
      </trkpt>
      <trkpt lat="45.98508" lon="6.63266">
        <ele>546</ele>
        <time>2020-08-16T15:37:09Z</time>
      </trkpt>
      <trkpt lat="45.98504" lon="6.63266">
        <ele>546.2</ele>
        <time>2020-08-16T15:37:10Z</time>
      </trkpt>
      <trkpt lat="45.98501" lon="6.63266">
        <ele>546.2</ele>
        <time>2020-08-16T15:37:11Z</time>
      </trkpt>
      <trkpt lat="45.98498" lon="6.63266">
        <ele>546.4</ele>
        <time>2020-08-16T15:37:12Z</time>
      </trkpt>
      <trkpt lat="45.98494" lon="6.63266">
        <ele>546.4</ele>
        <time>2020-08-16T15:37:13Z</time>
      </trkpt>
      <trkpt lat="45.9849" lon="6.63266">
        <ele>546.6</ele>
        <time>2020-08-16T15:37:14Z</time>
      </trkpt>
      <trkpt lat="45.98486" lon="6.63266">
        <ele>546.6</ele>
        <time>2020-08-16T15:37:15Z</time>
      </trkpt>
      <trkpt lat="45.98482" lon="6.63266">
        <ele>546.6</ele>
        <time>2020-08-16T15:37:16Z</time>
      </trkpt>
      <trkpt lat="45.98478" lon="6.63267">
        <ele>546.6</ele>
        <time>2020-08-16T15:37:17Z</time>
      </trkpt>
      <trkpt lat="45.98474" lon="6.63267">
        <ele>546.8</ele>
        <time>2020-08-16T15:37:18Z</time>
      </trkpt>
      <trkpt lat="45.98471" lon="6.63267">
        <ele>546.8</ele>
        <time>2020-08-16T15:37:19Z</time>
      </trkpt>
      <trkpt lat="45.98467" lon="6.63266">
        <ele>546.8</ele>
        <time>2020-08-16T15:37:20Z</time>
      </trkpt>
      <trkpt lat="45.98463" lon="6.63267">
        <ele>547</ele>
        <time>2020-08-16T15:37:21Z</time>
      </trkpt>
      <trkpt lat="45.98459" lon="6.63267">
        <ele>547</ele>
        <time>2020-08-16T15:37:22Z</time>
      </trkpt>
      <trkpt lat="45.98455" lon="6.63267">
        <ele>547.2</ele>
        <time>2020-08-16T15:37:23Z</time>
      </trkpt>
      <trkpt lat="45.98451" lon="6.63268">
        <ele>547.4</ele>
        <time>2020-08-16T15:37:24Z</time>
      </trkpt>
      <trkpt lat="45.98448" lon="6.63268">
        <ele>547.4</ele>
        <time>2020-08-16T15:37:25Z</time>
      </trkpt>
      <trkpt lat="45.98444" lon="6.63268">
        <ele>547.6</ele>
        <time>2020-08-16T15:37:26Z</time>
      </trkpt>
      <trkpt lat="45.9844" lon="6.63269">
        <ele>547.6</ele>
        <time>2020-08-16T15:37:27Z</time>
      </trkpt>
      <trkpt lat="45.98437" lon="6.63269">
        <ele>547.8</ele>
        <time>2020-08-16T15:37:28Z</time>
      </trkpt>
      <trkpt lat="45.98433" lon="6.63269">
        <ele>547.8</ele>
        <time>2020-08-16T15:37:29Z</time>
      </trkpt>
      <trkpt lat="45.98429" lon="6.6327">
        <ele>548</ele>
        <time>2020-08-16T15:37:30Z</time>
      </trkpt>
      <trkpt lat="45.98425" lon="6.6327">
        <ele>548</ele>
        <time>2020-08-16T15:37:31Z</time>
      </trkpt>
      <trkpt lat="45.98422" lon="6.6327">
        <ele>548</ele>
        <time>2020-08-16T15:37:32Z</time>
      </trkpt>
      <trkpt lat="45.98418" lon="6.63271">
        <ele>548</ele>
        <time>2020-08-16T15:37:33Z</time>
      </trkpt>
      <trkpt lat="45.98414" lon="6.63271">
        <ele>548.4</ele>
        <time>2020-08-16T15:37:34Z</time>
      </trkpt>
      <trkpt lat="45.9841" lon="6.63272">
        <ele>548.4</ele>
        <time>2020-08-16T15:37:35Z</time>
      </trkpt>
      <trkpt lat="45.98407" lon="6.63272">
        <ele>548.6</ele>
        <time>2020-08-16T15:37:36Z</time>
      </trkpt>
      <trkpt lat="45.98404" lon="6.63273">
        <ele>548.8</ele>
        <time>2020-08-16T15:37:37Z</time>
      </trkpt>
      <trkpt lat="45.984" lon="6.63273">
        <ele>548.8</ele>
        <time>2020-08-16T15:37:38Z</time>
      </trkpt>
      <trkpt lat="45.98397" lon="6.63274">
        <ele>549</ele>
        <time>2020-08-16T15:37:39Z</time>
      </trkpt>
      <trkpt lat="45.98394" lon="6.63274">
        <ele>549.2</ele>
        <time>2020-08-16T15:37:40Z</time>
      </trkpt>
      <trkpt lat="45.9839" lon="6.63275">
        <ele>549.4</ele>
        <time>2020-08-16T15:37:41Z</time>
      </trkpt>
      <trkpt lat="45.98387" lon="6.63276">
        <ele>549.6</ele>
        <time>2020-08-16T15:37:42Z</time>
      </trkpt>
      <trkpt lat="45.98384" lon="6.63276">
        <ele>549.8</ele>
        <time>2020-08-16T15:37:43Z</time>
      </trkpt>
      <trkpt lat="45.98381" lon="6.63277">
        <ele>550</ele>
        <time>2020-08-16T15:37:44Z</time>
      </trkpt>
      <trkpt lat="45.98378" lon="6.63278">
        <ele>550.2</ele>
        <time>2020-08-16T15:37:45Z</time>
      </trkpt>
      <trkpt lat="45.98374" lon="6.6328">
        <ele>550.4</ele>
        <time>2020-08-16T15:37:46Z</time>
      </trkpt>
      <trkpt lat="45.98371" lon="6.63282">
        <ele>550.6</ele>
        <time>2020-08-16T15:37:47Z</time>
      </trkpt>
      <trkpt lat="45.98367" lon="6.63283">
        <ele>550.6</ele>
        <time>2020-08-16T15:37:48Z</time>
      </trkpt>
      <trkpt lat="45.98364" lon="6.63284">
        <ele>550.8</ele>
        <time>2020-08-16T15:37:49Z</time>
      </trkpt>
      <trkpt lat="45.9836" lon="6.63286">
        <ele>550.8</ele>
        <time>2020-08-16T15:37:50Z</time>
      </trkpt>
      <trkpt lat="45.98357" lon="6.63287">
        <ele>551</ele>
        <time>2020-08-16T15:37:51Z</time>
      </trkpt>
      <trkpt lat="45.98353" lon="6.63289">
        <ele>551</ele>
        <time>2020-08-16T15:37:52Z</time>
      </trkpt>
      <trkpt lat="45.98348" lon="6.63291">
        <ele>551</ele>
        <time>2020-08-16T15:37:53Z</time>
      </trkpt>
      <trkpt lat="45.98344" lon="6.63292">
        <ele>551</ele>
        <time>2020-08-16T15:37:54Z</time>
      </trkpt>
      <trkpt lat="45.9834" lon="6.63295">
        <ele>551.2</ele>
        <time>2020-08-16T15:37:55Z</time>
      </trkpt>
      <trkpt lat="45.98335" lon="6.63297">
        <ele>551.2</ele>
        <time>2020-08-16T15:37:56Z</time>
      </trkpt>
      <trkpt lat="45.98331" lon="6.63299">
        <ele>551.4</ele>
        <time>2020-08-16T15:37:57Z</time>
      </trkpt>
      <trkpt lat="45.98327" lon="6.633">
        <ele>551.4</ele>
        <time>2020-08-16T15:37:58Z</time>
      </trkpt>
      <trkpt lat="45.98322" lon="6.63303">
        <ele>551.4</ele>
        <time>2020-08-16T15:37:59Z</time>
      </trkpt>
      <trkpt lat="45.98318" lon="6.63304">
        <ele>551.4</ele>
        <time>2020-08-16T15:38:00Z</time>
      </trkpt>
      <trkpt lat="45.98314" lon="6.63306">
        <ele>551.4</ele>
        <time>2020-08-16T15:38:01Z</time>
      </trkpt>
      <trkpt lat="45.9831" lon="6.63309">
        <ele>551.4</ele>
        <time>2020-08-16T15:38:02Z</time>
      </trkpt>
      <trkpt lat="45.98306" lon="6.63313">
        <ele>551.4</ele>
        <time>2020-08-16T15:38:03Z</time>
      </trkpt>
      <trkpt lat="45.98302" lon="6.63316">
        <ele>551.4</ele>
        <time>2020-08-16T15:38:04Z</time>
      </trkpt>
      <trkpt lat="45.98297" lon="6.63319">
        <ele>551.4</ele>
        <time>2020-08-16T15:38:05Z</time>
      </trkpt>
      <trkpt lat="45.98293" lon="6.63322">
        <ele>551.4</ele>
        <time>2020-08-16T15:38:06Z</time>
      </trkpt>
      <trkpt lat="45.98288" lon="6.63325">
        <ele>551.4</ele>
        <time>2020-08-16T15:38:07Z</time>
      </trkpt>
      <trkpt lat="45.98283" lon="6.63328">
        <ele>551.2</ele>
        <time>2020-08-16T15:38:08Z</time>
      </trkpt>
      <trkpt lat="45.98279" lon="6.63331">
        <ele>551.2</ele>
        <time>2020-08-16T15:38:09Z</time>
      </trkpt>
      <trkpt lat="45.98274" lon="6.63334">
        <ele>551.2</ele>
        <time>2020-08-16T15:38:10Z</time>
      </trkpt>
      <trkpt lat="45.98269" lon="6.63337">
        <ele>551</ele>
        <time>2020-08-16T15:38:11Z</time>
      </trkpt>
      <trkpt lat="45.98264" lon="6.63341">
        <ele>551</ele>
        <time>2020-08-16T15:38:12Z</time>
      </trkpt>
      <trkpt lat="45.98259" lon="6.63344">
        <ele>551</ele>
        <time>2020-08-16T15:38:13Z</time>
      </trkpt>
      <trkpt lat="45.98253" lon="6.63348">
        <ele>551</ele>
        <time>2020-08-16T15:38:14Z</time>
      </trkpt>
      <trkpt lat="45.98248" lon="6.63351">
        <ele>551</ele>
        <time>2020-08-16T15:38:15Z</time>
      </trkpt>
      <trkpt lat="45.98243" lon="6.63354">
        <ele>550.8</ele>
        <time>2020-08-16T15:38:16Z</time>
      </trkpt>
      <trkpt lat="45.98238" lon="6.63357">
        <ele>551</ele>
        <time>2020-08-16T15:38:17Z</time>
      </trkpt>
      <trkpt lat="45.98233" lon="6.63361">
        <ele>551</ele>
        <time>2020-08-16T15:38:18Z</time>
      </trkpt>
      <trkpt lat="45.98228" lon="6.63364">
        <ele>551</ele>
        <time>2020-08-16T15:38:19Z</time>
      </trkpt>
      <trkpt lat="45.98224" lon="6.63367">
        <ele>551</ele>
        <time>2020-08-16T15:38:20Z</time>
      </trkpt>
      <trkpt lat="45.98219" lon="6.6337">
        <ele>551</ele>
        <time>2020-08-16T15:38:21Z</time>
      </trkpt>
      <trkpt lat="45.98215" lon="6.63373">
        <ele>551</ele>
        <time>2020-08-16T15:38:22Z</time>
      </trkpt>
      <trkpt lat="45.9821" lon="6.63376">
        <ele>551.2</ele>
        <time>2020-08-16T15:38:23Z</time>
      </trkpt>
      <trkpt lat="45.98206" lon="6.63379">
        <ele>551.2</ele>
        <time>2020-08-16T15:38:24Z</time>
      </trkpt>
      <trkpt lat="45.98201" lon="6.63382">
        <ele>551.2</ele>
        <time>2020-08-16T15:38:25Z</time>
      </trkpt>
      <trkpt lat="45.98197" lon="6.63384">
        <ele>551.2</ele>
        <time>2020-08-16T15:38:26Z</time>
      </trkpt>
      <trkpt lat="45.98192" lon="6.63387">
        <ele>551.4</ele>
        <time>2020-08-16T15:38:27Z</time>
      </trkpt>
      <trkpt lat="45.98188" lon="6.6339">
        <ele>551.6</ele>
        <time>2020-08-16T15:38:28Z</time>
      </trkpt>
      <trkpt lat="45.98184" lon="6.63392">
        <ele>551.8</ele>
        <time>2020-08-16T15:38:29Z</time>
      </trkpt>
      <trkpt lat="45.98181" lon="6.63394">
        <ele>552</ele>
        <time>2020-08-16T15:38:30Z</time>
      </trkpt>
      <trkpt lat="45.98177" lon="6.63397">
        <ele>552.2</ele>
        <time>2020-08-16T15:38:31Z</time>
      </trkpt>
      <trkpt lat="45.98174" lon="6.63399">
        <ele>552.4</ele>
        <time>2020-08-16T15:38:32Z</time>
      </trkpt>
      <trkpt lat="45.98172" lon="6.63401">
        <ele>552.4</ele>
        <time>2020-08-16T15:38:33Z</time>
      </trkpt>
      <trkpt lat="45.98169" lon="6.63402">
        <ele>552.4</ele>
        <time>2020-08-16T15:38:34Z</time>
      </trkpt>
      <trkpt lat="45.98167" lon="6.63403">
        <ele>552.4</ele>
        <time>2020-08-16T15:38:35Z</time>
      </trkpt>
      <trkpt lat="45.98165" lon="6.63403">
        <ele>552.4</ele>
        <time>2020-08-16T15:38:36Z</time>
      </trkpt>
      <trkpt lat="45.98163" lon="6.63404">
        <ele>552.4</ele>
        <time>2020-08-16T15:38:37Z</time>
      </trkpt>
      <trkpt lat="45.98161" lon="6.63404">
        <ele>552.2</ele>
        <time>2020-08-16T15:38:38Z</time>
      </trkpt>
      <trkpt lat="45.98159" lon="6.63406">
        <ele>552.2</ele>
        <time>2020-08-16T15:38:39Z</time>
      </trkpt>
      <trkpt lat="45.98156" lon="6.63408">
        <ele>552</ele>
        <time>2020-08-16T15:38:40Z</time>
      </trkpt>
      <trkpt lat="45.98155" lon="6.6341">
        <ele>552</ele>
        <time>2020-08-16T15:38:41Z</time>
      </trkpt>
      <trkpt lat="45.98153" lon="6.63412">
        <ele>551.8</ele>
        <time>2020-08-16T15:38:42Z</time>
      </trkpt>
      <trkpt lat="45.9815" lon="6.63415">
        <ele>551.6</ele>
        <time>2020-08-16T15:38:43Z</time>
      </trkpt>
      <trkpt lat="45.98147" lon="6.63417">
        <ele>551.6</ele>
        <time>2020-08-16T15:38:44Z</time>
      </trkpt>
      <trkpt lat="45.98144" lon="6.63419">
        <ele>551.4</ele>
        <time>2020-08-16T15:38:45Z</time>
      </trkpt>
      <trkpt lat="45.9814" lon="6.63421">
        <ele>551.2</ele>
        <time>2020-08-16T15:38:46Z</time>
      </trkpt>
      <trkpt lat="45.98137" lon="6.63423">
        <ele>551</ele>
        <time>2020-08-16T15:38:47Z</time>
      </trkpt>
      <trkpt lat="45.98133" lon="6.63425">
        <ele>551</ele>
        <time>2020-08-16T15:38:48Z</time>
      </trkpt>
      <trkpt lat="45.98131" lon="6.63426">
        <ele>550.8</ele>
        <time>2020-08-16T15:38:49Z</time>
      </trkpt>
      <trkpt lat="45.98128" lon="6.63428">
        <ele>550.8</ele>
        <time>2020-08-16T15:38:50Z</time>
      </trkpt>
      <trkpt lat="45.98127" lon="6.63429">
        <ele>550.6</ele>
        <time>2020-08-16T15:38:51Z</time>
      </trkpt>
      <trkpt lat="45.98125" lon="6.6343">
        <ele>550.6</ele>
        <time>2020-08-16T15:38:52Z</time>
      </trkpt>
      <trkpt lat="45.98123" lon="6.63432">
        <ele>550.4</ele>
        <time>2020-08-16T15:38:53Z</time>
      </trkpt>
      <trkpt lat="45.98121" lon="6.63433">
        <ele>550.4</ele>
        <time>2020-08-16T15:38:54Z</time>
      </trkpt>
      <trkpt lat="45.9812" lon="6.63435">
        <ele>550.4</ele>
        <time>2020-08-16T15:38:55Z</time>
      </trkpt>
      <trkpt lat="45.9812" lon="6.63436">
        <ele>550.6</ele>
        <time>2020-08-16T15:38:56Z</time>
      </trkpt>
      <trkpt lat="45.9812" lon="6.63436">
        <ele>550.6</ele>
        <time>2020-08-16T15:38:57Z</time>
      </trkpt>
      <trkpt lat="45.98119" lon="6.63436">
        <ele>550.6</ele>
        <time>2020-08-16T15:38:58Z</time>
      </trkpt>
      <trkpt lat="45.98119" lon="6.63437">
        <ele>550.4</ele>
        <time>2020-08-16T15:38:59Z</time>
      </trkpt>
      <trkpt lat="45.98119" lon="6.63437">
        <ele>550.4</ele>
        <time>2020-08-16T15:39:00Z</time>
      </trkpt>
      <trkpt lat="45.98119" lon="6.63437">
        <ele>550.4</ele>
        <time>2020-08-16T15:39:01Z</time>
      </trkpt>
      <trkpt lat="45.98119" lon="6.63437">
        <ele>550.6</ele>
        <time>2020-08-16T15:39:02Z</time>
      </trkpt>
      <trkpt lat="45.98119" lon="6.63437">
        <ele>550.4</ele>
        <time>2020-08-16T15:39:03Z</time>
      </trkpt>
      <trkpt lat="45.98101" lon="6.63456">
        <ele>550.2</ele>
        <time>2020-08-16T15:39:49Z</time>
      </trkpt>
      <trkpt lat="45.98098" lon="6.63459">
        <ele>550</ele>
        <time>2020-08-16T15:39:50Z</time>
      </trkpt>
      <trkpt lat="45.98095" lon="6.63462">
        <ele>549.8</ele>
        <time>2020-08-16T15:39:51Z</time>
      </trkpt>
      <trkpt lat="45.98091" lon="6.63466">
        <ele>549.6</ele>
        <time>2020-08-16T15:39:52Z</time>
      </trkpt>
      <trkpt lat="45.98087" lon="6.6347">
        <ele>549.4</ele>
        <time>2020-08-16T15:39:53Z</time>
      </trkpt>
      <trkpt lat="45.98083" lon="6.63474">
        <ele>549.2</ele>
        <time>2020-08-16T15:39:54Z</time>
      </trkpt>
      <trkpt lat="45.98078" lon="6.63478">
        <ele>549</ele>
        <time>2020-08-16T15:39:55Z</time>
      </trkpt>
      <trkpt lat="45.98074" lon="6.63482">
        <ele>548.8</ele>
        <time>2020-08-16T15:39:56Z</time>
      </trkpt>
      <trkpt lat="45.98069" lon="6.63486">
        <ele>548.6</ele>
        <time>2020-08-16T15:39:57Z</time>
      </trkpt>
      <trkpt lat="45.98064" lon="6.6349">
        <ele>548.4</ele>
        <time>2020-08-16T15:39:58Z</time>
      </trkpt>
      <trkpt lat="45.9806" lon="6.63494">
        <ele>548.2</ele>
        <time>2020-08-16T15:39:59Z</time>
      </trkpt>
      <trkpt lat="45.98055" lon="6.63499">
        <ele>548</ele>
        <time>2020-08-16T15:40:00Z</time>
      </trkpt>
      <trkpt lat="45.9805" lon="6.63503">
        <ele>547.6</ele>
        <time>2020-08-16T15:40:01Z</time>
      </trkpt>
      <trkpt lat="45.98046" lon="6.63507">
        <ele>547.4</ele>
        <time>2020-08-16T15:40:02Z</time>
      </trkpt>
      <trkpt lat="45.9804" lon="6.63513">
        <ele>547.2</ele>
        <time>2020-08-16T15:40:03Z</time>
      </trkpt>
      <trkpt lat="45.98035" lon="6.63518">
        <ele>546.8</ele>
        <time>2020-08-16T15:40:04Z</time>
      </trkpt>
      <trkpt lat="45.98029" lon="6.63524">
        <ele>546.4</ele>
        <time>2020-08-16T15:40:05Z</time>
      </trkpt>
      <trkpt lat="45.98024" lon="6.6353">
        <ele>546.2</ele>
        <time>2020-08-16T15:40:06Z</time>
      </trkpt>
      <trkpt lat="45.98018" lon="6.63537">
        <ele>545.8</ele>
        <time>2020-08-16T15:40:07Z</time>
      </trkpt>
      <trkpt lat="45.98012" lon="6.63542">
        <ele>545.6</ele>
        <time>2020-08-16T15:40:08Z</time>
      </trkpt>
      <trkpt lat="45.98006" lon="6.63548">
        <ele>545.2</ele>
        <time>2020-08-16T15:40:09Z</time>
      </trkpt>
      <trkpt lat="45.98001" lon="6.63555">
        <ele>545</ele>
        <time>2020-08-16T15:40:10Z</time>
      </trkpt>
      <trkpt lat="45.97994" lon="6.63562">
        <ele>544.6</ele>
        <time>2020-08-16T15:40:11Z</time>
      </trkpt>
      <trkpt lat="45.97988" lon="6.63569">
        <ele>544.2</ele>
        <time>2020-08-16T15:40:12Z</time>
      </trkpt>
      <trkpt lat="45.97981" lon="6.63576">
        <ele>543.6</ele>
        <time>2020-08-16T15:40:13Z</time>
      </trkpt>
      <trkpt lat="45.97974" lon="6.63583">
        <ele>543.2</ele>
        <time>2020-08-16T15:40:14Z</time>
      </trkpt>
      <trkpt lat="45.97967" lon="6.63591">
        <ele>542.8</ele>
        <time>2020-08-16T15:40:15Z</time>
      </trkpt>
      <trkpt lat="45.97959" lon="6.63599">
        <ele>542.4</ele>
        <time>2020-08-16T15:40:16Z</time>
      </trkpt>
      <trkpt lat="45.97952" lon="6.63607">
        <ele>542.2</ele>
        <time>2020-08-16T15:40:17Z</time>
      </trkpt>
      <trkpt lat="45.97945" lon="6.63614">
        <ele>541.8</ele>
        <time>2020-08-16T15:40:18Z</time>
      </trkpt>
      <trkpt lat="45.97938" lon="6.63621">
        <ele>541.4</ele>
        <time>2020-08-16T15:40:19Z</time>
      </trkpt>
      <trkpt lat="45.97931" lon="6.63628">
        <ele>541</ele>
        <time>2020-08-16T15:40:20Z</time>
      </trkpt>
      <trkpt lat="45.97924" lon="6.63635">
        <ele>540.4</ele>
        <time>2020-08-16T15:40:21Z</time>
      </trkpt>
      <trkpt lat="45.97916" lon="6.63643">
        <ele>540</ele>
        <time>2020-08-16T15:40:22Z</time>
      </trkpt>
      <trkpt lat="45.97909" lon="6.63651">
        <ele>540</ele>
        <time>2020-08-16T15:40:23Z</time>
      </trkpt>
      <trkpt lat="45.97901" lon="6.63659">
        <ele>539.8</ele>
        <time>2020-08-16T15:40:24Z</time>
      </trkpt>
      <trkpt lat="45.97893" lon="6.63667">
        <ele>539</ele>
        <time>2020-08-16T15:40:25Z</time>
      </trkpt>
      <trkpt lat="45.97885" lon="6.63676">
        <ele>538</ele>
        <time>2020-08-16T15:40:26Z</time>
      </trkpt>
      <trkpt lat="45.97878" lon="6.63684">
        <ele>537.8</ele>
        <time>2020-08-16T15:40:27Z</time>
      </trkpt>
      <trkpt lat="45.9787" lon="6.63692">
        <ele>537.8</ele>
        <time>2020-08-16T15:40:28Z</time>
      </trkpt>
      <trkpt lat="45.97863" lon="6.63699">
        <ele>537.2</ele>
        <time>2020-08-16T15:40:29Z</time>
      </trkpt>
      <trkpt lat="45.97855" lon="6.63706">
        <ele>536.8</ele>
        <time>2020-08-16T15:40:30Z</time>
      </trkpt>
      <trkpt lat="45.97847" lon="6.63713">
        <ele>536.6</ele>
        <time>2020-08-16T15:40:31Z</time>
      </trkpt>
      <trkpt lat="45.97839" lon="6.6372">
        <ele>536.4</ele>
        <time>2020-08-16T15:40:32Z</time>
      </trkpt>
      <trkpt lat="45.97831" lon="6.63725">
        <ele>536.4</ele>
        <time>2020-08-16T15:40:33Z</time>
      </trkpt>
      <trkpt lat="45.97824" lon="6.6373">
        <ele>536.4</ele>
        <time>2020-08-16T15:40:34Z</time>
      </trkpt>
      <trkpt lat="45.97816" lon="6.63735">
        <ele>536.4</ele>
        <time>2020-08-16T15:40:35Z</time>
      </trkpt>
      <trkpt lat="45.97808" lon="6.6374">
        <ele>536.4</ele>
        <time>2020-08-16T15:40:36Z</time>
      </trkpt>
      <trkpt lat="45.978" lon="6.63744">
        <ele>536.2</ele>
        <time>2020-08-16T15:40:37Z</time>
      </trkpt>
      <trkpt lat="45.97792" lon="6.63747">
        <ele>536.4</ele>
        <time>2020-08-16T15:40:38Z</time>
      </trkpt>
      <trkpt lat="45.97784" lon="6.6375">
        <ele>536.4</ele>
        <time>2020-08-16T15:40:39Z</time>
      </trkpt>
      <trkpt lat="45.97777" lon="6.63753">
        <ele>536.4</ele>
        <time>2020-08-16T15:40:40Z</time>
      </trkpt>
      <trkpt lat="45.97769" lon="6.63756">
        <ele>536.2</ele>
        <time>2020-08-16T15:40:41Z</time>
      </trkpt>
      <trkpt lat="45.97763" lon="6.63758">
        <ele>536.2</ele>
        <time>2020-08-16T15:40:42Z</time>
      </trkpt>
      <trkpt lat="45.97755" lon="6.6376">
        <ele>536.2</ele>
        <time>2020-08-16T15:40:43Z</time>
      </trkpt>
      <trkpt lat="45.97748" lon="6.63763">
        <ele>536.4</ele>
        <time>2020-08-16T15:40:44Z</time>
      </trkpt>
      <trkpt lat="45.97742" lon="6.63765">
        <ele>536.4</ele>
        <time>2020-08-16T15:40:45Z</time>
      </trkpt>
      <trkpt lat="45.97736" lon="6.63768">
        <ele>536.4</ele>
        <time>2020-08-16T15:40:46Z</time>
      </trkpt>
      <trkpt lat="45.97731" lon="6.6377">
        <ele>536.6</ele>
        <time>2020-08-16T15:40:47Z</time>
      </trkpt>
      <trkpt lat="45.97725" lon="6.63773">
        <ele>536.6</ele>
        <time>2020-08-16T15:40:48Z</time>
      </trkpt>
      <trkpt lat="45.9772" lon="6.63775">
        <ele>536.6</ele>
        <time>2020-08-16T15:40:49Z</time>
      </trkpt>
      <trkpt lat="45.97714" lon="6.63777">
        <ele>536.6</ele>
        <time>2020-08-16T15:40:50Z</time>
      </trkpt>
      <trkpt lat="45.97708" lon="6.63779">
        <ele>536.8</ele>
        <time>2020-08-16T15:40:51Z</time>
      </trkpt>
      <trkpt lat="45.97702" lon="6.6378">
        <ele>536.8</ele>
        <time>2020-08-16T15:40:52Z</time>
      </trkpt>
      <trkpt lat="45.97697" lon="6.63781">
        <ele>537</ele>
        <time>2020-08-16T15:40:53Z</time>
      </trkpt>
      <trkpt lat="45.97692" lon="6.63782">
        <ele>537</ele>
        <time>2020-08-16T15:40:54Z</time>
      </trkpt>
      <trkpt lat="45.97687" lon="6.63784">
        <ele>537.2</ele>
        <time>2020-08-16T15:40:55Z</time>
      </trkpt>
      <trkpt lat="45.97682" lon="6.63785">
        <ele>537.2</ele>
        <time>2020-08-16T15:40:56Z</time>
      </trkpt>
      <trkpt lat="45.97677" lon="6.63786">
        <ele>537.4</ele>
        <time>2020-08-16T15:40:57Z</time>
      </trkpt>
      <trkpt lat="45.97672" lon="6.63789">
        <ele>537.6</ele>
        <time>2020-08-16T15:40:58Z</time>
      </trkpt>
      <trkpt lat="45.97667" lon="6.63789">
        <ele>537.6</ele>
        <time>2020-08-16T15:40:59Z</time>
      </trkpt>
      <trkpt lat="45.97662" lon="6.63791">
        <ele>537.8</ele>
        <time>2020-08-16T15:41:00Z</time>
      </trkpt>
      <trkpt lat="45.97657" lon="6.63793">
        <ele>538</ele>
        <time>2020-08-16T15:41:01Z</time>
      </trkpt>
      <trkpt lat="45.97653" lon="6.63794">
        <ele>538</ele>
        <time>2020-08-16T15:41:02Z</time>
      </trkpt>
      <trkpt lat="45.97648" lon="6.63796">
        <ele>538</ele>
        <time>2020-08-16T15:41:03Z</time>
      </trkpt>
      <trkpt lat="45.97643" lon="6.63798">
        <ele>538.2</ele>
        <time>2020-08-16T15:41:04Z</time>
      </trkpt>
      <trkpt lat="45.97638" lon="6.63799">
        <ele>538.4</ele>
        <time>2020-08-16T15:41:05Z</time>
      </trkpt>
      <trkpt lat="45.97633" lon="6.63801">
        <ele>538.6</ele>
        <time>2020-08-16T15:41:06Z</time>
      </trkpt>
      <trkpt lat="45.97628" lon="6.63802">
        <ele>538.8</ele>
        <time>2020-08-16T15:41:07Z</time>
      </trkpt>
      <trkpt lat="45.97624" lon="6.63804">
        <ele>539.2</ele>
        <time>2020-08-16T15:41:08Z</time>
      </trkpt>
      <trkpt lat="45.9762" lon="6.63805">
        <ele>539.4</ele>
        <time>2020-08-16T15:41:09Z</time>
      </trkpt>
      <trkpt lat="45.97617" lon="6.63806">
        <ele>539.8</ele>
        <time>2020-08-16T15:41:10Z</time>
      </trkpt>
      <trkpt lat="45.97614" lon="6.63808">
        <ele>540</ele>
        <time>2020-08-16T15:41:11Z</time>
      </trkpt>
      <trkpt lat="45.9761" lon="6.6381">
        <ele>540.2</ele>
        <time>2020-08-16T15:41:12Z</time>
      </trkpt>
      <trkpt lat="45.97607" lon="6.63812">
        <ele>540.2</ele>
        <time>2020-08-16T15:41:13Z</time>
      </trkpt>
      <trkpt lat="45.97604" lon="6.63813">
        <ele>540</ele>
        <time>2020-08-16T15:41:14Z</time>
      </trkpt>
      <trkpt lat="45.97601" lon="6.63815">
        <ele>540</ele>
        <time>2020-08-16T15:41:15Z</time>
      </trkpt>
      <trkpt lat="45.97595" lon="6.63818">
        <ele>539.8</ele>
        <time>2020-08-16T15:41:16Z</time>
      </trkpt>
      <trkpt lat="45.97591" lon="6.6382">
        <ele>539.6</ele>
        <time>2020-08-16T15:41:17Z</time>
      </trkpt>
      <trkpt lat="45.97586" lon="6.63823">
        <ele>539.6</ele>
        <time>2020-08-16T15:41:18Z</time>
      </trkpt>
      <trkpt lat="45.9758" lon="6.63827">
        <ele>539.4</ele>
        <time>2020-08-16T15:41:19Z</time>
      </trkpt>
      <trkpt lat="45.97575" lon="6.63829">
        <ele>539.6</ele>
        <time>2020-08-16T15:41:20Z</time>
      </trkpt>
      <trkpt lat="45.9757" lon="6.63832">
        <ele>539.6</ele>
        <time>2020-08-16T15:41:21Z</time>
      </trkpt>
      <trkpt lat="45.97564" lon="6.63834">
        <ele>539.4</ele>
        <time>2020-08-16T15:41:22Z</time>
      </trkpt>
      <trkpt lat="45.97559" lon="6.63838">
        <ele>539.4</ele>
        <time>2020-08-16T15:41:23Z</time>
      </trkpt>
      <trkpt lat="45.97554" lon="6.63841">
        <ele>539.4</ele>
        <time>2020-08-16T15:41:24Z</time>
      </trkpt>
      <trkpt lat="45.9755" lon="6.63844">
        <ele>539.2</ele>
        <time>2020-08-16T15:41:25Z</time>
      </trkpt>
      <trkpt lat="45.97546" lon="6.63844">
        <ele>539.2</ele>
        <time>2020-08-16T15:41:26Z</time>
      </trkpt>
      <trkpt lat="45.97541" lon="6.63846">
        <ele>539.2</ele>
        <time>2020-08-16T15:41:27Z</time>
      </trkpt>
      <trkpt lat="45.97537" lon="6.63848">
        <ele>539.2</ele>
        <time>2020-08-16T15:41:28Z</time>
      </trkpt>
      <trkpt lat="45.97534" lon="6.63849">
        <ele>539.2</ele>
        <time>2020-08-16T15:41:29Z</time>
      </trkpt>
      <trkpt lat="45.9753" lon="6.6385">
        <ele>539.2</ele>
        <time>2020-08-16T15:41:30Z</time>
      </trkpt>
      <trkpt lat="45.97527" lon="6.63851">
        <ele>539</ele>
        <time>2020-08-16T15:41:31Z</time>
      </trkpt>
      <trkpt lat="45.97523" lon="6.63852">
        <ele>539</ele>
        <time>2020-08-16T15:41:32Z</time>
      </trkpt>
      <trkpt lat="45.9752" lon="6.63853">
        <ele>539</ele>
        <time>2020-08-16T15:41:33Z</time>
      </trkpt>
      <trkpt lat="45.97516" lon="6.63854">
        <ele>539</ele>
        <time>2020-08-16T15:41:34Z</time>
      </trkpt>
      <trkpt lat="45.97512" lon="6.63856">
        <ele>538.8</ele>
        <time>2020-08-16T15:41:35Z</time>
      </trkpt>
      <trkpt lat="45.97508" lon="6.63857">
        <ele>538.8</ele>
        <time>2020-08-16T15:41:36Z</time>
      </trkpt>
      <trkpt lat="45.97505" lon="6.63858">
        <ele>538.8</ele>
        <time>2020-08-16T15:41:37Z</time>
      </trkpt>
      <trkpt lat="45.97501" lon="6.63859">
        <ele>538.8</ele>
        <time>2020-08-16T15:41:38Z</time>
      </trkpt>
      <trkpt lat="45.97497" lon="6.6386">
        <ele>539</ele>
        <time>2020-08-16T15:41:39Z</time>
      </trkpt>
      <trkpt lat="45.97494" lon="6.63861">
        <ele>539.2</ele>
        <time>2020-08-16T15:41:40Z</time>
      </trkpt>
      <trkpt lat="45.97491" lon="6.63863">
        <ele>539.2</ele>
        <time>2020-08-16T15:41:41Z</time>
      </trkpt>
      <trkpt lat="45.97487" lon="6.63864">
        <ele>539.2</ele>
        <time>2020-08-16T15:41:42Z</time>
      </trkpt>
      <trkpt lat="45.97484" lon="6.63864">
        <ele>539</ele>
        <time>2020-08-16T15:41:43Z</time>
      </trkpt>
      <trkpt lat="45.97482" lon="6.63864">
        <ele>538.8</ele>
        <time>2020-08-16T15:41:44Z</time>
      </trkpt>
      <trkpt lat="45.97478" lon="6.63864">
        <ele>538.8</ele>
        <time>2020-08-16T15:41:45Z</time>
      </trkpt>
      <trkpt lat="45.97476" lon="6.63865">
        <ele>538.8</ele>
        <time>2020-08-16T15:41:46Z</time>
      </trkpt>
      <trkpt lat="45.97473" lon="6.63866">
        <ele>538.8</ele>
        <time>2020-08-16T15:41:47Z</time>
      </trkpt>
      <trkpt lat="45.9747" lon="6.63867">
        <ele>538.8</ele>
        <time>2020-08-16T15:41:48Z</time>
      </trkpt>
      <trkpt lat="45.97467" lon="6.63867">
        <ele>538.8</ele>
        <time>2020-08-16T15:41:49Z</time>
      </trkpt>
      <trkpt lat="45.97465" lon="6.63869">
        <ele>539</ele>
        <time>2020-08-16T15:41:50Z</time>
      </trkpt>
      <trkpt lat="45.97464" lon="6.63871">
        <ele>539</ele>
        <time>2020-08-16T15:41:51Z</time>
      </trkpt>
      <trkpt lat="45.97464" lon="6.63873">
        <ele>539</ele>
        <time>2020-08-16T15:41:52Z</time>
      </trkpt>
      <trkpt lat="45.97464" lon="6.63873">
        <ele>539.2</ele>
        <time>2020-08-16T15:41:53Z</time>
      </trkpt>
      <trkpt lat="45.97464" lon="6.63873">
        <ele>538.8</ele>
        <time>2020-08-16T15:41:54Z</time>
      </trkpt>
      <trkpt lat="45.97464" lon="6.63873">
        <ele>539</ele>
        <time>2020-08-16T15:41:55Z</time>
      </trkpt>
      <trkpt lat="45.97464" lon="6.63873">
        <ele>539</ele>
        <time>2020-08-16T15:41:56Z</time>
      </trkpt>
      <trkpt lat="45.97464" lon="6.63873">
        <ele>539.2</ele>
        <time>2020-08-16T15:41:57Z</time>
      </trkpt>
      <trkpt lat="45.97463" lon="6.63873">
        <ele>539</ele>
        <time>2020-08-16T15:41:58Z</time>
      </trkpt>
      <trkpt lat="45.97463" lon="6.63873">
        <ele>539</ele>
        <time>2020-08-16T15:41:59Z</time>
      </trkpt>
      <trkpt lat="45.97463" lon="6.63873">
        <ele>539</ele>
        <time>2020-08-16T15:42:00Z</time>
      </trkpt>
      <trkpt lat="45.97447" lon="6.6387">
        <ele>538.6</ele>
        <time>2020-08-16T15:42:29Z</time>
      </trkpt>
      <trkpt lat="45.97445" lon="6.6387">
        <ele>538.6</ele>
        <time>2020-08-16T15:42:31Z</time>
      </trkpt>
      <trkpt lat="45.97439" lon="6.63871">
        <ele>538.6</ele>
        <time>2020-08-16T15:42:32Z</time>
      </trkpt>
      <trkpt lat="45.97437" lon="6.63871">
        <ele>538.8</ele>
        <time>2020-08-16T15:42:33Z</time>
      </trkpt>
      <trkpt lat="45.97434" lon="6.63873">
        <ele>538.6</ele>
        <time>2020-08-16T15:42:34Z</time>
      </trkpt>
      <trkpt lat="45.97431" lon="6.63875">
        <ele>538.8</ele>
        <time>2020-08-16T15:42:35Z</time>
      </trkpt>
      <trkpt lat="45.9743" lon="6.63879">
        <ele>538.8</ele>
        <time>2020-08-16T15:42:36Z</time>
      </trkpt>
      <trkpt lat="45.97429" lon="6.63882">
        <ele>538.8</ele>
        <time>2020-08-16T15:42:37Z</time>
      </trkpt>
      <trkpt lat="45.97429" lon="6.63886">
        <ele>539</ele>
        <time>2020-08-16T15:42:38Z</time>
      </trkpt>
      <trkpt lat="45.97429" lon="6.63889">
        <ele>539</ele>
        <time>2020-08-16T15:42:39Z</time>
      </trkpt>
      <trkpt lat="45.9743" lon="6.63892">
        <ele>539.2</ele>
        <time>2020-08-16T15:42:40Z</time>
      </trkpt>
      <trkpt lat="45.9743" lon="6.63895">
        <ele>539.2</ele>
        <time>2020-08-16T15:42:41Z</time>
      </trkpt>
      <trkpt lat="45.9743" lon="6.63899">
        <ele>539.2</ele>
        <time>2020-08-16T15:42:42Z</time>
      </trkpt>
      <trkpt lat="45.9743" lon="6.63902">
        <ele>539.4</ele>
        <time>2020-08-16T15:42:43Z</time>
      </trkpt>
      <trkpt lat="45.97431" lon="6.63904">
        <ele>539.4</ele>
        <time>2020-08-16T15:42:44Z</time>
      </trkpt>
      <trkpt lat="45.97431" lon="6.63907">
        <ele>539.4</ele>
        <time>2020-08-16T15:42:45Z</time>
      </trkpt>
      <trkpt lat="45.97432" lon="6.6391">
        <ele>539.6</ele>
        <time>2020-08-16T15:42:46Z</time>
      </trkpt>
      <trkpt lat="45.97432" lon="6.63913">
        <ele>539.6</ele>
        <time>2020-08-16T15:42:47Z</time>
      </trkpt>
      <trkpt lat="45.97433" lon="6.63916">
        <ele>539.6</ele>
        <time>2020-08-16T15:42:48Z</time>
      </trkpt>
      <trkpt lat="45.97433" lon="6.63918">
        <ele>539.8</ele>
        <time>2020-08-16T15:42:49Z</time>
      </trkpt>
      <trkpt lat="45.97434" lon="6.63922">
        <ele>539.8</ele>
        <time>2020-08-16T15:42:50Z</time>
      </trkpt>
      <trkpt lat="45.97435" lon="6.63925">
        <ele>539.8</ele>
        <time>2020-08-16T15:42:51Z</time>
      </trkpt>
      <trkpt lat="45.97436" lon="6.63928">
        <ele>540</ele>
        <time>2020-08-16T15:42:52Z</time>
      </trkpt>
      <trkpt lat="45.97437" lon="6.63931">
        <ele>540</ele>
        <time>2020-08-16T15:42:53Z</time>
      </trkpt>
      <trkpt lat="45.97439" lon="6.63934">
        <ele>540.2</ele>
        <time>2020-08-16T15:42:54Z</time>
      </trkpt>
      <trkpt lat="45.97439" lon="6.63937">
        <ele>540.2</ele>
        <time>2020-08-16T15:42:55Z</time>
      </trkpt>
      <trkpt lat="45.9744" lon="6.6394">
        <ele>540.4</ele>
        <time>2020-08-16T15:42:56Z</time>
      </trkpt>
      <trkpt lat="45.97441" lon="6.63943">
        <ele>540.6</ele>
        <time>2020-08-16T15:42:57Z</time>
      </trkpt>
      <trkpt lat="45.97441" lon="6.63946">
        <ele>540.8</ele>
        <time>2020-08-16T15:42:58Z</time>
      </trkpt>
      <trkpt lat="45.97442" lon="6.63948">
        <ele>541</ele>
        <time>2020-08-16T15:42:59Z</time>
      </trkpt>
      <trkpt lat="45.97443" lon="6.63951">
        <ele>541</ele>
        <time>2020-08-16T15:43:00Z</time>
      </trkpt>
      <trkpt lat="45.97444" lon="6.63955">
        <ele>541.2</ele>
        <time>2020-08-16T15:43:01Z</time>
      </trkpt>
      <trkpt lat="45.97445" lon="6.63957">
        <ele>541.4</ele>
        <time>2020-08-16T15:43:02Z</time>
      </trkpt>
      <trkpt lat="45.97445" lon="6.6396">
        <ele>541.6</ele>
        <time>2020-08-16T15:43:03Z</time>
      </trkpt>
      <trkpt lat="45.97446" lon="6.63962">
        <ele>541.6</ele>
        <time>2020-08-16T15:43:04Z</time>
      </trkpt>
      <trkpt lat="45.97447" lon="6.63964">
        <ele>541.8</ele>
        <time>2020-08-16T15:43:05Z</time>
      </trkpt>
      <trkpt lat="45.97448" lon="6.63966">
        <ele>542</ele>
        <time>2020-08-16T15:43:06Z</time>
      </trkpt>
      <trkpt lat="45.97448" lon="6.63969">
        <ele>542.2</ele>
        <time>2020-08-16T15:43:07Z</time>
      </trkpt>
      <trkpt lat="45.97449" lon="6.6397">
        <ele>542.2</ele>
        <time>2020-08-16T15:43:08Z</time>
      </trkpt>
      <trkpt lat="45.97451" lon="6.63972">
        <ele>542.2</ele>
        <time>2020-08-16T15:43:09Z</time>
      </trkpt>
      <trkpt lat="45.97452" lon="6.63973">
        <ele>542.2</ele>
        <time>2020-08-16T15:43:10Z</time>
      </trkpt>
      <trkpt lat="45.97455" lon="6.63974">
        <ele>542.4</ele>
        <time>2020-08-16T15:43:11Z</time>
      </trkpt>
      <trkpt lat="45.97457" lon="6.63976">
        <ele>542.4</ele>
        <time>2020-08-16T15:43:12Z</time>
      </trkpt>
      <trkpt lat="45.9746" lon="6.63978">
        <ele>542.4</ele>
        <time>2020-08-16T15:43:13Z</time>
      </trkpt>
      <trkpt lat="45.97462" lon="6.6398">
        <ele>542.6</ele>
        <time>2020-08-16T15:43:14Z</time>
      </trkpt>
      <trkpt lat="45.97464" lon="6.63981">
        <ele>542.8</ele>
        <time>2020-08-16T15:43:15Z</time>
      </trkpt>
      <trkpt lat="45.97465" lon="6.63983">
        <ele>542.8</ele>
        <time>2020-08-16T15:43:16Z</time>
      </trkpt>
      <trkpt lat="45.97467" lon="6.63985">
        <ele>543</ele>
        <time>2020-08-16T15:43:17Z</time>
      </trkpt>
      <trkpt lat="45.97469" lon="6.63986">
        <ele>543</ele>
        <time>2020-08-16T15:43:18Z</time>
      </trkpt>
      <trkpt lat="45.9747" lon="6.63988">
        <ele>543.2</ele>
        <time>2020-08-16T15:43:19Z</time>
      </trkpt>
      <trkpt lat="45.97472" lon="6.6399">
        <ele>543.2</ele>
        <time>2020-08-16T15:43:20Z</time>
      </trkpt>
      <trkpt lat="45.97474" lon="6.63991">
        <ele>543.2</ele>
        <time>2020-08-16T15:43:21Z</time>
      </trkpt>
      <trkpt lat="45.97475" lon="6.63992">
        <ele>543.2</ele>
        <time>2020-08-16T15:43:22Z</time>
      </trkpt>
      <trkpt lat="45.97476" lon="6.63994">
        <ele>543.2</ele>
        <time>2020-08-16T15:43:23Z</time>
      </trkpt>
      <trkpt lat="45.97478" lon="6.63996">
        <ele>543.2</ele>
        <time>2020-08-16T15:43:24Z</time>
      </trkpt>
      <trkpt lat="45.97479" lon="6.63998">
        <ele>543.4</ele>
        <time>2020-08-16T15:43:25Z</time>
      </trkpt>
      <trkpt lat="45.97481" lon="6.63999">
        <ele>543.4</ele>
        <time>2020-08-16T15:43:26Z</time>
      </trkpt>
      <trkpt lat="45.97483" lon="6.64">
        <ele>543.6</ele>
        <time>2020-08-16T15:43:27Z</time>
      </trkpt>
      <trkpt lat="45.97484" lon="6.64001">
        <ele>543.8</ele>
        <time>2020-08-16T15:43:28Z</time>
      </trkpt>
      <trkpt lat="45.97486" lon="6.64002">
        <ele>544</ele>
        <time>2020-08-16T15:43:29Z</time>
      </trkpt>
      <trkpt lat="45.97487" lon="6.64003">
        <ele>544.2</ele>
        <time>2020-08-16T15:43:30Z</time>
      </trkpt>
      <trkpt lat="45.97489" lon="6.64005">
        <ele>544.2</ele>
        <time>2020-08-16T15:43:31Z</time>
      </trkpt>
      <trkpt lat="45.97491" lon="6.64006">
        <ele>544.6</ele>
        <time>2020-08-16T15:43:32Z</time>
      </trkpt>
      <trkpt lat="45.97492" lon="6.64006">
        <ele>544.8</ele>
        <time>2020-08-16T15:43:33Z</time>
      </trkpt>
      <trkpt lat="45.97494" lon="6.64007">
        <ele>545</ele>
        <time>2020-08-16T15:43:34Z</time>
      </trkpt>
      <trkpt lat="45.97495" lon="6.64009">
        <ele>545</ele>
        <time>2020-08-16T15:43:35Z</time>
      </trkpt>
      <trkpt lat="45.97496" lon="6.6401">
        <ele>545.2</ele>
        <time>2020-08-16T15:43:36Z</time>
      </trkpt>
      <trkpt lat="45.97497" lon="6.64011">
        <ele>545.2</ele>
        <time>2020-08-16T15:43:37Z</time>
      </trkpt>
      <trkpt lat="45.97499" lon="6.64013">
        <ele>545.4</ele>
        <time>2020-08-16T15:43:38Z</time>
      </trkpt>
      <trkpt lat="45.975" lon="6.64014">
        <ele>545.4</ele>
        <time>2020-08-16T15:43:39Z</time>
      </trkpt>
      <trkpt lat="45.97501" lon="6.64015">
        <ele>545.6</ele>
        <time>2020-08-16T15:43:40Z</time>
      </trkpt>
      <trkpt lat="45.97502" lon="6.64016">
        <ele>545.6</ele>
        <time>2020-08-16T15:43:41Z</time>
      </trkpt>
      <trkpt lat="45.97503" lon="6.64018">
        <ele>545.8</ele>
        <time>2020-08-16T15:43:42Z</time>
      </trkpt>
      <trkpt lat="45.97504" lon="6.6402">
        <ele>545.8</ele>
        <time>2020-08-16T15:43:43Z</time>
      </trkpt>
      <trkpt lat="45.97505" lon="6.64021">
        <ele>545.8</ele>
        <time>2020-08-16T15:43:44Z</time>
      </trkpt>
      <trkpt lat="45.97505" lon="6.64023">
        <ele>545.8</ele>
        <time>2020-08-16T15:43:45Z</time>
      </trkpt>
      <trkpt lat="45.97506" lon="6.64024">
        <ele>545.8</ele>
        <time>2020-08-16T15:43:46Z</time>
      </trkpt>
      <trkpt lat="45.97508" lon="6.64025">
        <ele>545.8</ele>
        <time>2020-08-16T15:43:47Z</time>
      </trkpt>
      <trkpt lat="45.97509" lon="6.64027">
        <ele>546</ele>
        <time>2020-08-16T15:43:48Z</time>
      </trkpt>
      <trkpt lat="45.9751" lon="6.64027">
        <ele>546</ele>
        <time>2020-08-16T15:43:49Z</time>
      </trkpt>
      <trkpt lat="45.9751" lon="6.64028">
        <ele>546</ele>
        <time>2020-08-16T15:43:50Z</time>
      </trkpt>
      <trkpt lat="45.9751" lon="6.64028">
        <ele>546.2</ele>
        <time>2020-08-16T15:43:51Z</time>
      </trkpt>
      <trkpt lat="45.9751" lon="6.64029">
        <ele>546.2</ele>
        <time>2020-08-16T15:43:52Z</time>
      </trkpt>
      <trkpt lat="45.97511" lon="6.6403">
        <ele>546.2</ele>
        <time>2020-08-16T15:43:53Z</time>
      </trkpt>
      <trkpt lat="45.97512" lon="6.64032">
        <ele>546.4</ele>
        <time>2020-08-16T15:43:54Z</time>
      </trkpt>
      <trkpt lat="45.97514" lon="6.64033">
        <ele>546.6</ele>
        <time>2020-08-16T15:43:55Z</time>
      </trkpt>
      <trkpt lat="45.97515" lon="6.64035">
        <ele>546.6</ele>
        <time>2020-08-16T15:43:56Z</time>
      </trkpt>
      <trkpt lat="45.97514" lon="6.64035">
        <ele>546.8</ele>
        <time>2020-08-16T15:43:57Z</time>
      </trkpt>
      <trkpt lat="45.97515" lon="6.64037">
        <ele>547</ele>
        <time>2020-08-16T15:43:58Z</time>
      </trkpt>
      <trkpt lat="45.97515" lon="6.64038">
        <ele>547.4</ele>
        <time>2020-08-16T15:43:59Z</time>
      </trkpt>
      <trkpt lat="45.97515" lon="6.6404">
        <ele>547.8</ele>
        <time>2020-08-16T15:44:00Z</time>
      </trkpt>
      <trkpt lat="45.97516" lon="6.64042">
        <ele>548.2</ele>
        <time>2020-08-16T15:44:01Z</time>
      </trkpt>
      <trkpt lat="45.97518" lon="6.64042">
        <ele>548.4</ele>
        <time>2020-08-16T15:44:02Z</time>
      </trkpt>
      <trkpt lat="45.97519" lon="6.64043">
        <ele>548.4</ele>
        <time>2020-08-16T15:44:03Z</time>
      </trkpt>
      <trkpt lat="45.97522" lon="6.64046">
        <ele>548.6</ele>
        <time>2020-08-16T15:44:04Z</time>
      </trkpt>
      <trkpt lat="45.97522" lon="6.64046">
        <ele>548.6</ele>
        <time>2020-08-16T15:44:05Z</time>
      </trkpt>
      <trkpt lat="45.97522" lon="6.64046">
        <ele>548.6</ele>
        <time>2020-08-16T15:44:06Z</time>
      </trkpt>
      <trkpt lat="45.97522" lon="6.64046">
        <ele>548.6</ele>
        <time>2020-08-16T15:44:07Z</time>
      </trkpt>
      <trkpt lat="45.97522" lon="6.64046">
        <ele>548.4</ele>
        <time>2020-08-16T15:44:08Z</time>
      </trkpt>
      <trkpt lat="45.97522" lon="6.64046">
        <ele>548.4</ele>
        <time>2020-08-16T15:44:09Z</time>
      </trkpt>
      <trkpt lat="45.97524" lon="6.64047">
        <ele>548.4</ele>
        <time>2020-08-16T15:44:11Z</time>
      </trkpt>
      <trkpt lat="45.97503" lon="6.64035">
        <ele>545.8</ele>
        <time>2020-08-16T15:57:20Z</time>
      </trkpt>
      <trkpt lat="45.97502" lon="6.64032">
        <ele>545.6</ele>
        <time>2020-08-16T15:57:22Z</time>
      </trkpt>
      <trkpt lat="45.975" lon="6.64028">
        <ele>545.4</ele>
        <time>2020-08-16T15:57:23Z</time>
      </trkpt>
      <trkpt lat="45.97498" lon="6.64026">
        <ele>545.2</ele>
        <time>2020-08-16T15:57:24Z</time>
      </trkpt>
      <trkpt lat="45.97496" lon="6.64024">
        <ele>545</ele>
        <time>2020-08-16T15:57:25Z</time>
      </trkpt>
      <trkpt lat="45.97494" lon="6.64022">
        <ele>544.8</ele>
        <time>2020-08-16T15:57:26Z</time>
      </trkpt>
      <trkpt lat="45.97492" lon="6.6402">
        <ele>544.8</ele>
        <time>2020-08-16T15:57:27Z</time>
      </trkpt>
      <trkpt lat="45.9749" lon="6.64018">
        <ele>544.8</ele>
        <time>2020-08-16T15:57:28Z</time>
      </trkpt>
      <trkpt lat="45.97489" lon="6.64016">
        <ele>544.6</ele>
        <time>2020-08-16T15:57:29Z</time>
      </trkpt>
      <trkpt lat="45.97487" lon="6.64014">
        <ele>544.4</ele>
        <time>2020-08-16T15:57:30Z</time>
      </trkpt>
      <trkpt lat="45.97485" lon="6.64012">
        <ele>544.2</ele>
        <time>2020-08-16T15:57:31Z</time>
      </trkpt>
      <trkpt lat="45.97483" lon="6.6401">
        <ele>544</ele>
        <time>2020-08-16T15:57:32Z</time>
      </trkpt>
      <trkpt lat="45.97481" lon="6.64008">
        <ele>543.8</ele>
        <time>2020-08-16T15:57:33Z</time>
      </trkpt>
      <trkpt lat="45.97479" lon="6.64006">
        <ele>543.6</ele>
        <time>2020-08-16T15:57:34Z</time>
      </trkpt>
      <trkpt lat="45.97477" lon="6.64004">
        <ele>543.4</ele>
        <time>2020-08-16T15:57:35Z</time>
      </trkpt>
      <trkpt lat="45.97474" lon="6.64002">
        <ele>543.4</ele>
        <time>2020-08-16T15:57:36Z</time>
      </trkpt>
      <trkpt lat="45.97473" lon="6.63999">
        <ele>543.2</ele>
        <time>2020-08-16T15:57:37Z</time>
      </trkpt>
      <trkpt lat="45.9747" lon="6.63997">
        <ele>543</ele>
        <time>2020-08-16T15:57:38Z</time>
      </trkpt>
      <trkpt lat="45.97468" lon="6.63994">
        <ele>543</ele>
        <time>2020-08-16T15:57:39Z</time>
      </trkpt>
      <trkpt lat="45.97466" lon="6.63991">
        <ele>542.8</ele>
        <time>2020-08-16T15:57:40Z</time>
      </trkpt>
      <trkpt lat="45.97463" lon="6.63989">
        <ele>542.6</ele>
        <time>2020-08-16T15:57:41Z</time>
      </trkpt>
      <trkpt lat="45.97461" lon="6.63987">
        <ele>542.4</ele>
        <time>2020-08-16T15:57:42Z</time>
      </trkpt>
      <trkpt lat="45.97458" lon="6.63986">
        <ele>542.4</ele>
        <time>2020-08-16T15:57:43Z</time>
      </trkpt>
      <trkpt lat="45.97455" lon="6.63985">
        <ele>542.2</ele>
        <time>2020-08-16T15:57:44Z</time>
      </trkpt>
      <trkpt lat="45.97453" lon="6.63983">
        <ele>542.2</ele>
        <time>2020-08-16T15:57:45Z</time>
      </trkpt>
      <trkpt lat="45.97452" lon="6.63982">
        <ele>542.2</ele>
        <time>2020-08-16T15:57:46Z</time>
      </trkpt>
      <trkpt lat="45.9745" lon="6.63978">
        <ele>542.2</ele>
        <time>2020-08-16T15:57:47Z</time>
      </trkpt>
      <trkpt lat="45.97449" lon="6.63975">
        <ele>542</ele>
        <time>2020-08-16T15:57:48Z</time>
      </trkpt>
      <trkpt lat="45.97448" lon="6.63972">
        <ele>541.8</ele>
        <time>2020-08-16T15:57:49Z</time>
      </trkpt>
      <trkpt lat="45.97448" lon="6.63968">
        <ele>541.6</ele>
        <time>2020-08-16T15:57:50Z</time>
      </trkpt>
      <trkpt lat="45.97447" lon="6.63964">
        <ele>541.4</ele>
        <time>2020-08-16T15:57:51Z</time>
      </trkpt>
      <trkpt lat="45.97445" lon="6.63961">
        <ele>541.2</ele>
        <time>2020-08-16T15:57:52Z</time>
      </trkpt>
      <trkpt lat="45.97444" lon="6.63957">
        <ele>541</ele>
        <time>2020-08-16T15:57:53Z</time>
      </trkpt>
      <trkpt lat="45.97443" lon="6.63952">
        <ele>540.8</ele>
        <time>2020-08-16T15:57:54Z</time>
      </trkpt>
      <trkpt lat="45.97443" lon="6.63949">
        <ele>540.6</ele>
        <time>2020-08-16T15:57:55Z</time>
      </trkpt>
      <trkpt lat="45.97442" lon="6.63945">
        <ele>540.4</ele>
        <time>2020-08-16T15:57:56Z</time>
      </trkpt>
      <trkpt lat="45.9744" lon="6.6394">
        <ele>540.4</ele>
        <time>2020-08-16T15:57:57Z</time>
      </trkpt>
      <trkpt lat="45.97439" lon="6.63937">
        <ele>540.4</ele>
        <time>2020-08-16T15:57:58Z</time>
      </trkpt>
      <trkpt lat="45.97438" lon="6.63934">
        <ele>540.2</ele>
        <time>2020-08-16T15:57:59Z</time>
      </trkpt>
      <trkpt lat="45.97437" lon="6.63929">
        <ele>540</ele>
        <time>2020-08-16T15:58:00Z</time>
      </trkpt>
      <trkpt lat="45.97436" lon="6.63925">
        <ele>540</ele>
        <time>2020-08-16T15:58:01Z</time>
      </trkpt>
      <trkpt lat="45.97436" lon="6.6392">
        <ele>540</ele>
        <time>2020-08-16T15:58:02Z</time>
      </trkpt>
      <trkpt lat="45.97435" lon="6.63915">
        <ele>539.8</ele>
        <time>2020-08-16T15:58:03Z</time>
      </trkpt>
      <trkpt lat="45.97435" lon="6.6391">
        <ele>539.6</ele>
        <time>2020-08-16T15:58:04Z</time>
      </trkpt>
      <trkpt lat="45.97435" lon="6.63904">
        <ele>539.6</ele>
        <time>2020-08-16T15:58:05Z</time>
      </trkpt>
      <trkpt lat="45.97434" lon="6.63897">
        <ele>539.6</ele>
        <time>2020-08-16T15:58:06Z</time>
      </trkpt>
      <trkpt lat="45.97433" lon="6.63891">
        <ele>539.4</ele>
        <time>2020-08-16T15:58:07Z</time>
      </trkpt>
      <trkpt lat="45.97431" lon="6.63885">
        <ele>539.2</ele>
        <time>2020-08-16T15:58:08Z</time>
      </trkpt>
      <trkpt lat="45.97427" lon="6.63881">
        <ele>539.2</ele>
        <time>2020-08-16T15:58:09Z</time>
      </trkpt>
      <trkpt lat="45.97423" lon="6.6388">
        <ele>539</ele>
        <time>2020-08-16T15:58:10Z</time>
      </trkpt>
      <trkpt lat="45.97419" lon="6.63879">
        <ele>539</ele>
        <time>2020-08-16T15:58:11Z</time>
      </trkpt>
      <trkpt lat="45.97414" lon="6.63878">
        <ele>539</ele>
        <time>2020-08-16T15:58:12Z</time>
      </trkpt>
      <trkpt lat="45.9741" lon="6.63877">
        <ele>538.8</ele>
        <time>2020-08-16T15:58:13Z</time>
      </trkpt>
      <trkpt lat="45.97406" lon="6.63876">
        <ele>538.8</ele>
        <time>2020-08-16T15:58:14Z</time>
      </trkpt>
      <trkpt lat="45.97402" lon="6.63874">
        <ele>538.8</ele>
        <time>2020-08-16T15:58:15Z</time>
      </trkpt>
      <trkpt lat="45.97398" lon="6.63874">
        <ele>538.8</ele>
        <time>2020-08-16T15:58:16Z</time>
      </trkpt>
      <trkpt lat="45.97393" lon="6.63874">
        <ele>538.8</ele>
        <time>2020-08-16T15:58:17Z</time>
      </trkpt>
      <trkpt lat="45.97389" lon="6.63873">
        <ele>538.8</ele>
        <time>2020-08-16T15:58:18Z</time>
      </trkpt>
      <trkpt lat="45.97386" lon="6.63872">
        <ele>538.6</ele>
        <time>2020-08-16T15:58:19Z</time>
      </trkpt>
      <trkpt lat="45.97382" lon="6.63871">
        <ele>538.6</ele>
        <time>2020-08-16T15:58:20Z</time>
      </trkpt>
      <trkpt lat="45.97378" lon="6.63869">
        <ele>538.6</ele>
        <time>2020-08-16T15:58:21Z</time>
      </trkpt>
      <trkpt lat="45.97373" lon="6.63867">
        <ele>538.4</ele>
        <time>2020-08-16T15:58:22Z</time>
      </trkpt>
      <trkpt lat="45.97369" lon="6.63865">
        <ele>538.4</ele>
        <time>2020-08-16T15:58:23Z</time>
      </trkpt>
      <trkpt lat="45.97365" lon="6.63863">
        <ele>538.4</ele>
        <time>2020-08-16T15:58:24Z</time>
      </trkpt>
      <trkpt lat="45.97362" lon="6.63861">
        <ele>538.4</ele>
        <time>2020-08-16T15:58:25Z</time>
      </trkpt>
      <trkpt lat="45.97358" lon="6.6386">
        <ele>538.2</ele>
        <time>2020-08-16T15:58:26Z</time>
      </trkpt>
      <trkpt lat="45.97354" lon="6.63859">
        <ele>538.2</ele>
        <time>2020-08-16T15:58:27Z</time>
      </trkpt>
      <trkpt lat="45.9735" lon="6.63858">
        <ele>538.2</ele>
        <time>2020-08-16T15:58:28Z</time>
      </trkpt>
      <trkpt lat="45.97346" lon="6.63856">
        <ele>538.4</ele>
        <time>2020-08-16T15:58:29Z</time>
      </trkpt>
      <trkpt lat="45.97341" lon="6.63855">
        <ele>538.4</ele>
        <time>2020-08-16T15:58:30Z</time>
      </trkpt>
      <trkpt lat="45.97337" lon="6.63853">
        <ele>538.4</ele>
        <time>2020-08-16T15:58:31Z</time>
      </trkpt>
      <trkpt lat="45.97333" lon="6.63851">
        <ele>538.4</ele>
        <time>2020-08-16T15:58:32Z</time>
      </trkpt>
      <trkpt lat="45.97329" lon="6.6385">
        <ele>538.2</ele>
        <time>2020-08-16T15:58:33Z</time>
      </trkpt>
      <trkpt lat="45.97324" lon="6.63848">
        <ele>538.2</ele>
        <time>2020-08-16T15:58:34Z</time>
      </trkpt>
      <trkpt lat="45.9732" lon="6.63847">
        <ele>538.4</ele>
        <time>2020-08-16T15:58:35Z</time>
      </trkpt>
      <trkpt lat="45.97316" lon="6.63845">
        <ele>538.4</ele>
        <time>2020-08-16T15:58:36Z</time>
      </trkpt>
      <trkpt lat="45.97311" lon="6.63844">
        <ele>538.4</ele>
        <time>2020-08-16T15:58:37Z</time>
      </trkpt>
      <trkpt lat="45.97307" lon="6.63842">
        <ele>538.4</ele>
        <time>2020-08-16T15:58:38Z</time>
      </trkpt>
      <trkpt lat="45.97302" lon="6.6384">
        <ele>538.4</ele>
        <time>2020-08-16T15:58:39Z</time>
      </trkpt>
      <trkpt lat="45.97297" lon="6.63839">
        <ele>538.4</ele>
        <time>2020-08-16T15:58:40Z</time>
      </trkpt>
      <trkpt lat="45.97293" lon="6.63837">
        <ele>538.2</ele>
        <time>2020-08-16T15:58:41Z</time>
      </trkpt>
      <trkpt lat="45.97288" lon="6.63836">
        <ele>538.2</ele>
        <time>2020-08-16T15:58:42Z</time>
      </trkpt>
      <trkpt lat="45.97284" lon="6.63834">
        <ele>538.2</ele>
        <time>2020-08-16T15:58:43Z</time>
      </trkpt>
      <trkpt lat="45.97279" lon="6.63833">
        <ele>538.2</ele>
        <time>2020-08-16T15:58:44Z</time>
      </trkpt>
      <trkpt lat="45.97274" lon="6.63831">
        <ele>538.2</ele>
        <time>2020-08-16T15:58:45Z</time>
      </trkpt>
      <trkpt lat="45.97269" lon="6.6383">
        <ele>538</ele>
        <time>2020-08-16T15:58:46Z</time>
      </trkpt>
      <trkpt lat="45.97265" lon="6.63829">
        <ele>538</ele>
        <time>2020-08-16T15:58:47Z</time>
      </trkpt>
      <trkpt lat="45.97261" lon="6.63828">
        <ele>538.2</ele>
        <time>2020-08-16T15:58:48Z</time>
      </trkpt>
      <trkpt lat="45.97257" lon="6.63827">
        <ele>538.4</ele>
        <time>2020-08-16T15:58:49Z</time>
      </trkpt>
      <trkpt lat="45.97253" lon="6.63826">
        <ele>538.4</ele>
        <time>2020-08-16T15:58:50Z</time>
      </trkpt>
      <trkpt lat="45.97249" lon="6.63824">
        <ele>538.6</ele>
        <time>2020-08-16T15:58:51Z</time>
      </trkpt>
      <trkpt lat="45.97246" lon="6.63823">
        <ele>538.6</ele>
        <time>2020-08-16T15:58:52Z</time>
      </trkpt>
      <trkpt lat="45.97241" lon="6.63821">
        <ele>538.8</ele>
        <time>2020-08-16T15:58:53Z</time>
      </trkpt>
      <trkpt lat="45.97237" lon="6.6382">
        <ele>538.8</ele>
        <time>2020-08-16T15:58:54Z</time>
      </trkpt>
      <trkpt lat="45.97232" lon="6.63819">
        <ele>538.8</ele>
        <time>2020-08-16T15:58:55Z</time>
      </trkpt>
      <trkpt lat="45.97228" lon="6.63818">
        <ele>538.8</ele>
        <time>2020-08-16T15:58:56Z</time>
      </trkpt>
      <trkpt lat="45.97223" lon="6.63817">
        <ele>538.8</ele>
        <time>2020-08-16T15:58:57Z</time>
      </trkpt>
      <trkpt lat="45.97218" lon="6.63815">
        <ele>538.8</ele>
        <time>2020-08-16T15:58:58Z</time>
      </trkpt>
      <trkpt lat="45.97213" lon="6.63813">
        <ele>538.8</ele>
        <time>2020-08-16T15:58:59Z</time>
      </trkpt>
      <trkpt lat="45.97209" lon="6.63811">
        <ele>538.8</ele>
        <time>2020-08-16T15:59:00Z</time>
      </trkpt>
      <trkpt lat="45.97204" lon="6.6381">
        <ele>538.8</ele>
        <time>2020-08-16T15:59:01Z</time>
      </trkpt>
      <trkpt lat="45.97199" lon="6.63808">
        <ele>538.8</ele>
        <time>2020-08-16T15:59:02Z</time>
      </trkpt>
      <trkpt lat="45.97195" lon="6.63807">
        <ele>538.8</ele>
        <time>2020-08-16T15:59:03Z</time>
      </trkpt>
      <trkpt lat="45.9719" lon="6.63805">
        <ele>538.8</ele>
        <time>2020-08-16T15:59:04Z</time>
      </trkpt>
      <trkpt lat="45.97185" lon="6.63804">
        <ele>539</ele>
        <time>2020-08-16T15:59:06Z</time>
      </trkpt>
      <trkpt lat="45.97175" lon="6.63801">
        <ele>539</ele>
        <time>2020-08-16T15:59:08Z</time>
      </trkpt>
      <trkpt lat="45.97166" lon="6.63798">
        <ele>539.2</ele>
        <time>2020-08-16T15:59:09Z</time>
      </trkpt>
      <trkpt lat="45.97161" lon="6.63797">
        <ele>539.2</ele>
        <time>2020-08-16T15:59:10Z</time>
      </trkpt>
      <trkpt lat="45.97157" lon="6.63795">
        <ele>539.2</ele>
        <time>2020-08-16T15:59:11Z</time>
      </trkpt>
      <trkpt lat="45.97153" lon="6.63794">
        <ele>539.2</ele>
        <time>2020-08-16T15:59:12Z</time>
      </trkpt>
      <trkpt lat="45.97149" lon="6.63793">
        <ele>539.2</ele>
        <time>2020-08-16T15:59:13Z</time>
      </trkpt>
      <trkpt lat="45.97145" lon="6.63792">
        <ele>539.4</ele>
        <time>2020-08-16T15:59:14Z</time>
      </trkpt>
      <trkpt lat="45.97141" lon="6.63791">
        <ele>539.4</ele>
        <time>2020-08-16T15:59:16Z</time>
      </trkpt>
      <trkpt lat="45.97132" lon="6.63788">
        <ele>539.6</ele>
        <time>2020-08-16T15:59:17Z</time>
      </trkpt>
      <trkpt lat="45.97128" lon="6.63787">
        <ele>539.8</ele>
        <time>2020-08-16T15:59:18Z</time>
      </trkpt>
      <trkpt lat="45.97125" lon="6.63786">
        <ele>540</ele>
        <time>2020-08-16T15:59:19Z</time>
      </trkpt>
      <trkpt lat="45.97121" lon="6.63784">
        <ele>540</ele>
        <time>2020-08-16T15:59:21Z</time>
      </trkpt>
      <trkpt lat="45.97115" lon="6.63781">
        <ele>540.6</ele>
        <time>2020-08-16T15:59:22Z</time>
      </trkpt>
      <trkpt lat="45.97112" lon="6.6378">
        <ele>540.8</ele>
        <time>2020-08-16T15:59:23Z</time>
      </trkpt>
      <trkpt lat="45.97108" lon="6.63779">
        <ele>540.8</ele>
        <time>2020-08-16T15:59:24Z</time>
      </trkpt>
      <trkpt lat="45.97105" lon="6.63778">
        <ele>541.2</ele>
        <time>2020-08-16T15:59:25Z</time>
      </trkpt>
      <trkpt lat="45.97103" lon="6.63777">
        <ele>541.2</ele>
        <time>2020-08-16T15:59:27Z</time>
      </trkpt>
      <trkpt lat="45.97097" lon="6.63776">
        <ele>541.4</ele>
        <time>2020-08-16T15:59:28Z</time>
      </trkpt>
      <trkpt lat="45.97094" lon="6.63775">
        <ele>541.6</ele>
        <time>2020-08-16T15:59:29Z</time>
      </trkpt>
      <trkpt lat="45.97091" lon="6.63774">
        <ele>541.6</ele>
        <time>2020-08-16T15:59:30Z</time>
      </trkpt>
      <trkpt lat="45.97088" lon="6.63773">
        <ele>541.8</ele>
        <time>2020-08-16T15:59:31Z</time>
      </trkpt>
      <trkpt lat="45.97086" lon="6.63772">
        <ele>542</ele>
        <time>2020-08-16T15:59:32Z</time>
      </trkpt>
      <trkpt lat="45.97083" lon="6.6377">
        <ele>542.2</ele>
        <time>2020-08-16T15:59:33Z</time>
      </trkpt>
      <trkpt lat="45.9708" lon="6.63769">
        <ele>542.2</ele>
        <time>2020-08-16T15:59:35Z</time>
      </trkpt>
      <trkpt lat="45.97074" lon="6.63767">
        <ele>542.4</ele>
        <time>2020-08-16T15:59:36Z</time>
      </trkpt>
      <trkpt lat="45.97071" lon="6.63766">
        <ele>542.6</ele>
        <time>2020-08-16T15:59:37Z</time>
      </trkpt>
      <trkpt lat="45.97068" lon="6.63765">
        <ele>542.6</ele>
        <time>2020-08-16T15:59:38Z</time>
      </trkpt>
      <trkpt lat="45.97065" lon="6.63764">
        <ele>543</ele>
        <time>2020-08-16T15:59:39Z</time>
      </trkpt>
      <trkpt lat="45.97062" lon="6.63763">
        <ele>543.2</ele>
        <time>2020-08-16T15:59:41Z</time>
      </trkpt>
      <trkpt lat="45.97056" lon="6.63762">
        <ele>543.6</ele>
        <time>2020-08-16T15:59:42Z</time>
      </trkpt>
      <trkpt lat="45.97054" lon="6.63761">
        <ele>543.8</ele>
        <time>2020-08-16T15:59:43Z</time>
      </trkpt>
      <trkpt lat="45.97051" lon="6.63761">
        <ele>543.8</ele>
        <time>2020-08-16T15:59:44Z</time>
      </trkpt>
      <trkpt lat="45.97048" lon="6.6376">
        <ele>544</ele>
        <time>2020-08-16T15:59:45Z</time>
      </trkpt>
      <trkpt lat="45.97045" lon="6.63759">
        <ele>544.2</ele>
        <time>2020-08-16T15:59:47Z</time>
      </trkpt>
      <trkpt lat="45.9704" lon="6.63758">
        <ele>544.6</ele>
        <time>2020-08-16T15:59:48Z</time>
      </trkpt>
      <trkpt lat="45.97037" lon="6.63757">
        <ele>544.8</ele>
        <time>2020-08-16T15:59:49Z</time>
      </trkpt>
      <trkpt lat="45.97035" lon="6.63756">
        <ele>544.8</ele>
        <time>2020-08-16T15:59:50Z</time>
      </trkpt>
      <trkpt lat="45.97032" lon="6.63755">
        <ele>545</ele>
        <time>2020-08-16T15:59:51Z</time>
      </trkpt>
      <trkpt lat="45.9703" lon="6.63754">
        <ele>545.2</ele>
        <time>2020-08-16T15:59:52Z</time>
      </trkpt>
      <trkpt lat="45.97027" lon="6.63753">
        <ele>545.2</ele>
        <time>2020-08-16T15:59:53Z</time>
      </trkpt>
      <trkpt lat="45.97025" lon="6.63752">
        <ele>545.4</ele>
        <time>2020-08-16T15:59:55Z</time>
      </trkpt>
      <trkpt lat="45.9702" lon="6.63751">
        <ele>545.8</ele>
        <time>2020-08-16T15:59:56Z</time>
      </trkpt>
      <trkpt lat="45.97018" lon="6.6375">
        <ele>545.8</ele>
        <time>2020-08-16T15:59:58Z</time>
      </trkpt>
      <trkpt lat="45.97013" lon="6.63749">
        <ele>546</ele>
        <time>2020-08-16T15:59:59Z</time>
      </trkpt>
      <trkpt lat="45.97011" lon="6.63748">
        <ele>546.2</ele>
        <time>2020-08-16T16:00:00Z</time>
      </trkpt>
      <trkpt lat="45.97008" lon="6.63747">
        <ele>546.4</ele>
        <time>2020-08-16T16:00:02Z</time>
      </trkpt>
      <trkpt lat="45.97005" lon="6.63746">
        <ele>546.8</ele>
        <time>2020-08-16T16:00:03Z</time>
      </trkpt>
      <trkpt lat="45.97003" lon="6.63744">
        <ele>547</ele>
        <time>2020-08-16T16:00:04Z</time>
      </trkpt>
      <trkpt lat="45.97001" lon="6.63743">
        <ele>547.2</ele>
        <time>2020-08-16T16:00:06Z</time>
      </trkpt>
      <trkpt lat="45.96997" lon="6.63743">
        <ele>547.4</ele>
        <time>2020-08-16T16:00:08Z</time>
      </trkpt>
      <trkpt lat="45.96993" lon="6.63742">
        <ele>547.8</ele>
        <time>2020-08-16T16:00:10Z</time>
      </trkpt>
      <trkpt lat="45.9699" lon="6.63741">
        <ele>548</ele>
        <time>2020-08-16T16:00:11Z</time>
      </trkpt>
      <trkpt lat="45.96988" lon="6.6374">
        <ele>548.2</ele>
        <time>2020-08-16T16:00:12Z</time>
      </trkpt>
      <trkpt lat="45.96986" lon="6.6374">
        <ele>548</ele>
        <time>2020-08-16T16:00:13Z</time>
      </trkpt>
      <trkpt lat="45.96983" lon="6.63739">
        <ele>548</ele>
        <time>2020-08-16T16:00:14Z</time>
      </trkpt>
      <trkpt lat="45.96981" lon="6.63739">
        <ele>548.2</ele>
        <time>2020-08-16T16:00:16Z</time>
      </trkpt>
      <trkpt lat="45.96976" lon="6.63738">
        <ele>548.6</ele>
        <time>2020-08-16T16:00:17Z</time>
      </trkpt>
      <trkpt lat="45.96974" lon="6.63737">
        <ele>549</ele>
        <time>2020-08-16T16:00:19Z</time>
      </trkpt>
      <trkpt lat="45.96968" lon="6.63735">
        <ele>549.4</ele>
        <time>2020-08-16T16:00:20Z</time>
      </trkpt>
      <trkpt lat="45.96965" lon="6.63734">
        <ele>549.6</ele>
        <time>2020-08-16T16:00:22Z</time>
      </trkpt>
      <trkpt lat="45.96962" lon="6.63733">
        <ele>549.6</ele>
        <time>2020-08-16T16:00:23Z</time>
      </trkpt>
      <trkpt lat="45.96959" lon="6.63733">
        <ele>549.6</ele>
        <time>2020-08-16T16:00:24Z</time>
      </trkpt>
      <trkpt lat="45.96956" lon="6.63733">
        <ele>549.6</ele>
        <time>2020-08-16T16:00:25Z</time>
      </trkpt>
      <trkpt lat="45.96953" lon="6.63732">
        <ele>549.8</ele>
        <time>2020-08-16T16:00:26Z</time>
      </trkpt>
      <trkpt lat="45.96951" lon="6.63731">
        <ele>549.8</ele>
        <time>2020-08-16T16:00:27Z</time>
      </trkpt>
      <trkpt lat="45.96948" lon="6.6373">
        <ele>550.2</ele>
        <time>2020-08-16T16:00:28Z</time>
      </trkpt>
      <trkpt lat="45.96946" lon="6.63729">
        <ele>550.2</ele>
        <time>2020-08-16T16:00:29Z</time>
      </trkpt>
      <trkpt lat="45.96943" lon="6.63728">
        <ele>550.4</ele>
        <time>2020-08-16T16:00:30Z</time>
      </trkpt>
      <trkpt lat="45.96941" lon="6.63727">
        <ele>550.4</ele>
        <time>2020-08-16T16:00:31Z</time>
      </trkpt>
      <trkpt lat="45.96939" lon="6.63725">
        <ele>550.6</ele>
        <time>2020-08-16T16:00:32Z</time>
      </trkpt>
      <trkpt lat="45.96937" lon="6.63724">
        <ele>550.8</ele>
        <time>2020-08-16T16:00:33Z</time>
      </trkpt>
      <trkpt lat="45.96935" lon="6.63723">
        <ele>550.8</ele>
        <time>2020-08-16T16:00:34Z</time>
      </trkpt>
      <trkpt lat="45.96933" lon="6.63722">
        <ele>551</ele>
        <time>2020-08-16T16:00:35Z</time>
      </trkpt>
      <trkpt lat="45.96931" lon="6.63722">
        <ele>551</ele>
        <time>2020-08-16T16:00:36Z</time>
      </trkpt>
      <trkpt lat="45.96928" lon="6.63721">
        <ele>551.2</ele>
        <time>2020-08-16T16:00:37Z</time>
      </trkpt>
      <trkpt lat="45.96926" lon="6.63721">
        <ele>551.4</ele>
        <time>2020-08-16T16:00:38Z</time>
      </trkpt>
      <trkpt lat="45.96924" lon="6.6372">
        <ele>551.4</ele>
        <time>2020-08-16T16:00:39Z</time>
      </trkpt>
      <trkpt lat="45.96921" lon="6.6372">
        <ele>551.4</ele>
        <time>2020-08-16T16:00:40Z</time>
      </trkpt>
      <trkpt lat="45.96919" lon="6.63719">
        <ele>551.4</ele>
        <time>2020-08-16T16:00:41Z</time>
      </trkpt>
      <trkpt lat="45.96916" lon="6.63718">
        <ele>551.4</ele>
        <time>2020-08-16T16:00:42Z</time>
      </trkpt>
      <trkpt lat="45.96914" lon="6.63718">
        <ele>551.6</ele>
        <time>2020-08-16T16:00:43Z</time>
      </trkpt>
      <trkpt lat="45.96911" lon="6.63717">
        <ele>551.8</ele>
        <time>2020-08-16T16:00:44Z</time>
      </trkpt>
      <trkpt lat="45.96908" lon="6.63716">
        <ele>552</ele>
        <time>2020-08-16T16:00:45Z</time>
      </trkpt>
      <trkpt lat="45.96906" lon="6.63715">
        <ele>552.2</ele>
        <time>2020-08-16T16:00:46Z</time>
      </trkpt>
      <trkpt lat="45.96903" lon="6.63714">
        <ele>552.4</ele>
        <time>2020-08-16T16:00:47Z</time>
      </trkpt>
      <trkpt lat="45.96901" lon="6.63713">
        <ele>552.4</ele>
        <time>2020-08-16T16:00:48Z</time>
      </trkpt>
      <trkpt lat="45.96898" lon="6.63712">
        <ele>552.4</ele>
        <time>2020-08-16T16:00:49Z</time>
      </trkpt>
      <trkpt lat="45.96895" lon="6.63711">
        <ele>552.4</ele>
        <time>2020-08-16T16:00:50Z</time>
      </trkpt>
      <trkpt lat="45.96892" lon="6.6371">
        <ele>552.6</ele>
        <time>2020-08-16T16:00:51Z</time>
      </trkpt>
      <trkpt lat="45.9689" lon="6.63709">
        <ele>552.6</ele>
        <time>2020-08-16T16:00:52Z</time>
      </trkpt>
      <trkpt lat="45.96887" lon="6.63708">
        <ele>552.6</ele>
        <time>2020-08-16T16:00:53Z</time>
      </trkpt>
      <trkpt lat="45.96884" lon="6.63707">
        <ele>552.8</ele>
        <time>2020-08-16T16:00:54Z</time>
      </trkpt>
      <trkpt lat="45.96881" lon="6.63706">
        <ele>553</ele>
        <time>2020-08-16T16:00:55Z</time>
      </trkpt>
      <trkpt lat="45.96878" lon="6.63705">
        <ele>553</ele>
        <time>2020-08-16T16:00:56Z</time>
      </trkpt>
      <trkpt lat="45.96875" lon="6.63705">
        <ele>553</ele>
        <time>2020-08-16T16:00:57Z</time>
      </trkpt>
      <trkpt lat="45.96872" lon="6.63704">
        <ele>553</ele>
        <time>2020-08-16T16:00:58Z</time>
      </trkpt>
      <trkpt lat="45.96869" lon="6.63703">
        <ele>553.2</ele>
        <time>2020-08-16T16:00:59Z</time>
      </trkpt>
      <trkpt lat="45.96866" lon="6.63703">
        <ele>553.2</ele>
        <time>2020-08-16T16:01:00Z</time>
      </trkpt>
      <trkpt lat="45.96863" lon="6.63701">
        <ele>553.2</ele>
        <time>2020-08-16T16:01:01Z</time>
      </trkpt>
      <trkpt lat="45.9686" lon="6.63701">
        <ele>553.4</ele>
        <time>2020-08-16T16:01:02Z</time>
      </trkpt>
      <trkpt lat="45.96858" lon="6.637">
        <ele>553.6</ele>
        <time>2020-08-16T16:01:03Z</time>
      </trkpt>
      <trkpt lat="45.96856" lon="6.63698">
        <ele>554.6</ele>
        <time>2020-08-16T16:01:04Z</time>
      </trkpt>
      <trkpt lat="45.96853" lon="6.63697">
        <ele>554.6</ele>
        <time>2020-08-16T16:01:05Z</time>
      </trkpt>
      <trkpt lat="45.96851" lon="6.63697">
        <ele>554.6</ele>
        <time>2020-08-16T16:01:06Z</time>
      </trkpt>
      <trkpt lat="45.96849" lon="6.63696">
        <ele>554.6</ele>
        <time>2020-08-16T16:01:07Z</time>
      </trkpt>
      <trkpt lat="45.96847" lon="6.63695">
        <ele>554.6</ele>
        <time>2020-08-16T16:01:08Z</time>
      </trkpt>
      <trkpt lat="45.96845" lon="6.63694">
        <ele>554.8</ele>
        <time>2020-08-16T16:01:09Z</time>
      </trkpt>
      <trkpt lat="45.96843" lon="6.63693">
        <ele>554.8</ele>
        <time>2020-08-16T16:01:10Z</time>
      </trkpt>
      <trkpt lat="45.96841" lon="6.63692">
        <ele>555</ele>
        <time>2020-08-16T16:01:11Z</time>
      </trkpt>
      <trkpt lat="45.9684" lon="6.63691">
        <ele>555</ele>
        <time>2020-08-16T16:01:12Z</time>
      </trkpt>
      <trkpt lat="45.96839" lon="6.63689">
        <ele>555</ele>
        <time>2020-08-16T16:01:13Z</time>
      </trkpt>
      <trkpt lat="45.96838" lon="6.63687">
        <ele>555</ele>
        <time>2020-08-16T16:01:14Z</time>
      </trkpt>
      <trkpt lat="45.96838" lon="6.63684">
        <ele>555</ele>
        <time>2020-08-16T16:01:15Z</time>
      </trkpt>
      <trkpt lat="45.96838" lon="6.63682">
        <ele>555</ele>
        <time>2020-08-16T16:01:16Z</time>
      </trkpt>
      <trkpt lat="45.96839" lon="6.63678">
        <ele>555</ele>
        <time>2020-08-16T16:01:17Z</time>
      </trkpt>
      <trkpt lat="45.96839" lon="6.63674">
        <ele>555</ele>
        <time>2020-08-16T16:01:18Z</time>
      </trkpt>
      <trkpt lat="45.96839" lon="6.63669">
        <ele>554.8</ele>
        <time>2020-08-16T16:01:19Z</time>
      </trkpt>
      <trkpt lat="45.96839" lon="6.63665">
        <ele>554.8</ele>
        <time>2020-08-16T16:01:20Z</time>
      </trkpt>
      <trkpt lat="45.96839" lon="6.63659">
        <ele>554.8</ele>
        <time>2020-08-16T16:01:21Z</time>
      </trkpt>
      <trkpt lat="45.96839" lon="6.63654">
        <ele>555</ele>
        <time>2020-08-16T16:01:22Z</time>
      </trkpt>
      <trkpt lat="45.96839" lon="6.63648">
        <ele>555.2</ele>
        <time>2020-08-16T16:01:23Z</time>
      </trkpt>
      <trkpt lat="45.96839" lon="6.63643">
        <ele>555</ele>
        <time>2020-08-16T16:01:24Z</time>
      </trkpt>
      <trkpt lat="45.96838" lon="6.63637">
        <ele>554.8</ele>
        <time>2020-08-16T16:01:25Z</time>
      </trkpt>
      <trkpt lat="45.96837" lon="6.63632">
        <ele>554.6</ele>
        <time>2020-08-16T16:01:26Z</time>
      </trkpt>
      <trkpt lat="45.96835" lon="6.63626">
        <ele>554.4</ele>
        <time>2020-08-16T16:01:27Z</time>
      </trkpt>
      <trkpt lat="45.96834" lon="6.6362">
        <ele>554.2</ele>
        <time>2020-08-16T16:01:28Z</time>
      </trkpt>
      <trkpt lat="45.96831" lon="6.63615">
        <ele>554.2</ele>
        <time>2020-08-16T16:01:29Z</time>
      </trkpt>
      <trkpt lat="45.96829" lon="6.63608">
        <ele>554.2</ele>
        <time>2020-08-16T16:01:30Z</time>
      </trkpt>
      <trkpt lat="45.96826" lon="6.63602">
        <ele>554</ele>
        <time>2020-08-16T16:01:31Z</time>
      </trkpt>
      <trkpt lat="45.96824" lon="6.63596">
        <ele>554</ele>
        <time>2020-08-16T16:01:32Z</time>
      </trkpt>
      <trkpt lat="45.96821" lon="6.6359">
        <ele>553.8</ele>
        <time>2020-08-16T16:01:33Z</time>
      </trkpt>
      <trkpt lat="45.96817" lon="6.63584">
        <ele>553.8</ele>
        <time>2020-08-16T16:01:34Z</time>
      </trkpt>
      <trkpt lat="45.96814" lon="6.63578">
        <ele>553.8</ele>
        <time>2020-08-16T16:01:35Z</time>
      </trkpt>
      <trkpt lat="45.96811" lon="6.63572">
        <ele>553.6</ele>
        <time>2020-08-16T16:01:36Z</time>
      </trkpt>
      <trkpt lat="45.96807" lon="6.63566">
        <ele>553.4</ele>
        <time>2020-08-16T16:01:37Z</time>
      </trkpt>
      <trkpt lat="45.96804" lon="6.6356">
        <ele>553.2</ele>
        <time>2020-08-16T16:01:38Z</time>
      </trkpt>
      <trkpt lat="45.968" lon="6.63554">
        <ele>553.2</ele>
        <time>2020-08-16T16:01:39Z</time>
      </trkpt>
      <trkpt lat="45.96796" lon="6.63548">
        <ele>553</ele>
        <time>2020-08-16T16:01:40Z</time>
      </trkpt>
      <trkpt lat="45.96793" lon="6.63542">
        <ele>553</ele>
        <time>2020-08-16T16:01:41Z</time>
      </trkpt>
      <trkpt lat="45.96789" lon="6.63536">
        <ele>553</ele>
        <time>2020-08-16T16:01:42Z</time>
      </trkpt>
      <trkpt lat="45.96786" lon="6.63529">
        <ele>552.8</ele>
        <time>2020-08-16T16:01:43Z</time>
      </trkpt>
      <trkpt lat="45.96783" lon="6.63522">
        <ele>552.8</ele>
        <time>2020-08-16T16:01:44Z</time>
      </trkpt>
      <trkpt lat="45.96781" lon="6.63515">
        <ele>552.6</ele>
        <time>2020-08-16T16:01:45Z</time>
      </trkpt>
      <trkpt lat="45.96778" lon="6.63508">
        <ele>552.4</ele>
        <time>2020-08-16T16:01:46Z</time>
      </trkpt>
      <trkpt lat="45.96776" lon="6.635">
        <ele>552.2</ele>
        <time>2020-08-16T16:01:47Z</time>
      </trkpt>
      <trkpt lat="45.96774" lon="6.63492">
        <ele>552</ele>
        <time>2020-08-16T16:01:48Z</time>
      </trkpt>
      <trkpt lat="45.96772" lon="6.63484">
        <ele>551.8</ele>
        <time>2020-08-16T16:01:49Z</time>
      </trkpt>
      <trkpt lat="45.9677" lon="6.63475">
        <ele>551.6</ele>
        <time>2020-08-16T16:01:50Z</time>
      </trkpt>
      <trkpt lat="45.96769" lon="6.63467">
        <ele>551.4</ele>
        <time>2020-08-16T16:01:51Z</time>
      </trkpt>
      <trkpt lat="45.96768" lon="6.6346">
        <ele>551</ele>
        <time>2020-08-16T16:01:52Z</time>
      </trkpt>
      <trkpt lat="45.96767" lon="6.63456">
        <ele>550.6</ele>
        <time>2020-08-16T16:01:53Z</time>
      </trkpt>
      <trkpt lat="45.96767" lon="6.63455">
        <ele>550.4</ele>
        <time>2020-08-16T16:01:54Z</time>
      </trkpt>
      <trkpt lat="45.96768" lon="6.63454">
        <ele>550.4</ele>
        <time>2020-08-16T16:01:55Z</time>
      </trkpt>
      <trkpt lat="45.96768" lon="6.63454">
        <ele>550.4</ele>
        <time>2020-08-16T16:01:56Z</time>
      </trkpt>
      <trkpt lat="45.96768" lon="6.63454">
        <ele>550.2</ele>
        <time>2020-08-16T16:01:57Z</time>
      </trkpt>
      <trkpt lat="45.96768" lon="6.63454">
        <ele>550.4</ele>
        <time>2020-08-16T16:01:58Z</time>
      </trkpt>
      <trkpt lat="45.96768" lon="6.63454">
        <ele>550.2</ele>
        <time>2020-08-16T16:01:59Z</time>
      </trkpt>
      <trkpt lat="45.96768" lon="6.63455">
        <ele>550.4</ele>
        <time>2020-08-16T16:02:00Z</time>
      </trkpt>
      <trkpt lat="45.96768" lon="6.63455">
        <ele>550.4</ele>
        <time>2020-08-16T16:02:01Z</time>
      </trkpt>
      <trkpt lat="45.96764" lon="6.63477">
        <ele>551.2</ele>
        <time>2020-08-16T16:03:07Z</time>
      </trkpt>
      <trkpt lat="45.96766" lon="6.63486">
        <ele>551.6</ele>
        <time>2020-08-16T16:03:09Z</time>
      </trkpt>
      <trkpt lat="45.96767" lon="6.63489">
        <ele>551.6</ele>
        <time>2020-08-16T16:03:10Z</time>
      </trkpt>
      <trkpt lat="45.96768" lon="6.63493">
        <ele>551.8</ele>
        <time>2020-08-16T16:03:11Z</time>
      </trkpt>
      <trkpt lat="45.96769" lon="6.63497">
        <ele>552.2</ele>
        <time>2020-08-16T16:03:12Z</time>
      </trkpt>
      <trkpt lat="45.9677" lon="6.63502">
        <ele>552.2</ele>
        <time>2020-08-16T16:03:13Z</time>
      </trkpt>
      <trkpt lat="45.96771" lon="6.63506">
        <ele>552.4</ele>
        <time>2020-08-16T16:03:14Z</time>
      </trkpt>
      <trkpt lat="45.96772" lon="6.6351">
        <ele>552.4</ele>
        <time>2020-08-16T16:03:15Z</time>
      </trkpt>
      <trkpt lat="45.96773" lon="6.63515">
        <ele>552.6</ele>
        <time>2020-08-16T16:03:16Z</time>
      </trkpt>
      <trkpt lat="45.96776" lon="6.63519">
        <ele>552.8</ele>
        <time>2020-08-16T16:03:17Z</time>
      </trkpt>
      <trkpt lat="45.96777" lon="6.63523">
        <ele>553</ele>
        <time>2020-08-16T16:03:18Z</time>
      </trkpt>
      <trkpt lat="45.96778" lon="6.63527">
        <ele>553</ele>
        <time>2020-08-16T16:03:19Z</time>
      </trkpt>
      <trkpt lat="45.9678" lon="6.63531">
        <ele>553</ele>
        <time>2020-08-16T16:03:20Z</time>
      </trkpt>
      <trkpt lat="45.96782" lon="6.63536">
        <ele>553</ele>
        <time>2020-08-16T16:03:21Z</time>
      </trkpt>
      <trkpt lat="45.96784" lon="6.63541">
        <ele>553.2</ele>
        <time>2020-08-16T16:03:22Z</time>
      </trkpt>
      <trkpt lat="45.96786" lon="6.63545">
        <ele>553.2</ele>
        <time>2020-08-16T16:03:23Z</time>
      </trkpt>
      <trkpt lat="45.96789" lon="6.63549">
        <ele>553.2</ele>
        <time>2020-08-16T16:03:24Z</time>
      </trkpt>
      <trkpt lat="45.96791" lon="6.63553">
        <ele>553.4</ele>
        <time>2020-08-16T16:03:25Z</time>
      </trkpt>
      <trkpt lat="45.96794" lon="6.63557">
        <ele>553.4</ele>
        <time>2020-08-16T16:03:26Z</time>
      </trkpt>
      <trkpt lat="45.96796" lon="6.63561">
        <ele>553.4</ele>
        <time>2020-08-16T16:03:27Z</time>
      </trkpt>
      <trkpt lat="45.96798" lon="6.63565">
        <ele>553.6</ele>
        <time>2020-08-16T16:03:28Z</time>
      </trkpt>
      <trkpt lat="45.96801" lon="6.63569">
        <ele>553.6</ele>
        <time>2020-08-16T16:03:29Z</time>
      </trkpt>
      <trkpt lat="45.96803" lon="6.63573">
        <ele>553.6</ele>
        <time>2020-08-16T16:03:30Z</time>
      </trkpt>
      <trkpt lat="45.96805" lon="6.63577">
        <ele>554</ele>
        <time>2020-08-16T16:03:31Z</time>
      </trkpt>
      <trkpt lat="45.96808" lon="6.63581">
        <ele>553.8</ele>
        <time>2020-08-16T16:03:32Z</time>
      </trkpt>
      <trkpt lat="45.9681" lon="6.63585">
        <ele>553.8</ele>
        <time>2020-08-16T16:03:33Z</time>
      </trkpt>
      <trkpt lat="45.96813" lon="6.63589">
        <ele>553.8</ele>
        <time>2020-08-16T16:03:34Z</time>
      </trkpt>
      <trkpt lat="45.96815" lon="6.63594">
        <ele>554</ele>
        <time>2020-08-16T16:03:35Z</time>
      </trkpt>
      <trkpt lat="45.96818" lon="6.63598">
        <ele>553.8</ele>
        <time>2020-08-16T16:03:36Z</time>
      </trkpt>
      <trkpt lat="45.9682" lon="6.63602">
        <ele>554</ele>
        <time>2020-08-16T16:03:37Z</time>
      </trkpt>
      <trkpt lat="45.96822" lon="6.63607">
        <ele>554.2</ele>
        <time>2020-08-16T16:03:38Z</time>
      </trkpt>
      <trkpt lat="45.96824" lon="6.63611">
        <ele>554.2</ele>
        <time>2020-08-16T16:03:39Z</time>
      </trkpt>
      <trkpt lat="45.96826" lon="6.63616">
        <ele>554.2</ele>
        <time>2020-08-16T16:03:40Z</time>
      </trkpt>
      <trkpt lat="45.96828" lon="6.63621">
        <ele>554.2</ele>
        <time>2020-08-16T16:03:41Z</time>
      </trkpt>
      <trkpt lat="45.9683" lon="6.63625">
        <ele>554.4</ele>
        <time>2020-08-16T16:03:42Z</time>
      </trkpt>
      <trkpt lat="45.96831" lon="6.6363">
        <ele>554.4</ele>
        <time>2020-08-16T16:03:43Z</time>
      </trkpt>
      <trkpt lat="45.96832" lon="6.63635">
        <ele>554.6</ele>
        <time>2020-08-16T16:03:44Z</time>
      </trkpt>
      <trkpt lat="45.96833" lon="6.6364">
        <ele>554.8</ele>
        <time>2020-08-16T16:03:45Z</time>
      </trkpt>
      <trkpt lat="45.96834" lon="6.63645">
        <ele>555</ele>
        <time>2020-08-16T16:03:46Z</time>
      </trkpt>
      <trkpt lat="45.96835" lon="6.6365">
        <ele>555</ele>
        <time>2020-08-16T16:03:47Z</time>
      </trkpt>
      <trkpt lat="45.96836" lon="6.63655">
        <ele>555.2</ele>
        <time>2020-08-16T16:03:48Z</time>
      </trkpt>
      <trkpt lat="45.96836" lon="6.63661">
        <ele>555.2</ele>
        <time>2020-08-16T16:03:49Z</time>
      </trkpt>
      <trkpt lat="45.96836" lon="6.63667">
        <ele>555</ele>
        <time>2020-08-16T16:03:50Z</time>
      </trkpt>
      <trkpt lat="45.96835" lon="6.63672">
        <ele>555</ele>
        <time>2020-08-16T16:03:51Z</time>
      </trkpt>
      <trkpt lat="45.96834" lon="6.63677">
        <ele>555</ele>
        <time>2020-08-16T16:03:52Z</time>
      </trkpt>
      <trkpt lat="45.96832" lon="6.63682">
        <ele>555</ele>
        <time>2020-08-16T16:03:53Z</time>
      </trkpt>
      <trkpt lat="45.96829" lon="6.63684">
        <ele>555.2</ele>
        <time>2020-08-16T16:03:54Z</time>
      </trkpt>
      <trkpt lat="45.96826" lon="6.63685">
        <ele>555.4</ele>
        <time>2020-08-16T16:03:55Z</time>
      </trkpt>
      <trkpt lat="45.96824" lon="6.63684">
        <ele>555.8</ele>
        <time>2020-08-16T16:03:56Z</time>
      </trkpt>
      <trkpt lat="45.96822" lon="6.63682">
        <ele>555.8</ele>
        <time>2020-08-16T16:03:57Z</time>
      </trkpt>
      <trkpt lat="45.9682" lon="6.63681">
        <ele>556</ele>
        <time>2020-08-16T16:03:58Z</time>
      </trkpt>
      <trkpt lat="45.96817" lon="6.6368">
        <ele>556.2</ele>
        <time>2020-08-16T16:03:59Z</time>
      </trkpt>
      <trkpt lat="45.96814" lon="6.6368">
        <ele>556.4</ele>
        <time>2020-08-16T16:04:00Z</time>
      </trkpt>
      <trkpt lat="45.96812" lon="6.63679">
        <ele>556.8</ele>
        <time>2020-08-16T16:04:01Z</time>
      </trkpt>
      <trkpt lat="45.9681" lon="6.63678">
        <ele>557</ele>
        <time>2020-08-16T16:04:02Z</time>
      </trkpt>
      <trkpt lat="45.96808" lon="6.63677">
        <ele>557.2</ele>
        <time>2020-08-16T16:04:03Z</time>
      </trkpt>
      <trkpt lat="45.96805" lon="6.63676">
        <ele>557.4</ele>
        <time>2020-08-16T16:04:04Z</time>
      </trkpt>
      <trkpt lat="45.96803" lon="6.63676">
        <ele>557.6</ele>
        <time>2020-08-16T16:04:05Z</time>
      </trkpt>
      <trkpt lat="45.96801" lon="6.63675">
        <ele>557.8</ele>
        <time>2020-08-16T16:04:06Z</time>
      </trkpt>
      <trkpt lat="45.96798" lon="6.63674">
        <ele>557.8</ele>
        <time>2020-08-16T16:04:07Z</time>
      </trkpt>
      <trkpt lat="45.96796" lon="6.63673">
        <ele>558</ele>
        <time>2020-08-16T16:04:08Z</time>
      </trkpt>
      <trkpt lat="45.96794" lon="6.63673">
        <ele>558.2</ele>
        <time>2020-08-16T16:04:09Z</time>
      </trkpt>
      <trkpt lat="45.96791" lon="6.63672">
        <ele>558.4</ele>
        <time>2020-08-16T16:04:10Z</time>
      </trkpt>
      <trkpt lat="45.96789" lon="6.63671">
        <ele>558.4</ele>
        <time>2020-08-16T16:04:11Z</time>
      </trkpt>
      <trkpt lat="45.96786" lon="6.63671">
        <ele>558.6</ele>
        <time>2020-08-16T16:04:12Z</time>
      </trkpt>
      <trkpt lat="45.96783" lon="6.6367">
        <ele>558.8</ele>
        <time>2020-08-16T16:04:13Z</time>
      </trkpt>
      <trkpt lat="45.9678" lon="6.63669">
        <ele>558.8</ele>
        <time>2020-08-16T16:04:14Z</time>
      </trkpt>
      <trkpt lat="45.96778" lon="6.63669">
        <ele>559</ele>
        <time>2020-08-16T16:04:15Z</time>
      </trkpt>
      <trkpt lat="45.96775" lon="6.63668">
        <ele>559.2</ele>
        <time>2020-08-16T16:04:16Z</time>
      </trkpt>
      <trkpt lat="45.96772" lon="6.63667">
        <ele>559.4</ele>
        <time>2020-08-16T16:04:17Z</time>
      </trkpt>
      <trkpt lat="45.96769" lon="6.63666">
        <ele>559.6</ele>
        <time>2020-08-16T16:04:18Z</time>
      </trkpt>
      <trkpt lat="45.96766" lon="6.63665">
        <ele>559.8</ele>
        <time>2020-08-16T16:04:19Z</time>
      </trkpt>
      <trkpt lat="45.96763" lon="6.63664">
        <ele>560</ele>
        <time>2020-08-16T16:04:20Z</time>
      </trkpt>
      <trkpt lat="45.9676" lon="6.63663">
        <ele>560</ele>
        <time>2020-08-16T16:04:21Z</time>
      </trkpt>
      <trkpt lat="45.96757" lon="6.63662">
        <ele>560.2</ele>
        <time>2020-08-16T16:04:22Z</time>
      </trkpt>
      <trkpt lat="45.96754" lon="6.63662">
        <ele>560.2</ele>
        <time>2020-08-16T16:04:23Z</time>
      </trkpt>
      <trkpt lat="45.96752" lon="6.63661">
        <ele>560.4</ele>
        <time>2020-08-16T16:04:24Z</time>
      </trkpt>
      <trkpt lat="45.96749" lon="6.6366">
        <ele>560.4</ele>
        <time>2020-08-16T16:04:25Z</time>
      </trkpt>
      <trkpt lat="45.96746" lon="6.63659">
        <ele>560.6</ele>
        <time>2020-08-16T16:04:26Z</time>
      </trkpt>
      <trkpt lat="45.96743" lon="6.63658">
        <ele>560.6</ele>
        <time>2020-08-16T16:04:27Z</time>
      </trkpt>
      <trkpt lat="45.9674" lon="6.63657">
        <ele>560.8</ele>
        <time>2020-08-16T16:04:28Z</time>
      </trkpt>
      <trkpt lat="45.96737" lon="6.63656">
        <ele>561</ele>
        <time>2020-08-16T16:04:29Z</time>
      </trkpt>
      <trkpt lat="45.96734" lon="6.63655">
        <ele>561</ele>
        <time>2020-08-16T16:04:30Z</time>
      </trkpt>
      <trkpt lat="45.96731" lon="6.63654">
        <ele>561</ele>
        <time>2020-08-16T16:04:31Z</time>
      </trkpt>
      <trkpt lat="45.96728" lon="6.63653">
        <ele>561.2</ele>
        <time>2020-08-16T16:04:32Z</time>
      </trkpt>
      <trkpt lat="45.96725" lon="6.63653">
        <ele>561.4</ele>
        <time>2020-08-16T16:04:33Z</time>
      </trkpt>
      <trkpt lat="45.96722" lon="6.63652">
        <ele>561.4</ele>
        <time>2020-08-16T16:04:34Z</time>
      </trkpt>
      <trkpt lat="45.96719" lon="6.63651">
        <ele>561.6</ele>
        <time>2020-08-16T16:04:35Z</time>
      </trkpt>
      <trkpt lat="45.96715" lon="6.63651">
        <ele>561.6</ele>
        <time>2020-08-16T16:04:36Z</time>
      </trkpt>
      <trkpt lat="45.96713" lon="6.63649">
        <ele>561.6</ele>
        <time>2020-08-16T16:04:37Z</time>
      </trkpt>
      <trkpt lat="45.9671" lon="6.63648">
        <ele>561.8</ele>
        <time>2020-08-16T16:04:38Z</time>
      </trkpt>
      <trkpt lat="45.96707" lon="6.63647">
        <ele>561.8</ele>
        <time>2020-08-16T16:04:39Z</time>
      </trkpt>
      <trkpt lat="45.96704" lon="6.63647">
        <ele>562</ele>
        <time>2020-08-16T16:04:40Z</time>
      </trkpt>
      <trkpt lat="45.96701" lon="6.63646">
        <ele>562.2</ele>
        <time>2020-08-16T16:04:41Z</time>
      </trkpt>
      <trkpt lat="45.96698" lon="6.63646">
        <ele>562.2</ele>
        <time>2020-08-16T16:04:42Z</time>
      </trkpt>
      <trkpt lat="45.96695" lon="6.63644">
        <ele>562.2</ele>
        <time>2020-08-16T16:04:43Z</time>
      </trkpt>
      <trkpt lat="45.96693" lon="6.63643">
        <ele>562.4</ele>
        <time>2020-08-16T16:04:44Z</time>
      </trkpt>
      <trkpt lat="45.9669" lon="6.63642">
        <ele>562.4</ele>
        <time>2020-08-16T16:04:45Z</time>
      </trkpt>
      <trkpt lat="45.96687" lon="6.63641">
        <ele>562.6</ele>
        <time>2020-08-16T16:04:46Z</time>
      </trkpt>
      <trkpt lat="45.96684" lon="6.6364">
        <ele>562.6</ele>
        <time>2020-08-16T16:04:47Z</time>
      </trkpt>
      <trkpt lat="45.96681" lon="6.63639">
        <ele>563</ele>
        <time>2020-08-16T16:04:48Z</time>
      </trkpt>
      <trkpt lat="45.96678" lon="6.63638">
        <ele>563</ele>
        <time>2020-08-16T16:04:49Z</time>
      </trkpt>
      <trkpt lat="45.96676" lon="6.63638">
        <ele>563</ele>
        <time>2020-08-16T16:04:50Z</time>
      </trkpt>
      <trkpt lat="45.96673" lon="6.63637">
        <ele>563.2</ele>
        <time>2020-08-16T16:04:51Z</time>
      </trkpt>
      <trkpt lat="45.96671" lon="6.63636">
        <ele>563.2</ele>
        <time>2020-08-16T16:04:52Z</time>
      </trkpt>
      <trkpt lat="45.96668" lon="6.63635">
        <ele>563.4</ele>
        <time>2020-08-16T16:04:53Z</time>
      </trkpt>
      <trkpt lat="45.96665" lon="6.63635">
        <ele>563.4</ele>
        <time>2020-08-16T16:04:54Z</time>
      </trkpt>
      <trkpt lat="45.96662" lon="6.63636">
        <ele>563.6</ele>
        <time>2020-08-16T16:04:55Z</time>
      </trkpt>
      <trkpt lat="45.9666" lon="6.63636">
        <ele>563.8</ele>
        <time>2020-08-16T16:04:56Z</time>
      </trkpt>
      <trkpt lat="45.96657" lon="6.63637">
        <ele>564</ele>
        <time>2020-08-16T16:04:57Z</time>
      </trkpt>
      <trkpt lat="45.96655" lon="6.63637">
        <ele>564</ele>
        <time>2020-08-16T16:04:58Z</time>
      </trkpt>
      <trkpt lat="45.96652" lon="6.63637">
        <ele>564</ele>
        <time>2020-08-16T16:04:59Z</time>
      </trkpt>
      <trkpt lat="45.96649" lon="6.63638">
        <ele>564</ele>
        <time>2020-08-16T16:05:00Z</time>
      </trkpt>
      <trkpt lat="45.96646" lon="6.63638">
        <ele>564</ele>
        <time>2020-08-16T16:05:01Z</time>
      </trkpt>
      <trkpt lat="45.96644" lon="6.63638">
        <ele>564</ele>
        <time>2020-08-16T16:05:02Z</time>
      </trkpt>
      <trkpt lat="45.96641" lon="6.63639">
        <ele>564</ele>
        <time>2020-08-16T16:05:03Z</time>
      </trkpt>
      <trkpt lat="45.96638" lon="6.6364">
        <ele>564.2</ele>
        <time>2020-08-16T16:05:04Z</time>
      </trkpt>
      <trkpt lat="45.96636" lon="6.6364">
        <ele>564.2</ele>
        <time>2020-08-16T16:05:05Z</time>
      </trkpt>
      <trkpt lat="45.96634" lon="6.6364">
        <ele>564.2</ele>
        <time>2020-08-16T16:05:06Z</time>
      </trkpt>
      <trkpt lat="45.96631" lon="6.6364">
        <ele>564</ele>
        <time>2020-08-16T16:05:07Z</time>
      </trkpt>
      <trkpt lat="45.96628" lon="6.63641">
        <ele>564.2</ele>
        <time>2020-08-16T16:05:08Z</time>
      </trkpt>
      <trkpt lat="45.96626" lon="6.63641">
        <ele>564</ele>
        <time>2020-08-16T16:05:09Z</time>
      </trkpt>
      <trkpt lat="45.96624" lon="6.63641">
        <ele>564</ele>
        <time>2020-08-16T16:05:10Z</time>
      </trkpt>
      <trkpt lat="45.96621" lon="6.63641">
        <ele>563.8</ele>
        <time>2020-08-16T16:05:11Z</time>
      </trkpt>
      <trkpt lat="45.96618" lon="6.63642">
        <ele>563.8</ele>
        <time>2020-08-16T16:05:12Z</time>
      </trkpt>
      <trkpt lat="45.96616" lon="6.63642">
        <ele>563.6</ele>
        <time>2020-08-16T16:05:13Z</time>
      </trkpt>
      <trkpt lat="45.96613" lon="6.63643">
        <ele>563.6</ele>
        <time>2020-08-16T16:05:14Z</time>
      </trkpt>
      <trkpt lat="45.9661" lon="6.63643">
        <ele>563.6</ele>
        <time>2020-08-16T16:05:15Z</time>
      </trkpt>
      <trkpt lat="45.96607" lon="6.63644">
        <ele>563.4</ele>
        <time>2020-08-16T16:05:16Z</time>
      </trkpt>
      <trkpt lat="45.96604" lon="6.63644">
        <ele>563.4</ele>
        <time>2020-08-16T16:05:17Z</time>
      </trkpt>
      <trkpt lat="45.96601" lon="6.63645">
        <ele>563.2</ele>
        <time>2020-08-16T16:05:18Z</time>
      </trkpt>
      <trkpt lat="45.96597" lon="6.63645">
        <ele>563</ele>
        <time>2020-08-16T16:05:19Z</time>
      </trkpt>
      <trkpt lat="45.96594" lon="6.63646">
        <ele>563</ele>
        <time>2020-08-16T16:05:20Z</time>
      </trkpt>
      <trkpt lat="45.9659" lon="6.63647">
        <ele>563</ele>
        <time>2020-08-16T16:05:21Z</time>
      </trkpt>
      <trkpt lat="45.96586" lon="6.63647">
        <ele>563</ele>
        <time>2020-08-16T16:05:22Z</time>
      </trkpt>
      <trkpt lat="45.96582" lon="6.63649">
        <ele>563</ele>
        <time>2020-08-16T16:05:23Z</time>
      </trkpt>
      <trkpt lat="45.96579" lon="6.63649">
        <ele>562.8</ele>
        <time>2020-08-16T16:05:24Z</time>
      </trkpt>
      <trkpt lat="45.96575" lon="6.6365">
        <ele>562.8</ele>
        <time>2020-08-16T16:05:25Z</time>
      </trkpt>
      <trkpt lat="45.9657" lon="6.63651">
        <ele>562.8</ele>
        <time>2020-08-16T16:05:26Z</time>
      </trkpt>
      <trkpt lat="45.96566" lon="6.63652">
        <ele>562.8</ele>
        <time>2020-08-16T16:05:27Z</time>
      </trkpt>
      <trkpt lat="45.96562" lon="6.63653">
        <ele>562.6</ele>
        <time>2020-08-16T16:05:28Z</time>
      </trkpt>
      <trkpt lat="45.96557" lon="6.63654">
        <ele>562.4</ele>
        <time>2020-08-16T16:05:29Z</time>
      </trkpt>
      <trkpt lat="45.96553" lon="6.63655">
        <ele>562.2</ele>
        <time>2020-08-16T16:05:30Z</time>
      </trkpt>
      <trkpt lat="45.96548" lon="6.63655">
        <ele>562</ele>
        <time>2020-08-16T16:05:31Z</time>
      </trkpt>
      <trkpt lat="45.96544" lon="6.63656">
        <ele>561.8</ele>
        <time>2020-08-16T16:05:32Z</time>
      </trkpt>
      <trkpt lat="45.9654" lon="6.63657">
        <ele>561.8</ele>
        <time>2020-08-16T16:05:33Z</time>
      </trkpt>
      <trkpt lat="45.96535" lon="6.63658">
        <ele>561.8</ele>
        <time>2020-08-16T16:05:34Z</time>
      </trkpt>
      <trkpt lat="45.9653" lon="6.63659">
        <ele>561.6</ele>
        <time>2020-08-16T16:05:35Z</time>
      </trkpt>
      <trkpt lat="45.96525" lon="6.6366">
        <ele>561.4</ele>
        <time>2020-08-16T16:05:36Z</time>
      </trkpt>
      <trkpt lat="45.9652" lon="6.63661">
        <ele>561.4</ele>
        <time>2020-08-16T16:05:37Z</time>
      </trkpt>
      <trkpt lat="45.96515" lon="6.63662">
        <ele>561.2</ele>
        <time>2020-08-16T16:05:38Z</time>
      </trkpt>
      <trkpt lat="45.96509" lon="6.63663">
        <ele>561.2</ele>
        <time>2020-08-16T16:05:39Z</time>
      </trkpt>
      <trkpt lat="45.96504" lon="6.63664">
        <ele>561</ele>
        <time>2020-08-16T16:05:40Z</time>
      </trkpt>
      <trkpt lat="45.96498" lon="6.63665">
        <ele>560.8</ele>
        <time>2020-08-16T16:05:41Z</time>
      </trkpt>
      <trkpt lat="45.96493" lon="6.63666">
        <ele>560.8</ele>
        <time>2020-08-16T16:05:42Z</time>
      </trkpt>
      <trkpt lat="45.96487" lon="6.63668">
        <ele>560.8</ele>
        <time>2020-08-16T16:05:43Z</time>
      </trkpt>
      <trkpt lat="45.96481" lon="6.6367">
        <ele>560.6</ele>
        <time>2020-08-16T16:05:44Z</time>
      </trkpt>
      <trkpt lat="45.96474" lon="6.63672">
        <ele>560.4</ele>
        <time>2020-08-16T16:05:45Z</time>
      </trkpt>
      <trkpt lat="45.96468" lon="6.63673">
        <ele>560.4</ele>
        <time>2020-08-16T16:05:46Z</time>
      </trkpt>
      <trkpt lat="45.96461" lon="6.63674">
        <ele>560</ele>
        <time>2020-08-16T16:05:47Z</time>
      </trkpt>
      <trkpt lat="45.96454" lon="6.63676">
        <ele>560</ele>
        <time>2020-08-16T16:05:48Z</time>
      </trkpt>
      <trkpt lat="45.96448" lon="6.63678">
        <ele>559.8</ele>
        <time>2020-08-16T16:05:49Z</time>
      </trkpt>
      <trkpt lat="45.96441" lon="6.6368">
        <ele>559.6</ele>
        <time>2020-08-16T16:05:50Z</time>
      </trkpt>
      <trkpt lat="45.96434" lon="6.63682">
        <ele>559.4</ele>
        <time>2020-08-16T16:05:51Z</time>
      </trkpt>
      <trkpt lat="45.96427" lon="6.63683">
        <ele>559.2</ele>
        <time>2020-08-16T16:05:52Z</time>
      </trkpt>
      <trkpt lat="45.9642" lon="6.63685">
        <ele>559.2</ele>
        <time>2020-08-16T16:05:53Z</time>
      </trkpt>
      <trkpt lat="45.96413" lon="6.63687">
        <ele>559</ele>
        <time>2020-08-16T16:05:54Z</time>
      </trkpt>
      <trkpt lat="45.96405" lon="6.63689">
        <ele>558.6</ele>
        <time>2020-08-16T16:05:55Z</time>
      </trkpt>
      <trkpt lat="45.96398" lon="6.63691">
        <ele>558.4</ele>
        <time>2020-08-16T16:05:56Z</time>
      </trkpt>
      <trkpt lat="45.9639" lon="6.63693">
        <ele>558</ele>
        <time>2020-08-16T16:05:57Z</time>
      </trkpt>
      <trkpt lat="45.96382" lon="6.63694">
        <ele>557.8</ele>
        <time>2020-08-16T16:05:58Z</time>
      </trkpt>
      <trkpt lat="45.96375" lon="6.63697">
        <ele>557.6</ele>
        <time>2020-08-16T16:05:59Z</time>
      </trkpt>
      <trkpt lat="45.96366" lon="6.63699">
        <ele>557.2</ele>
        <time>2020-08-16T16:06:00Z</time>
      </trkpt>
      <trkpt lat="45.96358" lon="6.63701">
        <ele>556.8</ele>
        <time>2020-08-16T16:06:01Z</time>
      </trkpt>
      <trkpt lat="45.9635" lon="6.63703">
        <ele>556.4</ele>
        <time>2020-08-16T16:06:02Z</time>
      </trkpt>
      <trkpt lat="45.96341" lon="6.63706">
        <ele>555.8</ele>
        <time>2020-08-16T16:06:03Z</time>
      </trkpt>
      <trkpt lat="45.96333" lon="6.6371">
        <ele>555.4</ele>
        <time>2020-08-16T16:06:04Z</time>
      </trkpt>
      <trkpt lat="45.96324" lon="6.63713">
        <ele>555.2</ele>
        <time>2020-08-16T16:06:05Z</time>
      </trkpt>
      <trkpt lat="45.96315" lon="6.63716">
        <ele>554.8</ele>
        <time>2020-08-16T16:06:06Z</time>
      </trkpt>
      <trkpt lat="45.96306" lon="6.63719">
        <ele>554.4</ele>
        <time>2020-08-16T16:06:07Z</time>
      </trkpt>
      <trkpt lat="45.96297" lon="6.63721">
        <ele>553.8</ele>
        <time>2020-08-16T16:06:08Z</time>
      </trkpt>
      <trkpt lat="45.96288" lon="6.63724">
        <ele>553.4</ele>
        <time>2020-08-16T16:06:09Z</time>
      </trkpt>
      <trkpt lat="45.96279" lon="6.63728">
        <ele>553.2</ele>
        <time>2020-08-16T16:06:10Z</time>
      </trkpt>
      <trkpt lat="45.96269" lon="6.63732">
        <ele>553</ele>
        <time>2020-08-16T16:06:11Z</time>
      </trkpt>
      <trkpt lat="45.96261" lon="6.63735">
        <ele>552.8</ele>
        <time>2020-08-16T16:06:12Z</time>
      </trkpt>
      <trkpt lat="45.96252" lon="6.63739">
        <ele>552.6</ele>
        <time>2020-08-16T16:06:13Z</time>
      </trkpt>
      <trkpt lat="45.96243" lon="6.63743">
        <ele>552.2</ele>
        <time>2020-08-16T16:06:14Z</time>
      </trkpt>
      <trkpt lat="45.96234" lon="6.63746">
        <ele>552</ele>
        <time>2020-08-16T16:06:15Z</time>
      </trkpt>
      <trkpt lat="45.96225" lon="6.6375">
        <ele>551.8</ele>
        <time>2020-08-16T16:06:16Z</time>
      </trkpt>
      <trkpt lat="45.96216" lon="6.63754">
        <ele>551.6</ele>
        <time>2020-08-16T16:06:17Z</time>
      </trkpt>
      <trkpt lat="45.96208" lon="6.63758">
        <ele>551.4</ele>
        <time>2020-08-16T16:06:18Z</time>
      </trkpt>
      <trkpt lat="45.962" lon="6.63762">
        <ele>551.2</ele>
        <time>2020-08-16T16:06:19Z</time>
      </trkpt>
      <trkpt lat="45.96191" lon="6.63766">
        <ele>551</ele>
        <time>2020-08-16T16:06:20Z</time>
      </trkpt>
      <trkpt lat="45.96183" lon="6.6377">
        <ele>550.8</ele>
        <time>2020-08-16T16:06:21Z</time>
      </trkpt>
      <trkpt lat="45.96175" lon="6.63775">
        <ele>550.6</ele>
        <time>2020-08-16T16:06:22Z</time>
      </trkpt>
      <trkpt lat="45.96166" lon="6.63779">
        <ele>550.6</ele>
        <time>2020-08-16T16:06:23Z</time>
      </trkpt>
      <trkpt lat="45.96159" lon="6.63783">
        <ele>550.6</ele>
        <time>2020-08-16T16:06:24Z</time>
      </trkpt>
      <trkpt lat="45.96152" lon="6.63788">
        <ele>550.6</ele>
        <time>2020-08-16T16:06:25Z</time>
      </trkpt>
      <trkpt lat="45.96145" lon="6.63794">
        <ele>550.6</ele>
        <time>2020-08-16T16:06:26Z</time>
      </trkpt>
      <trkpt lat="45.96139" lon="6.638">
        <ele>550.4</ele>
        <time>2020-08-16T16:06:27Z</time>
      </trkpt>
      <trkpt lat="45.96132" lon="6.63806">
        <ele>550.4</ele>
        <time>2020-08-16T16:06:28Z</time>
      </trkpt>
      <trkpt lat="45.96125" lon="6.63812">
        <ele>550.2</ele>
        <time>2020-08-16T16:06:29Z</time>
      </trkpt>
      <trkpt lat="45.96119" lon="6.63818">
        <ele>550.2</ele>
        <time>2020-08-16T16:06:30Z</time>
      </trkpt>
      <trkpt lat="45.96113" lon="6.63824">
        <ele>550.2</ele>
        <time>2020-08-16T16:06:31Z</time>
      </trkpt>
      <trkpt lat="45.96107" lon="6.63829">
        <ele>550</ele>
        <time>2020-08-16T16:06:32Z</time>
      </trkpt>
      <trkpt lat="45.96101" lon="6.63835">
        <ele>550</ele>
        <time>2020-08-16T16:06:33Z</time>
      </trkpt>
      <trkpt lat="45.96095" lon="6.6384">
        <ele>550</ele>
        <time>2020-08-16T16:06:34Z</time>
      </trkpt>
      <trkpt lat="45.96089" lon="6.63845">
        <ele>550</ele>
        <time>2020-08-16T16:06:35Z</time>
      </trkpt>
      <trkpt lat="45.96083" lon="6.63848">
        <ele>550.2</ele>
        <time>2020-08-16T16:06:36Z</time>
      </trkpt>
      <trkpt lat="45.96077" lon="6.63851">
        <ele>550</ele>
        <time>2020-08-16T16:06:37Z</time>
      </trkpt>
      <trkpt lat="45.96071" lon="6.63853">
        <ele>550</ele>
        <time>2020-08-16T16:06:38Z</time>
      </trkpt>
      <trkpt lat="45.96065" lon="6.63856">
        <ele>550</ele>
        <time>2020-08-16T16:06:39Z</time>
      </trkpt>
      <trkpt lat="45.96059" lon="6.63859">
        <ele>550</ele>
        <time>2020-08-16T16:06:40Z</time>
      </trkpt>
      <trkpt lat="45.96054" lon="6.63862">
        <ele>549.8</ele>
        <time>2020-08-16T16:06:41Z</time>
      </trkpt>
      <trkpt lat="45.96048" lon="6.63864">
        <ele>549.8</ele>
        <time>2020-08-16T16:06:42Z</time>
      </trkpt>
      <trkpt lat="45.96042" lon="6.63867">
        <ele>549.8</ele>
        <time>2020-08-16T16:06:43Z</time>
      </trkpt>
      <trkpt lat="45.96036" lon="6.63869">
        <ele>549.8</ele>
        <time>2020-08-16T16:06:44Z</time>
      </trkpt>
      <trkpt lat="45.9603" lon="6.63872">
        <ele>549.6</ele>
        <time>2020-08-16T16:06:45Z</time>
      </trkpt>
      <trkpt lat="45.96024" lon="6.63874">
        <ele>549.8</ele>
        <time>2020-08-16T16:06:46Z</time>
      </trkpt>
      <trkpt lat="45.96018" lon="6.63876">
        <ele>549.8</ele>
        <time>2020-08-16T16:06:47Z</time>
      </trkpt>
      <trkpt lat="45.96012" lon="6.63878">
        <ele>549.8</ele>
        <time>2020-08-16T16:06:48Z</time>
      </trkpt>
      <trkpt lat="45.96006" lon="6.6388">
        <ele>549.6</ele>
        <time>2020-08-16T16:06:49Z</time>
      </trkpt>
      <trkpt lat="45.96" lon="6.63882">
        <ele>549.6</ele>
        <time>2020-08-16T16:06:50Z</time>
      </trkpt>
      <trkpt lat="45.95994" lon="6.63883">
        <ele>549.6</ele>
        <time>2020-08-16T16:06:51Z</time>
      </trkpt>
      <trkpt lat="45.95988" lon="6.63884">
        <ele>549.8</ele>
        <time>2020-08-16T16:06:52Z</time>
      </trkpt>
      <trkpt lat="45.95983" lon="6.63886">
        <ele>549.8</ele>
        <time>2020-08-16T16:06:53Z</time>
      </trkpt>
      <trkpt lat="45.95978" lon="6.63887">
        <ele>549.8</ele>
        <time>2020-08-16T16:06:54Z</time>
      </trkpt>
      <trkpt lat="45.95972" lon="6.63889">
        <ele>549.8</ele>
        <time>2020-08-16T16:06:55Z</time>
      </trkpt>
      <trkpt lat="45.95967" lon="6.63891">
        <ele>549.8</ele>
        <time>2020-08-16T16:06:56Z</time>
      </trkpt>
      <trkpt lat="45.95961" lon="6.63892">
        <ele>549.8</ele>
        <time>2020-08-16T16:06:57Z</time>
      </trkpt>
      <trkpt lat="45.95956" lon="6.63894">
        <ele>549.8</ele>
        <time>2020-08-16T16:06:58Z</time>
      </trkpt>
      <trkpt lat="45.95951" lon="6.63895">
        <ele>550</ele>
        <time>2020-08-16T16:06:59Z</time>
      </trkpt>
      <trkpt lat="45.95946" lon="6.63897">
        <ele>550</ele>
        <time>2020-08-16T16:07:00Z</time>
      </trkpt>
      <trkpt lat="45.95941" lon="6.63898">
        <ele>549.8</ele>
        <time>2020-08-16T16:07:01Z</time>
      </trkpt>
      <trkpt lat="45.95937" lon="6.63899">
        <ele>549.8</ele>
        <time>2020-08-16T16:07:02Z</time>
      </trkpt>
      <trkpt lat="45.95933" lon="6.639">
        <ele>549.8</ele>
        <time>2020-08-16T16:07:03Z</time>
      </trkpt>
      <trkpt lat="45.95929" lon="6.639">
        <ele>549.8</ele>
        <time>2020-08-16T16:07:04Z</time>
      </trkpt>
      <trkpt lat="45.95925" lon="6.63901">
        <ele>549.8</ele>
        <time>2020-08-16T16:07:05Z</time>
      </trkpt>
      <trkpt lat="45.9592" lon="6.63902">
        <ele>550</ele>
        <time>2020-08-16T16:07:06Z</time>
      </trkpt>
      <trkpt lat="45.95916" lon="6.63903">
        <ele>550</ele>
        <time>2020-08-16T16:07:07Z</time>
      </trkpt>
      <trkpt lat="45.95911" lon="6.63905">
        <ele>549.8</ele>
        <time>2020-08-16T16:07:08Z</time>
      </trkpt>
      <trkpt lat="45.95907" lon="6.63906">
        <ele>550</ele>
        <time>2020-08-16T16:07:09Z</time>
      </trkpt>
      <trkpt lat="45.95902" lon="6.63907">
        <ele>550</ele>
        <time>2020-08-16T16:07:10Z</time>
      </trkpt>
      <trkpt lat="45.95898" lon="6.63908">
        <ele>550</ele>
        <time>2020-08-16T16:07:11Z</time>
      </trkpt>
      <trkpt lat="45.95894" lon="6.63908">
        <ele>550</ele>
        <time>2020-08-16T16:07:12Z</time>
      </trkpt>
      <trkpt lat="45.95889" lon="6.63909">
        <ele>550.2</ele>
        <time>2020-08-16T16:07:13Z</time>
      </trkpt>
      <trkpt lat="45.95885" lon="6.63911">
        <ele>550.2</ele>
        <time>2020-08-16T16:07:14Z</time>
      </trkpt>
      <trkpt lat="45.95881" lon="6.63912">
        <ele>550.2</ele>
        <time>2020-08-16T16:07:15Z</time>
      </trkpt>
      <trkpt lat="45.95876" lon="6.63913">
        <ele>550.2</ele>
        <time>2020-08-16T16:07:16Z</time>
      </trkpt>
      <trkpt lat="45.95872" lon="6.63915">
        <ele>550.2</ele>
        <time>2020-08-16T16:07:17Z</time>
      </trkpt>
      <trkpt lat="45.95867" lon="6.63916">
        <ele>550.2</ele>
        <time>2020-08-16T16:07:18Z</time>
      </trkpt>
      <trkpt lat="45.95863" lon="6.63917">
        <ele>550.2</ele>
        <time>2020-08-16T16:07:19Z</time>
      </trkpt>
      <trkpt lat="45.95858" lon="6.63919">
        <ele>550.2</ele>
        <time>2020-08-16T16:07:20Z</time>
      </trkpt>
      <trkpt lat="45.95854" lon="6.6392">
        <ele>550.2</ele>
        <time>2020-08-16T16:07:21Z</time>
      </trkpt>
      <trkpt lat="45.95849" lon="6.63921">
        <ele>550.2</ele>
        <time>2020-08-16T16:07:22Z</time>
      </trkpt>
      <trkpt lat="45.95844" lon="6.63922">
        <ele>550</ele>
        <time>2020-08-16T16:07:23Z</time>
      </trkpt>
      <trkpt lat="45.95839" lon="6.63924">
        <ele>550</ele>
        <time>2020-08-16T16:07:24Z</time>
      </trkpt>
      <trkpt lat="45.95835" lon="6.63926">
        <ele>549.8</ele>
        <time>2020-08-16T16:07:25Z</time>
      </trkpt>
      <trkpt lat="45.95829" lon="6.63927">
        <ele>549.8</ele>
        <time>2020-08-16T16:07:26Z</time>
      </trkpt>
      <trkpt lat="45.95824" lon="6.63929">
        <ele>549.6</ele>
        <time>2020-08-16T16:07:27Z</time>
      </trkpt>
      <trkpt lat="45.95819" lon="6.63931">
        <ele>549.2</ele>
        <time>2020-08-16T16:07:28Z</time>
      </trkpt>
      <trkpt lat="45.95813" lon="6.63934">
        <ele>549</ele>
        <time>2020-08-16T16:07:29Z</time>
      </trkpt>
      <trkpt lat="45.95808" lon="6.63936">
        <ele>548.6</ele>
        <time>2020-08-16T16:07:30Z</time>
      </trkpt>
      <trkpt lat="45.95801" lon="6.63938">
        <ele>548.4</ele>
        <time>2020-08-16T16:07:31Z</time>
      </trkpt>
      <trkpt lat="45.95795" lon="6.6394">
        <ele>548</ele>
        <time>2020-08-16T16:07:32Z</time>
      </trkpt>
      <trkpt lat="45.95788" lon="6.63943">
        <ele>547.6</ele>
        <time>2020-08-16T16:07:33Z</time>
      </trkpt>
      <trkpt lat="45.95781" lon="6.63946">
        <ele>547.2</ele>
        <time>2020-08-16T16:07:34Z</time>
      </trkpt>
      <trkpt lat="45.95774" lon="6.63949">
        <ele>546.6</ele>
        <time>2020-08-16T16:07:35Z</time>
      </trkpt>
      <trkpt lat="45.95766" lon="6.63951">
        <ele>546.2</ele>
        <time>2020-08-16T16:07:36Z</time>
      </trkpt>
      <trkpt lat="45.95758" lon="6.63954">
        <ele>545.8</ele>
        <time>2020-08-16T16:07:37Z</time>
      </trkpt>
      <trkpt lat="45.95749" lon="6.63955">
        <ele>545.6</ele>
        <time>2020-08-16T16:07:38Z</time>
      </trkpt>
      <trkpt lat="45.95741" lon="6.63956">
        <ele>545.4</ele>
        <time>2020-08-16T16:07:39Z</time>
      </trkpt>
      <trkpt lat="45.95733" lon="6.63957">
        <ele>545.2</ele>
        <time>2020-08-16T16:07:40Z</time>
      </trkpt>
      <trkpt lat="45.95725" lon="6.63958">
        <ele>545.2</ele>
        <time>2020-08-16T16:07:41Z</time>
      </trkpt>
      <trkpt lat="45.95717" lon="6.63958">
        <ele>545.2</ele>
        <time>2020-08-16T16:07:42Z</time>
      </trkpt>
      <trkpt lat="45.95709" lon="6.63958">
        <ele>545.2</ele>
        <time>2020-08-16T16:07:43Z</time>
      </trkpt>
      <trkpt lat="45.95702" lon="6.63958">
        <ele>545.2</ele>
        <time>2020-08-16T16:07:44Z</time>
      </trkpt>
      <trkpt lat="45.95695" lon="6.63958">
        <ele>545.2</ele>
        <time>2020-08-16T16:07:45Z</time>
      </trkpt>
      <trkpt lat="45.95688" lon="6.63957">
        <ele>545.2</ele>
        <time>2020-08-16T16:07:46Z</time>
      </trkpt>
      <trkpt lat="45.95681" lon="6.63957">
        <ele>545.4</ele>
        <time>2020-08-16T16:07:47Z</time>
      </trkpt>
      <trkpt lat="45.95674" lon="6.63956">
        <ele>545.4</ele>
        <time>2020-08-16T16:07:48Z</time>
      </trkpt>
      <trkpt lat="45.95668" lon="6.63956">
        <ele>545.6</ele>
        <time>2020-08-16T16:07:49Z</time>
      </trkpt>
      <trkpt lat="45.95661" lon="6.63956">
        <ele>545.6</ele>
        <time>2020-08-16T16:07:50Z</time>
      </trkpt>
      <trkpt lat="45.95655" lon="6.63956">
        <ele>545.8</ele>
        <time>2020-08-16T16:07:51Z</time>
      </trkpt>
      <trkpt lat="45.95649" lon="6.63956">
        <ele>545.8</ele>
        <time>2020-08-16T16:07:52Z</time>
      </trkpt>
      <trkpt lat="45.95643" lon="6.63956">
        <ele>545.8</ele>
        <time>2020-08-16T16:07:53Z</time>
      </trkpt>
      <trkpt lat="45.95637" lon="6.63956">
        <ele>546</ele>
        <time>2020-08-16T16:07:54Z</time>
      </trkpt>
      <trkpt lat="45.95632" lon="6.63956">
        <ele>546.2</ele>
        <time>2020-08-16T16:07:55Z</time>
      </trkpt>
      <trkpt lat="45.95626" lon="6.63956">
        <ele>546.4</ele>
        <time>2020-08-16T16:07:56Z</time>
      </trkpt>
      <trkpt lat="45.95621" lon="6.63956">
        <ele>546.6</ele>
        <time>2020-08-16T16:07:57Z</time>
      </trkpt>
      <trkpt lat="45.95615" lon="6.63956">
        <ele>546.4</ele>
        <time>2020-08-16T16:07:58Z</time>
      </trkpt>
      <trkpt lat="45.9561" lon="6.63955">
        <ele>546.4</ele>
        <time>2020-08-16T16:07:59Z</time>
      </trkpt>
      <trkpt lat="45.95605" lon="6.63955">
        <ele>546.4</ele>
        <time>2020-08-16T16:08:00Z</time>
      </trkpt>
      <trkpt lat="45.95601" lon="6.63954">
        <ele>546.4</ele>
        <time>2020-08-16T16:08:01Z</time>
      </trkpt>
      <trkpt lat="45.95596" lon="6.63953">
        <ele>546.4</ele>
        <time>2020-08-16T16:08:02Z</time>
      </trkpt>
      <trkpt lat="45.95591" lon="6.63952">
        <ele>546.4</ele>
        <time>2020-08-16T16:08:03Z</time>
      </trkpt>
      <trkpt lat="45.95586" lon="6.6395">
        <ele>546.4</ele>
        <time>2020-08-16T16:08:04Z</time>
      </trkpt>
      <trkpt lat="45.95582" lon="6.63948">
        <ele>546.2</ele>
        <time>2020-08-16T16:08:05Z</time>
      </trkpt>
      <trkpt lat="45.95577" lon="6.63945">
        <ele>546.2</ele>
        <time>2020-08-16T16:08:06Z</time>
      </trkpt>
      <trkpt lat="45.95573" lon="6.63941">
        <ele>546.2</ele>
        <time>2020-08-16T16:08:07Z</time>
      </trkpt>
      <trkpt lat="45.95568" lon="6.63937">
        <ele>546.2</ele>
        <time>2020-08-16T16:08:08Z</time>
      </trkpt>
      <trkpt lat="45.95563" lon="6.63933">
        <ele>546.2</ele>
        <time>2020-08-16T16:08:09Z</time>
      </trkpt>
      <trkpt lat="45.95558" lon="6.6393">
        <ele>546</ele>
        <time>2020-08-16T16:08:10Z</time>
      </trkpt>
      <trkpt lat="45.95552" lon="6.63928">
        <ele>546</ele>
        <time>2020-08-16T16:08:11Z</time>
      </trkpt>
      <trkpt lat="45.95547" lon="6.63927">
        <ele>546.4</ele>
        <time>2020-08-16T16:08:12Z</time>
      </trkpt>
      <trkpt lat="45.95541" lon="6.63928">
        <ele>546.4</ele>
        <time>2020-08-16T16:08:13Z</time>
      </trkpt>
      <trkpt lat="45.95536" lon="6.63928">
        <ele>546.6</ele>
        <time>2020-08-16T16:08:14Z</time>
      </trkpt>
      <trkpt lat="45.95531" lon="6.63928">
        <ele>546.8</ele>
        <time>2020-08-16T16:08:15Z</time>
      </trkpt>
      <trkpt lat="45.95526" lon="6.6393">
        <ele>547</ele>
        <time>2020-08-16T16:08:16Z</time>
      </trkpt>
      <trkpt lat="45.95522" lon="6.6393">
        <ele>547.2</ele>
        <time>2020-08-16T16:08:17Z</time>
      </trkpt>
      <trkpt lat="45.95518" lon="6.63931">
        <ele>547.6</ele>
        <time>2020-08-16T16:08:18Z</time>
      </trkpt>
      <trkpt lat="45.95514" lon="6.63931">
        <ele>547.6</ele>
        <time>2020-08-16T16:08:19Z</time>
      </trkpt>
      <trkpt lat="45.9551" lon="6.63932">
        <ele>547.6</ele>
        <time>2020-08-16T16:08:20Z</time>
      </trkpt>
      <trkpt lat="45.95506" lon="6.63932">
        <ele>547.6</ele>
        <time>2020-08-16T16:08:21Z</time>
      </trkpt>
      <trkpt lat="45.95503" lon="6.63932">
        <ele>547.6</ele>
        <time>2020-08-16T16:08:22Z</time>
      </trkpt>
      <trkpt lat="45.955" lon="6.63933">
        <ele>547.8</ele>
        <time>2020-08-16T16:08:23Z</time>
      </trkpt>
      <trkpt lat="45.95497" lon="6.63933">
        <ele>547.8</ele>
        <time>2020-08-16T16:08:24Z</time>
      </trkpt>
      <trkpt lat="45.95493" lon="6.63934">
        <ele>547.8</ele>
        <time>2020-08-16T16:08:25Z</time>
      </trkpt>
      <trkpt lat="45.9549" lon="6.63934">
        <ele>547.8</ele>
        <time>2020-08-16T16:08:26Z</time>
      </trkpt>
      <trkpt lat="45.95487" lon="6.63934">
        <ele>548</ele>
        <time>2020-08-16T16:08:27Z</time>
      </trkpt>
      <trkpt lat="45.95484" lon="6.63935">
        <ele>548.2</ele>
        <time>2020-08-16T16:08:28Z</time>
      </trkpt>
      <trkpt lat="45.9548" lon="6.63936">
        <ele>548.2</ele>
        <time>2020-08-16T16:08:29Z</time>
      </trkpt>
      <trkpt lat="45.95477" lon="6.63936">
        <ele>548.4</ele>
        <time>2020-08-16T16:08:30Z</time>
      </trkpt>
      <trkpt lat="45.95473" lon="6.63937">
        <ele>548.4</ele>
        <time>2020-08-16T16:08:31Z</time>
      </trkpt>
      <trkpt lat="45.95469" lon="6.63938">
        <ele>548.6</ele>
        <time>2020-08-16T16:08:32Z</time>
      </trkpt>
      <trkpt lat="45.95466" lon="6.63939">
        <ele>548.6</ele>
        <time>2020-08-16T16:08:33Z</time>
      </trkpt>
      <trkpt lat="45.95462" lon="6.6394">
        <ele>548.6</ele>
        <time>2020-08-16T16:08:34Z</time>
      </trkpt>
      <trkpt lat="45.95459" lon="6.63941">
        <ele>548.4</ele>
        <time>2020-08-16T16:08:35Z</time>
      </trkpt>
      <trkpt lat="45.95456" lon="6.63941">
        <ele>548.4</ele>
        <time>2020-08-16T16:08:36Z</time>
      </trkpt>
      <trkpt lat="45.95452" lon="6.63942">
        <ele>548.6</ele>
        <time>2020-08-16T16:08:37Z</time>
      </trkpt>
      <trkpt lat="45.95449" lon="6.63942">
        <ele>548.6</ele>
        <time>2020-08-16T16:08:38Z</time>
      </trkpt>
      <trkpt lat="45.95446" lon="6.63943">
        <ele>548.6</ele>
        <time>2020-08-16T16:08:39Z</time>
      </trkpt>
      <trkpt lat="45.95442" lon="6.63945">
        <ele>548.6</ele>
        <time>2020-08-16T16:08:40Z</time>
      </trkpt>
      <trkpt lat="45.95438" lon="6.63946">
        <ele>548.6</ele>
        <time>2020-08-16T16:08:41Z</time>
      </trkpt>
      <trkpt lat="45.95435" lon="6.63946">
        <ele>548.6</ele>
        <time>2020-08-16T16:08:42Z</time>
      </trkpt>
      <trkpt lat="45.95432" lon="6.63946">
        <ele>548.6</ele>
        <time>2020-08-16T16:08:43Z</time>
      </trkpt>
      <trkpt lat="45.9543" lon="6.63947">
        <ele>548.6</ele>
        <time>2020-08-16T16:08:44Z</time>
      </trkpt>
      <trkpt lat="45.95425" lon="6.63949">
        <ele>548.4</ele>
        <time>2020-08-16T16:08:45Z</time>
      </trkpt>
      <trkpt lat="45.9542" lon="6.63952">
        <ele>548.4</ele>
        <time>2020-08-16T16:08:46Z</time>
      </trkpt>
      <trkpt lat="45.95416" lon="6.63954">
        <ele>548.4</ele>
        <time>2020-08-16T16:08:47Z</time>
      </trkpt>
      <trkpt lat="45.95412" lon="6.63956">
        <ele>548.2</ele>
        <time>2020-08-16T16:08:48Z</time>
      </trkpt>
      <trkpt lat="45.95408" lon="6.63959">
        <ele>548.2</ele>
        <time>2020-08-16T16:08:49Z</time>
      </trkpt>
      <trkpt lat="45.95404" lon="6.63961">
        <ele>548.2</ele>
        <time>2020-08-16T16:08:50Z</time>
      </trkpt>
      <trkpt lat="45.954" lon="6.63962">
        <ele>548.2</ele>
        <time>2020-08-16T16:08:51Z</time>
      </trkpt>
      <trkpt lat="45.95396" lon="6.63963">
        <ele>548.2</ele>
        <time>2020-08-16T16:08:52Z</time>
      </trkpt>
      <trkpt lat="45.95392" lon="6.63966">
        <ele>548.2</ele>
        <time>2020-08-16T16:08:53Z</time>
      </trkpt>
      <trkpt lat="45.95387" lon="6.63969">
        <ele>548.2</ele>
        <time>2020-08-16T16:08:54Z</time>
      </trkpt>
      <trkpt lat="45.95382" lon="6.63972">
        <ele>548</ele>
        <time>2020-08-16T16:08:55Z</time>
      </trkpt>
      <trkpt lat="45.95376" lon="6.63975">
        <ele>548.2</ele>
        <time>2020-08-16T16:08:56Z</time>
      </trkpt>
      <trkpt lat="45.95371" lon="6.63979">
        <ele>548.2</ele>
        <time>2020-08-16T16:08:57Z</time>
      </trkpt>
      <trkpt lat="45.95367" lon="6.63981">
        <ele>548.2</ele>
        <time>2020-08-16T16:08:58Z</time>
      </trkpt>
      <trkpt lat="45.95362" lon="6.63984">
        <ele>548</ele>
        <time>2020-08-16T16:08:59Z</time>
      </trkpt>
      <trkpt lat="45.95357" lon="6.63986">
        <ele>548</ele>
        <time>2020-08-16T16:09:00Z</time>
      </trkpt>
      <trkpt lat="45.95352" lon="6.63989">
        <ele>548</ele>
        <time>2020-08-16T16:09:01Z</time>
      </trkpt>
      <trkpt lat="45.95346" lon="6.63992">
        <ele>547.8</ele>
        <time>2020-08-16T16:09:02Z</time>
      </trkpt>
      <trkpt lat="45.95341" lon="6.63995">
        <ele>547.8</ele>
        <time>2020-08-16T16:09:03Z</time>
      </trkpt>
      <trkpt lat="45.95336" lon="6.63997">
        <ele>547.6</ele>
        <time>2020-08-16T16:09:04Z</time>
      </trkpt>
      <trkpt lat="45.95331" lon="6.63999">
        <ele>547.6</ele>
        <time>2020-08-16T16:09:05Z</time>
      </trkpt>
      <trkpt lat="45.95325" lon="6.64002">
        <ele>547.6</ele>
        <time>2020-08-16T16:09:06Z</time>
      </trkpt>
      <trkpt lat="45.9532" lon="6.64004">
        <ele>547.6</ele>
        <time>2020-08-16T16:09:07Z</time>
      </trkpt>
      <trkpt lat="45.95315" lon="6.64007">
        <ele>547.6</ele>
        <time>2020-08-16T16:09:08Z</time>
      </trkpt>
      <trkpt lat="45.95311" lon="6.64008">
        <ele>547.6</ele>
        <time>2020-08-16T16:09:09Z</time>
      </trkpt>
      <trkpt lat="45.95304" lon="6.64012">
        <ele>547.4</ele>
        <time>2020-08-16T16:09:10Z</time>
      </trkpt>
      <trkpt lat="45.95298" lon="6.64015">
        <ele>547.4</ele>
        <time>2020-08-16T16:09:11Z</time>
      </trkpt>
      <trkpt lat="45.95294" lon="6.64017">
        <ele>547.4</ele>
        <time>2020-08-16T16:09:12Z</time>
      </trkpt>
      <trkpt lat="45.95288" lon="6.6402">
        <ele>547.2</ele>
        <time>2020-08-16T16:09:13Z</time>
      </trkpt>
      <trkpt lat="45.95283" lon="6.64022">
        <ele>547.2</ele>
        <time>2020-08-16T16:09:14Z</time>
      </trkpt>
      <trkpt lat="45.95278" lon="6.64024">
        <ele>547.2</ele>
        <time>2020-08-16T16:09:15Z</time>
      </trkpt>
      <trkpt lat="45.9527" lon="6.64029">
        <ele>547.4</ele>
        <time>2020-08-16T16:09:16Z</time>
      </trkpt>
      <trkpt lat="45.95264" lon="6.64031">
        <ele>547.4</ele>
        <time>2020-08-16T16:09:17Z</time>
      </trkpt>
      <trkpt lat="45.95258" lon="6.64034">
        <ele>547.4</ele>
        <time>2020-08-16T16:09:18Z</time>
      </trkpt>
      <trkpt lat="45.95253" lon="6.64036">
        <ele>547.4</ele>
        <time>2020-08-16T16:09:19Z</time>
      </trkpt>
      <trkpt lat="45.95249" lon="6.64038">
        <ele>547.4</ele>
        <time>2020-08-16T16:09:20Z</time>
      </trkpt>
      <trkpt lat="45.95244" lon="6.6404">
        <ele>547.4</ele>
        <time>2020-08-16T16:09:21Z</time>
      </trkpt>
      <trkpt lat="45.95238" lon="6.64043">
        <ele>547.4</ele>
        <time>2020-08-16T16:09:22Z</time>
      </trkpt>
      <trkpt lat="45.95233" lon="6.64045">
        <ele>547.6</ele>
        <time>2020-08-16T16:09:23Z</time>
      </trkpt>
      <trkpt lat="45.95226" lon="6.64048">
        <ele>547.8</ele>
        <time>2020-08-16T16:09:24Z</time>
      </trkpt>
      <trkpt lat="45.95221" lon="6.6405">
        <ele>547.8</ele>
        <time>2020-08-16T16:09:25Z</time>
      </trkpt>
      <trkpt lat="45.95216" lon="6.64053">
        <ele>547.8</ele>
        <time>2020-08-16T16:09:26Z</time>
      </trkpt>
      <trkpt lat="45.95211" lon="6.64055">
        <ele>547.8</ele>
        <time>2020-08-16T16:09:27Z</time>
      </trkpt>
      <trkpt lat="45.95206" lon="6.64057">
        <ele>547.8</ele>
        <time>2020-08-16T16:09:28Z</time>
      </trkpt>
      <trkpt lat="45.95201" lon="6.64059">
        <ele>547.8</ele>
        <time>2020-08-16T16:09:29Z</time>
      </trkpt>
      <trkpt lat="45.95196" lon="6.64061">
        <ele>547.6</ele>
        <time>2020-08-16T16:09:30Z</time>
      </trkpt>
      <trkpt lat="45.95191" lon="6.64063">
        <ele>547.6</ele>
        <time>2020-08-16T16:09:31Z</time>
      </trkpt>
      <trkpt lat="45.95186" lon="6.64065">
        <ele>547.6</ele>
        <time>2020-08-16T16:09:32Z</time>
      </trkpt>
      <trkpt lat="45.95181" lon="6.64066">
        <ele>547.6</ele>
        <time>2020-08-16T16:09:33Z</time>
      </trkpt>
      <trkpt lat="45.95176" lon="6.64068">
        <ele>547.6</ele>
        <time>2020-08-16T16:09:34Z</time>
      </trkpt>
      <trkpt lat="45.95172" lon="6.64069">
        <ele>547.6</ele>
        <time>2020-08-16T16:09:35Z</time>
      </trkpt>
      <trkpt lat="45.95167" lon="6.64071">
        <ele>547.6</ele>
        <time>2020-08-16T16:09:36Z</time>
      </trkpt>
      <trkpt lat="45.95162" lon="6.64074">
        <ele>547.6</ele>
        <time>2020-08-16T16:09:37Z</time>
      </trkpt>
      <trkpt lat="45.95157" lon="6.64077">
        <ele>547.6</ele>
        <time>2020-08-16T16:09:38Z</time>
      </trkpt>
      <trkpt lat="45.95152" lon="6.6408">
        <ele>547.6</ele>
        <time>2020-08-16T16:09:39Z</time>
      </trkpt>
      <trkpt lat="45.95147" lon="6.64082">
        <ele>547.8</ele>
        <time>2020-08-16T16:09:40Z</time>
      </trkpt>
      <trkpt lat="45.95143" lon="6.64084">
        <ele>547.8</ele>
        <time>2020-08-16T16:09:41Z</time>
      </trkpt>
      <trkpt lat="45.95138" lon="6.64085">
        <ele>548</ele>
        <time>2020-08-16T16:09:42Z</time>
      </trkpt>
      <trkpt lat="45.95134" lon="6.64087">
        <ele>548</ele>
        <time>2020-08-16T16:09:43Z</time>
      </trkpt>
      <trkpt lat="45.95129" lon="6.64088">
        <ele>548</ele>
        <time>2020-08-16T16:09:44Z</time>
      </trkpt>
      <trkpt lat="45.95125" lon="6.6409">
        <ele>548</ele>
        <time>2020-08-16T16:09:45Z</time>
      </trkpt>
      <trkpt lat="45.9512" lon="6.64092">
        <ele>548</ele>
        <time>2020-08-16T16:09:46Z</time>
      </trkpt>
      <trkpt lat="45.95115" lon="6.64094">
        <ele>548</ele>
        <time>2020-08-16T16:09:47Z</time>
      </trkpt>
      <trkpt lat="45.95111" lon="6.64096">
        <ele>547.8</ele>
        <time>2020-08-16T16:09:48Z</time>
      </trkpt>
      <trkpt lat="45.95105" lon="6.64098">
        <ele>547.8</ele>
        <time>2020-08-16T16:09:49Z</time>
      </trkpt>
      <trkpt lat="45.951" lon="6.641">
        <ele>547.8</ele>
        <time>2020-08-16T16:09:50Z</time>
      </trkpt>
      <trkpt lat="45.95095" lon="6.64102">
        <ele>547.8</ele>
        <time>2020-08-16T16:09:51Z</time>
      </trkpt>
      <trkpt lat="45.9509" lon="6.64104">
        <ele>547.8</ele>
        <time>2020-08-16T16:09:52Z</time>
      </trkpt>
      <trkpt lat="45.95085" lon="6.64107">
        <ele>548</ele>
        <time>2020-08-16T16:09:53Z</time>
      </trkpt>
      <trkpt lat="45.9508" lon="6.64109">
        <ele>548</ele>
        <time>2020-08-16T16:09:54Z</time>
      </trkpt>
      <trkpt lat="45.95075" lon="6.64112">
        <ele>548</ele>
        <time>2020-08-16T16:09:55Z</time>
      </trkpt>
      <trkpt lat="45.9507" lon="6.64114">
        <ele>548.2</ele>
        <time>2020-08-16T16:09:56Z</time>
      </trkpt>
      <trkpt lat="45.95065" lon="6.64116">
        <ele>548.2</ele>
        <time>2020-08-16T16:09:57Z</time>
      </trkpt>
      <trkpt lat="45.9506" lon="6.64118">
        <ele>548.2</ele>
        <time>2020-08-16T16:09:58Z</time>
      </trkpt>
      <trkpt lat="45.95055" lon="6.6412">
        <ele>548.2</ele>
        <time>2020-08-16T16:09:59Z</time>
      </trkpt>
      <trkpt lat="45.95051" lon="6.64122">
        <ele>548.4</ele>
        <time>2020-08-16T16:10:00Z</time>
      </trkpt>
      <trkpt lat="45.95046" lon="6.64124">
        <ele>548.4</ele>
        <time>2020-08-16T16:10:01Z</time>
      </trkpt>
      <trkpt lat="45.9504" lon="6.64126">
        <ele>548.4</ele>
        <time>2020-08-16T16:10:02Z</time>
      </trkpt>
      <trkpt lat="45.95035" lon="6.64128">
        <ele>548.6</ele>
        <time>2020-08-16T16:10:03Z</time>
      </trkpt>
      <trkpt lat="45.95029" lon="6.6413">
        <ele>548.6</ele>
        <time>2020-08-16T16:10:04Z</time>
      </trkpt>
      <trkpt lat="45.95024" lon="6.64133">
        <ele>548.6</ele>
        <time>2020-08-16T16:10:05Z</time>
      </trkpt>
      <trkpt lat="45.95019" lon="6.64135">
        <ele>548.6</ele>
        <time>2020-08-16T16:10:06Z</time>
      </trkpt>
      <trkpt lat="45.95013" lon="6.64138">
        <ele>548.8</ele>
        <time>2020-08-16T16:10:07Z</time>
      </trkpt>
      <trkpt lat="45.95008" lon="6.64141">
        <ele>548.8</ele>
        <time>2020-08-16T16:10:08Z</time>
      </trkpt>
      <trkpt lat="45.95003" lon="6.64143">
        <ele>548.6</ele>
        <time>2020-08-16T16:10:09Z</time>
      </trkpt>
      <trkpt lat="45.94997" lon="6.64146">
        <ele>548.6</ele>
        <time>2020-08-16T16:10:10Z</time>
      </trkpt>
      <trkpt lat="45.94992" lon="6.64148">
        <ele>548.6</ele>
        <time>2020-08-16T16:10:11Z</time>
      </trkpt>
      <trkpt lat="45.94987" lon="6.64151">
        <ele>548.6</ele>
        <time>2020-08-16T16:10:12Z</time>
      </trkpt>
      <trkpt lat="45.94982" lon="6.64153">
        <ele>548.6</ele>
        <time>2020-08-16T16:10:13Z</time>
      </trkpt>
      <trkpt lat="45.94976" lon="6.64155">
        <ele>548.6</ele>
        <time>2020-08-16T16:10:14Z</time>
      </trkpt>
      <trkpt lat="45.94971" lon="6.64156">
        <ele>548.6</ele>
        <time>2020-08-16T16:10:15Z</time>
      </trkpt>
      <trkpt lat="45.94965" lon="6.64157">
        <ele>548.6</ele>
        <time>2020-08-16T16:10:16Z</time>
      </trkpt>
      <trkpt lat="45.94961" lon="6.64158">
        <ele>548.8</ele>
        <time>2020-08-16T16:10:17Z</time>
      </trkpt>
      <trkpt lat="45.94956" lon="6.64158">
        <ele>548.8</ele>
        <time>2020-08-16T16:10:18Z</time>
      </trkpt>
      <trkpt lat="45.94951" lon="6.64158">
        <ele>548.8</ele>
        <time>2020-08-16T16:10:19Z</time>
      </trkpt>
      <trkpt lat="45.94946" lon="6.64158">
        <ele>548.8</ele>
        <time>2020-08-16T16:10:20Z</time>
      </trkpt>
      <trkpt lat="45.94941" lon="6.64158">
        <ele>548.8</ele>
        <time>2020-08-16T16:10:21Z</time>
      </trkpt>
      <trkpt lat="45.94936" lon="6.64158">
        <ele>549</ele>
        <time>2020-08-16T16:10:22Z</time>
      </trkpt>
      <trkpt lat="45.9493" lon="6.64158">
        <ele>549</ele>
        <time>2020-08-16T16:10:23Z</time>
      </trkpt>
      <trkpt lat="45.94925" lon="6.64157">
        <ele>549</ele>
        <time>2020-08-16T16:10:24Z</time>
      </trkpt>
      <trkpt lat="45.94919" lon="6.64157">
        <ele>549</ele>
        <time>2020-08-16T16:10:25Z</time>
      </trkpt>
      <trkpt lat="45.94914" lon="6.64156">
        <ele>549.2</ele>
        <time>2020-08-16T16:10:26Z</time>
      </trkpt>
      <trkpt lat="45.94909" lon="6.64156">
        <ele>549.2</ele>
        <time>2020-08-16T16:10:27Z</time>
      </trkpt>
      <trkpt lat="45.94904" lon="6.64156">
        <ele>549.4</ele>
        <time>2020-08-16T16:10:28Z</time>
      </trkpt>
      <trkpt lat="45.94899" lon="6.64156">
        <ele>549.4</ele>
        <time>2020-08-16T16:10:29Z</time>
      </trkpt>
      <trkpt lat="45.94894" lon="6.64155">
        <ele>549.4</ele>
        <time>2020-08-16T16:10:30Z</time>
      </trkpt>
      <trkpt lat="45.9489" lon="6.64156">
        <ele>549.6</ele>
        <time>2020-08-16T16:10:31Z</time>
      </trkpt>
      <trkpt lat="45.94885" lon="6.64155">
        <ele>549.6</ele>
        <time>2020-08-16T16:10:32Z</time>
      </trkpt>
      <trkpt lat="45.9488" lon="6.64155">
        <ele>549.6</ele>
        <time>2020-08-16T16:10:33Z</time>
      </trkpt>
      <trkpt lat="45.94875" lon="6.64155">
        <ele>549.8</ele>
        <time>2020-08-16T16:10:34Z</time>
      </trkpt>
      <trkpt lat="45.94869" lon="6.64154">
        <ele>549.8</ele>
        <time>2020-08-16T16:10:35Z</time>
      </trkpt>
      <trkpt lat="45.94864" lon="6.64154">
        <ele>549.8</ele>
        <time>2020-08-16T16:10:36Z</time>
      </trkpt>
      <trkpt lat="45.94859" lon="6.64154">
        <ele>549.8</ele>
        <time>2020-08-16T16:10:37Z</time>
      </trkpt>
      <trkpt lat="45.94853" lon="6.64154">
        <ele>549.8</ele>
        <time>2020-08-16T16:10:38Z</time>
      </trkpt>
      <trkpt lat="45.94847" lon="6.64154">
        <ele>549.8</ele>
        <time>2020-08-16T16:10:39Z</time>
      </trkpt>
      <trkpt lat="45.94842" lon="6.64153">
        <ele>549.8</ele>
        <time>2020-08-16T16:10:40Z</time>
      </trkpt>
      <trkpt lat="45.94836" lon="6.64153">
        <ele>549.8</ele>
        <time>2020-08-16T16:10:41Z</time>
      </trkpt>
      <trkpt lat="45.94831" lon="6.64152">
        <ele>549.8</ele>
        <time>2020-08-16T16:10:42Z</time>
      </trkpt>
      <trkpt lat="45.94825" lon="6.64152">
        <ele>549.8</ele>
        <time>2020-08-16T16:10:43Z</time>
      </trkpt>
      <trkpt lat="45.9482" lon="6.64151">
        <ele>550</ele>
        <time>2020-08-16T16:10:44Z</time>
      </trkpt>
      <trkpt lat="45.94814" lon="6.64151">
        <ele>550</ele>
        <time>2020-08-16T16:10:45Z</time>
      </trkpt>
      <trkpt lat="45.94809" lon="6.64151">
        <ele>550</ele>
        <time>2020-08-16T16:10:46Z</time>
      </trkpt>
      <trkpt lat="45.94804" lon="6.64151">
        <ele>550</ele>
        <time>2020-08-16T16:10:47Z</time>
      </trkpt>
      <trkpt lat="45.94799" lon="6.64151">
        <ele>550</ele>
        <time>2020-08-16T16:10:48Z</time>
      </trkpt>
      <trkpt lat="45.94793" lon="6.6415">
        <ele>550.2</ele>
        <time>2020-08-16T16:10:49Z</time>
      </trkpt>
      <trkpt lat="45.94788" lon="6.64149">
        <ele>550.2</ele>
        <time>2020-08-16T16:10:50Z</time>
      </trkpt>
      <trkpt lat="45.94783" lon="6.64149">
        <ele>550.2</ele>
        <time>2020-08-16T16:10:51Z</time>
      </trkpt>
      <trkpt lat="45.94777" lon="6.64148">
        <ele>550.2</ele>
        <time>2020-08-16T16:10:52Z</time>
      </trkpt>
      <trkpt lat="45.94772" lon="6.64148">
        <ele>550.2</ele>
        <time>2020-08-16T16:10:53Z</time>
      </trkpt>
      <trkpt lat="45.94767" lon="6.64148">
        <ele>550.2</ele>
        <time>2020-08-16T16:10:54Z</time>
      </trkpt>
      <trkpt lat="45.94762" lon="6.64148">
        <ele>550.2</ele>
        <time>2020-08-16T16:10:55Z</time>
      </trkpt>
      <trkpt lat="45.94757" lon="6.64148">
        <ele>550.4</ele>
        <time>2020-08-16T16:10:56Z</time>
      </trkpt>
      <trkpt lat="45.94751" lon="6.64148">
        <ele>550.4</ele>
        <time>2020-08-16T16:10:57Z</time>
      </trkpt>
      <trkpt lat="45.94746" lon="6.64148">
        <ele>550.4</ele>
        <time>2020-08-16T16:10:58Z</time>
      </trkpt>
      <trkpt lat="45.94741" lon="6.64148">
        <ele>550.4</ele>
        <time>2020-08-16T16:10:59Z</time>
      </trkpt>
      <trkpt lat="45.94736" lon="6.64148">
        <ele>550.4</ele>
        <time>2020-08-16T16:11:00Z</time>
      </trkpt>
      <trkpt lat="45.94731" lon="6.64148">
        <ele>550.6</ele>
        <time>2020-08-16T16:11:01Z</time>
      </trkpt>
      <trkpt lat="45.94725" lon="6.64149">
        <ele>550.6</ele>
        <time>2020-08-16T16:11:02Z</time>
      </trkpt>
      <trkpt lat="45.9472" lon="6.64149">
        <ele>550.6</ele>
        <time>2020-08-16T16:11:03Z</time>
      </trkpt>
      <trkpt lat="45.94715" lon="6.64149">
        <ele>550.6</ele>
        <time>2020-08-16T16:11:04Z</time>
      </trkpt>
      <trkpt lat="45.9471" lon="6.64149">
        <ele>550.6</ele>
        <time>2020-08-16T16:11:05Z</time>
      </trkpt>
      <trkpt lat="45.94704" lon="6.6415">
        <ele>550.6</ele>
        <time>2020-08-16T16:11:06Z</time>
      </trkpt>
      <trkpt lat="45.94699" lon="6.6415">
        <ele>550.8</ele>
        <time>2020-08-16T16:11:07Z</time>
      </trkpt>
      <trkpt lat="45.94694" lon="6.6415">
        <ele>550.8</ele>
        <time>2020-08-16T16:11:08Z</time>
      </trkpt>
      <trkpt lat="45.94689" lon="6.64151">
        <ele>550.8</ele>
        <time>2020-08-16T16:11:09Z</time>
      </trkpt>
      <trkpt lat="45.94684" lon="6.64151">
        <ele>551</ele>
        <time>2020-08-16T16:11:10Z</time>
      </trkpt>
      <trkpt lat="45.94679" lon="6.64151">
        <ele>551</ele>
        <time>2020-08-16T16:11:11Z</time>
      </trkpt>
      <trkpt lat="45.94674" lon="6.64152">
        <ele>551</ele>
        <time>2020-08-16T16:11:12Z</time>
      </trkpt>
      <trkpt lat="45.94669" lon="6.64152">
        <ele>551</ele>
        <time>2020-08-16T16:11:13Z</time>
      </trkpt>
      <trkpt lat="45.94665" lon="6.64153">
        <ele>551</ele>
        <time>2020-08-16T16:11:14Z</time>
      </trkpt>
      <trkpt lat="45.9466" lon="6.64154">
        <ele>550.8</ele>
        <time>2020-08-16T16:11:15Z</time>
      </trkpt>
      <trkpt lat="45.94655" lon="6.64154">
        <ele>551</ele>
        <time>2020-08-16T16:11:16Z</time>
      </trkpt>
      <trkpt lat="45.9465" lon="6.64155">
        <ele>551</ele>
        <time>2020-08-16T16:11:17Z</time>
      </trkpt>
      <trkpt lat="45.94645" lon="6.64155">
        <ele>551</ele>
        <time>2020-08-16T16:11:18Z</time>
      </trkpt>
      <trkpt lat="45.94641" lon="6.64156">
        <ele>551</ele>
        <time>2020-08-16T16:11:19Z</time>
      </trkpt>
      <trkpt lat="45.94636" lon="6.64156">
        <ele>551</ele>
        <time>2020-08-16T16:11:20Z</time>
      </trkpt>
      <trkpt lat="45.94631" lon="6.64157">
        <ele>551</ele>
        <time>2020-08-16T16:11:21Z</time>
      </trkpt>
      <trkpt lat="45.94626" lon="6.64157">
        <ele>551</ele>
        <time>2020-08-16T16:11:22Z</time>
      </trkpt>
      <trkpt lat="45.94621" lon="6.64158">
        <ele>551</ele>
        <time>2020-08-16T16:11:23Z</time>
      </trkpt>
      <trkpt lat="45.94616" lon="6.64159">
        <ele>551</ele>
        <time>2020-08-16T16:11:24Z</time>
      </trkpt>
      <trkpt lat="45.94611" lon="6.64159">
        <ele>551.2</ele>
        <time>2020-08-16T16:11:25Z</time>
      </trkpt>
      <trkpt lat="45.94606" lon="6.6416">
        <ele>551.2</ele>
        <time>2020-08-16T16:11:26Z</time>
      </trkpt>
      <trkpt lat="45.94601" lon="6.6416">
        <ele>551.2</ele>
        <time>2020-08-16T16:11:27Z</time>
      </trkpt>
      <trkpt lat="45.94596" lon="6.64161">
        <ele>551.4</ele>
        <time>2020-08-16T16:11:28Z</time>
      </trkpt>
      <trkpt lat="45.94591" lon="6.64161">
        <ele>551.4</ele>
        <time>2020-08-16T16:11:29Z</time>
      </trkpt>
      <trkpt lat="45.94587" lon="6.64162">
        <ele>551.4</ele>
        <time>2020-08-16T16:11:30Z</time>
      </trkpt>
      <trkpt lat="45.94582" lon="6.64162">
        <ele>551.4</ele>
        <time>2020-08-16T16:11:31Z</time>
      </trkpt>
      <trkpt lat="45.94577" lon="6.64162">
        <ele>551.4</ele>
        <time>2020-08-16T16:11:32Z</time>
      </trkpt>
      <trkpt lat="45.94573" lon="6.64163">
        <ele>551.6</ele>
        <time>2020-08-16T16:11:33Z</time>
      </trkpt>
      <trkpt lat="45.94568" lon="6.64163">
        <ele>551.6</ele>
        <time>2020-08-16T16:11:34Z</time>
      </trkpt>
      <trkpt lat="45.94563" lon="6.64163">
        <ele>551.6</ele>
        <time>2020-08-16T16:11:35Z</time>
      </trkpt>
      <trkpt lat="45.94558" lon="6.64164">
        <ele>551.6</ele>
        <time>2020-08-16T16:11:36Z</time>
      </trkpt>
      <trkpt lat="45.94554" lon="6.64164">
        <ele>551.8</ele>
        <time>2020-08-16T16:11:37Z</time>
      </trkpt>
      <trkpt lat="45.9455" lon="6.64164">
        <ele>551.8</ele>
        <time>2020-08-16T16:11:38Z</time>
      </trkpt>
      <trkpt lat="45.94545" lon="6.64165">
        <ele>551.8</ele>
        <time>2020-08-16T16:11:39Z</time>
      </trkpt>
      <trkpt lat="45.94541" lon="6.64165">
        <ele>552</ele>
        <time>2020-08-16T16:11:40Z</time>
      </trkpt>
      <trkpt lat="45.94537" lon="6.64164">
        <ele>552</ele>
        <time>2020-08-16T16:11:41Z</time>
      </trkpt>
      <trkpt lat="45.94532" lon="6.64164">
        <ele>552</ele>
        <time>2020-08-16T16:11:42Z</time>
      </trkpt>
      <trkpt lat="45.94527" lon="6.64164">
        <ele>552</ele>
        <time>2020-08-16T16:11:43Z</time>
      </trkpt>
      <trkpt lat="45.94523" lon="6.64164">
        <ele>552</ele>
        <time>2020-08-16T16:11:44Z</time>
      </trkpt>
      <trkpt lat="45.94518" lon="6.64164">
        <ele>552</ele>
        <time>2020-08-16T16:11:45Z</time>
      </trkpt>
      <trkpt lat="45.94514" lon="6.64164">
        <ele>552.4</ele>
        <time>2020-08-16T16:11:46Z</time>
      </trkpt>
      <trkpt lat="45.9451" lon="6.64165">
        <ele>552.4</ele>
        <time>2020-08-16T16:11:47Z</time>
      </trkpt>
      <trkpt lat="45.94505" lon="6.64165">
        <ele>552.4</ele>
        <time>2020-08-16T16:11:48Z</time>
      </trkpt>
      <trkpt lat="45.94501" lon="6.64166">
        <ele>552.4</ele>
        <time>2020-08-16T16:11:49Z</time>
      </trkpt>
      <trkpt lat="45.94496" lon="6.64166">
        <ele>552.6</ele>
        <time>2020-08-16T16:11:50Z</time>
      </trkpt>
      <trkpt lat="45.94492" lon="6.64167">
        <ele>552.6</ele>
        <time>2020-08-16T16:11:51Z</time>
      </trkpt>
      <trkpt lat="45.94488" lon="6.64167">
        <ele>552.8</ele>
        <time>2020-08-16T16:11:52Z</time>
      </trkpt>
      <trkpt lat="45.94484" lon="6.64167">
        <ele>552.8</ele>
        <time>2020-08-16T16:11:53Z</time>
      </trkpt>
      <trkpt lat="45.9448" lon="6.64167">
        <ele>552.8</ele>
        <time>2020-08-16T16:11:54Z</time>
      </trkpt>
      <trkpt lat="45.94476" lon="6.64167">
        <ele>553</ele>
        <time>2020-08-16T16:11:55Z</time>
      </trkpt>
      <trkpt lat="45.94471" lon="6.64168">
        <ele>553.2</ele>
        <time>2020-08-16T16:11:56Z</time>
      </trkpt>
      <trkpt lat="45.94467" lon="6.64168">
        <ele>553.2</ele>
        <time>2020-08-16T16:11:57Z</time>
      </trkpt>
      <trkpt lat="45.94464" lon="6.64169">
        <ele>553.4</ele>
        <time>2020-08-16T16:11:58Z</time>
      </trkpt>
      <trkpt lat="45.9446" lon="6.64169">
        <ele>553.4</ele>
        <time>2020-08-16T16:11:59Z</time>
      </trkpt>
      <trkpt lat="45.94456" lon="6.64169">
        <ele>553.4</ele>
        <time>2020-08-16T16:12:00Z</time>
      </trkpt>
      <trkpt lat="45.94452" lon="6.6417">
        <ele>553.6</ele>
        <time>2020-08-16T16:12:01Z</time>
      </trkpt>
      <trkpt lat="45.94449" lon="6.6417">
        <ele>553.6</ele>
        <time>2020-08-16T16:12:02Z</time>
      </trkpt>
      <trkpt lat="45.94445" lon="6.6417">
        <ele>553.8</ele>
        <time>2020-08-16T16:12:03Z</time>
      </trkpt>
      <trkpt lat="45.94442" lon="6.6417">
        <ele>554</ele>
        <time>2020-08-16T16:12:04Z</time>
      </trkpt>
      <trkpt lat="45.94438" lon="6.64171">
        <ele>554</ele>
        <time>2020-08-16T16:12:05Z</time>
      </trkpt>
      <trkpt lat="45.94435" lon="6.64171">
        <ele>554</ele>
        <time>2020-08-16T16:12:06Z</time>
      </trkpt>
      <trkpt lat="45.94432" lon="6.64171">
        <ele>554.2</ele>
        <time>2020-08-16T16:12:07Z</time>
      </trkpt>
      <trkpt lat="45.94428" lon="6.64171">
        <ele>554.2</ele>
        <time>2020-08-16T16:12:08Z</time>
      </trkpt>
      <trkpt lat="45.94425" lon="6.64172">
        <ele>554.4</ele>
        <time>2020-08-16T16:12:09Z</time>
      </trkpt>
      <trkpt lat="45.94422" lon="6.64172">
        <ele>554.6</ele>
        <time>2020-08-16T16:12:10Z</time>
      </trkpt>
      <trkpt lat="45.94418" lon="6.64172">
        <ele>554.6</ele>
        <time>2020-08-16T16:12:11Z</time>
      </trkpt>
      <trkpt lat="45.94414" lon="6.64173">
        <ele>554.6</ele>
        <time>2020-08-16T16:12:12Z</time>
      </trkpt>
      <trkpt lat="45.94411" lon="6.64173">
        <ele>554.8</ele>
        <time>2020-08-16T16:12:13Z</time>
      </trkpt>
      <trkpt lat="45.94407" lon="6.64173">
        <ele>554.8</ele>
        <time>2020-08-16T16:12:14Z</time>
      </trkpt>
      <trkpt lat="45.94404" lon="6.64173">
        <ele>555</ele>
        <time>2020-08-16T16:12:15Z</time>
      </trkpt>
      <trkpt lat="45.944" lon="6.64174">
        <ele>555.2</ele>
        <time>2020-08-16T16:12:16Z</time>
      </trkpt>
      <trkpt lat="45.94396" lon="6.64174">
        <ele>555.4</ele>
        <time>2020-08-16T16:12:17Z</time>
      </trkpt>
      <trkpt lat="45.94393" lon="6.64174">
        <ele>555.4</ele>
        <time>2020-08-16T16:12:18Z</time>
      </trkpt>
      <trkpt lat="45.94389" lon="6.64174">
        <ele>555.6</ele>
        <time>2020-08-16T16:12:19Z</time>
      </trkpt>
      <trkpt lat="45.94385" lon="6.64174">
        <ele>555.6</ele>
        <time>2020-08-16T16:12:20Z</time>
      </trkpt>
      <trkpt lat="45.94382" lon="6.64174">
        <ele>555.8</ele>
        <time>2020-08-16T16:12:21Z</time>
      </trkpt>
      <trkpt lat="45.94378" lon="6.64175">
        <ele>556</ele>
        <time>2020-08-16T16:12:22Z</time>
      </trkpt>
      <trkpt lat="45.94375" lon="6.64175">
        <ele>556.2</ele>
        <time>2020-08-16T16:12:23Z</time>
      </trkpt>
      <trkpt lat="45.94372" lon="6.64176">
        <ele>556.4</ele>
        <time>2020-08-16T16:12:24Z</time>
      </trkpt>
      <trkpt lat="45.94368" lon="6.64176">
        <ele>556.4</ele>
        <time>2020-08-16T16:12:25Z</time>
      </trkpt>
      <trkpt lat="45.94365" lon="6.64176">
        <ele>556.6</ele>
        <time>2020-08-16T16:12:26Z</time>
      </trkpt>
      <trkpt lat="45.94362" lon="6.64176">
        <ele>556.6</ele>
        <time>2020-08-16T16:12:27Z</time>
      </trkpt>
      <trkpt lat="45.94358" lon="6.64176">
        <ele>557</ele>
        <time>2020-08-16T16:12:28Z</time>
      </trkpt>
      <trkpt lat="45.94355" lon="6.64176">
        <ele>557</ele>
        <time>2020-08-16T16:12:29Z</time>
      </trkpt>
      <trkpt lat="45.94352" lon="6.64177">
        <ele>557.2</ele>
        <time>2020-08-16T16:12:30Z</time>
      </trkpt>
      <trkpt lat="45.94349" lon="6.64177">
        <ele>557.4</ele>
        <time>2020-08-16T16:12:31Z</time>
      </trkpt>
      <trkpt lat="45.94346" lon="6.64178">
        <ele>557.6</ele>
        <time>2020-08-16T16:12:32Z</time>
      </trkpt>
      <trkpt lat="45.94343" lon="6.64178">
        <ele>557.8</ele>
        <time>2020-08-16T16:12:33Z</time>
      </trkpt>
      <trkpt lat="45.94339" lon="6.64178">
        <ele>558</ele>
        <time>2020-08-16T16:12:34Z</time>
      </trkpt>
      <trkpt lat="45.94336" lon="6.64178">
        <ele>558.2</ele>
        <time>2020-08-16T16:12:35Z</time>
      </trkpt>
      <trkpt lat="45.94334" lon="6.64179">
        <ele>558.4</ele>
        <time>2020-08-16T16:12:36Z</time>
      </trkpt>
      <trkpt lat="45.94331" lon="6.64179">
        <ele>558.8</ele>
        <time>2020-08-16T16:12:37Z</time>
      </trkpt>
      <trkpt lat="45.94328" lon="6.64179">
        <ele>559</ele>
        <time>2020-08-16T16:12:38Z</time>
      </trkpt>
      <trkpt lat="45.94326" lon="6.64179">
        <ele>559.4</ele>
        <time>2020-08-16T16:12:39Z</time>
      </trkpt>
      <trkpt lat="45.94323" lon="6.64179">
        <ele>559.4</ele>
        <time>2020-08-16T16:12:40Z</time>
      </trkpt>
      <trkpt lat="45.94321" lon="6.6418">
        <ele>559.6</ele>
        <time>2020-08-16T16:12:41Z</time>
      </trkpt>
      <trkpt lat="45.94319" lon="6.6418">
        <ele>559.8</ele>
        <time>2020-08-16T16:12:42Z</time>
      </trkpt>
      <trkpt lat="45.94317" lon="6.6418">
        <ele>560</ele>
        <time>2020-08-16T16:12:43Z</time>
      </trkpt>
      <trkpt lat="45.94315" lon="6.6418">
        <ele>560.2</ele>
        <time>2020-08-16T16:12:44Z</time>
      </trkpt>
      <trkpt lat="45.94312" lon="6.64181">
        <ele>560.4</ele>
        <time>2020-08-16T16:12:45Z</time>
      </trkpt>
      <trkpt lat="45.9431" lon="6.64181">
        <ele>560.6</ele>
        <time>2020-08-16T16:12:46Z</time>
      </trkpt>
      <trkpt lat="45.94308" lon="6.64181">
        <ele>560.8</ele>
        <time>2020-08-16T16:12:47Z</time>
      </trkpt>
      <trkpt lat="45.94307" lon="6.64181">
        <ele>561.2</ele>
        <time>2020-08-16T16:12:48Z</time>
      </trkpt>
      <trkpt lat="45.94305" lon="6.64181">
        <ele>561.4</ele>
        <time>2020-08-16T16:12:49Z</time>
      </trkpt>
      <trkpt lat="45.94303" lon="6.64181">
        <ele>561.6</ele>
        <time>2020-08-16T16:12:50Z</time>
      </trkpt>
      <trkpt lat="45.94301" lon="6.64181">
        <ele>561.8</ele>
        <time>2020-08-16T16:12:51Z</time>
      </trkpt>
      <trkpt lat="45.94299" lon="6.64182">
        <ele>562</ele>
        <time>2020-08-16T16:12:52Z</time>
      </trkpt>
      <trkpt lat="45.94297" lon="6.64182">
        <ele>562.4</ele>
        <time>2020-08-16T16:12:53Z</time>
      </trkpt>
      <trkpt lat="45.94295" lon="6.64182">
        <ele>562.6</ele>
        <time>2020-08-16T16:12:54Z</time>
      </trkpt>
      <trkpt lat="45.94293" lon="6.64183">
        <ele>562.8</ele>
        <time>2020-08-16T16:12:55Z</time>
      </trkpt>
      <trkpt lat="45.94292" lon="6.64183">
        <ele>563</ele>
        <time>2020-08-16T16:12:56Z</time>
      </trkpt>
      <trkpt lat="45.9429" lon="6.64184">
        <ele>563.2</ele>
        <time>2020-08-16T16:12:57Z</time>
      </trkpt>
      <trkpt lat="45.94289" lon="6.64184">
        <ele>563.2</ele>
        <time>2020-08-16T16:12:58Z</time>
      </trkpt>
      <trkpt lat="45.94287" lon="6.64184">
        <ele>563.2</ele>
        <time>2020-08-16T16:12:59Z</time>
      </trkpt>
      <trkpt lat="45.94285" lon="6.64184">
        <ele>563.2</ele>
        <time>2020-08-16T16:13:00Z</time>
      </trkpt>
      <trkpt lat="45.94284" lon="6.64184">
        <ele>563.2</ele>
        <time>2020-08-16T16:13:01Z</time>
      </trkpt>
      <trkpt lat="45.94282" lon="6.64184">
        <ele>563.2</ele>
        <time>2020-08-16T16:13:02Z</time>
      </trkpt>
      <trkpt lat="45.94281" lon="6.64184">
        <ele>563.2</ele>
        <time>2020-08-16T16:13:03Z</time>
      </trkpt>
      <trkpt lat="45.94279" lon="6.64184">
        <ele>563.2</ele>
        <time>2020-08-16T16:13:04Z</time>
      </trkpt>
      <trkpt lat="45.94277" lon="6.64184">
        <ele>563.2</ele>
        <time>2020-08-16T16:13:05Z</time>
      </trkpt>
      <trkpt lat="45.94275" lon="6.64183">
        <ele>563</ele>
        <time>2020-08-16T16:13:06Z</time>
      </trkpt>
      <trkpt lat="45.94273" lon="6.64183">
        <ele>562.8</ele>
        <time>2020-08-16T16:13:07Z</time>
      </trkpt>
      <trkpt lat="45.94271" lon="6.64182">
        <ele>562.4</ele>
        <time>2020-08-16T16:13:08Z</time>
      </trkpt>
      <trkpt lat="45.94268" lon="6.64182">
        <ele>562.2</ele>
        <time>2020-08-16T16:13:09Z</time>
      </trkpt>
      <trkpt lat="45.94266" lon="6.64182">
        <ele>561.8</ele>
        <time>2020-08-16T16:13:10Z</time>
      </trkpt>
      <trkpt lat="45.94262" lon="6.64182">
        <ele>561.4</ele>
        <time>2020-08-16T16:13:11Z</time>
      </trkpt>
      <trkpt lat="45.94258" lon="6.64183">
        <ele>561.2</ele>
        <time>2020-08-16T16:13:12Z</time>
      </trkpt>
      <trkpt lat="45.94254" lon="6.64183">
        <ele>560.8</ele>
        <time>2020-08-16T16:13:13Z</time>
      </trkpt>
      <trkpt lat="45.9425" lon="6.64183">
        <ele>560.6</ele>
        <time>2020-08-16T16:13:14Z</time>
      </trkpt>
      <trkpt lat="45.94246" lon="6.64184">
        <ele>560.4</ele>
        <time>2020-08-16T16:13:15Z</time>
      </trkpt>
      <trkpt lat="45.94242" lon="6.64184">
        <ele>560.2</ele>
        <time>2020-08-16T16:13:16Z</time>
      </trkpt>
      <trkpt lat="45.9424" lon="6.64184">
        <ele>560.2</ele>
        <time>2020-08-16T16:13:17Z</time>
      </trkpt>
      <trkpt lat="45.94239" lon="6.64183">
        <ele>560.2</ele>
        <time>2020-08-16T16:13:18Z</time>
      </trkpt>
      <trkpt lat="45.94239" lon="6.64183">
        <ele>560.2</ele>
        <time>2020-08-16T16:13:19Z</time>
      </trkpt>
      <trkpt lat="45.94239" lon="6.64184">
        <ele>560.2</ele>
        <time>2020-08-16T16:13:20Z</time>
      </trkpt>
      <trkpt lat="45.94238" lon="6.64184">
        <ele>560</ele>
        <time>2020-08-16T16:13:21Z</time>
      </trkpt>
      <trkpt lat="45.94238" lon="6.64184">
        <ele>560</ele>
        <time>2020-08-16T16:13:22Z</time>
      </trkpt>
      <trkpt lat="45.94238" lon="6.64185">
        <ele>560</ele>
        <time>2020-08-16T16:13:23Z</time>
      </trkpt>
      <trkpt lat="45.94238" lon="6.64185">
        <ele>560</ele>
        <time>2020-08-16T16:13:24Z</time>
      </trkpt>
      <trkpt lat="45.94238" lon="6.64185">
        <ele>560</ele>
        <time>2020-08-16T16:13:25Z</time>
      </trkpt>
      <trkpt lat="45.94237" lon="6.64185">
        <ele>560</ele>
        <time>2020-08-16T16:13:26Z</time>
      </trkpt>
      <trkpt lat="45.94215" lon="6.64194">
        <ele>559</ele>
        <time>2020-08-16T16:15:04Z</time>
      </trkpt>
      <trkpt lat="45.94211" lon="6.64195">
        <ele>558.8</ele>
        <time>2020-08-16T16:15:05Z</time>
      </trkpt>
      <trkpt lat="45.94207" lon="6.64195">
        <ele>558.8</ele>
        <time>2020-08-16T16:15:06Z</time>
      </trkpt>
      <trkpt lat="45.94204" lon="6.64196">
        <ele>558.6</ele>
        <time>2020-08-16T16:15:07Z</time>
      </trkpt>
      <trkpt lat="45.942" lon="6.64198">
        <ele>558.6</ele>
        <time>2020-08-16T16:15:08Z</time>
      </trkpt>
      <trkpt lat="45.94196" lon="6.642">
        <ele>558.4</ele>
        <time>2020-08-16T16:15:09Z</time>
      </trkpt>
      <trkpt lat="45.94192" lon="6.64202">
        <ele>558.2</ele>
        <time>2020-08-16T16:15:10Z</time>
      </trkpt>
      <trkpt lat="45.94187" lon="6.64204">
        <ele>558.2</ele>
        <time>2020-08-16T16:15:11Z</time>
      </trkpt>
      <trkpt lat="45.94183" lon="6.64206">
        <ele>557.8</ele>
        <time>2020-08-16T16:15:12Z</time>
      </trkpt>
      <trkpt lat="45.94178" lon="6.64207">
        <ele>557.8</ele>
        <time>2020-08-16T16:15:13Z</time>
      </trkpt>
      <trkpt lat="45.94174" lon="6.64209">
        <ele>557.6</ele>
        <time>2020-08-16T16:15:14Z</time>
      </trkpt>
      <trkpt lat="45.94168" lon="6.64211">
        <ele>557.4</ele>
        <time>2020-08-16T16:15:15Z</time>
      </trkpt>
      <trkpt lat="45.94163" lon="6.64213">
        <ele>557.2</ele>
        <time>2020-08-16T16:15:16Z</time>
      </trkpt>
      <trkpt lat="45.94158" lon="6.64214">
        <ele>557</ele>
        <time>2020-08-16T16:15:17Z</time>
      </trkpt>
      <trkpt lat="45.94153" lon="6.64215">
        <ele>556.8</ele>
        <time>2020-08-16T16:15:18Z</time>
      </trkpt>
      <trkpt lat="45.94147" lon="6.64217">
        <ele>556.6</ele>
        <time>2020-08-16T16:15:19Z</time>
      </trkpt>
      <trkpt lat="45.94141" lon="6.64218">
        <ele>556.2</ele>
        <time>2020-08-16T16:15:20Z</time>
      </trkpt>
      <trkpt lat="45.94135" lon="6.64219">
        <ele>556</ele>
        <time>2020-08-16T16:15:21Z</time>
      </trkpt>
      <trkpt lat="45.94129" lon="6.64221">
        <ele>555.6</ele>
        <time>2020-08-16T16:15:22Z</time>
      </trkpt>
      <trkpt lat="45.94122" lon="6.64222">
        <ele>555.6</ele>
        <time>2020-08-16T16:15:23Z</time>
      </trkpt>
      <trkpt lat="45.94116" lon="6.64224">
        <ele>555.2</ele>
        <time>2020-08-16T16:15:24Z</time>
      </trkpt>
      <trkpt lat="45.94109" lon="6.64226">
        <ele>555</ele>
        <time>2020-08-16T16:15:25Z</time>
      </trkpt>
      <trkpt lat="45.94104" lon="6.64226">
        <ele>554.8</ele>
        <time>2020-08-16T16:15:26Z</time>
      </trkpt>
      <trkpt lat="45.94099" lon="6.64227">
        <ele>554.6</ele>
        <time>2020-08-16T16:15:27Z</time>
      </trkpt>
      <trkpt lat="45.94093" lon="6.64227">
        <ele>554.4</ele>
        <time>2020-08-16T16:15:28Z</time>
      </trkpt>
      <trkpt lat="45.94086" lon="6.64228">
        <ele>554.4</ele>
        <time>2020-08-16T16:15:29Z</time>
      </trkpt>
      <trkpt lat="45.94079" lon="6.6423">
        <ele>554.8</ele>
        <time>2020-08-16T16:15:30Z</time>
      </trkpt>
      <trkpt lat="45.94073" lon="6.64231">
        <ele>554.8</ele>
        <time>2020-08-16T16:15:31Z</time>
      </trkpt>
      <trkpt lat="45.94068" lon="6.64231">
        <ele>555</ele>
        <time>2020-08-16T16:15:32Z</time>
      </trkpt>
      <trkpt lat="45.94063" lon="6.64233">
        <ele>555.4</ele>
        <time>2020-08-16T16:15:33Z</time>
      </trkpt>
      <trkpt lat="45.94059" lon="6.64234">
        <ele>555.6</ele>
        <time>2020-08-16T16:15:34Z</time>
      </trkpt>
      <trkpt lat="45.94055" lon="6.64235">
        <ele>556</ele>
        <time>2020-08-16T16:15:35Z</time>
      </trkpt>
      <trkpt lat="45.94051" lon="6.64236">
        <ele>556.4</ele>
        <time>2020-08-16T16:15:36Z</time>
      </trkpt>
      <trkpt lat="45.94047" lon="6.64236">
        <ele>556.6</ele>
        <time>2020-08-16T16:15:37Z</time>
      </trkpt>
      <trkpt lat="45.94045" lon="6.64234">
        <ele>557</ele>
        <time>2020-08-16T16:15:38Z</time>
      </trkpt>
      <trkpt lat="45.94043" lon="6.64231">
        <ele>557.2</ele>
        <time>2020-08-16T16:15:39Z</time>
      </trkpt>
      <trkpt lat="45.94042" lon="6.64228">
        <ele>557.6</ele>
        <time>2020-08-16T16:15:40Z</time>
      </trkpt>
      <trkpt lat="45.9404" lon="6.64226">
        <ele>557.8</ele>
        <time>2020-08-16T16:15:41Z</time>
      </trkpt>
      <trkpt lat="45.94039" lon="6.64223">
        <ele>558</ele>
        <time>2020-08-16T16:15:42Z</time>
      </trkpt>
      <trkpt lat="45.94039" lon="6.64221">
        <ele>558.2</ele>
        <time>2020-08-16T16:15:43Z</time>
      </trkpt>
      <trkpt lat="45.94038" lon="6.64218">
        <ele>558.6</ele>
        <time>2020-08-16T16:15:44Z</time>
      </trkpt>
      <trkpt lat="45.94038" lon="6.64215">
        <ele>559</ele>
        <time>2020-08-16T16:15:45Z</time>
      </trkpt>
      <trkpt lat="45.94038" lon="6.64213">
        <ele>559</ele>
        <time>2020-08-16T16:15:46Z</time>
      </trkpt>
      <trkpt lat="45.94037" lon="6.64211">
        <ele>559.2</ele>
        <time>2020-08-16T16:15:47Z</time>
      </trkpt>
      <trkpt lat="45.94036" lon="6.6421">
        <ele>559</ele>
        <time>2020-08-16T16:15:48Z</time>
      </trkpt>
      <trkpt lat="45.94036" lon="6.64209">
        <ele>558.8</ele>
        <time>2020-08-16T16:15:49Z</time>
      </trkpt>
      <trkpt lat="45.94036" lon="6.64209">
        <ele>558.6</ele>
        <time>2020-08-16T16:15:50Z</time>
      </trkpt>
      <trkpt lat="45.94036" lon="6.64209">
        <ele>558.8</ele>
        <time>2020-08-16T16:15:51Z</time>
      </trkpt>
      <trkpt lat="45.94036" lon="6.64209">
        <ele>558.8</ele>
        <time>2020-08-16T16:15:52Z</time>
      </trkpt>
      <trkpt lat="45.94036" lon="6.64209">
        <ele>559.2</ele>
        <time>2020-08-16T16:15:53Z</time>
      </trkpt>
      <trkpt lat="45.94036" lon="6.64209">
        <ele>559.2</ele>
        <time>2020-08-16T16:15:54Z</time>
      </trkpt>
      <trkpt lat="45.94036" lon="6.64209">
        <ele>559.2</ele>
        <time>2020-08-16T16:15:55Z</time>
      </trkpt>
      <trkpt lat="45.94036" lon="6.64209">
        <ele>559</ele>
        <time>2020-08-16T16:15:56Z</time>
      </trkpt>
      <trkpt lat="45.94029" lon="6.64183">
        <ele>557.4</ele>
        <time>2020-08-16T16:17:08Z</time>
      </trkpt>
      <trkpt lat="45.94028" lon="6.64181">
        <ele>557.2</ele>
        <time>2020-08-16T16:17:09Z</time>
      </trkpt>
      <trkpt lat="45.94026" lon="6.6418">
        <ele>557</ele>
        <time>2020-08-16T16:17:10Z</time>
      </trkpt>
      <trkpt lat="45.94024" lon="6.6418">
        <ele>557</ele>
        <time>2020-08-16T16:17:11Z</time>
      </trkpt>
      <trkpt lat="45.94022" lon="6.6418">
        <ele>556.8</ele>
        <time>2020-08-16T16:17:12Z</time>
      </trkpt>
      <trkpt lat="45.9402" lon="6.6418">
        <ele>556.6</ele>
        <time>2020-08-16T16:17:13Z</time>
      </trkpt>
      <trkpt lat="45.94017" lon="6.64181">
        <ele>556</ele>
        <time>2020-08-16T16:17:14Z</time>
      </trkpt>
      <trkpt lat="45.94015" lon="6.64183">
        <ele>555.6</ele>
        <time>2020-08-16T16:17:15Z</time>
      </trkpt>
      <trkpt lat="45.94013" lon="6.64184">
        <ele>555</ele>
        <time>2020-08-16T16:17:16Z</time>
      </trkpt>
      <trkpt lat="45.94011" lon="6.64184">
        <ele>554.4</ele>
        <time>2020-08-16T16:17:17Z</time>
      </trkpt>
      <trkpt lat="45.94009" lon="6.64185">
        <ele>554.2</ele>
        <time>2020-08-16T16:17:18Z</time>
      </trkpt>
      <trkpt lat="45.94008" lon="6.64185">
        <ele>553.8</ele>
        <time>2020-08-16T16:17:19Z</time>
      </trkpt>
      <trkpt lat="45.94006" lon="6.64185">
        <ele>553.6</ele>
        <time>2020-08-16T16:17:20Z</time>
      </trkpt>
      <trkpt lat="45.94006" lon="6.64185">
        <ele>553.6</ele>
        <time>2020-08-16T16:17:21Z</time>
      </trkpt>
      <trkpt lat="45.94006" lon="6.64184">
        <ele>553.6</ele>
        <time>2020-08-16T16:17:22Z</time>
      </trkpt>
      <trkpt lat="45.94005" lon="6.64183">
        <ele>553.6</ele>
        <time>2020-08-16T16:17:23Z</time>
      </trkpt>
      <trkpt lat="45.94005" lon="6.64181">
        <ele>553.4</ele>
        <time>2020-08-16T16:17:24Z</time>
      </trkpt>
      <trkpt lat="45.94003" lon="6.64177">
        <ele>553.4</ele>
        <time>2020-08-16T16:17:25Z</time>
      </trkpt>
      <trkpt lat="45.94002" lon="6.64172">
        <ele>553.4</ele>
        <time>2020-08-16T16:17:26Z</time>
      </trkpt>
      <trkpt lat="45.94001" lon="6.64167">
        <ele>553.4</ele>
        <time>2020-08-16T16:17:27Z</time>
      </trkpt>
      <trkpt lat="45.94" lon="6.64162">
        <ele>553.4</ele>
        <time>2020-08-16T16:17:28Z</time>
      </trkpt>
      <trkpt lat="45.94" lon="6.64156">
        <ele>553.4</ele>
        <time>2020-08-16T16:17:29Z</time>
      </trkpt>
      <trkpt lat="45.94" lon="6.64152">
        <ele>553.2</ele>
        <time>2020-08-16T16:17:30Z</time>
      </trkpt>
      <trkpt lat="45.93999" lon="6.64151">
        <ele>553.4</ele>
        <time>2020-08-16T16:17:31Z</time>
      </trkpt>
      <trkpt lat="45.93999" lon="6.64147">
        <ele>553.6</ele>
        <time>2020-08-16T16:17:32Z</time>
      </trkpt>
      <trkpt lat="45.94" lon="6.64147">
        <ele>553.8</ele>
        <time>2020-08-16T16:17:33Z</time>
      </trkpt>
      <trkpt lat="45.94" lon="6.64146">
        <ele>554</ele>
        <time>2020-08-16T16:17:34Z</time>
      </trkpt>
      <trkpt lat="45.94001" lon="6.64146">
        <ele>554.4</ele>
        <time>2020-08-16T16:17:35Z</time>
      </trkpt>
      <trkpt lat="45.94002" lon="6.64144">
        <ele>554.6</ele>
        <time>2020-08-16T16:17:36Z</time>
      </trkpt>
      <trkpt lat="45.94003" lon="6.64143">
        <ele>554.8</ele>
        <time>2020-08-16T16:17:37Z</time>
      </trkpt>
      <trkpt lat="45.94004" lon="6.6414">
        <ele>554.8</ele>
        <time>2020-08-16T16:17:38Z</time>
      </trkpt>
      <trkpt lat="45.94005" lon="6.64137">
        <ele>554.8</ele>
        <time>2020-08-16T16:17:39Z</time>
      </trkpt>
      <trkpt lat="45.94004" lon="6.64134">
        <ele>554.8</ele>
        <time>2020-08-16T16:17:40Z</time>
      </trkpt>
      <trkpt lat="45.94003" lon="6.64132">
        <ele>554.8</ele>
        <time>2020-08-16T16:17:41Z</time>
      </trkpt>
      <trkpt lat="45.94002" lon="6.6413">
        <ele>554.8</ele>
        <time>2020-08-16T16:17:42Z</time>
      </trkpt>
      <trkpt lat="45.94" lon="6.64128">
        <ele>554.6</ele>
        <time>2020-08-16T16:17:43Z</time>
      </trkpt>
      <trkpt lat="45.93998" lon="6.64127">
        <ele>554.6</ele>
        <time>2020-08-16T16:17:44Z</time>
      </trkpt>
      <trkpt lat="45.93996" lon="6.64126">
        <ele>554.6</ele>
        <time>2020-08-16T16:17:45Z</time>
      </trkpt>
      <trkpt lat="45.93994" lon="6.64127">
        <ele>554.8</ele>
        <time>2020-08-16T16:17:46Z</time>
      </trkpt>
      <trkpt lat="45.93993" lon="6.64128">
        <ele>554.8</ele>
        <time>2020-08-16T16:17:47Z</time>
      </trkpt>
      <trkpt lat="45.93993" lon="6.64131">
        <ele>555</ele>
        <time>2020-08-16T16:17:48Z</time>
      </trkpt>
      <trkpt lat="45.93992" lon="6.64133">
        <ele>555</ele>
        <time>2020-08-16T16:17:49Z</time>
      </trkpt>
      <trkpt lat="45.93992" lon="6.64135">
        <ele>555</ele>
        <time>2020-08-16T16:17:50Z</time>
      </trkpt>
      <trkpt lat="45.93992" lon="6.64136">
        <ele>555</ele>
        <time>2020-08-16T16:17:51Z</time>
      </trkpt>
      <trkpt lat="45.93991" lon="6.64136">
        <ele>555</ele>
        <time>2020-08-16T16:17:52Z</time>
      </trkpt>
      <trkpt lat="45.93991" lon="6.64136">
        <ele>555</ele>
        <time>2020-08-16T16:17:53Z</time>
      </trkpt>
      <trkpt lat="45.93991" lon="6.64136">
        <ele>555</ele>
        <time>2020-08-16T16:17:54Z</time>
      </trkpt>
      <trkpt lat="45.9399" lon="6.64135">
        <ele>554.8</ele>
        <time>2020-08-16T16:17:55Z</time>
      </trkpt>
      <trkpt lat="45.93989" lon="6.64135">
        <ele>554.8</ele>
        <time>2020-08-16T16:17:56Z</time>
      </trkpt>
      <trkpt lat="45.93987" lon="6.64133">
        <ele>554.8</ele>
        <time>2020-08-16T16:17:57Z</time>
      </trkpt>
      <trkpt lat="45.93985" lon="6.64131">
        <ele>554.8</ele>
        <time>2020-08-16T16:17:58Z</time>
      </trkpt>
      <trkpt lat="45.9398" lon="6.64108">
        <ele>554.2</ele>
        <time>2020-08-16T16:18:03Z</time>
      </trkpt>
      <trkpt lat="45.9398" lon="6.64108">
        <ele>554</ele>
        <time>2020-08-16T16:18:04Z</time>
      </trkpt>
      <trkpt lat="45.93978" lon="6.64104">
        <ele>554</ele>
        <time>2020-08-16T16:18:05Z</time>
      </trkpt>
      <trkpt lat="45.93977" lon="6.64101">
        <ele>554.2</ele>
        <time>2020-08-16T16:18:06Z</time>
      </trkpt>
      <trkpt lat="45.93975" lon="6.64098">
        <ele>554.2</ele>
        <time>2020-08-16T16:18:07Z</time>
      </trkpt>
      <trkpt lat="45.93973" lon="6.64095">
        <ele>554.4</ele>
        <time>2020-08-16T16:18:08Z</time>
      </trkpt>
      <trkpt lat="45.93972" lon="6.64093">
        <ele>554.4</ele>
        <time>2020-08-16T16:18:09Z</time>
      </trkpt>
      <trkpt lat="45.9397" lon="6.6409">
        <ele>554.4</ele>
        <time>2020-08-16T16:18:10Z</time>
      </trkpt>
      <trkpt lat="45.93969" lon="6.64089">
        <ele>554.2</ele>
        <time>2020-08-16T16:18:11Z</time>
      </trkpt>
      <trkpt lat="45.93967" lon="6.64087">
        <ele>554.4</ele>
        <time>2020-08-16T16:18:12Z</time>
      </trkpt>
      <trkpt lat="45.93965" lon="6.64085">
        <ele>554.4</ele>
        <time>2020-08-16T16:18:13Z</time>
      </trkpt>
      <trkpt lat="45.93962" lon="6.64083">
        <ele>554.4</ele>
        <time>2020-08-16T16:18:14Z</time>
      </trkpt>
      <trkpt lat="45.9396" lon="6.64082">
        <ele>554.4</ele>
        <time>2020-08-16T16:18:15Z</time>
      </trkpt>
      <trkpt lat="45.93958" lon="6.6408">
        <ele>554.4</ele>
        <time>2020-08-16T16:18:16Z</time>
      </trkpt>
      <trkpt lat="45.93955" lon="6.6408">
        <ele>554.4</ele>
        <time>2020-08-16T16:18:17Z</time>
      </trkpt>
      <trkpt lat="45.93951" lon="6.64081">
        <ele>554.4</ele>
        <time>2020-08-16T16:18:18Z</time>
      </trkpt>
      <trkpt lat="45.93948" lon="6.64083">
        <ele>554.2</ele>
        <time>2020-08-16T16:18:19Z</time>
      </trkpt>
      <trkpt lat="45.93946" lon="6.64086">
        <ele>554.2</ele>
        <time>2020-08-16T16:18:20Z</time>
      </trkpt>
      <trkpt lat="45.93943" lon="6.64089">
        <ele>554.2</ele>
        <time>2020-08-16T16:18:21Z</time>
      </trkpt>
      <trkpt lat="45.93939" lon="6.64092">
        <ele>554</ele>
        <time>2020-08-16T16:18:22Z</time>
      </trkpt>
      <trkpt lat="45.93936" lon="6.64095">
        <ele>554</ele>
        <time>2020-08-16T16:18:23Z</time>
      </trkpt>
      <trkpt lat="45.93932" lon="6.64098">
        <ele>554</ele>
        <time>2020-08-16T16:18:24Z</time>
      </trkpt>
      <trkpt lat="45.93928" lon="6.641">
        <ele>553.8</ele>
        <time>2020-08-16T16:18:25Z</time>
      </trkpt>
      <trkpt lat="45.93925" lon="6.64104">
        <ele>553.8</ele>
        <time>2020-08-16T16:18:26Z</time>
      </trkpt>
      <trkpt lat="45.93922" lon="6.64107">
        <ele>553.6</ele>
        <time>2020-08-16T16:18:27Z</time>
      </trkpt>
      <trkpt lat="45.93919" lon="6.64109">
        <ele>553.6</ele>
        <time>2020-08-16T16:18:28Z</time>
      </trkpt>
      <trkpt lat="45.93917" lon="6.64109">
        <ele>553.6</ele>
        <time>2020-08-16T16:18:29Z</time>
      </trkpt>
      <trkpt lat="45.93915" lon="6.64108">
        <ele>553.8</ele>
        <time>2020-08-16T16:18:30Z</time>
      </trkpt>
      <trkpt lat="45.93914" lon="6.64105">
        <ele>553.6</ele>
        <time>2020-08-16T16:18:31Z</time>
      </trkpt>
      <trkpt lat="45.93913" lon="6.64101">
        <ele>553.6</ele>
        <time>2020-08-16T16:18:32Z</time>
      </trkpt>
      <trkpt lat="45.93911" lon="6.64096">
        <ele>553.8</ele>
        <time>2020-08-16T16:18:33Z</time>
      </trkpt>
      <trkpt lat="45.93913" lon="6.64092">
        <ele>553.8</ele>
        <time>2020-08-16T16:18:34Z</time>
      </trkpt>
      <trkpt lat="45.93913" lon="6.64088">
        <ele>554</ele>
        <time>2020-08-16T16:18:35Z</time>
      </trkpt>
      <trkpt lat="45.93912" lon="6.64084">
        <ele>554.2</ele>
        <time>2020-08-16T16:18:36Z</time>
      </trkpt>
      <trkpt lat="45.93912" lon="6.6408">
        <ele>554.4</ele>
        <time>2020-08-16T16:18:37Z</time>
      </trkpt>
      <trkpt lat="45.93911" lon="6.64077">
        <ele>554.6</ele>
        <time>2020-08-16T16:18:38Z</time>
      </trkpt>
      <trkpt lat="45.93909" lon="6.64074">
        <ele>555</ele>
        <time>2020-08-16T16:18:39Z</time>
      </trkpt>
      <trkpt lat="45.93907" lon="6.64074">
        <ele>555.2</ele>
        <time>2020-08-16T16:18:40Z</time>
      </trkpt>
      <trkpt lat="45.93904" lon="6.64073">
        <ele>555.2</ele>
        <time>2020-08-16T16:18:41Z</time>
      </trkpt>
      <trkpt lat="45.939" lon="6.64073">
        <ele>555.4</ele>
        <time>2020-08-16T16:18:42Z</time>
      </trkpt>
      <trkpt lat="45.93896" lon="6.64073">
        <ele>555.2</ele>
        <time>2020-08-16T16:18:43Z</time>
      </trkpt>
      <trkpt lat="45.93893" lon="6.64074">
        <ele>555.2</ele>
        <time>2020-08-16T16:18:44Z</time>
      </trkpt>
      <trkpt lat="45.9389" lon="6.64073">
        <ele>555.2</ele>
        <time>2020-08-16T16:18:45Z</time>
      </trkpt>
      <trkpt lat="45.93885" lon="6.64073">
        <ele>555.2</ele>
        <time>2020-08-16T16:18:46Z</time>
      </trkpt>
      <trkpt lat="45.93881" lon="6.64073">
        <ele>555.2</ele>
        <time>2020-08-16T16:18:47Z</time>
      </trkpt>
      <trkpt lat="45.93877" lon="6.64071">
        <ele>555.2</ele>
        <time>2020-08-16T16:18:48Z</time>
      </trkpt>
      <trkpt lat="45.93873" lon="6.6407">
        <ele>555.2</ele>
        <time>2020-08-16T16:18:49Z</time>
      </trkpt>
      <trkpt lat="45.93869" lon="6.6407">
        <ele>555.2</ele>
        <time>2020-08-16T16:18:50Z</time>
      </trkpt>
      <trkpt lat="45.93864" lon="6.6407">
        <ele>555</ele>
        <time>2020-08-16T16:18:51Z</time>
      </trkpt>
      <trkpt lat="45.9386" lon="6.6407">
        <ele>555</ele>
        <time>2020-08-16T16:18:52Z</time>
      </trkpt>
      <trkpt lat="45.93855" lon="6.6407">
        <ele>555</ele>
        <time>2020-08-16T16:18:53Z</time>
      </trkpt>
      <trkpt lat="45.93851" lon="6.6407">
        <ele>555</ele>
        <time>2020-08-16T16:18:54Z</time>
      </trkpt>
      <trkpt lat="45.93846" lon="6.6407">
        <ele>554.8</ele>
        <time>2020-08-16T16:18:55Z</time>
      </trkpt>
      <trkpt lat="45.93841" lon="6.6407">
        <ele>554.8</ele>
        <time>2020-08-16T16:18:56Z</time>
      </trkpt>
      <trkpt lat="45.93837" lon="6.6407">
        <ele>554.8</ele>
        <time>2020-08-16T16:18:57Z</time>
      </trkpt>
      <trkpt lat="45.93832" lon="6.6407">
        <ele>554.6</ele>
        <time>2020-08-16T16:18:58Z</time>
      </trkpt>
      <trkpt lat="45.93828" lon="6.64069">
        <ele>554.6</ele>
        <time>2020-08-16T16:18:59Z</time>
      </trkpt>
      <trkpt lat="45.93824" lon="6.64068">
        <ele>554.4</ele>
        <time>2020-08-16T16:19:00Z</time>
      </trkpt>
      <trkpt lat="45.9382" lon="6.64067">
        <ele>554.2</ele>
        <time>2020-08-16T16:19:01Z</time>
      </trkpt>
      <trkpt lat="45.93816" lon="6.64067">
        <ele>554.2</ele>
        <time>2020-08-16T16:19:02Z</time>
      </trkpt>
      <trkpt lat="45.93812" lon="6.64068">
        <ele>554.2</ele>
        <time>2020-08-16T16:19:03Z</time>
      </trkpt>
      <trkpt lat="45.93808" lon="6.6407">
        <ele>554</ele>
        <time>2020-08-16T16:19:04Z</time>
      </trkpt>
      <trkpt lat="45.93804" lon="6.64072">
        <ele>554</ele>
        <time>2020-08-16T16:19:05Z</time>
      </trkpt>
      <trkpt lat="45.93801" lon="6.64074">
        <ele>554</ele>
        <time>2020-08-16T16:19:06Z</time>
      </trkpt>
      <trkpt lat="45.93797" lon="6.64074">
        <ele>554</ele>
        <time>2020-08-16T16:19:07Z</time>
      </trkpt>
      <trkpt lat="45.93794" lon="6.64072">
        <ele>554</ele>
        <time>2020-08-16T16:19:08Z</time>
      </trkpt>
      <trkpt lat="45.93792" lon="6.64068">
        <ele>554</ele>
        <time>2020-08-16T16:19:09Z</time>
      </trkpt>
      <trkpt lat="45.9379" lon="6.64065">
        <ele>554</ele>
        <time>2020-08-16T16:19:10Z</time>
      </trkpt>
      <trkpt lat="45.93787" lon="6.64062">
        <ele>554</ele>
        <time>2020-08-16T16:19:11Z</time>
      </trkpt>
      <trkpt lat="45.93783" lon="6.64061">
        <ele>553.8</ele>
        <time>2020-08-16T16:19:12Z</time>
      </trkpt>
      <trkpt lat="45.93779" lon="6.6406">
        <ele>554</ele>
        <time>2020-08-16T16:19:13Z</time>
      </trkpt>
      <trkpt lat="45.93775" lon="6.64058">
        <ele>554</ele>
        <time>2020-08-16T16:19:14Z</time>
      </trkpt>
      <trkpt lat="45.93771" lon="6.64057">
        <ele>554</ele>
        <time>2020-08-16T16:19:15Z</time>
      </trkpt>
      <trkpt lat="45.93766" lon="6.64055">
        <ele>554</ele>
        <time>2020-08-16T16:19:16Z</time>
      </trkpt>
      <trkpt lat="45.93762" lon="6.64054">
        <ele>554.2</ele>
        <time>2020-08-16T16:19:17Z</time>
      </trkpt>
      <trkpt lat="45.93758" lon="6.64053">
        <ele>554.2</ele>
        <time>2020-08-16T16:19:18Z</time>
      </trkpt>
      <trkpt lat="45.93755" lon="6.64051">
        <ele>554.2</ele>
        <time>2020-08-16T16:19:19Z</time>
      </trkpt>
      <trkpt lat="45.9375" lon="6.6405">
        <ele>554.2</ele>
        <time>2020-08-16T16:19:20Z</time>
      </trkpt>
      <trkpt lat="45.93746" lon="6.64048">
        <ele>554.2</ele>
        <time>2020-08-16T16:19:21Z</time>
      </trkpt>
      <trkpt lat="45.93742" lon="6.64047">
        <ele>554.4</ele>
        <time>2020-08-16T16:19:22Z</time>
      </trkpt>
      <trkpt lat="45.93738" lon="6.64047">
        <ele>554.4</ele>
        <time>2020-08-16T16:19:23Z</time>
      </trkpt>
      <trkpt lat="45.93734" lon="6.64047">
        <ele>554.4</ele>
        <time>2020-08-16T16:19:24Z</time>
      </trkpt>
      <trkpt lat="45.93729" lon="6.64048">
        <ele>554.6</ele>
        <time>2020-08-16T16:19:25Z</time>
      </trkpt>
      <trkpt lat="45.93725" lon="6.64049">
        <ele>554.6</ele>
        <time>2020-08-16T16:19:26Z</time>
      </trkpt>
      <trkpt lat="45.93721" lon="6.64051">
        <ele>554.6</ele>
        <time>2020-08-16T16:19:27Z</time>
      </trkpt>
      <trkpt lat="45.93717" lon="6.64052">
        <ele>554.6</ele>
        <time>2020-08-16T16:19:28Z</time>
      </trkpt>
      <trkpt lat="45.93712" lon="6.64053">
        <ele>554.6</ele>
        <time>2020-08-16T16:19:29Z</time>
      </trkpt>
      <trkpt lat="45.93708" lon="6.64053">
        <ele>554.8</ele>
        <time>2020-08-16T16:19:30Z</time>
      </trkpt>
      <trkpt lat="45.93703" lon="6.64052">
        <ele>554.6</ele>
        <time>2020-08-16T16:19:31Z</time>
      </trkpt>
      <trkpt lat="45.93694" lon="6.64049">
        <ele>554.8</ele>
        <time>2020-08-16T16:19:32Z</time>
      </trkpt>
      <trkpt lat="45.93694" lon="6.64049">
        <ele>554.6</ele>
        <time>2020-08-16T16:19:33Z</time>
      </trkpt>
      <trkpt lat="45.9369" lon="6.64047">
        <ele>554.6</ele>
        <time>2020-08-16T16:19:34Z</time>
      </trkpt>
      <trkpt lat="45.93686" lon="6.64045">
        <ele>554.8</ele>
        <time>2020-08-16T16:19:35Z</time>
      </trkpt>
      <trkpt lat="45.93682" lon="6.64043">
        <ele>554.8</ele>
        <time>2020-08-16T16:19:36Z</time>
      </trkpt>
      <trkpt lat="45.93678" lon="6.64042">
        <ele>554.8</ele>
        <time>2020-08-16T16:19:37Z</time>
      </trkpt>
      <trkpt lat="45.93674" lon="6.64042">
        <ele>554.8</ele>
        <time>2020-08-16T16:19:38Z</time>
      </trkpt>
      <trkpt lat="45.93671" lon="6.64041">
        <ele>555</ele>
        <time>2020-08-16T16:19:39Z</time>
      </trkpt>
      <trkpt lat="45.93667" lon="6.6404">
        <ele>555</ele>
        <time>2020-08-16T16:19:40Z</time>
      </trkpt>
      <trkpt lat="45.93664" lon="6.64039">
        <ele>555</ele>
        <time>2020-08-16T16:19:41Z</time>
      </trkpt>
      <trkpt lat="45.93662" lon="6.64038">
        <ele>555</ele>
        <time>2020-08-16T16:19:42Z</time>
      </trkpt>
      <trkpt lat="45.93661" lon="6.64037">
        <ele>555</ele>
        <time>2020-08-16T16:19:43Z</time>
      </trkpt>
      <trkpt lat="45.9366" lon="6.64038">
        <ele>555</ele>
        <time>2020-08-16T16:19:44Z</time>
      </trkpt>
      <trkpt lat="45.9366" lon="6.64038">
        <ele>555.2</ele>
        <time>2020-08-16T16:19:45Z</time>
      </trkpt>
      <trkpt lat="45.9366" lon="6.64038">
        <ele>555.2</ele>
        <time>2020-08-16T16:19:46Z</time>
      </trkpt>
      <trkpt lat="45.93659" lon="6.64038">
        <ele>555.2</ele>
        <time>2020-08-16T16:19:47Z</time>
      </trkpt>
      <trkpt lat="45.93657" lon="6.64037">
        <ele>555.2</ele>
        <time>2020-08-16T16:19:48Z</time>
      </trkpt>
      <trkpt lat="45.93655" lon="6.64037">
        <ele>555.2</ele>
        <time>2020-08-16T16:19:49Z</time>
      </trkpt>
      <trkpt lat="45.93653" lon="6.64037">
        <ele>555.2</ele>
        <time>2020-08-16T16:19:50Z</time>
      </trkpt>
      <trkpt lat="45.93638" lon="6.64019">
        <ele>555</ele>
        <time>2020-08-16T16:19:55Z</time>
      </trkpt>
      <trkpt lat="45.93638" lon="6.64019">
        <ele>555</ele>
        <time>2020-08-16T16:19:56Z</time>
      </trkpt>
      <trkpt lat="45.93636" lon="6.64015">
        <ele>555</ele>
        <time>2020-08-16T16:19:57Z</time>
      </trkpt>
      <trkpt lat="45.93631" lon="6.64008">
        <ele>555</ele>
        <time>2020-08-16T16:19:58Z</time>
      </trkpt>
      <trkpt lat="45.93628" lon="6.64004">
        <ele>554.8</ele>
        <time>2020-08-16T16:19:59Z</time>
      </trkpt>
      <trkpt lat="45.93628" lon="6.64004">
        <ele>554.8</ele>
        <time>2020-08-16T16:20:00Z</time>
      </trkpt>
      <trkpt lat="45.93622" lon="6.64">
        <ele>554.8</ele>
        <time>2020-08-16T16:20:01Z</time>
      </trkpt>
      <trkpt lat="45.93622" lon="6.64">
        <ele>555</ele>
        <time>2020-08-16T16:20:02Z</time>
      </trkpt>
      <trkpt lat="45.93618" lon="6.63998">
        <ele>555</ele>
        <time>2020-08-16T16:20:03Z</time>
      </trkpt>
      <trkpt lat="45.93615" lon="6.63997">
        <ele>555.2</ele>
        <time>2020-08-16T16:20:04Z</time>
      </trkpt>
      <trkpt lat="45.93611" lon="6.63996">
        <ele>555.2</ele>
        <time>2020-08-16T16:20:05Z</time>
      </trkpt>
      <trkpt lat="45.93607" lon="6.63995">
        <ele>555.2</ele>
        <time>2020-08-16T16:20:06Z</time>
      </trkpt>
      <trkpt lat="45.93603" lon="6.63994">
        <ele>555.2</ele>
        <time>2020-08-16T16:20:07Z</time>
      </trkpt>
      <trkpt lat="45.93598" lon="6.63994">
        <ele>555.2</ele>
        <time>2020-08-16T16:20:08Z</time>
      </trkpt>
      <trkpt lat="45.93594" lon="6.63992">
        <ele>555</ele>
        <time>2020-08-16T16:20:09Z</time>
      </trkpt>
      <trkpt lat="45.9359" lon="6.63991">
        <ele>555</ele>
        <time>2020-08-16T16:20:10Z</time>
      </trkpt>
      <trkpt lat="45.93585" lon="6.63991">
        <ele>555</ele>
        <time>2020-08-16T16:20:11Z</time>
      </trkpt>
      <trkpt lat="45.93581" lon="6.6399">
        <ele>555.2</ele>
        <time>2020-08-16T16:20:12Z</time>
      </trkpt>
      <trkpt lat="45.93577" lon="6.6399">
        <ele>555.2</ele>
        <time>2020-08-16T16:20:13Z</time>
      </trkpt>
      <trkpt lat="45.93569" lon="6.63988">
        <ele>555.2</ele>
        <time>2020-08-16T16:20:14Z</time>
      </trkpt>
      <trkpt lat="45.93569" lon="6.63988">
        <ele>555.2</ele>
        <time>2020-08-16T16:20:15Z</time>
      </trkpt>
      <trkpt lat="45.93565" lon="6.63986">
        <ele>555.2</ele>
        <time>2020-08-16T16:20:16Z</time>
      </trkpt>
      <trkpt lat="45.93561" lon="6.63985">
        <ele>555.2</ele>
        <time>2020-08-16T16:20:17Z</time>
      </trkpt>
      <trkpt lat="45.93553" lon="6.63983">
        <ele>555.4</ele>
        <time>2020-08-16T16:20:18Z</time>
      </trkpt>
      <trkpt lat="45.93553" lon="6.63983">
        <ele>555.4</ele>
        <time>2020-08-16T16:20:19Z</time>
      </trkpt>
      <trkpt lat="45.93549" lon="6.63983">
        <ele>555.4</ele>
        <time>2020-08-16T16:20:20Z</time>
      </trkpt>
      <trkpt lat="45.93545" lon="6.63982">
        <ele>555.4</ele>
        <time>2020-08-16T16:20:21Z</time>
      </trkpt>
      <trkpt lat="45.9354" lon="6.63982">
        <ele>555.4</ele>
        <time>2020-08-16T16:20:22Z</time>
      </trkpt>
      <trkpt lat="45.93535" lon="6.63981">
        <ele>555.4</ele>
        <time>2020-08-16T16:20:23Z</time>
      </trkpt>
      <trkpt lat="45.9353" lon="6.6398">
        <ele>555.4</ele>
        <time>2020-08-16T16:20:24Z</time>
      </trkpt>
      <trkpt lat="45.93526" lon="6.63979">
        <ele>555.4</ele>
        <time>2020-08-16T16:20:25Z</time>
      </trkpt>
      <trkpt lat="45.93521" lon="6.63979">
        <ele>555.4</ele>
        <time>2020-08-16T16:20:26Z</time>
      </trkpt>
      <trkpt lat="45.93517" lon="6.63978">
        <ele>555.4</ele>
        <time>2020-08-16T16:20:27Z</time>
      </trkpt>
      <trkpt lat="45.93511" lon="6.63977">
        <ele>555.4</ele>
        <time>2020-08-16T16:20:28Z</time>
      </trkpt>
      <trkpt lat="45.935" lon="6.63975">
        <ele>555.4</ele>
        <time>2020-08-16T16:20:29Z</time>
      </trkpt>
      <trkpt lat="45.935" lon="6.63975">
        <ele>555.4</ele>
        <time>2020-08-16T16:20:30Z</time>
      </trkpt>
      <trkpt lat="45.93495" lon="6.63974">
        <ele>555.4</ele>
        <time>2020-08-16T16:20:31Z</time>
      </trkpt>
      <trkpt lat="45.93491" lon="6.63973">
        <ele>555.4</ele>
        <time>2020-08-16T16:20:32Z</time>
      </trkpt>
      <trkpt lat="45.9348" lon="6.63971">
        <ele>555.4</ele>
        <time>2020-08-16T16:20:33Z</time>
      </trkpt>
      <trkpt lat="45.9348" lon="6.63971">
        <ele>555.2</ele>
        <time>2020-08-16T16:20:34Z</time>
      </trkpt>
      <trkpt lat="45.93474" lon="6.6397">
        <ele>555.2</ele>
        <time>2020-08-16T16:20:35Z</time>
      </trkpt>
      <trkpt lat="45.93468" lon="6.63968">
        <ele>555</ele>
        <time>2020-08-16T16:20:36Z</time>
      </trkpt>
      <trkpt lat="45.93463" lon="6.63967">
        <ele>555</ele>
        <time>2020-08-16T16:20:37Z</time>
      </trkpt>
      <trkpt lat="45.93457" lon="6.63965">
        <ele>555</ele>
        <time>2020-08-16T16:20:38Z</time>
      </trkpt>
      <trkpt lat="45.93451" lon="6.63963">
        <ele>555</ele>
        <time>2020-08-16T16:20:39Z</time>
      </trkpt>
      <trkpt lat="45.93445" lon="6.63961">
        <ele>555</ele>
        <time>2020-08-16T16:20:40Z</time>
      </trkpt>
      <trkpt lat="45.9344" lon="6.63957">
        <ele>555</ele>
        <time>2020-08-16T16:20:41Z</time>
      </trkpt>
      <trkpt lat="45.93435" lon="6.63953">
        <ele>555.2</ele>
        <time>2020-08-16T16:20:42Z</time>
      </trkpt>
      <trkpt lat="45.93426" lon="6.63946">
        <ele>555.2</ele>
        <time>2020-08-16T16:20:43Z</time>
      </trkpt>
      <trkpt lat="45.93426" lon="6.63946">
        <ele>555.2</ele>
        <time>2020-08-16T16:20:44Z</time>
      </trkpt>
      <trkpt lat="45.93423" lon="6.63942">
        <ele>555.4</ele>
        <time>2020-08-16T16:20:45Z</time>
      </trkpt>
      <trkpt lat="45.93414" lon="6.63934">
        <ele>555.6</ele>
        <time>2020-08-16T16:20:46Z</time>
      </trkpt>
      <trkpt lat="45.93414" lon="6.63934">
        <ele>555.6</ele>
        <time>2020-08-16T16:20:47Z</time>
      </trkpt>
      <trkpt lat="45.9341" lon="6.63931">
        <ele>555.8</ele>
        <time>2020-08-16T16:20:48Z</time>
      </trkpt>
      <trkpt lat="45.93406" lon="6.63927">
        <ele>555.8</ele>
        <time>2020-08-16T16:20:49Z</time>
      </trkpt>
      <trkpt lat="45.93402" lon="6.63925">
        <ele>556</ele>
        <time>2020-08-16T16:20:50Z</time>
      </trkpt>
      <trkpt lat="45.93398" lon="6.63922">
        <ele>556</ele>
        <time>2020-08-16T16:20:51Z</time>
      </trkpt>
      <trkpt lat="45.93394" lon="6.63918">
        <ele>556</ele>
        <time>2020-08-16T16:20:52Z</time>
      </trkpt>
      <trkpt lat="45.9339" lon="6.63915">
        <ele>556</ele>
        <time>2020-08-16T16:20:53Z</time>
      </trkpt>
      <trkpt lat="45.93383" lon="6.63908">
        <ele>556.2</ele>
        <time>2020-08-16T16:20:54Z</time>
      </trkpt>
      <trkpt lat="45.93383" lon="6.63908">
        <ele>556.2</ele>
        <time>2020-08-16T16:20:55Z</time>
      </trkpt>
      <trkpt lat="45.93375" lon="6.63902">
        <ele>556.2</ele>
        <time>2020-08-16T16:20:56Z</time>
      </trkpt>
      <trkpt lat="45.93375" lon="6.63902">
        <ele>556.2</ele>
        <time>2020-08-16T16:20:57Z</time>
      </trkpt>
      <trkpt lat="45.93369" lon="6.63897">
        <ele>556.2</ele>
        <time>2020-08-16T16:20:58Z</time>
      </trkpt>
      <trkpt lat="45.93366" lon="6.63895">
        <ele>556.2</ele>
        <time>2020-08-16T16:20:59Z</time>
      </trkpt>
      <trkpt lat="45.93366" lon="6.63895">
        <ele>556.2</ele>
        <time>2020-08-16T16:21:00Z</time>
      </trkpt>
      <trkpt lat="45.93361" lon="6.63893">
        <ele>556.2</ele>
        <time>2020-08-16T16:21:01Z</time>
      </trkpt>
      <trkpt lat="45.93356" lon="6.63891">
        <ele>556.2</ele>
        <time>2020-08-16T16:21:02Z</time>
      </trkpt>
      <trkpt lat="45.93351" lon="6.6389">
        <ele>556.2</ele>
        <time>2020-08-16T16:21:03Z</time>
      </trkpt>
      <trkpt lat="45.93341" lon="6.63889">
        <ele>556.2</ele>
        <time>2020-08-16T16:21:04Z</time>
      </trkpt>
      <trkpt lat="45.93341" lon="6.63889">
        <ele>556.2</ele>
        <time>2020-08-16T16:21:05Z</time>
      </trkpt>
      <trkpt lat="45.93335" lon="6.63889">
        <ele>556.2</ele>
        <time>2020-08-16T16:21:06Z</time>
      </trkpt>
      <trkpt lat="45.93329" lon="6.63889">
        <ele>556.2</ele>
        <time>2020-08-16T16:21:07Z</time>
      </trkpt>
      <trkpt lat="45.93324" lon="6.63889">
        <ele>556.2</ele>
        <time>2020-08-16T16:21:08Z</time>
      </trkpt>
      <trkpt lat="45.93313" lon="6.6389">
        <ele>556.2</ele>
        <time>2020-08-16T16:21:09Z</time>
      </trkpt>
      <trkpt lat="45.93313" lon="6.6389">
        <ele>556</ele>
        <time>2020-08-16T16:21:10Z</time>
      </trkpt>
      <trkpt lat="45.93308" lon="6.63891">
        <ele>556</ele>
        <time>2020-08-16T16:21:11Z</time>
      </trkpt>
      <trkpt lat="45.93303" lon="6.63892">
        <ele>556</ele>
        <time>2020-08-16T16:21:12Z</time>
      </trkpt>
      <trkpt lat="45.93295" lon="6.63895">
        <ele>556.2</ele>
        <time>2020-08-16T16:21:13Z</time>
      </trkpt>
      <trkpt lat="45.93295" lon="6.63895">
        <ele>556.2</ele>
        <time>2020-08-16T16:21:14Z</time>
      </trkpt>
      <trkpt lat="45.93285" lon="6.63898">
        <ele>556</ele>
        <time>2020-08-16T16:21:15Z</time>
      </trkpt>
      <trkpt lat="45.93281" lon="6.639">
        <ele>556</ele>
        <time>2020-08-16T16:21:16Z</time>
      </trkpt>
      <trkpt lat="45.93276" lon="6.63902">
        <ele>556</ele>
        <time>2020-08-16T16:21:17Z</time>
      </trkpt>
      <trkpt lat="45.93276" lon="6.63902">
        <ele>556</ele>
        <time>2020-08-16T16:21:18Z</time>
      </trkpt>
      <trkpt lat="45.93272" lon="6.63904">
        <ele>556</ele>
        <time>2020-08-16T16:21:19Z</time>
      </trkpt>
      <trkpt lat="45.93262" lon="6.63908">
        <ele>556</ele>
        <time>2020-08-16T16:21:20Z</time>
      </trkpt>
      <trkpt lat="45.93262" lon="6.63908">
        <ele>556</ele>
        <time>2020-08-16T16:21:21Z</time>
      </trkpt>
      <trkpt lat="45.93258" lon="6.63909">
        <ele>556.2</ele>
        <time>2020-08-16T16:21:22Z</time>
      </trkpt>
      <trkpt lat="45.93254" lon="6.63911">
        <ele>556.2</ele>
        <time>2020-08-16T16:21:23Z</time>
      </trkpt>
      <trkpt lat="45.9325" lon="6.63913">
        <ele>556.4</ele>
        <time>2020-08-16T16:21:24Z</time>
      </trkpt>
      <trkpt lat="45.93243" lon="6.63918">
        <ele>556.4</ele>
        <time>2020-08-16T16:21:25Z</time>
      </trkpt>
      <trkpt lat="45.9324" lon="6.63921">
        <ele>556.4</ele>
        <time>2020-08-16T16:21:26Z</time>
      </trkpt>
      <trkpt lat="45.93237" lon="6.63923">
        <ele>556.4</ele>
        <time>2020-08-16T16:21:27Z</time>
      </trkpt>
      <trkpt lat="45.93237" lon="6.63923">
        <ele>556.4</ele>
        <time>2020-08-16T16:21:28Z</time>
      </trkpt>
      <trkpt lat="45.93235" lon="6.63925">
        <ele>556.4</ele>
        <time>2020-08-16T16:21:29Z</time>
      </trkpt>
      <trkpt lat="45.93232" lon="6.63927">
        <ele>556.4</ele>
        <time>2020-08-16T16:21:30Z</time>
      </trkpt>
      <trkpt lat="45.9323" lon="6.63928">
        <ele>556.4</ele>
        <time>2020-08-16T16:21:31Z</time>
      </trkpt>
      <trkpt lat="45.93228" lon="6.63929">
        <ele>556.4</ele>
        <time>2020-08-16T16:21:32Z</time>
      </trkpt>
      <trkpt lat="45.93223" lon="6.6393">
        <ele>556.4</ele>
        <time>2020-08-16T16:21:33Z</time>
      </trkpt>
      <trkpt lat="45.93221" lon="6.63931">
        <ele>556.4</ele>
        <time>2020-08-16T16:21:34Z</time>
      </trkpt>
      <trkpt lat="45.93219" lon="6.63933">
        <ele>556.2</ele>
        <time>2020-08-16T16:21:35Z</time>
      </trkpt>
      <trkpt lat="45.93219" lon="6.63933">
        <ele>556.4</ele>
        <time>2020-08-16T16:21:36Z</time>
      </trkpt>
      <trkpt lat="45.93216" lon="6.63935">
        <ele>556.4</ele>
        <time>2020-08-16T16:21:37Z</time>
      </trkpt>
      <trkpt lat="45.93213" lon="6.63937">
        <ele>556.4</ele>
        <time>2020-08-16T16:21:38Z</time>
      </trkpt>
      <trkpt lat="45.93207" lon="6.63942">
        <ele>556.6</ele>
        <time>2020-08-16T16:21:39Z</time>
      </trkpt>
      <trkpt lat="45.93204" lon="6.63944">
        <ele>556.8</ele>
        <time>2020-08-16T16:21:40Z</time>
      </trkpt>
      <trkpt lat="45.93201" lon="6.63947">
        <ele>556.8</ele>
        <time>2020-08-16T16:21:41Z</time>
      </trkpt>
      <trkpt lat="45.93201" lon="6.63947">
        <ele>556.8</ele>
        <time>2020-08-16T16:21:42Z</time>
      </trkpt>
      <trkpt lat="45.93197" lon="6.6395">
        <ele>556.8</ele>
        <time>2020-08-16T16:21:43Z</time>
      </trkpt>
      <trkpt lat="45.93192" lon="6.63958">
        <ele>556.8</ele>
        <time>2020-08-16T16:21:44Z</time>
      </trkpt>
      <trkpt lat="45.93191" lon="6.63962">
        <ele>556.8</ele>
        <time>2020-08-16T16:21:45Z</time>
      </trkpt>
      <trkpt lat="45.93191" lon="6.63966">
        <ele>556.6</ele>
        <time>2020-08-16T16:21:46Z</time>
      </trkpt>
      <trkpt lat="45.93193" lon="6.6397">
        <ele>556.8</ele>
        <time>2020-08-16T16:21:47Z</time>
      </trkpt>
      <trkpt lat="45.93196" lon="6.63973">
        <ele>557</ele>
        <time>2020-08-16T16:21:48Z</time>
      </trkpt>
      <trkpt lat="45.93196" lon="6.63973">
        <ele>557</ele>
        <time>2020-08-16T16:21:49Z</time>
      </trkpt>
      <trkpt lat="45.93203" lon="6.63971">
        <ele>557</ele>
        <time>2020-08-16T16:21:50Z</time>
      </trkpt>
      <trkpt lat="45.93205" lon="6.63969">
        <ele>556.8</ele>
        <time>2020-08-16T16:21:51Z</time>
      </trkpt>
      <trkpt lat="45.93207" lon="6.63967">
        <ele>556.6</ele>
        <time>2020-08-16T16:21:52Z</time>
      </trkpt>
      <trkpt lat="45.93208" lon="6.63964">
        <ele>556.6</ele>
        <time>2020-08-16T16:21:53Z</time>
      </trkpt>
      <trkpt lat="45.93208" lon="6.63961">
        <ele>556.6</ele>
        <time>2020-08-16T16:21:54Z</time>
      </trkpt>
      <trkpt lat="45.93208" lon="6.63958">
        <ele>556.6</ele>
        <time>2020-08-16T16:21:55Z</time>
      </trkpt>
      <trkpt lat="45.93208" lon="6.63958">
        <ele>556.6</ele>
        <time>2020-08-16T16:21:56Z</time>
      </trkpt>
      <trkpt lat="45.93206" lon="6.63954">
        <ele>556.8</ele>
        <time>2020-08-16T16:21:57Z</time>
      </trkpt>
      <trkpt lat="45.93204" lon="6.63952">
        <ele>556.8</ele>
        <time>2020-08-16T16:21:58Z</time>
      </trkpt>
      <trkpt lat="45.93202" lon="6.63951">
        <ele>556.6</ele>
        <time>2020-08-16T16:21:59Z</time>
      </trkpt>
      <trkpt lat="45.932" lon="6.63951">
        <ele>556.4</ele>
        <time>2020-08-16T16:22:00Z</time>
      </trkpt>
      <trkpt lat="45.932" lon="6.63951">
        <ele>556.4</ele>
        <time>2020-08-16T16:22:01Z</time>
      </trkpt>
      <trkpt lat="45.93197" lon="6.63952">
        <ele>556.4</ele>
        <time>2020-08-16T16:22:02Z</time>
      </trkpt>
      <trkpt lat="45.93194" lon="6.63955">
        <ele>556.4</ele>
        <time>2020-08-16T16:22:03Z</time>
      </trkpt>
      <trkpt lat="45.93192" lon="6.63957">
        <ele>556.6</ele>
        <time>2020-08-16T16:22:04Z</time>
      </trkpt>
      <trkpt lat="45.9319" lon="6.63958">
        <ele>556.6</ele>
        <time>2020-08-16T16:22:05Z</time>
      </trkpt>
      <trkpt lat="45.9319" lon="6.63958">
        <ele>556.6</ele>
        <time>2020-08-16T16:22:06Z</time>
      </trkpt>
      <trkpt lat="45.93189" lon="6.6396">
        <ele>556.8</ele>
        <time>2020-08-16T16:22:07Z</time>
      </trkpt>
      <trkpt lat="45.93186" lon="6.63965">
        <ele>556.8</ele>
        <time>2020-08-16T16:22:08Z</time>
      </trkpt>
      <trkpt lat="45.93184" lon="6.63968">
        <ele>556.8</ele>
        <time>2020-08-16T16:22:09Z</time>
      </trkpt>
      <trkpt lat="45.93183" lon="6.63971">
        <ele>557</ele>
        <time>2020-08-16T16:22:10Z</time>
      </trkpt>
      <trkpt lat="45.93183" lon="6.63974">
        <ele>557</ele>
        <time>2020-08-16T16:22:11Z</time>
      </trkpt>
      <trkpt lat="45.93181" lon="6.63977">
        <ele>557</ele>
        <time>2020-08-16T16:22:12Z</time>
      </trkpt>
      <trkpt lat="45.9318" lon="6.6398">
        <ele>557</ele>
        <time>2020-08-16T16:22:13Z</time>
      </trkpt>
      <trkpt lat="45.93179" lon="6.63982">
        <ele>557</ele>
        <time>2020-08-16T16:22:14Z</time>
      </trkpt>
      <trkpt lat="45.93178" lon="6.63985">
        <ele>557</ele>
        <time>2020-08-16T16:22:15Z</time>
      </trkpt>
      <trkpt lat="45.93176" lon="6.63987">
        <ele>557</ele>
        <time>2020-08-16T16:22:16Z</time>
      </trkpt>
      <trkpt lat="45.93175" lon="6.63989">
        <ele>557.2</ele>
        <time>2020-08-16T16:22:17Z</time>
      </trkpt>
      <trkpt lat="45.93174" lon="6.63992">
        <ele>557.2</ele>
        <time>2020-08-16T16:22:18Z</time>
      </trkpt>
      <trkpt lat="45.93174" lon="6.63992">
        <ele>557.2</ele>
        <time>2020-08-16T16:22:19Z</time>
      </trkpt>
      <trkpt lat="45.93171" lon="6.63999">
        <ele>557.2</ele>
        <time>2020-08-16T16:22:20Z</time>
      </trkpt>
      <trkpt lat="45.93169" lon="6.64002">
        <ele>557.2</ele>
        <time>2020-08-16T16:22:21Z</time>
      </trkpt>
      <trkpt lat="45.93167" lon="6.64006">
        <ele>557.2</ele>
        <time>2020-08-16T16:22:22Z</time>
      </trkpt>
      <trkpt lat="45.93167" lon="6.64006">
        <ele>557.2</ele>
        <time>2020-08-16T16:22:23Z</time>
      </trkpt>
      <trkpt lat="45.93163" lon="6.64015">
        <ele>557</ele>
        <time>2020-08-16T16:22:24Z</time>
      </trkpt>
      <trkpt lat="45.9316" lon="6.64019">
        <ele>557</ele>
        <time>2020-08-16T16:22:25Z</time>
      </trkpt>
      <trkpt lat="45.93158" lon="6.64024">
        <ele>557</ele>
        <time>2020-08-16T16:22:26Z</time>
      </trkpt>
      <trkpt lat="45.93155" lon="6.64028">
        <ele>556.8</ele>
        <time>2020-08-16T16:22:27Z</time>
      </trkpt>
      <trkpt lat="45.93153" lon="6.64033">
        <ele>556.8</ele>
        <time>2020-08-16T16:22:28Z</time>
      </trkpt>
      <trkpt lat="45.9315" lon="6.64038">
        <ele>557</ele>
        <time>2020-08-16T16:22:29Z</time>
      </trkpt>
      <trkpt lat="45.93147" lon="6.64043">
        <ele>557.2</ele>
        <time>2020-08-16T16:22:30Z</time>
      </trkpt>
      <trkpt lat="45.93145" lon="6.64048">
        <ele>557.2</ele>
        <time>2020-08-16T16:22:31Z</time>
      </trkpt>
      <trkpt lat="45.93142" lon="6.64053">
        <ele>557.2</ele>
        <time>2020-08-16T16:22:32Z</time>
      </trkpt>
      <trkpt lat="45.93139" lon="6.64059">
        <ele>557.4</ele>
        <time>2020-08-16T16:22:33Z</time>
      </trkpt>
      <trkpt lat="45.93137" lon="6.64064">
        <ele>557.2</ele>
        <time>2020-08-16T16:22:34Z</time>
      </trkpt>
      <trkpt lat="45.93134" lon="6.6407">
        <ele>557.2</ele>
        <time>2020-08-16T16:22:35Z</time>
      </trkpt>
      <trkpt lat="45.93131" lon="6.64075">
        <ele>557.2</ele>
        <time>2020-08-16T16:22:36Z</time>
      </trkpt>
      <trkpt lat="45.93129" lon="6.64081">
        <ele>557.2</ele>
        <time>2020-08-16T16:22:37Z</time>
      </trkpt>
      <trkpt lat="45.93126" lon="6.64087">
        <ele>557.2</ele>
        <time>2020-08-16T16:22:38Z</time>
      </trkpt>
      <trkpt lat="45.93123" lon="6.64092">
        <ele>557.4</ele>
        <time>2020-08-16T16:22:39Z</time>
      </trkpt>
      <trkpt lat="45.9312" lon="6.64098">
        <ele>557.4</ele>
        <time>2020-08-16T16:22:40Z</time>
      </trkpt>
      <trkpt lat="45.93118" lon="6.64103">
        <ele>557.4</ele>
        <time>2020-08-16T16:22:41Z</time>
      </trkpt>
      <trkpt lat="45.93115" lon="6.64109">
        <ele>557.4</ele>
        <time>2020-08-16T16:22:42Z</time>
      </trkpt>
      <trkpt lat="45.93113" lon="6.64114">
        <ele>557.4</ele>
        <time>2020-08-16T16:22:43Z</time>
      </trkpt>
      <trkpt lat="45.9311" lon="6.6412">
        <ele>557.4</ele>
        <time>2020-08-16T16:22:44Z</time>
      </trkpt>
      <trkpt lat="45.93108" lon="6.64126">
        <ele>557.4</ele>
        <time>2020-08-16T16:22:45Z</time>
      </trkpt>
      <trkpt lat="45.93105" lon="6.64131">
        <ele>557.4</ele>
        <time>2020-08-16T16:22:46Z</time>
      </trkpt>
      <trkpt lat="45.93102" lon="6.64137">
        <ele>557.6</ele>
        <time>2020-08-16T16:22:47Z</time>
      </trkpt>
      <trkpt lat="45.93099" lon="6.64142">
        <ele>557.6</ele>
        <time>2020-08-16T16:22:48Z</time>
      </trkpt>
      <trkpt lat="45.93097" lon="6.64147">
        <ele>557.6</ele>
        <time>2020-08-16T16:22:49Z</time>
      </trkpt>
      <trkpt lat="45.93094" lon="6.64153">
        <ele>557.6</ele>
        <time>2020-08-16T16:22:50Z</time>
      </trkpt>
      <trkpt lat="45.93092" lon="6.64158">
        <ele>557.6</ele>
        <time>2020-08-16T16:22:51Z</time>
      </trkpt>
      <trkpt lat="45.9309" lon="6.64162">
        <ele>557.6</ele>
        <time>2020-08-16T16:22:52Z</time>
      </trkpt>
      <trkpt lat="45.93089" lon="6.64167">
        <ele>557.6</ele>
        <time>2020-08-16T16:22:53Z</time>
      </trkpt>
      <trkpt lat="45.93086" lon="6.64171">
        <ele>557.6</ele>
        <time>2020-08-16T16:22:54Z</time>
      </trkpt>
      <trkpt lat="45.93083" lon="6.64173">
        <ele>557.4</ele>
        <time>2020-08-16T16:22:55Z</time>
      </trkpt>
      <trkpt lat="45.9308" lon="6.64172">
        <ele>557.4</ele>
        <time>2020-08-16T16:22:56Z</time>
      </trkpt>
      <trkpt lat="45.93077" lon="6.6417">
        <ele>557.4</ele>
        <time>2020-08-16T16:22:57Z</time>
      </trkpt>
      <trkpt lat="45.93075" lon="6.64167">
        <ele>557.4</ele>
        <time>2020-08-16T16:22:58Z</time>
      </trkpt>
      <trkpt lat="45.93072" lon="6.64164">
        <ele>557.4</ele>
        <time>2020-08-16T16:22:59Z</time>
      </trkpt>
      <trkpt lat="45.93068" lon="6.64161">
        <ele>557.2</ele>
        <time>2020-08-16T16:23:00Z</time>
      </trkpt>
      <trkpt lat="45.93064" lon="6.6416">
        <ele>557.2</ele>
        <time>2020-08-16T16:23:01Z</time>
      </trkpt>
      <trkpt lat="45.93059" lon="6.6416">
        <ele>557</ele>
        <time>2020-08-16T16:23:02Z</time>
      </trkpt>
      <trkpt lat="45.93054" lon="6.64161">
        <ele>556.8</ele>
        <time>2020-08-16T16:23:03Z</time>
      </trkpt>
      <trkpt lat="45.9305" lon="6.64163">
        <ele>557</ele>
        <time>2020-08-16T16:23:04Z</time>
      </trkpt>
      <trkpt lat="45.93045" lon="6.64166">
        <ele>557</ele>
        <time>2020-08-16T16:23:05Z</time>
      </trkpt>
      <trkpt lat="45.93041" lon="6.6417">
        <ele>557</ele>
        <time>2020-08-16T16:23:06Z</time>
      </trkpt>
      <trkpt lat="45.93037" lon="6.64174">
        <ele>557</ele>
        <time>2020-08-16T16:23:07Z</time>
      </trkpt>
      <trkpt lat="45.93033" lon="6.64177">
        <ele>557</ele>
        <time>2020-08-16T16:23:08Z</time>
      </trkpt>
      <trkpt lat="45.9303" lon="6.64181">
        <ele>557</ele>
        <time>2020-08-16T16:23:09Z</time>
      </trkpt>
      <trkpt lat="45.93026" lon="6.64185">
        <ele>557</ele>
        <time>2020-08-16T16:23:10Z</time>
      </trkpt>
      <trkpt lat="45.93022" lon="6.64189">
        <ele>557</ele>
        <time>2020-08-16T16:23:11Z</time>
      </trkpt>
      <trkpt lat="45.93018" lon="6.64193">
        <ele>557</ele>
        <time>2020-08-16T16:23:12Z</time>
      </trkpt>
      <trkpt lat="45.93014" lon="6.64197">
        <ele>557</ele>
        <time>2020-08-16T16:23:13Z</time>
      </trkpt>
      <trkpt lat="45.9301" lon="6.64201">
        <ele>557</ele>
        <time>2020-08-16T16:23:14Z</time>
      </trkpt>
      <trkpt lat="45.93006" lon="6.64205">
        <ele>557</ele>
        <time>2020-08-16T16:23:15Z</time>
      </trkpt>
      <trkpt lat="45.93002" lon="6.64208">
        <ele>557</ele>
        <time>2020-08-16T16:23:16Z</time>
      </trkpt>
      <trkpt lat="45.92998" lon="6.64212">
        <ele>557</ele>
        <time>2020-08-16T16:23:17Z</time>
      </trkpt>
      <trkpt lat="45.92994" lon="6.64215">
        <ele>557.2</ele>
        <time>2020-08-16T16:23:18Z</time>
      </trkpt>
      <trkpt lat="45.9299" lon="6.64219">
        <ele>557.2</ele>
        <time>2020-08-16T16:23:19Z</time>
      </trkpt>
      <trkpt lat="45.92986" lon="6.64223">
        <ele>557.2</ele>
        <time>2020-08-16T16:23:20Z</time>
      </trkpt>
      <trkpt lat="45.92982" lon="6.64226">
        <ele>557.2</ele>
        <time>2020-08-16T16:23:21Z</time>
      </trkpt>
      <trkpt lat="45.92977" lon="6.64228">
        <ele>557.4</ele>
        <time>2020-08-16T16:23:22Z</time>
      </trkpt>
      <trkpt lat="45.92972" lon="6.64229">
        <ele>557.4</ele>
        <time>2020-08-16T16:23:23Z</time>
      </trkpt>
      <trkpt lat="45.92968" lon="6.6423">
        <ele>557.4</ele>
        <time>2020-08-16T16:23:24Z</time>
      </trkpt>
      <trkpt lat="45.92964" lon="6.64231">
        <ele>557.6</ele>
        <time>2020-08-16T16:23:25Z</time>
      </trkpt>
      <trkpt lat="45.92959" lon="6.64232">
        <ele>557.6</ele>
        <time>2020-08-16T16:23:26Z</time>
      </trkpt>
      <trkpt lat="45.92955" lon="6.64233">
        <ele>557.6</ele>
        <time>2020-08-16T16:23:27Z</time>
      </trkpt>
      <trkpt lat="45.92951" lon="6.64234">
        <ele>557.6</ele>
        <time>2020-08-16T16:23:28Z</time>
      </trkpt>
      <trkpt lat="45.92948" lon="6.64235">
        <ele>557.6</ele>
        <time>2020-08-16T16:23:29Z</time>
      </trkpt>
      <trkpt lat="45.92943" lon="6.64236">
        <ele>557.6</ele>
        <time>2020-08-16T16:23:30Z</time>
      </trkpt>
      <trkpt lat="45.92939" lon="6.64237">
        <ele>557.8</ele>
        <time>2020-08-16T16:23:31Z</time>
      </trkpt>
      <trkpt lat="45.92934" lon="6.64238">
        <ele>557.8</ele>
        <time>2020-08-16T16:23:32Z</time>
      </trkpt>
      <trkpt lat="45.92929" lon="6.64239">
        <ele>557.8</ele>
        <time>2020-08-16T16:23:33Z</time>
      </trkpt>
      <trkpt lat="45.92924" lon="6.64241">
        <ele>557.8</ele>
        <time>2020-08-16T16:23:34Z</time>
      </trkpt>
      <trkpt lat="45.9292" lon="6.64242">
        <ele>557.8</ele>
        <time>2020-08-16T16:23:35Z</time>
      </trkpt>
      <trkpt lat="45.92916" lon="6.64244">
        <ele>557.8</ele>
        <time>2020-08-16T16:23:36Z</time>
      </trkpt>
      <trkpt lat="45.92911" lon="6.64245">
        <ele>558</ele>
        <time>2020-08-16T16:23:37Z</time>
      </trkpt>
      <trkpt lat="45.92906" lon="6.64247">
        <ele>558</ele>
        <time>2020-08-16T16:23:38Z</time>
      </trkpt>
      <trkpt lat="45.92902" lon="6.64248">
        <ele>558</ele>
        <time>2020-08-16T16:23:39Z</time>
      </trkpt>
      <trkpt lat="45.92898" lon="6.64251">
        <ele>557.8</ele>
        <time>2020-08-16T16:23:40Z</time>
      </trkpt>
      <trkpt lat="45.92893" lon="6.64253">
        <ele>557.8</ele>
        <time>2020-08-16T16:23:41Z</time>
      </trkpt>
      <trkpt lat="45.92889" lon="6.64254">
        <ele>558</ele>
        <time>2020-08-16T16:23:42Z</time>
      </trkpt>
      <trkpt lat="45.92884" lon="6.64256">
        <ele>558</ele>
        <time>2020-08-16T16:23:43Z</time>
      </trkpt>
      <trkpt lat="45.9288" lon="6.64257">
        <ele>558</ele>
        <time>2020-08-16T16:23:44Z</time>
      </trkpt>
      <trkpt lat="45.92875" lon="6.64258">
        <ele>558</ele>
        <time>2020-08-16T16:23:45Z</time>
      </trkpt>
      <trkpt lat="45.92871" lon="6.64258">
        <ele>558.2</ele>
        <time>2020-08-16T16:23:46Z</time>
      </trkpt>
      <trkpt lat="45.92866" lon="6.64258">
        <ele>558.2</ele>
        <time>2020-08-16T16:23:47Z</time>
      </trkpt>
      <trkpt lat="45.92863" lon="6.64256">
        <ele>558.4</ele>
        <time>2020-08-16T16:23:48Z</time>
      </trkpt>
      <trkpt lat="45.92859" lon="6.64254">
        <ele>558.4</ele>
        <time>2020-08-16T16:23:49Z</time>
      </trkpt>
      <trkpt lat="45.92856" lon="6.64252">
        <ele>558.6</ele>
        <time>2020-08-16T16:23:50Z</time>
      </trkpt>
      <trkpt lat="45.92853" lon="6.64249">
        <ele>558.8</ele>
        <time>2020-08-16T16:23:51Z</time>
      </trkpt>
      <trkpt lat="45.9285" lon="6.64246">
        <ele>559</ele>
        <time>2020-08-16T16:23:52Z</time>
      </trkpt>
      <trkpt lat="45.92847" lon="6.64244">
        <ele>559.2</ele>
        <time>2020-08-16T16:23:53Z</time>
      </trkpt>
      <trkpt lat="45.92845" lon="6.64242">
        <ele>559.4</ele>
        <time>2020-08-16T16:23:54Z</time>
      </trkpt>
      <trkpt lat="45.92842" lon="6.64239">
        <ele>559.6</ele>
        <time>2020-08-16T16:23:55Z</time>
      </trkpt>
      <trkpt lat="45.92839" lon="6.64237">
        <ele>559.6</ele>
        <time>2020-08-16T16:23:56Z</time>
      </trkpt>
      <trkpt lat="45.92837" lon="6.64235">
        <ele>559.6</ele>
        <time>2020-08-16T16:23:57Z</time>
      </trkpt>
      <trkpt lat="45.92834" lon="6.64233">
        <ele>559.8</ele>
        <time>2020-08-16T16:23:58Z</time>
      </trkpt>
      <trkpt lat="45.92832" lon="6.64231">
        <ele>560</ele>
        <time>2020-08-16T16:23:59Z</time>
      </trkpt>
      <trkpt lat="45.92829" lon="6.64229">
        <ele>560</ele>
        <time>2020-08-16T16:24:00Z</time>
      </trkpt>
      <trkpt lat="45.92826" lon="6.64229">
        <ele>559.8</ele>
        <time>2020-08-16T16:24:01Z</time>
      </trkpt>
      <trkpt lat="45.92823" lon="6.6423">
        <ele>559.6</ele>
        <time>2020-08-16T16:24:02Z</time>
      </trkpt>
      <trkpt lat="45.9282" lon="6.64233">
        <ele>559.6</ele>
        <time>2020-08-16T16:24:03Z</time>
      </trkpt>
      <trkpt lat="45.92818" lon="6.64238">
        <ele>559.2</ele>
        <time>2020-08-16T16:24:04Z</time>
      </trkpt>
      <trkpt lat="45.92816" lon="6.64243">
        <ele>559.2</ele>
        <time>2020-08-16T16:24:05Z</time>
      </trkpt>
      <trkpt lat="45.92814" lon="6.64249">
        <ele>559</ele>
        <time>2020-08-16T16:24:06Z</time>
      </trkpt>
      <trkpt lat="45.92812" lon="6.64256">
        <ele>559</ele>
        <time>2020-08-16T16:24:07Z</time>
      </trkpt>
      <trkpt lat="45.9281" lon="6.64263">
        <ele>558.8</ele>
        <time>2020-08-16T16:24:08Z</time>
      </trkpt>
      <trkpt lat="45.92808" lon="6.6427">
        <ele>558.8</ele>
        <time>2020-08-16T16:24:09Z</time>
      </trkpt>
      <trkpt lat="45.92806" lon="6.64277">
        <ele>558.8</ele>
        <time>2020-08-16T16:24:10Z</time>
      </trkpt>
      <trkpt lat="45.92804" lon="6.64285">
        <ele>558.8</ele>
        <time>2020-08-16T16:24:11Z</time>
      </trkpt>
      <trkpt lat="45.92802" lon="6.64292">
        <ele>558.8</ele>
        <time>2020-08-16T16:24:12Z</time>
      </trkpt>
      <trkpt lat="45.92799" lon="6.64299">
        <ele>559</ele>
        <time>2020-08-16T16:24:13Z</time>
      </trkpt>
      <trkpt lat="45.92796" lon="6.64306">
        <ele>559</ele>
        <time>2020-08-16T16:24:14Z</time>
      </trkpt>
      <trkpt lat="45.92793" lon="6.64313">
        <ele>559</ele>
        <time>2020-08-16T16:24:15Z</time>
      </trkpt>
      <trkpt lat="45.9279" lon="6.64319">
        <ele>558.8</ele>
        <time>2020-08-16T16:24:16Z</time>
      </trkpt>
      <trkpt lat="45.92788" lon="6.64326">
        <ele>558.8</ele>
        <time>2020-08-16T16:24:17Z</time>
      </trkpt>
      <trkpt lat="45.92785" lon="6.64333">
        <ele>559</ele>
        <time>2020-08-16T16:24:18Z</time>
      </trkpt>
      <trkpt lat="45.92782" lon="6.6434">
        <ele>559</ele>
        <time>2020-08-16T16:24:19Z</time>
      </trkpt>
      <trkpt lat="45.92779" lon="6.64347">
        <ele>559</ele>
        <time>2020-08-16T16:24:20Z</time>
      </trkpt>
      <trkpt lat="45.92776" lon="6.64354">
        <ele>559</ele>
        <time>2020-08-16T16:24:21Z</time>
      </trkpt>
      <trkpt lat="45.92773" lon="6.6436">
        <ele>559</ele>
        <time>2020-08-16T16:24:22Z</time>
      </trkpt>
      <trkpt lat="45.9277" lon="6.64366">
        <ele>559</ele>
        <time>2020-08-16T16:24:23Z</time>
      </trkpt>
      <trkpt lat="45.92767" lon="6.64373">
        <ele>559</ele>
        <time>2020-08-16T16:24:24Z</time>
      </trkpt>
      <trkpt lat="45.92764" lon="6.64379">
        <ele>559</ele>
        <time>2020-08-16T16:24:25Z</time>
      </trkpt>
      <trkpt lat="45.92761" lon="6.64385">
        <ele>559</ele>
        <time>2020-08-16T16:24:26Z</time>
      </trkpt>
      <trkpt lat="45.92757" lon="6.64391">
        <ele>559</ele>
        <time>2020-08-16T16:24:27Z</time>
      </trkpt>
      <trkpt lat="45.92755" lon="6.64398">
        <ele>559</ele>
        <time>2020-08-16T16:24:28Z</time>
      </trkpt>
      <trkpt lat="45.92752" lon="6.64404">
        <ele>559</ele>
        <time>2020-08-16T16:24:29Z</time>
      </trkpt>
      <trkpt lat="45.92749" lon="6.64411">
        <ele>559</ele>
        <time>2020-08-16T16:24:30Z</time>
      </trkpt>
      <trkpt lat="45.92747" lon="6.64417">
        <ele>559</ele>
        <time>2020-08-16T16:24:31Z</time>
      </trkpt>
      <trkpt lat="45.92744" lon="6.64424">
        <ele>559.2</ele>
        <time>2020-08-16T16:24:32Z</time>
      </trkpt>
      <trkpt lat="45.92742" lon="6.6443">
        <ele>559.4</ele>
        <time>2020-08-16T16:24:33Z</time>
      </trkpt>
      <trkpt lat="45.92739" lon="6.64436">
        <ele>559.4</ele>
        <time>2020-08-16T16:24:34Z</time>
      </trkpt>
      <trkpt lat="45.92737" lon="6.64442">
        <ele>559.4</ele>
        <time>2020-08-16T16:24:35Z</time>
      </trkpt>
      <trkpt lat="45.92735" lon="6.64448">
        <ele>559.4</ele>
        <time>2020-08-16T16:24:36Z</time>
      </trkpt>
      <trkpt lat="45.92733" lon="6.64454">
        <ele>559.4</ele>
        <time>2020-08-16T16:24:37Z</time>
      </trkpt>
      <trkpt lat="45.92729" lon="6.64459">
        <ele>559.4</ele>
        <time>2020-08-16T16:24:38Z</time>
      </trkpt>
      <trkpt lat="45.92726" lon="6.64464">
        <ele>559.6</ele>
        <time>2020-08-16T16:24:39Z</time>
      </trkpt>
      <trkpt lat="45.92723" lon="6.64467">
        <ele>559.6</ele>
        <time>2020-08-16T16:24:40Z</time>
      </trkpt>
      <trkpt lat="45.9272" lon="6.64469">
        <ele>559.8</ele>
        <time>2020-08-16T16:24:41Z</time>
      </trkpt>
      <trkpt lat="45.92717" lon="6.64471">
        <ele>559.8</ele>
        <time>2020-08-16T16:24:42Z</time>
      </trkpt>
      <trkpt lat="45.92715" lon="6.64475">
        <ele>560</ele>
        <time>2020-08-16T16:24:43Z</time>
      </trkpt>
      <trkpt lat="45.92715" lon="6.64478">
        <ele>560.2</ele>
        <time>2020-08-16T16:24:44Z</time>
      </trkpt>
      <trkpt lat="45.92715" lon="6.64481">
        <ele>560.2</ele>
        <time>2020-08-16T16:24:45Z</time>
      </trkpt>
      <trkpt lat="45.92715" lon="6.64485">
        <ele>560.2</ele>
        <time>2020-08-16T16:24:46Z</time>
      </trkpt>
      <trkpt lat="45.92715" lon="6.64489">
        <ele>560.2</ele>
        <time>2020-08-16T16:24:47Z</time>
      </trkpt>
      <trkpt lat="45.92715" lon="6.64494">
        <ele>560.2</ele>
        <time>2020-08-16T16:24:48Z</time>
      </trkpt>
      <trkpt lat="45.92714" lon="6.64499">
        <ele>560.2</ele>
        <time>2020-08-16T16:24:49Z</time>
      </trkpt>
      <trkpt lat="45.92713" lon="6.64504">
        <ele>560</ele>
        <time>2020-08-16T16:24:50Z</time>
      </trkpt>
      <trkpt lat="45.9271" lon="6.64509">
        <ele>559.8</ele>
        <time>2020-08-16T16:24:51Z</time>
      </trkpt>
      <trkpt lat="45.92708" lon="6.64514">
        <ele>559.8</ele>
        <time>2020-08-16T16:24:52Z</time>
      </trkpt>
      <trkpt lat="45.92705" lon="6.6452">
        <ele>559.8</ele>
        <time>2020-08-16T16:24:53Z</time>
      </trkpt>
      <trkpt lat="45.92703" lon="6.64525">
        <ele>559.8</ele>
        <time>2020-08-16T16:24:54Z</time>
      </trkpt>
      <trkpt lat="45.92701" lon="6.6453">
        <ele>559.8</ele>
        <time>2020-08-16T16:24:55Z</time>
      </trkpt>
      <trkpt lat="45.92698" lon="6.64536">
        <ele>559.8</ele>
        <time>2020-08-16T16:24:56Z</time>
      </trkpt>
      <trkpt lat="45.92695" lon="6.64541">
        <ele>559.6</ele>
        <time>2020-08-16T16:24:57Z</time>
      </trkpt>
      <trkpt lat="45.92693" lon="6.64547">
        <ele>559.6</ele>
        <time>2020-08-16T16:24:58Z</time>
      </trkpt>
      <trkpt lat="45.9269" lon="6.64553">
        <ele>559.8</ele>
        <time>2020-08-16T16:24:59Z</time>
      </trkpt>
      <trkpt lat="45.92688" lon="6.64559">
        <ele>559.8</ele>
        <time>2020-08-16T16:25:00Z</time>
      </trkpt>
      <trkpt lat="45.92685" lon="6.64565">
        <ele>560</ele>
        <time>2020-08-16T16:25:01Z</time>
      </trkpt>
      <trkpt lat="45.92682" lon="6.64571">
        <ele>560</ele>
        <time>2020-08-16T16:25:02Z</time>
      </trkpt>
      <trkpt lat="45.9268" lon="6.64577">
        <ele>560</ele>
        <time>2020-08-16T16:25:03Z</time>
      </trkpt>
      <trkpt lat="45.92678" lon="6.64583">
        <ele>560</ele>
        <time>2020-08-16T16:25:04Z</time>
      </trkpt>
      <trkpt lat="45.92675" lon="6.6459">
        <ele>559.8</ele>
        <time>2020-08-16T16:25:05Z</time>
      </trkpt>
      <trkpt lat="45.92673" lon="6.64596">
        <ele>559.8</ele>
        <time>2020-08-16T16:25:06Z</time>
      </trkpt>
      <trkpt lat="45.9267" lon="6.64602">
        <ele>559.8</ele>
        <time>2020-08-16T16:25:07Z</time>
      </trkpt>
      <trkpt lat="45.92667" lon="6.64608">
        <ele>559.8</ele>
        <time>2020-08-16T16:25:08Z</time>
      </trkpt>
      <trkpt lat="45.92664" lon="6.64615">
        <ele>559.8</ele>
        <time>2020-08-16T16:25:09Z</time>
      </trkpt>
      <trkpt lat="45.92662" lon="6.6462">
        <ele>559.8</ele>
        <time>2020-08-16T16:25:10Z</time>
      </trkpt>
      <trkpt lat="45.92659" lon="6.64626">
        <ele>559.8</ele>
        <time>2020-08-16T16:25:11Z</time>
      </trkpt>
      <trkpt lat="45.92657" lon="6.64631">
        <ele>559.8</ele>
        <time>2020-08-16T16:25:12Z</time>
      </trkpt>
      <trkpt lat="45.92654" lon="6.64636">
        <ele>559.8</ele>
        <time>2020-08-16T16:25:13Z</time>
      </trkpt>
      <trkpt lat="45.92652" lon="6.64642">
        <ele>559.8</ele>
        <time>2020-08-16T16:25:14Z</time>
      </trkpt>
      <trkpt lat="45.9265" lon="6.64647">
        <ele>560</ele>
        <time>2020-08-16T16:25:15Z</time>
      </trkpt>
      <trkpt lat="45.92648" lon="6.64653">
        <ele>560</ele>
        <time>2020-08-16T16:25:16Z</time>
      </trkpt>
      <trkpt lat="45.92646" lon="6.64659">
        <ele>560</ele>
        <time>2020-08-16T16:25:17Z</time>
      </trkpt>
      <trkpt lat="45.92644" lon="6.64664">
        <ele>560</ele>
        <time>2020-08-16T16:25:18Z</time>
      </trkpt>
      <trkpt lat="45.92641" lon="6.64671">
        <ele>559.8</ele>
        <time>2020-08-16T16:25:19Z</time>
      </trkpt>
      <trkpt lat="45.92639" lon="6.64676">
        <ele>559.8</ele>
        <time>2020-08-16T16:25:20Z</time>
      </trkpt>
      <trkpt lat="45.92636" lon="6.64682">
        <ele>560</ele>
        <time>2020-08-16T16:25:21Z</time>
      </trkpt>
      <trkpt lat="45.92633" lon="6.64688">
        <ele>560</ele>
        <time>2020-08-16T16:25:22Z</time>
      </trkpt>
      <trkpt lat="45.9263" lon="6.64694">
        <ele>560</ele>
        <time>2020-08-16T16:25:23Z</time>
      </trkpt>
      <trkpt lat="45.92626" lon="6.64699">
        <ele>560</ele>
        <time>2020-08-16T16:25:24Z</time>
      </trkpt>
      <trkpt lat="45.92624" lon="6.64704">
        <ele>560</ele>
        <time>2020-08-16T16:25:25Z</time>
      </trkpt>
      <trkpt lat="45.92622" lon="6.6471">
        <ele>560.2</ele>
        <time>2020-08-16T16:25:26Z</time>
      </trkpt>
      <trkpt lat="45.92619" lon="6.64714">
        <ele>560.2</ele>
        <time>2020-08-16T16:25:27Z</time>
      </trkpt>
      <trkpt lat="45.92615" lon="6.64719">
        <ele>560.2</ele>
        <time>2020-08-16T16:25:28Z</time>
      </trkpt>
      <trkpt lat="45.92612" lon="6.64724">
        <ele>560.2</ele>
        <time>2020-08-16T16:25:29Z</time>
      </trkpt>
      <trkpt lat="45.9261" lon="6.64731">
        <ele>560.2</ele>
        <time>2020-08-16T16:25:30Z</time>
      </trkpt>
      <trkpt lat="45.92608" lon="6.64738">
        <ele>560.2</ele>
        <time>2020-08-16T16:25:31Z</time>
      </trkpt>
      <trkpt lat="45.92605" lon="6.64743">
        <ele>560.2</ele>
        <time>2020-08-16T16:25:32Z</time>
      </trkpt>
      <trkpt lat="45.92602" lon="6.64748">
        <ele>560.4</ele>
        <time>2020-08-16T16:25:33Z</time>
      </trkpt>
      <trkpt lat="45.92599" lon="6.64753">
        <ele>560.4</ele>
        <time>2020-08-16T16:25:34Z</time>
      </trkpt>
      <trkpt lat="45.92597" lon="6.64759">
        <ele>560.4</ele>
        <time>2020-08-16T16:25:35Z</time>
      </trkpt>
      <trkpt lat="45.92594" lon="6.64764">
        <ele>560.4</ele>
        <time>2020-08-16T16:25:36Z</time>
      </trkpt>
      <trkpt lat="45.92592" lon="6.6477">
        <ele>560.4</ele>
        <time>2020-08-16T16:25:37Z</time>
      </trkpt>
      <trkpt lat="45.92589" lon="6.64775">
        <ele>560.6</ele>
        <time>2020-08-16T16:25:38Z</time>
      </trkpt>
      <trkpt lat="45.92588" lon="6.6478">
        <ele>560.6</ele>
        <time>2020-08-16T16:25:39Z</time>
      </trkpt>
      <trkpt lat="45.92585" lon="6.64786">
        <ele>560.6</ele>
        <time>2020-08-16T16:25:40Z</time>
      </trkpt>
      <trkpt lat="45.92583" lon="6.64792">
        <ele>560.6</ele>
        <time>2020-08-16T16:25:41Z</time>
      </trkpt>
      <trkpt lat="45.9258" lon="6.64797">
        <ele>560.6</ele>
        <time>2020-08-16T16:25:42Z</time>
      </trkpt>
      <trkpt lat="45.92577" lon="6.64804">
        <ele>560.6</ele>
        <time>2020-08-16T16:25:43Z</time>
      </trkpt>
      <trkpt lat="45.92574" lon="6.6481">
        <ele>560.6</ele>
        <time>2020-08-16T16:25:44Z</time>
      </trkpt>
      <trkpt lat="45.92572" lon="6.64817">
        <ele>560.6</ele>
        <time>2020-08-16T16:25:45Z</time>
      </trkpt>
      <trkpt lat="45.92569" lon="6.64822">
        <ele>560.6</ele>
        <time>2020-08-16T16:25:46Z</time>
      </trkpt>
      <trkpt lat="45.92566" lon="6.64828">
        <ele>560.8</ele>
        <time>2020-08-16T16:25:47Z</time>
      </trkpt>
      <trkpt lat="45.92563" lon="6.64834">
        <ele>560.8</ele>
        <time>2020-08-16T16:25:48Z</time>
      </trkpt>
      <trkpt lat="45.9256" lon="6.6484">
        <ele>560.8</ele>
        <time>2020-08-16T16:25:49Z</time>
      </trkpt>
      <trkpt lat="45.92557" lon="6.64846">
        <ele>560.8</ele>
        <time>2020-08-16T16:25:50Z</time>
      </trkpt>
      <trkpt lat="45.92554" lon="6.64852">
        <ele>560.8</ele>
        <time>2020-08-16T16:25:51Z</time>
      </trkpt>
      <trkpt lat="45.92552" lon="6.64858">
        <ele>561</ele>
        <time>2020-08-16T16:25:52Z</time>
      </trkpt>
      <trkpt lat="45.92549" lon="6.64864">
        <ele>561</ele>
        <time>2020-08-16T16:25:53Z</time>
      </trkpt>
      <trkpt lat="45.92546" lon="6.64869">
        <ele>561</ele>
        <time>2020-08-16T16:25:54Z</time>
      </trkpt>
      <trkpt lat="45.92543" lon="6.64877">
        <ele>561</ele>
        <time>2020-08-16T16:25:55Z</time>
      </trkpt>
      <trkpt lat="45.92541" lon="6.64882">
        <ele>561.2</ele>
        <time>2020-08-16T16:25:56Z</time>
      </trkpt>
      <trkpt lat="45.92538" lon="6.64887">
        <ele>561.2</ele>
        <time>2020-08-16T16:25:57Z</time>
      </trkpt>
      <trkpt lat="45.92535" lon="6.64893">
        <ele>561.2</ele>
        <time>2020-08-16T16:25:58Z</time>
      </trkpt>
      <trkpt lat="45.92533" lon="6.64898">
        <ele>561.4</ele>
        <time>2020-08-16T16:25:59Z</time>
      </trkpt>
      <trkpt lat="45.9253" lon="6.64905">
        <ele>561.4</ele>
        <time>2020-08-16T16:26:00Z</time>
      </trkpt>
      <trkpt lat="45.92527" lon="6.64912">
        <ele>561.4</ele>
        <time>2020-08-16T16:26:01Z</time>
      </trkpt>
      <trkpt lat="45.92525" lon="6.6492">
        <ele>561.4</ele>
        <time>2020-08-16T16:26:02Z</time>
      </trkpt>
      <trkpt lat="45.92522" lon="6.64926">
        <ele>561.4</ele>
        <time>2020-08-16T16:26:03Z</time>
      </trkpt>
      <trkpt lat="45.9252" lon="6.64933">
        <ele>561.4</ele>
        <time>2020-08-16T16:26:04Z</time>
      </trkpt>
      <trkpt lat="45.92518" lon="6.6494">
        <ele>561.4</ele>
        <time>2020-08-16T16:26:05Z</time>
      </trkpt>
      <trkpt lat="45.92515" lon="6.64946">
        <ele>561.6</ele>
        <time>2020-08-16T16:26:06Z</time>
      </trkpt>
      <trkpt lat="45.92514" lon="6.64954">
        <ele>561.6</ele>
        <time>2020-08-16T16:26:07Z</time>
      </trkpt>
      <trkpt lat="45.92512" lon="6.6496">
        <ele>561.6</ele>
        <time>2020-08-16T16:26:08Z</time>
      </trkpt>
      <trkpt lat="45.9251" lon="6.64966">
        <ele>561.6</ele>
        <time>2020-08-16T16:26:09Z</time>
      </trkpt>
      <trkpt lat="45.92508" lon="6.64972">
        <ele>561.6</ele>
        <time>2020-08-16T16:26:10Z</time>
      </trkpt>
      <trkpt lat="45.92506" lon="6.64978">
        <ele>561.6</ele>
        <time>2020-08-16T16:26:11Z</time>
      </trkpt>
      <trkpt lat="45.92504" lon="6.64984">
        <ele>561.6</ele>
        <time>2020-08-16T16:26:12Z</time>
      </trkpt>
      <trkpt lat="45.92502" lon="6.6499">
        <ele>561.8</ele>
        <time>2020-08-16T16:26:13Z</time>
      </trkpt>
      <trkpt lat="45.925" lon="6.64996">
        <ele>561.8</ele>
        <time>2020-08-16T16:26:14Z</time>
      </trkpt>
      <trkpt lat="45.92498" lon="6.65002">
        <ele>561.8</ele>
        <time>2020-08-16T16:26:15Z</time>
      </trkpt>
      <trkpt lat="45.92497" lon="6.65007">
        <ele>562</ele>
        <time>2020-08-16T16:26:16Z</time>
      </trkpt>
      <trkpt lat="45.92495" lon="6.65012">
        <ele>562</ele>
        <time>2020-08-16T16:26:17Z</time>
      </trkpt>
      <trkpt lat="45.92493" lon="6.65017">
        <ele>562</ele>
        <time>2020-08-16T16:26:18Z</time>
      </trkpt>
      <trkpt lat="45.9249" lon="6.65023">
        <ele>562</ele>
        <time>2020-08-16T16:26:19Z</time>
      </trkpt>
      <trkpt lat="45.92488" lon="6.65029">
        <ele>562.2</ele>
        <time>2020-08-16T16:26:20Z</time>
      </trkpt>
      <trkpt lat="45.92486" lon="6.65035">
        <ele>562.2</ele>
        <time>2020-08-16T16:26:21Z</time>
      </trkpt>
      <trkpt lat="45.92484" lon="6.65041">
        <ele>562.4</ele>
        <time>2020-08-16T16:26:22Z</time>
      </trkpt>
      <trkpt lat="45.92481" lon="6.65047">
        <ele>562.4</ele>
        <time>2020-08-16T16:26:23Z</time>
      </trkpt>
      <trkpt lat="45.92479" lon="6.65053">
        <ele>562.6</ele>
        <time>2020-08-16T16:26:24Z</time>
      </trkpt>
      <trkpt lat="45.92477" lon="6.65059">
        <ele>562.6</ele>
        <time>2020-08-16T16:26:25Z</time>
      </trkpt>
      <trkpt lat="45.92474" lon="6.65065">
        <ele>562.6</ele>
        <time>2020-08-16T16:26:26Z</time>
      </trkpt>
      <trkpt lat="45.92472" lon="6.6507">
        <ele>562.6</ele>
        <time>2020-08-16T16:26:27Z</time>
      </trkpt>
      <trkpt lat="45.9247" lon="6.65076">
        <ele>562.6</ele>
        <time>2020-08-16T16:26:28Z</time>
      </trkpt>
      <trkpt lat="45.92467" lon="6.65082">
        <ele>562.6</ele>
        <time>2020-08-16T16:26:29Z</time>
      </trkpt>
      <trkpt lat="45.92465" lon="6.65088">
        <ele>562.6</ele>
        <time>2020-08-16T16:26:30Z</time>
      </trkpt>
      <trkpt lat="45.92463" lon="6.65095">
        <ele>562.6</ele>
        <time>2020-08-16T16:26:31Z</time>
      </trkpt>
      <trkpt lat="45.92461" lon="6.65101">
        <ele>562.6</ele>
        <time>2020-08-16T16:26:32Z</time>
      </trkpt>
      <trkpt lat="45.92459" lon="6.65107">
        <ele>562.6</ele>
        <time>2020-08-16T16:26:33Z</time>
      </trkpt>
      <trkpt lat="45.92457" lon="6.65113">
        <ele>562.8</ele>
        <time>2020-08-16T16:26:34Z</time>
      </trkpt>
      <trkpt lat="45.92454" lon="6.65119">
        <ele>562.8</ele>
        <time>2020-08-16T16:26:35Z</time>
      </trkpt>
      <trkpt lat="45.92452" lon="6.65124">
        <ele>562.8</ele>
        <time>2020-08-16T16:26:36Z</time>
      </trkpt>
      <trkpt lat="45.9245" lon="6.6513">
        <ele>562.8</ele>
        <time>2020-08-16T16:26:37Z</time>
      </trkpt>
      <trkpt lat="45.92447" lon="6.65135">
        <ele>562.6</ele>
        <time>2020-08-16T16:26:38Z</time>
      </trkpt>
      <trkpt lat="45.92445" lon="6.65141">
        <ele>562.6</ele>
        <time>2020-08-16T16:26:39Z</time>
      </trkpt>
      <trkpt lat="45.92443" lon="6.65145">
        <ele>562.6</ele>
        <time>2020-08-16T16:26:40Z</time>
      </trkpt>
      <trkpt lat="45.92441" lon="6.6515">
        <ele>562.8</ele>
        <time>2020-08-16T16:26:41Z</time>
      </trkpt>
      <trkpt lat="45.92439" lon="6.65154">
        <ele>563</ele>
        <time>2020-08-16T16:26:42Z</time>
      </trkpt>
      <trkpt lat="45.92437" lon="6.65157">
        <ele>563.2</ele>
        <time>2020-08-16T16:26:43Z</time>
      </trkpt>
      <trkpt lat="45.92434" lon="6.6516">
        <ele>563.4</ele>
        <time>2020-08-16T16:26:44Z</time>
      </trkpt>
      <trkpt lat="45.92433" lon="6.65162">
        <ele>563.6</ele>
        <time>2020-08-16T16:26:45Z</time>
      </trkpt>
      <trkpt lat="45.92431" lon="6.65166">
        <ele>563.4</ele>
        <time>2020-08-16T16:26:46Z</time>
      </trkpt>
      <trkpt lat="45.9243" lon="6.6517">
        <ele>563.4</ele>
        <time>2020-08-16T16:26:47Z</time>
      </trkpt>
      <trkpt lat="45.92429" lon="6.65174">
        <ele>563.6</ele>
        <time>2020-08-16T16:26:48Z</time>
      </trkpt>
      <trkpt lat="45.92428" lon="6.65179">
        <ele>563.6</ele>
        <time>2020-08-16T16:26:49Z</time>
      </trkpt>
      <trkpt lat="45.92427" lon="6.65184">
        <ele>563.6</ele>
        <time>2020-08-16T16:26:50Z</time>
      </trkpt>
      <trkpt lat="45.92426" lon="6.65189">
        <ele>563.8</ele>
        <time>2020-08-16T16:26:51Z</time>
      </trkpt>
      <trkpt lat="45.92425" lon="6.65194">
        <ele>563.6</ele>
        <time>2020-08-16T16:26:52Z</time>
      </trkpt>
      <trkpt lat="45.92423" lon="6.65199">
        <ele>563.6</ele>
        <time>2020-08-16T16:26:53Z</time>
      </trkpt>
      <trkpt lat="45.92421" lon="6.65204">
        <ele>563.6</ele>
        <time>2020-08-16T16:26:54Z</time>
      </trkpt>
      <trkpt lat="45.92418" lon="6.6521">
        <ele>563.6</ele>
        <time>2020-08-16T16:26:55Z</time>
      </trkpt>
      <trkpt lat="45.92416" lon="6.65215">
        <ele>563.8</ele>
        <time>2020-08-16T16:26:56Z</time>
      </trkpt>
      <trkpt lat="45.92413" lon="6.65221">
        <ele>563.8</ele>
        <time>2020-08-16T16:26:57Z</time>
      </trkpt>
      <trkpt lat="45.9241" lon="6.65226">
        <ele>563.8</ele>
        <time>2020-08-16T16:26:58Z</time>
      </trkpt>
      <trkpt lat="45.92408" lon="6.65231">
        <ele>563.8</ele>
        <time>2020-08-16T16:26:59Z</time>
      </trkpt>
      <trkpt lat="45.92406" lon="6.65237">
        <ele>563.8</ele>
        <time>2020-08-16T16:27:00Z</time>
      </trkpt>
      <trkpt lat="45.92403" lon="6.65243">
        <ele>563.8</ele>
        <time>2020-08-16T16:27:01Z</time>
      </trkpt>
      <trkpt lat="45.92401" lon="6.65249">
        <ele>563.8</ele>
        <time>2020-08-16T16:27:02Z</time>
      </trkpt>
      <trkpt lat="45.92398" lon="6.65256">
        <ele>563.8</ele>
        <time>2020-08-16T16:27:03Z</time>
      </trkpt>
      <trkpt lat="45.92395" lon="6.65262">
        <ele>563.8</ele>
        <time>2020-08-16T16:27:04Z</time>
      </trkpt>
      <trkpt lat="45.92393" lon="6.65269">
        <ele>563.8</ele>
        <time>2020-08-16T16:27:05Z</time>
      </trkpt>
      <trkpt lat="45.9239" lon="6.65275">
        <ele>563.8</ele>
        <time>2020-08-16T16:27:06Z</time>
      </trkpt>
      <trkpt lat="45.92388" lon="6.65282">
        <ele>564</ele>
        <time>2020-08-16T16:27:07Z</time>
      </trkpt>
      <trkpt lat="45.92385" lon="6.65288">
        <ele>564</ele>
        <time>2020-08-16T16:27:08Z</time>
      </trkpt>
      <trkpt lat="45.92383" lon="6.65294">
        <ele>564</ele>
        <time>2020-08-16T16:27:09Z</time>
      </trkpt>
      <trkpt lat="45.92381" lon="6.65301">
        <ele>563.8</ele>
        <time>2020-08-16T16:27:10Z</time>
      </trkpt>
      <trkpt lat="45.92378" lon="6.65309">
        <ele>564</ele>
        <time>2020-08-16T16:27:11Z</time>
      </trkpt>
      <trkpt lat="45.92375" lon="6.65315">
        <ele>564</ele>
        <time>2020-08-16T16:27:12Z</time>
      </trkpt>
      <trkpt lat="45.92372" lon="6.65322">
        <ele>564</ele>
        <time>2020-08-16T16:27:13Z</time>
      </trkpt>
      <trkpt lat="45.92369" lon="6.65327">
        <ele>563.8</ele>
        <time>2020-08-16T16:27:14Z</time>
      </trkpt>
      <trkpt lat="45.92366" lon="6.65333">
        <ele>563.8</ele>
        <time>2020-08-16T16:27:15Z</time>
      </trkpt>
      <trkpt lat="45.92364" lon="6.65339">
        <ele>564</ele>
        <time>2020-08-16T16:27:16Z</time>
      </trkpt>
      <trkpt lat="45.92362" lon="6.65344">
        <ele>564</ele>
        <time>2020-08-16T16:27:17Z</time>
      </trkpt>
      <trkpt lat="45.92359" lon="6.65348">
        <ele>564.2</ele>
        <time>2020-08-16T16:27:18Z</time>
      </trkpt>
      <trkpt lat="45.92355" lon="6.65349">
        <ele>564.2</ele>
        <time>2020-08-16T16:27:19Z</time>
      </trkpt>
      <trkpt lat="45.92351" lon="6.65349">
        <ele>564.2</ele>
        <time>2020-08-16T16:27:20Z</time>
      </trkpt>
      <trkpt lat="45.92348" lon="6.65349">
        <ele>564.6</ele>
        <time>2020-08-16T16:27:21Z</time>
      </trkpt>
      <trkpt lat="45.92344" lon="6.65349">
        <ele>564.8</ele>
        <time>2020-08-16T16:27:22Z</time>
      </trkpt>
      <trkpt lat="45.92341" lon="6.65351">
        <ele>564.4</ele>
        <time>2020-08-16T16:27:23Z</time>
      </trkpt>
      <trkpt lat="45.92338" lon="6.65353">
        <ele>564.2</ele>
        <time>2020-08-16T16:27:24Z</time>
      </trkpt>
      <trkpt lat="45.92337" lon="6.65356">
        <ele>564.4</ele>
        <time>2020-08-16T16:27:25Z</time>
      </trkpt>
      <trkpt lat="45.92334" lon="6.6536">
        <ele>564.6</ele>
        <time>2020-08-16T16:27:26Z</time>
      </trkpt>
      <trkpt lat="45.92332" lon="6.65365">
        <ele>564.6</ele>
        <time>2020-08-16T16:27:27Z</time>
      </trkpt>
      <trkpt lat="45.9233" lon="6.6537">
        <ele>564.8</ele>
        <time>2020-08-16T16:27:28Z</time>
      </trkpt>
      <trkpt lat="45.92328" lon="6.65376">
        <ele>564.8</ele>
        <time>2020-08-16T16:27:29Z</time>
      </trkpt>
      <trkpt lat="45.92327" lon="6.65382">
        <ele>565</ele>
        <time>2020-08-16T16:27:30Z</time>
      </trkpt>
      <trkpt lat="45.92327" lon="6.65389">
        <ele>565</ele>
        <time>2020-08-16T16:27:31Z</time>
      </trkpt>
      <trkpt lat="45.92326" lon="6.65396">
        <ele>565</ele>
        <time>2020-08-16T16:27:32Z</time>
      </trkpt>
      <trkpt lat="45.92325" lon="6.65405">
        <ele>565</ele>
        <time>2020-08-16T16:27:33Z</time>
      </trkpt>
      <trkpt lat="45.92324" lon="6.65412">
        <ele>565</ele>
        <time>2020-08-16T16:27:34Z</time>
      </trkpt>
      <trkpt lat="45.92323" lon="6.6542">
        <ele>565</ele>
        <time>2020-08-16T16:27:35Z</time>
      </trkpt>
      <trkpt lat="45.92322" lon="6.65427">
        <ele>565</ele>
        <time>2020-08-16T16:27:36Z</time>
      </trkpt>
      <trkpt lat="45.92321" lon="6.65435">
        <ele>564.8</ele>
        <time>2020-08-16T16:27:37Z</time>
      </trkpt>
      <trkpt lat="45.92319" lon="6.65442">
        <ele>564.8</ele>
        <time>2020-08-16T16:27:38Z</time>
      </trkpt>
      <trkpt lat="45.92317" lon="6.65449">
        <ele>564.8</ele>
        <time>2020-08-16T16:27:39Z</time>
      </trkpt>
      <trkpt lat="45.92315" lon="6.65456">
        <ele>564.8</ele>
        <time>2020-08-16T16:27:40Z</time>
      </trkpt>
      <trkpt lat="45.92312" lon="6.65464">
        <ele>565</ele>
        <time>2020-08-16T16:27:41Z</time>
      </trkpt>
      <trkpt lat="45.92309" lon="6.65471">
        <ele>565</ele>
        <time>2020-08-16T16:27:42Z</time>
      </trkpt>
      <trkpt lat="45.92307" lon="6.65478">
        <ele>565</ele>
        <time>2020-08-16T16:27:43Z</time>
      </trkpt>
      <trkpt lat="45.92304" lon="6.65484">
        <ele>565.2</ele>
        <time>2020-08-16T16:27:44Z</time>
      </trkpt>
      <trkpt lat="45.92301" lon="6.65491">
        <ele>565.4</ele>
        <time>2020-08-16T16:27:45Z</time>
      </trkpt>
      <trkpt lat="45.92298" lon="6.65498">
        <ele>565.6</ele>
        <time>2020-08-16T16:27:46Z</time>
      </trkpt>
      <trkpt lat="45.92295" lon="6.65504">
        <ele>565.6</ele>
        <time>2020-08-16T16:27:47Z</time>
      </trkpt>
      <trkpt lat="45.92292" lon="6.6551">
        <ele>565.6</ele>
        <time>2020-08-16T16:27:48Z</time>
      </trkpt>
      <trkpt lat="45.92289" lon="6.65516">
        <ele>565.6</ele>
        <time>2020-08-16T16:27:49Z</time>
      </trkpt>
      <trkpt lat="45.92287" lon="6.65522">
        <ele>565.6</ele>
        <time>2020-08-16T16:27:50Z</time>
      </trkpt>
      <trkpt lat="45.92285" lon="6.65528">
        <ele>565.6</ele>
        <time>2020-08-16T16:27:51Z</time>
      </trkpt>
      <trkpt lat="45.92282" lon="6.65533">
        <ele>565.6</ele>
        <time>2020-08-16T16:27:52Z</time>
      </trkpt>
      <trkpt lat="45.92279" lon="6.65539">
        <ele>565.4</ele>
        <time>2020-08-16T16:27:53Z</time>
      </trkpt>
      <trkpt lat="45.92276" lon="6.65545">
        <ele>565.6</ele>
        <time>2020-08-16T16:27:54Z</time>
      </trkpt>
      <trkpt lat="45.92273" lon="6.65552">
        <ele>565.6</ele>
        <time>2020-08-16T16:27:55Z</time>
      </trkpt>
      <trkpt lat="45.92271" lon="6.65558">
        <ele>565.6</ele>
        <time>2020-08-16T16:27:56Z</time>
      </trkpt>
      <trkpt lat="45.92268" lon="6.65565">
        <ele>565.6</ele>
        <time>2020-08-16T16:27:57Z</time>
      </trkpt>
      <trkpt lat="45.92266" lon="6.65571">
        <ele>565.8</ele>
        <time>2020-08-16T16:27:58Z</time>
      </trkpt>
      <trkpt lat="45.92264" lon="6.65577">
        <ele>565.6</ele>
        <time>2020-08-16T16:27:59Z</time>
      </trkpt>
      <trkpt lat="45.92261" lon="6.65583">
        <ele>565.6</ele>
        <time>2020-08-16T16:28:00Z</time>
      </trkpt>
      <trkpt lat="45.92258" lon="6.6559">
        <ele>565.8</ele>
        <time>2020-08-16T16:28:01Z</time>
      </trkpt>
      <trkpt lat="45.92255" lon="6.65596">
        <ele>565.8</ele>
        <time>2020-08-16T16:28:02Z</time>
      </trkpt>
      <trkpt lat="45.92252" lon="6.65603">
        <ele>565.8</ele>
        <time>2020-08-16T16:28:03Z</time>
      </trkpt>
      <trkpt lat="45.92249" lon="6.65609">
        <ele>566</ele>
        <time>2020-08-16T16:28:04Z</time>
      </trkpt>
      <trkpt lat="45.92246" lon="6.65616">
        <ele>566</ele>
        <time>2020-08-16T16:28:05Z</time>
      </trkpt>
      <trkpt lat="45.92244" lon="6.65622">
        <ele>566</ele>
        <time>2020-08-16T16:28:06Z</time>
      </trkpt>
      <trkpt lat="45.92241" lon="6.65629">
        <ele>566</ele>
        <time>2020-08-16T16:28:07Z</time>
      </trkpt>
      <trkpt lat="45.92238" lon="6.65636">
        <ele>566</ele>
        <time>2020-08-16T16:28:08Z</time>
      </trkpt>
      <trkpt lat="45.92236" lon="6.65643">
        <ele>566</ele>
        <time>2020-08-16T16:28:09Z</time>
      </trkpt>
      <trkpt lat="45.92232" lon="6.65651">
        <ele>566</ele>
        <time>2020-08-16T16:28:10Z</time>
      </trkpt>
      <trkpt lat="45.9223" lon="6.65658">
        <ele>566</ele>
        <time>2020-08-16T16:28:11Z</time>
      </trkpt>
      <trkpt lat="45.92227" lon="6.65664">
        <ele>566.2</ele>
        <time>2020-08-16T16:28:12Z</time>
      </trkpt>
      <trkpt lat="45.92225" lon="6.65671">
        <ele>566.2</ele>
        <time>2020-08-16T16:28:13Z</time>
      </trkpt>
      <trkpt lat="45.92222" lon="6.65677">
        <ele>566.2</ele>
        <time>2020-08-16T16:28:14Z</time>
      </trkpt>
      <trkpt lat="45.92219" lon="6.65683">
        <ele>566.4</ele>
        <time>2020-08-16T16:28:15Z</time>
      </trkpt>
      <trkpt lat="45.92217" lon="6.65689">
        <ele>566.4</ele>
        <time>2020-08-16T16:28:16Z</time>
      </trkpt>
      <trkpt lat="45.92214" lon="6.65695">
        <ele>566.4</ele>
        <time>2020-08-16T16:28:17Z</time>
      </trkpt>
      <trkpt lat="45.92211" lon="6.65702">
        <ele>566.4</ele>
        <time>2020-08-16T16:28:18Z</time>
      </trkpt>
      <trkpt lat="45.92208" lon="6.65709">
        <ele>566.4</ele>
        <time>2020-08-16T16:28:19Z</time>
      </trkpt>
      <trkpt lat="45.92204" lon="6.65715">
        <ele>566.6</ele>
        <time>2020-08-16T16:28:20Z</time>
      </trkpt>
      <trkpt lat="45.92201" lon="6.65722">
        <ele>566.6</ele>
        <time>2020-08-16T16:28:21Z</time>
      </trkpt>
      <trkpt lat="45.92198" lon="6.65728">
        <ele>566.6</ele>
        <time>2020-08-16T16:28:22Z</time>
      </trkpt>
      <trkpt lat="45.92195" lon="6.65734">
        <ele>566.6</ele>
        <time>2020-08-16T16:28:23Z</time>
      </trkpt>
      <trkpt lat="45.92192" lon="6.65741">
        <ele>566.8</ele>
        <time>2020-08-16T16:28:24Z</time>
      </trkpt>
      <trkpt lat="45.92189" lon="6.65748">
        <ele>566.8</ele>
        <time>2020-08-16T16:28:25Z</time>
      </trkpt>
      <trkpt lat="45.92187" lon="6.65754">
        <ele>566.8</ele>
        <time>2020-08-16T16:28:26Z</time>
      </trkpt>
      <trkpt lat="45.92184" lon="6.65761">
        <ele>566.8</ele>
        <time>2020-08-16T16:28:27Z</time>
      </trkpt>
      <trkpt lat="45.92182" lon="6.65768">
        <ele>566.8</ele>
        <time>2020-08-16T16:28:28Z</time>
      </trkpt>
      <trkpt lat="45.92179" lon="6.65774">
        <ele>566.8</ele>
        <time>2020-08-16T16:28:29Z</time>
      </trkpt>
      <trkpt lat="45.92176" lon="6.6578">
        <ele>566.8</ele>
        <time>2020-08-16T16:28:30Z</time>
      </trkpt>
      <trkpt lat="45.92174" lon="6.65786">
        <ele>567</ele>
        <time>2020-08-16T16:28:31Z</time>
      </trkpt>
      <trkpt lat="45.92171" lon="6.65793">
        <ele>567</ele>
        <time>2020-08-16T16:28:32Z</time>
      </trkpt>
      <trkpt lat="45.92169" lon="6.658">
        <ele>567</ele>
        <time>2020-08-16T16:28:33Z</time>
      </trkpt>
      <trkpt lat="45.92166" lon="6.65807">
        <ele>567</ele>
        <time>2020-08-16T16:28:34Z</time>
      </trkpt>
      <trkpt lat="45.92163" lon="6.65813">
        <ele>567</ele>
        <time>2020-08-16T16:28:35Z</time>
      </trkpt>
      <trkpt lat="45.9216" lon="6.6582">
        <ele>567</ele>
        <time>2020-08-16T16:28:36Z</time>
      </trkpt>
      <trkpt lat="45.92157" lon="6.65827">
        <ele>567.2</ele>
        <time>2020-08-16T16:28:37Z</time>
      </trkpt>
      <trkpt lat="45.92154" lon="6.65834">
        <ele>567.2</ele>
        <time>2020-08-16T16:28:38Z</time>
      </trkpt>
      <trkpt lat="45.92151" lon="6.6584">
        <ele>567.4</ele>
        <time>2020-08-16T16:28:39Z</time>
      </trkpt>
      <trkpt lat="45.92149" lon="6.65847">
        <ele>567.4</ele>
        <time>2020-08-16T16:28:40Z</time>
      </trkpt>
      <trkpt lat="45.92146" lon="6.65853">
        <ele>567.4</ele>
        <time>2020-08-16T16:28:41Z</time>
      </trkpt>
      <trkpt lat="45.92144" lon="6.6586">
        <ele>567.6</ele>
        <time>2020-08-16T16:28:42Z</time>
      </trkpt>
      <trkpt lat="45.92141" lon="6.65867">
        <ele>567.6</ele>
        <time>2020-08-16T16:28:43Z</time>
      </trkpt>
      <trkpt lat="45.92139" lon="6.65873">
        <ele>567.6</ele>
        <time>2020-08-16T16:28:44Z</time>
      </trkpt>
      <trkpt lat="45.92136" lon="6.65879">
        <ele>567.6</ele>
        <time>2020-08-16T16:28:45Z</time>
      </trkpt>
      <trkpt lat="45.92133" lon="6.65886">
        <ele>567.6</ele>
        <time>2020-08-16T16:28:46Z</time>
      </trkpt>
      <trkpt lat="45.92131" lon="6.65892">
        <ele>567.6</ele>
        <time>2020-08-16T16:28:47Z</time>
      </trkpt>
      <trkpt lat="45.92128" lon="6.65899">
        <ele>567.6</ele>
        <time>2020-08-16T16:28:48Z</time>
      </trkpt>
      <trkpt lat="45.92125" lon="6.65906">
        <ele>567.8</ele>
        <time>2020-08-16T16:28:49Z</time>
      </trkpt>
      <trkpt lat="45.92122" lon="6.65913">
        <ele>567.8</ele>
        <time>2020-08-16T16:28:50Z</time>
      </trkpt>
      <trkpt lat="45.9212" lon="6.6592">
        <ele>568</ele>
        <time>2020-08-16T16:28:51Z</time>
      </trkpt>
      <trkpt lat="45.92117" lon="6.65927">
        <ele>568</ele>
        <time>2020-08-16T16:28:52Z</time>
      </trkpt>
      <trkpt lat="45.92114" lon="6.65933">
        <ele>568</ele>
        <time>2020-08-16T16:28:53Z</time>
      </trkpt>
      <trkpt lat="45.92112" lon="6.65939">
        <ele>568</ele>
        <time>2020-08-16T16:28:54Z</time>
      </trkpt>
      <trkpt lat="45.92109" lon="6.65945">
        <ele>568</ele>
        <time>2020-08-16T16:28:55Z</time>
      </trkpt>
      <trkpt lat="45.92106" lon="6.65952">
        <ele>568.2</ele>
        <time>2020-08-16T16:28:56Z</time>
      </trkpt>
      <trkpt lat="45.92104" lon="6.65958">
        <ele>568.2</ele>
        <time>2020-08-16T16:28:57Z</time>
      </trkpt>
      <trkpt lat="45.92101" lon="6.65964">
        <ele>568.2</ele>
        <time>2020-08-16T16:28:58Z</time>
      </trkpt>
      <trkpt lat="45.92098" lon="6.6597">
        <ele>568.4</ele>
        <time>2020-08-16T16:28:59Z</time>
      </trkpt>
      <trkpt lat="45.92094" lon="6.65975">
        <ele>568.4</ele>
        <time>2020-08-16T16:29:00Z</time>
      </trkpt>
      <trkpt lat="45.92091" lon="6.65981">
        <ele>568.6</ele>
        <time>2020-08-16T16:29:01Z</time>
      </trkpt>
      <trkpt lat="45.92088" lon="6.65987">
        <ele>568.6</ele>
        <time>2020-08-16T16:29:02Z</time>
      </trkpt>
      <trkpt lat="45.92085" lon="6.65992">
        <ele>568.8</ele>
        <time>2020-08-16T16:29:03Z</time>
      </trkpt>
      <trkpt lat="45.92083" lon="6.65998">
        <ele>569</ele>
        <time>2020-08-16T16:29:04Z</time>
      </trkpt>
      <trkpt lat="45.92081" lon="6.66003">
        <ele>569.2</ele>
        <time>2020-08-16T16:29:05Z</time>
      </trkpt>
      <trkpt lat="45.92078" lon="6.66009">
        <ele>569</ele>
        <time>2020-08-16T16:29:06Z</time>
      </trkpt>
      <trkpt lat="45.92076" lon="6.66016">
        <ele>568.8</ele>
        <time>2020-08-16T16:29:07Z</time>
      </trkpt>
      <trkpt lat="45.92074" lon="6.66023">
        <ele>568.8</ele>
        <time>2020-08-16T16:29:08Z</time>
      </trkpt>
      <trkpt lat="45.92071" lon="6.6603">
        <ele>568.6</ele>
        <time>2020-08-16T16:29:09Z</time>
      </trkpt>
      <trkpt lat="45.92069" lon="6.66037">
        <ele>568.6</ele>
        <time>2020-08-16T16:29:10Z</time>
      </trkpt>
      <trkpt lat="45.92066" lon="6.66043">
        <ele>568.6</ele>
        <time>2020-08-16T16:29:11Z</time>
      </trkpt>
      <trkpt lat="45.92064" lon="6.6605">
        <ele>568.6</ele>
        <time>2020-08-16T16:29:12Z</time>
      </trkpt>
      <trkpt lat="45.92062" lon="6.66057">
        <ele>568.6</ele>
        <time>2020-08-16T16:29:13Z</time>
      </trkpt>
      <trkpt lat="45.92059" lon="6.66064">
        <ele>568.8</ele>
        <time>2020-08-16T16:29:14Z</time>
      </trkpt>
      <trkpt lat="45.92056" lon="6.6607">
        <ele>568.8</ele>
        <time>2020-08-16T16:29:15Z</time>
      </trkpt>
      <trkpt lat="45.92054" lon="6.66077">
        <ele>568.8</ele>
        <time>2020-08-16T16:29:16Z</time>
      </trkpt>
      <trkpt lat="45.92051" lon="6.66083">
        <ele>569</ele>
        <time>2020-08-16T16:29:17Z</time>
      </trkpt>
      <trkpt lat="45.92049" lon="6.6609">
        <ele>568.8</ele>
        <time>2020-08-16T16:29:18Z</time>
      </trkpt>
      <trkpt lat="45.92046" lon="6.66096">
        <ele>568.8</ele>
        <time>2020-08-16T16:29:19Z</time>
      </trkpt>
      <trkpt lat="45.92043" lon="6.66103">
        <ele>568.8</ele>
        <time>2020-08-16T16:29:20Z</time>
      </trkpt>
      <trkpt lat="45.92041" lon="6.66109">
        <ele>568.8</ele>
        <time>2020-08-16T16:29:21Z</time>
      </trkpt>
      <trkpt lat="45.92038" lon="6.66116">
        <ele>569</ele>
        <time>2020-08-16T16:29:22Z</time>
      </trkpt>
      <trkpt lat="45.92035" lon="6.66123">
        <ele>569</ele>
        <time>2020-08-16T16:29:23Z</time>
      </trkpt>
      <trkpt lat="45.92033" lon="6.6613">
        <ele>569</ele>
        <time>2020-08-16T16:29:24Z</time>
      </trkpt>
      <trkpt lat="45.9203" lon="6.66136">
        <ele>569</ele>
        <time>2020-08-16T16:29:25Z</time>
      </trkpt>
      <trkpt lat="45.92028" lon="6.66143">
        <ele>569</ele>
        <time>2020-08-16T16:29:26Z</time>
      </trkpt>
      <trkpt lat="45.92025" lon="6.6615">
        <ele>569</ele>
        <time>2020-08-16T16:29:27Z</time>
      </trkpt>
      <trkpt lat="45.92022" lon="6.66157">
        <ele>569</ele>
        <time>2020-08-16T16:29:28Z</time>
      </trkpt>
      <trkpt lat="45.9202" lon="6.66163">
        <ele>569</ele>
        <time>2020-08-16T16:29:29Z</time>
      </trkpt>
      <trkpt lat="45.92017" lon="6.6617">
        <ele>569</ele>
        <time>2020-08-16T16:29:30Z</time>
      </trkpt>
      <trkpt lat="45.92014" lon="6.66177">
        <ele>569</ele>
        <time>2020-08-16T16:29:31Z</time>
      </trkpt>
      <trkpt lat="45.9201" lon="6.66184">
        <ele>569</ele>
        <time>2020-08-16T16:29:32Z</time>
      </trkpt>
      <trkpt lat="45.92007" lon="6.66191">
        <ele>569</ele>
        <time>2020-08-16T16:29:33Z</time>
      </trkpt>
      <trkpt lat="45.92004" lon="6.66197">
        <ele>569.2</ele>
        <time>2020-08-16T16:29:34Z</time>
      </trkpt>
      <trkpt lat="45.92001" lon="6.66204">
        <ele>569.2</ele>
        <time>2020-08-16T16:29:35Z</time>
      </trkpt>
      <trkpt lat="45.91998" lon="6.66211">
        <ele>569.2</ele>
        <time>2020-08-16T16:29:36Z</time>
      </trkpt>
      <trkpt lat="45.91996" lon="6.66218">
        <ele>569.4</ele>
        <time>2020-08-16T16:29:37Z</time>
      </trkpt>
      <trkpt lat="45.91993" lon="6.66225">
        <ele>569.4</ele>
        <time>2020-08-16T16:29:38Z</time>
      </trkpt>
      <trkpt lat="45.9199" lon="6.66231">
        <ele>569.4</ele>
        <time>2020-08-16T16:29:39Z</time>
      </trkpt>
      <trkpt lat="45.91988" lon="6.66238">
        <ele>569.6</ele>
        <time>2020-08-16T16:29:40Z</time>
      </trkpt>
      <trkpt lat="45.91985" lon="6.66245">
        <ele>569.6</ele>
        <time>2020-08-16T16:29:41Z</time>
      </trkpt>
      <trkpt lat="45.91982" lon="6.66251">
        <ele>569.8</ele>
        <time>2020-08-16T16:29:42Z</time>
      </trkpt>
      <trkpt lat="45.91979" lon="6.66258">
        <ele>569.8</ele>
        <time>2020-08-16T16:29:43Z</time>
      </trkpt>
      <trkpt lat="45.91977" lon="6.66265">
        <ele>569.8</ele>
        <time>2020-08-16T16:29:44Z</time>
      </trkpt>
      <trkpt lat="45.91974" lon="6.66272">
        <ele>569.8</ele>
        <time>2020-08-16T16:29:45Z</time>
      </trkpt>
      <trkpt lat="45.91971" lon="6.66278">
        <ele>569.8</ele>
        <time>2020-08-16T16:29:46Z</time>
      </trkpt>
      <trkpt lat="45.91968" lon="6.66285">
        <ele>569.6</ele>
        <time>2020-08-16T16:29:47Z</time>
      </trkpt>
      <trkpt lat="45.91965" lon="6.66291">
        <ele>569.8</ele>
        <time>2020-08-16T16:29:48Z</time>
      </trkpt>
      <trkpt lat="45.91962" lon="6.66297">
        <ele>569.8</ele>
        <time>2020-08-16T16:29:49Z</time>
      </trkpt>
      <trkpt lat="45.91958" lon="6.66304">
        <ele>569.8</ele>
        <time>2020-08-16T16:29:50Z</time>
      </trkpt>
      <trkpt lat="45.91956" lon="6.6631">
        <ele>570</ele>
        <time>2020-08-16T16:29:51Z</time>
      </trkpt>
      <trkpt lat="45.91953" lon="6.66317">
        <ele>570</ele>
        <time>2020-08-16T16:29:52Z</time>
      </trkpt>
      <trkpt lat="45.9195" lon="6.66324">
        <ele>569.8</ele>
        <time>2020-08-16T16:29:53Z</time>
      </trkpt>
      <trkpt lat="45.91947" lon="6.6633">
        <ele>569.8</ele>
        <time>2020-08-16T16:29:54Z</time>
      </trkpt>
      <trkpt lat="45.91944" lon="6.66337">
        <ele>570</ele>
        <time>2020-08-16T16:29:55Z</time>
      </trkpt>
      <trkpt lat="45.91942" lon="6.66344">
        <ele>569.8</ele>
        <time>2020-08-16T16:29:56Z</time>
      </trkpt>
      <trkpt lat="45.91939" lon="6.66351">
        <ele>569.8</ele>
        <time>2020-08-16T16:29:57Z</time>
      </trkpt>
      <trkpt lat="45.91937" lon="6.66357">
        <ele>569.8</ele>
        <time>2020-08-16T16:29:58Z</time>
      </trkpt>
      <trkpt lat="45.91934" lon="6.66364">
        <ele>569.8</ele>
        <time>2020-08-16T16:29:59Z</time>
      </trkpt>
      <trkpt lat="45.91931" lon="6.6637">
        <ele>570</ele>
        <time>2020-08-16T16:30:00Z</time>
      </trkpt>
      <trkpt lat="45.91928" lon="6.66376">
        <ele>570</ele>
        <time>2020-08-16T16:30:01Z</time>
      </trkpt>
      <trkpt lat="45.91925" lon="6.66382">
        <ele>570</ele>
        <time>2020-08-16T16:30:02Z</time>
      </trkpt>
      <trkpt lat="45.91922" lon="6.66389">
        <ele>570</ele>
        <time>2020-08-16T16:30:03Z</time>
      </trkpt>
      <trkpt lat="45.91919" lon="6.66395">
        <ele>570</ele>
        <time>2020-08-16T16:30:04Z</time>
      </trkpt>
      <trkpt lat="45.91916" lon="6.66401">
        <ele>569.8</ele>
        <time>2020-08-16T16:30:05Z</time>
      </trkpt>
      <trkpt lat="45.91913" lon="6.66407">
        <ele>569.8</ele>
        <time>2020-08-16T16:30:06Z</time>
      </trkpt>
      <trkpt lat="45.91911" lon="6.66413">
        <ele>570</ele>
        <time>2020-08-16T16:30:07Z</time>
      </trkpt>
      <trkpt lat="45.91908" lon="6.66419">
        <ele>570.2</ele>
        <time>2020-08-16T16:30:08Z</time>
      </trkpt>
      <trkpt lat="45.91905" lon="6.66426">
        <ele>570.2</ele>
        <time>2020-08-16T16:30:09Z</time>
      </trkpt>
      <trkpt lat="45.91902" lon="6.66432">
        <ele>570.2</ele>
        <time>2020-08-16T16:30:10Z</time>
      </trkpt>
      <trkpt lat="45.91899" lon="6.66438">
        <ele>570.2</ele>
        <time>2020-08-16T16:30:11Z</time>
      </trkpt>
      <trkpt lat="45.91896" lon="6.66445">
        <ele>570.2</ele>
        <time>2020-08-16T16:30:12Z</time>
      </trkpt>
      <trkpt lat="45.91893" lon="6.66451">
        <ele>570.2</ele>
        <time>2020-08-16T16:30:13Z</time>
      </trkpt>
      <trkpt lat="45.9189" lon="6.66458">
        <ele>570.2</ele>
        <time>2020-08-16T16:30:14Z</time>
      </trkpt>
      <trkpt lat="45.91887" lon="6.66465">
        <ele>570.2</ele>
        <time>2020-08-16T16:30:15Z</time>
      </trkpt>
      <trkpt lat="45.91885" lon="6.66471">
        <ele>570.4</ele>
        <time>2020-08-16T16:30:16Z</time>
      </trkpt>
      <trkpt lat="45.91882" lon="6.66478">
        <ele>570.4</ele>
        <time>2020-08-16T16:30:17Z</time>
      </trkpt>
      <trkpt lat="45.91879" lon="6.66485">
        <ele>570.4</ele>
        <time>2020-08-16T16:30:18Z</time>
      </trkpt>
      <trkpt lat="45.91876" lon="6.66491">
        <ele>570.4</ele>
        <time>2020-08-16T16:30:19Z</time>
      </trkpt>
      <trkpt lat="45.91873" lon="6.66498">
        <ele>570.4</ele>
        <time>2020-08-16T16:30:20Z</time>
      </trkpt>
      <trkpt lat="45.9187" lon="6.66504">
        <ele>570.6</ele>
        <time>2020-08-16T16:30:21Z</time>
      </trkpt>
      <trkpt lat="45.91867" lon="6.66511">
        <ele>570.6</ele>
        <time>2020-08-16T16:30:22Z</time>
      </trkpt>
      <trkpt lat="45.91864" lon="6.66516">
        <ele>570.8</ele>
        <time>2020-08-16T16:30:23Z</time>
      </trkpt>
      <trkpt lat="45.9186" lon="6.66522">
        <ele>570.6</ele>
        <time>2020-08-16T16:30:24Z</time>
      </trkpt>
      <trkpt lat="45.91857" lon="6.66528">
        <ele>570.6</ele>
        <time>2020-08-16T16:30:25Z</time>
      </trkpt>
      <trkpt lat="45.91853" lon="6.66533">
        <ele>570.8</ele>
        <time>2020-08-16T16:30:26Z</time>
      </trkpt>
      <trkpt lat="45.91849" lon="6.66539">
        <ele>570.8</ele>
        <time>2020-08-16T16:30:27Z</time>
      </trkpt>
      <trkpt lat="45.91846" lon="6.66544">
        <ele>571</ele>
        <time>2020-08-16T16:30:28Z</time>
      </trkpt>
      <trkpt lat="45.91843" lon="6.6655">
        <ele>571</ele>
        <time>2020-08-16T16:30:29Z</time>
      </trkpt>
      <trkpt lat="45.91839" lon="6.66555">
        <ele>571</ele>
        <time>2020-08-16T16:30:30Z</time>
      </trkpt>
      <trkpt lat="45.91836" lon="6.66561">
        <ele>571</ele>
        <time>2020-08-16T16:30:31Z</time>
      </trkpt>
      <trkpt lat="45.91832" lon="6.66566">
        <ele>571</ele>
        <time>2020-08-16T16:30:32Z</time>
      </trkpt>
      <trkpt lat="45.91829" lon="6.66571">
        <ele>571.2</ele>
        <time>2020-08-16T16:30:33Z</time>
      </trkpt>
      <trkpt lat="45.91826" lon="6.66577">
        <ele>571.4</ele>
        <time>2020-08-16T16:30:34Z</time>
      </trkpt>
      <trkpt lat="45.91823" lon="6.66583">
        <ele>571.4</ele>
        <time>2020-08-16T16:30:35Z</time>
      </trkpt>
      <trkpt lat="45.9182" lon="6.66588">
        <ele>571.6</ele>
        <time>2020-08-16T16:30:36Z</time>
      </trkpt>
      <trkpt lat="45.91818" lon="6.66594">
        <ele>571.8</ele>
        <time>2020-08-16T16:30:37Z</time>
      </trkpt>
      <trkpt lat="45.91815" lon="6.66599">
        <ele>572</ele>
        <time>2020-08-16T16:30:38Z</time>
      </trkpt>
      <trkpt lat="45.91813" lon="6.66603">
        <ele>572</ele>
        <time>2020-08-16T16:30:39Z</time>
      </trkpt>
      <trkpt lat="45.91811" lon="6.66608">
        <ele>572.2</ele>
        <time>2020-08-16T16:30:40Z</time>
      </trkpt>
      <trkpt lat="45.91808" lon="6.66612">
        <ele>572.4</ele>
        <time>2020-08-16T16:30:41Z</time>
      </trkpt>
      <trkpt lat="45.91805" lon="6.66617">
        <ele>572.6</ele>
        <time>2020-08-16T16:30:42Z</time>
      </trkpt>
      <trkpt lat="45.91803" lon="6.66621">
        <ele>572.6</ele>
        <time>2020-08-16T16:30:43Z</time>
      </trkpt>
      <trkpt lat="45.91801" lon="6.66626">
        <ele>572.6</ele>
        <time>2020-08-16T16:30:44Z</time>
      </trkpt>
      <trkpt lat="45.91799" lon="6.66631">
        <ele>572.8</ele>
        <time>2020-08-16T16:30:45Z</time>
      </trkpt>
      <trkpt lat="45.91797" lon="6.66635">
        <ele>572.8</ele>
        <time>2020-08-16T16:30:46Z</time>
      </trkpt>
      <trkpt lat="45.91795" lon="6.66639">
        <ele>572.6</ele>
        <time>2020-08-16T16:30:47Z</time>
      </trkpt>
      <trkpt lat="45.91794" lon="6.66643">
        <ele>572.8</ele>
        <time>2020-08-16T16:30:48Z</time>
      </trkpt>
      <trkpt lat="45.91793" lon="6.66645">
        <ele>572.8</ele>
        <time>2020-08-16T16:30:49Z</time>
      </trkpt>
      <trkpt lat="45.91793" lon="6.66647">
        <ele>572.8</ele>
        <time>2020-08-16T16:30:50Z</time>
      </trkpt>
      <trkpt lat="45.91793" lon="6.66651">
        <ele>572.6</ele>
        <time>2020-08-16T16:30:51Z</time>
      </trkpt>
      <trkpt lat="45.91792" lon="6.66655">
        <ele>572.6</ele>
        <time>2020-08-16T16:30:52Z</time>
      </trkpt>
      <trkpt lat="45.91792" lon="6.6666">
        <ele>572.6</ele>
        <time>2020-08-16T16:30:53Z</time>
      </trkpt>
      <trkpt lat="45.91791" lon="6.66666">
        <ele>572.4</ele>
        <time>2020-08-16T16:30:54Z</time>
      </trkpt>
      <trkpt lat="45.91791" lon="6.66673">
        <ele>572.2</ele>
        <time>2020-08-16T16:30:55Z</time>
      </trkpt>
      <trkpt lat="45.9179" lon="6.66679">
        <ele>572</ele>
        <time>2020-08-16T16:30:56Z</time>
      </trkpt>
      <trkpt lat="45.91789" lon="6.66686">
        <ele>571.8</ele>
        <time>2020-08-16T16:30:57Z</time>
      </trkpt>
      <trkpt lat="45.91787" lon="6.66694">
        <ele>571.6</ele>
        <time>2020-08-16T16:30:58Z</time>
      </trkpt>
      <trkpt lat="45.91786" lon="6.66701">
        <ele>571.4</ele>
        <time>2020-08-16T16:30:59Z</time>
      </trkpt>
      <trkpt lat="45.91784" lon="6.66709">
        <ele>571.2</ele>
        <time>2020-08-16T16:31:00Z</time>
      </trkpt>
      <trkpt lat="45.91782" lon="6.66717">
        <ele>571.2</ele>
        <time>2020-08-16T16:31:01Z</time>
      </trkpt>
      <trkpt lat="45.9178" lon="6.66725">
        <ele>571.4</ele>
        <time>2020-08-16T16:31:02Z</time>
      </trkpt>
      <trkpt lat="45.91778" lon="6.66732">
        <ele>571.6</ele>
        <time>2020-08-16T16:31:03Z</time>
      </trkpt>
      <trkpt lat="45.91776" lon="6.66739">
        <ele>571.6</ele>
        <time>2020-08-16T16:31:04Z</time>
      </trkpt>
      <trkpt lat="45.91773" lon="6.66746">
        <ele>571.8</ele>
        <time>2020-08-16T16:31:05Z</time>
      </trkpt>
      <trkpt lat="45.91771" lon="6.66753">
        <ele>571.8</ele>
        <time>2020-08-16T16:31:06Z</time>
      </trkpt>
      <trkpt lat="45.91768" lon="6.6676">
        <ele>571.8</ele>
        <time>2020-08-16T16:31:07Z</time>
      </trkpt>
      <trkpt lat="45.91766" lon="6.66766">
        <ele>572</ele>
        <time>2020-08-16T16:31:08Z</time>
      </trkpt>
      <trkpt lat="45.91763" lon="6.66772">
        <ele>572</ele>
        <time>2020-08-16T16:31:09Z</time>
      </trkpt>
      <trkpt lat="45.91761" lon="6.66779">
        <ele>572.2</ele>
        <time>2020-08-16T16:31:10Z</time>
      </trkpt>
      <trkpt lat="45.91758" lon="6.66785">
        <ele>572.2</ele>
        <time>2020-08-16T16:31:11Z</time>
      </trkpt>
      <trkpt lat="45.91756" lon="6.66792">
        <ele>572.4</ele>
        <time>2020-08-16T16:31:12Z</time>
      </trkpt>
      <trkpt lat="45.91753" lon="6.66798">
        <ele>572.4</ele>
        <time>2020-08-16T16:31:13Z</time>
      </trkpt>
      <trkpt lat="45.9175" lon="6.66804">
        <ele>572.4</ele>
        <time>2020-08-16T16:31:14Z</time>
      </trkpt>
      <trkpt lat="45.91747" lon="6.6681">
        <ele>572.6</ele>
        <time>2020-08-16T16:31:15Z</time>
      </trkpt>
      <trkpt lat="45.91744" lon="6.66817">
        <ele>572.6</ele>
        <time>2020-08-16T16:31:16Z</time>
      </trkpt>
      <trkpt lat="45.91742" lon="6.66823">
        <ele>572.4</ele>
        <time>2020-08-16T16:31:17Z</time>
      </trkpt>
      <trkpt lat="45.91739" lon="6.6683">
        <ele>572.4</ele>
        <time>2020-08-16T16:31:18Z</time>
      </trkpt>
      <trkpt lat="45.91736" lon="6.66836">
        <ele>572.6</ele>
        <time>2020-08-16T16:31:19Z</time>
      </trkpt>
      <trkpt lat="45.91733" lon="6.66843">
        <ele>572.6</ele>
        <time>2020-08-16T16:31:20Z</time>
      </trkpt>
      <trkpt lat="45.9173" lon="6.6685">
        <ele>572.6</ele>
        <time>2020-08-16T16:31:21Z</time>
      </trkpt>
      <trkpt lat="45.91728" lon="6.66856">
        <ele>572.6</ele>
        <time>2020-08-16T16:31:22Z</time>
      </trkpt>
      <trkpt lat="45.91725" lon="6.66863">
        <ele>572.8</ele>
        <time>2020-08-16T16:31:23Z</time>
      </trkpt>
      <trkpt lat="45.91722" lon="6.66869">
        <ele>572.8</ele>
        <time>2020-08-16T16:31:24Z</time>
      </trkpt>
      <trkpt lat="45.91719" lon="6.66876">
        <ele>572.8</ele>
        <time>2020-08-16T16:31:25Z</time>
      </trkpt>
      <trkpt lat="45.91717" lon="6.66882">
        <ele>572.8</ele>
        <time>2020-08-16T16:31:26Z</time>
      </trkpt>
      <trkpt lat="45.91714" lon="6.66889">
        <ele>573</ele>
        <time>2020-08-16T16:31:27Z</time>
      </trkpt>
      <trkpt lat="45.91712" lon="6.66895">
        <ele>573</ele>
        <time>2020-08-16T16:31:28Z</time>
      </trkpt>
      <trkpt lat="45.91709" lon="6.66901">
        <ele>573</ele>
        <time>2020-08-16T16:31:29Z</time>
      </trkpt>
      <trkpt lat="45.91706" lon="6.66908">
        <ele>573.2</ele>
        <time>2020-08-16T16:31:30Z</time>
      </trkpt>
      <trkpt lat="45.91703" lon="6.66914">
        <ele>573.2</ele>
        <time>2020-08-16T16:31:31Z</time>
      </trkpt>
      <trkpt lat="45.917" lon="6.66921">
        <ele>573.2</ele>
        <time>2020-08-16T16:31:32Z</time>
      </trkpt>
      <trkpt lat="45.91698" lon="6.66927">
        <ele>573.2</ele>
        <time>2020-08-16T16:31:33Z</time>
      </trkpt>
      <trkpt lat="45.91695" lon="6.66934">
        <ele>573.4</ele>
        <time>2020-08-16T16:31:34Z</time>
      </trkpt>
      <trkpt lat="45.91692" lon="6.6694">
        <ele>573.4</ele>
        <time>2020-08-16T16:31:35Z</time>
      </trkpt>
      <trkpt lat="45.91689" lon="6.66947">
        <ele>573.4</ele>
        <time>2020-08-16T16:31:36Z</time>
      </trkpt>
      <trkpt lat="45.91687" lon="6.66953">
        <ele>573.6</ele>
        <time>2020-08-16T16:31:37Z</time>
      </trkpt>
      <trkpt lat="45.91684" lon="6.6696">
        <ele>573.6</ele>
        <time>2020-08-16T16:31:38Z</time>
      </trkpt>
      <trkpt lat="45.91682" lon="6.66967">
        <ele>573.6</ele>
        <time>2020-08-16T16:31:39Z</time>
      </trkpt>
      <trkpt lat="45.91679" lon="6.66973">
        <ele>574</ele>
        <time>2020-08-16T16:31:40Z</time>
      </trkpt>
      <trkpt lat="45.91676" lon="6.6698">
        <ele>573.8</ele>
        <time>2020-08-16T16:31:41Z</time>
      </trkpt>
      <trkpt lat="45.91673" lon="6.66986">
        <ele>573.6</ele>
        <time>2020-08-16T16:31:42Z</time>
      </trkpt>
      <trkpt lat="45.91671" lon="6.66993">
        <ele>573.6</ele>
        <time>2020-08-16T16:31:43Z</time>
      </trkpt>
      <trkpt lat="45.91668" lon="6.67">
        <ele>573.6</ele>
        <time>2020-08-16T16:31:44Z</time>
      </trkpt>
      <trkpt lat="45.91665" lon="6.67007">
        <ele>573.6</ele>
        <time>2020-08-16T16:31:45Z</time>
      </trkpt>
      <trkpt lat="45.91662" lon="6.67014">
        <ele>573.8</ele>
        <time>2020-08-16T16:31:46Z</time>
      </trkpt>
      <trkpt lat="45.91659" lon="6.67021">
        <ele>573.8</ele>
        <time>2020-08-16T16:31:47Z</time>
      </trkpt>
      <trkpt lat="45.91656" lon="6.67028">
        <ele>574</ele>
        <time>2020-08-16T16:31:48Z</time>
      </trkpt>
      <trkpt lat="45.91653" lon="6.67035">
        <ele>574</ele>
        <time>2020-08-16T16:31:49Z</time>
      </trkpt>
      <trkpt lat="45.9165" lon="6.67042">
        <ele>574</ele>
        <time>2020-08-16T16:31:50Z</time>
      </trkpt>
      <trkpt lat="45.91648" lon="6.67049">
        <ele>573.8</ele>
        <time>2020-08-16T16:31:51Z</time>
      </trkpt>
      <trkpt lat="45.91645" lon="6.67056">
        <ele>574.2</ele>
        <time>2020-08-16T16:31:52Z</time>
      </trkpt>
      <trkpt lat="45.91642" lon="6.67063">
        <ele>574.2</ele>
        <time>2020-08-16T16:31:53Z</time>
      </trkpt>
      <trkpt lat="45.91639" lon="6.6707">
        <ele>574.2</ele>
        <time>2020-08-16T16:31:54Z</time>
      </trkpt>
      <trkpt lat="45.91636" lon="6.67077">
        <ele>574.2</ele>
        <time>2020-08-16T16:31:55Z</time>
      </trkpt>
      <trkpt lat="45.91634" lon="6.67084">
        <ele>574.2</ele>
        <time>2020-08-16T16:31:56Z</time>
      </trkpt>
      <trkpt lat="45.91631" lon="6.67091">
        <ele>574.2</ele>
        <time>2020-08-16T16:31:57Z</time>
      </trkpt>
      <trkpt lat="45.91628" lon="6.67098">
        <ele>574.2</ele>
        <time>2020-08-16T16:31:58Z</time>
      </trkpt>
      <trkpt lat="45.91625" lon="6.67105">
        <ele>574.4</ele>
        <time>2020-08-16T16:31:59Z</time>
      </trkpt>
      <trkpt lat="45.91622" lon="6.67112">
        <ele>574.4</ele>
        <time>2020-08-16T16:32:00Z</time>
      </trkpt>
      <trkpt lat="45.91619" lon="6.67119">
        <ele>574.4</ele>
        <time>2020-08-16T16:32:01Z</time>
      </trkpt>
      <trkpt lat="45.91617" lon="6.67126">
        <ele>574.6</ele>
        <time>2020-08-16T16:32:02Z</time>
      </trkpt>
      <trkpt lat="45.91614" lon="6.67132">
        <ele>574.6</ele>
        <time>2020-08-16T16:32:03Z</time>
      </trkpt>
      <trkpt lat="45.91611" lon="6.67139">
        <ele>574.6</ele>
        <time>2020-08-16T16:32:04Z</time>
      </trkpt>
      <trkpt lat="45.91608" lon="6.67145">
        <ele>574.8</ele>
        <time>2020-08-16T16:32:05Z</time>
      </trkpt>
      <trkpt lat="45.91605" lon="6.67152">
        <ele>574.8</ele>
        <time>2020-08-16T16:32:06Z</time>
      </trkpt>
      <trkpt lat="45.91602" lon="6.67159">
        <ele>574.8</ele>
        <time>2020-08-16T16:32:07Z</time>
      </trkpt>
      <trkpt lat="45.91599" lon="6.67165">
        <ele>574.8</ele>
        <time>2020-08-16T16:32:08Z</time>
      </trkpt>
      <trkpt lat="45.91596" lon="6.67172">
        <ele>574.8</ele>
        <time>2020-08-16T16:32:09Z</time>
      </trkpt>
      <trkpt lat="45.91593" lon="6.67178">
        <ele>574.8</ele>
        <time>2020-08-16T16:32:10Z</time>
      </trkpt>
      <trkpt lat="45.9159" lon="6.67185">
        <ele>574.8</ele>
        <time>2020-08-16T16:32:11Z</time>
      </trkpt>
      <trkpt lat="45.91587" lon="6.67191">
        <ele>574.8</ele>
        <time>2020-08-16T16:32:12Z</time>
      </trkpt>
      <trkpt lat="45.91584" lon="6.67197">
        <ele>575</ele>
        <time>2020-08-16T16:32:13Z</time>
      </trkpt>
      <trkpt lat="45.91581" lon="6.67204">
        <ele>575</ele>
        <time>2020-08-16T16:32:14Z</time>
      </trkpt>
      <trkpt lat="45.91578" lon="6.6721">
        <ele>575</ele>
        <time>2020-08-16T16:32:15Z</time>
      </trkpt>
      <trkpt lat="45.91575" lon="6.67217">
        <ele>575</ele>
        <time>2020-08-16T16:32:16Z</time>
      </trkpt>
      <trkpt lat="45.91572" lon="6.67223">
        <ele>575.2</ele>
        <time>2020-08-16T16:32:17Z</time>
      </trkpt>
      <trkpt lat="45.91569" lon="6.67229">
        <ele>575.2</ele>
        <time>2020-08-16T16:32:18Z</time>
      </trkpt>
      <trkpt lat="45.91566" lon="6.67235">
        <ele>575.4</ele>
        <time>2020-08-16T16:32:19Z</time>
      </trkpt>
      <trkpt lat="45.91563" lon="6.67241">
        <ele>575.4</ele>
        <time>2020-08-16T16:32:20Z</time>
      </trkpt>
      <trkpt lat="45.91561" lon="6.67248">
        <ele>575.4</ele>
        <time>2020-08-16T16:32:21Z</time>
      </trkpt>
      <trkpt lat="45.91559" lon="6.67255">
        <ele>575.4</ele>
        <time>2020-08-16T16:32:22Z</time>
      </trkpt>
      <trkpt lat="45.91557" lon="6.67261">
        <ele>575.4</ele>
        <time>2020-08-16T16:32:23Z</time>
      </trkpt>
      <trkpt lat="45.91556" lon="6.67268">
        <ele>575.4</ele>
        <time>2020-08-16T16:32:24Z</time>
      </trkpt>
      <trkpt lat="45.91554" lon="6.67275">
        <ele>575.4</ele>
        <time>2020-08-16T16:32:25Z</time>
      </trkpt>
      <trkpt lat="45.91551" lon="6.67281">
        <ele>575.4</ele>
        <time>2020-08-16T16:32:26Z</time>
      </trkpt>
      <trkpt lat="45.91549" lon="6.67287">
        <ele>575.4</ele>
        <time>2020-08-16T16:32:27Z</time>
      </trkpt>
      <trkpt lat="45.91547" lon="6.67294">
        <ele>575.4</ele>
        <time>2020-08-16T16:32:28Z</time>
      </trkpt>
      <trkpt lat="45.91544" lon="6.673">
        <ele>575.4</ele>
        <time>2020-08-16T16:32:29Z</time>
      </trkpt>
      <trkpt lat="45.91541" lon="6.67306">
        <ele>575.4</ele>
        <time>2020-08-16T16:32:30Z</time>
      </trkpt>
      <trkpt lat="45.91539" lon="6.67313">
        <ele>575.4</ele>
        <time>2020-08-16T16:32:31Z</time>
      </trkpt>
      <trkpt lat="45.91536" lon="6.67319">
        <ele>575.4</ele>
        <time>2020-08-16T16:32:32Z</time>
      </trkpt>
      <trkpt lat="45.91534" lon="6.67325">
        <ele>575.4</ele>
        <time>2020-08-16T16:32:33Z</time>
      </trkpt>
      <trkpt lat="45.91531" lon="6.67331">
        <ele>575.4</ele>
        <time>2020-08-16T16:32:34Z</time>
      </trkpt>
      <trkpt lat="45.91529" lon="6.67336">
        <ele>575.4</ele>
        <time>2020-08-16T16:32:35Z</time>
      </trkpt>
      <trkpt lat="45.91527" lon="6.67341">
        <ele>575.4</ele>
        <time>2020-08-16T16:32:36Z</time>
      </trkpt>
      <trkpt lat="45.91525" lon="6.67347">
        <ele>575.4</ele>
        <time>2020-08-16T16:32:37Z</time>
      </trkpt>
      <trkpt lat="45.91523" lon="6.67352">
        <ele>575.6</ele>
        <time>2020-08-16T16:32:38Z</time>
      </trkpt>
      <trkpt lat="45.9152" lon="6.67357">
        <ele>575.8</ele>
        <time>2020-08-16T16:32:39Z</time>
      </trkpt>
      <trkpt lat="45.91518" lon="6.67363">
        <ele>575.8</ele>
        <time>2020-08-16T16:32:40Z</time>
      </trkpt>
      <trkpt lat="45.91516" lon="6.67368">
        <ele>575.8</ele>
        <time>2020-08-16T16:32:41Z</time>
      </trkpt>
      <trkpt lat="45.91513" lon="6.67373">
        <ele>575.8</ele>
        <time>2020-08-16T16:32:42Z</time>
      </trkpt>
      <trkpt lat="45.91511" lon="6.67379">
        <ele>575.8</ele>
        <time>2020-08-16T16:32:43Z</time>
      </trkpt>
      <trkpt lat="45.91508" lon="6.67384">
        <ele>575.8</ele>
        <time>2020-08-16T16:32:44Z</time>
      </trkpt>
      <trkpt lat="45.91505" lon="6.6739">
        <ele>575.8</ele>
        <time>2020-08-16T16:32:45Z</time>
      </trkpt>
      <trkpt lat="45.91503" lon="6.67396">
        <ele>576</ele>
        <time>2020-08-16T16:32:46Z</time>
      </trkpt>
      <trkpt lat="45.91501" lon="6.67401">
        <ele>576</ele>
        <time>2020-08-16T16:32:47Z</time>
      </trkpt>
      <trkpt lat="45.91498" lon="6.67407">
        <ele>576.2</ele>
        <time>2020-08-16T16:32:48Z</time>
      </trkpt>
      <trkpt lat="45.91496" lon="6.67413">
        <ele>576.2</ele>
        <time>2020-08-16T16:32:49Z</time>
      </trkpt>
      <trkpt lat="45.91493" lon="6.67419">
        <ele>576.2</ele>
        <time>2020-08-16T16:32:50Z</time>
      </trkpt>
      <trkpt lat="45.9149" lon="6.67424">
        <ele>576.2</ele>
        <time>2020-08-16T16:32:51Z</time>
      </trkpt>
      <trkpt lat="45.91488" lon="6.6743">
        <ele>576.2</ele>
        <time>2020-08-16T16:32:52Z</time>
      </trkpt>
      <trkpt lat="45.91485" lon="6.67436">
        <ele>576.2</ele>
        <time>2020-08-16T16:32:53Z</time>
      </trkpt>
      <trkpt lat="45.91483" lon="6.67442">
        <ele>576.2</ele>
        <time>2020-08-16T16:32:54Z</time>
      </trkpt>
      <trkpt lat="45.9148" lon="6.67448">
        <ele>576.4</ele>
        <time>2020-08-16T16:32:55Z</time>
      </trkpt>
      <trkpt lat="45.91477" lon="6.67454">
        <ele>576.4</ele>
        <time>2020-08-16T16:32:56Z</time>
      </trkpt>
      <trkpt lat="45.91475" lon="6.6746">
        <ele>576.4</ele>
        <time>2020-08-16T16:32:57Z</time>
      </trkpt>
      <trkpt lat="45.91472" lon="6.67466">
        <ele>576.4</ele>
        <time>2020-08-16T16:32:58Z</time>
      </trkpt>
      <trkpt lat="45.9147" lon="6.67472">
        <ele>576.6</ele>
        <time>2020-08-16T16:32:59Z</time>
      </trkpt>
      <trkpt lat="45.91467" lon="6.67478">
        <ele>576.6</ele>
        <time>2020-08-16T16:33:00Z</time>
      </trkpt>
      <trkpt lat="45.91465" lon="6.67484">
        <ele>576.8</ele>
        <time>2020-08-16T16:33:01Z</time>
      </trkpt>
      <trkpt lat="45.91463" lon="6.6749">
        <ele>577</ele>
        <time>2020-08-16T16:33:02Z</time>
      </trkpt>
      <trkpt lat="45.9146" lon="6.67496">
        <ele>577</ele>
        <time>2020-08-16T16:33:03Z</time>
      </trkpt>
      <trkpt lat="45.91458" lon="6.67502">
        <ele>577</ele>
        <time>2020-08-16T16:33:04Z</time>
      </trkpt>
      <trkpt lat="45.91455" lon="6.67508">
        <ele>577</ele>
        <time>2020-08-16T16:33:05Z</time>
      </trkpt>
      <trkpt lat="45.91453" lon="6.67514">
        <ele>577.2</ele>
        <time>2020-08-16T16:33:06Z</time>
      </trkpt>
      <trkpt lat="45.9145" lon="6.6752">
        <ele>577</ele>
        <time>2020-08-16T16:33:07Z</time>
      </trkpt>
      <trkpt lat="45.91448" lon="6.67526">
        <ele>577</ele>
        <time>2020-08-16T16:33:08Z</time>
      </trkpt>
      <trkpt lat="45.91445" lon="6.67532">
        <ele>577</ele>
        <time>2020-08-16T16:33:09Z</time>
      </trkpt>
      <trkpt lat="45.91443" lon="6.67538">
        <ele>577</ele>
        <time>2020-08-16T16:33:10Z</time>
      </trkpt>
      <trkpt lat="45.9144" lon="6.67544">
        <ele>577</ele>
        <time>2020-08-16T16:33:11Z</time>
      </trkpt>
      <trkpt lat="45.91437" lon="6.67549">
        <ele>577</ele>
        <time>2020-08-16T16:33:12Z</time>
      </trkpt>
      <trkpt lat="45.91435" lon="6.67555">
        <ele>577</ele>
        <time>2020-08-16T16:33:13Z</time>
      </trkpt>
      <trkpt lat="45.91433" lon="6.67561">
        <ele>577</ele>
        <time>2020-08-16T16:33:14Z</time>
      </trkpt>
      <trkpt lat="45.9143" lon="6.67567">
        <ele>577</ele>
        <time>2020-08-16T16:33:15Z</time>
      </trkpt>
      <trkpt lat="45.91428" lon="6.67573">
        <ele>577</ele>
        <time>2020-08-16T16:33:16Z</time>
      </trkpt>
      <trkpt lat="45.91425" lon="6.6758">
        <ele>577.2</ele>
        <time>2020-08-16T16:33:17Z</time>
      </trkpt>
      <trkpt lat="45.91423" lon="6.67586">
        <ele>577.2</ele>
        <time>2020-08-16T16:33:18Z</time>
      </trkpt>
      <trkpt lat="45.9142" lon="6.67592">
        <ele>577.2</ele>
        <time>2020-08-16T16:33:19Z</time>
      </trkpt>
      <trkpt lat="45.91418" lon="6.67599">
        <ele>577.2</ele>
        <time>2020-08-16T16:33:20Z</time>
      </trkpt>
      <trkpt lat="45.91415" lon="6.67605">
        <ele>577.2</ele>
        <time>2020-08-16T16:33:21Z</time>
      </trkpt>
      <trkpt lat="45.91412" lon="6.67611">
        <ele>577.2</ele>
        <time>2020-08-16T16:33:22Z</time>
      </trkpt>
      <trkpt lat="45.9141" lon="6.67616">
        <ele>577.4</ele>
        <time>2020-08-16T16:33:23Z</time>
      </trkpt>
      <trkpt lat="45.91406" lon="6.67622">
        <ele>577.2</ele>
        <time>2020-08-16T16:33:24Z</time>
      </trkpt>
      <trkpt lat="45.91404" lon="6.67628">
        <ele>577.2</ele>
        <time>2020-08-16T16:33:25Z</time>
      </trkpt>
      <trkpt lat="45.91401" lon="6.67634">
        <ele>577.2</ele>
        <time>2020-08-16T16:33:26Z</time>
      </trkpt>
      <trkpt lat="45.91398" lon="6.6764">
        <ele>577.4</ele>
        <time>2020-08-16T16:33:27Z</time>
      </trkpt>
      <trkpt lat="45.91394" lon="6.67645">
        <ele>577.4</ele>
        <time>2020-08-16T16:33:28Z</time>
      </trkpt>
      <trkpt lat="45.91391" lon="6.6765">
        <ele>577.4</ele>
        <time>2020-08-16T16:33:29Z</time>
      </trkpt>
      <trkpt lat="45.91388" lon="6.67656">
        <ele>577.4</ele>
        <time>2020-08-16T16:33:30Z</time>
      </trkpt>
      <trkpt lat="45.91384" lon="6.67661">
        <ele>577.6</ele>
        <time>2020-08-16T16:33:31Z</time>
      </trkpt>
      <trkpt lat="45.91381" lon="6.67666">
        <ele>577.6</ele>
        <time>2020-08-16T16:33:32Z</time>
      </trkpt>
      <trkpt lat="45.91378" lon="6.67672">
        <ele>577.6</ele>
        <time>2020-08-16T16:33:33Z</time>
      </trkpt>
      <trkpt lat="45.91375" lon="6.67678">
        <ele>577.6</ele>
        <time>2020-08-16T16:33:34Z</time>
      </trkpt>
      <trkpt lat="45.91372" lon="6.67683">
        <ele>577.6</ele>
        <time>2020-08-16T16:33:35Z</time>
      </trkpt>
      <trkpt lat="45.91369" lon="6.67689">
        <ele>577.8</ele>
        <time>2020-08-16T16:33:36Z</time>
      </trkpt>
      <trkpt lat="45.91367" lon="6.67696">
        <ele>577.6</ele>
        <time>2020-08-16T16:33:37Z</time>
      </trkpt>
      <trkpt lat="45.91365" lon="6.67702">
        <ele>577.6</ele>
        <time>2020-08-16T16:33:38Z</time>
      </trkpt>
      <trkpt lat="45.91363" lon="6.67708">
        <ele>577.6</ele>
        <time>2020-08-16T16:33:39Z</time>
      </trkpt>
      <trkpt lat="45.91361" lon="6.67715">
        <ele>577.6</ele>
        <time>2020-08-16T16:33:40Z</time>
      </trkpt>
      <trkpt lat="45.9136" lon="6.67722">
        <ele>577.6</ele>
        <time>2020-08-16T16:33:41Z</time>
      </trkpt>
      <trkpt lat="45.91358" lon="6.67729">
        <ele>577.6</ele>
        <time>2020-08-16T16:33:42Z</time>
      </trkpt>
      <trkpt lat="45.91356" lon="6.67736">
        <ele>577.6</ele>
        <time>2020-08-16T16:33:43Z</time>
      </trkpt>
      <trkpt lat="45.91354" lon="6.67743">
        <ele>577.6</ele>
        <time>2020-08-16T16:33:44Z</time>
      </trkpt>
      <trkpt lat="45.91353" lon="6.6775">
        <ele>577.6</ele>
        <time>2020-08-16T16:33:45Z</time>
      </trkpt>
      <trkpt lat="45.91351" lon="6.67758">
        <ele>577.6</ele>
        <time>2020-08-16T16:33:46Z</time>
      </trkpt>
      <trkpt lat="45.91348" lon="6.67765">
        <ele>577.6</ele>
        <time>2020-08-16T16:33:47Z</time>
      </trkpt>
      <trkpt lat="45.91346" lon="6.67771">
        <ele>577.6</ele>
        <time>2020-08-16T16:33:48Z</time>
      </trkpt>
      <trkpt lat="45.91343" lon="6.67778">
        <ele>577.6</ele>
        <time>2020-08-16T16:33:49Z</time>
      </trkpt>
      <trkpt lat="45.9134" lon="6.67784">
        <ele>577.6</ele>
        <time>2020-08-16T16:33:50Z</time>
      </trkpt>
      <trkpt lat="45.91337" lon="6.67791">
        <ele>577.6</ele>
        <time>2020-08-16T16:33:51Z</time>
      </trkpt>
      <trkpt lat="45.91334" lon="6.67798">
        <ele>577.6</ele>
        <time>2020-08-16T16:33:52Z</time>
      </trkpt>
      <trkpt lat="45.91332" lon="6.67805">
        <ele>577.6</ele>
        <time>2020-08-16T16:33:53Z</time>
      </trkpt>
      <trkpt lat="45.91329" lon="6.67812">
        <ele>577.8</ele>
        <time>2020-08-16T16:33:54Z</time>
      </trkpt>
      <trkpt lat="45.91326" lon="6.67818">
        <ele>577.8</ele>
        <time>2020-08-16T16:33:55Z</time>
      </trkpt>
      <trkpt lat="45.91323" lon="6.67825">
        <ele>577.8</ele>
        <time>2020-08-16T16:33:56Z</time>
      </trkpt>
      <trkpt lat="45.9132" lon="6.67831">
        <ele>578</ele>
        <time>2020-08-16T16:33:57Z</time>
      </trkpt>
      <trkpt lat="45.91317" lon="6.67838">
        <ele>578.2</ele>
        <time>2020-08-16T16:33:58Z</time>
      </trkpt>
      <trkpt lat="45.91315" lon="6.67844">
        <ele>578.2</ele>
        <time>2020-08-16T16:33:59Z</time>
      </trkpt>
      <trkpt lat="45.91312" lon="6.6785">
        <ele>578.2</ele>
        <time>2020-08-16T16:34:00Z</time>
      </trkpt>
      <trkpt lat="45.91309" lon="6.67857">
        <ele>578.2</ele>
        <time>2020-08-16T16:34:01Z</time>
      </trkpt>
      <trkpt lat="45.91307" lon="6.67863">
        <ele>578.4</ele>
        <time>2020-08-16T16:34:02Z</time>
      </trkpt>
      <trkpt lat="45.91304" lon="6.67869">
        <ele>578.4</ele>
        <time>2020-08-16T16:34:03Z</time>
      </trkpt>
      <trkpt lat="45.91302" lon="6.67876">
        <ele>578.4</ele>
        <time>2020-08-16T16:34:04Z</time>
      </trkpt>
      <trkpt lat="45.91299" lon="6.67882">
        <ele>578.4</ele>
        <time>2020-08-16T16:34:05Z</time>
      </trkpt>
      <trkpt lat="45.91296" lon="6.67888">
        <ele>578.4</ele>
        <time>2020-08-16T16:34:06Z</time>
      </trkpt>
      <trkpt lat="45.91293" lon="6.67895">
        <ele>578.4</ele>
        <time>2020-08-16T16:34:07Z</time>
      </trkpt>
      <trkpt lat="45.91291" lon="6.67901">
        <ele>578.4</ele>
        <time>2020-08-16T16:34:08Z</time>
      </trkpt>
      <trkpt lat="45.91288" lon="6.67908">
        <ele>578.4</ele>
        <time>2020-08-16T16:34:09Z</time>
      </trkpt>
      <trkpt lat="45.91285" lon="6.67914">
        <ele>578.4</ele>
        <time>2020-08-16T16:34:10Z</time>
      </trkpt>
      <trkpt lat="45.91283" lon="6.6792">
        <ele>578.6</ele>
        <time>2020-08-16T16:34:11Z</time>
      </trkpt>
      <trkpt lat="45.9128" lon="6.67926">
        <ele>578.8</ele>
        <time>2020-08-16T16:34:12Z</time>
      </trkpt>
      <trkpt lat="45.91278" lon="6.67932">
        <ele>578.8</ele>
        <time>2020-08-16T16:34:13Z</time>
      </trkpt>
      <trkpt lat="45.91275" lon="6.67938">
        <ele>578.8</ele>
        <time>2020-08-16T16:34:14Z</time>
      </trkpt>
      <trkpt lat="45.91272" lon="6.67944">
        <ele>579</ele>
        <time>2020-08-16T16:34:15Z</time>
      </trkpt>
      <trkpt lat="45.9127" lon="6.6795">
        <ele>579</ele>
        <time>2020-08-16T16:34:16Z</time>
      </trkpt>
      <trkpt lat="45.91267" lon="6.67956">
        <ele>579</ele>
        <time>2020-08-16T16:34:17Z</time>
      </trkpt>
      <trkpt lat="45.91265" lon="6.67962">
        <ele>579</ele>
        <time>2020-08-16T16:34:18Z</time>
      </trkpt>
      <trkpt lat="45.91263" lon="6.67968">
        <ele>579</ele>
        <time>2020-08-16T16:34:19Z</time>
      </trkpt>
      <trkpt lat="45.9126" lon="6.67974">
        <ele>579</ele>
        <time>2020-08-16T16:34:20Z</time>
      </trkpt>
      <trkpt lat="45.91258" lon="6.6798">
        <ele>579</ele>
        <time>2020-08-16T16:34:21Z</time>
      </trkpt>
      <trkpt lat="45.91255" lon="6.67985">
        <ele>579</ele>
        <time>2020-08-16T16:34:22Z</time>
      </trkpt>
      <trkpt lat="45.91253" lon="6.67991">
        <ele>579</ele>
        <time>2020-08-16T16:34:23Z</time>
      </trkpt>
      <trkpt lat="45.9125" lon="6.67996">
        <ele>579</ele>
        <time>2020-08-16T16:34:24Z</time>
      </trkpt>
      <trkpt lat="45.91248" lon="6.68002">
        <ele>579</ele>
        <time>2020-08-16T16:34:25Z</time>
      </trkpt>
      <trkpt lat="45.91246" lon="6.68007">
        <ele>579</ele>
        <time>2020-08-16T16:34:26Z</time>
      </trkpt>
      <trkpt lat="45.91244" lon="6.68011">
        <ele>579</ele>
        <time>2020-08-16T16:34:27Z</time>
      </trkpt>
      <trkpt lat="45.91243" lon="6.68016">
        <ele>579</ele>
        <time>2020-08-16T16:34:28Z</time>
      </trkpt>
      <trkpt lat="45.91241" lon="6.6802">
        <ele>579</ele>
        <time>2020-08-16T16:34:29Z</time>
      </trkpt>
      <trkpt lat="45.91239" lon="6.68024">
        <ele>579</ele>
        <time>2020-08-16T16:34:30Z</time>
      </trkpt>
      <trkpt lat="45.91237" lon="6.68028">
        <ele>579</ele>
        <time>2020-08-16T16:34:31Z</time>
      </trkpt>
      <trkpt lat="45.91235" lon="6.68031">
        <ele>579</ele>
        <time>2020-08-16T16:34:32Z</time>
      </trkpt>
      <trkpt lat="45.91234" lon="6.68035">
        <ele>579.2</ele>
        <time>2020-08-16T16:34:33Z</time>
      </trkpt>
      <trkpt lat="45.91232" lon="6.68039">
        <ele>579.2</ele>
        <time>2020-08-16T16:34:34Z</time>
      </trkpt>
      <trkpt lat="45.91231" lon="6.68042">
        <ele>579.2</ele>
        <time>2020-08-16T16:34:35Z</time>
      </trkpt>
      <trkpt lat="45.91229" lon="6.68045">
        <ele>579.2</ele>
        <time>2020-08-16T16:34:36Z</time>
      </trkpt>
      <trkpt lat="45.91228" lon="6.68048">
        <ele>579.2</ele>
        <time>2020-08-16T16:34:37Z</time>
      </trkpt>
      <trkpt lat="45.91227" lon="6.68051">
        <ele>579.2</ele>
        <time>2020-08-16T16:34:38Z</time>
      </trkpt>
      <trkpt lat="45.91226" lon="6.68054">
        <ele>579.2</ele>
        <time>2020-08-16T16:34:39Z</time>
      </trkpt>
      <trkpt lat="45.91225" lon="6.68057">
        <ele>579.2</ele>
        <time>2020-08-16T16:34:40Z</time>
      </trkpt>
      <trkpt lat="45.91223" lon="6.6806">
        <ele>579.2</ele>
        <time>2020-08-16T16:34:41Z</time>
      </trkpt>
      <trkpt lat="45.91222" lon="6.68062">
        <ele>579.2</ele>
        <time>2020-08-16T16:34:42Z</time>
      </trkpt>
      <trkpt lat="45.91221" lon="6.68065">
        <ele>579.2</ele>
        <time>2020-08-16T16:34:43Z</time>
      </trkpt>
      <trkpt lat="45.9122" lon="6.68068">
        <ele>579.2</ele>
        <time>2020-08-16T16:34:44Z</time>
      </trkpt>
      <trkpt lat="45.91219" lon="6.6807">
        <ele>579.2</ele>
        <time>2020-08-16T16:34:45Z</time>
      </trkpt>
      <trkpt lat="45.91218" lon="6.68072">
        <ele>579.2</ele>
        <time>2020-08-16T16:34:46Z</time>
      </trkpt>
      <trkpt lat="45.91218" lon="6.68074">
        <ele>579.2</ele>
        <time>2020-08-16T16:34:47Z</time>
      </trkpt>
      <trkpt lat="45.91217" lon="6.68075">
        <ele>579.2</ele>
        <time>2020-08-16T16:34:48Z</time>
      </trkpt>
      <trkpt lat="45.91216" lon="6.68077">
        <ele>579.2</ele>
        <time>2020-08-16T16:34:49Z</time>
      </trkpt>
      <trkpt lat="45.91216" lon="6.68078">
        <ele>579.2</ele>
        <time>2020-08-16T16:34:50Z</time>
      </trkpt>
      <trkpt lat="45.91216" lon="6.68079">
        <ele>579.2</ele>
        <time>2020-08-16T16:34:51Z</time>
      </trkpt>
      <trkpt lat="45.91216" lon="6.6808">
        <ele>579.2</ele>
        <time>2020-08-16T16:34:52Z</time>
      </trkpt>
      <trkpt lat="45.91216" lon="6.6808">
        <ele>579.4</ele>
        <time>2020-08-16T16:34:53Z</time>
      </trkpt>
      <trkpt lat="45.91215" lon="6.6808">
        <ele>579.4</ele>
        <time>2020-08-16T16:34:54Z</time>
      </trkpt>
      <trkpt lat="45.91215" lon="6.6808">
        <ele>579.4</ele>
        <time>2020-08-16T16:34:55Z</time>
      </trkpt>
      <trkpt lat="45.91215" lon="6.6808">
        <ele>579.4</ele>
        <time>2020-08-16T16:34:56Z</time>
      </trkpt>
      <trkpt lat="45.91215" lon="6.6808">
        <ele>579.4</ele>
        <time>2020-08-16T16:34:57Z</time>
      </trkpt>
      <trkpt lat="45.91215" lon="6.6808">
        <ele>579.4</ele>
        <time>2020-08-16T16:34:58Z</time>
      </trkpt>
      <trkpt lat="45.91209" lon="6.68097">
        <ele>579.4</ele>
        <time>2020-08-16T16:35:35Z</time>
      </trkpt>
      <trkpt lat="45.91208" lon="6.68099">
        <ele>579.4</ele>
        <time>2020-08-16T16:35:36Z</time>
      </trkpt>
      <trkpt lat="45.91207" lon="6.68101">
        <ele>579.6</ele>
        <time>2020-08-16T16:35:37Z</time>
      </trkpt>
      <trkpt lat="45.91206" lon="6.68104">
        <ele>579.6</ele>
        <time>2020-08-16T16:35:38Z</time>
      </trkpt>
      <trkpt lat="45.91206" lon="6.68106">
        <ele>579.6</ele>
        <time>2020-08-16T16:35:39Z</time>
      </trkpt>
      <trkpt lat="45.91205" lon="6.68108">
        <ele>579.6</ele>
        <time>2020-08-16T16:35:40Z</time>
      </trkpt>
      <trkpt lat="45.91204" lon="6.6811">
        <ele>579.6</ele>
        <time>2020-08-16T16:35:41Z</time>
      </trkpt>
      <trkpt lat="45.91203" lon="6.68112">
        <ele>579.6</ele>
        <time>2020-08-16T16:35:42Z</time>
      </trkpt>
      <trkpt lat="45.91202" lon="6.68115">
        <ele>579.8</ele>
        <time>2020-08-16T16:35:43Z</time>
      </trkpt>
      <trkpt lat="45.91201" lon="6.68117">
        <ele>579.8</ele>
        <time>2020-08-16T16:35:44Z</time>
      </trkpt>
      <trkpt lat="45.912" lon="6.68119">
        <ele>579.8</ele>
        <time>2020-08-16T16:35:45Z</time>
      </trkpt>
      <trkpt lat="45.912" lon="6.68122">
        <ele>579.8</ele>
        <time>2020-08-16T16:35:46Z</time>
      </trkpt>
      <trkpt lat="45.91199" lon="6.68124">
        <ele>579.8</ele>
        <time>2020-08-16T16:35:47Z</time>
      </trkpt>
      <trkpt lat="45.91197" lon="6.68127">
        <ele>579.8</ele>
        <time>2020-08-16T16:35:48Z</time>
      </trkpt>
      <trkpt lat="45.91196" lon="6.6813">
        <ele>579.8</ele>
        <time>2020-08-16T16:35:49Z</time>
      </trkpt>
      <trkpt lat="45.91195" lon="6.68133">
        <ele>580</ele>
        <time>2020-08-16T16:35:50Z</time>
      </trkpt>
      <trkpt lat="45.91193" lon="6.68136">
        <ele>580</ele>
        <time>2020-08-16T16:35:51Z</time>
      </trkpt>
      <trkpt lat="45.91192" lon="6.6814">
        <ele>580</ele>
        <time>2020-08-16T16:35:52Z</time>
      </trkpt>
      <trkpt lat="45.9119" lon="6.68143">
        <ele>580.2</ele>
        <time>2020-08-16T16:35:53Z</time>
      </trkpt>
      <trkpt lat="45.91188" lon="6.68147">
        <ele>580.2</ele>
        <time>2020-08-16T16:35:54Z</time>
      </trkpt>
      <trkpt lat="45.91186" lon="6.68152">
        <ele>580.2</ele>
        <time>2020-08-16T16:35:55Z</time>
      </trkpt>
      <trkpt lat="45.91184" lon="6.68156">
        <ele>580.2</ele>
        <time>2020-08-16T16:35:56Z</time>
      </trkpt>
      <trkpt lat="45.91182" lon="6.68161">
        <ele>580.2</ele>
        <time>2020-08-16T16:35:57Z</time>
      </trkpt>
      <trkpt lat="45.9118" lon="6.68166">
        <ele>580.2</ele>
        <time>2020-08-16T16:35:58Z</time>
      </trkpt>
      <trkpt lat="45.91178" lon="6.68171">
        <ele>580.2</ele>
        <time>2020-08-16T16:35:59Z</time>
      </trkpt>
      <trkpt lat="45.91176" lon="6.68176">
        <ele>580.2</ele>
        <time>2020-08-16T16:36:00Z</time>
      </trkpt>
      <trkpt lat="45.91174" lon="6.68182">
        <ele>580.2</ele>
        <time>2020-08-16T16:36:01Z</time>
      </trkpt>
      <trkpt lat="45.91171" lon="6.68187">
        <ele>580.2</ele>
        <time>2020-08-16T16:36:02Z</time>
      </trkpt>
      <trkpt lat="45.91169" lon="6.68193">
        <ele>580.2</ele>
        <time>2020-08-16T16:36:03Z</time>
      </trkpt>
      <trkpt lat="45.91167" lon="6.68198">
        <ele>580.2</ele>
        <time>2020-08-16T16:36:04Z</time>
      </trkpt>
      <trkpt lat="45.91164" lon="6.68204">
        <ele>580.2</ele>
        <time>2020-08-16T16:36:05Z</time>
      </trkpt>
      <trkpt lat="45.91162" lon="6.68209">
        <ele>580.2</ele>
        <time>2020-08-16T16:36:06Z</time>
      </trkpt>
      <trkpt lat="45.91159" lon="6.68215">
        <ele>580.4</ele>
        <time>2020-08-16T16:36:07Z</time>
      </trkpt>
      <trkpt lat="45.91157" lon="6.68221">
        <ele>580.4</ele>
        <time>2020-08-16T16:36:08Z</time>
      </trkpt>
      <trkpt lat="45.91155" lon="6.68227">
        <ele>580.4</ele>
        <time>2020-08-16T16:36:09Z</time>
      </trkpt>
      <trkpt lat="45.91152" lon="6.68233">
        <ele>580.4</ele>
        <time>2020-08-16T16:36:10Z</time>
      </trkpt>
      <trkpt lat="45.9115" lon="6.68239">
        <ele>580.4</ele>
        <time>2020-08-16T16:36:11Z</time>
      </trkpt>
      <trkpt lat="45.91148" lon="6.68245">
        <ele>580.4</ele>
        <time>2020-08-16T16:36:12Z</time>
      </trkpt>
      <trkpt lat="45.91145" lon="6.68252">
        <ele>580.6</ele>
        <time>2020-08-16T16:36:13Z</time>
      </trkpt>
      <trkpt lat="45.91143" lon="6.68258">
        <ele>580.6</ele>
        <time>2020-08-16T16:36:14Z</time>
      </trkpt>
      <trkpt lat="45.9114" lon="6.68264">
        <ele>580.6</ele>
        <time>2020-08-16T16:36:15Z</time>
      </trkpt>
      <trkpt lat="45.91138" lon="6.6827">
        <ele>580.6</ele>
        <time>2020-08-16T16:36:16Z</time>
      </trkpt>
      <trkpt lat="45.91135" lon="6.68276">
        <ele>580.6</ele>
        <time>2020-08-16T16:36:17Z</time>
      </trkpt>
      <trkpt lat="45.91133" lon="6.68282">
        <ele>580.8</ele>
        <time>2020-08-16T16:36:18Z</time>
      </trkpt>
      <trkpt lat="45.9113" lon="6.68288">
        <ele>580.8</ele>
        <time>2020-08-16T16:36:19Z</time>
      </trkpt>
      <trkpt lat="45.91128" lon="6.68294">
        <ele>580.8</ele>
        <time>2020-08-16T16:36:20Z</time>
      </trkpt>
      <trkpt lat="45.91125" lon="6.683">
        <ele>581</ele>
        <time>2020-08-16T16:36:21Z</time>
      </trkpt>
      <trkpt lat="45.91123" lon="6.68306">
        <ele>581</ele>
        <time>2020-08-16T16:36:22Z</time>
      </trkpt>
      <trkpt lat="45.9112" lon="6.68312">
        <ele>581</ele>
        <time>2020-08-16T16:36:23Z</time>
      </trkpt>
      <trkpt lat="45.91118" lon="6.68318">
        <ele>581.2</ele>
        <time>2020-08-16T16:36:24Z</time>
      </trkpt>
      <trkpt lat="45.91115" lon="6.68325">
        <ele>581</ele>
        <time>2020-08-16T16:36:25Z</time>
      </trkpt>
      <trkpt lat="45.91113" lon="6.68331">
        <ele>581.2</ele>
        <time>2020-08-16T16:36:26Z</time>
      </trkpt>
      <trkpt lat="45.9111" lon="6.68337">
        <ele>581</ele>
        <time>2020-08-16T16:36:27Z</time>
      </trkpt>
      <trkpt lat="45.91108" lon="6.68343">
        <ele>581.2</ele>
        <time>2020-08-16T16:36:28Z</time>
      </trkpt>
      <trkpt lat="45.91105" lon="6.68349">
        <ele>581.2</ele>
        <time>2020-08-16T16:36:29Z</time>
      </trkpt>
      <trkpt lat="45.91103" lon="6.68355">
        <ele>581.4</ele>
        <time>2020-08-16T16:36:30Z</time>
      </trkpt>
      <trkpt lat="45.911" lon="6.68361">
        <ele>581.4</ele>
        <time>2020-08-16T16:36:31Z</time>
      </trkpt>
      <trkpt lat="45.91098" lon="6.68367">
        <ele>581.4</ele>
        <time>2020-08-16T16:36:32Z</time>
      </trkpt>
      <trkpt lat="45.91096" lon="6.68373">
        <ele>581.6</ele>
        <time>2020-08-16T16:36:33Z</time>
      </trkpt>
      <trkpt lat="45.91093" lon="6.68379">
        <ele>581.4</ele>
        <time>2020-08-16T16:36:34Z</time>
      </trkpt>
      <trkpt lat="45.91091" lon="6.68384">
        <ele>581.6</ele>
        <time>2020-08-16T16:36:35Z</time>
      </trkpt>
      <trkpt lat="45.91089" lon="6.6839">
        <ele>581.6</ele>
        <time>2020-08-16T16:36:36Z</time>
      </trkpt>
      <trkpt lat="45.91086" lon="6.68396">
        <ele>581.6</ele>
        <time>2020-08-16T16:36:37Z</time>
      </trkpt>
      <trkpt lat="45.91084" lon="6.68401">
        <ele>581.4</ele>
        <time>2020-08-16T16:36:38Z</time>
      </trkpt>
      <trkpt lat="45.91081" lon="6.68407">
        <ele>581.4</ele>
        <time>2020-08-16T16:36:39Z</time>
      </trkpt>
      <trkpt lat="45.91079" lon="6.68413">
        <ele>581.4</ele>
        <time>2020-08-16T16:36:40Z</time>
      </trkpt>
      <trkpt lat="45.91076" lon="6.68419">
        <ele>581.2</ele>
        <time>2020-08-16T16:36:41Z</time>
      </trkpt>
      <trkpt lat="45.91074" lon="6.68426">
        <ele>581.2</ele>
        <time>2020-08-16T16:36:42Z</time>
      </trkpt>
      <trkpt lat="45.91071" lon="6.68432">
        <ele>581.2</ele>
        <time>2020-08-16T16:36:43Z</time>
      </trkpt>
      <trkpt lat="45.91069" lon="6.68438">
        <ele>581.4</ele>
        <time>2020-08-16T16:36:44Z</time>
      </trkpt>
      <trkpt lat="45.91066" lon="6.68443">
        <ele>581.4</ele>
        <time>2020-08-16T16:36:45Z</time>
      </trkpt>
      <trkpt lat="45.91063" lon="6.68449">
        <ele>581.6</ele>
        <time>2020-08-16T16:36:46Z</time>
      </trkpt>
      <trkpt lat="45.91061" lon="6.68454">
        <ele>581.6</ele>
        <time>2020-08-16T16:36:47Z</time>
      </trkpt>
      <trkpt lat="45.91058" lon="6.6846">
        <ele>581.6</ele>
        <time>2020-08-16T16:36:48Z</time>
      </trkpt>
      <trkpt lat="45.91056" lon="6.68465">
        <ele>581.6</ele>
        <time>2020-08-16T16:36:49Z</time>
      </trkpt>
      <trkpt lat="45.91053" lon="6.68471">
        <ele>581.8</ele>
        <time>2020-08-16T16:36:50Z</time>
      </trkpt>
      <trkpt lat="45.91051" lon="6.68477">
        <ele>581.8</ele>
        <time>2020-08-16T16:36:51Z</time>
      </trkpt>
      <trkpt lat="45.91049" lon="6.68482">
        <ele>581.8</ele>
        <time>2020-08-16T16:36:52Z</time>
      </trkpt>
      <trkpt lat="45.91046" lon="6.68488">
        <ele>581.8</ele>
        <time>2020-08-16T16:36:53Z</time>
      </trkpt>
      <trkpt lat="45.91044" lon="6.68494">
        <ele>581.8</ele>
        <time>2020-08-16T16:36:54Z</time>
      </trkpt>
      <trkpt lat="45.91042" lon="6.685">
        <ele>581.6</ele>
        <time>2020-08-16T16:36:55Z</time>
      </trkpt>
      <trkpt lat="45.91039" lon="6.68506">
        <ele>581.6</ele>
        <time>2020-08-16T16:36:56Z</time>
      </trkpt>
      <trkpt lat="45.91037" lon="6.68512">
        <ele>582</ele>
        <time>2020-08-16T16:36:57Z</time>
      </trkpt>
      <trkpt lat="45.91035" lon="6.68518">
        <ele>581.8</ele>
        <time>2020-08-16T16:36:58Z</time>
      </trkpt>
      <trkpt lat="45.91032" lon="6.68524">
        <ele>581.8</ele>
        <time>2020-08-16T16:36:59Z</time>
      </trkpt>
      <trkpt lat="45.9103" lon="6.6853">
        <ele>582</ele>
        <time>2020-08-16T16:37:00Z</time>
      </trkpt>
      <trkpt lat="45.91028" lon="6.68535">
        <ele>582</ele>
        <time>2020-08-16T16:37:01Z</time>
      </trkpt>
      <trkpt lat="45.91026" lon="6.6854">
        <ele>582</ele>
        <time>2020-08-16T16:37:02Z</time>
      </trkpt>
      <trkpt lat="45.91023" lon="6.68546">
        <ele>582.2</ele>
        <time>2020-08-16T16:37:03Z</time>
      </trkpt>
      <trkpt lat="45.91021" lon="6.68551">
        <ele>582.2</ele>
        <time>2020-08-16T16:37:04Z</time>
      </trkpt>
      <trkpt lat="45.91019" lon="6.68557">
        <ele>582.2</ele>
        <time>2020-08-16T16:37:05Z</time>
      </trkpt>
      <trkpt lat="45.91017" lon="6.68562">
        <ele>582.2</ele>
        <time>2020-08-16T16:37:06Z</time>
      </trkpt>
      <trkpt lat="45.91014" lon="6.68568">
        <ele>582.2</ele>
        <time>2020-08-16T16:37:07Z</time>
      </trkpt>
      <trkpt lat="45.91012" lon="6.68573">
        <ele>582.4</ele>
        <time>2020-08-16T16:37:08Z</time>
      </trkpt>
      <trkpt lat="45.91008" lon="6.68578">
        <ele>582.2</ele>
        <time>2020-08-16T16:37:09Z</time>
      </trkpt>
      <trkpt lat="45.91004" lon="6.68582">
        <ele>582</ele>
        <time>2020-08-16T16:37:10Z</time>
      </trkpt>
      <trkpt lat="45.91" lon="6.68583">
        <ele>582</ele>
        <time>2020-08-16T16:37:11Z</time>
      </trkpt>
      <trkpt lat="45.90996" lon="6.68581">
        <ele>582</ele>
        <time>2020-08-16T16:37:12Z</time>
      </trkpt>
      <trkpt lat="45.90992" lon="6.68579">
        <ele>582</ele>
        <time>2020-08-16T16:37:13Z</time>
      </trkpt>
      <trkpt lat="45.90988" lon="6.68575">
        <ele>582.2</ele>
        <time>2020-08-16T16:37:14Z</time>
      </trkpt>
      <trkpt lat="45.90986" lon="6.6857">
        <ele>582.2</ele>
        <time>2020-08-16T16:37:15Z</time>
      </trkpt>
      <trkpt lat="45.90982" lon="6.68567">
        <ele>582</ele>
        <time>2020-08-16T16:37:16Z</time>
      </trkpt>
      <trkpt lat="45.90978" lon="6.68564">
        <ele>582</ele>
        <time>2020-08-16T16:37:17Z</time>
      </trkpt>
      <trkpt lat="45.90974" lon="6.6856">
        <ele>582</ele>
        <time>2020-08-16T16:37:18Z</time>
      </trkpt>
      <trkpt lat="45.90969" lon="6.68557">
        <ele>581.8</ele>
        <time>2020-08-16T16:37:19Z</time>
      </trkpt>
      <trkpt lat="45.90965" lon="6.68553">
        <ele>581.8</ele>
        <time>2020-08-16T16:37:20Z</time>
      </trkpt>
      <trkpt lat="45.9096" lon="6.6855">
        <ele>581.8</ele>
        <time>2020-08-16T16:37:21Z</time>
      </trkpt>
      <trkpt lat="45.90955" lon="6.68546">
        <ele>581.8</ele>
        <time>2020-08-16T16:37:22Z</time>
      </trkpt>
      <trkpt lat="45.90951" lon="6.68543">
        <ele>581.8</ele>
        <time>2020-08-16T16:37:23Z</time>
      </trkpt>
      <trkpt lat="45.90946" lon="6.68539">
        <ele>581.8</ele>
        <time>2020-08-16T16:37:24Z</time>
      </trkpt>
      <trkpt lat="45.90942" lon="6.68536">
        <ele>581.6</ele>
        <time>2020-08-16T16:37:25Z</time>
      </trkpt>
      <trkpt lat="45.90937" lon="6.68532">
        <ele>581.8</ele>
        <time>2020-08-16T16:37:26Z</time>
      </trkpt>
      <trkpt lat="45.90932" lon="6.68529">
        <ele>581.8</ele>
        <time>2020-08-16T16:37:27Z</time>
      </trkpt>
      <trkpt lat="45.90928" lon="6.68526">
        <ele>581.8</ele>
        <time>2020-08-16T16:37:28Z</time>
      </trkpt>
      <trkpt lat="45.90923" lon="6.68523">
        <ele>581.8</ele>
        <time>2020-08-16T16:37:29Z</time>
      </trkpt>
      <trkpt lat="45.90918" lon="6.6852">
        <ele>581.8</ele>
        <time>2020-08-16T16:37:30Z</time>
      </trkpt>
      <trkpt lat="45.90914" lon="6.68517">
        <ele>581.8</ele>
        <time>2020-08-16T16:37:31Z</time>
      </trkpt>
      <trkpt lat="45.90909" lon="6.68514">
        <ele>581.8</ele>
        <time>2020-08-16T16:37:32Z</time>
      </trkpt>
      <trkpt lat="45.90905" lon="6.68511">
        <ele>581.8</ele>
        <time>2020-08-16T16:37:33Z</time>
      </trkpt>
      <trkpt lat="45.909" lon="6.68509">
        <ele>581.8</ele>
        <time>2020-08-16T16:37:34Z</time>
      </trkpt>
      <trkpt lat="45.90896" lon="6.68507">
        <ele>581.8</ele>
        <time>2020-08-16T16:37:35Z</time>
      </trkpt>
      <trkpt lat="45.90892" lon="6.68504">
        <ele>581.6</ele>
        <time>2020-08-16T16:37:36Z</time>
      </trkpt>
      <trkpt lat="45.90887" lon="6.68502">
        <ele>581.6</ele>
        <time>2020-08-16T16:37:37Z</time>
      </trkpt>
      <trkpt lat="45.90883" lon="6.68499">
        <ele>581.6</ele>
        <time>2020-08-16T16:37:38Z</time>
      </trkpt>
      <trkpt lat="45.90879" lon="6.68497">
        <ele>581.6</ele>
        <time>2020-08-16T16:37:39Z</time>
      </trkpt>
      <trkpt lat="45.90875" lon="6.68495">
        <ele>581.4</ele>
        <time>2020-08-16T16:37:40Z</time>
      </trkpt>
      <trkpt lat="45.9087" lon="6.68493">
        <ele>581.4</ele>
        <time>2020-08-16T16:37:41Z</time>
      </trkpt>
      <trkpt lat="45.90866" lon="6.68491">
        <ele>581.4</ele>
        <time>2020-08-16T16:37:42Z</time>
      </trkpt>
      <trkpt lat="45.90862" lon="6.68489">
        <ele>581.4</ele>
        <time>2020-08-16T16:37:43Z</time>
      </trkpt>
      <trkpt lat="45.90858" lon="6.68487">
        <ele>581.4</ele>
        <time>2020-08-16T16:37:44Z</time>
      </trkpt>
      <trkpt lat="45.90854" lon="6.68486">
        <ele>581.4</ele>
        <time>2020-08-16T16:37:45Z</time>
      </trkpt>
      <trkpt lat="45.9085" lon="6.68484">
        <ele>581.4</ele>
        <time>2020-08-16T16:37:46Z</time>
      </trkpt>
      <trkpt lat="45.90846" lon="6.68481">
        <ele>581.4</ele>
        <time>2020-08-16T16:37:47Z</time>
      </trkpt>
      <trkpt lat="45.90842" lon="6.68479">
        <ele>581.4</ele>
        <time>2020-08-16T16:37:48Z</time>
      </trkpt>
      <trkpt lat="45.90839" lon="6.68477">
        <ele>581.4</ele>
        <time>2020-08-16T16:37:49Z</time>
      </trkpt>
      <trkpt lat="45.90836" lon="6.68476">
        <ele>581.4</ele>
        <time>2020-08-16T16:37:50Z</time>
      </trkpt>
      <trkpt lat="45.90833" lon="6.68474">
        <ele>581.4</ele>
        <time>2020-08-16T16:37:51Z</time>
      </trkpt>
      <trkpt lat="45.9083" lon="6.68473">
        <ele>581.6</ele>
        <time>2020-08-16T16:37:52Z</time>
      </trkpt>
      <trkpt lat="45.90827" lon="6.68472">
        <ele>581.6</ele>
        <time>2020-08-16T16:37:53Z</time>
      </trkpt>
      <trkpt lat="45.90824" lon="6.68472">
        <ele>581.6</ele>
        <time>2020-08-16T16:37:54Z</time>
      </trkpt>
      <trkpt lat="45.90822" lon="6.68472">
        <ele>581.8</ele>
        <time>2020-08-16T16:37:55Z</time>
      </trkpt>
      <trkpt lat="45.9082" lon="6.68474">
        <ele>582</ele>
        <time>2020-08-16T16:37:56Z</time>
      </trkpt>
      <trkpt lat="45.90818" lon="6.68476">
        <ele>582</ele>
        <time>2020-08-16T16:37:57Z</time>
      </trkpt>
      <trkpt lat="45.90817" lon="6.68478">
        <ele>582</ele>
        <time>2020-08-16T16:37:58Z</time>
      </trkpt>
      <trkpt lat="45.90816" lon="6.68481">
        <ele>582.2</ele>
        <time>2020-08-16T16:37:59Z</time>
      </trkpt>
      <trkpt lat="45.90817" lon="6.68484">
        <ele>582.2</ele>
        <time>2020-08-16T16:38:00Z</time>
      </trkpt>
      <trkpt lat="45.90818" lon="6.68487">
        <ele>582.2</ele>
        <time>2020-08-16T16:38:01Z</time>
      </trkpt>
      <trkpt lat="45.9082" lon="6.6849">
        <ele>582.2</ele>
        <time>2020-08-16T16:38:02Z</time>
      </trkpt>
      <trkpt lat="45.90822" lon="6.68493">
        <ele>582.2</ele>
        <time>2020-08-16T16:38:03Z</time>
      </trkpt>
      <trkpt lat="45.90823" lon="6.68496">
        <ele>582.2</ele>
        <time>2020-08-16T16:38:04Z</time>
      </trkpt>
      <trkpt lat="45.90824" lon="6.685">
        <ele>582.2</ele>
        <time>2020-08-16T16:38:05Z</time>
      </trkpt>
      <trkpt lat="45.90824" lon="6.68505">
        <ele>582.2</ele>
        <time>2020-08-16T16:38:06Z</time>
      </trkpt>
      <trkpt lat="45.90824" lon="6.68509">
        <ele>582</ele>
        <time>2020-08-16T16:38:07Z</time>
      </trkpt>
      <trkpt lat="45.90825" lon="6.68514">
        <ele>581.8</ele>
        <time>2020-08-16T16:38:08Z</time>
      </trkpt>
      <trkpt lat="45.90825" lon="6.68519">
        <ele>581.8</ele>
        <time>2020-08-16T16:38:09Z</time>
      </trkpt>
      <trkpt lat="45.90826" lon="6.68524">
        <ele>581.8</ele>
        <time>2020-08-16T16:38:10Z</time>
      </trkpt>
      <trkpt lat="45.90826" lon="6.68529">
        <ele>581.8</ele>
        <time>2020-08-16T16:38:11Z</time>
      </trkpt>
      <trkpt lat="45.90827" lon="6.68534">
        <ele>581.8</ele>
        <time>2020-08-16T16:38:12Z</time>
      </trkpt>
      <trkpt lat="45.90827" lon="6.68538">
        <ele>581.8</ele>
        <time>2020-08-16T16:38:13Z</time>
      </trkpt>
      <trkpt lat="45.90827" lon="6.68543">
        <ele>582</ele>
        <time>2020-08-16T16:38:14Z</time>
      </trkpt>
      <trkpt lat="45.90827" lon="6.68547">
        <ele>582</ele>
        <time>2020-08-16T16:38:15Z</time>
      </trkpt>
      <trkpt lat="45.90827" lon="6.68551">
        <ele>582</ele>
        <time>2020-08-16T16:38:16Z</time>
      </trkpt>
      <trkpt lat="45.90827" lon="6.68554">
        <ele>582</ele>
        <time>2020-08-16T16:38:17Z</time>
      </trkpt>
      <trkpt lat="45.90827" lon="6.68557">
        <ele>582</ele>
        <time>2020-08-16T16:38:18Z</time>
      </trkpt>
      <trkpt lat="45.90828" lon="6.6856">
        <ele>582</ele>
        <time>2020-08-16T16:38:19Z</time>
      </trkpt>
      <trkpt lat="45.90828" lon="6.68564">
        <ele>582</ele>
        <time>2020-08-16T16:38:20Z</time>
      </trkpt>
      <trkpt lat="45.90828" lon="6.68567">
        <ele>582</ele>
        <time>2020-08-16T16:38:21Z</time>
      </trkpt>
      <trkpt lat="45.90829" lon="6.68571">
        <ele>582.2</ele>
        <time>2020-08-16T16:38:22Z</time>
      </trkpt>
      <trkpt lat="45.90829" lon="6.68575">
        <ele>582.2</ele>
        <time>2020-08-16T16:38:23Z</time>
      </trkpt>
      <trkpt lat="45.90829" lon="6.6858">
        <ele>582.2</ele>
        <time>2020-08-16T16:38:24Z</time>
      </trkpt>
      <trkpt lat="45.90829" lon="6.68584">
        <ele>582.2</ele>
        <time>2020-08-16T16:38:25Z</time>
      </trkpt>
      <trkpt lat="45.9083" lon="6.6859">
        <ele>582.2</ele>
        <time>2020-08-16T16:38:26Z</time>
      </trkpt>
      <trkpt lat="45.9083" lon="6.68596">
        <ele>582.2</ele>
        <time>2020-08-16T16:38:27Z</time>
      </trkpt>
      <trkpt lat="45.9083" lon="6.68602">
        <ele>582.2</ele>
        <time>2020-08-16T16:38:28Z</time>
      </trkpt>
      <trkpt lat="45.9083" lon="6.68608">
        <ele>582.2</ele>
        <time>2020-08-16T16:38:29Z</time>
      </trkpt>
      <trkpt lat="45.90831" lon="6.68614">
        <ele>582.2</ele>
        <time>2020-08-16T16:38:30Z</time>
      </trkpt>
      <trkpt lat="45.90831" lon="6.6862">
        <ele>582.4</ele>
        <time>2020-08-16T16:38:31Z</time>
      </trkpt>
      <trkpt lat="45.90831" lon="6.68626">
        <ele>582.2</ele>
        <time>2020-08-16T16:38:32Z</time>
      </trkpt>
      <trkpt lat="45.90831" lon="6.68632">
        <ele>582.2</ele>
        <time>2020-08-16T16:38:33Z</time>
      </trkpt>
      <trkpt lat="45.90832" lon="6.68638">
        <ele>582.2</ele>
        <time>2020-08-16T16:38:34Z</time>
      </trkpt>
      <trkpt lat="45.90832" lon="6.68644">
        <ele>582.2</ele>
        <time>2020-08-16T16:38:35Z</time>
      </trkpt>
      <trkpt lat="45.90833" lon="6.68651">
        <ele>582.2</ele>
        <time>2020-08-16T16:38:36Z</time>
      </trkpt>
      <trkpt lat="45.90833" lon="6.68657">
        <ele>582.4</ele>
        <time>2020-08-16T16:38:37Z</time>
      </trkpt>
      <trkpt lat="45.90834" lon="6.68663">
        <ele>582.4</ele>
        <time>2020-08-16T16:38:38Z</time>
      </trkpt>
      <trkpt lat="45.90835" lon="6.68669">
        <ele>582.6</ele>
        <time>2020-08-16T16:38:39Z</time>
      </trkpt>
      <trkpt lat="45.90835" lon="6.68675">
        <ele>582.4</ele>
        <time>2020-08-16T16:38:40Z</time>
      </trkpt>
      <trkpt lat="45.90836" lon="6.68681">
        <ele>582.4</ele>
        <time>2020-08-16T16:38:41Z</time>
      </trkpt>
      <trkpt lat="45.90836" lon="6.68687">
        <ele>582.4</ele>
        <time>2020-08-16T16:38:42Z</time>
      </trkpt>
      <trkpt lat="45.90837" lon="6.68693">
        <ele>582.4</ele>
        <time>2020-08-16T16:38:43Z</time>
      </trkpt>
      <trkpt lat="45.90838" lon="6.68699">
        <ele>582.4</ele>
        <time>2020-08-16T16:38:44Z</time>
      </trkpt>
      <trkpt lat="45.90838" lon="6.68705">
        <ele>582.4</ele>
        <time>2020-08-16T16:38:45Z</time>
      </trkpt>
      <trkpt lat="45.9084" lon="6.68711">
        <ele>582.4</ele>
        <time>2020-08-16T16:38:46Z</time>
      </trkpt>
      <trkpt lat="45.90841" lon="6.68717">
        <ele>582.4</ele>
        <time>2020-08-16T16:38:47Z</time>
      </trkpt>
      <trkpt lat="45.90841" lon="6.68723">
        <ele>582.4</ele>
        <time>2020-08-16T16:38:48Z</time>
      </trkpt>
      <trkpt lat="45.90842" lon="6.68729">
        <ele>582.6</ele>
        <time>2020-08-16T16:38:49Z</time>
      </trkpt>
      <trkpt lat="45.90842" lon="6.68735">
        <ele>582.6</ele>
        <time>2020-08-16T16:38:50Z</time>
      </trkpt>
      <trkpt lat="45.90843" lon="6.6874">
        <ele>582.8</ele>
        <time>2020-08-16T16:38:51Z</time>
      </trkpt>
      <trkpt lat="45.90843" lon="6.68745">
        <ele>583</ele>
        <time>2020-08-16T16:38:52Z</time>
      </trkpt>
      <trkpt lat="45.90842" lon="6.6875">
        <ele>583</ele>
        <time>2020-08-16T16:38:53Z</time>
      </trkpt>
      <trkpt lat="45.9084" lon="6.68754">
        <ele>583</ele>
        <time>2020-08-16T16:38:54Z</time>
      </trkpt>
      <trkpt lat="45.90838" lon="6.68757">
        <ele>583</ele>
        <time>2020-08-16T16:38:55Z</time>
      </trkpt>
      <trkpt lat="45.90834" lon="6.68759">
        <ele>583</ele>
        <time>2020-08-16T16:38:56Z</time>
      </trkpt>
      <trkpt lat="45.90831" lon="6.6876">
        <ele>583</ele>
        <time>2020-08-16T16:38:57Z</time>
      </trkpt>
      <trkpt lat="45.90827" lon="6.68761">
        <ele>583</ele>
        <time>2020-08-16T16:38:58Z</time>
      </trkpt>
      <trkpt lat="45.90823" lon="6.68761">
        <ele>583</ele>
        <time>2020-08-16T16:38:59Z</time>
      </trkpt>
      <trkpt lat="45.90819" lon="6.68761">
        <ele>583</ele>
        <time>2020-08-16T16:39:00Z</time>
      </trkpt>
      <trkpt lat="45.90815" lon="6.68761">
        <ele>583</ele>
        <time>2020-08-16T16:39:01Z</time>
      </trkpt>
      <trkpt lat="45.90811" lon="6.68761">
        <ele>583</ele>
        <time>2020-08-16T16:39:02Z</time>
      </trkpt>
      <trkpt lat="45.90806" lon="6.68761">
        <ele>583</ele>
        <time>2020-08-16T16:39:03Z</time>
      </trkpt>
      <trkpt lat="45.90802" lon="6.68762">
        <ele>582.8</ele>
        <time>2020-08-16T16:39:04Z</time>
      </trkpt>
      <trkpt lat="45.90797" lon="6.68762">
        <ele>582.8</ele>
        <time>2020-08-16T16:39:05Z</time>
      </trkpt>
      <trkpt lat="45.90792" lon="6.68763">
        <ele>582.8</ele>
        <time>2020-08-16T16:39:06Z</time>
      </trkpt>
      <trkpt lat="45.90788" lon="6.68763">
        <ele>582.8</ele>
        <time>2020-08-16T16:39:07Z</time>
      </trkpt>
      <trkpt lat="45.90784" lon="6.68763">
        <ele>582.8</ele>
        <time>2020-08-16T16:39:08Z</time>
      </trkpt>
      <trkpt lat="45.9078" lon="6.68764">
        <ele>582.8</ele>
        <time>2020-08-16T16:39:09Z</time>
      </trkpt>
      <trkpt lat="45.90776" lon="6.68764">
        <ele>583.2</ele>
        <time>2020-08-16T16:39:10Z</time>
      </trkpt>
      <trkpt lat="45.90772" lon="6.68764">
        <ele>583.2</ele>
        <time>2020-08-16T16:39:11Z</time>
      </trkpt>
      <trkpt lat="45.90768" lon="6.68765">
        <ele>582.8</ele>
        <time>2020-08-16T16:39:12Z</time>
      </trkpt>
      <trkpt lat="45.90765" lon="6.68766">
        <ele>582.6</ele>
        <time>2020-08-16T16:39:13Z</time>
      </trkpt>
      <trkpt lat="45.90761" lon="6.68769">
        <ele>582.6</ele>
        <time>2020-08-16T16:39:14Z</time>
      </trkpt>
      <trkpt lat="45.90759" lon="6.68774">
        <ele>582.4</ele>
        <time>2020-08-16T16:39:15Z</time>
      </trkpt>
      <trkpt lat="45.90758" lon="6.68779">
        <ele>582.4</ele>
        <time>2020-08-16T16:39:16Z</time>
      </trkpt>
      <trkpt lat="45.90757" lon="6.68784">
        <ele>582.4</ele>
        <time>2020-08-16T16:39:17Z</time>
      </trkpt>
      <trkpt lat="45.90757" lon="6.6879">
        <ele>582.4</ele>
        <time>2020-08-16T16:39:18Z</time>
      </trkpt>
      <trkpt lat="45.90757" lon="6.68795">
        <ele>582.4</ele>
        <time>2020-08-16T16:39:19Z</time>
      </trkpt>
      <trkpt lat="45.90757" lon="6.68801">
        <ele>582.4</ele>
        <time>2020-08-16T16:39:20Z</time>
      </trkpt>
      <trkpt lat="45.90757" lon="6.68807">
        <ele>582.4</ele>
        <time>2020-08-16T16:39:21Z</time>
      </trkpt>
      <trkpt lat="45.90757" lon="6.68812">
        <ele>582.4</ele>
        <time>2020-08-16T16:39:22Z</time>
      </trkpt>
      <trkpt lat="45.90758" lon="6.68818">
        <ele>582.6</ele>
        <time>2020-08-16T16:39:23Z</time>
      </trkpt>
      <trkpt lat="45.90759" lon="6.68824">
        <ele>582.6</ele>
        <time>2020-08-16T16:39:24Z</time>
      </trkpt>
      <trkpt lat="45.90759" lon="6.6883">
        <ele>582.6</ele>
        <time>2020-08-16T16:39:25Z</time>
      </trkpt>
      <trkpt lat="45.90758" lon="6.68837">
        <ele>582.6</ele>
        <time>2020-08-16T16:39:26Z</time>
      </trkpt>
      <trkpt lat="45.90759" lon="6.68843">
        <ele>582.8</ele>
        <time>2020-08-16T16:39:27Z</time>
      </trkpt>
      <trkpt lat="45.90758" lon="6.68849">
        <ele>582.8</ele>
        <time>2020-08-16T16:39:28Z</time>
      </trkpt>
      <trkpt lat="45.90758" lon="6.68855">
        <ele>582.8</ele>
        <time>2020-08-16T16:39:29Z</time>
      </trkpt>
      <trkpt lat="45.90757" lon="6.68862">
        <ele>582.8</ele>
        <time>2020-08-16T16:39:30Z</time>
      </trkpt>
      <trkpt lat="45.90756" lon="6.68868">
        <ele>582.8</ele>
        <time>2020-08-16T16:39:31Z</time>
      </trkpt>
      <trkpt lat="45.90755" lon="6.68874">
        <ele>582.8</ele>
        <time>2020-08-16T16:39:32Z</time>
      </trkpt>
      <trkpt lat="45.90754" lon="6.68881">
        <ele>582.8</ele>
        <time>2020-08-16T16:39:33Z</time>
      </trkpt>
      <trkpt lat="45.90753" lon="6.68887">
        <ele>583</ele>
        <time>2020-08-16T16:39:34Z</time>
      </trkpt>
      <trkpt lat="45.90752" lon="6.68893">
        <ele>583</ele>
        <time>2020-08-16T16:39:35Z</time>
      </trkpt>
      <trkpt lat="45.90751" lon="6.68899">
        <ele>583</ele>
        <time>2020-08-16T16:39:36Z</time>
      </trkpt>
      <trkpt lat="45.90749" lon="6.68906">
        <ele>583</ele>
        <time>2020-08-16T16:39:37Z</time>
      </trkpt>
      <trkpt lat="45.90747" lon="6.68912">
        <ele>583</ele>
        <time>2020-08-16T16:39:38Z</time>
      </trkpt>
      <trkpt lat="45.90746" lon="6.68918">
        <ele>583.2</ele>
        <time>2020-08-16T16:39:39Z</time>
      </trkpt>
      <trkpt lat="45.90744" lon="6.68924">
        <ele>583.2</ele>
        <time>2020-08-16T16:39:40Z</time>
      </trkpt>
      <trkpt lat="45.90743" lon="6.6893">
        <ele>583.2</ele>
        <time>2020-08-16T16:39:41Z</time>
      </trkpt>
      <trkpt lat="45.90742" lon="6.68936">
        <ele>583.2</ele>
        <time>2020-08-16T16:39:42Z</time>
      </trkpt>
      <trkpt lat="45.90741" lon="6.68942">
        <ele>583.2</ele>
        <time>2020-08-16T16:39:43Z</time>
      </trkpt>
      <trkpt lat="45.90739" lon="6.68948">
        <ele>583.4</ele>
        <time>2020-08-16T16:39:44Z</time>
      </trkpt>
      <trkpt lat="45.90738" lon="6.68954">
        <ele>583.4</ele>
        <time>2020-08-16T16:39:45Z</time>
      </trkpt>
      <trkpt lat="45.90737" lon="6.68959">
        <ele>583.4</ele>
        <time>2020-08-16T16:39:46Z</time>
      </trkpt>
      <trkpt lat="45.90735" lon="6.68965">
        <ele>583.4</ele>
        <time>2020-08-16T16:39:47Z</time>
      </trkpt>
      <trkpt lat="45.90733" lon="6.6897">
        <ele>583.6</ele>
        <time>2020-08-16T16:39:48Z</time>
      </trkpt>
      <trkpt lat="45.90731" lon="6.68974">
        <ele>583.6</ele>
        <time>2020-08-16T16:39:49Z</time>
      </trkpt>
      <trkpt lat="45.90729" lon="6.68977">
        <ele>583.6</ele>
        <time>2020-08-16T16:39:50Z</time>
      </trkpt>
      <trkpt lat="45.90726" lon="6.6898">
        <ele>583.6</ele>
        <time>2020-08-16T16:39:51Z</time>
      </trkpt>
      <trkpt lat="45.90723" lon="6.68982">
        <ele>583.8</ele>
        <time>2020-08-16T16:39:52Z</time>
      </trkpt>
      <trkpt lat="45.9072" lon="6.68985">
        <ele>583.8</ele>
        <time>2020-08-16T16:39:53Z</time>
      </trkpt>
      <trkpt lat="45.90718" lon="6.68989">
        <ele>583.8</ele>
        <time>2020-08-16T16:39:54Z</time>
      </trkpt>
      <trkpt lat="45.90716" lon="6.68993">
        <ele>583.8</ele>
        <time>2020-08-16T16:39:55Z</time>
      </trkpt>
      <trkpt lat="45.90715" lon="6.68997">
        <ele>583.8</ele>
        <time>2020-08-16T16:39:56Z</time>
      </trkpt>
      <trkpt lat="45.90714" lon="6.69002">
        <ele>584</ele>
        <time>2020-08-16T16:39:57Z</time>
      </trkpt>
      <trkpt lat="45.90713" lon="6.69006">
        <ele>584</ele>
        <time>2020-08-16T16:39:58Z</time>
      </trkpt>
      <trkpt lat="45.90713" lon="6.69011">
        <ele>584</ele>
        <time>2020-08-16T16:39:59Z</time>
      </trkpt>
      <trkpt lat="45.90712" lon="6.69017">
        <ele>584.2</ele>
        <time>2020-08-16T16:40:00Z</time>
      </trkpt>
      <trkpt lat="45.90712" lon="6.69022">
        <ele>584.2</ele>
        <time>2020-08-16T16:40:01Z</time>
      </trkpt>
      <trkpt lat="45.90711" lon="6.69027">
        <ele>584.2</ele>
        <time>2020-08-16T16:40:02Z</time>
      </trkpt>
      <trkpt lat="45.90711" lon="6.69032">
        <ele>584.4</ele>
        <time>2020-08-16T16:40:03Z</time>
      </trkpt>
      <trkpt lat="45.9071" lon="6.69037">
        <ele>584.6</ele>
        <time>2020-08-16T16:40:04Z</time>
      </trkpt>
      <trkpt lat="45.90709" lon="6.69042">
        <ele>584.6</ele>
        <time>2020-08-16T16:40:05Z</time>
      </trkpt>
      <trkpt lat="45.90708" lon="6.69047">
        <ele>584.6</ele>
        <time>2020-08-16T16:40:06Z</time>
      </trkpt>
      <trkpt lat="45.90707" lon="6.69052">
        <ele>584.6</ele>
        <time>2020-08-16T16:40:07Z</time>
      </trkpt>
      <trkpt lat="45.90706" lon="6.69057">
        <ele>584.6</ele>
        <time>2020-08-16T16:40:08Z</time>
      </trkpt>
      <trkpt lat="45.90705" lon="6.6906">
        <ele>584.8</ele>
        <time>2020-08-16T16:40:09Z</time>
      </trkpt>
      <trkpt lat="45.90703" lon="6.69063">
        <ele>584.8</ele>
        <time>2020-08-16T16:40:10Z</time>
      </trkpt>
      <trkpt lat="45.90702" lon="6.69066">
        <ele>584.8</ele>
        <time>2020-08-16T16:40:11Z</time>
      </trkpt>
      <trkpt lat="45.90701" lon="6.6907">
        <ele>584.8</ele>
        <time>2020-08-16T16:40:12Z</time>
      </trkpt>
      <trkpt lat="45.907" lon="6.69073">
        <ele>585</ele>
        <time>2020-08-16T16:40:13Z</time>
      </trkpt>
      <trkpt lat="45.90699" lon="6.69078">
        <ele>585</ele>
        <time>2020-08-16T16:40:14Z</time>
      </trkpt>
      <trkpt lat="45.90697" lon="6.69082">
        <ele>585</ele>
        <time>2020-08-16T16:40:15Z</time>
      </trkpt>
      <trkpt lat="45.90696" lon="6.69087">
        <ele>585</ele>
        <time>2020-08-16T16:40:16Z</time>
      </trkpt>
      <trkpt lat="45.90694" lon="6.69091">
        <ele>585.2</ele>
        <time>2020-08-16T16:40:17Z</time>
      </trkpt>
      <trkpt lat="45.90693" lon="6.69096">
        <ele>585</ele>
        <time>2020-08-16T16:40:18Z</time>
      </trkpt>
      <trkpt lat="45.90691" lon="6.69101">
        <ele>585.2</ele>
        <time>2020-08-16T16:40:19Z</time>
      </trkpt>
      <trkpt lat="45.90689" lon="6.69106">
        <ele>585.2</ele>
        <time>2020-08-16T16:40:20Z</time>
      </trkpt>
      <trkpt lat="45.90688" lon="6.6911">
        <ele>585.2</ele>
        <time>2020-08-16T16:40:21Z</time>
      </trkpt>
      <trkpt lat="45.90686" lon="6.69115">
        <ele>585.2</ele>
        <time>2020-08-16T16:40:22Z</time>
      </trkpt>
      <trkpt lat="45.90684" lon="6.69119">
        <ele>585.2</ele>
        <time>2020-08-16T16:40:23Z</time>
      </trkpt>
      <trkpt lat="45.90683" lon="6.69123">
        <ele>585.2</ele>
        <time>2020-08-16T16:40:24Z</time>
      </trkpt>
      <trkpt lat="45.90682" lon="6.69126">
        <ele>585.2</ele>
        <time>2020-08-16T16:40:25Z</time>
      </trkpt>
      <trkpt lat="45.90681" lon="6.6913">
        <ele>585.4</ele>
        <time>2020-08-16T16:40:26Z</time>
      </trkpt>
      <trkpt lat="45.9068" lon="6.69134">
        <ele>585.4</ele>
        <time>2020-08-16T16:40:27Z</time>
      </trkpt>
      <trkpt lat="45.90681" lon="6.69139">
        <ele>585.4</ele>
        <time>2020-08-16T16:40:28Z</time>
      </trkpt>
      <trkpt lat="45.90681" lon="6.69143">
        <ele>585.4</ele>
        <time>2020-08-16T16:40:29Z</time>
      </trkpt>
      <trkpt lat="45.90682" lon="6.69147">
        <ele>585.6</ele>
        <time>2020-08-16T16:40:30Z</time>
      </trkpt>
      <trkpt lat="45.90682" lon="6.69151">
        <ele>585.6</ele>
        <time>2020-08-16T16:40:31Z</time>
      </trkpt>
      <trkpt lat="45.90681" lon="6.69155">
        <ele>585.8</ele>
        <time>2020-08-16T16:40:32Z</time>
      </trkpt>
      <trkpt lat="45.9068" lon="6.69158">
        <ele>585.8</ele>
        <time>2020-08-16T16:40:33Z</time>
      </trkpt>
      <trkpt lat="45.90679" lon="6.69162">
        <ele>585.8</ele>
        <time>2020-08-16T16:40:34Z</time>
      </trkpt>
      <trkpt lat="45.90677" lon="6.69166">
        <ele>586</ele>
        <time>2020-08-16T16:40:35Z</time>
      </trkpt>
      <trkpt lat="45.90676" lon="6.69169">
        <ele>586</ele>
        <time>2020-08-16T16:40:36Z</time>
      </trkpt>
      <trkpt lat="45.90674" lon="6.69173">
        <ele>586.2</ele>
        <time>2020-08-16T16:40:37Z</time>
      </trkpt>
      <trkpt lat="45.90672" lon="6.69176">
        <ele>586.2</ele>
        <time>2020-08-16T16:40:38Z</time>
      </trkpt>
      <trkpt lat="45.9067" lon="6.6918">
        <ele>586.4</ele>
        <time>2020-08-16T16:40:39Z</time>
      </trkpt>
      <trkpt lat="45.90668" lon="6.69184">
        <ele>586</ele>
        <time>2020-08-16T16:40:40Z</time>
      </trkpt>
      <trkpt lat="45.90666" lon="6.69187">
        <ele>586</ele>
        <time>2020-08-16T16:40:41Z</time>
      </trkpt>
      <trkpt lat="45.90664" lon="6.69191">
        <ele>586</ele>
        <time>2020-08-16T16:40:42Z</time>
      </trkpt>
      <trkpt lat="45.90662" lon="6.69195">
        <ele>586</ele>
        <time>2020-08-16T16:40:43Z</time>
      </trkpt>
      <trkpt lat="45.9066" lon="6.692">
        <ele>586</ele>
        <time>2020-08-16T16:40:44Z</time>
      </trkpt>
      <trkpt lat="45.90658" lon="6.69205">
        <ele>586</ele>
        <time>2020-08-16T16:40:45Z</time>
      </trkpt>
      <trkpt lat="45.90657" lon="6.6921">
        <ele>586.2</ele>
        <time>2020-08-16T16:40:46Z</time>
      </trkpt>
      <trkpt lat="45.90656" lon="6.69215">
        <ele>586.2</ele>
        <time>2020-08-16T16:40:47Z</time>
      </trkpt>
      <trkpt lat="45.90654" lon="6.69219">
        <ele>586</ele>
        <time>2020-08-16T16:40:48Z</time>
      </trkpt>
      <trkpt lat="45.90653" lon="6.69224">
        <ele>585.8</ele>
        <time>2020-08-16T16:40:49Z</time>
      </trkpt>
      <trkpt lat="45.90652" lon="6.69229">
        <ele>585.8</ele>
        <time>2020-08-16T16:40:50Z</time>
      </trkpt>
      <trkpt lat="45.90651" lon="6.69234">
        <ele>585.8</ele>
        <time>2020-08-16T16:40:51Z</time>
      </trkpt>
      <trkpt lat="45.90649" lon="6.69239">
        <ele>585.8</ele>
        <time>2020-08-16T16:40:52Z</time>
      </trkpt>
      <trkpt lat="45.90647" lon="6.69243">
        <ele>585.8</ele>
        <time>2020-08-16T16:40:53Z</time>
      </trkpt>
      <trkpt lat="45.90644" lon="6.69247">
        <ele>586</ele>
        <time>2020-08-16T16:40:54Z</time>
      </trkpt>
      <trkpt lat="45.90642" lon="6.69251">
        <ele>586</ele>
        <time>2020-08-16T16:40:55Z</time>
      </trkpt>
      <trkpt lat="45.90639" lon="6.69255">
        <ele>586.2</ele>
        <time>2020-08-16T16:40:56Z</time>
      </trkpt>
      <trkpt lat="45.90637" lon="6.69258">
        <ele>586.2</ele>
        <time>2020-08-16T16:40:57Z</time>
      </trkpt>
      <trkpt lat="45.90634" lon="6.69263">
        <ele>586.2</ele>
        <time>2020-08-16T16:40:58Z</time>
      </trkpt>
      <trkpt lat="45.90632" lon="6.69267">
        <ele>586.2</ele>
        <time>2020-08-16T16:40:59Z</time>
      </trkpt>
      <trkpt lat="45.90629" lon="6.6927">
        <ele>586.4</ele>
        <time>2020-08-16T16:41:00Z</time>
      </trkpt>
      <trkpt lat="45.90627" lon="6.69274">
        <ele>586.4</ele>
        <time>2020-08-16T16:41:01Z</time>
      </trkpt>
      <trkpt lat="45.90624" lon="6.69278">
        <ele>586.4</ele>
        <time>2020-08-16T16:41:02Z</time>
      </trkpt>
      <trkpt lat="45.90622" lon="6.69282">
        <ele>586.6</ele>
        <time>2020-08-16T16:41:03Z</time>
      </trkpt>
      <trkpt lat="45.9062" lon="6.69285">
        <ele>586.8</ele>
        <time>2020-08-16T16:41:04Z</time>
      </trkpt>
      <trkpt lat="45.90617" lon="6.69289">
        <ele>586.8</ele>
        <time>2020-08-16T16:41:05Z</time>
      </trkpt>
      <trkpt lat="45.90614" lon="6.69293">
        <ele>587</ele>
        <time>2020-08-16T16:41:06Z</time>
      </trkpt>
      <trkpt lat="45.90611" lon="6.69298">
        <ele>587</ele>
        <time>2020-08-16T16:41:07Z</time>
      </trkpt>
      <trkpt lat="45.90608" lon="6.69302">
        <ele>587</ele>
        <time>2020-08-16T16:41:08Z</time>
      </trkpt>
      <trkpt lat="45.90605" lon="6.69307">
        <ele>587.2</ele>
        <time>2020-08-16T16:41:09Z</time>
      </trkpt>
      <trkpt lat="45.90603" lon="6.69312">
        <ele>587.2</ele>
        <time>2020-08-16T16:41:10Z</time>
      </trkpt>
      <trkpt lat="45.906" lon="6.69317">
        <ele>587.2</ele>
        <time>2020-08-16T16:41:11Z</time>
      </trkpt>
      <trkpt lat="45.90596" lon="6.69322">
        <ele>587.4</ele>
        <time>2020-08-16T16:41:12Z</time>
      </trkpt>
      <trkpt lat="45.90593" lon="6.69327">
        <ele>587.4</ele>
        <time>2020-08-16T16:41:13Z</time>
      </trkpt>
      <trkpt lat="45.90591" lon="6.69331">
        <ele>587.4</ele>
        <time>2020-08-16T16:41:14Z</time>
      </trkpt>
      <trkpt lat="45.90588" lon="6.69336">
        <ele>587.4</ele>
        <time>2020-08-16T16:41:15Z</time>
      </trkpt>
      <trkpt lat="45.90585" lon="6.69341">
        <ele>587.4</ele>
        <time>2020-08-16T16:41:16Z</time>
      </trkpt>
      <trkpt lat="45.90583" lon="6.69346">
        <ele>587.4</ele>
        <time>2020-08-16T16:41:17Z</time>
      </trkpt>
      <trkpt lat="45.9058" lon="6.69351">
        <ele>587.4</ele>
        <time>2020-08-16T16:41:18Z</time>
      </trkpt>
      <trkpt lat="45.90578" lon="6.69356">
        <ele>587.6</ele>
        <time>2020-08-16T16:41:19Z</time>
      </trkpt>
      <trkpt lat="45.90576" lon="6.69362">
        <ele>587.6</ele>
        <time>2020-08-16T16:41:20Z</time>
      </trkpt>
      <trkpt lat="45.90574" lon="6.69367">
        <ele>587.6</ele>
        <time>2020-08-16T16:41:21Z</time>
      </trkpt>
      <trkpt lat="45.90572" lon="6.69373">
        <ele>587.8</ele>
        <time>2020-08-16T16:41:22Z</time>
      </trkpt>
      <trkpt lat="45.9057" lon="6.69379">
        <ele>588</ele>
        <time>2020-08-16T16:41:23Z</time>
      </trkpt>
      <trkpt lat="45.90568" lon="6.69384">
        <ele>588.2</ele>
        <time>2020-08-16T16:41:24Z</time>
      </trkpt>
      <trkpt lat="45.90567" lon="6.6939">
        <ele>588</ele>
        <time>2020-08-16T16:41:25Z</time>
      </trkpt>
      <trkpt lat="45.90565" lon="6.69395">
        <ele>588</ele>
        <time>2020-08-16T16:41:26Z</time>
      </trkpt>
      <trkpt lat="45.90563" lon="6.69401">
        <ele>588</ele>
        <time>2020-08-16T16:41:27Z</time>
      </trkpt>
      <trkpt lat="45.90562" lon="6.69405">
        <ele>588</ele>
        <time>2020-08-16T16:41:28Z</time>
      </trkpt>
      <trkpt lat="45.90561" lon="6.6941">
        <ele>588</ele>
        <time>2020-08-16T16:41:29Z</time>
      </trkpt>
      <trkpt lat="45.9056" lon="6.69415">
        <ele>588</ele>
        <time>2020-08-16T16:41:30Z</time>
      </trkpt>
      <trkpt lat="45.90558" lon="6.69421">
        <ele>588</ele>
        <time>2020-08-16T16:41:31Z</time>
      </trkpt>
      <trkpt lat="45.90557" lon="6.69427">
        <ele>588</ele>
        <time>2020-08-16T16:41:32Z</time>
      </trkpt>
      <trkpt lat="45.90555" lon="6.69433">
        <ele>588</ele>
        <time>2020-08-16T16:41:33Z</time>
      </trkpt>
      <trkpt lat="45.90554" lon="6.69439">
        <ele>588</ele>
        <time>2020-08-16T16:41:34Z</time>
      </trkpt>
      <trkpt lat="45.90553" lon="6.69445">
        <ele>588.2</ele>
        <time>2020-08-16T16:41:35Z</time>
      </trkpt>
      <trkpt lat="45.90552" lon="6.69451">
        <ele>588.2</ele>
        <time>2020-08-16T16:41:36Z</time>
      </trkpt>
      <trkpt lat="45.90551" lon="6.69457">
        <ele>588.2</ele>
        <time>2020-08-16T16:41:37Z</time>
      </trkpt>
      <trkpt lat="45.90549" lon="6.69463">
        <ele>588.4</ele>
        <time>2020-08-16T16:41:38Z</time>
      </trkpt>
      <trkpt lat="45.90548" lon="6.69469">
        <ele>588.6</ele>
        <time>2020-08-16T16:41:39Z</time>
      </trkpt>
      <trkpt lat="45.90547" lon="6.69475">
        <ele>588.8</ele>
        <time>2020-08-16T16:41:40Z</time>
      </trkpt>
      <trkpt lat="45.90546" lon="6.69481">
        <ele>588.6</ele>
        <time>2020-08-16T16:41:41Z</time>
      </trkpt>
      <trkpt lat="45.90545" lon="6.69487">
        <ele>588.6</ele>
        <time>2020-08-16T16:41:42Z</time>
      </trkpt>
      <trkpt lat="45.90544" lon="6.69492">
        <ele>588.6</ele>
        <time>2020-08-16T16:41:43Z</time>
      </trkpt>
      <trkpt lat="45.90543" lon="6.69498">
        <ele>588.8</ele>
        <time>2020-08-16T16:41:44Z</time>
      </trkpt>
      <trkpt lat="45.90542" lon="6.69504">
        <ele>588.8</ele>
        <time>2020-08-16T16:41:45Z</time>
      </trkpt>
      <trkpt lat="45.90541" lon="6.6951">
        <ele>588.8</ele>
        <time>2020-08-16T16:41:46Z</time>
      </trkpt>
      <trkpt lat="45.9054" lon="6.69516">
        <ele>588.8</ele>
        <time>2020-08-16T16:41:47Z</time>
      </trkpt>
      <trkpt lat="45.90539" lon="6.69522">
        <ele>588.8</ele>
        <time>2020-08-16T16:41:48Z</time>
      </trkpt>
      <trkpt lat="45.90538" lon="6.69528">
        <ele>588.8</ele>
        <time>2020-08-16T16:41:49Z</time>
      </trkpt>
      <trkpt lat="45.90537" lon="6.69533">
        <ele>589</ele>
        <time>2020-08-16T16:41:50Z</time>
      </trkpt>
      <trkpt lat="45.90535" lon="6.69539">
        <ele>589</ele>
        <time>2020-08-16T16:41:51Z</time>
      </trkpt>
      <trkpt lat="45.90534" lon="6.69544">
        <ele>589</ele>
        <time>2020-08-16T16:41:52Z</time>
      </trkpt>
      <trkpt lat="45.90533" lon="6.69549">
        <ele>589</ele>
        <time>2020-08-16T16:41:53Z</time>
      </trkpt>
      <trkpt lat="45.90532" lon="6.69553">
        <ele>589.2</ele>
        <time>2020-08-16T16:41:54Z</time>
      </trkpt>
      <trkpt lat="45.90532" lon="6.69557">
        <ele>589.2</ele>
        <time>2020-08-16T16:41:55Z</time>
      </trkpt>
      <trkpt lat="45.90532" lon="6.6956">
        <ele>589.4</ele>
        <time>2020-08-16T16:41:56Z</time>
      </trkpt>
      <trkpt lat="45.90532" lon="6.69563">
        <ele>589.4</ele>
        <time>2020-08-16T16:41:57Z</time>
      </trkpt>
      <trkpt lat="45.90534" lon="6.69565">
        <ele>589.4</ele>
        <time>2020-08-16T16:41:58Z</time>
      </trkpt>
      <trkpt lat="45.90537" lon="6.69567">
        <ele>589.4</ele>
        <time>2020-08-16T16:41:59Z</time>
      </trkpt>
      <trkpt lat="45.90539" lon="6.69568">
        <ele>589.4</ele>
        <time>2020-08-16T16:42:00Z</time>
      </trkpt>
      <trkpt lat="45.90542" lon="6.69569">
        <ele>589.4</ele>
        <time>2020-08-16T16:42:01Z</time>
      </trkpt>
      <trkpt lat="45.90546" lon="6.69569">
        <ele>589.2</ele>
        <time>2020-08-16T16:42:02Z</time>
      </trkpt>
      <trkpt lat="45.90549" lon="6.6957">
        <ele>589.2</ele>
        <time>2020-08-16T16:42:03Z</time>
      </trkpt>
      <trkpt lat="45.90552" lon="6.6957">
        <ele>589.2</ele>
        <time>2020-08-16T16:42:04Z</time>
      </trkpt>
      <trkpt lat="45.90556" lon="6.6957">
        <ele>589</ele>
        <time>2020-08-16T16:42:05Z</time>
      </trkpt>
      <trkpt lat="45.90559" lon="6.69568">
        <ele>589</ele>
        <time>2020-08-16T16:42:06Z</time>
      </trkpt>
      <trkpt lat="45.90563" lon="6.6957">
        <ele>589</ele>
        <time>2020-08-16T16:42:07Z</time>
      </trkpt>
      <trkpt lat="45.90566" lon="6.69569">
        <ele>589</ele>
        <time>2020-08-16T16:42:08Z</time>
      </trkpt>
      <trkpt lat="45.90569" lon="6.69571">
        <ele>589.2</ele>
        <time>2020-08-16T16:42:09Z</time>
      </trkpt>
      <trkpt lat="45.90573" lon="6.69573">
        <ele>589.2</ele>
        <time>2020-08-16T16:42:10Z</time>
      </trkpt>
      <trkpt lat="45.90575" lon="6.69573">
        <ele>589.2</ele>
        <time>2020-08-16T16:42:11Z</time>
      </trkpt>
      <trkpt lat="45.90578" lon="6.69573">
        <ele>589.4</ele>
        <time>2020-08-16T16:42:12Z</time>
      </trkpt>
      <trkpt lat="45.90579" lon="6.69574">
        <ele>589.4</ele>
        <time>2020-08-16T16:42:13Z</time>
      </trkpt>
      <trkpt lat="45.90581" lon="6.69575">
        <ele>589.6</ele>
        <time>2020-08-16T16:42:14Z</time>
      </trkpt>
      <trkpt lat="45.90582" lon="6.69575">
        <ele>589.6</ele>
        <time>2020-08-16T16:42:15Z</time>
      </trkpt>
      <trkpt lat="45.90583" lon="6.69574">
        <ele>589.8</ele>
        <time>2020-08-16T16:42:16Z</time>
      </trkpt>
      <trkpt lat="45.90583" lon="6.69574">
        <ele>589.8</ele>
        <time>2020-08-16T16:42:17Z</time>
      </trkpt>
      <trkpt lat="45.90583" lon="6.69574">
        <ele>589.6</ele>
        <time>2020-08-16T16:42:18Z</time>
      </trkpt>
      <trkpt lat="45.90584" lon="6.69574">
        <ele>589.6</ele>
        <time>2020-08-16T16:42:19Z</time>
      </trkpt>
      <trkpt lat="45.90584" lon="6.69574">
        <ele>589.6</ele>
        <time>2020-08-16T16:42:20Z</time>
      </trkpt>
      <trkpt lat="45.90583" lon="6.69574">
        <ele>589.6</ele>
        <time>2020-08-16T16:42:21Z</time>
      </trkpt>
      <trkpt lat="45.90583" lon="6.69574">
        <ele>589.6</ele>
        <time>2020-08-16T16:42:22Z</time>
      </trkpt>
      <trkpt lat="45.90584" lon="6.69574">
        <ele>589.6</ele>
        <time>2020-08-16T16:42:23Z</time>
      </trkpt>
      <trkpt lat="45.90584" lon="6.69574">
        <ele>589.6</ele>
        <time>2020-08-16T16:42:24Z</time>
      </trkpt>
      <trkpt lat="45.90573" lon="6.69568">
        <ele>589.6</ele>
        <time>2020-08-16T16:42:40Z</time>
      </trkpt>
      <trkpt lat="45.9057" lon="6.69569">
        <ele>589.6</ele>
        <time>2020-08-16T16:42:41Z</time>
      </trkpt>
      <trkpt lat="45.90568" lon="6.69569">
        <ele>589.4</ele>
        <time>2020-08-16T16:42:42Z</time>
      </trkpt>
      <trkpt lat="45.90565" lon="6.69569">
        <ele>589.2</ele>
        <time>2020-08-16T16:42:43Z</time>
      </trkpt>
      <trkpt lat="45.90562" lon="6.69569">
        <ele>589.2</ele>
        <time>2020-08-16T16:42:44Z</time>
      </trkpt>
      <trkpt lat="45.90558" lon="6.69569">
        <ele>589.2</ele>
        <time>2020-08-16T16:42:45Z</time>
      </trkpt>
      <trkpt lat="45.90554" lon="6.69568">
        <ele>589.2</ele>
        <time>2020-08-16T16:42:46Z</time>
      </trkpt>
      <trkpt lat="45.90551" lon="6.69566">
        <ele>589.4</ele>
        <time>2020-08-16T16:42:47Z</time>
      </trkpt>
      <trkpt lat="45.90548" lon="6.69568">
        <ele>589.6</ele>
        <time>2020-08-16T16:42:48Z</time>
      </trkpt>
      <trkpt lat="45.90546" lon="6.69565">
        <ele>589.6</ele>
        <time>2020-08-16T16:42:49Z</time>
      </trkpt>
      <trkpt lat="45.90543" lon="6.69565">
        <ele>589.6</ele>
        <time>2020-08-16T16:42:50Z</time>
      </trkpt>
      <trkpt lat="45.90541" lon="6.69565">
        <ele>589.6</ele>
        <time>2020-08-16T16:42:51Z</time>
      </trkpt>
      <trkpt lat="45.9054" lon="6.69567">
        <ele>589.4</ele>
        <time>2020-08-16T16:42:52Z</time>
      </trkpt>
      <trkpt lat="45.90538" lon="6.69567">
        <ele>589.4</ele>
        <time>2020-08-16T16:42:53Z</time>
      </trkpt>
      <trkpt lat="45.90536" lon="6.69566">
        <ele>589.4</ele>
        <time>2020-08-16T16:42:54Z</time>
      </trkpt>
      <trkpt lat="45.90534" lon="6.69566">
        <ele>589.4</ele>
        <time>2020-08-16T16:42:55Z</time>
      </trkpt>
      <trkpt lat="45.90533" lon="6.69567">
        <ele>589.6</ele>
        <time>2020-08-16T16:42:56Z</time>
      </trkpt>
      <trkpt lat="45.9053" lon="6.69566">
        <ele>589.6</ele>
        <time>2020-08-16T16:42:57Z</time>
      </trkpt>
      <trkpt lat="45.90528" lon="6.69566">
        <ele>589.6</ele>
        <time>2020-08-16T16:42:58Z</time>
      </trkpt>
      <trkpt lat="45.90526" lon="6.69566">
        <ele>589.6</ele>
        <time>2020-08-16T16:42:59Z</time>
      </trkpt>
      <trkpt lat="45.90523" lon="6.69565">
        <ele>589.6</ele>
        <time>2020-08-16T16:43:00Z</time>
      </trkpt>
      <trkpt lat="45.9052" lon="6.69564">
        <ele>589.4</ele>
        <time>2020-08-16T16:43:01Z</time>
      </trkpt>
      <trkpt lat="45.90517" lon="6.69564">
        <ele>589.4</ele>
        <time>2020-08-16T16:43:02Z</time>
      </trkpt>
      <trkpt lat="45.90514" lon="6.69564">
        <ele>589.2</ele>
        <time>2020-08-16T16:43:03Z</time>
      </trkpt>
      <trkpt lat="45.90512" lon="6.69564">
        <ele>589.2</ele>
        <time>2020-08-16T16:43:04Z</time>
      </trkpt>
      <trkpt lat="45.90509" lon="6.69564">
        <ele>589.2</ele>
        <time>2020-08-16T16:43:05Z</time>
      </trkpt>
      <trkpt lat="45.90507" lon="6.69564">
        <ele>589</ele>
        <time>2020-08-16T16:43:06Z</time>
      </trkpt>
      <trkpt lat="45.90506" lon="6.69563">
        <ele>589</ele>
        <time>2020-08-16T16:43:07Z</time>
      </trkpt>
      <trkpt lat="45.90505" lon="6.69563">
        <ele>589</ele>
        <time>2020-08-16T16:43:08Z</time>
      </trkpt>
      <trkpt lat="45.90504" lon="6.69563">
        <ele>589</ele>
        <time>2020-08-16T16:43:09Z</time>
      </trkpt>
      <trkpt lat="45.90503" lon="6.69563">
        <ele>589</ele>
        <time>2020-08-16T16:43:10Z</time>
      </trkpt>
      <trkpt lat="45.90504" lon="6.69562">
        <ele>589</ele>
        <time>2020-08-16T16:43:11Z</time>
      </trkpt>
      <trkpt lat="45.90504" lon="6.69562">
        <ele>589.2</ele>
        <time>2020-08-16T16:43:12Z</time>
      </trkpt>
      <trkpt lat="45.90505" lon="6.69562">
        <ele>589.2</ele>
        <time>2020-08-16T16:43:13Z</time>
      </trkpt>
      <trkpt lat="45.90505" lon="6.69561">
        <ele>589.2</ele>
        <time>2020-08-16T16:43:14Z</time>
      </trkpt>
      <trkpt lat="45.90505" lon="6.69561">
        <ele>589.2</ele>
        <time>2020-08-16T16:43:15Z</time>
      </trkpt>
      <trkpt lat="45.90505" lon="6.69562">
        <ele>589.2</ele>
        <time>2020-08-16T16:43:16Z</time>
      </trkpt>
      <trkpt lat="45.90505" lon="6.69562">
        <ele>588.6</ele>
        <time>2020-08-16T16:43:45Z</time>
      </trkpt>
      <trkpt lat="45.90505" lon="6.69562">
        <ele>589.2</ele>
        <time>2020-08-16T16:43:46Z</time>
      </trkpt>
      <trkpt lat="45.90505" lon="6.69562">
        <ele>588.6</ele>
        <time>2020-08-16T16:43:47Z</time>
      </trkpt>
      <trkpt lat="45.90505" lon="6.69562">
        <ele>588.4</ele>
        <time>2020-08-16T16:43:48Z</time>
      </trkpt>
    </trkseg>
  </trk>
</gpx>